<?xml version="1.0" encoding="UTF-8" standalone="no" ?>
<gpx xmlns="http://www.topografix.com/GPX/1/1" xmlns:xsi="http://www.w3.org/2001/XMLSchema-instance" xsi:schemaLocation="http://www.topografix.com/GPX/1/1 http://www.topografix.com/GPX/1/1/gpx.xsd" version="1.1" creator="VisuGPX - https://www.visugpx.com">
  <metadata>
    <name>Grimaud bike park</name>
  </metadata>
  <trk>
    <name><![CDATA[Grimaud bike park]]></name>
    <trkseg>
      <trkpt lat="43.29286" lon="6.55687">
        <ele>121.6</ele>
        <time>2022-02-04T15:59:05Z</time>
      </trkpt>
      <trkpt lat="43.29286" lon="6.55687">
        <ele>121.6</ele>
        <time>2022-02-04T15:59:06Z</time>
      </trkpt>
      <trkpt lat="43.29286" lon="6.55687">
        <ele>121.6</ele>
        <time>2022-02-04T15:59:07Z</time>
      </trkpt>
      <trkpt lat="43.29285" lon="6.55687">
        <ele>121.6</ele>
        <time>2022-02-04T15:59:08Z</time>
      </trkpt>
      <trkpt lat="43.29285" lon="6.55688">
        <ele>121.6</ele>
        <time>2022-02-04T15:59:09Z</time>
      </trkpt>
      <trkpt lat="43.29285" lon="6.55688">
        <ele>121.6</ele>
        <time>2022-02-04T15:59:10Z</time>
      </trkpt>
      <trkpt lat="43.29285" lon="6.55689">
        <ele>121.6</ele>
        <time>2022-02-04T15:59:11Z</time>
      </trkpt>
      <trkpt lat="43.29285" lon="6.55689">
        <ele>121.6</ele>
        <time>2022-02-04T15:59:12Z</time>
      </trkpt>
      <trkpt lat="43.29285" lon="6.55689">
        <ele>121.6</ele>
        <time>2022-02-04T15:59:13Z</time>
      </trkpt>
      <trkpt lat="43.29285" lon="6.55689">
        <ele>121.6</ele>
        <time>2022-02-04T15:59:14Z</time>
      </trkpt>
      <trkpt lat="43.29285" lon="6.55689">
        <ele>121.6</ele>
        <time>2022-02-04T15:59:15Z</time>
      </trkpt>
      <trkpt lat="43.29285" lon="6.55689">
        <ele>121.6</ele>
        <time>2022-02-04T15:59:16Z</time>
      </trkpt>
      <trkpt lat="43.29285" lon="6.55689">
        <ele>121.6</ele>
        <time>2022-02-04T15:59:17Z</time>
      </trkpt>
      <trkpt lat="43.29285" lon="6.55689">
        <ele>121.6</ele>
        <time>2022-02-04T15:59:18Z</time>
      </trkpt>
      <trkpt lat="43.29285" lon="6.55689">
        <ele>121.6</ele>
        <time>2022-02-04T15:59:19Z</time>
      </trkpt>
      <trkpt lat="43.29285" lon="6.55689">
        <ele>121.6</ele>
        <time>2022-02-04T15:59:20Z</time>
      </trkpt>
      <trkpt lat="43.29285" lon="6.55689">
        <ele>121.6</ele>
        <time>2022-02-04T15:59:21Z</time>
      </trkpt>
      <trkpt lat="43.29285" lon="6.55689">
        <ele>121.6</ele>
        <time>2022-02-04T15:59:22Z</time>
      </trkpt>
      <trkpt lat="43.29285" lon="6.55689">
        <ele>121.6</ele>
        <time>2022-02-04T15:59:23Z</time>
      </trkpt>
      <trkpt lat="43.29285" lon="6.55689">
        <ele>121.6</ele>
        <time>2022-02-04T15:59:24Z</time>
      </trkpt>
      <trkpt lat="43.29285" lon="6.55692">
        <ele>121.6</ele>
        <time>2022-02-04T15:59:25Z</time>
      </trkpt>
      <trkpt lat="43.29286" lon="6.55695">
        <ele>121.6</ele>
        <time>2022-02-04T15:59:26Z</time>
      </trkpt>
      <trkpt lat="43.29288" lon="6.55699">
        <ele>121.6</ele>
        <time>2022-02-04T15:59:27Z</time>
      </trkpt>
      <trkpt lat="43.29291" lon="6.55703">
        <ele>121.6</ele>
        <time>2022-02-04T15:59:28Z</time>
      </trkpt>
      <trkpt lat="43.29294" lon="6.55707">
        <ele>121.6</ele>
        <time>2022-02-04T15:59:29Z</time>
      </trkpt>
      <trkpt lat="43.29298" lon="6.55711">
        <ele>121.6</ele>
        <time>2022-02-04T15:59:30Z</time>
      </trkpt>
      <trkpt lat="43.29302" lon="6.55714">
        <ele>121.6</ele>
        <time>2022-02-04T15:59:31Z</time>
      </trkpt>
      <trkpt lat="43.29306" lon="6.55717">
        <ele>121.4</ele>
        <time>2022-02-04T15:59:32Z</time>
      </trkpt>
      <trkpt lat="43.29311" lon="6.55718">
        <ele>121.2</ele>
        <time>2022-02-04T15:59:33Z</time>
      </trkpt>
      <trkpt lat="43.29317" lon="6.55717">
        <ele>120.8</ele>
        <time>2022-02-04T15:59:34Z</time>
      </trkpt>
      <trkpt lat="43.29322" lon="6.55714">
        <ele>120.6</ele>
        <time>2022-02-04T15:59:35Z</time>
      </trkpt>
      <trkpt lat="43.29326" lon="6.55709">
        <ele>120.4</ele>
        <time>2022-02-04T15:59:36Z</time>
      </trkpt>
      <trkpt lat="43.29329" lon="6.55702">
        <ele>120.4</ele>
        <time>2022-02-04T15:59:37Z</time>
      </trkpt>
      <trkpt lat="43.29332" lon="6.55694">
        <ele>120</ele>
        <time>2022-02-04T15:59:38Z</time>
      </trkpt>
      <trkpt lat="43.29334" lon="6.55686">
        <ele>119.4</ele>
        <time>2022-02-04T15:59:39Z</time>
      </trkpt>
      <trkpt lat="43.29338" lon="6.55678">
        <ele>118.8</ele>
        <time>2022-02-04T15:59:40Z</time>
      </trkpt>
      <trkpt lat="43.29344" lon="6.55673">
        <ele>118.4</ele>
        <time>2022-02-04T15:59:41Z</time>
      </trkpt>
      <trkpt lat="43.2935" lon="6.5567">
        <ele>117.4</ele>
        <time>2022-02-04T15:59:42Z</time>
      </trkpt>
      <trkpt lat="43.29356" lon="6.55672">
        <ele>116.8</ele>
        <time>2022-02-04T15:59:43Z</time>
      </trkpt>
      <trkpt lat="43.29363" lon="6.55675">
        <ele>116.4</ele>
        <time>2022-02-04T15:59:44Z</time>
      </trkpt>
      <trkpt lat="43.29371" lon="6.5568">
        <ele>116</ele>
        <time>2022-02-04T15:59:45Z</time>
      </trkpt>
      <trkpt lat="43.29377" lon="6.55686">
        <ele>115.6</ele>
        <time>2022-02-04T15:59:46Z</time>
      </trkpt>
      <trkpt lat="43.29384" lon="6.55693">
        <ele>115.4</ele>
        <time>2022-02-04T15:59:47Z</time>
      </trkpt>
      <trkpt lat="43.2939" lon="6.557">
        <ele>115</ele>
        <time>2022-02-04T15:59:48Z</time>
      </trkpt>
      <trkpt lat="43.29397" lon="6.55707">
        <ele>114.6</ele>
        <time>2022-02-04T15:59:49Z</time>
      </trkpt>
      <trkpt lat="43.29404" lon="6.55712">
        <ele>114.2</ele>
        <time>2022-02-04T15:59:50Z</time>
      </trkpt>
      <trkpt lat="43.29411" lon="6.55716">
        <ele>114</ele>
        <time>2022-02-04T15:59:51Z</time>
      </trkpt>
      <trkpt lat="43.29419" lon="6.55719">
        <ele>113</ele>
        <time>2022-02-04T15:59:52Z</time>
      </trkpt>
      <trkpt lat="43.29428" lon="6.55724">
        <ele>112.2</ele>
        <time>2022-02-04T15:59:53Z</time>
      </trkpt>
      <trkpt lat="43.29435" lon="6.55731">
        <ele>111.4</ele>
        <time>2022-02-04T15:59:54Z</time>
      </trkpt>
      <trkpt lat="43.2944" lon="6.55739">
        <ele>110.4</ele>
        <time>2022-02-04T15:59:55Z</time>
      </trkpt>
      <trkpt lat="43.29444" lon="6.55749">
        <ele>109.4</ele>
        <time>2022-02-04T15:59:56Z</time>
      </trkpt>
      <trkpt lat="43.29448" lon="6.5576">
        <ele>108.8</ele>
        <time>2022-02-04T15:59:57Z</time>
      </trkpt>
      <trkpt lat="43.29451" lon="6.55771">
        <ele>108.4</ele>
        <time>2022-02-04T15:59:58Z</time>
      </trkpt>
      <trkpt lat="43.29455" lon="6.55782">
        <ele>108.2</ele>
        <time>2022-02-04T15:59:59Z</time>
      </trkpt>
      <trkpt lat="43.2946" lon="6.55793">
        <ele>108</ele>
        <time>2022-02-04T16:00:00Z</time>
      </trkpt>
      <trkpt lat="43.29465" lon="6.55803">
        <ele>107.8</ele>
        <time>2022-02-04T16:00:01Z</time>
      </trkpt>
      <trkpt lat="43.29471" lon="6.55813">
        <ele>106.6</ele>
        <time>2022-02-04T16:00:02Z</time>
      </trkpt>
      <trkpt lat="43.29478" lon="6.55821">
        <ele>106</ele>
        <time>2022-02-04T16:00:03Z</time>
      </trkpt>
      <trkpt lat="43.29486" lon="6.55828">
        <ele>105.4</ele>
        <time>2022-02-04T16:00:04Z</time>
      </trkpt>
      <trkpt lat="43.29495" lon="6.55833">
        <ele>105</ele>
        <time>2022-02-04T16:00:05Z</time>
      </trkpt>
      <trkpt lat="43.29504" lon="6.55836">
        <ele>104</ele>
        <time>2022-02-04T16:00:06Z</time>
      </trkpt>
      <trkpt lat="43.29514" lon="6.55837">
        <ele>102.8</ele>
        <time>2022-02-04T16:00:07Z</time>
      </trkpt>
      <trkpt lat="43.29523" lon="6.55835">
        <ele>102.2</ele>
        <time>2022-02-04T16:00:08Z</time>
      </trkpt>
      <trkpt lat="43.29531" lon="6.55831">
        <ele>101.8</ele>
        <time>2022-02-04T16:00:09Z</time>
      </trkpt>
      <trkpt lat="43.29538" lon="6.55823">
        <ele>101.6</ele>
        <time>2022-02-04T16:00:10Z</time>
      </trkpt>
      <trkpt lat="43.29545" lon="6.55813">
        <ele>101.2</ele>
        <time>2022-02-04T16:00:11Z</time>
      </trkpt>
      <trkpt lat="43.29552" lon="6.55803">
        <ele>101</ele>
        <time>2022-02-04T16:00:12Z</time>
      </trkpt>
      <trkpt lat="43.29559" lon="6.55793">
        <ele>100.6</ele>
        <time>2022-02-04T16:00:13Z</time>
      </trkpt>
      <trkpt lat="43.29566" lon="6.55785">
        <ele>100.2</ele>
        <time>2022-02-04T16:00:14Z</time>
      </trkpt>
      <trkpt lat="43.29575" lon="6.55779">
        <ele>100</ele>
        <time>2022-02-04T16:00:15Z</time>
      </trkpt>
      <trkpt lat="43.29584" lon="6.55774">
        <ele>99.6</ele>
        <time>2022-02-04T16:00:16Z</time>
      </trkpt>
      <trkpt lat="43.29593" lon="6.55768">
        <ele>99.4</ele>
        <time>2022-02-04T16:00:17Z</time>
      </trkpt>
      <trkpt lat="43.29601" lon="6.55762">
        <ele>98.6</ele>
        <time>2022-02-04T16:00:18Z</time>
      </trkpt>
      <trkpt lat="43.2961" lon="6.55756">
        <ele>98</ele>
        <time>2022-02-04T16:00:19Z</time>
      </trkpt>
      <trkpt lat="43.29618" lon="6.55748">
        <ele>97.6</ele>
        <time>2022-02-04T16:00:20Z</time>
      </trkpt>
      <trkpt lat="43.29625" lon="6.55739">
        <ele>97.2</ele>
        <time>2022-02-04T16:00:21Z</time>
      </trkpt>
      <trkpt lat="43.29633" lon="6.55731">
        <ele>96.6</ele>
        <time>2022-02-04T16:00:22Z</time>
      </trkpt>
      <trkpt lat="43.2964" lon="6.55723">
        <ele>96.2</ele>
        <time>2022-02-04T16:00:23Z</time>
      </trkpt>
      <trkpt lat="43.29648" lon="6.55716">
        <ele>96</ele>
        <time>2022-02-04T16:00:24Z</time>
      </trkpt>
      <trkpt lat="43.29655" lon="6.55711">
        <ele>95.8</ele>
        <time>2022-02-04T16:00:25Z</time>
      </trkpt>
      <trkpt lat="43.29663" lon="6.55705">
        <ele>95.4</ele>
        <time>2022-02-04T16:00:26Z</time>
      </trkpt>
      <trkpt lat="43.29669" lon="6.557">
        <ele>95.4</ele>
        <time>2022-02-04T16:00:27Z</time>
      </trkpt>
      <trkpt lat="43.29675" lon="6.55695">
        <ele>95.2</ele>
        <time>2022-02-04T16:00:28Z</time>
      </trkpt>
      <trkpt lat="43.29681" lon="6.5569">
        <ele>95.2</ele>
        <time>2022-02-04T16:00:29Z</time>
      </trkpt>
      <trkpt lat="43.29685" lon="6.55686">
        <ele>95</ele>
        <time>2022-02-04T16:00:30Z</time>
      </trkpt>
      <trkpt lat="43.29689" lon="6.55683">
        <ele>94.8</ele>
        <time>2022-02-04T16:00:31Z</time>
      </trkpt>
      <trkpt lat="43.29691" lon="6.55681">
        <ele>94.8</ele>
        <time>2022-02-04T16:00:32Z</time>
      </trkpt>
      <trkpt lat="43.29694" lon="6.5568">
        <ele>94.6</ele>
        <time>2022-02-04T16:00:33Z</time>
      </trkpt>
      <trkpt lat="43.29696" lon="6.5568">
        <ele>94.6</ele>
        <time>2022-02-04T16:00:34Z</time>
      </trkpt>
      <trkpt lat="43.29698" lon="6.55681">
        <ele>94.4</ele>
        <time>2022-02-04T16:00:35Z</time>
      </trkpt>
      <trkpt lat="43.29701" lon="6.55683">
        <ele>94.4</ele>
        <time>2022-02-04T16:00:36Z</time>
      </trkpt>
      <trkpt lat="43.29704" lon="6.55685">
        <ele>94.4</ele>
        <time>2022-02-04T16:00:37Z</time>
      </trkpt>
      <trkpt lat="43.29707" lon="6.55689">
        <ele>94.4</ele>
        <time>2022-02-04T16:00:38Z</time>
      </trkpt>
      <trkpt lat="43.29709" lon="6.55693">
        <ele>94.4</ele>
        <time>2022-02-04T16:00:39Z</time>
      </trkpt>
      <trkpt lat="43.29712" lon="6.55696">
        <ele>94.4</ele>
        <time>2022-02-04T16:00:40Z</time>
      </trkpt>
      <trkpt lat="43.29715" lon="6.55698">
        <ele>94.6</ele>
        <time>2022-02-04T16:00:41Z</time>
      </trkpt>
      <trkpt lat="43.29717" lon="6.55697">
        <ele>94.8</ele>
        <time>2022-02-04T16:00:42Z</time>
      </trkpt>
      <trkpt lat="43.29719" lon="6.55694">
        <ele>94.6</ele>
        <time>2022-02-04T16:00:43Z</time>
      </trkpt>
      <trkpt lat="43.29719" lon="6.55691">
        <ele>94.6</ele>
        <time>2022-02-04T16:00:44Z</time>
      </trkpt>
      <trkpt lat="43.29719" lon="6.55686">
        <ele>94.6</ele>
        <time>2022-02-04T16:00:45Z</time>
      </trkpt>
      <trkpt lat="43.2972" lon="6.5568">
        <ele>94.6</ele>
        <time>2022-02-04T16:00:46Z</time>
      </trkpt>
      <trkpt lat="43.29722" lon="6.55675">
        <ele>94.6</ele>
        <time>2022-02-04T16:00:47Z</time>
      </trkpt>
      <trkpt lat="43.29723" lon="6.55669">
        <ele>94.6</ele>
        <time>2022-02-04T16:00:48Z</time>
      </trkpt>
      <trkpt lat="43.29725" lon="6.55663">
        <ele>95.2</ele>
        <time>2022-02-04T16:00:49Z</time>
      </trkpt>
      <trkpt lat="43.29726" lon="6.55657">
        <ele>95.4</ele>
        <time>2022-02-04T16:00:50Z</time>
      </trkpt>
      <trkpt lat="43.29728" lon="6.55652">
        <ele>95.8</ele>
        <time>2022-02-04T16:00:51Z</time>
      </trkpt>
      <trkpt lat="43.29729" lon="6.55648">
        <ele>96</ele>
        <time>2022-02-04T16:00:52Z</time>
      </trkpt>
      <trkpt lat="43.2973" lon="6.55644">
        <ele>96.2</ele>
        <time>2022-02-04T16:00:53Z</time>
      </trkpt>
      <trkpt lat="43.29731" lon="6.55639">
        <ele>96.4</ele>
        <time>2022-02-04T16:00:54Z</time>
      </trkpt>
      <trkpt lat="43.29732" lon="6.55635">
        <ele>96.6</ele>
        <time>2022-02-04T16:00:55Z</time>
      </trkpt>
      <trkpt lat="43.29734" lon="6.5563">
        <ele>96.8</ele>
        <time>2022-02-04T16:00:56Z</time>
      </trkpt>
      <trkpt lat="43.29734" lon="6.55627">
        <ele>97.4</ele>
        <time>2022-02-04T16:00:57Z</time>
      </trkpt>
      <trkpt lat="43.29735" lon="6.55623">
        <ele>97.6</ele>
        <time>2022-02-04T16:00:58Z</time>
      </trkpt>
      <trkpt lat="43.29736" lon="6.55618">
        <ele>98.2</ele>
        <time>2022-02-04T16:00:59Z</time>
      </trkpt>
      <trkpt lat="43.29737" lon="6.55613">
        <ele>98.6</ele>
        <time>2022-02-04T16:01:00Z</time>
      </trkpt>
      <trkpt lat="43.29738" lon="6.5561">
        <ele>98.8</ele>
        <time>2022-02-04T16:01:01Z</time>
      </trkpt>
      <trkpt lat="43.29739" lon="6.55605">
        <ele>99</ele>
        <time>2022-02-04T16:01:02Z</time>
      </trkpt>
      <trkpt lat="43.2974" lon="6.55601">
        <ele>99.6</ele>
        <time>2022-02-04T16:01:03Z</time>
      </trkpt>
      <trkpt lat="43.29741" lon="6.55597">
        <ele>100</ele>
        <time>2022-02-04T16:01:04Z</time>
      </trkpt>
      <trkpt lat="43.29742" lon="6.55593">
        <ele>100.6</ele>
        <time>2022-02-04T16:01:05Z</time>
      </trkpt>
      <trkpt lat="43.29744" lon="6.55589">
        <ele>100.8</ele>
        <time>2022-02-04T16:01:06Z</time>
      </trkpt>
      <trkpt lat="43.29744" lon="6.55585">
        <ele>101.2</ele>
        <time>2022-02-04T16:01:07Z</time>
      </trkpt>
      <trkpt lat="43.29746" lon="6.55581">
        <ele>101.6</ele>
        <time>2022-02-04T16:01:08Z</time>
      </trkpt>
      <trkpt lat="43.29747" lon="6.55576">
        <ele>101.8</ele>
        <time>2022-02-04T16:01:09Z</time>
      </trkpt>
      <trkpt lat="43.29747" lon="6.55572">
        <ele>102</ele>
        <time>2022-02-04T16:01:10Z</time>
      </trkpt>
      <trkpt lat="43.29748" lon="6.55568">
        <ele>102.6</ele>
        <time>2022-02-04T16:01:11Z</time>
      </trkpt>
      <trkpt lat="43.29748" lon="6.55564">
        <ele>103</ele>
        <time>2022-02-04T16:01:12Z</time>
      </trkpt>
      <trkpt lat="43.29748" lon="6.55559">
        <ele>103.4</ele>
        <time>2022-02-04T16:01:13Z</time>
      </trkpt>
      <trkpt lat="43.29749" lon="6.55554">
        <ele>103.8</ele>
        <time>2022-02-04T16:01:14Z</time>
      </trkpt>
      <trkpt lat="43.29749" lon="6.55551">
        <ele>104</ele>
        <time>2022-02-04T16:01:15Z</time>
      </trkpt>
      <trkpt lat="43.29749" lon="6.55547">
        <ele>104.4</ele>
        <time>2022-02-04T16:01:16Z</time>
      </trkpt>
      <trkpt lat="43.29749" lon="6.55542">
        <ele>104.6</ele>
        <time>2022-02-04T16:01:17Z</time>
      </trkpt>
      <trkpt lat="43.29749" lon="6.55538">
        <ele>105</ele>
        <time>2022-02-04T16:01:18Z</time>
      </trkpt>
      <trkpt lat="43.29749" lon="6.55534">
        <ele>105.4</ele>
        <time>2022-02-04T16:01:19Z</time>
      </trkpt>
      <trkpt lat="43.29748" lon="6.5553">
        <ele>105.6</ele>
        <time>2022-02-04T16:01:20Z</time>
      </trkpt>
      <trkpt lat="43.29747" lon="6.55526">
        <ele>106.4</ele>
        <time>2022-02-04T16:01:21Z</time>
      </trkpt>
      <trkpt lat="43.29747" lon="6.55522">
        <ele>106.6</ele>
        <time>2022-02-04T16:01:22Z</time>
      </trkpt>
      <trkpt lat="43.29746" lon="6.55518">
        <ele>107</ele>
        <time>2022-02-04T16:01:23Z</time>
      </trkpt>
      <trkpt lat="43.29745" lon="6.55514">
        <ele>107.4</ele>
        <time>2022-02-04T16:01:24Z</time>
      </trkpt>
      <trkpt lat="43.29744" lon="6.55509">
        <ele>107.6</ele>
        <time>2022-02-04T16:01:25Z</time>
      </trkpt>
      <trkpt lat="43.29744" lon="6.55505">
        <ele>107.8</ele>
        <time>2022-02-04T16:01:26Z</time>
      </trkpt>
      <trkpt lat="43.29743" lon="6.55502">
        <ele>108.6</ele>
        <time>2022-02-04T16:01:27Z</time>
      </trkpt>
      <trkpt lat="43.29743" lon="6.55498">
        <ele>109</ele>
        <time>2022-02-04T16:01:28Z</time>
      </trkpt>
      <trkpt lat="43.29742" lon="6.55494">
        <ele>109.2</ele>
        <time>2022-02-04T16:01:29Z</time>
      </trkpt>
      <trkpt lat="43.29741" lon="6.5549">
        <ele>109.8</ele>
        <time>2022-02-04T16:01:30Z</time>
      </trkpt>
      <trkpt lat="43.29741" lon="6.55486">
        <ele>110.2</ele>
        <time>2022-02-04T16:01:31Z</time>
      </trkpt>
      <trkpt lat="43.29741" lon="6.55482">
        <ele>110.6</ele>
        <time>2022-02-04T16:01:32Z</time>
      </trkpt>
      <trkpt lat="43.29741" lon="6.55477">
        <ele>111</ele>
        <time>2022-02-04T16:01:33Z</time>
      </trkpt>
      <trkpt lat="43.29741" lon="6.55473">
        <ele>111.2</ele>
        <time>2022-02-04T16:01:34Z</time>
      </trkpt>
      <trkpt lat="43.29741" lon="6.55468">
        <ele>111.4</ele>
        <time>2022-02-04T16:01:35Z</time>
      </trkpt>
      <trkpt lat="43.29741" lon="6.55463">
        <ele>111.8</ele>
        <time>2022-02-04T16:01:36Z</time>
      </trkpt>
      <trkpt lat="43.29742" lon="6.55458">
        <ele>112</ele>
        <time>2022-02-04T16:01:37Z</time>
      </trkpt>
      <trkpt lat="43.29743" lon="6.55453">
        <ele>112.4</ele>
        <time>2022-02-04T16:01:38Z</time>
      </trkpt>
      <trkpt lat="43.29744" lon="6.55449">
        <ele>113</ele>
        <time>2022-02-04T16:01:39Z</time>
      </trkpt>
      <trkpt lat="43.29745" lon="6.55445">
        <ele>113.6</ele>
        <time>2022-02-04T16:01:40Z</time>
      </trkpt>
      <trkpt lat="43.29746" lon="6.55441">
        <ele>114</ele>
        <time>2022-02-04T16:01:41Z</time>
      </trkpt>
      <trkpt lat="43.29748" lon="6.55437">
        <ele>114.2</ele>
        <time>2022-02-04T16:01:42Z</time>
      </trkpt>
      <trkpt lat="43.29749" lon="6.55433">
        <ele>114.4</ele>
        <time>2022-02-04T16:01:43Z</time>
      </trkpt>
      <trkpt lat="43.29752" lon="6.55428">
        <ele>114.4</ele>
        <time>2022-02-04T16:01:44Z</time>
      </trkpt>
      <trkpt lat="43.29753" lon="6.55425">
        <ele>114.6</ele>
        <time>2022-02-04T16:01:45Z</time>
      </trkpt>
      <trkpt lat="43.29755" lon="6.55421">
        <ele>115</ele>
        <time>2022-02-04T16:01:46Z</time>
      </trkpt>
      <trkpt lat="43.29757" lon="6.55416">
        <ele>115.2</ele>
        <time>2022-02-04T16:01:47Z</time>
      </trkpt>
      <trkpt lat="43.2976" lon="6.55412">
        <ele>115.6</ele>
        <time>2022-02-04T16:01:48Z</time>
      </trkpt>
      <trkpt lat="43.29762" lon="6.55408">
        <ele>115.6</ele>
        <time>2022-02-04T16:01:49Z</time>
      </trkpt>
      <trkpt lat="43.29764" lon="6.55404">
        <ele>115.8</ele>
        <time>2022-02-04T16:01:50Z</time>
      </trkpt>
      <trkpt lat="43.29766" lon="6.554">
        <ele>116.2</ele>
        <time>2022-02-04T16:01:51Z</time>
      </trkpt>
      <trkpt lat="43.29768" lon="6.55396">
        <ele>116.8</ele>
        <time>2022-02-04T16:01:52Z</time>
      </trkpt>
      <trkpt lat="43.29769" lon="6.55391">
        <ele>117</ele>
        <time>2022-02-04T16:01:53Z</time>
      </trkpt>
      <trkpt lat="43.2977" lon="6.55387">
        <ele>117.2</ele>
        <time>2022-02-04T16:01:54Z</time>
      </trkpt>
      <trkpt lat="43.29772" lon="6.55383">
        <ele>117.4</ele>
        <time>2022-02-04T16:01:55Z</time>
      </trkpt>
      <trkpt lat="43.29772" lon="6.55379">
        <ele>117.8</ele>
        <time>2022-02-04T16:01:56Z</time>
      </trkpt>
      <trkpt lat="43.29773" lon="6.55375">
        <ele>118</ele>
        <time>2022-02-04T16:01:57Z</time>
      </trkpt>
      <trkpt lat="43.29774" lon="6.5537">
        <ele>118.2</ele>
        <time>2022-02-04T16:01:58Z</time>
      </trkpt>
      <trkpt lat="43.29775" lon="6.55365">
        <ele>118.4</ele>
        <time>2022-02-04T16:01:59Z</time>
      </trkpt>
      <trkpt lat="43.29776" lon="6.5536">
        <ele>118.8</ele>
        <time>2022-02-04T16:02:00Z</time>
      </trkpt>
      <trkpt lat="43.29779" lon="6.55356">
        <ele>119.2</ele>
        <time>2022-02-04T16:02:01Z</time>
      </trkpt>
      <trkpt lat="43.29782" lon="6.55353">
        <ele>119.8</ele>
        <time>2022-02-04T16:02:02Z</time>
      </trkpt>
      <trkpt lat="43.29786" lon="6.55352">
        <ele>120.2</ele>
        <time>2022-02-04T16:02:03Z</time>
      </trkpt>
      <trkpt lat="43.29789" lon="6.55351">
        <ele>120.6</ele>
        <time>2022-02-04T16:02:04Z</time>
      </trkpt>
      <trkpt lat="43.29793" lon="6.55353">
        <ele>120.8</ele>
        <time>2022-02-04T16:02:05Z</time>
      </trkpt>
      <trkpt lat="43.29796" lon="6.55355">
        <ele>121.2</ele>
        <time>2022-02-04T16:02:06Z</time>
      </trkpt>
      <trkpt lat="43.29798" lon="6.55359">
        <ele>121.4</ele>
        <time>2022-02-04T16:02:07Z</time>
      </trkpt>
      <trkpt lat="43.298" lon="6.55364">
        <ele>121.4</ele>
        <time>2022-02-04T16:02:08Z</time>
      </trkpt>
      <trkpt lat="43.298" lon="6.55369">
        <ele>121.8</ele>
        <time>2022-02-04T16:02:09Z</time>
      </trkpt>
      <trkpt lat="43.29799" lon="6.55374">
        <ele>122.4</ele>
        <time>2022-02-04T16:02:10Z</time>
      </trkpt>
      <trkpt lat="43.29798" lon="6.55379">
        <ele>122.6</ele>
        <time>2022-02-04T16:02:11Z</time>
      </trkpt>
      <trkpt lat="43.29797" lon="6.55383">
        <ele>123</ele>
        <time>2022-02-04T16:02:12Z</time>
      </trkpt>
      <trkpt lat="43.29795" lon="6.55388">
        <ele>123.6</ele>
        <time>2022-02-04T16:02:13Z</time>
      </trkpt>
      <trkpt lat="43.29793" lon="6.55392">
        <ele>124</ele>
        <time>2022-02-04T16:02:14Z</time>
      </trkpt>
      <trkpt lat="43.29791" lon="6.55396">
        <ele>124.2</ele>
        <time>2022-02-04T16:02:15Z</time>
      </trkpt>
      <trkpt lat="43.29789" lon="6.554">
        <ele>124.4</ele>
        <time>2022-02-04T16:02:16Z</time>
      </trkpt>
      <trkpt lat="43.29787" lon="6.55404">
        <ele>124.4</ele>
        <time>2022-02-04T16:02:17Z</time>
      </trkpt>
      <trkpt lat="43.29785" lon="6.55408">
        <ele>124.6</ele>
        <time>2022-02-04T16:02:18Z</time>
      </trkpt>
      <trkpt lat="43.29783" lon="6.55412">
        <ele>124.8</ele>
        <time>2022-02-04T16:02:19Z</time>
      </trkpt>
      <trkpt lat="43.29781" lon="6.55416">
        <ele>124.8</ele>
        <time>2022-02-04T16:02:20Z</time>
      </trkpt>
      <trkpt lat="43.29779" lon="6.55421">
        <ele>124.8</ele>
        <time>2022-02-04T16:02:21Z</time>
      </trkpt>
      <trkpt lat="43.29777" lon="6.55425">
        <ele>124.8</ele>
        <time>2022-02-04T16:02:22Z</time>
      </trkpt>
      <trkpt lat="43.29775" lon="6.5543">
        <ele>124.8</ele>
        <time>2022-02-04T16:02:23Z</time>
      </trkpt>
      <trkpt lat="43.29774" lon="6.55435">
        <ele>124.8</ele>
        <time>2022-02-04T16:02:24Z</time>
      </trkpt>
      <trkpt lat="43.29772" lon="6.5544">
        <ele>124.8</ele>
        <time>2022-02-04T16:02:25Z</time>
      </trkpt>
      <trkpt lat="43.29772" lon="6.55444">
        <ele>124.8</ele>
        <time>2022-02-04T16:02:26Z</time>
      </trkpt>
      <trkpt lat="43.29771" lon="6.55448">
        <ele>124.8</ele>
        <time>2022-02-04T16:02:27Z</time>
      </trkpt>
      <trkpt lat="43.29772" lon="6.55452">
        <ele>124.8</ele>
        <time>2022-02-04T16:02:28Z</time>
      </trkpt>
      <trkpt lat="43.29773" lon="6.55457">
        <ele>125</ele>
        <time>2022-02-04T16:02:29Z</time>
      </trkpt>
      <trkpt lat="43.29775" lon="6.55461">
        <ele>125</ele>
        <time>2022-02-04T16:02:30Z</time>
      </trkpt>
      <trkpt lat="43.29778" lon="6.55464">
        <ele>125.2</ele>
        <time>2022-02-04T16:02:31Z</time>
      </trkpt>
      <trkpt lat="43.29781" lon="6.55467">
        <ele>125.2</ele>
        <time>2022-02-04T16:02:32Z</time>
      </trkpt>
      <trkpt lat="43.29784" lon="6.55469">
        <ele>125.4</ele>
        <time>2022-02-04T16:02:33Z</time>
      </trkpt>
      <trkpt lat="43.29787" lon="6.55471">
        <ele>125.6</ele>
        <time>2022-02-04T16:02:34Z</time>
      </trkpt>
      <trkpt lat="43.29791" lon="6.55473">
        <ele>125.8</ele>
        <time>2022-02-04T16:02:35Z</time>
      </trkpt>
      <trkpt lat="43.29794" lon="6.55476">
        <ele>126</ele>
        <time>2022-02-04T16:02:36Z</time>
      </trkpt>
      <trkpt lat="43.29798" lon="6.55478">
        <ele>126</ele>
        <time>2022-02-04T16:02:37Z</time>
      </trkpt>
      <trkpt lat="43.29801" lon="6.55481">
        <ele>126.2</ele>
        <time>2022-02-04T16:02:38Z</time>
      </trkpt>
      <trkpt lat="43.29804" lon="6.55484">
        <ele>126.8</ele>
        <time>2022-02-04T16:02:39Z</time>
      </trkpt>
      <trkpt lat="43.29807" lon="6.55487">
        <ele>127.2</ele>
        <time>2022-02-04T16:02:40Z</time>
      </trkpt>
      <trkpt lat="43.29809" lon="6.55491">
        <ele>127.4</ele>
        <time>2022-02-04T16:02:41Z</time>
      </trkpt>
      <trkpt lat="43.2981" lon="6.55496">
        <ele>127.6</ele>
        <time>2022-02-04T16:02:42Z</time>
      </trkpt>
      <trkpt lat="43.29811" lon="6.555">
        <ele>127.8</ele>
        <time>2022-02-04T16:02:43Z</time>
      </trkpt>
      <trkpt lat="43.29812" lon="6.55505">
        <ele>128.2</ele>
        <time>2022-02-04T16:02:44Z</time>
      </trkpt>
      <trkpt lat="43.29812" lon="6.55509">
        <ele>128.2</ele>
        <time>2022-02-04T16:02:45Z</time>
      </trkpt>
      <trkpt lat="43.29812" lon="6.55513">
        <ele>128.6</ele>
        <time>2022-02-04T16:02:46Z</time>
      </trkpt>
      <trkpt lat="43.29812" lon="6.55517">
        <ele>129</ele>
        <time>2022-02-04T16:02:47Z</time>
      </trkpt>
      <trkpt lat="43.29812" lon="6.55521">
        <ele>129.4</ele>
        <time>2022-02-04T16:02:48Z</time>
      </trkpt>
      <trkpt lat="43.29813" lon="6.55525">
        <ele>129.6</ele>
        <time>2022-02-04T16:02:49Z</time>
      </trkpt>
      <trkpt lat="43.29814" lon="6.55528">
        <ele>130</ele>
        <time>2022-02-04T16:02:50Z</time>
      </trkpt>
      <trkpt lat="43.29816" lon="6.55531">
        <ele>130.2</ele>
        <time>2022-02-04T16:02:51Z</time>
      </trkpt>
      <trkpt lat="43.29819" lon="6.55532">
        <ele>130.4</ele>
        <time>2022-02-04T16:02:52Z</time>
      </trkpt>
      <trkpt lat="43.29821" lon="6.55531">
        <ele>130.8</ele>
        <time>2022-02-04T16:02:53Z</time>
      </trkpt>
      <trkpt lat="43.29823" lon="6.55529">
        <ele>131.2</ele>
        <time>2022-02-04T16:02:54Z</time>
      </trkpt>
      <trkpt lat="43.29824" lon="6.55526">
        <ele>131.6</ele>
        <time>2022-02-04T16:02:55Z</time>
      </trkpt>
      <trkpt lat="43.29825" lon="6.55522">
        <ele>131.8</ele>
        <time>2022-02-04T16:02:56Z</time>
      </trkpt>
      <trkpt lat="43.29825" lon="6.55518">
        <ele>132.2</ele>
        <time>2022-02-04T16:02:57Z</time>
      </trkpt>
      <trkpt lat="43.29825" lon="6.55514">
        <ele>132.4</ele>
        <time>2022-02-04T16:02:58Z</time>
      </trkpt>
      <trkpt lat="43.29826" lon="6.55511">
        <ele>132.6</ele>
        <time>2022-02-04T16:02:59Z</time>
      </trkpt>
      <trkpt lat="43.29827" lon="6.55507">
        <ele>132.8</ele>
        <time>2022-02-04T16:03:00Z</time>
      </trkpt>
      <trkpt lat="43.29828" lon="6.55503">
        <ele>133</ele>
        <time>2022-02-04T16:03:01Z</time>
      </trkpt>
      <trkpt lat="43.29829" lon="6.55498">
        <ele>133.2</ele>
        <time>2022-02-04T16:03:02Z</time>
      </trkpt>
      <trkpt lat="43.29829" lon="6.55494">
        <ele>133.8</ele>
        <time>2022-02-04T16:03:03Z</time>
      </trkpt>
      <trkpt lat="43.29829" lon="6.5549">
        <ele>134.4</ele>
        <time>2022-02-04T16:03:04Z</time>
      </trkpt>
      <trkpt lat="43.2983" lon="6.55486">
        <ele>134.8</ele>
        <time>2022-02-04T16:03:05Z</time>
      </trkpt>
      <trkpt lat="43.29829" lon="6.55482">
        <ele>135.4</ele>
        <time>2022-02-04T16:03:06Z</time>
      </trkpt>
      <trkpt lat="43.29829" lon="6.55477">
        <ele>135.8</ele>
        <time>2022-02-04T16:03:07Z</time>
      </trkpt>
      <trkpt lat="43.29829" lon="6.55473">
        <ele>136.4</ele>
        <time>2022-02-04T16:03:08Z</time>
      </trkpt>
      <trkpt lat="43.29828" lon="6.55469">
        <ele>136.6</ele>
        <time>2022-02-04T16:03:09Z</time>
      </trkpt>
      <trkpt lat="43.29828" lon="6.55464">
        <ele>136.8</ele>
        <time>2022-02-04T16:03:10Z</time>
      </trkpt>
      <trkpt lat="43.29827" lon="6.5546">
        <ele>137.2</ele>
        <time>2022-02-04T16:03:11Z</time>
      </trkpt>
      <trkpt lat="43.29826" lon="6.55456">
        <ele>137.6</ele>
        <time>2022-02-04T16:03:12Z</time>
      </trkpt>
      <trkpt lat="43.29826" lon="6.55453">
        <ele>138</ele>
        <time>2022-02-04T16:03:13Z</time>
      </trkpt>
      <trkpt lat="43.29826" lon="6.55448">
        <ele>138.2</ele>
        <time>2022-02-04T16:03:14Z</time>
      </trkpt>
      <trkpt lat="43.29825" lon="6.55444">
        <ele>138.4</ele>
        <time>2022-02-04T16:03:15Z</time>
      </trkpt>
      <trkpt lat="43.29825" lon="6.5544">
        <ele>138.8</ele>
        <time>2022-02-04T16:03:16Z</time>
      </trkpt>
      <trkpt lat="43.29825" lon="6.55436">
        <ele>139.2</ele>
        <time>2022-02-04T16:03:17Z</time>
      </trkpt>
      <trkpt lat="43.29825" lon="6.55431">
        <ele>139.6</ele>
        <time>2022-02-04T16:03:18Z</time>
      </trkpt>
      <trkpt lat="43.29826" lon="6.55426">
        <ele>139.8</ele>
        <time>2022-02-04T16:03:19Z</time>
      </trkpt>
      <trkpt lat="43.29826" lon="6.55422">
        <ele>139.8</ele>
        <time>2022-02-04T16:03:20Z</time>
      </trkpt>
      <trkpt lat="43.29827" lon="6.55417">
        <ele>140.2</ele>
        <time>2022-02-04T16:03:21Z</time>
      </trkpt>
      <trkpt lat="43.29828" lon="6.55413">
        <ele>140.4</ele>
        <time>2022-02-04T16:03:22Z</time>
      </trkpt>
      <trkpt lat="43.29829" lon="6.55409">
        <ele>140.6</ele>
        <time>2022-02-04T16:03:23Z</time>
      </trkpt>
      <trkpt lat="43.2983" lon="6.55405">
        <ele>140.8</ele>
        <time>2022-02-04T16:03:24Z</time>
      </trkpt>
      <trkpt lat="43.29832" lon="6.55401">
        <ele>141.2</ele>
        <time>2022-02-04T16:03:25Z</time>
      </trkpt>
      <trkpt lat="43.29833" lon="6.55397">
        <ele>141.4</ele>
        <time>2022-02-04T16:03:26Z</time>
      </trkpt>
      <trkpt lat="43.29835" lon="6.55393">
        <ele>141.6</ele>
        <time>2022-02-04T16:03:27Z</time>
      </trkpt>
      <trkpt lat="43.29837" lon="6.55389">
        <ele>142</ele>
        <time>2022-02-04T16:03:28Z</time>
      </trkpt>
      <trkpt lat="43.29839" lon="6.55386">
        <ele>142.4</ele>
        <time>2022-02-04T16:03:29Z</time>
      </trkpt>
      <trkpt lat="43.29842" lon="6.55383">
        <ele>142.6</ele>
        <time>2022-02-04T16:03:30Z</time>
      </trkpt>
      <trkpt lat="43.29845" lon="6.5538">
        <ele>142.8</ele>
        <time>2022-02-04T16:03:31Z</time>
      </trkpt>
      <trkpt lat="43.29849" lon="6.55378">
        <ele>143.2</ele>
        <time>2022-02-04T16:03:32Z</time>
      </trkpt>
      <trkpt lat="43.29852" lon="6.55376">
        <ele>143.2</ele>
        <time>2022-02-04T16:03:33Z</time>
      </trkpt>
      <trkpt lat="43.29855" lon="6.55374">
        <ele>143.6</ele>
        <time>2022-02-04T16:03:34Z</time>
      </trkpt>
      <trkpt lat="43.29859" lon="6.55373">
        <ele>143.6</ele>
        <time>2022-02-04T16:03:35Z</time>
      </trkpt>
      <trkpt lat="43.29862" lon="6.55372">
        <ele>144.2</ele>
        <time>2022-02-04T16:03:36Z</time>
      </trkpt>
      <trkpt lat="43.29865" lon="6.55371">
        <ele>144.4</ele>
        <time>2022-02-04T16:03:37Z</time>
      </trkpt>
      <trkpt lat="43.29869" lon="6.55369">
        <ele>144.6</ele>
        <time>2022-02-04T16:03:38Z</time>
      </trkpt>
      <trkpt lat="43.29872" lon="6.55367">
        <ele>145</ele>
        <time>2022-02-04T16:03:39Z</time>
      </trkpt>
      <trkpt lat="43.29875" lon="6.55366">
        <ele>145.2</ele>
        <time>2022-02-04T16:03:40Z</time>
      </trkpt>
      <trkpt lat="43.29878" lon="6.55364">
        <ele>145.6</ele>
        <time>2022-02-04T16:03:41Z</time>
      </trkpt>
      <trkpt lat="43.29881" lon="6.55362">
        <ele>146</ele>
        <time>2022-02-04T16:03:42Z</time>
      </trkpt>
      <trkpt lat="43.29884" lon="6.5536">
        <ele>146.2</ele>
        <time>2022-02-04T16:03:43Z</time>
      </trkpt>
      <trkpt lat="43.29887" lon="6.55357">
        <ele>146.6</ele>
        <time>2022-02-04T16:03:44Z</time>
      </trkpt>
      <trkpt lat="43.29891" lon="6.55353">
        <ele>147</ele>
        <time>2022-02-04T16:03:45Z</time>
      </trkpt>
      <trkpt lat="43.29892" lon="6.55351">
        <ele>147.2</ele>
        <time>2022-02-04T16:03:46Z</time>
      </trkpt>
      <trkpt lat="43.29894" lon="6.55348">
        <ele>147.4</ele>
        <time>2022-02-04T16:03:47Z</time>
      </trkpt>
      <trkpt lat="43.29896" lon="6.55344">
        <ele>147.6</ele>
        <time>2022-02-04T16:03:48Z</time>
      </trkpt>
      <trkpt lat="43.29896" lon="6.55339">
        <ele>148</ele>
        <time>2022-02-04T16:03:49Z</time>
      </trkpt>
      <trkpt lat="43.29895" lon="6.55335">
        <ele>148.4</ele>
        <time>2022-02-04T16:03:50Z</time>
      </trkpt>
      <trkpt lat="43.29894" lon="6.55331">
        <ele>148.6</ele>
        <time>2022-02-04T16:03:51Z</time>
      </trkpt>
      <trkpt lat="43.29891" lon="6.55326">
        <ele>149</ele>
        <time>2022-02-04T16:03:52Z</time>
      </trkpt>
      <trkpt lat="43.29889" lon="6.55323">
        <ele>149.2</ele>
        <time>2022-02-04T16:03:53Z</time>
      </trkpt>
      <trkpt lat="43.29886" lon="6.5532">
        <ele>149.4</ele>
        <time>2022-02-04T16:03:54Z</time>
      </trkpt>
      <trkpt lat="43.29883" lon="6.55318">
        <ele>149.8</ele>
        <time>2022-02-04T16:03:55Z</time>
      </trkpt>
      <trkpt lat="43.2988" lon="6.55316">
        <ele>150</ele>
        <time>2022-02-04T16:03:56Z</time>
      </trkpt>
      <trkpt lat="43.29876" lon="6.55314">
        <ele>150.4</ele>
        <time>2022-02-04T16:03:57Z</time>
      </trkpt>
      <trkpt lat="43.29872" lon="6.55312">
        <ele>150.8</ele>
        <time>2022-02-04T16:03:58Z</time>
      </trkpt>
      <trkpt lat="43.29869" lon="6.5531">
        <ele>151</ele>
        <time>2022-02-04T16:03:59Z</time>
      </trkpt>
      <trkpt lat="43.29866" lon="6.55308">
        <ele>151.2</ele>
        <time>2022-02-04T16:04:00Z</time>
      </trkpt>
      <trkpt lat="43.29863" lon="6.55305">
        <ele>151.4</ele>
        <time>2022-02-04T16:04:01Z</time>
      </trkpt>
      <trkpt lat="43.29858" lon="6.55302">
        <ele>151.6</ele>
        <time>2022-02-04T16:04:02Z</time>
      </trkpt>
      <trkpt lat="43.29855" lon="6.553">
        <ele>151.8</ele>
        <time>2022-02-04T16:04:03Z</time>
      </trkpt>
      <trkpt lat="43.29851" lon="6.55298">
        <ele>152</ele>
        <time>2022-02-04T16:04:04Z</time>
      </trkpt>
      <trkpt lat="43.29847" lon="6.55295">
        <ele>152.2</ele>
        <time>2022-02-04T16:04:05Z</time>
      </trkpt>
      <trkpt lat="43.29844" lon="6.55292">
        <ele>152.4</ele>
        <time>2022-02-04T16:04:06Z</time>
      </trkpt>
      <trkpt lat="43.2984" lon="6.55289">
        <ele>152.6</ele>
        <time>2022-02-04T16:04:07Z</time>
      </trkpt>
      <trkpt lat="43.29838" lon="6.55287">
        <ele>152.8</ele>
        <time>2022-02-04T16:04:08Z</time>
      </trkpt>
      <trkpt lat="43.29835" lon="6.55283">
        <ele>153</ele>
        <time>2022-02-04T16:04:09Z</time>
      </trkpt>
      <trkpt lat="43.29832" lon="6.55279">
        <ele>153.4</ele>
        <time>2022-02-04T16:04:10Z</time>
      </trkpt>
      <trkpt lat="43.2983" lon="6.55275">
        <ele>154</ele>
        <time>2022-02-04T16:04:11Z</time>
      </trkpt>
      <trkpt lat="43.29827" lon="6.55269">
        <ele>154.4</ele>
        <time>2022-02-04T16:04:12Z</time>
      </trkpt>
      <trkpt lat="43.29826" lon="6.55265">
        <ele>154.6</ele>
        <time>2022-02-04T16:04:13Z</time>
      </trkpt>
      <trkpt lat="43.29825" lon="6.5526">
        <ele>155</ele>
        <time>2022-02-04T16:04:14Z</time>
      </trkpt>
      <trkpt lat="43.29825" lon="6.55255">
        <ele>155.4</ele>
        <time>2022-02-04T16:04:15Z</time>
      </trkpt>
      <trkpt lat="43.29826" lon="6.55249">
        <ele>155.6</ele>
        <time>2022-02-04T16:04:16Z</time>
      </trkpt>
      <trkpt lat="43.29827" lon="6.55244">
        <ele>156.2</ele>
        <time>2022-02-04T16:04:17Z</time>
      </trkpt>
      <trkpt lat="43.29829" lon="6.55239">
        <ele>156.6</ele>
        <time>2022-02-04T16:04:18Z</time>
      </trkpt>
      <trkpt lat="43.29831" lon="6.55235">
        <ele>156.8</ele>
        <time>2022-02-04T16:04:19Z</time>
      </trkpt>
      <trkpt lat="43.29834" lon="6.55231">
        <ele>157</ele>
        <time>2022-02-04T16:04:20Z</time>
      </trkpt>
      <trkpt lat="43.29836" lon="6.55226">
        <ele>157.4</ele>
        <time>2022-02-04T16:04:21Z</time>
      </trkpt>
      <trkpt lat="43.29838" lon="6.55222">
        <ele>157.6</ele>
        <time>2022-02-04T16:04:22Z</time>
      </trkpt>
      <trkpt lat="43.2984" lon="6.55218">
        <ele>157.8</ele>
        <time>2022-02-04T16:04:23Z</time>
      </trkpt>
      <trkpt lat="43.29843" lon="6.55214">
        <ele>158</ele>
        <time>2022-02-04T16:04:24Z</time>
      </trkpt>
      <trkpt lat="43.29845" lon="6.5521">
        <ele>158.2</ele>
        <time>2022-02-04T16:04:25Z</time>
      </trkpt>
      <trkpt lat="43.29847" lon="6.55206">
        <ele>158.8</ele>
        <time>2022-02-04T16:04:26Z</time>
      </trkpt>
      <trkpt lat="43.2985" lon="6.55202">
        <ele>159.2</ele>
        <time>2022-02-04T16:04:27Z</time>
      </trkpt>
      <trkpt lat="43.29851" lon="6.55198">
        <ele>159.4</ele>
        <time>2022-02-04T16:04:28Z</time>
      </trkpt>
      <trkpt lat="43.29852" lon="6.55193">
        <ele>159.8</ele>
        <time>2022-02-04T16:04:29Z</time>
      </trkpt>
      <trkpt lat="43.29853" lon="6.55187">
        <ele>160.2</ele>
        <time>2022-02-04T16:04:30Z</time>
      </trkpt>
      <trkpt lat="43.29853" lon="6.55182">
        <ele>160.4</ele>
        <time>2022-02-04T16:04:31Z</time>
      </trkpt>
      <trkpt lat="43.29852" lon="6.55178">
        <ele>161</ele>
        <time>2022-02-04T16:04:32Z</time>
      </trkpt>
      <trkpt lat="43.29851" lon="6.55173">
        <ele>161.2</ele>
        <time>2022-02-04T16:04:33Z</time>
      </trkpt>
      <trkpt lat="43.2985" lon="6.55169">
        <ele>161.4</ele>
        <time>2022-02-04T16:04:34Z</time>
      </trkpt>
      <trkpt lat="43.29849" lon="6.55164">
        <ele>162</ele>
        <time>2022-02-04T16:04:35Z</time>
      </trkpt>
      <trkpt lat="43.29847" lon="6.5516">
        <ele>162.4</ele>
        <time>2022-02-04T16:04:36Z</time>
      </trkpt>
      <trkpt lat="43.29846" lon="6.55156">
        <ele>163.2</ele>
        <time>2022-02-04T16:04:37Z</time>
      </trkpt>
      <trkpt lat="43.29844" lon="6.55151">
        <ele>163.8</ele>
        <time>2022-02-04T16:04:38Z</time>
      </trkpt>
      <trkpt lat="43.29843" lon="6.55146">
        <ele>164.2</ele>
        <time>2022-02-04T16:04:39Z</time>
      </trkpt>
      <trkpt lat="43.29842" lon="6.55142">
        <ele>164.6</ele>
        <time>2022-02-04T16:04:40Z</time>
      </trkpt>
      <trkpt lat="43.2984" lon="6.55137">
        <ele>164.8</ele>
        <time>2022-02-04T16:04:41Z</time>
      </trkpt>
      <trkpt lat="43.29839" lon="6.55132">
        <ele>165</ele>
        <time>2022-02-04T16:04:42Z</time>
      </trkpt>
      <trkpt lat="43.29839" lon="6.55128">
        <ele>165.6</ele>
        <time>2022-02-04T16:04:43Z</time>
      </trkpt>
      <trkpt lat="43.29838" lon="6.55124">
        <ele>166</ele>
        <time>2022-02-04T16:04:44Z</time>
      </trkpt>
      <trkpt lat="43.29838" lon="6.55119">
        <ele>166.2</ele>
        <time>2022-02-04T16:04:45Z</time>
      </trkpt>
      <trkpt lat="43.29837" lon="6.55114">
        <ele>166.6</ele>
        <time>2022-02-04T16:04:46Z</time>
      </trkpt>
      <trkpt lat="43.29837" lon="6.55109">
        <ele>166.8</ele>
        <time>2022-02-04T16:04:47Z</time>
      </trkpt>
      <trkpt lat="43.29837" lon="6.55104">
        <ele>167.2</ele>
        <time>2022-02-04T16:04:48Z</time>
      </trkpt>
      <trkpt lat="43.29837" lon="6.55099">
        <ele>167.6</ele>
        <time>2022-02-04T16:04:49Z</time>
      </trkpt>
      <trkpt lat="43.29837" lon="6.55093">
        <ele>168</ele>
        <time>2022-02-04T16:04:50Z</time>
      </trkpt>
      <trkpt lat="43.29838" lon="6.55088">
        <ele>168.2</ele>
        <time>2022-02-04T16:04:51Z</time>
      </trkpt>
      <trkpt lat="43.29838" lon="6.55083">
        <ele>168.8</ele>
        <time>2022-02-04T16:04:52Z</time>
      </trkpt>
      <trkpt lat="43.29839" lon="6.55078">
        <ele>169.2</ele>
        <time>2022-02-04T16:04:53Z</time>
      </trkpt>
      <trkpt lat="43.29839" lon="6.55073">
        <ele>169.4</ele>
        <time>2022-02-04T16:04:54Z</time>
      </trkpt>
      <trkpt lat="43.2984" lon="6.55068">
        <ele>169.8</ele>
        <time>2022-02-04T16:04:55Z</time>
      </trkpt>
      <trkpt lat="43.29841" lon="6.55063">
        <ele>170.2</ele>
        <time>2022-02-04T16:04:56Z</time>
      </trkpt>
      <trkpt lat="43.29842" lon="6.55058">
        <ele>170.4</ele>
        <time>2022-02-04T16:04:57Z</time>
      </trkpt>
      <trkpt lat="43.29843" lon="6.55053">
        <ele>170.6</ele>
        <time>2022-02-04T16:04:58Z</time>
      </trkpt>
      <trkpt lat="43.29844" lon="6.55049">
        <ele>171</ele>
        <time>2022-02-04T16:04:59Z</time>
      </trkpt>
      <trkpt lat="43.29845" lon="6.55044">
        <ele>171.2</ele>
        <time>2022-02-04T16:05:00Z</time>
      </trkpt>
      <trkpt lat="43.29846" lon="6.55039">
        <ele>171.6</ele>
        <time>2022-02-04T16:05:01Z</time>
      </trkpt>
      <trkpt lat="43.29846" lon="6.55035">
        <ele>172.2</ele>
        <time>2022-02-04T16:05:02Z</time>
      </trkpt>
      <trkpt lat="43.29845" lon="6.5503">
        <ele>172.4</ele>
        <time>2022-02-04T16:05:03Z</time>
      </trkpt>
      <trkpt lat="43.29843" lon="6.55027">
        <ele>172.6</ele>
        <time>2022-02-04T16:05:04Z</time>
      </trkpt>
      <trkpt lat="43.29841" lon="6.55023">
        <ele>173</ele>
        <time>2022-02-04T16:05:05Z</time>
      </trkpt>
      <trkpt lat="43.29838" lon="6.5502">
        <ele>173.2</ele>
        <time>2022-02-04T16:05:06Z</time>
      </trkpt>
      <trkpt lat="43.29835" lon="6.55018">
        <ele>173.6</ele>
        <time>2022-02-04T16:05:07Z</time>
      </trkpt>
      <trkpt lat="43.29832" lon="6.55015">
        <ele>174.2</ele>
        <time>2022-02-04T16:05:08Z</time>
      </trkpt>
      <trkpt lat="43.29829" lon="6.55012">
        <ele>174.4</ele>
        <time>2022-02-04T16:05:09Z</time>
      </trkpt>
      <trkpt lat="43.29827" lon="6.55009">
        <ele>174.8</ele>
        <time>2022-02-04T16:05:10Z</time>
      </trkpt>
      <trkpt lat="43.29825" lon="6.55005">
        <ele>174.8</ele>
        <time>2022-02-04T16:05:11Z</time>
      </trkpt>
      <trkpt lat="43.29823" lon="6.55">
        <ele>175.2</ele>
        <time>2022-02-04T16:05:12Z</time>
      </trkpt>
      <trkpt lat="43.29822" lon="6.54996">
        <ele>175.2</ele>
        <time>2022-02-04T16:05:13Z</time>
      </trkpt>
      <trkpt lat="43.29821" lon="6.54991">
        <ele>175.6</ele>
        <time>2022-02-04T16:05:14Z</time>
      </trkpt>
      <trkpt lat="43.29821" lon="6.54986">
        <ele>175.8</ele>
        <time>2022-02-04T16:05:15Z</time>
      </trkpt>
      <trkpt lat="43.29821" lon="6.54981">
        <ele>176.4</ele>
        <time>2022-02-04T16:05:16Z</time>
      </trkpt>
      <trkpt lat="43.2982" lon="6.54976">
        <ele>176.6</ele>
        <time>2022-02-04T16:05:17Z</time>
      </trkpt>
      <trkpt lat="43.2982" lon="6.54971">
        <ele>176.8</ele>
        <time>2022-02-04T16:05:18Z</time>
      </trkpt>
      <trkpt lat="43.2982" lon="6.54967">
        <ele>177</ele>
        <time>2022-02-04T16:05:19Z</time>
      </trkpt>
      <trkpt lat="43.2982" lon="6.54962">
        <ele>177.4</ele>
        <time>2022-02-04T16:05:20Z</time>
      </trkpt>
      <trkpt lat="43.29819" lon="6.54958">
        <ele>177.8</ele>
        <time>2022-02-04T16:05:21Z</time>
      </trkpt>
      <trkpt lat="43.29819" lon="6.54954">
        <ele>178</ele>
        <time>2022-02-04T16:05:22Z</time>
      </trkpt>
      <trkpt lat="43.29818" lon="6.54949">
        <ele>178.2</ele>
        <time>2022-02-04T16:05:23Z</time>
      </trkpt>
      <trkpt lat="43.29817" lon="6.54944">
        <ele>179</ele>
        <time>2022-02-04T16:05:24Z</time>
      </trkpt>
      <trkpt lat="43.29816" lon="6.5494">
        <ele>179.6</ele>
        <time>2022-02-04T16:05:25Z</time>
      </trkpt>
      <trkpt lat="43.29815" lon="6.54935">
        <ele>180</ele>
        <time>2022-02-04T16:05:26Z</time>
      </trkpt>
      <trkpt lat="43.29815" lon="6.54931">
        <ele>180.4</ele>
        <time>2022-02-04T16:05:27Z</time>
      </trkpt>
      <trkpt lat="43.29814" lon="6.54926">
        <ele>180.8</ele>
        <time>2022-02-04T16:05:28Z</time>
      </trkpt>
      <trkpt lat="43.29815" lon="6.54921">
        <ele>181.2</ele>
        <time>2022-02-04T16:05:29Z</time>
      </trkpt>
      <trkpt lat="43.29815" lon="6.54916">
        <ele>181.4</ele>
        <time>2022-02-04T16:05:30Z</time>
      </trkpt>
      <trkpt lat="43.29817" lon="6.54912">
        <ele>181.6</ele>
        <time>2022-02-04T16:05:31Z</time>
      </trkpt>
      <trkpt lat="43.29819" lon="6.54909">
        <ele>181.8</ele>
        <time>2022-02-04T16:05:32Z</time>
      </trkpt>
      <trkpt lat="43.29821" lon="6.54906">
        <ele>182.2</ele>
        <time>2022-02-04T16:05:33Z</time>
      </trkpt>
      <trkpt lat="43.29824" lon="6.54905">
        <ele>182.6</ele>
        <time>2022-02-04T16:05:34Z</time>
      </trkpt>
      <trkpt lat="43.29827" lon="6.54903">
        <ele>183</ele>
        <time>2022-02-04T16:05:35Z</time>
      </trkpt>
      <trkpt lat="43.29829" lon="6.54902">
        <ele>183.4</ele>
        <time>2022-02-04T16:05:36Z</time>
      </trkpt>
      <trkpt lat="43.29831" lon="6.54902">
        <ele>183.6</ele>
        <time>2022-02-04T16:05:37Z</time>
      </trkpt>
      <trkpt lat="43.29834" lon="6.54902">
        <ele>184.4</ele>
        <time>2022-02-04T16:05:38Z</time>
      </trkpt>
      <trkpt lat="43.29837" lon="6.54903">
        <ele>184.8</ele>
        <time>2022-02-04T16:05:39Z</time>
      </trkpt>
      <trkpt lat="43.29839" lon="6.54904">
        <ele>185.2</ele>
        <time>2022-02-04T16:05:40Z</time>
      </trkpt>
      <trkpt lat="43.29842" lon="6.54906">
        <ele>185.6</ele>
        <time>2022-02-04T16:05:41Z</time>
      </trkpt>
      <trkpt lat="43.29844" lon="6.54908">
        <ele>186</ele>
        <time>2022-02-04T16:05:42Z</time>
      </trkpt>
      <trkpt lat="43.29846" lon="6.54911">
        <ele>186.6</ele>
        <time>2022-02-04T16:05:43Z</time>
      </trkpt>
      <trkpt lat="43.29848" lon="6.54914">
        <ele>187.2</ele>
        <time>2022-02-04T16:05:44Z</time>
      </trkpt>
      <trkpt lat="43.29848" lon="6.54917">
        <ele>188</ele>
        <time>2022-02-04T16:05:45Z</time>
      </trkpt>
      <trkpt lat="43.29849" lon="6.5492">
        <ele>188.4</ele>
        <time>2022-02-04T16:05:46Z</time>
      </trkpt>
      <trkpt lat="43.29849" lon="6.54924">
        <ele>188.8</ele>
        <time>2022-02-04T16:05:47Z</time>
      </trkpt>
      <trkpt lat="43.2985" lon="6.54928">
        <ele>189.4</ele>
        <time>2022-02-04T16:05:48Z</time>
      </trkpt>
      <trkpt lat="43.29851" lon="6.54931">
        <ele>189.8</ele>
        <time>2022-02-04T16:05:49Z</time>
      </trkpt>
      <trkpt lat="43.29853" lon="6.54935">
        <ele>190.2</ele>
        <time>2022-02-04T16:05:50Z</time>
      </trkpt>
      <trkpt lat="43.29855" lon="6.54939">
        <ele>190.6</ele>
        <time>2022-02-04T16:05:51Z</time>
      </trkpt>
      <trkpt lat="43.29856" lon="6.54943">
        <ele>190.8</ele>
        <time>2022-02-04T16:05:52Z</time>
      </trkpt>
      <trkpt lat="43.29857" lon="6.54947">
        <ele>191.2</ele>
        <time>2022-02-04T16:05:53Z</time>
      </trkpt>
      <trkpt lat="43.29858" lon="6.54951">
        <ele>191.2</ele>
        <time>2022-02-04T16:05:54Z</time>
      </trkpt>
      <trkpt lat="43.2986" lon="6.54954">
        <ele>191.4</ele>
        <time>2022-02-04T16:05:55Z</time>
      </trkpt>
      <trkpt lat="43.29862" lon="6.54956">
        <ele>191.4</ele>
        <time>2022-02-04T16:05:56Z</time>
      </trkpt>
      <trkpt lat="43.29865" lon="6.54957">
        <ele>191.6</ele>
        <time>2022-02-04T16:05:57Z</time>
      </trkpt>
      <trkpt lat="43.29868" lon="6.54957">
        <ele>191.8</ele>
        <time>2022-02-04T16:05:58Z</time>
      </trkpt>
      <trkpt lat="43.29871" lon="6.54956">
        <ele>192</ele>
        <time>2022-02-04T16:05:59Z</time>
      </trkpt>
      <trkpt lat="43.29874" lon="6.54955">
        <ele>192.4</ele>
        <time>2022-02-04T16:06:00Z</time>
      </trkpt>
      <trkpt lat="43.29877" lon="6.54954">
        <ele>193</ele>
        <time>2022-02-04T16:06:01Z</time>
      </trkpt>
      <trkpt lat="43.29879" lon="6.54953">
        <ele>193.4</ele>
        <time>2022-02-04T16:06:02Z</time>
      </trkpt>
      <trkpt lat="43.29883" lon="6.54952">
        <ele>193.6</ele>
        <time>2022-02-04T16:06:03Z</time>
      </trkpt>
      <trkpt lat="43.29886" lon="6.54952">
        <ele>194</ele>
        <time>2022-02-04T16:06:04Z</time>
      </trkpt>
      <trkpt lat="43.29889" lon="6.54953">
        <ele>194.2</ele>
        <time>2022-02-04T16:06:05Z</time>
      </trkpt>
      <trkpt lat="43.29892" lon="6.54953">
        <ele>194.8</ele>
        <time>2022-02-04T16:06:06Z</time>
      </trkpt>
      <trkpt lat="43.29895" lon="6.54954">
        <ele>195.2</ele>
        <time>2022-02-04T16:06:07Z</time>
      </trkpt>
      <trkpt lat="43.29898" lon="6.54954">
        <ele>195.4</ele>
        <time>2022-02-04T16:06:08Z</time>
      </trkpt>
      <trkpt lat="43.29901" lon="6.54955">
        <ele>195.8</ele>
        <time>2022-02-04T16:06:09Z</time>
      </trkpt>
      <trkpt lat="43.29903" lon="6.54954">
        <ele>196</ele>
        <time>2022-02-04T16:06:10Z</time>
      </trkpt>
      <trkpt lat="43.29906" lon="6.54953">
        <ele>196.4</ele>
        <time>2022-02-04T16:06:11Z</time>
      </trkpt>
      <trkpt lat="43.29908" lon="6.54951">
        <ele>197.2</ele>
        <time>2022-02-04T16:06:12Z</time>
      </trkpt>
      <trkpt lat="43.29911" lon="6.54949">
        <ele>197.8</ele>
        <time>2022-02-04T16:06:13Z</time>
      </trkpt>
      <trkpt lat="43.29913" lon="6.54947">
        <ele>198.4</ele>
        <time>2022-02-04T16:06:14Z</time>
      </trkpt>
      <trkpt lat="43.29915" lon="6.54945">
        <ele>198.6</ele>
        <time>2022-02-04T16:06:15Z</time>
      </trkpt>
      <trkpt lat="43.29917" lon="6.54943">
        <ele>199</ele>
        <time>2022-02-04T16:06:16Z</time>
      </trkpt>
      <trkpt lat="43.2992" lon="6.54942">
        <ele>199.2</ele>
        <time>2022-02-04T16:06:17Z</time>
      </trkpt>
      <trkpt lat="43.29923" lon="6.54941">
        <ele>199.6</ele>
        <time>2022-02-04T16:06:18Z</time>
      </trkpt>
      <trkpt lat="43.29925" lon="6.54941">
        <ele>200.2</ele>
        <time>2022-02-04T16:06:19Z</time>
      </trkpt>
      <trkpt lat="43.29928" lon="6.54942">
        <ele>201</ele>
        <time>2022-02-04T16:06:20Z</time>
      </trkpt>
      <trkpt lat="43.2993" lon="6.54943">
        <ele>201.8</ele>
        <time>2022-02-04T16:06:21Z</time>
      </trkpt>
      <trkpt lat="43.29932" lon="6.54944">
        <ele>202.2</ele>
        <time>2022-02-04T16:06:22Z</time>
      </trkpt>
      <trkpt lat="43.29934" lon="6.54944">
        <ele>202.8</ele>
        <time>2022-02-04T16:06:23Z</time>
      </trkpt>
      <trkpt lat="43.29936" lon="6.54944">
        <ele>203.6</ele>
        <time>2022-02-04T16:06:24Z</time>
      </trkpt>
      <trkpt lat="43.29939" lon="6.54946">
        <ele>204.4</ele>
        <time>2022-02-04T16:06:25Z</time>
      </trkpt>
      <trkpt lat="43.29941" lon="6.54947">
        <ele>205.2</ele>
        <time>2022-02-04T16:06:26Z</time>
      </trkpt>
      <trkpt lat="43.29943" lon="6.54948">
        <ele>205.6</ele>
        <time>2022-02-04T16:06:27Z</time>
      </trkpt>
      <trkpt lat="43.29945" lon="6.54949">
        <ele>206.2</ele>
        <time>2022-02-04T16:06:28Z</time>
      </trkpt>
      <trkpt lat="43.29947" lon="6.54951">
        <ele>206.6</ele>
        <time>2022-02-04T16:06:29Z</time>
      </trkpt>
      <trkpt lat="43.29949" lon="6.54953">
        <ele>207.2</ele>
        <time>2022-02-04T16:06:30Z</time>
      </trkpt>
      <trkpt lat="43.29951" lon="6.54954">
        <ele>208</ele>
        <time>2022-02-04T16:06:31Z</time>
      </trkpt>
      <trkpt lat="43.29952" lon="6.54956">
        <ele>209</ele>
        <time>2022-02-04T16:06:32Z</time>
      </trkpt>
      <trkpt lat="43.29954" lon="6.54957">
        <ele>210</ele>
        <time>2022-02-04T16:06:33Z</time>
      </trkpt>
      <trkpt lat="43.29956" lon="6.54958">
        <ele>210.6</ele>
        <time>2022-02-04T16:06:34Z</time>
      </trkpt>
      <trkpt lat="43.29958" lon="6.54957">
        <ele>211</ele>
        <time>2022-02-04T16:06:35Z</time>
      </trkpt>
      <trkpt lat="43.29961" lon="6.54957">
        <ele>211.6</ele>
        <time>2022-02-04T16:06:36Z</time>
      </trkpt>
      <trkpt lat="43.29963" lon="6.54956">
        <ele>211.8</ele>
        <time>2022-02-04T16:06:37Z</time>
      </trkpt>
      <trkpt lat="43.29966" lon="6.54955">
        <ele>212.4</ele>
        <time>2022-02-04T16:06:38Z</time>
      </trkpt>
      <trkpt lat="43.29968" lon="6.54954">
        <ele>213.2</ele>
        <time>2022-02-04T16:06:39Z</time>
      </trkpt>
      <trkpt lat="43.2997" lon="6.54954">
        <ele>213.8</ele>
        <time>2022-02-04T16:06:40Z</time>
      </trkpt>
      <trkpt lat="43.29972" lon="6.54953">
        <ele>214.4</ele>
        <time>2022-02-04T16:06:41Z</time>
      </trkpt>
      <trkpt lat="43.29974" lon="6.54952">
        <ele>214.8</ele>
        <time>2022-02-04T16:06:42Z</time>
      </trkpt>
      <trkpt lat="43.29977" lon="6.5495">
        <ele>215</ele>
        <time>2022-02-04T16:06:43Z</time>
      </trkpt>
      <trkpt lat="43.29979" lon="6.54948">
        <ele>215.4</ele>
        <time>2022-02-04T16:06:44Z</time>
      </trkpt>
      <trkpt lat="43.2998" lon="6.54945">
        <ele>215.8</ele>
        <time>2022-02-04T16:06:45Z</time>
      </trkpt>
      <trkpt lat="43.29981" lon="6.54941">
        <ele>216.2</ele>
        <time>2022-02-04T16:06:46Z</time>
      </trkpt>
      <trkpt lat="43.29981" lon="6.54937">
        <ele>216.6</ele>
        <time>2022-02-04T16:06:47Z</time>
      </trkpt>
      <trkpt lat="43.29981" lon="6.54934">
        <ele>217</ele>
        <time>2022-02-04T16:06:48Z</time>
      </trkpt>
      <trkpt lat="43.29981" lon="6.5493">
        <ele>217.4</ele>
        <time>2022-02-04T16:06:49Z</time>
      </trkpt>
      <trkpt lat="43.2998" lon="6.54925">
        <ele>217.8</ele>
        <time>2022-02-04T16:06:50Z</time>
      </trkpt>
      <trkpt lat="43.2998" lon="6.54921">
        <ele>218</ele>
        <time>2022-02-04T16:06:51Z</time>
      </trkpt>
      <trkpt lat="43.2998" lon="6.54917">
        <ele>218.6</ele>
        <time>2022-02-04T16:06:52Z</time>
      </trkpt>
      <trkpt lat="43.29979" lon="6.54912">
        <ele>219</ele>
        <time>2022-02-04T16:06:53Z</time>
      </trkpt>
      <trkpt lat="43.29979" lon="6.54908">
        <ele>219.8</ele>
        <time>2022-02-04T16:06:54Z</time>
      </trkpt>
      <trkpt lat="43.29979" lon="6.54904">
        <ele>220.2</ele>
        <time>2022-02-04T16:06:55Z</time>
      </trkpt>
      <trkpt lat="43.29978" lon="6.549">
        <ele>220.4</ele>
        <time>2022-02-04T16:06:56Z</time>
      </trkpt>
      <trkpt lat="43.29978" lon="6.54896">
        <ele>221.2</ele>
        <time>2022-02-04T16:06:57Z</time>
      </trkpt>
      <trkpt lat="43.29977" lon="6.54892">
        <ele>221.6</ele>
        <time>2022-02-04T16:06:58Z</time>
      </trkpt>
      <trkpt lat="43.29977" lon="6.54888">
        <ele>222</ele>
        <time>2022-02-04T16:06:59Z</time>
      </trkpt>
      <trkpt lat="43.29978" lon="6.54885">
        <ele>222.4</ele>
        <time>2022-02-04T16:07:00Z</time>
      </trkpt>
      <trkpt lat="43.29979" lon="6.54882">
        <ele>222.6</ele>
        <time>2022-02-04T16:07:01Z</time>
      </trkpt>
      <trkpt lat="43.2998" lon="6.54878">
        <ele>222.8</ele>
        <time>2022-02-04T16:07:02Z</time>
      </trkpt>
      <trkpt lat="43.29981" lon="6.54876">
        <ele>223.4</ele>
        <time>2022-02-04T16:07:03Z</time>
      </trkpt>
      <trkpt lat="43.29984" lon="6.54873">
        <ele>224.4</ele>
        <time>2022-02-04T16:07:04Z</time>
      </trkpt>
      <trkpt lat="43.29986" lon="6.54871">
        <ele>225.2</ele>
        <time>2022-02-04T16:07:05Z</time>
      </trkpt>
      <trkpt lat="43.29988" lon="6.54869">
        <ele>226.2</ele>
        <time>2022-02-04T16:07:06Z</time>
      </trkpt>
      <trkpt lat="43.2999" lon="6.54867">
        <ele>227</ele>
        <time>2022-02-04T16:07:07Z</time>
      </trkpt>
      <trkpt lat="43.29992" lon="6.54866">
        <ele>227.6</ele>
        <time>2022-02-04T16:07:08Z</time>
      </trkpt>
      <trkpt lat="43.29994" lon="6.54865">
        <ele>228.4</ele>
        <time>2022-02-04T16:07:09Z</time>
      </trkpt>
      <trkpt lat="43.29997" lon="6.54864">
        <ele>228.8</ele>
        <time>2022-02-04T16:07:10Z</time>
      </trkpt>
      <trkpt lat="43.29999" lon="6.54863">
        <ele>229.2</ele>
        <time>2022-02-04T16:07:11Z</time>
      </trkpt>
      <trkpt lat="43.30002" lon="6.54862">
        <ele>230</ele>
        <time>2022-02-04T16:07:12Z</time>
      </trkpt>
      <trkpt lat="43.30004" lon="6.54862">
        <ele>230.6</ele>
        <time>2022-02-04T16:07:13Z</time>
      </trkpt>
      <trkpt lat="43.30006" lon="6.54862">
        <ele>231.2</ele>
        <time>2022-02-04T16:07:14Z</time>
      </trkpt>
      <trkpt lat="43.30009" lon="6.54861">
        <ele>231.8</ele>
        <time>2022-02-04T16:07:15Z</time>
      </trkpt>
      <trkpt lat="43.30012" lon="6.5486">
        <ele>232.4</ele>
        <time>2022-02-04T16:07:16Z</time>
      </trkpt>
      <trkpt lat="43.30015" lon="6.5486">
        <ele>232.6</ele>
        <time>2022-02-04T16:07:17Z</time>
      </trkpt>
      <trkpt lat="43.30017" lon="6.54859">
        <ele>232.8</ele>
        <time>2022-02-04T16:07:18Z</time>
      </trkpt>
      <trkpt lat="43.30019" lon="6.54858">
        <ele>233.2</ele>
        <time>2022-02-04T16:07:19Z</time>
      </trkpt>
      <trkpt lat="43.3002" lon="6.54857">
        <ele>233.8</ele>
        <time>2022-02-04T16:07:20Z</time>
      </trkpt>
      <trkpt lat="43.30021" lon="6.54855">
        <ele>234.2</ele>
        <time>2022-02-04T16:07:21Z</time>
      </trkpt>
      <trkpt lat="43.30022" lon="6.54854">
        <ele>234.8</ele>
        <time>2022-02-04T16:07:22Z</time>
      </trkpt>
      <trkpt lat="43.30022" lon="6.54853">
        <ele>235.4</ele>
        <time>2022-02-04T16:07:23Z</time>
      </trkpt>
      <trkpt lat="43.30022" lon="6.54851">
        <ele>235.8</ele>
        <time>2022-02-04T16:07:24Z</time>
      </trkpt>
      <trkpt lat="43.30023" lon="6.5485">
        <ele>236</ele>
        <time>2022-02-04T16:07:25Z</time>
      </trkpt>
      <trkpt lat="43.30024" lon="6.54849">
        <ele>236</ele>
        <time>2022-02-04T16:07:26Z</time>
      </trkpt>
      <trkpt lat="43.30024" lon="6.54849">
        <ele>236.2</ele>
        <time>2022-02-04T16:07:27Z</time>
      </trkpt>
      <trkpt lat="43.30024" lon="6.54849">
        <ele>236.2</ele>
        <time>2022-02-04T16:07:28Z</time>
      </trkpt>
      <trkpt lat="43.30024" lon="6.54849">
        <ele>236.2</ele>
        <time>2022-02-04T16:07:29Z</time>
      </trkpt>
      <trkpt lat="43.30024" lon="6.54849">
        <ele>236</ele>
        <time>2022-02-04T16:07:30Z</time>
      </trkpt>
      <trkpt lat="43.30024" lon="6.54849">
        <ele>236</ele>
        <time>2022-02-04T16:07:31Z</time>
      </trkpt>
      <trkpt lat="43.30024" lon="6.54849">
        <ele>236</ele>
        <time>2022-02-04T16:07:32Z</time>
      </trkpt>
      <trkpt lat="43.30024" lon="6.54849">
        <ele>236</ele>
        <time>2022-02-04T16:07:33Z</time>
      </trkpt>
      <trkpt lat="43.30024" lon="6.54849">
        <ele>236</ele>
        <time>2022-02-04T16:07:34Z</time>
      </trkpt>
      <trkpt lat="43.30024" lon="6.54849">
        <ele>236</ele>
        <time>2022-02-04T16:07:35Z</time>
      </trkpt>
      <trkpt lat="43.30024" lon="6.54849">
        <ele>236</ele>
        <time>2022-02-04T16:07:36Z</time>
      </trkpt>
      <trkpt lat="43.30024" lon="6.54849">
        <ele>236</ele>
        <time>2022-02-04T16:07:37Z</time>
      </trkpt>
      <trkpt lat="43.30024" lon="6.54849">
        <ele>236</ele>
        <time>2022-02-04T16:07:38Z</time>
      </trkpt>
      <trkpt lat="43.30024" lon="6.54849">
        <ele>236</ele>
        <time>2022-02-04T16:07:39Z</time>
      </trkpt>
      <trkpt lat="43.30024" lon="6.54849">
        <ele>236</ele>
        <time>2022-02-04T16:07:40Z</time>
      </trkpt>
      <trkpt lat="43.30024" lon="6.54849">
        <ele>236.2</ele>
        <time>2022-02-04T16:07:41Z</time>
      </trkpt>
      <trkpt lat="43.30024" lon="6.54849">
        <ele>236.2</ele>
        <time>2022-02-04T16:07:42Z</time>
      </trkpt>
      <trkpt lat="43.30024" lon="6.54849">
        <ele>236.2</ele>
        <time>2022-02-04T16:07:43Z</time>
      </trkpt>
      <trkpt lat="43.30024" lon="6.54849">
        <ele>236.2</ele>
        <time>2022-02-04T16:07:44Z</time>
      </trkpt>
      <trkpt lat="43.30024" lon="6.54849">
        <ele>236.2</ele>
        <time>2022-02-04T16:07:45Z</time>
      </trkpt>
      <trkpt lat="43.30024" lon="6.54849">
        <ele>236.2</ele>
        <time>2022-02-04T16:07:46Z</time>
      </trkpt>
      <trkpt lat="43.30024" lon="6.54849">
        <ele>236.2</ele>
        <time>2022-02-04T16:07:47Z</time>
      </trkpt>
      <trkpt lat="43.30024" lon="6.54849">
        <ele>236.2</ele>
        <time>2022-02-04T16:07:48Z</time>
      </trkpt>
      <trkpt lat="43.30024" lon="6.54849">
        <ele>236.2</ele>
        <time>2022-02-04T16:07:49Z</time>
      </trkpt>
      <trkpt lat="43.30024" lon="6.54849">
        <ele>236.2</ele>
        <time>2022-02-04T16:07:50Z</time>
      </trkpt>
      <trkpt lat="43.30024" lon="6.54849">
        <ele>236</ele>
        <time>2022-02-04T16:07:51Z</time>
      </trkpt>
      <trkpt lat="43.30024" lon="6.54849">
        <ele>236</ele>
        <time>2022-02-04T16:07:52Z</time>
      </trkpt>
      <trkpt lat="43.30024" lon="6.54849">
        <ele>236</ele>
        <time>2022-02-04T16:07:53Z</time>
      </trkpt>
      <trkpt lat="43.30024" lon="6.54849">
        <ele>236</ele>
        <time>2022-02-04T16:07:54Z</time>
      </trkpt>
      <trkpt lat="43.30024" lon="6.54849">
        <ele>235.8</ele>
        <time>2022-02-04T16:07:55Z</time>
      </trkpt>
      <trkpt lat="43.30024" lon="6.54849">
        <ele>235.8</ele>
        <time>2022-02-04T16:07:56Z</time>
      </trkpt>
      <trkpt lat="43.30024" lon="6.54849">
        <ele>235.8</ele>
        <time>2022-02-04T16:07:57Z</time>
      </trkpt>
      <trkpt lat="43.30024" lon="6.54849">
        <ele>235.8</ele>
        <time>2022-02-04T16:07:58Z</time>
      </trkpt>
      <trkpt lat="43.30024" lon="6.54849">
        <ele>235.8</ele>
        <time>2022-02-04T16:07:59Z</time>
      </trkpt>
      <trkpt lat="43.30024" lon="6.54852">
        <ele>235.8</ele>
        <time>2022-02-04T16:08:00Z</time>
      </trkpt>
      <trkpt lat="43.30025" lon="6.54856">
        <ele>235.8</ele>
        <time>2022-02-04T16:08:01Z</time>
      </trkpt>
      <trkpt lat="43.30025" lon="6.54859">
        <ele>235.8</ele>
        <time>2022-02-04T16:08:02Z</time>
      </trkpt>
      <trkpt lat="43.30025" lon="6.54863">
        <ele>235.8</ele>
        <time>2022-02-04T16:08:03Z</time>
      </trkpt>
      <trkpt lat="43.30026" lon="6.54867">
        <ele>235.4</ele>
        <time>2022-02-04T16:08:04Z</time>
      </trkpt>
      <trkpt lat="43.30026" lon="6.54871">
        <ele>235.2</ele>
        <time>2022-02-04T16:08:05Z</time>
      </trkpt>
      <trkpt lat="43.30026" lon="6.54875">
        <ele>235.2</ele>
        <time>2022-02-04T16:08:06Z</time>
      </trkpt>
      <trkpt lat="43.30027" lon="6.5488">
        <ele>235</ele>
        <time>2022-02-04T16:08:07Z</time>
      </trkpt>
      <trkpt lat="43.30028" lon="6.54885">
        <ele>234.8</ele>
        <time>2022-02-04T16:08:08Z</time>
      </trkpt>
      <trkpt lat="43.30028" lon="6.54889">
        <ele>234.8</ele>
        <time>2022-02-04T16:08:09Z</time>
      </trkpt>
      <trkpt lat="43.3003" lon="6.54893">
        <ele>234.8</ele>
        <time>2022-02-04T16:08:10Z</time>
      </trkpt>
      <trkpt lat="43.30031" lon="6.54896">
        <ele>234.8</ele>
        <time>2022-02-04T16:08:11Z</time>
      </trkpt>
      <trkpt lat="43.30033" lon="6.54899">
        <ele>234.8</ele>
        <time>2022-02-04T16:08:12Z</time>
      </trkpt>
      <trkpt lat="43.30035" lon="6.54902">
        <ele>234.8</ele>
        <time>2022-02-04T16:08:13Z</time>
      </trkpt>
      <trkpt lat="43.30038" lon="6.54904">
        <ele>234.8</ele>
        <time>2022-02-04T16:08:14Z</time>
      </trkpt>
      <trkpt lat="43.30041" lon="6.54906">
        <ele>234.8</ele>
        <time>2022-02-04T16:08:15Z</time>
      </trkpt>
      <trkpt lat="43.30043" lon="6.54907">
        <ele>235</ele>
        <time>2022-02-04T16:08:16Z</time>
      </trkpt>
      <trkpt lat="43.30046" lon="6.54909">
        <ele>235.2</ele>
        <time>2022-02-04T16:08:17Z</time>
      </trkpt>
      <trkpt lat="43.30049" lon="6.54911">
        <ele>236</ele>
        <time>2022-02-04T16:08:18Z</time>
      </trkpt>
      <trkpt lat="43.30051" lon="6.54914">
        <ele>236.4</ele>
        <time>2022-02-04T16:08:19Z</time>
      </trkpt>
      <trkpt lat="43.30054" lon="6.54916">
        <ele>237</ele>
        <time>2022-02-04T16:08:20Z</time>
      </trkpt>
      <trkpt lat="43.30056" lon="6.54918">
        <ele>237.6</ele>
        <time>2022-02-04T16:08:21Z</time>
      </trkpt>
      <trkpt lat="43.30059" lon="6.54919">
        <ele>238.2</ele>
        <time>2022-02-04T16:08:22Z</time>
      </trkpt>
      <trkpt lat="43.30062" lon="6.54921">
        <ele>238.6</ele>
        <time>2022-02-04T16:08:23Z</time>
      </trkpt>
      <trkpt lat="43.30065" lon="6.54924">
        <ele>239.2</ele>
        <time>2022-02-04T16:08:24Z</time>
      </trkpt>
      <trkpt lat="43.30068" lon="6.54927">
        <ele>240</ele>
        <time>2022-02-04T16:08:25Z</time>
      </trkpt>
      <trkpt lat="43.3007" lon="6.5493">
        <ele>240.6</ele>
        <time>2022-02-04T16:08:26Z</time>
      </trkpt>
      <trkpt lat="43.30072" lon="6.54933">
        <ele>241.6</ele>
        <time>2022-02-04T16:08:27Z</time>
      </trkpt>
      <trkpt lat="43.30074" lon="6.54936">
        <ele>242.2</ele>
        <time>2022-02-04T16:08:28Z</time>
      </trkpt>
      <trkpt lat="43.30075" lon="6.5494">
        <ele>242.6</ele>
        <time>2022-02-04T16:08:29Z</time>
      </trkpt>
      <trkpt lat="43.30077" lon="6.54943">
        <ele>243</ele>
        <time>2022-02-04T16:08:30Z</time>
      </trkpt>
      <trkpt lat="43.3008" lon="6.54945">
        <ele>243.2</ele>
        <time>2022-02-04T16:08:31Z</time>
      </trkpt>
      <trkpt lat="43.30082" lon="6.54947">
        <ele>243.4</ele>
        <time>2022-02-04T16:08:32Z</time>
      </trkpt>
      <trkpt lat="43.30085" lon="6.5495">
        <ele>244</ele>
        <time>2022-02-04T16:08:33Z</time>
      </trkpt>
      <trkpt lat="43.30087" lon="6.54952">
        <ele>244.4</ele>
        <time>2022-02-04T16:08:34Z</time>
      </trkpt>
      <trkpt lat="43.3009" lon="6.54955">
        <ele>245.2</ele>
        <time>2022-02-04T16:08:35Z</time>
      </trkpt>
      <trkpt lat="43.30092" lon="6.54958">
        <ele>246</ele>
        <time>2022-02-04T16:08:36Z</time>
      </trkpt>
      <trkpt lat="43.30095" lon="6.54961">
        <ele>247</ele>
        <time>2022-02-04T16:08:37Z</time>
      </trkpt>
      <trkpt lat="43.30097" lon="6.54964">
        <ele>247.4</ele>
        <time>2022-02-04T16:08:38Z</time>
      </trkpt>
      <trkpt lat="43.30099" lon="6.54966">
        <ele>248</ele>
        <time>2022-02-04T16:08:39Z</time>
      </trkpt>
      <trkpt lat="43.301" lon="6.54969">
        <ele>248.4</ele>
        <time>2022-02-04T16:08:40Z</time>
      </trkpt>
      <trkpt lat="43.30102" lon="6.54971">
        <ele>249.2</ele>
        <time>2022-02-04T16:08:41Z</time>
      </trkpt>
      <trkpt lat="43.30105" lon="6.54974">
        <ele>249.8</ele>
        <time>2022-02-04T16:08:42Z</time>
      </trkpt>
      <trkpt lat="43.30107" lon="6.54976">
        <ele>250.6</ele>
        <time>2022-02-04T16:08:43Z</time>
      </trkpt>
      <trkpt lat="43.30109" lon="6.54978">
        <ele>251</ele>
        <time>2022-02-04T16:08:44Z</time>
      </trkpt>
      <trkpt lat="43.30111" lon="6.54979">
        <ele>251.6</ele>
        <time>2022-02-04T16:08:45Z</time>
      </trkpt>
      <trkpt lat="43.30113" lon="6.54981">
        <ele>252</ele>
        <time>2022-02-04T16:08:46Z</time>
      </trkpt>
      <trkpt lat="43.30115" lon="6.54982">
        <ele>252.8</ele>
        <time>2022-02-04T16:08:47Z</time>
      </trkpt>
      <trkpt lat="43.30118" lon="6.54983">
        <ele>253.2</ele>
        <time>2022-02-04T16:08:48Z</time>
      </trkpt>
      <trkpt lat="43.30121" lon="6.54984">
        <ele>253.8</ele>
        <time>2022-02-04T16:08:49Z</time>
      </trkpt>
      <trkpt lat="43.30123" lon="6.54984">
        <ele>254.4</ele>
        <time>2022-02-04T16:08:50Z</time>
      </trkpt>
      <trkpt lat="43.30126" lon="6.54984">
        <ele>254.8</ele>
        <time>2022-02-04T16:08:51Z</time>
      </trkpt>
      <trkpt lat="43.30128" lon="6.54984">
        <ele>255.4</ele>
        <time>2022-02-04T16:08:52Z</time>
      </trkpt>
      <trkpt lat="43.30131" lon="6.54984">
        <ele>255.6</ele>
        <time>2022-02-04T16:08:53Z</time>
      </trkpt>
      <trkpt lat="43.30134" lon="6.54984">
        <ele>256</ele>
        <time>2022-02-04T16:08:54Z</time>
      </trkpt>
      <trkpt lat="43.30136" lon="6.54984">
        <ele>257</ele>
        <time>2022-02-04T16:08:55Z</time>
      </trkpt>
      <trkpt lat="43.30138" lon="6.54984">
        <ele>258</ele>
        <time>2022-02-04T16:08:56Z</time>
      </trkpt>
      <trkpt lat="43.3014" lon="6.54984">
        <ele>258.6</ele>
        <time>2022-02-04T16:08:57Z</time>
      </trkpt>
      <trkpt lat="43.30143" lon="6.54985">
        <ele>259</ele>
        <time>2022-02-04T16:08:58Z</time>
      </trkpt>
      <trkpt lat="43.30145" lon="6.54986">
        <ele>259.8</ele>
        <time>2022-02-04T16:08:59Z</time>
      </trkpt>
      <trkpt lat="43.30147" lon="6.54986">
        <ele>260.8</ele>
        <time>2022-02-04T16:09:00Z</time>
      </trkpt>
      <trkpt lat="43.30149" lon="6.54987">
        <ele>261.6</ele>
        <time>2022-02-04T16:09:01Z</time>
      </trkpt>
      <trkpt lat="43.30152" lon="6.54987">
        <ele>262.6</ele>
        <time>2022-02-04T16:09:02Z</time>
      </trkpt>
      <trkpt lat="43.30154" lon="6.54988">
        <ele>263.2</ele>
        <time>2022-02-04T16:09:03Z</time>
      </trkpt>
      <trkpt lat="43.30156" lon="6.54988">
        <ele>263.6</ele>
        <time>2022-02-04T16:09:04Z</time>
      </trkpt>
      <trkpt lat="43.30158" lon="6.54989">
        <ele>264.4</ele>
        <time>2022-02-04T16:09:05Z</time>
      </trkpt>
      <trkpt lat="43.30159" lon="6.54989">
        <ele>264.8</ele>
        <time>2022-02-04T16:09:06Z</time>
      </trkpt>
      <trkpt lat="43.3016" lon="6.54988">
        <ele>265.4</ele>
        <time>2022-02-04T16:09:07Z</time>
      </trkpt>
      <trkpt lat="43.30162" lon="6.54988">
        <ele>265.8</ele>
        <time>2022-02-04T16:09:08Z</time>
      </trkpt>
      <trkpt lat="43.30163" lon="6.54988">
        <ele>266</ele>
        <time>2022-02-04T16:09:09Z</time>
      </trkpt>
      <trkpt lat="43.30164" lon="6.54986">
        <ele>266.2</ele>
        <time>2022-02-04T16:09:10Z</time>
      </trkpt>
      <trkpt lat="43.30165" lon="6.54984">
        <ele>266.4</ele>
        <time>2022-02-04T16:09:11Z</time>
      </trkpt>
      <trkpt lat="43.30165" lon="6.54981">
        <ele>266.6</ele>
        <time>2022-02-04T16:09:12Z</time>
      </trkpt>
      <trkpt lat="43.30165" lon="6.54976">
        <ele>266.6</ele>
        <time>2022-02-04T16:09:13Z</time>
      </trkpt>
      <trkpt lat="43.30166" lon="6.54972">
        <ele>266.6</ele>
        <time>2022-02-04T16:09:14Z</time>
      </trkpt>
      <trkpt lat="43.30166" lon="6.54967">
        <ele>266.6</ele>
        <time>2022-02-04T16:09:15Z</time>
      </trkpt>
      <trkpt lat="43.30166" lon="6.54961">
        <ele>266.2</ele>
        <time>2022-02-04T16:09:16Z</time>
      </trkpt>
      <trkpt lat="43.30167" lon="6.54955">
        <ele>266.2</ele>
        <time>2022-02-04T16:09:17Z</time>
      </trkpt>
      <trkpt lat="43.30167" lon="6.54949">
        <ele>266</ele>
        <time>2022-02-04T16:09:18Z</time>
      </trkpt>
      <trkpt lat="43.30168" lon="6.54942">
        <ele>265.8</ele>
        <time>2022-02-04T16:09:19Z</time>
      </trkpt>
      <trkpt lat="43.30168" lon="6.54936">
        <ele>265.4</ele>
        <time>2022-02-04T16:09:20Z</time>
      </trkpt>
      <trkpt lat="43.30168" lon="6.54929">
        <ele>265.2</ele>
        <time>2022-02-04T16:09:21Z</time>
      </trkpt>
      <trkpt lat="43.30167" lon="6.54919">
        <ele>265</ele>
        <time>2022-02-04T16:09:22Z</time>
      </trkpt>
      <trkpt lat="43.30166" lon="6.54911">
        <ele>264.4</ele>
        <time>2022-02-04T16:09:23Z</time>
      </trkpt>
      <trkpt lat="43.30166" lon="6.54903">
        <ele>264</ele>
        <time>2022-02-04T16:09:24Z</time>
      </trkpt>
      <trkpt lat="43.30165" lon="6.54896">
        <ele>263.8</ele>
        <time>2022-02-04T16:09:25Z</time>
      </trkpt>
      <trkpt lat="43.30164" lon="6.5489">
        <ele>263.6</ele>
        <time>2022-02-04T16:09:26Z</time>
      </trkpt>
      <trkpt lat="43.30164" lon="6.54885">
        <ele>263.8</ele>
        <time>2022-02-04T16:09:27Z</time>
      </trkpt>
      <trkpt lat="43.30163" lon="6.5488">
        <ele>263.8</ele>
        <time>2022-02-04T16:09:28Z</time>
      </trkpt>
      <trkpt lat="43.30163" lon="6.54874">
        <ele>264.2</ele>
        <time>2022-02-04T16:09:29Z</time>
      </trkpt>
      <trkpt lat="43.30162" lon="6.54869">
        <ele>264.4</ele>
        <time>2022-02-04T16:09:30Z</time>
      </trkpt>
      <trkpt lat="43.30162" lon="6.54864">
        <ele>265.2</ele>
        <time>2022-02-04T16:09:31Z</time>
      </trkpt>
      <trkpt lat="43.30161" lon="6.54858">
        <ele>265.8</ele>
        <time>2022-02-04T16:09:32Z</time>
      </trkpt>
      <trkpt lat="43.3016" lon="6.54853">
        <ele>266.2</ele>
        <time>2022-02-04T16:09:33Z</time>
      </trkpt>
      <trkpt lat="43.30159" lon="6.54848">
        <ele>267.2</ele>
        <time>2022-02-04T16:09:34Z</time>
      </trkpt>
      <trkpt lat="43.30158" lon="6.54843">
        <ele>268.2</ele>
        <time>2022-02-04T16:09:35Z</time>
      </trkpt>
      <trkpt lat="43.30158" lon="6.54839">
        <ele>268.8</ele>
        <time>2022-02-04T16:09:36Z</time>
      </trkpt>
      <trkpt lat="43.30157" lon="6.54834">
        <ele>269</ele>
        <time>2022-02-04T16:09:37Z</time>
      </trkpt>
      <trkpt lat="43.30157" lon="6.54829">
        <ele>269.8</ele>
        <time>2022-02-04T16:09:38Z</time>
      </trkpt>
      <trkpt lat="43.30157" lon="6.54823">
        <ele>270.2</ele>
        <time>2022-02-04T16:09:39Z</time>
      </trkpt>
      <trkpt lat="43.30158" lon="6.54817">
        <ele>270.6</ele>
        <time>2022-02-04T16:09:40Z</time>
      </trkpt>
      <trkpt lat="43.30158" lon="6.54812">
        <ele>271</ele>
        <time>2022-02-04T16:09:41Z</time>
      </trkpt>
      <trkpt lat="43.30159" lon="6.54807">
        <ele>271.2</ele>
        <time>2022-02-04T16:09:42Z</time>
      </trkpt>
      <trkpt lat="43.3016" lon="6.54803">
        <ele>271.6</ele>
        <time>2022-02-04T16:09:43Z</time>
      </trkpt>
      <trkpt lat="43.30161" lon="6.54798">
        <ele>271.6</ele>
        <time>2022-02-04T16:09:44Z</time>
      </trkpt>
      <trkpt lat="43.30162" lon="6.54794">
        <ele>271.8</ele>
        <time>2022-02-04T16:09:45Z</time>
      </trkpt>
      <trkpt lat="43.30162" lon="6.54789">
        <ele>271.8</ele>
        <time>2022-02-04T16:09:46Z</time>
      </trkpt>
      <trkpt lat="43.30162" lon="6.54784">
        <ele>272</ele>
        <time>2022-02-04T16:09:47Z</time>
      </trkpt>
      <trkpt lat="43.30163" lon="6.54778">
        <ele>272.2</ele>
        <time>2022-02-04T16:09:48Z</time>
      </trkpt>
      <trkpt lat="43.30163" lon="6.54772">
        <ele>272.2</ele>
        <time>2022-02-04T16:09:49Z</time>
      </trkpt>
      <trkpt lat="43.30164" lon="6.54767">
        <ele>272.2</ele>
        <time>2022-02-04T16:09:50Z</time>
      </trkpt>
      <trkpt lat="43.30165" lon="6.5476">
        <ele>272.2</ele>
        <time>2022-02-04T16:09:51Z</time>
      </trkpt>
      <trkpt lat="43.30166" lon="6.54754">
        <ele>272.2</ele>
        <time>2022-02-04T16:09:52Z</time>
      </trkpt>
      <trkpt lat="43.30167" lon="6.54748">
        <ele>272.2</ele>
        <time>2022-02-04T16:09:53Z</time>
      </trkpt>
      <trkpt lat="43.30168" lon="6.54742">
        <ele>272.2</ele>
        <time>2022-02-04T16:09:54Z</time>
      </trkpt>
      <trkpt lat="43.3017" lon="6.54737">
        <ele>272.2</ele>
        <time>2022-02-04T16:09:55Z</time>
      </trkpt>
      <trkpt lat="43.30171" lon="6.54732">
        <ele>272.2</ele>
        <time>2022-02-04T16:09:56Z</time>
      </trkpt>
      <trkpt lat="43.30173" lon="6.54727">
        <ele>272.4</ele>
        <time>2022-02-04T16:09:57Z</time>
      </trkpt>
      <trkpt lat="43.30176" lon="6.54722">
        <ele>272.6</ele>
        <time>2022-02-04T16:09:58Z</time>
      </trkpt>
      <trkpt lat="43.30178" lon="6.54718">
        <ele>273</ele>
        <time>2022-02-04T16:09:59Z</time>
      </trkpt>
      <trkpt lat="43.30181" lon="6.54714">
        <ele>273.2</ele>
        <time>2022-02-04T16:10:00Z</time>
      </trkpt>
      <trkpt lat="43.30184" lon="6.5471">
        <ele>274</ele>
        <time>2022-02-04T16:10:01Z</time>
      </trkpt>
      <trkpt lat="43.30186" lon="6.54707">
        <ele>274.4</ele>
        <time>2022-02-04T16:10:02Z</time>
      </trkpt>
      <trkpt lat="43.30189" lon="6.54703">
        <ele>275.2</ele>
        <time>2022-02-04T16:10:03Z</time>
      </trkpt>
      <trkpt lat="43.30191" lon="6.547">
        <ele>276.4</ele>
        <time>2022-02-04T16:10:04Z</time>
      </trkpt>
      <trkpt lat="43.30193" lon="6.54697">
        <ele>277</ele>
        <time>2022-02-04T16:10:05Z</time>
      </trkpt>
      <trkpt lat="43.30195" lon="6.54694">
        <ele>277.4</ele>
        <time>2022-02-04T16:10:06Z</time>
      </trkpt>
      <trkpt lat="43.30198" lon="6.54693">
        <ele>278.4</ele>
        <time>2022-02-04T16:10:07Z</time>
      </trkpt>
      <trkpt lat="43.30201" lon="6.54691">
        <ele>279</ele>
        <time>2022-02-04T16:10:08Z</time>
      </trkpt>
      <trkpt lat="43.30204" lon="6.5469">
        <ele>279.4</ele>
        <time>2022-02-04T16:10:09Z</time>
      </trkpt>
      <trkpt lat="43.30207" lon="6.5469">
        <ele>279.6</ele>
        <time>2022-02-04T16:10:10Z</time>
      </trkpt>
      <trkpt lat="43.30211" lon="6.54689">
        <ele>279.8</ele>
        <time>2022-02-04T16:10:11Z</time>
      </trkpt>
      <trkpt lat="43.30214" lon="6.54688">
        <ele>280</ele>
        <time>2022-02-04T16:10:12Z</time>
      </trkpt>
      <trkpt lat="43.30218" lon="6.54687">
        <ele>280.4</ele>
        <time>2022-02-04T16:10:13Z</time>
      </trkpt>
      <trkpt lat="43.30221" lon="6.54687">
        <ele>280.8</ele>
        <time>2022-02-04T16:10:14Z</time>
      </trkpt>
      <trkpt lat="43.30224" lon="6.54687">
        <ele>281.4</ele>
        <time>2022-02-04T16:10:15Z</time>
      </trkpt>
      <trkpt lat="43.30227" lon="6.54686">
        <ele>282.2</ele>
        <time>2022-02-04T16:10:16Z</time>
      </trkpt>
      <trkpt lat="43.3023" lon="6.54686">
        <ele>282.6</ele>
        <time>2022-02-04T16:10:17Z</time>
      </trkpt>
      <trkpt lat="43.30233" lon="6.54684">
        <ele>283</ele>
        <time>2022-02-04T16:10:18Z</time>
      </trkpt>
      <trkpt lat="43.30235" lon="6.54683">
        <ele>283.2</ele>
        <time>2022-02-04T16:10:19Z</time>
      </trkpt>
      <trkpt lat="43.30238" lon="6.54682">
        <ele>284</ele>
        <time>2022-02-04T16:10:20Z</time>
      </trkpt>
      <trkpt lat="43.3024" lon="6.5468">
        <ele>284.6</ele>
        <time>2022-02-04T16:10:21Z</time>
      </trkpt>
      <trkpt lat="43.30243" lon="6.54678">
        <ele>285</ele>
        <time>2022-02-04T16:10:22Z</time>
      </trkpt>
      <trkpt lat="43.30245" lon="6.54677">
        <ele>285.8</ele>
        <time>2022-02-04T16:10:23Z</time>
      </trkpt>
      <trkpt lat="43.30248" lon="6.54675">
        <ele>286.6</ele>
        <time>2022-02-04T16:10:24Z</time>
      </trkpt>
      <trkpt lat="43.3025" lon="6.54674">
        <ele>287.6</ele>
        <time>2022-02-04T16:10:25Z</time>
      </trkpt>
      <trkpt lat="43.30252" lon="6.54674">
        <ele>288.4</ele>
        <time>2022-02-04T16:10:26Z</time>
      </trkpt>
      <trkpt lat="43.30255" lon="6.54673">
        <ele>288.8</ele>
        <time>2022-02-04T16:10:27Z</time>
      </trkpt>
      <trkpt lat="43.30259" lon="6.54673">
        <ele>289.2</ele>
        <time>2022-02-04T16:10:28Z</time>
      </trkpt>
      <trkpt lat="43.30262" lon="6.54672">
        <ele>289.4</ele>
        <time>2022-02-04T16:10:29Z</time>
      </trkpt>
      <trkpt lat="43.30265" lon="6.54672">
        <ele>289.8</ele>
        <time>2022-02-04T16:10:30Z</time>
      </trkpt>
      <trkpt lat="43.30268" lon="6.54672">
        <ele>290.4</ele>
        <time>2022-02-04T16:10:31Z</time>
      </trkpt>
      <trkpt lat="43.30271" lon="6.54671">
        <ele>291</ele>
        <time>2022-02-04T16:10:32Z</time>
      </trkpt>
      <trkpt lat="43.30274" lon="6.54671">
        <ele>291.4</ele>
        <time>2022-02-04T16:10:33Z</time>
      </trkpt>
      <trkpt lat="43.30277" lon="6.54671">
        <ele>292.4</ele>
        <time>2022-02-04T16:10:34Z</time>
      </trkpt>
      <trkpt lat="43.3028" lon="6.54671">
        <ele>292.8</ele>
        <time>2022-02-04T16:10:35Z</time>
      </trkpt>
      <trkpt lat="43.30283" lon="6.54671">
        <ele>293.6</ele>
        <time>2022-02-04T16:10:36Z</time>
      </trkpt>
      <trkpt lat="43.30285" lon="6.5467">
        <ele>294.2</ele>
        <time>2022-02-04T16:10:37Z</time>
      </trkpt>
      <trkpt lat="43.30288" lon="6.54668">
        <ele>295.2</ele>
        <time>2022-02-04T16:10:38Z</time>
      </trkpt>
      <trkpt lat="43.3029" lon="6.54667">
        <ele>296</ele>
        <time>2022-02-04T16:10:39Z</time>
      </trkpt>
      <trkpt lat="43.30293" lon="6.54666">
        <ele>296.8</ele>
        <time>2022-02-04T16:10:40Z</time>
      </trkpt>
      <trkpt lat="43.30295" lon="6.54664">
        <ele>297.4</ele>
        <time>2022-02-04T16:10:41Z</time>
      </trkpt>
      <trkpt lat="43.30298" lon="6.54662">
        <ele>298.2</ele>
        <time>2022-02-04T16:10:42Z</time>
      </trkpt>
      <trkpt lat="43.303" lon="6.5466">
        <ele>299</ele>
        <time>2022-02-04T16:10:43Z</time>
      </trkpt>
      <trkpt lat="43.30302" lon="6.54657">
        <ele>299.4</ele>
        <time>2022-02-04T16:10:44Z</time>
      </trkpt>
      <trkpt lat="43.30305" lon="6.54654">
        <ele>299.6</ele>
        <time>2022-02-04T16:10:45Z</time>
      </trkpt>
      <trkpt lat="43.30307" lon="6.54651">
        <ele>300</ele>
        <time>2022-02-04T16:10:46Z</time>
      </trkpt>
      <trkpt lat="43.30309" lon="6.54648">
        <ele>300.2</ele>
        <time>2022-02-04T16:10:47Z</time>
      </trkpt>
      <trkpt lat="43.30311" lon="6.54644">
        <ele>300.4</ele>
        <time>2022-02-04T16:10:48Z</time>
      </trkpt>
      <trkpt lat="43.30312" lon="6.54641">
        <ele>300.6</ele>
        <time>2022-02-04T16:10:49Z</time>
      </trkpt>
      <trkpt lat="43.30313" lon="6.54637">
        <ele>300.8</ele>
        <time>2022-02-04T16:10:50Z</time>
      </trkpt>
      <trkpt lat="43.30315" lon="6.54633">
        <ele>300.8</ele>
        <time>2022-02-04T16:10:51Z</time>
      </trkpt>
      <trkpt lat="43.30316" lon="6.54629">
        <ele>301</ele>
        <time>2022-02-04T16:10:52Z</time>
      </trkpt>
      <trkpt lat="43.30318" lon="6.54625">
        <ele>301.4</ele>
        <time>2022-02-04T16:10:53Z</time>
      </trkpt>
      <trkpt lat="43.3032" lon="6.54621">
        <ele>301.6</ele>
        <time>2022-02-04T16:10:54Z</time>
      </trkpt>
      <trkpt lat="43.30321" lon="6.54617">
        <ele>302.2</ele>
        <time>2022-02-04T16:10:55Z</time>
      </trkpt>
      <trkpt lat="43.30323" lon="6.54614">
        <ele>302.4</ele>
        <time>2022-02-04T16:10:56Z</time>
      </trkpt>
      <trkpt lat="43.30325" lon="6.5461">
        <ele>302.8</ele>
        <time>2022-02-04T16:10:57Z</time>
      </trkpt>
      <trkpt lat="43.30326" lon="6.54607">
        <ele>303.2</ele>
        <time>2022-02-04T16:10:58Z</time>
      </trkpt>
      <trkpt lat="43.30327" lon="6.54603">
        <ele>303.6</ele>
        <time>2022-02-04T16:10:59Z</time>
      </trkpt>
      <trkpt lat="43.30329" lon="6.546">
        <ele>303.8</ele>
        <time>2022-02-04T16:11:00Z</time>
      </trkpt>
      <trkpt lat="43.3033" lon="6.54597">
        <ele>304.2</ele>
        <time>2022-02-04T16:11:01Z</time>
      </trkpt>
      <trkpt lat="43.30332" lon="6.54595">
        <ele>304.6</ele>
        <time>2022-02-04T16:11:02Z</time>
      </trkpt>
      <trkpt lat="43.30333" lon="6.54592">
        <ele>305.2</ele>
        <time>2022-02-04T16:11:03Z</time>
      </trkpt>
      <trkpt lat="43.30334" lon="6.54589">
        <ele>305.4</ele>
        <time>2022-02-04T16:11:04Z</time>
      </trkpt>
      <trkpt lat="43.30335" lon="6.54588">
        <ele>305.6</ele>
        <time>2022-02-04T16:11:05Z</time>
      </trkpt>
      <trkpt lat="43.30335" lon="6.54587">
        <ele>306</ele>
        <time>2022-02-04T16:11:06Z</time>
      </trkpt>
      <trkpt lat="43.30335" lon="6.54587">
        <ele>306.4</ele>
        <time>2022-02-04T16:11:07Z</time>
      </trkpt>
      <trkpt lat="43.30335" lon="6.54587">
        <ele>306.6</ele>
        <time>2022-02-04T16:11:08Z</time>
      </trkpt>
      <trkpt lat="43.30335" lon="6.54587">
        <ele>306.6</ele>
        <time>2022-02-04T16:11:09Z</time>
      </trkpt>
      <trkpt lat="43.30335" lon="6.54587">
        <ele>306.6</ele>
        <time>2022-02-04T16:11:10Z</time>
      </trkpt>
      <trkpt lat="43.30335" lon="6.54587">
        <ele>306.8</ele>
        <time>2022-02-04T16:11:11Z</time>
      </trkpt>
      <trkpt lat="43.30335" lon="6.54587">
        <ele>306.8</ele>
        <time>2022-02-04T16:11:12Z</time>
      </trkpt>
      <trkpt lat="43.30334" lon="6.54586">
        <ele>306.8</ele>
        <time>2022-02-04T16:11:13Z</time>
      </trkpt>
      <trkpt lat="43.30335" lon="6.54585">
        <ele>306.8</ele>
        <time>2022-02-04T16:11:14Z</time>
      </trkpt>
      <trkpt lat="43.30336" lon="6.54584">
        <ele>306.8</ele>
        <time>2022-02-04T16:11:15Z</time>
      </trkpt>
      <trkpt lat="43.30337" lon="6.54582">
        <ele>306.6</ele>
        <time>2022-02-04T16:11:16Z</time>
      </trkpt>
      <trkpt lat="43.30338" lon="6.54579">
        <ele>306.8</ele>
        <time>2022-02-04T16:11:17Z</time>
      </trkpt>
      <trkpt lat="43.30339" lon="6.54577">
        <ele>306.8</ele>
        <time>2022-02-04T16:11:18Z</time>
      </trkpt>
      <trkpt lat="43.30341" lon="6.54573">
        <ele>307.2</ele>
        <time>2022-02-04T16:11:19Z</time>
      </trkpt>
      <trkpt lat="43.30342" lon="6.5457">
        <ele>307.4</ele>
        <time>2022-02-04T16:11:20Z</time>
      </trkpt>
      <trkpt lat="43.30343" lon="6.54567">
        <ele>307.6</ele>
        <time>2022-02-04T16:11:21Z</time>
      </trkpt>
      <trkpt lat="43.30344" lon="6.54564">
        <ele>307.6</ele>
        <time>2022-02-04T16:11:22Z</time>
      </trkpt>
      <trkpt lat="43.30345" lon="6.54561">
        <ele>307.6</ele>
        <time>2022-02-04T16:11:23Z</time>
      </trkpt>
      <trkpt lat="43.30346" lon="6.54556">
        <ele>307.8</ele>
        <time>2022-02-04T16:11:24Z</time>
      </trkpt>
      <trkpt lat="43.30347" lon="6.54553">
        <ele>308.2</ele>
        <time>2022-02-04T16:11:25Z</time>
      </trkpt>
      <trkpt lat="43.30348" lon="6.54549">
        <ele>309</ele>
        <time>2022-02-04T16:11:26Z</time>
      </trkpt>
      <trkpt lat="43.30349" lon="6.54546">
        <ele>309.6</ele>
        <time>2022-02-04T16:11:27Z</time>
      </trkpt>
      <trkpt lat="43.30351" lon="6.54541">
        <ele>310</ele>
        <time>2022-02-04T16:11:28Z</time>
      </trkpt>
      <trkpt lat="43.30352" lon="6.54538">
        <ele>310.4</ele>
        <time>2022-02-04T16:11:29Z</time>
      </trkpt>
      <trkpt lat="43.30355" lon="6.54534">
        <ele>310.6</ele>
        <time>2022-02-04T16:11:30Z</time>
      </trkpt>
      <trkpt lat="43.30357" lon="6.54531">
        <ele>310.8</ele>
        <time>2022-02-04T16:11:31Z</time>
      </trkpt>
      <trkpt lat="43.3036" lon="6.54528">
        <ele>311</ele>
        <time>2022-02-04T16:11:32Z</time>
      </trkpt>
      <trkpt lat="43.30363" lon="6.54523">
        <ele>311.2</ele>
        <time>2022-02-04T16:11:33Z</time>
      </trkpt>
      <trkpt lat="43.30366" lon="6.5452">
        <ele>311.4</ele>
        <time>2022-02-04T16:11:34Z</time>
      </trkpt>
      <trkpt lat="43.30368" lon="6.54516">
        <ele>311.6</ele>
        <time>2022-02-04T16:11:35Z</time>
      </trkpt>
      <trkpt lat="43.30369" lon="6.54513">
        <ele>311.8</ele>
        <time>2022-02-04T16:11:36Z</time>
      </trkpt>
      <trkpt lat="43.3037" lon="6.54511">
        <ele>312</ele>
        <time>2022-02-04T16:11:37Z</time>
      </trkpt>
      <trkpt lat="43.3037" lon="6.54509">
        <ele>312.2</ele>
        <time>2022-02-04T16:11:38Z</time>
      </trkpt>
      <trkpt lat="43.3037" lon="6.54508">
        <ele>312.4</ele>
        <time>2022-02-04T16:11:39Z</time>
      </trkpt>
      <trkpt lat="43.3037" lon="6.54508">
        <ele>312.6</ele>
        <time>2022-02-04T16:11:40Z</time>
      </trkpt>
      <trkpt lat="43.3037" lon="6.54508">
        <ele>312.8</ele>
        <time>2022-02-04T16:11:41Z</time>
      </trkpt>
      <trkpt lat="43.3037" lon="6.54508">
        <ele>312.8</ele>
        <time>2022-02-04T16:11:42Z</time>
      </trkpt>
      <trkpt lat="43.3037" lon="6.54508">
        <ele>312.8</ele>
        <time>2022-02-04T16:11:43Z</time>
      </trkpt>
      <trkpt lat="43.3037" lon="6.54508">
        <ele>312.8</ele>
        <time>2022-02-04T16:11:44Z</time>
      </trkpt>
      <trkpt lat="43.3037" lon="6.54508">
        <ele>312.6</ele>
        <time>2022-02-04T16:11:45Z</time>
      </trkpt>
      <trkpt lat="43.3037" lon="6.54508">
        <ele>312.6</ele>
        <time>2022-02-04T16:11:46Z</time>
      </trkpt>
      <trkpt lat="43.3037" lon="6.54508">
        <ele>312.4</ele>
        <time>2022-02-04T16:11:47Z</time>
      </trkpt>
      <trkpt lat="43.3037" lon="6.54508">
        <ele>312.2</ele>
        <time>2022-02-04T16:11:48Z</time>
      </trkpt>
      <trkpt lat="43.30371" lon="6.54507">
        <ele>312.2</ele>
        <time>2022-02-04T16:11:49Z</time>
      </trkpt>
      <trkpt lat="43.30371" lon="6.54507">
        <ele>312.2</ele>
        <time>2022-02-04T16:11:50Z</time>
      </trkpt>
      <trkpt lat="43.30372" lon="6.54507">
        <ele>312.2</ele>
        <time>2022-02-04T16:11:51Z</time>
      </trkpt>
      <trkpt lat="43.30372" lon="6.54508">
        <ele>312.2</ele>
        <time>2022-02-04T16:11:52Z</time>
      </trkpt>
      <trkpt lat="43.30371" lon="6.5451">
        <ele>312.2</ele>
        <time>2022-02-04T16:11:53Z</time>
      </trkpt>
      <trkpt lat="43.3037" lon="6.54512">
        <ele>312.4</ele>
        <time>2022-02-04T16:11:54Z</time>
      </trkpt>
      <trkpt lat="43.30368" lon="6.54514">
        <ele>312.4</ele>
        <time>2022-02-04T16:11:55Z</time>
      </trkpt>
      <trkpt lat="43.30367" lon="6.54517">
        <ele>312.6</ele>
        <time>2022-02-04T16:11:56Z</time>
      </trkpt>
      <trkpt lat="43.30366" lon="6.54518">
        <ele>312.6</ele>
        <time>2022-02-04T16:11:57Z</time>
      </trkpt>
      <trkpt lat="43.30365" lon="6.54521">
        <ele>312.6</ele>
        <time>2022-02-04T16:11:58Z</time>
      </trkpt>
      <trkpt lat="43.30364" lon="6.54524">
        <ele>312.6</ele>
        <time>2022-02-04T16:11:59Z</time>
      </trkpt>
      <trkpt lat="43.30362" lon="6.54527">
        <ele>312.4</ele>
        <time>2022-02-04T16:12:00Z</time>
      </trkpt>
      <trkpt lat="43.30358" lon="6.54531">
        <ele>312</ele>
        <time>2022-02-04T16:12:01Z</time>
      </trkpt>
      <trkpt lat="43.30356" lon="6.54535">
        <ele>311.4</ele>
        <time>2022-02-04T16:12:02Z</time>
      </trkpt>
      <trkpt lat="43.30354" lon="6.54538">
        <ele>311.2</ele>
        <time>2022-02-04T16:12:03Z</time>
      </trkpt>
      <trkpt lat="43.30353" lon="6.54541">
        <ele>311</ele>
        <time>2022-02-04T16:12:04Z</time>
      </trkpt>
      <trkpt lat="43.30352" lon="6.54544">
        <ele>310.8</ele>
        <time>2022-02-04T16:12:05Z</time>
      </trkpt>
      <trkpt lat="43.3035" lon="6.54549">
        <ele>310.8</ele>
        <time>2022-02-04T16:12:06Z</time>
      </trkpt>
      <trkpt lat="43.30349" lon="6.54554">
        <ele>310.6</ele>
        <time>2022-02-04T16:12:07Z</time>
      </trkpt>
      <trkpt lat="43.30347" lon="6.5456">
        <ele>310.6</ele>
        <time>2022-02-04T16:12:08Z</time>
      </trkpt>
      <trkpt lat="43.30346" lon="6.54567">
        <ele>310</ele>
        <time>2022-02-04T16:12:09Z</time>
      </trkpt>
      <trkpt lat="43.30344" lon="6.54573">
        <ele>309.2</ele>
        <time>2022-02-04T16:12:10Z</time>
      </trkpt>
      <trkpt lat="43.30341" lon="6.54579">
        <ele>308.6</ele>
        <time>2022-02-04T16:12:11Z</time>
      </trkpt>
      <trkpt lat="43.30339" lon="6.54584">
        <ele>308</ele>
        <time>2022-02-04T16:12:12Z</time>
      </trkpt>
      <trkpt lat="43.30336" lon="6.54589">
        <ele>307.2</ele>
        <time>2022-02-04T16:12:13Z</time>
      </trkpt>
      <trkpt lat="43.30332" lon="6.5459">
        <ele>306</ele>
        <time>2022-02-04T16:12:14Z</time>
      </trkpt>
      <trkpt lat="43.3033" lon="6.54589">
        <ele>306</ele>
        <time>2022-02-04T16:12:15Z</time>
      </trkpt>
      <trkpt lat="43.30328" lon="6.54585">
        <ele>306</ele>
        <time>2022-02-04T16:12:16Z</time>
      </trkpt>
      <trkpt lat="43.30329" lon="6.5458">
        <ele>306</ele>
        <time>2022-02-04T16:12:17Z</time>
      </trkpt>
      <trkpt lat="43.30329" lon="6.54575">
        <ele>306</ele>
        <time>2022-02-04T16:12:18Z</time>
      </trkpt>
      <trkpt lat="43.30329" lon="6.54571">
        <ele>306</ele>
        <time>2022-02-04T16:12:19Z</time>
      </trkpt>
      <trkpt lat="43.30328" lon="6.54566">
        <ele>306.2</ele>
        <time>2022-02-04T16:12:20Z</time>
      </trkpt>
      <trkpt lat="43.30327" lon="6.54562">
        <ele>306.4</ele>
        <time>2022-02-04T16:12:21Z</time>
      </trkpt>
      <trkpt lat="43.30326" lon="6.54557">
        <ele>306.8</ele>
        <time>2022-02-04T16:12:22Z</time>
      </trkpt>
      <trkpt lat="43.30325" lon="6.54553">
        <ele>307.2</ele>
        <time>2022-02-04T16:12:23Z</time>
      </trkpt>
      <trkpt lat="43.30324" lon="6.54549">
        <ele>307.6</ele>
        <time>2022-02-04T16:12:24Z</time>
      </trkpt>
      <trkpt lat="43.30321" lon="6.54545">
        <ele>307.8</ele>
        <time>2022-02-04T16:12:25Z</time>
      </trkpt>
      <trkpt lat="43.30319" lon="6.54542">
        <ele>308.4</ele>
        <time>2022-02-04T16:12:26Z</time>
      </trkpt>
      <trkpt lat="43.30316" lon="6.54539">
        <ele>308.6</ele>
        <time>2022-02-04T16:12:27Z</time>
      </trkpt>
      <trkpt lat="43.30312" lon="6.54537">
        <ele>308.8</ele>
        <time>2022-02-04T16:12:28Z</time>
      </trkpt>
      <trkpt lat="43.30309" lon="6.54534">
        <ele>309</ele>
        <time>2022-02-04T16:12:29Z</time>
      </trkpt>
      <trkpt lat="43.30306" lon="6.54532">
        <ele>309.2</ele>
        <time>2022-02-04T16:12:30Z</time>
      </trkpt>
      <trkpt lat="43.30303" lon="6.54529">
        <ele>309.8</ele>
        <time>2022-02-04T16:12:31Z</time>
      </trkpt>
      <trkpt lat="43.30301" lon="6.54527">
        <ele>310.4</ele>
        <time>2022-02-04T16:12:32Z</time>
      </trkpt>
      <trkpt lat="43.30297" lon="6.54525">
        <ele>310.8</ele>
        <time>2022-02-04T16:12:33Z</time>
      </trkpt>
      <trkpt lat="43.30295" lon="6.54523">
        <ele>311.2</ele>
        <time>2022-02-04T16:12:34Z</time>
      </trkpt>
      <trkpt lat="43.30292" lon="6.54522">
        <ele>311.6</ele>
        <time>2022-02-04T16:12:35Z</time>
      </trkpt>
      <trkpt lat="43.30289" lon="6.54521">
        <ele>312.2</ele>
        <time>2022-02-04T16:12:36Z</time>
      </trkpt>
      <trkpt lat="43.30287" lon="6.5452">
        <ele>312.8</ele>
        <time>2022-02-04T16:12:37Z</time>
      </trkpt>
      <trkpt lat="43.30283" lon="6.54518">
        <ele>313</ele>
        <time>2022-02-04T16:12:38Z</time>
      </trkpt>
      <trkpt lat="43.3028" lon="6.54517">
        <ele>313.4</ele>
        <time>2022-02-04T16:12:39Z</time>
      </trkpt>
      <trkpt lat="43.30277" lon="6.54516">
        <ele>313.6</ele>
        <time>2022-02-04T16:12:40Z</time>
      </trkpt>
      <trkpt lat="43.30274" lon="6.54514">
        <ele>313.8</ele>
        <time>2022-02-04T16:12:41Z</time>
      </trkpt>
      <trkpt lat="43.30272" lon="6.54513">
        <ele>313.8</ele>
        <time>2022-02-04T16:12:42Z</time>
      </trkpt>
      <trkpt lat="43.30269" lon="6.54511">
        <ele>314.4</ele>
        <time>2022-02-04T16:12:43Z</time>
      </trkpt>
      <trkpt lat="43.30265" lon="6.54508">
        <ele>315</ele>
        <time>2022-02-04T16:12:44Z</time>
      </trkpt>
      <trkpt lat="43.30262" lon="6.54506">
        <ele>315.4</ele>
        <time>2022-02-04T16:12:45Z</time>
      </trkpt>
      <trkpt lat="43.3026" lon="6.54503">
        <ele>315.8</ele>
        <time>2022-02-04T16:12:46Z</time>
      </trkpt>
      <trkpt lat="43.30257" lon="6.545">
        <ele>316.2</ele>
        <time>2022-02-04T16:12:47Z</time>
      </trkpt>
      <trkpt lat="43.30255" lon="6.54497">
        <ele>317</ele>
        <time>2022-02-04T16:12:48Z</time>
      </trkpt>
      <trkpt lat="43.30253" lon="6.54494">
        <ele>317.8</ele>
        <time>2022-02-04T16:12:49Z</time>
      </trkpt>
      <trkpt lat="43.30251" lon="6.54491">
        <ele>318.8</ele>
        <time>2022-02-04T16:12:50Z</time>
      </trkpt>
      <trkpt lat="43.3025" lon="6.54488">
        <ele>319.6</ele>
        <time>2022-02-04T16:12:51Z</time>
      </trkpt>
      <trkpt lat="43.30248" lon="6.54484">
        <ele>320.4</ele>
        <time>2022-02-04T16:12:52Z</time>
      </trkpt>
      <trkpt lat="43.30246" lon="6.5448">
        <ele>321</ele>
        <time>2022-02-04T16:12:53Z</time>
      </trkpt>
      <trkpt lat="43.30244" lon="6.54476">
        <ele>321.6</ele>
        <time>2022-02-04T16:12:54Z</time>
      </trkpt>
      <trkpt lat="43.30242" lon="6.54471">
        <ele>322</ele>
        <time>2022-02-04T16:12:55Z</time>
      </trkpt>
      <trkpt lat="43.30241" lon="6.54467">
        <ele>322.4</ele>
        <time>2022-02-04T16:12:56Z</time>
      </trkpt>
      <trkpt lat="43.30239" lon="6.54464">
        <ele>322.8</ele>
        <time>2022-02-04T16:12:57Z</time>
      </trkpt>
      <trkpt lat="43.30238" lon="6.54458">
        <ele>323.2</ele>
        <time>2022-02-04T16:12:58Z</time>
      </trkpt>
      <trkpt lat="43.30236" lon="6.54454">
        <ele>323.4</ele>
        <time>2022-02-04T16:12:59Z</time>
      </trkpt>
      <trkpt lat="43.30234" lon="6.54449">
        <ele>323.6</ele>
        <time>2022-02-04T16:13:00Z</time>
      </trkpt>
      <trkpt lat="43.30233" lon="6.54445">
        <ele>324.2</ele>
        <time>2022-02-04T16:13:01Z</time>
      </trkpt>
      <trkpt lat="43.30233" lon="6.54441">
        <ele>324.6</ele>
        <time>2022-02-04T16:13:02Z</time>
      </trkpt>
      <trkpt lat="43.30232" lon="6.54436">
        <ele>325.2</ele>
        <time>2022-02-04T16:13:03Z</time>
      </trkpt>
      <trkpt lat="43.30231" lon="6.54431">
        <ele>326</ele>
        <time>2022-02-04T16:13:04Z</time>
      </trkpt>
      <trkpt lat="43.30231" lon="6.54427">
        <ele>326.6</ele>
        <time>2022-02-04T16:13:05Z</time>
      </trkpt>
      <trkpt lat="43.30231" lon="6.54421">
        <ele>327</ele>
        <time>2022-02-04T16:13:06Z</time>
      </trkpt>
      <trkpt lat="43.30231" lon="6.54417">
        <ele>327.2</ele>
        <time>2022-02-04T16:13:07Z</time>
      </trkpt>
      <trkpt lat="43.30232" lon="6.54411">
        <ele>327.4</ele>
        <time>2022-02-04T16:13:08Z</time>
      </trkpt>
      <trkpt lat="43.30232" lon="6.54405">
        <ele>327.6</ele>
        <time>2022-02-04T16:13:09Z</time>
      </trkpt>
      <trkpt lat="43.30234" lon="6.544">
        <ele>327.8</ele>
        <time>2022-02-04T16:13:10Z</time>
      </trkpt>
      <trkpt lat="43.30235" lon="6.54397">
        <ele>327.8</ele>
        <time>2022-02-04T16:13:11Z</time>
      </trkpt>
      <trkpt lat="43.30237" lon="6.54391">
        <ele>328.2</ele>
        <time>2022-02-04T16:13:12Z</time>
      </trkpt>
      <trkpt lat="43.30239" lon="6.54387">
        <ele>328.6</ele>
        <time>2022-02-04T16:13:13Z</time>
      </trkpt>
      <trkpt lat="43.3024" lon="6.54383">
        <ele>328.8</ele>
        <time>2022-02-04T16:13:14Z</time>
      </trkpt>
      <trkpt lat="43.30242" lon="6.54379">
        <ele>329.2</ele>
        <time>2022-02-04T16:13:15Z</time>
      </trkpt>
      <trkpt lat="43.30244" lon="6.54374">
        <ele>329.6</ele>
        <time>2022-02-04T16:13:16Z</time>
      </trkpt>
      <trkpt lat="43.30245" lon="6.5437">
        <ele>330</ele>
        <time>2022-02-04T16:13:17Z</time>
      </trkpt>
      <trkpt lat="43.30246" lon="6.54366">
        <ele>330.2</ele>
        <time>2022-02-04T16:13:18Z</time>
      </trkpt>
      <trkpt lat="43.30247" lon="6.54361">
        <ele>330.4</ele>
        <time>2022-02-04T16:13:19Z</time>
      </trkpt>
      <trkpt lat="43.30248" lon="6.54357">
        <ele>331</ele>
        <time>2022-02-04T16:13:20Z</time>
      </trkpt>
      <trkpt lat="43.30248" lon="6.54353">
        <ele>331.4</ele>
        <time>2022-02-04T16:13:21Z</time>
      </trkpt>
      <trkpt lat="43.30249" lon="6.54349">
        <ele>331.6</ele>
        <time>2022-02-04T16:13:22Z</time>
      </trkpt>
      <trkpt lat="43.3025" lon="6.54344">
        <ele>332</ele>
        <time>2022-02-04T16:13:23Z</time>
      </trkpt>
      <trkpt lat="43.30251" lon="6.5434">
        <ele>332.6</ele>
        <time>2022-02-04T16:13:24Z</time>
      </trkpt>
      <trkpt lat="43.30253" lon="6.54336">
        <ele>333.2</ele>
        <time>2022-02-04T16:13:25Z</time>
      </trkpt>
      <trkpt lat="43.30254" lon="6.54332">
        <ele>333.8</ele>
        <time>2022-02-04T16:13:26Z</time>
      </trkpt>
      <trkpt lat="43.30255" lon="6.54328">
        <ele>334</ele>
        <time>2022-02-04T16:13:27Z</time>
      </trkpt>
      <trkpt lat="43.30256" lon="6.54324">
        <ele>334.8</ele>
        <time>2022-02-04T16:13:28Z</time>
      </trkpt>
      <trkpt lat="43.30258" lon="6.54321">
        <ele>335.6</ele>
        <time>2022-02-04T16:13:29Z</time>
      </trkpt>
      <trkpt lat="43.30259" lon="6.54318">
        <ele>336.6</ele>
        <time>2022-02-04T16:13:30Z</time>
      </trkpt>
      <trkpt lat="43.30261" lon="6.54315">
        <ele>337.2</ele>
        <time>2022-02-04T16:13:31Z</time>
      </trkpt>
      <trkpt lat="43.30262" lon="6.54312">
        <ele>338</ele>
        <time>2022-02-04T16:13:32Z</time>
      </trkpt>
      <trkpt lat="43.30264" lon="6.54308">
        <ele>338.4</ele>
        <time>2022-02-04T16:13:33Z</time>
      </trkpt>
      <trkpt lat="43.30265" lon="6.54304">
        <ele>339.2</ele>
        <time>2022-02-04T16:13:34Z</time>
      </trkpt>
      <trkpt lat="43.30267" lon="6.54301">
        <ele>339.4</ele>
        <time>2022-02-04T16:13:35Z</time>
      </trkpt>
      <trkpt lat="43.30268" lon="6.54298">
        <ele>339.8</ele>
        <time>2022-02-04T16:13:36Z</time>
      </trkpt>
      <trkpt lat="43.3027" lon="6.54294">
        <ele>340</ele>
        <time>2022-02-04T16:13:37Z</time>
      </trkpt>
      <trkpt lat="43.30271" lon="6.5429">
        <ele>340.6</ele>
        <time>2022-02-04T16:13:38Z</time>
      </trkpt>
      <trkpt lat="43.30271" lon="6.54286">
        <ele>341</ele>
        <time>2022-02-04T16:13:39Z</time>
      </trkpt>
      <trkpt lat="43.30273" lon="6.54282">
        <ele>341.4</ele>
        <time>2022-02-04T16:13:40Z</time>
      </trkpt>
      <trkpt lat="43.30274" lon="6.54278">
        <ele>341.8</ele>
        <time>2022-02-04T16:13:41Z</time>
      </trkpt>
      <trkpt lat="43.30276" lon="6.54273">
        <ele>342.2</ele>
        <time>2022-02-04T16:13:42Z</time>
      </trkpt>
      <trkpt lat="43.30277" lon="6.54269">
        <ele>342.8</ele>
        <time>2022-02-04T16:13:43Z</time>
      </trkpt>
      <trkpt lat="43.30278" lon="6.54265">
        <ele>343.2</ele>
        <time>2022-02-04T16:13:44Z</time>
      </trkpt>
      <trkpt lat="43.3028" lon="6.54261">
        <ele>343.8</ele>
        <time>2022-02-04T16:13:45Z</time>
      </trkpt>
      <trkpt lat="43.30282" lon="6.54256">
        <ele>344.2</ele>
        <time>2022-02-04T16:13:46Z</time>
      </trkpt>
      <trkpt lat="43.30283" lon="6.54252">
        <ele>344.6</ele>
        <time>2022-02-04T16:13:47Z</time>
      </trkpt>
      <trkpt lat="43.30285" lon="6.54249">
        <ele>344.8</ele>
        <time>2022-02-04T16:13:48Z</time>
      </trkpt>
      <trkpt lat="43.30288" lon="6.54245">
        <ele>345.2</ele>
        <time>2022-02-04T16:13:49Z</time>
      </trkpt>
      <trkpt lat="43.3029" lon="6.5424">
        <ele>345.6</ele>
        <time>2022-02-04T16:13:50Z</time>
      </trkpt>
      <trkpt lat="43.30293" lon="6.54235">
        <ele>345.8</ele>
        <time>2022-02-04T16:13:51Z</time>
      </trkpt>
      <trkpt lat="43.30295" lon="6.54231">
        <ele>346.6</ele>
        <time>2022-02-04T16:13:52Z</time>
      </trkpt>
      <trkpt lat="43.30296" lon="6.54227">
        <ele>347</ele>
        <time>2022-02-04T16:13:53Z</time>
      </trkpt>
      <trkpt lat="43.30298" lon="6.54221">
        <ele>347.4</ele>
        <time>2022-02-04T16:13:54Z</time>
      </trkpt>
      <trkpt lat="43.30299" lon="6.54216">
        <ele>347.8</ele>
        <time>2022-02-04T16:13:55Z</time>
      </trkpt>
      <trkpt lat="43.30298" lon="6.5421">
        <ele>348</ele>
        <time>2022-02-04T16:13:56Z</time>
      </trkpt>
      <trkpt lat="43.30298" lon="6.54206">
        <ele>348.2</ele>
        <time>2022-02-04T16:13:57Z</time>
      </trkpt>
      <trkpt lat="43.30297" lon="6.54202">
        <ele>348.4</ele>
        <time>2022-02-04T16:13:58Z</time>
      </trkpt>
      <trkpt lat="43.30296" lon="6.54197">
        <ele>348.6</ele>
        <time>2022-02-04T16:13:59Z</time>
      </trkpt>
      <trkpt lat="43.30295" lon="6.54192">
        <ele>348.8</ele>
        <time>2022-02-04T16:14:00Z</time>
      </trkpt>
      <trkpt lat="43.30294" lon="6.54189">
        <ele>349.6</ele>
        <time>2022-02-04T16:14:01Z</time>
      </trkpt>
      <trkpt lat="43.30294" lon="6.54186">
        <ele>350.2</ele>
        <time>2022-02-04T16:14:02Z</time>
      </trkpt>
      <trkpt lat="43.30293" lon="6.54182">
        <ele>351</ele>
        <time>2022-02-04T16:14:03Z</time>
      </trkpt>
      <trkpt lat="43.30291" lon="6.54177">
        <ele>351.4</ele>
        <time>2022-02-04T16:14:04Z</time>
      </trkpt>
      <trkpt lat="43.3029" lon="6.54173">
        <ele>351.6</ele>
        <time>2022-02-04T16:14:05Z</time>
      </trkpt>
      <trkpt lat="43.30287" lon="6.54168">
        <ele>351.8</ele>
        <time>2022-02-04T16:14:06Z</time>
      </trkpt>
      <trkpt lat="43.30286" lon="6.54164">
        <ele>352.2</ele>
        <time>2022-02-04T16:14:07Z</time>
      </trkpt>
      <trkpt lat="43.30283" lon="6.5416">
        <ele>352.6</ele>
        <time>2022-02-04T16:14:08Z</time>
      </trkpt>
      <trkpt lat="43.30281" lon="6.54156">
        <ele>353.2</ele>
        <time>2022-02-04T16:14:09Z</time>
      </trkpt>
      <trkpt lat="43.30279" lon="6.54152">
        <ele>353.4</ele>
        <time>2022-02-04T16:14:10Z</time>
      </trkpt>
      <trkpt lat="43.30277" lon="6.54149">
        <ele>353.6</ele>
        <time>2022-02-04T16:14:11Z</time>
      </trkpt>
      <trkpt lat="43.30274" lon="6.54145">
        <ele>354.2</ele>
        <time>2022-02-04T16:14:12Z</time>
      </trkpt>
      <trkpt lat="43.30272" lon="6.54142">
        <ele>354.8</ele>
        <time>2022-02-04T16:14:13Z</time>
      </trkpt>
      <trkpt lat="43.3027" lon="6.54137">
        <ele>355.2</ele>
        <time>2022-02-04T16:14:14Z</time>
      </trkpt>
      <trkpt lat="43.30268" lon="6.54134">
        <ele>356</ele>
        <time>2022-02-04T16:14:15Z</time>
      </trkpt>
      <trkpt lat="43.30266" lon="6.5413">
        <ele>356.4</ele>
        <time>2022-02-04T16:14:16Z</time>
      </trkpt>
      <trkpt lat="43.30263" lon="6.54126">
        <ele>357.4</ele>
        <time>2022-02-04T16:14:17Z</time>
      </trkpt>
      <trkpt lat="43.30261" lon="6.54123">
        <ele>358</ele>
        <time>2022-02-04T16:14:18Z</time>
      </trkpt>
      <trkpt lat="43.30259" lon="6.54121">
        <ele>358.4</ele>
        <time>2022-02-04T16:14:19Z</time>
      </trkpt>
      <trkpt lat="43.30257" lon="6.54118">
        <ele>358.8</ele>
        <time>2022-02-04T16:14:20Z</time>
      </trkpt>
      <trkpt lat="43.30254" lon="6.54114">
        <ele>359.2</ele>
        <time>2022-02-04T16:14:21Z</time>
      </trkpt>
      <trkpt lat="43.30252" lon="6.54111">
        <ele>359.4</ele>
        <time>2022-02-04T16:14:22Z</time>
      </trkpt>
      <trkpt lat="43.3025" lon="6.54107">
        <ele>359.8</ele>
        <time>2022-02-04T16:14:23Z</time>
      </trkpt>
      <trkpt lat="43.30248" lon="6.54103">
        <ele>360</ele>
        <time>2022-02-04T16:14:24Z</time>
      </trkpt>
      <trkpt lat="43.30246" lon="6.54099">
        <ele>360.2</ele>
        <time>2022-02-04T16:14:25Z</time>
      </trkpt>
      <trkpt lat="43.30244" lon="6.54094">
        <ele>360.4</ele>
        <time>2022-02-04T16:14:26Z</time>
      </trkpt>
      <trkpt lat="43.30243" lon="6.54089">
        <ele>360.4</ele>
        <time>2022-02-04T16:14:27Z</time>
      </trkpt>
      <trkpt lat="43.30241" lon="6.54084">
        <ele>360.4</ele>
        <time>2022-02-04T16:14:28Z</time>
      </trkpt>
      <trkpt lat="43.3024" lon="6.54079">
        <ele>360.4</ele>
        <time>2022-02-04T16:14:29Z</time>
      </trkpt>
      <trkpt lat="43.30238" lon="6.54073">
        <ele>360.4</ele>
        <time>2022-02-04T16:14:30Z</time>
      </trkpt>
      <trkpt lat="43.30235" lon="6.54065">
        <ele>360.2</ele>
        <time>2022-02-04T16:14:31Z</time>
      </trkpt>
      <trkpt lat="43.30233" lon="6.54057">
        <ele>359.8</ele>
        <time>2022-02-04T16:14:32Z</time>
      </trkpt>
      <trkpt lat="43.3023" lon="6.54049">
        <ele>359</ele>
        <time>2022-02-04T16:14:33Z</time>
      </trkpt>
      <trkpt lat="43.30228" lon="6.54042">
        <ele>358.4</ele>
        <time>2022-02-04T16:14:34Z</time>
      </trkpt>
      <trkpt lat="43.30225" lon="6.54031">
        <ele>358</ele>
        <time>2022-02-04T16:14:35Z</time>
      </trkpt>
      <trkpt lat="43.30221" lon="6.5402">
        <ele>357.2</ele>
        <time>2022-02-04T16:14:36Z</time>
      </trkpt>
      <trkpt lat="43.30219" lon="6.5401">
        <ele>356.6</ele>
        <time>2022-02-04T16:14:37Z</time>
      </trkpt>
      <trkpt lat="43.30216" lon="6.54">
        <ele>356.4</ele>
        <time>2022-02-04T16:14:38Z</time>
      </trkpt>
      <trkpt lat="43.30215" lon="6.53992">
        <ele>356.2</ele>
        <time>2022-02-04T16:14:39Z</time>
      </trkpt>
      <trkpt lat="43.30214" lon="6.53986">
        <ele>356.8</ele>
        <time>2022-02-04T16:14:40Z</time>
      </trkpt>
      <trkpt lat="43.30214" lon="6.53981">
        <ele>357</ele>
        <time>2022-02-04T16:14:41Z</time>
      </trkpt>
      <trkpt lat="43.30213" lon="6.53975">
        <ele>357.2</ele>
        <time>2022-02-04T16:14:42Z</time>
      </trkpt>
      <trkpt lat="43.30212" lon="6.53969">
        <ele>357.4</ele>
        <time>2022-02-04T16:14:43Z</time>
      </trkpt>
      <trkpt lat="43.30212" lon="6.53962">
        <ele>357.6</ele>
        <time>2022-02-04T16:14:44Z</time>
      </trkpt>
      <trkpt lat="43.30211" lon="6.53956">
        <ele>357.8</ele>
        <time>2022-02-04T16:14:45Z</time>
      </trkpt>
      <trkpt lat="43.3021" lon="6.5395">
        <ele>358</ele>
        <time>2022-02-04T16:14:46Z</time>
      </trkpt>
      <trkpt lat="43.3021" lon="6.53944">
        <ele>358.2</ele>
        <time>2022-02-04T16:14:47Z</time>
      </trkpt>
      <trkpt lat="43.30209" lon="6.5394">
        <ele>358.2</ele>
        <time>2022-02-04T16:14:48Z</time>
      </trkpt>
      <trkpt lat="43.30209" lon="6.53935">
        <ele>358.2</ele>
        <time>2022-02-04T16:14:49Z</time>
      </trkpt>
      <trkpt lat="43.3021" lon="6.53931">
        <ele>358</ele>
        <time>2022-02-04T16:14:50Z</time>
      </trkpt>
      <trkpt lat="43.30211" lon="6.53928">
        <ele>358</ele>
        <time>2022-02-04T16:14:51Z</time>
      </trkpt>
      <trkpt lat="43.30212" lon="6.53927">
        <ele>358</ele>
        <time>2022-02-04T16:14:52Z</time>
      </trkpt>
      <trkpt lat="43.30211" lon="6.53925">
        <ele>358</ele>
        <time>2022-02-04T16:14:53Z</time>
      </trkpt>
      <trkpt lat="43.3021" lon="6.53924">
        <ele>358.2</ele>
        <time>2022-02-04T16:14:54Z</time>
      </trkpt>
      <trkpt lat="43.30209" lon="6.53923">
        <ele>358.6</ele>
        <time>2022-02-04T16:14:55Z</time>
      </trkpt>
      <trkpt lat="43.30208" lon="6.53921">
        <ele>358.8</ele>
        <time>2022-02-04T16:14:56Z</time>
      </trkpt>
      <trkpt lat="43.30208" lon="6.53919">
        <ele>359.6</ele>
        <time>2022-02-04T16:14:57Z</time>
      </trkpt>
      <trkpt lat="43.30207" lon="6.53916">
        <ele>360</ele>
        <time>2022-02-04T16:14:58Z</time>
      </trkpt>
      <trkpt lat="43.30207" lon="6.53914">
        <ele>360.2</ele>
        <time>2022-02-04T16:14:59Z</time>
      </trkpt>
      <trkpt lat="43.30206" lon="6.53914">
        <ele>360.2</ele>
        <time>2022-02-04T16:15:00Z</time>
      </trkpt>
      <trkpt lat="43.30206" lon="6.53914">
        <ele>360.2</ele>
        <time>2022-02-04T16:15:01Z</time>
      </trkpt>
      <trkpt lat="43.30206" lon="6.53915">
        <ele>360.4</ele>
        <time>2022-02-04T16:15:02Z</time>
      </trkpt>
      <trkpt lat="43.30207" lon="6.53918">
        <ele>360.4</ele>
        <time>2022-02-04T16:15:03Z</time>
      </trkpt>
      <trkpt lat="43.30209" lon="6.53921">
        <ele>360.4</ele>
        <time>2022-02-04T16:15:04Z</time>
      </trkpt>
      <trkpt lat="43.30212" lon="6.53924">
        <ele>360.4</ele>
        <time>2022-02-04T16:15:05Z</time>
      </trkpt>
      <trkpt lat="43.30215" lon="6.53928">
        <ele>360.4</ele>
        <time>2022-02-04T16:15:06Z</time>
      </trkpt>
      <trkpt lat="43.30217" lon="6.53931">
        <ele>360.4</ele>
        <time>2022-02-04T16:15:07Z</time>
      </trkpt>
      <trkpt lat="43.3022" lon="6.53933">
        <ele>360.6</ele>
        <time>2022-02-04T16:15:08Z</time>
      </trkpt>
      <trkpt lat="43.30223" lon="6.53935">
        <ele>360.8</ele>
        <time>2022-02-04T16:15:09Z</time>
      </trkpt>
      <trkpt lat="43.30226" lon="6.53936">
        <ele>361.2</ele>
        <time>2022-02-04T16:15:10Z</time>
      </trkpt>
      <trkpt lat="43.30229" lon="6.53938">
        <ele>361.6</ele>
        <time>2022-02-04T16:15:11Z</time>
      </trkpt>
      <trkpt lat="43.30232" lon="6.53939">
        <ele>361.8</ele>
        <time>2022-02-04T16:15:12Z</time>
      </trkpt>
      <trkpt lat="43.30235" lon="6.5394">
        <ele>362</ele>
        <time>2022-02-04T16:15:13Z</time>
      </trkpt>
      <trkpt lat="43.30239" lon="6.53941">
        <ele>362</ele>
        <time>2022-02-04T16:15:14Z</time>
      </trkpt>
      <trkpt lat="43.30242" lon="6.53942">
        <ele>362.6</ele>
        <time>2022-02-04T16:15:15Z</time>
      </trkpt>
      <trkpt lat="43.30245" lon="6.53942">
        <ele>363.4</ele>
        <time>2022-02-04T16:15:16Z</time>
      </trkpt>
      <trkpt lat="43.30247" lon="6.53942">
        <ele>364.2</ele>
        <time>2022-02-04T16:15:17Z</time>
      </trkpt>
      <trkpt lat="43.3025" lon="6.53943">
        <ele>365</ele>
        <time>2022-02-04T16:15:18Z</time>
      </trkpt>
      <trkpt lat="43.30253" lon="6.53943">
        <ele>365.8</ele>
        <time>2022-02-04T16:15:19Z</time>
      </trkpt>
      <trkpt lat="43.30255" lon="6.53942">
        <ele>366.4</ele>
        <time>2022-02-04T16:15:20Z</time>
      </trkpt>
      <trkpt lat="43.30258" lon="6.53941">
        <ele>367</ele>
        <time>2022-02-04T16:15:21Z</time>
      </trkpt>
      <trkpt lat="43.30261" lon="6.53939">
        <ele>367.6</ele>
        <time>2022-02-04T16:15:22Z</time>
      </trkpt>
      <trkpt lat="43.30263" lon="6.53936">
        <ele>368</ele>
        <time>2022-02-04T16:15:23Z</time>
      </trkpt>
      <trkpt lat="43.30265" lon="6.53934">
        <ele>368.6</ele>
        <time>2022-02-04T16:15:24Z</time>
      </trkpt>
      <trkpt lat="43.30267" lon="6.53933">
        <ele>369</ele>
        <time>2022-02-04T16:15:25Z</time>
      </trkpt>
      <trkpt lat="43.30269" lon="6.53931">
        <ele>369.4</ele>
        <time>2022-02-04T16:15:26Z</time>
      </trkpt>
      <trkpt lat="43.30272" lon="6.53929">
        <ele>369.6</ele>
        <time>2022-02-04T16:15:27Z</time>
      </trkpt>
      <trkpt lat="43.30276" lon="6.53928">
        <ele>369.8</ele>
        <time>2022-02-04T16:15:28Z</time>
      </trkpt>
      <trkpt lat="43.30278" lon="6.53928">
        <ele>370.2</ele>
        <time>2022-02-04T16:15:29Z</time>
      </trkpt>
      <trkpt lat="43.30281" lon="6.53927">
        <ele>371</ele>
        <time>2022-02-04T16:15:30Z</time>
      </trkpt>
      <trkpt lat="43.30284" lon="6.53927">
        <ele>371.4</ele>
        <time>2022-02-04T16:15:31Z</time>
      </trkpt>
      <trkpt lat="43.30286" lon="6.53927">
        <ele>371.8</ele>
        <time>2022-02-04T16:15:32Z</time>
      </trkpt>
      <trkpt lat="43.30288" lon="6.53926">
        <ele>372.2</ele>
        <time>2022-02-04T16:15:33Z</time>
      </trkpt>
      <trkpt lat="43.3029" lon="6.53925">
        <ele>372.6</ele>
        <time>2022-02-04T16:15:34Z</time>
      </trkpt>
      <trkpt lat="43.30291" lon="6.53923">
        <ele>372.6</ele>
        <time>2022-02-04T16:15:35Z</time>
      </trkpt>
      <trkpt lat="43.30293" lon="6.5392">
        <ele>372.8</ele>
        <time>2022-02-04T16:15:36Z</time>
      </trkpt>
      <trkpt lat="43.30295" lon="6.53917">
        <ele>373</ele>
        <time>2022-02-04T16:15:37Z</time>
      </trkpt>
      <trkpt lat="43.30297" lon="6.53914">
        <ele>373.4</ele>
        <time>2022-02-04T16:15:38Z</time>
      </trkpt>
      <trkpt lat="43.30298" lon="6.53911">
        <ele>373.6</ele>
        <time>2022-02-04T16:15:39Z</time>
      </trkpt>
      <trkpt lat="43.303" lon="6.53907">
        <ele>373.8</ele>
        <time>2022-02-04T16:15:40Z</time>
      </trkpt>
      <trkpt lat="43.30301" lon="6.53903">
        <ele>374</ele>
        <time>2022-02-04T16:15:41Z</time>
      </trkpt>
      <trkpt lat="43.30303" lon="6.53899">
        <ele>374.2</ele>
        <time>2022-02-04T16:15:42Z</time>
      </trkpt>
      <trkpt lat="43.30305" lon="6.53895">
        <ele>374.4</ele>
        <time>2022-02-04T16:15:43Z</time>
      </trkpt>
      <trkpt lat="43.30307" lon="6.53892">
        <ele>374.4</ele>
        <time>2022-02-04T16:15:44Z</time>
      </trkpt>
      <trkpt lat="43.30309" lon="6.53889">
        <ele>374.4</ele>
        <time>2022-02-04T16:15:45Z</time>
      </trkpt>
      <trkpt lat="43.30312" lon="6.53886">
        <ele>374.2</ele>
        <time>2022-02-04T16:15:46Z</time>
      </trkpt>
      <trkpt lat="43.30314" lon="6.53883">
        <ele>374.2</ele>
        <time>2022-02-04T16:15:47Z</time>
      </trkpt>
      <trkpt lat="43.30317" lon="6.53882">
        <ele>374.6</ele>
        <time>2022-02-04T16:15:48Z</time>
      </trkpt>
      <trkpt lat="43.3032" lon="6.5388">
        <ele>374.8</ele>
        <time>2022-02-04T16:15:49Z</time>
      </trkpt>
      <trkpt lat="43.30323" lon="6.5388">
        <ele>375</ele>
        <time>2022-02-04T16:15:50Z</time>
      </trkpt>
      <trkpt lat="43.30327" lon="6.5388">
        <ele>375</ele>
        <time>2022-02-04T16:15:51Z</time>
      </trkpt>
      <trkpt lat="43.30329" lon="6.53878">
        <ele>375.2</ele>
        <time>2022-02-04T16:15:52Z</time>
      </trkpt>
      <trkpt lat="43.30332" lon="6.53876">
        <ele>375.2</ele>
        <time>2022-02-04T16:15:53Z</time>
      </trkpt>
      <trkpt lat="43.30334" lon="6.53873">
        <ele>375.4</ele>
        <time>2022-02-04T16:15:54Z</time>
      </trkpt>
      <trkpt lat="43.30337" lon="6.53871">
        <ele>376.2</ele>
        <time>2022-02-04T16:15:55Z</time>
      </trkpt>
      <trkpt lat="43.3034" lon="6.53869">
        <ele>376.6</ele>
        <time>2022-02-04T16:15:56Z</time>
      </trkpt>
      <trkpt lat="43.30343" lon="6.53868">
        <ele>377.4</ele>
        <time>2022-02-04T16:15:57Z</time>
      </trkpt>
      <trkpt lat="43.30346" lon="6.53868">
        <ele>377.8</ele>
        <time>2022-02-04T16:15:58Z</time>
      </trkpt>
      <trkpt lat="43.30349" lon="6.53867">
        <ele>378.6</ele>
        <time>2022-02-04T16:15:59Z</time>
      </trkpt>
      <trkpt lat="43.30352" lon="6.53867">
        <ele>378.8</ele>
        <time>2022-02-04T16:16:00Z</time>
      </trkpt>
      <trkpt lat="43.30355" lon="6.53866">
        <ele>379.2</ele>
        <time>2022-02-04T16:16:01Z</time>
      </trkpt>
      <trkpt lat="43.30358" lon="6.53865">
        <ele>380.2</ele>
        <time>2022-02-04T16:16:02Z</time>
      </trkpt>
      <trkpt lat="43.30361" lon="6.53864">
        <ele>381</ele>
        <time>2022-02-04T16:16:03Z</time>
      </trkpt>
      <trkpt lat="43.30364" lon="6.53864">
        <ele>381.6</ele>
        <time>2022-02-04T16:16:04Z</time>
      </trkpt>
      <trkpt lat="43.30367" lon="6.53863">
        <ele>382</ele>
        <time>2022-02-04T16:16:05Z</time>
      </trkpt>
      <trkpt lat="43.3037" lon="6.53863">
        <ele>382.4</ele>
        <time>2022-02-04T16:16:06Z</time>
      </trkpt>
      <trkpt lat="43.30373" lon="6.53862">
        <ele>383.4</ele>
        <time>2022-02-04T16:16:07Z</time>
      </trkpt>
      <trkpt lat="43.30376" lon="6.53863">
        <ele>384</ele>
        <time>2022-02-04T16:16:08Z</time>
      </trkpt>
      <trkpt lat="43.30379" lon="6.53863">
        <ele>384.8</ele>
        <time>2022-02-04T16:16:09Z</time>
      </trkpt>
      <trkpt lat="43.30382" lon="6.53864">
        <ele>385.2</ele>
        <time>2022-02-04T16:16:10Z</time>
      </trkpt>
      <trkpt lat="43.30385" lon="6.53866">
        <ele>386</ele>
        <time>2022-02-04T16:16:11Z</time>
      </trkpt>
      <trkpt lat="43.30388" lon="6.53868">
        <ele>386.8</ele>
        <time>2022-02-04T16:16:12Z</time>
      </trkpt>
      <trkpt lat="43.3039" lon="6.5387">
        <ele>387.4</ele>
        <time>2022-02-04T16:16:13Z</time>
      </trkpt>
      <trkpt lat="43.30393" lon="6.53873">
        <ele>387.6</ele>
        <time>2022-02-04T16:16:14Z</time>
      </trkpt>
      <trkpt lat="43.30394" lon="6.53876">
        <ele>388</ele>
        <time>2022-02-04T16:16:15Z</time>
      </trkpt>
      <trkpt lat="43.30396" lon="6.53879">
        <ele>388.2</ele>
        <time>2022-02-04T16:16:16Z</time>
      </trkpt>
      <trkpt lat="43.30397" lon="6.53882">
        <ele>388.4</ele>
        <time>2022-02-04T16:16:17Z</time>
      </trkpt>
      <trkpt lat="43.30399" lon="6.53884">
        <ele>388.6</ele>
        <time>2022-02-04T16:16:18Z</time>
      </trkpt>
      <trkpt lat="43.304" lon="6.53886">
        <ele>388.6</ele>
        <time>2022-02-04T16:16:19Z</time>
      </trkpt>
      <trkpt lat="43.30401" lon="6.53888">
        <ele>388.6</ele>
        <time>2022-02-04T16:16:20Z</time>
      </trkpt>
      <trkpt lat="43.30402" lon="6.5389">
        <ele>388.6</ele>
        <time>2022-02-04T16:16:21Z</time>
      </trkpt>
      <trkpt lat="43.30402" lon="6.53891">
        <ele>388.6</ele>
        <time>2022-02-04T16:16:22Z</time>
      </trkpt>
      <trkpt lat="43.30402" lon="6.53892">
        <ele>388.6</ele>
        <time>2022-02-04T16:16:23Z</time>
      </trkpt>
      <trkpt lat="43.30402" lon="6.53892">
        <ele>388.6</ele>
        <time>2022-02-04T16:16:24Z</time>
      </trkpt>
      <trkpt lat="43.30402" lon="6.53893">
        <ele>388.6</ele>
        <time>2022-02-04T16:16:25Z</time>
      </trkpt>
      <trkpt lat="43.30402" lon="6.53894">
        <ele>388.6</ele>
        <time>2022-02-04T16:16:26Z</time>
      </trkpt>
      <trkpt lat="43.304" lon="6.53895">
        <ele>388.6</ele>
        <time>2022-02-04T16:16:27Z</time>
      </trkpt>
      <trkpt lat="43.30399" lon="6.53898">
        <ele>388.6</ele>
        <time>2022-02-04T16:16:28Z</time>
      </trkpt>
      <trkpt lat="43.30398" lon="6.539">
        <ele>388.6</ele>
        <time>2022-02-04T16:16:29Z</time>
      </trkpt>
      <trkpt lat="43.30396" lon="6.53903">
        <ele>388.6</ele>
        <time>2022-02-04T16:16:30Z</time>
      </trkpt>
      <trkpt lat="43.30394" lon="6.53905">
        <ele>388.4</ele>
        <time>2022-02-04T16:16:31Z</time>
      </trkpt>
      <trkpt lat="43.30393" lon="6.53908">
        <ele>388.2</ele>
        <time>2022-02-04T16:16:32Z</time>
      </trkpt>
      <trkpt lat="43.30391" lon="6.53909">
        <ele>388</ele>
        <time>2022-02-04T16:16:33Z</time>
      </trkpt>
      <trkpt lat="43.3039" lon="6.5391">
        <ele>387.8</ele>
        <time>2022-02-04T16:16:34Z</time>
      </trkpt>
      <trkpt lat="43.3039" lon="6.5391">
        <ele>387.6</ele>
        <time>2022-02-04T16:16:35Z</time>
      </trkpt>
      <trkpt lat="43.3039" lon="6.5391">
        <ele>387.4</ele>
        <time>2022-02-04T16:16:36Z</time>
      </trkpt>
      <trkpt lat="43.3039" lon="6.5391">
        <ele>387</ele>
        <time>2022-02-04T16:16:37Z</time>
      </trkpt>
      <trkpt lat="43.3039" lon="6.5391">
        <ele>387</ele>
        <time>2022-02-04T16:16:38Z</time>
      </trkpt>
      <trkpt lat="43.3039" lon="6.5391">
        <ele>386.8</ele>
        <time>2022-02-04T16:16:39Z</time>
      </trkpt>
      <trkpt lat="43.3039" lon="6.5391">
        <ele>386.8</ele>
        <time>2022-02-04T16:16:40Z</time>
      </trkpt>
      <trkpt lat="43.30389" lon="6.5391">
        <ele>386.8</ele>
        <time>2022-02-04T16:16:41Z</time>
      </trkpt>
      <trkpt lat="43.30389" lon="6.5391">
        <ele>386.8</ele>
        <time>2022-02-04T16:16:42Z</time>
      </trkpt>
      <trkpt lat="43.30389" lon="6.5391">
        <ele>386.6</ele>
        <time>2022-02-04T16:16:43Z</time>
      </trkpt>
      <trkpt lat="43.3039" lon="6.53911">
        <ele>386.6</ele>
        <time>2022-02-04T16:16:44Z</time>
      </trkpt>
      <trkpt lat="43.30389" lon="6.53912">
        <ele>386.4</ele>
        <time>2022-02-04T16:16:45Z</time>
      </trkpt>
      <trkpt lat="43.30389" lon="6.53912">
        <ele>386.4</ele>
        <time>2022-02-04T16:16:46Z</time>
      </trkpt>
      <trkpt lat="43.30389" lon="6.53912">
        <ele>386.2</ele>
        <time>2022-02-04T16:16:47Z</time>
      </trkpt>
      <trkpt lat="43.30389" lon="6.53912">
        <ele>386.2</ele>
        <time>2022-02-04T16:16:48Z</time>
      </trkpt>
      <trkpt lat="43.30389" lon="6.53912">
        <ele>386.2</ele>
        <time>2022-02-04T16:16:49Z</time>
      </trkpt>
      <trkpt lat="43.30389" lon="6.53912">
        <ele>386</ele>
        <time>2022-02-04T16:16:50Z</time>
      </trkpt>
      <trkpt lat="43.30389" lon="6.53912">
        <ele>386</ele>
        <time>2022-02-04T16:16:51Z</time>
      </trkpt>
      <trkpt lat="43.30389" lon="6.53912">
        <ele>385.8</ele>
        <time>2022-02-04T16:16:52Z</time>
      </trkpt>
      <trkpt lat="43.30389" lon="6.53912">
        <ele>385.2</ele>
        <time>2022-02-04T16:16:53Z</time>
      </trkpt>
      <trkpt lat="43.30389" lon="6.53912">
        <ele>384.6</ele>
        <time>2022-02-04T16:16:54Z</time>
      </trkpt>
      <trkpt lat="43.30389" lon="6.53912">
        <ele>384.4</ele>
        <time>2022-02-04T16:16:55Z</time>
      </trkpt>
      <trkpt lat="43.30389" lon="6.53912">
        <ele>384.2</ele>
        <time>2022-02-04T16:16:56Z</time>
      </trkpt>
      <trkpt lat="43.30389" lon="6.53912">
        <ele>384.2</ele>
        <time>2022-02-04T16:16:57Z</time>
      </trkpt>
      <trkpt lat="43.30389" lon="6.53912">
        <ele>384</ele>
        <time>2022-02-04T16:16:58Z</time>
      </trkpt>
      <trkpt lat="43.30389" lon="6.53912">
        <ele>384</ele>
        <time>2022-02-04T16:16:59Z</time>
      </trkpt>
      <trkpt lat="43.30389" lon="6.53912">
        <ele>384</ele>
        <time>2022-02-04T16:17:00Z</time>
      </trkpt>
      <trkpt lat="43.30389" lon="6.53912">
        <ele>384</ele>
        <time>2022-02-04T16:17:01Z</time>
      </trkpt>
      <trkpt lat="43.30389" lon="6.53912">
        <ele>383.8</ele>
        <time>2022-02-04T16:17:02Z</time>
      </trkpt>
      <trkpt lat="43.30389" lon="6.53912">
        <ele>383.8</ele>
        <time>2022-02-04T16:17:03Z</time>
      </trkpt>
      <trkpt lat="43.30389" lon="6.53912">
        <ele>383.6</ele>
        <time>2022-02-04T16:17:04Z</time>
      </trkpt>
      <trkpt lat="43.30389" lon="6.53912">
        <ele>383.6</ele>
        <time>2022-02-04T16:17:05Z</time>
      </trkpt>
      <trkpt lat="43.30389" lon="6.53912">
        <ele>383.4</ele>
        <time>2022-02-04T16:17:06Z</time>
      </trkpt>
      <trkpt lat="43.30389" lon="6.53912">
        <ele>383.4</ele>
        <time>2022-02-04T16:17:07Z</time>
      </trkpt>
      <trkpt lat="43.30389" lon="6.53912">
        <ele>383.2</ele>
        <time>2022-02-04T16:17:08Z</time>
      </trkpt>
      <trkpt lat="43.30389" lon="6.53912">
        <ele>383.2</ele>
        <time>2022-02-04T16:17:09Z</time>
      </trkpt>
      <trkpt lat="43.30389" lon="6.53912">
        <ele>383</ele>
        <time>2022-02-04T16:17:10Z</time>
      </trkpt>
      <trkpt lat="43.30389" lon="6.53912">
        <ele>383</ele>
        <time>2022-02-04T16:17:11Z</time>
      </trkpt>
      <trkpt lat="43.30389" lon="6.53912">
        <ele>383</ele>
        <time>2022-02-04T16:17:12Z</time>
      </trkpt>
      <trkpt lat="43.30389" lon="6.53912">
        <ele>382.8</ele>
        <time>2022-02-04T16:17:13Z</time>
      </trkpt>
      <trkpt lat="43.30389" lon="6.53912">
        <ele>382.8</ele>
        <time>2022-02-04T16:17:14Z</time>
      </trkpt>
      <trkpt lat="43.30389" lon="6.53912">
        <ele>382.8</ele>
        <time>2022-02-04T16:17:15Z</time>
      </trkpt>
      <trkpt lat="43.30389" lon="6.53912">
        <ele>382.6</ele>
        <time>2022-02-04T16:17:16Z</time>
      </trkpt>
      <trkpt lat="43.30388" lon="6.53912">
        <ele>382.6</ele>
        <time>2022-02-04T16:17:17Z</time>
      </trkpt>
      <trkpt lat="43.30388" lon="6.53912">
        <ele>382.6</ele>
        <time>2022-02-04T16:17:18Z</time>
      </trkpt>
      <trkpt lat="43.30388" lon="6.53912">
        <ele>382.6</ele>
        <time>2022-02-04T16:17:19Z</time>
      </trkpt>
      <trkpt lat="43.30388" lon="6.53912">
        <ele>382.4</ele>
        <time>2022-02-04T16:17:20Z</time>
      </trkpt>
      <trkpt lat="43.30388" lon="6.53912">
        <ele>382.4</ele>
        <time>2022-02-04T16:17:21Z</time>
      </trkpt>
      <trkpt lat="43.30388" lon="6.53912">
        <ele>382.4</ele>
        <time>2022-02-04T16:17:22Z</time>
      </trkpt>
      <trkpt lat="43.30388" lon="6.53912">
        <ele>382.2</ele>
        <time>2022-02-04T16:17:23Z</time>
      </trkpt>
      <trkpt lat="43.30388" lon="6.53912">
        <ele>382.2</ele>
        <time>2022-02-04T16:17:24Z</time>
      </trkpt>
      <trkpt lat="43.30388" lon="6.53912">
        <ele>382</ele>
        <time>2022-02-04T16:17:25Z</time>
      </trkpt>
      <trkpt lat="43.30388" lon="6.53912">
        <ele>382</ele>
        <time>2022-02-04T16:17:26Z</time>
      </trkpt>
      <trkpt lat="43.30388" lon="6.53912">
        <ele>381.8</ele>
        <time>2022-02-04T16:17:27Z</time>
      </trkpt>
      <trkpt lat="43.30388" lon="6.53912">
        <ele>381.8</ele>
        <time>2022-02-04T16:17:28Z</time>
      </trkpt>
      <trkpt lat="43.30388" lon="6.53912">
        <ele>381.8</ele>
        <time>2022-02-04T16:17:29Z</time>
      </trkpt>
      <trkpt lat="43.30388" lon="6.53912">
        <ele>381.6</ele>
        <time>2022-02-04T16:17:30Z</time>
      </trkpt>
      <trkpt lat="43.30388" lon="6.53912">
        <ele>381.4</ele>
        <time>2022-02-04T16:17:31Z</time>
      </trkpt>
      <trkpt lat="43.30388" lon="6.53912">
        <ele>381.4</ele>
        <time>2022-02-04T16:17:32Z</time>
      </trkpt>
      <trkpt lat="43.30388" lon="6.53912">
        <ele>381.2</ele>
        <time>2022-02-04T16:17:33Z</time>
      </trkpt>
      <trkpt lat="43.30388" lon="6.53912">
        <ele>381</ele>
        <time>2022-02-04T16:17:34Z</time>
      </trkpt>
      <trkpt lat="43.30388" lon="6.53912">
        <ele>381</ele>
        <time>2022-02-04T16:17:35Z</time>
      </trkpt>
      <trkpt lat="43.30388" lon="6.53912">
        <ele>381</ele>
        <time>2022-02-04T16:17:36Z</time>
      </trkpt>
      <trkpt lat="43.30388" lon="6.53912">
        <ele>381</ele>
        <time>2022-02-04T16:17:37Z</time>
      </trkpt>
      <trkpt lat="43.30388" lon="6.53912">
        <ele>381.2</ele>
        <time>2022-02-04T16:17:38Z</time>
      </trkpt>
      <trkpt lat="43.30388" lon="6.53912">
        <ele>381.2</ele>
        <time>2022-02-04T16:17:39Z</time>
      </trkpt>
      <trkpt lat="43.30388" lon="6.53912">
        <ele>381.2</ele>
        <time>2022-02-04T16:17:40Z</time>
      </trkpt>
      <trkpt lat="43.30388" lon="6.53912">
        <ele>381.4</ele>
        <time>2022-02-04T16:17:41Z</time>
      </trkpt>
      <trkpt lat="43.30388" lon="6.53912">
        <ele>381.4</ele>
        <time>2022-02-04T16:17:42Z</time>
      </trkpt>
      <trkpt lat="43.30388" lon="6.53912">
        <ele>381.2</ele>
        <time>2022-02-04T16:17:43Z</time>
      </trkpt>
      <trkpt lat="43.30388" lon="6.53912">
        <ele>381.2</ele>
        <time>2022-02-04T16:17:44Z</time>
      </trkpt>
      <trkpt lat="43.30388" lon="6.53912">
        <ele>381</ele>
        <time>2022-02-04T16:17:45Z</time>
      </trkpt>
      <trkpt lat="43.30388" lon="6.53912">
        <ele>380.8</ele>
        <time>2022-02-04T16:17:46Z</time>
      </trkpt>
      <trkpt lat="43.30388" lon="6.53912">
        <ele>380.8</ele>
        <time>2022-02-04T16:17:47Z</time>
      </trkpt>
      <trkpt lat="43.30388" lon="6.53912">
        <ele>380.8</ele>
        <time>2022-02-04T16:17:48Z</time>
      </trkpt>
      <trkpt lat="43.30388" lon="6.53912">
        <ele>380.8</ele>
        <time>2022-02-04T16:17:49Z</time>
      </trkpt>
      <trkpt lat="43.30388" lon="6.53912">
        <ele>380.8</ele>
        <time>2022-02-04T16:17:50Z</time>
      </trkpt>
      <trkpt lat="43.30388" lon="6.53912">
        <ele>380.6</ele>
        <time>2022-02-04T16:17:51Z</time>
      </trkpt>
      <trkpt lat="43.30388" lon="6.53912">
        <ele>380.6</ele>
        <time>2022-02-04T16:17:52Z</time>
      </trkpt>
      <trkpt lat="43.30388" lon="6.53912">
        <ele>380.6</ele>
        <time>2022-02-04T16:17:53Z</time>
      </trkpt>
      <trkpt lat="43.30388" lon="6.53912">
        <ele>380.6</ele>
        <time>2022-02-04T16:17:54Z</time>
      </trkpt>
      <trkpt lat="43.30388" lon="6.53912">
        <ele>380.4</ele>
        <time>2022-02-04T16:17:55Z</time>
      </trkpt>
      <trkpt lat="43.30388" lon="6.53912">
        <ele>380.2</ele>
        <time>2022-02-04T16:17:56Z</time>
      </trkpt>
      <trkpt lat="43.30388" lon="6.53912">
        <ele>380.2</ele>
        <time>2022-02-04T16:17:57Z</time>
      </trkpt>
      <trkpt lat="43.30388" lon="6.53912">
        <ele>380.2</ele>
        <time>2022-02-04T16:17:58Z</time>
      </trkpt>
      <trkpt lat="43.30388" lon="6.53912">
        <ele>380</ele>
        <time>2022-02-04T16:17:59Z</time>
      </trkpt>
      <trkpt lat="43.30388" lon="6.53912">
        <ele>380</ele>
        <time>2022-02-04T16:18:00Z</time>
      </trkpt>
      <trkpt lat="43.30388" lon="6.53912">
        <ele>380</ele>
        <time>2022-02-04T16:18:01Z</time>
      </trkpt>
      <trkpt lat="43.30388" lon="6.53912">
        <ele>380</ele>
        <time>2022-02-04T16:18:02Z</time>
      </trkpt>
      <trkpt lat="43.30388" lon="6.53912">
        <ele>380</ele>
        <time>2022-02-04T16:18:03Z</time>
      </trkpt>
      <trkpt lat="43.30388" lon="6.53912">
        <ele>379.8</ele>
        <time>2022-02-04T16:18:04Z</time>
      </trkpt>
      <trkpt lat="43.30388" lon="6.53912">
        <ele>379.8</ele>
        <time>2022-02-04T16:18:05Z</time>
      </trkpt>
      <trkpt lat="43.30388" lon="6.53912">
        <ele>379.8</ele>
        <time>2022-02-04T16:18:06Z</time>
      </trkpt>
      <trkpt lat="43.30388" lon="6.53912">
        <ele>379.6</ele>
        <time>2022-02-04T16:18:07Z</time>
      </trkpt>
      <trkpt lat="43.30388" lon="6.53912">
        <ele>379.6</ele>
        <time>2022-02-04T16:18:08Z</time>
      </trkpt>
      <trkpt lat="43.30388" lon="6.53912">
        <ele>379.4</ele>
        <time>2022-02-04T16:18:09Z</time>
      </trkpt>
      <trkpt lat="43.30388" lon="6.53912">
        <ele>379.4</ele>
        <time>2022-02-04T16:18:10Z</time>
      </trkpt>
      <trkpt lat="43.30389" lon="6.53912">
        <ele>379.2</ele>
        <time>2022-02-04T16:18:11Z</time>
      </trkpt>
      <trkpt lat="43.30389" lon="6.53912">
        <ele>379.2</ele>
        <time>2022-02-04T16:18:12Z</time>
      </trkpt>
      <trkpt lat="43.30389" lon="6.53912">
        <ele>379.2</ele>
        <time>2022-02-04T16:18:13Z</time>
      </trkpt>
      <trkpt lat="43.30389" lon="6.53912">
        <ele>379.2</ele>
        <time>2022-02-04T16:18:14Z</time>
      </trkpt>
      <trkpt lat="43.30389" lon="6.53912">
        <ele>379.2</ele>
        <time>2022-02-04T16:18:15Z</time>
      </trkpt>
      <trkpt lat="43.30389" lon="6.53912">
        <ele>379</ele>
        <time>2022-02-04T16:18:16Z</time>
      </trkpt>
      <trkpt lat="43.30389" lon="6.53912">
        <ele>379.2</ele>
        <time>2022-02-04T16:18:17Z</time>
      </trkpt>
      <trkpt lat="43.30389" lon="6.53912">
        <ele>379.2</ele>
        <time>2022-02-04T16:18:18Z</time>
      </trkpt>
      <trkpt lat="43.30389" lon="6.53912">
        <ele>379.2</ele>
        <time>2022-02-04T16:18:19Z</time>
      </trkpt>
      <trkpt lat="43.30389" lon="6.53912">
        <ele>379.4</ele>
        <time>2022-02-04T16:18:20Z</time>
      </trkpt>
      <trkpt lat="43.30389" lon="6.53912">
        <ele>379.6</ele>
        <time>2022-02-04T16:18:21Z</time>
      </trkpt>
      <trkpt lat="43.30389" lon="6.53912">
        <ele>379.8</ele>
        <time>2022-02-04T16:18:22Z</time>
      </trkpt>
      <trkpt lat="43.30389" lon="6.53912">
        <ele>380.2</ele>
        <time>2022-02-04T16:18:23Z</time>
      </trkpt>
      <trkpt lat="43.30389" lon="6.53912">
        <ele>380.2</ele>
        <time>2022-02-04T16:18:24Z</time>
      </trkpt>
      <trkpt lat="43.30389" lon="6.53912">
        <ele>380.4</ele>
        <time>2022-02-04T16:18:25Z</time>
      </trkpt>
      <trkpt lat="43.30389" lon="6.53912">
        <ele>380.4</ele>
        <time>2022-02-04T16:18:26Z</time>
      </trkpt>
      <trkpt lat="43.30389" lon="6.53912">
        <ele>380.4</ele>
        <time>2022-02-04T16:18:27Z</time>
      </trkpt>
      <trkpt lat="43.30389" lon="6.53912">
        <ele>380.2</ele>
        <time>2022-02-04T16:18:28Z</time>
      </trkpt>
      <trkpt lat="43.30389" lon="6.53912">
        <ele>380.2</ele>
        <time>2022-02-04T16:18:29Z</time>
      </trkpt>
      <trkpt lat="43.30389" lon="6.53912">
        <ele>380.2</ele>
        <time>2022-02-04T16:18:30Z</time>
      </trkpt>
      <trkpt lat="43.30389" lon="6.53912">
        <ele>380.2</ele>
        <time>2022-02-04T16:18:31Z</time>
      </trkpt>
      <trkpt lat="43.30389" lon="6.53912">
        <ele>380</ele>
        <time>2022-02-04T16:18:32Z</time>
      </trkpt>
      <trkpt lat="43.30389" lon="6.53912">
        <ele>380</ele>
        <time>2022-02-04T16:18:33Z</time>
      </trkpt>
      <trkpt lat="43.30389" lon="6.53912">
        <ele>380</ele>
        <time>2022-02-04T16:18:34Z</time>
      </trkpt>
      <trkpt lat="43.30389" lon="6.53912">
        <ele>380</ele>
        <time>2022-02-04T16:18:35Z</time>
      </trkpt>
      <trkpt lat="43.30389" lon="6.53912">
        <ele>380</ele>
        <time>2022-02-04T16:18:36Z</time>
      </trkpt>
      <trkpt lat="43.30389" lon="6.53912">
        <ele>380</ele>
        <time>2022-02-04T16:18:37Z</time>
      </trkpt>
      <trkpt lat="43.30389" lon="6.53913">
        <ele>379.8</ele>
        <time>2022-02-04T16:18:38Z</time>
      </trkpt>
      <trkpt lat="43.30389" lon="6.53913">
        <ele>379.6</ele>
        <time>2022-02-04T16:18:39Z</time>
      </trkpt>
      <trkpt lat="43.30389" lon="6.53913">
        <ele>379.6</ele>
        <time>2022-02-04T16:18:40Z</time>
      </trkpt>
      <trkpt lat="43.30389" lon="6.53913">
        <ele>379.4</ele>
        <time>2022-02-04T16:18:41Z</time>
      </trkpt>
      <trkpt lat="43.30389" lon="6.53913">
        <ele>379.4</ele>
        <time>2022-02-04T16:18:42Z</time>
      </trkpt>
      <trkpt lat="43.30389" lon="6.53913">
        <ele>379.4</ele>
        <time>2022-02-04T16:18:43Z</time>
      </trkpt>
      <trkpt lat="43.30389" lon="6.53913">
        <ele>379.2</ele>
        <time>2022-02-04T16:18:44Z</time>
      </trkpt>
      <trkpt lat="43.30389" lon="6.53913">
        <ele>379</ele>
        <time>2022-02-04T16:18:45Z</time>
      </trkpt>
      <trkpt lat="43.30389" lon="6.53913">
        <ele>378.8</ele>
        <time>2022-02-04T16:18:46Z</time>
      </trkpt>
      <trkpt lat="43.30389" lon="6.53913">
        <ele>378.8</ele>
        <time>2022-02-04T16:18:47Z</time>
      </trkpt>
      <trkpt lat="43.30389" lon="6.53913">
        <ele>378.8</ele>
        <time>2022-02-04T16:18:48Z</time>
      </trkpt>
      <trkpt lat="43.30389" lon="6.53913">
        <ele>378.8</ele>
        <time>2022-02-04T16:18:49Z</time>
      </trkpt>
      <trkpt lat="43.30389" lon="6.53913">
        <ele>378.6</ele>
        <time>2022-02-04T16:18:50Z</time>
      </trkpt>
      <trkpt lat="43.30389" lon="6.53913">
        <ele>378.6</ele>
        <time>2022-02-04T16:18:51Z</time>
      </trkpt>
      <trkpt lat="43.30389" lon="6.53913">
        <ele>378.6</ele>
        <time>2022-02-04T16:18:52Z</time>
      </trkpt>
      <trkpt lat="43.30389" lon="6.53913">
        <ele>378.4</ele>
        <time>2022-02-04T16:18:53Z</time>
      </trkpt>
      <trkpt lat="43.30389" lon="6.53913">
        <ele>378.4</ele>
        <time>2022-02-04T16:18:54Z</time>
      </trkpt>
      <trkpt lat="43.30389" lon="6.53913">
        <ele>378.4</ele>
        <time>2022-02-04T16:18:55Z</time>
      </trkpt>
      <trkpt lat="43.30389" lon="6.53913">
        <ele>378.4</ele>
        <time>2022-02-04T16:18:56Z</time>
      </trkpt>
      <trkpt lat="43.30389" lon="6.53913">
        <ele>378.4</ele>
        <time>2022-02-04T16:18:57Z</time>
      </trkpt>
      <trkpt lat="43.30389" lon="6.53913">
        <ele>378.4</ele>
        <time>2022-02-04T16:18:58Z</time>
      </trkpt>
      <trkpt lat="43.30389" lon="6.53913">
        <ele>378.4</ele>
        <time>2022-02-04T16:18:59Z</time>
      </trkpt>
      <trkpt lat="43.30389" lon="6.53913">
        <ele>378.2</ele>
        <time>2022-02-04T16:19:00Z</time>
      </trkpt>
      <trkpt lat="43.30389" lon="6.53913">
        <ele>378</ele>
        <time>2022-02-04T16:19:01Z</time>
      </trkpt>
      <trkpt lat="43.30389" lon="6.53913">
        <ele>378</ele>
        <time>2022-02-04T16:19:02Z</time>
      </trkpt>
      <trkpt lat="43.30389" lon="6.53913">
        <ele>378</ele>
        <time>2022-02-04T16:19:03Z</time>
      </trkpt>
      <trkpt lat="43.30389" lon="6.53913">
        <ele>378</ele>
        <time>2022-02-04T16:19:04Z</time>
      </trkpt>
      <trkpt lat="43.30389" lon="6.53913">
        <ele>378</ele>
        <time>2022-02-04T16:19:05Z</time>
      </trkpt>
      <trkpt lat="43.30389" lon="6.53913">
        <ele>377.8</ele>
        <time>2022-02-04T16:19:06Z</time>
      </trkpt>
      <trkpt lat="43.30389" lon="6.53913">
        <ele>377.8</ele>
        <time>2022-02-04T16:19:07Z</time>
      </trkpt>
      <trkpt lat="43.30389" lon="6.53913">
        <ele>377.8</ele>
        <time>2022-02-04T16:19:08Z</time>
      </trkpt>
      <trkpt lat="43.30389" lon="6.53913">
        <ele>377.8</ele>
        <time>2022-02-04T16:19:09Z</time>
      </trkpt>
      <trkpt lat="43.30389" lon="6.53913">
        <ele>377.8</ele>
        <time>2022-02-04T16:19:10Z</time>
      </trkpt>
      <trkpt lat="43.30389" lon="6.53913">
        <ele>378</ele>
        <time>2022-02-04T16:19:11Z</time>
      </trkpt>
      <trkpt lat="43.30389" lon="6.53913">
        <ele>378</ele>
        <time>2022-02-04T16:19:12Z</time>
      </trkpt>
      <trkpt lat="43.30389" lon="6.53913">
        <ele>378</ele>
        <time>2022-02-04T16:19:13Z</time>
      </trkpt>
      <trkpt lat="43.30388" lon="6.53913">
        <ele>378</ele>
        <time>2022-02-04T16:19:14Z</time>
      </trkpt>
      <trkpt lat="43.30387" lon="6.53914">
        <ele>378</ele>
        <time>2022-02-04T16:19:15Z</time>
      </trkpt>
      <trkpt lat="43.30387" lon="6.53914">
        <ele>378</ele>
        <time>2022-02-04T16:19:16Z</time>
      </trkpt>
      <trkpt lat="43.30387" lon="6.53914">
        <ele>377.8</ele>
        <time>2022-02-04T16:19:17Z</time>
      </trkpt>
      <trkpt lat="43.30387" lon="6.53914">
        <ele>377.6</ele>
        <time>2022-02-04T16:19:18Z</time>
      </trkpt>
      <trkpt lat="43.30387" lon="6.53914">
        <ele>377.4</ele>
        <time>2022-02-04T16:19:19Z</time>
      </trkpt>
      <trkpt lat="43.30387" lon="6.53914">
        <ele>377.4</ele>
        <time>2022-02-04T16:19:20Z</time>
      </trkpt>
      <trkpt lat="43.30387" lon="6.53914">
        <ele>377.2</ele>
        <time>2022-02-04T16:19:21Z</time>
      </trkpt>
      <trkpt lat="43.30387" lon="6.53914">
        <ele>377.2</ele>
        <time>2022-02-04T16:19:22Z</time>
      </trkpt>
      <trkpt lat="43.30387" lon="6.53914">
        <ele>377.2</ele>
        <time>2022-02-04T16:19:23Z</time>
      </trkpt>
      <trkpt lat="43.30387" lon="6.53914">
        <ele>377.2</ele>
        <time>2022-02-04T16:19:24Z</time>
      </trkpt>
      <trkpt lat="43.30387" lon="6.53914">
        <ele>377.2</ele>
        <time>2022-02-04T16:19:25Z</time>
      </trkpt>
      <trkpt lat="43.30387" lon="6.53914">
        <ele>377.4</ele>
        <time>2022-02-04T16:19:26Z</time>
      </trkpt>
      <trkpt lat="43.30387" lon="6.53914">
        <ele>377.4</ele>
        <time>2022-02-04T16:19:27Z</time>
      </trkpt>
      <trkpt lat="43.30387" lon="6.53915">
        <ele>377.6</ele>
        <time>2022-02-04T16:19:28Z</time>
      </trkpt>
      <trkpt lat="43.30387" lon="6.53915">
        <ele>377.6</ele>
        <time>2022-02-04T16:19:29Z</time>
      </trkpt>
      <trkpt lat="43.30386" lon="6.53916">
        <ele>377.6</ele>
        <time>2022-02-04T16:19:30Z</time>
      </trkpt>
      <trkpt lat="43.30386" lon="6.53916">
        <ele>377.6</ele>
        <time>2022-02-04T16:19:31Z</time>
      </trkpt>
      <trkpt lat="43.30386" lon="6.53916">
        <ele>377.8</ele>
        <time>2022-02-04T16:19:32Z</time>
      </trkpt>
      <trkpt lat="43.30386" lon="6.53916">
        <ele>377.6</ele>
        <time>2022-02-04T16:19:33Z</time>
      </trkpt>
      <trkpt lat="43.30386" lon="6.53916">
        <ele>377.8</ele>
        <time>2022-02-04T16:19:34Z</time>
      </trkpt>
      <trkpt lat="43.30386" lon="6.53916">
        <ele>377.6</ele>
        <time>2022-02-04T16:19:35Z</time>
      </trkpt>
      <trkpt lat="43.30386" lon="6.53916">
        <ele>377.6</ele>
        <time>2022-02-04T16:19:36Z</time>
      </trkpt>
      <trkpt lat="43.30386" lon="6.53916">
        <ele>377.6</ele>
        <time>2022-02-04T16:19:37Z</time>
      </trkpt>
      <trkpt lat="43.30386" lon="6.53916">
        <ele>377.6</ele>
        <time>2022-02-04T16:19:38Z</time>
      </trkpt>
      <trkpt lat="43.30386" lon="6.53916">
        <ele>377.4</ele>
        <time>2022-02-04T16:19:39Z</time>
      </trkpt>
      <trkpt lat="43.30386" lon="6.53916">
        <ele>377.4</ele>
        <time>2022-02-04T16:19:40Z</time>
      </trkpt>
      <trkpt lat="43.30386" lon="6.53916">
        <ele>377.4</ele>
        <time>2022-02-04T16:19:41Z</time>
      </trkpt>
      <trkpt lat="43.30386" lon="6.53916">
        <ele>377.2</ele>
        <time>2022-02-04T16:19:42Z</time>
      </trkpt>
      <trkpt lat="43.30386" lon="6.53916">
        <ele>377.2</ele>
        <time>2022-02-04T16:19:43Z</time>
      </trkpt>
      <trkpt lat="43.30386" lon="6.53916">
        <ele>377.2</ele>
        <time>2022-02-04T16:19:44Z</time>
      </trkpt>
      <trkpt lat="43.30386" lon="6.53916">
        <ele>377.2</ele>
        <time>2022-02-04T16:19:45Z</time>
      </trkpt>
      <trkpt lat="43.30387" lon="6.53916">
        <ele>377</ele>
        <time>2022-02-04T16:19:46Z</time>
      </trkpt>
      <trkpt lat="43.30388" lon="6.53916">
        <ele>377</ele>
        <time>2022-02-04T16:19:47Z</time>
      </trkpt>
      <trkpt lat="43.30388" lon="6.53916">
        <ele>377</ele>
        <time>2022-02-04T16:19:48Z</time>
      </trkpt>
      <trkpt lat="43.30388" lon="6.53916">
        <ele>377</ele>
        <time>2022-02-04T16:19:49Z</time>
      </trkpt>
      <trkpt lat="43.30388" lon="6.53916">
        <ele>377</ele>
        <time>2022-02-04T16:19:50Z</time>
      </trkpt>
      <trkpt lat="43.30388" lon="6.53916">
        <ele>377</ele>
        <time>2022-02-04T16:19:51Z</time>
      </trkpt>
      <trkpt lat="43.30388" lon="6.53916">
        <ele>376.8</ele>
        <time>2022-02-04T16:19:52Z</time>
      </trkpt>
      <trkpt lat="43.30388" lon="6.53916">
        <ele>376.8</ele>
        <time>2022-02-04T16:19:53Z</time>
      </trkpt>
      <trkpt lat="43.30388" lon="6.53916">
        <ele>376.8</ele>
        <time>2022-02-04T16:19:54Z</time>
      </trkpt>
      <trkpt lat="43.30388" lon="6.53916">
        <ele>376.8</ele>
        <time>2022-02-04T16:19:55Z</time>
      </trkpt>
      <trkpt lat="43.30388" lon="6.53915">
        <ele>376.8</ele>
        <time>2022-02-04T16:19:56Z</time>
      </trkpt>
      <trkpt lat="43.30388" lon="6.53915">
        <ele>376.8</ele>
        <time>2022-02-04T16:19:57Z</time>
      </trkpt>
      <trkpt lat="43.30388" lon="6.53915">
        <ele>376.8</ele>
        <time>2022-02-04T16:19:58Z</time>
      </trkpt>
      <trkpt lat="43.30388" lon="6.53915">
        <ele>376.8</ele>
        <time>2022-02-04T16:19:59Z</time>
      </trkpt>
      <trkpt lat="43.30388" lon="6.53915">
        <ele>376.8</ele>
        <time>2022-02-04T16:20:00Z</time>
      </trkpt>
      <trkpt lat="43.30388" lon="6.53915">
        <ele>376.8</ele>
        <time>2022-02-04T16:20:01Z</time>
      </trkpt>
      <trkpt lat="43.30388" lon="6.53915">
        <ele>376.8</ele>
        <time>2022-02-04T16:20:02Z</time>
      </trkpt>
      <trkpt lat="43.30388" lon="6.53915">
        <ele>376.8</ele>
        <time>2022-02-04T16:20:03Z</time>
      </trkpt>
      <trkpt lat="43.30388" lon="6.53915">
        <ele>377</ele>
        <time>2022-02-04T16:20:04Z</time>
      </trkpt>
      <trkpt lat="43.30388" lon="6.53915">
        <ele>377</ele>
        <time>2022-02-04T16:20:05Z</time>
      </trkpt>
      <trkpt lat="43.30388" lon="6.53914">
        <ele>377</ele>
        <time>2022-02-04T16:20:06Z</time>
      </trkpt>
      <trkpt lat="43.30388" lon="6.53914">
        <ele>377</ele>
        <time>2022-02-04T16:20:07Z</time>
      </trkpt>
      <trkpt lat="43.30388" lon="6.53914">
        <ele>377</ele>
        <time>2022-02-04T16:20:08Z</time>
      </trkpt>
      <trkpt lat="43.30388" lon="6.53914">
        <ele>377</ele>
        <time>2022-02-04T16:20:09Z</time>
      </trkpt>
      <trkpt lat="43.30388" lon="6.53914">
        <ele>377</ele>
        <time>2022-02-04T16:20:10Z</time>
      </trkpt>
      <trkpt lat="43.30388" lon="6.53914">
        <ele>377</ele>
        <time>2022-02-04T16:20:11Z</time>
      </trkpt>
      <trkpt lat="43.30388" lon="6.53914">
        <ele>376.8</ele>
        <time>2022-02-04T16:20:12Z</time>
      </trkpt>
      <trkpt lat="43.30388" lon="6.53914">
        <ele>376.8</ele>
        <time>2022-02-04T16:20:13Z</time>
      </trkpt>
      <trkpt lat="43.30388" lon="6.53914">
        <ele>376.8</ele>
        <time>2022-02-04T16:20:14Z</time>
      </trkpt>
      <trkpt lat="43.30388" lon="6.53914">
        <ele>377</ele>
        <time>2022-02-04T16:20:15Z</time>
      </trkpt>
      <trkpt lat="43.30388" lon="6.53914">
        <ele>377</ele>
        <time>2022-02-04T16:20:16Z</time>
      </trkpt>
      <trkpt lat="43.30388" lon="6.53914">
        <ele>377</ele>
        <time>2022-02-04T16:20:17Z</time>
      </trkpt>
      <trkpt lat="43.30388" lon="6.53914">
        <ele>377</ele>
        <time>2022-02-04T16:20:18Z</time>
      </trkpt>
      <trkpt lat="43.30388" lon="6.53914">
        <ele>377</ele>
        <time>2022-02-04T16:20:19Z</time>
      </trkpt>
      <trkpt lat="43.30388" lon="6.53914">
        <ele>376.8</ele>
        <time>2022-02-04T16:20:20Z</time>
      </trkpt>
      <trkpt lat="43.30388" lon="6.53914">
        <ele>376.8</ele>
        <time>2022-02-04T16:20:21Z</time>
      </trkpt>
      <trkpt lat="43.30388" lon="6.53914">
        <ele>376.8</ele>
        <time>2022-02-04T16:20:22Z</time>
      </trkpt>
      <trkpt lat="43.30388" lon="6.53914">
        <ele>376.8</ele>
        <time>2022-02-04T16:20:23Z</time>
      </trkpt>
      <trkpt lat="43.30388" lon="6.53914">
        <ele>376.8</ele>
        <time>2022-02-04T16:20:24Z</time>
      </trkpt>
      <trkpt lat="43.30388" lon="6.53914">
        <ele>376.8</ele>
        <time>2022-02-04T16:20:25Z</time>
      </trkpt>
      <trkpt lat="43.30388" lon="6.53914">
        <ele>377</ele>
        <time>2022-02-04T16:20:26Z</time>
      </trkpt>
      <trkpt lat="43.30388" lon="6.53914">
        <ele>377</ele>
        <time>2022-02-04T16:20:27Z</time>
      </trkpt>
      <trkpt lat="43.30388" lon="6.53914">
        <ele>377</ele>
        <time>2022-02-04T16:20:28Z</time>
      </trkpt>
      <trkpt lat="43.30388" lon="6.53914">
        <ele>377</ele>
        <time>2022-02-04T16:20:29Z</time>
      </trkpt>
      <trkpt lat="43.30388" lon="6.53914">
        <ele>377</ele>
        <time>2022-02-04T16:20:30Z</time>
      </trkpt>
      <trkpt lat="43.30388" lon="6.53914">
        <ele>376.8</ele>
        <time>2022-02-04T16:20:31Z</time>
      </trkpt>
      <trkpt lat="43.30388" lon="6.53914">
        <ele>376.8</ele>
        <time>2022-02-04T16:20:32Z</time>
      </trkpt>
      <trkpt lat="43.30388" lon="6.53914">
        <ele>376.8</ele>
        <time>2022-02-04T16:20:33Z</time>
      </trkpt>
      <trkpt lat="43.30388" lon="6.53914">
        <ele>376.6</ele>
        <time>2022-02-04T16:20:34Z</time>
      </trkpt>
      <trkpt lat="43.30388" lon="6.53914">
        <ele>376.6</ele>
        <time>2022-02-04T16:20:35Z</time>
      </trkpt>
      <trkpt lat="43.30388" lon="6.53914">
        <ele>376.6</ele>
        <time>2022-02-04T16:20:36Z</time>
      </trkpt>
      <trkpt lat="43.30388" lon="6.53914">
        <ele>376.6</ele>
        <time>2022-02-04T16:20:37Z</time>
      </trkpt>
      <trkpt lat="43.30388" lon="6.53914">
        <ele>376.6</ele>
        <time>2022-02-04T16:20:38Z</time>
      </trkpt>
      <trkpt lat="43.30388" lon="6.53914">
        <ele>376.6</ele>
        <time>2022-02-04T16:20:39Z</time>
      </trkpt>
      <trkpt lat="43.30388" lon="6.53915">
        <ele>376.6</ele>
        <time>2022-02-04T16:20:40Z</time>
      </trkpt>
      <trkpt lat="43.30388" lon="6.53915">
        <ele>376.4</ele>
        <time>2022-02-04T16:20:41Z</time>
      </trkpt>
      <trkpt lat="43.30388" lon="6.53915">
        <ele>376.4</ele>
        <time>2022-02-04T16:20:42Z</time>
      </trkpt>
      <trkpt lat="43.30388" lon="6.53915">
        <ele>376.4</ele>
        <time>2022-02-04T16:20:43Z</time>
      </trkpt>
      <trkpt lat="43.30388" lon="6.53915">
        <ele>376.4</ele>
        <time>2022-02-04T16:20:44Z</time>
      </trkpt>
      <trkpt lat="43.30388" lon="6.53915">
        <ele>376.4</ele>
        <time>2022-02-04T16:20:45Z</time>
      </trkpt>
      <trkpt lat="43.30388" lon="6.53915">
        <ele>376.2</ele>
        <time>2022-02-04T16:20:46Z</time>
      </trkpt>
      <trkpt lat="43.30388" lon="6.53915">
        <ele>376.2</ele>
        <time>2022-02-04T16:20:47Z</time>
      </trkpt>
      <trkpt lat="43.30388" lon="6.53915">
        <ele>376.2</ele>
        <time>2022-02-04T16:20:48Z</time>
      </trkpt>
      <trkpt lat="43.30388" lon="6.53915">
        <ele>376.2</ele>
        <time>2022-02-04T16:20:49Z</time>
      </trkpt>
      <trkpt lat="43.30388" lon="6.53915">
        <ele>376.2</ele>
        <time>2022-02-04T16:20:50Z</time>
      </trkpt>
      <trkpt lat="43.30388" lon="6.53915">
        <ele>376.2</ele>
        <time>2022-02-04T16:20:51Z</time>
      </trkpt>
      <trkpt lat="43.30388" lon="6.53915">
        <ele>376.2</ele>
        <time>2022-02-04T16:20:52Z</time>
      </trkpt>
      <trkpt lat="43.30388" lon="6.53915">
        <ele>376.2</ele>
        <time>2022-02-04T16:20:53Z</time>
      </trkpt>
      <trkpt lat="43.30387" lon="6.53915">
        <ele>376.2</ele>
        <time>2022-02-04T16:20:54Z</time>
      </trkpt>
      <trkpt lat="43.30387" lon="6.53915">
        <ele>376</ele>
        <time>2022-02-04T16:20:55Z</time>
      </trkpt>
      <trkpt lat="43.30387" lon="6.53915">
        <ele>376</ele>
        <time>2022-02-04T16:20:56Z</time>
      </trkpt>
      <trkpt lat="43.30387" lon="6.53915">
        <ele>376</ele>
        <time>2022-02-04T16:20:57Z</time>
      </trkpt>
      <trkpt lat="43.30387" lon="6.53915">
        <ele>377</ele>
        <time>2022-02-04T16:20:58Z</time>
      </trkpt>
      <trkpt lat="43.30387" lon="6.53915">
        <ele>377</ele>
        <time>2022-02-04T16:20:59Z</time>
      </trkpt>
      <trkpt lat="43.30387" lon="6.53915">
        <ele>377</ele>
        <time>2022-02-04T16:21:00Z</time>
      </trkpt>
      <trkpt lat="43.30387" lon="6.53915">
        <ele>377</ele>
        <time>2022-02-04T16:21:01Z</time>
      </trkpt>
      <trkpt lat="43.30387" lon="6.53915">
        <ele>377</ele>
        <time>2022-02-04T16:21:02Z</time>
      </trkpt>
      <trkpt lat="43.30387" lon="6.53915">
        <ele>377</ele>
        <time>2022-02-04T16:21:03Z</time>
      </trkpt>
      <trkpt lat="43.30387" lon="6.53915">
        <ele>377</ele>
        <time>2022-02-04T16:21:04Z</time>
      </trkpt>
      <trkpt lat="43.30387" lon="6.53915">
        <ele>376.8</ele>
        <time>2022-02-04T16:21:05Z</time>
      </trkpt>
      <trkpt lat="43.30387" lon="6.53915">
        <ele>376.8</ele>
        <time>2022-02-04T16:21:06Z</time>
      </trkpt>
      <trkpt lat="43.30387" lon="6.53915">
        <ele>376.8</ele>
        <time>2022-02-04T16:21:07Z</time>
      </trkpt>
      <trkpt lat="43.30387" lon="6.53915">
        <ele>376.6</ele>
        <time>2022-02-04T16:21:08Z</time>
      </trkpt>
      <trkpt lat="43.30388" lon="6.53915">
        <ele>376.6</ele>
        <time>2022-02-04T16:21:09Z</time>
      </trkpt>
      <trkpt lat="43.30388" lon="6.53914">
        <ele>376.8</ele>
        <time>2022-02-04T16:21:10Z</time>
      </trkpt>
      <trkpt lat="43.30388" lon="6.53914">
        <ele>376.8</ele>
        <time>2022-02-04T16:21:11Z</time>
      </trkpt>
      <trkpt lat="43.30388" lon="6.53914">
        <ele>376.8</ele>
        <time>2022-02-04T16:21:12Z</time>
      </trkpt>
      <trkpt lat="43.30388" lon="6.53914">
        <ele>376.8</ele>
        <time>2022-02-04T16:21:13Z</time>
      </trkpt>
      <trkpt lat="43.30388" lon="6.53914">
        <ele>376.8</ele>
        <time>2022-02-04T16:21:14Z</time>
      </trkpt>
      <trkpt lat="43.30388" lon="6.53914">
        <ele>376.6</ele>
        <time>2022-02-04T16:21:15Z</time>
      </trkpt>
      <trkpt lat="43.30388" lon="6.53914">
        <ele>376.6</ele>
        <time>2022-02-04T16:21:16Z</time>
      </trkpt>
      <trkpt lat="43.30388" lon="6.53914">
        <ele>376.6</ele>
        <time>2022-02-04T16:21:17Z</time>
      </trkpt>
      <trkpt lat="43.30388" lon="6.53914">
        <ele>376.4</ele>
        <time>2022-02-04T16:21:18Z</time>
      </trkpt>
      <trkpt lat="43.30388" lon="6.53914">
        <ele>376.4</ele>
        <time>2022-02-04T16:21:19Z</time>
      </trkpt>
      <trkpt lat="43.30388" lon="6.53915">
        <ele>376.4</ele>
        <time>2022-02-04T16:21:20Z</time>
      </trkpt>
      <trkpt lat="43.30386" lon="6.53917">
        <ele>376.4</ele>
        <time>2022-02-04T16:21:21Z</time>
      </trkpt>
      <trkpt lat="43.30384" lon="6.53921">
        <ele>376.4</ele>
        <time>2022-02-04T16:21:22Z</time>
      </trkpt>
      <trkpt lat="43.30381" lon="6.53926">
        <ele>376.4</ele>
        <time>2022-02-04T16:21:23Z</time>
      </trkpt>
      <trkpt lat="43.30378" lon="6.53931">
        <ele>376.4</ele>
        <time>2022-02-04T16:21:24Z</time>
      </trkpt>
      <trkpt lat="43.30374" lon="6.53935">
        <ele>376.2</ele>
        <time>2022-02-04T16:21:25Z</time>
      </trkpt>
      <trkpt lat="43.30371" lon="6.53941">
        <ele>376</ele>
        <time>2022-02-04T16:21:26Z</time>
      </trkpt>
      <trkpt lat="43.30368" lon="6.53947">
        <ele>375.6</ele>
        <time>2022-02-04T16:21:27Z</time>
      </trkpt>
      <trkpt lat="43.30366" lon="6.53953">
        <ele>375</ele>
        <time>2022-02-04T16:21:28Z</time>
      </trkpt>
      <trkpt lat="43.30364" lon="6.5396">
        <ele>374.4</ele>
        <time>2022-02-04T16:21:29Z</time>
      </trkpt>
      <trkpt lat="43.30363" lon="6.53967">
        <ele>373.6</ele>
        <time>2022-02-04T16:21:30Z</time>
      </trkpt>
      <trkpt lat="43.30362" lon="6.53976">
        <ele>372.4</ele>
        <time>2022-02-04T16:21:31Z</time>
      </trkpt>
      <trkpt lat="43.3036" lon="6.53984">
        <ele>369.4</ele>
        <time>2022-02-04T16:21:32Z</time>
      </trkpt>
      <trkpt lat="43.30359" lon="6.53991">
        <ele>367.4</ele>
        <time>2022-02-04T16:21:33Z</time>
      </trkpt>
      <trkpt lat="43.30358" lon="6.53998">
        <ele>366</ele>
        <time>2022-02-04T16:21:34Z</time>
      </trkpt>
      <trkpt lat="43.30357" lon="6.54004">
        <ele>364.8</ele>
        <time>2022-02-04T16:21:35Z</time>
      </trkpt>
      <trkpt lat="43.30356" lon="6.54011">
        <ele>363.4</ele>
        <time>2022-02-04T16:21:36Z</time>
      </trkpt>
      <trkpt lat="43.30353" lon="6.54019">
        <ele>361.2</ele>
        <time>2022-02-04T16:21:37Z</time>
      </trkpt>
      <trkpt lat="43.3035" lon="6.54025">
        <ele>359.8</ele>
        <time>2022-02-04T16:21:38Z</time>
      </trkpt>
      <trkpt lat="43.30345" lon="6.54031">
        <ele>358.8</ele>
        <time>2022-02-04T16:21:39Z</time>
      </trkpt>
      <trkpt lat="43.30341" lon="6.54036">
        <ele>357.4</ele>
        <time>2022-02-04T16:21:40Z</time>
      </trkpt>
      <trkpt lat="43.30337" lon="6.54039">
        <ele>356.8</ele>
        <time>2022-02-04T16:21:41Z</time>
      </trkpt>
      <trkpt lat="43.30334" lon="6.54041">
        <ele>356.4</ele>
        <time>2022-02-04T16:21:42Z</time>
      </trkpt>
      <trkpt lat="43.30331" lon="6.54043">
        <ele>356.2</ele>
        <time>2022-02-04T16:21:43Z</time>
      </trkpt>
      <trkpt lat="43.30328" lon="6.54044">
        <ele>356</ele>
        <time>2022-02-04T16:21:44Z</time>
      </trkpt>
      <trkpt lat="43.30326" lon="6.54046">
        <ele>356</ele>
        <time>2022-02-04T16:21:45Z</time>
      </trkpt>
      <trkpt lat="43.30323" lon="6.54047">
        <ele>355.8</ele>
        <time>2022-02-04T16:21:46Z</time>
      </trkpt>
      <trkpt lat="43.3032" lon="6.54048">
        <ele>355.8</ele>
        <time>2022-02-04T16:21:47Z</time>
      </trkpt>
      <trkpt lat="43.30315" lon="6.5405">
        <ele>355.4</ele>
        <time>2022-02-04T16:21:48Z</time>
      </trkpt>
      <trkpt lat="43.3031" lon="6.54054">
        <ele>354.8</ele>
        <time>2022-02-04T16:21:49Z</time>
      </trkpt>
      <trkpt lat="43.30305" lon="6.54059">
        <ele>353.8</ele>
        <time>2022-02-04T16:21:50Z</time>
      </trkpt>
      <trkpt lat="43.30301" lon="6.54066">
        <ele>352.8</ele>
        <time>2022-02-04T16:21:51Z</time>
      </trkpt>
      <trkpt lat="43.30297" lon="6.54074">
        <ele>352</ele>
        <time>2022-02-04T16:21:52Z</time>
      </trkpt>
      <trkpt lat="43.30294" lon="6.54082">
        <ele>351.4</ele>
        <time>2022-02-04T16:21:53Z</time>
      </trkpt>
      <trkpt lat="43.3029" lon="6.54091">
        <ele>350.6</ele>
        <time>2022-02-04T16:21:54Z</time>
      </trkpt>
      <trkpt lat="43.30287" lon="6.541">
        <ele>349.4</ele>
        <time>2022-02-04T16:21:55Z</time>
      </trkpt>
      <trkpt lat="43.30286" lon="6.54108">
        <ele>348.8</ele>
        <time>2022-02-04T16:21:56Z</time>
      </trkpt>
      <trkpt lat="43.30287" lon="6.54113">
        <ele>348.4</ele>
        <time>2022-02-04T16:21:57Z</time>
      </trkpt>
      <trkpt lat="43.30289" lon="6.54119">
        <ele>347.8</ele>
        <time>2022-02-04T16:21:58Z</time>
      </trkpt>
      <trkpt lat="43.30292" lon="6.54126">
        <ele>347.4</ele>
        <time>2022-02-04T16:21:59Z</time>
      </trkpt>
      <trkpt lat="43.30293" lon="6.54135">
        <ele>346.6</ele>
        <time>2022-02-04T16:22:00Z</time>
      </trkpt>
      <trkpt lat="43.30293" lon="6.54144">
        <ele>346</ele>
        <time>2022-02-04T16:22:01Z</time>
      </trkpt>
      <trkpt lat="43.30294" lon="6.54153">
        <ele>344.8</ele>
        <time>2022-02-04T16:22:02Z</time>
      </trkpt>
      <trkpt lat="43.30297" lon="6.54162">
        <ele>344.2</ele>
        <time>2022-02-04T16:22:03Z</time>
      </trkpt>
      <trkpt lat="43.30301" lon="6.5417">
        <ele>343.6</ele>
        <time>2022-02-04T16:22:04Z</time>
      </trkpt>
      <trkpt lat="43.30306" lon="6.54178">
        <ele>342.8</ele>
        <time>2022-02-04T16:22:05Z</time>
      </trkpt>
      <trkpt lat="43.30311" lon="6.54186">
        <ele>341.2</ele>
        <time>2022-02-04T16:22:06Z</time>
      </trkpt>
      <trkpt lat="43.30317" lon="6.54196">
        <ele>340.2</ele>
        <time>2022-02-04T16:22:07Z</time>
      </trkpt>
      <trkpt lat="43.30323" lon="6.54205">
        <ele>339.4</ele>
        <time>2022-02-04T16:22:08Z</time>
      </trkpt>
      <trkpt lat="43.30329" lon="6.54214">
        <ele>337.2</ele>
        <time>2022-02-04T16:22:09Z</time>
      </trkpt>
      <trkpt lat="43.30335" lon="6.54222">
        <ele>336.2</ele>
        <time>2022-02-04T16:22:10Z</time>
      </trkpt>
      <trkpt lat="43.3034" lon="6.54228">
        <ele>335.6</ele>
        <time>2022-02-04T16:22:11Z</time>
      </trkpt>
      <trkpt lat="43.30345" lon="6.54234">
        <ele>336.4</ele>
        <time>2022-02-04T16:22:12Z</time>
      </trkpt>
      <trkpt lat="43.3035" lon="6.54239">
        <ele>337.2</ele>
        <time>2022-02-04T16:22:13Z</time>
      </trkpt>
      <trkpt lat="43.30355" lon="6.54246">
        <ele>337.4</ele>
        <time>2022-02-04T16:22:14Z</time>
      </trkpt>
      <trkpt lat="43.30359" lon="6.54253">
        <ele>337.4</ele>
        <time>2022-02-04T16:22:15Z</time>
      </trkpt>
      <trkpt lat="43.30362" lon="6.5426">
        <ele>337.4</ele>
        <time>2022-02-04T16:22:16Z</time>
      </trkpt>
      <trkpt lat="43.30364" lon="6.54268">
        <ele>337.4</ele>
        <time>2022-02-04T16:22:17Z</time>
      </trkpt>
      <trkpt lat="43.30363" lon="6.54277">
        <ele>337.2</ele>
        <time>2022-02-04T16:22:18Z</time>
      </trkpt>
      <trkpt lat="43.30363" lon="6.54286">
        <ele>336.8</ele>
        <time>2022-02-04T16:22:19Z</time>
      </trkpt>
      <trkpt lat="43.30361" lon="6.54295">
        <ele>336.2</ele>
        <time>2022-02-04T16:22:20Z</time>
      </trkpt>
      <trkpt lat="43.30361" lon="6.54305">
        <ele>335.2</ele>
        <time>2022-02-04T16:22:21Z</time>
      </trkpt>
      <trkpt lat="43.30362" lon="6.54315">
        <ele>333.6</ele>
        <time>2022-02-04T16:22:22Z</time>
      </trkpt>
      <trkpt lat="43.30363" lon="6.54325">
        <ele>332.8</ele>
        <time>2022-02-04T16:22:23Z</time>
      </trkpt>
      <trkpt lat="43.30364" lon="6.54334">
        <ele>332.4</ele>
        <time>2022-02-04T16:22:24Z</time>
      </trkpt>
      <trkpt lat="43.30367" lon="6.54342">
        <ele>331.2</ele>
        <time>2022-02-04T16:22:25Z</time>
      </trkpt>
      <trkpt lat="43.3037" lon="6.54347">
        <ele>330.6</ele>
        <time>2022-02-04T16:22:26Z</time>
      </trkpt>
      <trkpt lat="43.30374" lon="6.54351">
        <ele>329.6</ele>
        <time>2022-02-04T16:22:27Z</time>
      </trkpt>
      <trkpt lat="43.30378" lon="6.54355">
        <ele>329</ele>
        <time>2022-02-04T16:22:28Z</time>
      </trkpt>
      <trkpt lat="43.30382" lon="6.5436">
        <ele>328.8</ele>
        <time>2022-02-04T16:22:29Z</time>
      </trkpt>
      <trkpt lat="43.30385" lon="6.54366">
        <ele>328.4</ele>
        <time>2022-02-04T16:22:30Z</time>
      </trkpt>
      <trkpt lat="43.30388" lon="6.54373">
        <ele>328.2</ele>
        <time>2022-02-04T16:22:31Z</time>
      </trkpt>
      <trkpt lat="43.3039" lon="6.54378">
        <ele>328.2</ele>
        <time>2022-02-04T16:22:32Z</time>
      </trkpt>
      <trkpt lat="43.30392" lon="6.54386">
        <ele>327.2</ele>
        <time>2022-02-04T16:22:33Z</time>
      </trkpt>
      <trkpt lat="43.30394" lon="6.54391">
        <ele>325.8</ele>
        <time>2022-02-04T16:22:34Z</time>
      </trkpt>
      <trkpt lat="43.30394" lon="6.54395">
        <ele>324.8</ele>
        <time>2022-02-04T16:22:35Z</time>
      </trkpt>
      <trkpt lat="43.30393" lon="6.54397">
        <ele>324.2</ele>
        <time>2022-02-04T16:22:36Z</time>
      </trkpt>
      <trkpt lat="43.3039" lon="6.544">
        <ele>323.8</ele>
        <time>2022-02-04T16:22:37Z</time>
      </trkpt>
      <trkpt lat="43.30387" lon="6.54403">
        <ele>322.8</ele>
        <time>2022-02-04T16:22:38Z</time>
      </trkpt>
      <trkpt lat="43.30383" lon="6.54409">
        <ele>322.2</ele>
        <time>2022-02-04T16:22:39Z</time>
      </trkpt>
      <trkpt lat="43.3038" lon="6.54415">
        <ele>321.2</ele>
        <time>2022-02-04T16:22:40Z</time>
      </trkpt>
      <trkpt lat="43.30378" lon="6.54422">
        <ele>320.6</ele>
        <time>2022-02-04T16:22:41Z</time>
      </trkpt>
      <trkpt lat="43.30377" lon="6.54428">
        <ele>320</ele>
        <time>2022-02-04T16:22:42Z</time>
      </trkpt>
      <trkpt lat="43.30377" lon="6.54435">
        <ele>318.8</ele>
        <time>2022-02-04T16:22:43Z</time>
      </trkpt>
      <trkpt lat="43.30378" lon="6.54442">
        <ele>317.4</ele>
        <time>2022-02-04T16:22:44Z</time>
      </trkpt>
      <trkpt lat="43.30376" lon="6.54448">
        <ele>316.8</ele>
        <time>2022-02-04T16:22:45Z</time>
      </trkpt>
      <trkpt lat="43.30374" lon="6.54452">
        <ele>316</ele>
        <time>2022-02-04T16:22:46Z</time>
      </trkpt>
      <trkpt lat="43.30369" lon="6.54457">
        <ele>315.4</ele>
        <time>2022-02-04T16:22:47Z</time>
      </trkpt>
      <trkpt lat="43.30365" lon="6.54463">
        <ele>314.8</ele>
        <time>2022-02-04T16:22:48Z</time>
      </trkpt>
      <trkpt lat="43.3036" lon="6.5447">
        <ele>314.4</ele>
        <time>2022-02-04T16:22:49Z</time>
      </trkpt>
      <trkpt lat="43.30357" lon="6.54478">
        <ele>313.8</ele>
        <time>2022-02-04T16:22:50Z</time>
      </trkpt>
      <trkpt lat="43.30356" lon="6.54486">
        <ele>312.6</ele>
        <time>2022-02-04T16:22:51Z</time>
      </trkpt>
      <trkpt lat="43.30357" lon="6.54494">
        <ele>311.6</ele>
        <time>2022-02-04T16:22:52Z</time>
      </trkpt>
      <trkpt lat="43.30361" lon="6.54501">
        <ele>309.2</ele>
        <time>2022-02-04T16:22:53Z</time>
      </trkpt>
      <trkpt lat="43.30366" lon="6.5451">
        <ele>307.2</ele>
        <time>2022-02-04T16:22:54Z</time>
      </trkpt>
      <trkpt lat="43.30371" lon="6.54518">
        <ele>306.2</ele>
        <time>2022-02-04T16:22:55Z</time>
      </trkpt>
      <trkpt lat="43.30375" lon="6.54524">
        <ele>305</ele>
        <time>2022-02-04T16:22:56Z</time>
      </trkpt>
      <trkpt lat="43.30377" lon="6.5453">
        <ele>303.8</ele>
        <time>2022-02-04T16:22:57Z</time>
      </trkpt>
      <trkpt lat="43.30378" lon="6.54537">
        <ele>302.4</ele>
        <time>2022-02-04T16:22:58Z</time>
      </trkpt>
      <trkpt lat="43.30379" lon="6.54546">
        <ele>301.2</ele>
        <time>2022-02-04T16:22:59Z</time>
      </trkpt>
      <trkpt lat="43.30379" lon="6.54556">
        <ele>300.4</ele>
        <time>2022-02-04T16:23:00Z</time>
      </trkpt>
      <trkpt lat="43.3038" lon="6.54566">
        <ele>300.2</ele>
        <time>2022-02-04T16:23:01Z</time>
      </trkpt>
      <trkpt lat="43.3038" lon="6.54574">
        <ele>300</ele>
        <time>2022-02-04T16:23:02Z</time>
      </trkpt>
      <trkpt lat="43.30377" lon="6.54582">
        <ele>299</ele>
        <time>2022-02-04T16:23:03Z</time>
      </trkpt>
      <trkpt lat="43.30374" lon="6.54588">
        <ele>298.6</ele>
        <time>2022-02-04T16:23:04Z</time>
      </trkpt>
      <trkpt lat="43.3037" lon="6.54596">
        <ele>298.2</ele>
        <time>2022-02-04T16:23:05Z</time>
      </trkpt>
      <trkpt lat="43.30367" lon="6.54605">
        <ele>298.2</ele>
        <time>2022-02-04T16:23:06Z</time>
      </trkpt>
      <trkpt lat="43.30364" lon="6.54615">
        <ele>297.8</ele>
        <time>2022-02-04T16:23:07Z</time>
      </trkpt>
      <trkpt lat="43.30361" lon="6.54625">
        <ele>297.4</ele>
        <time>2022-02-04T16:23:08Z</time>
      </trkpt>
      <trkpt lat="43.30357" lon="6.54633">
        <ele>297</ele>
        <time>2022-02-04T16:23:09Z</time>
      </trkpt>
      <trkpt lat="43.30353" lon="6.54641">
        <ele>296.6</ele>
        <time>2022-02-04T16:23:10Z</time>
      </trkpt>
      <trkpt lat="43.3035" lon="6.54648">
        <ele>296.2</ele>
        <time>2022-02-04T16:23:11Z</time>
      </trkpt>
      <trkpt lat="43.30347" lon="6.54655">
        <ele>295.8</ele>
        <time>2022-02-04T16:23:12Z</time>
      </trkpt>
      <trkpt lat="43.30345" lon="6.54662">
        <ele>295.6</ele>
        <time>2022-02-04T16:23:13Z</time>
      </trkpt>
      <trkpt lat="43.30343" lon="6.5467">
        <ele>295.4</ele>
        <time>2022-02-04T16:23:14Z</time>
      </trkpt>
      <trkpt lat="43.30341" lon="6.54676">
        <ele>295.2</ele>
        <time>2022-02-04T16:23:15Z</time>
      </trkpt>
      <trkpt lat="43.30337" lon="6.54681">
        <ele>293.8</ele>
        <time>2022-02-04T16:23:16Z</time>
      </trkpt>
      <trkpt lat="43.30332" lon="6.54686">
        <ele>292.6</ele>
        <time>2022-02-04T16:23:17Z</time>
      </trkpt>
      <trkpt lat="43.30326" lon="6.54689">
        <ele>292</ele>
        <time>2022-02-04T16:23:18Z</time>
      </trkpt>
      <trkpt lat="43.3032" lon="6.54692">
        <ele>291.6</ele>
        <time>2022-02-04T16:23:19Z</time>
      </trkpt>
      <trkpt lat="43.30313" lon="6.54693">
        <ele>291.2</ele>
        <time>2022-02-04T16:23:20Z</time>
      </trkpt>
      <trkpt lat="43.30306" lon="6.54694">
        <ele>291</ele>
        <time>2022-02-04T16:23:21Z</time>
      </trkpt>
      <trkpt lat="43.303" lon="6.54696">
        <ele>290.8</ele>
        <time>2022-02-04T16:23:22Z</time>
      </trkpt>
      <trkpt lat="43.30295" lon="6.54697">
        <ele>290.8</ele>
        <time>2022-02-04T16:23:23Z</time>
      </trkpt>
      <trkpt lat="43.30293" lon="6.54701">
        <ele>290.6</ele>
        <time>2022-02-04T16:23:24Z</time>
      </trkpt>
      <trkpt lat="43.3029" lon="6.54704">
        <ele>290.4</ele>
        <time>2022-02-04T16:23:25Z</time>
      </trkpt>
      <trkpt lat="43.30288" lon="6.54708">
        <ele>290</ele>
        <time>2022-02-04T16:23:26Z</time>
      </trkpt>
      <trkpt lat="43.30286" lon="6.54711">
        <ele>289.8</ele>
        <time>2022-02-04T16:23:27Z</time>
      </trkpt>
      <trkpt lat="43.30284" lon="6.54716">
        <ele>289.8</ele>
        <time>2022-02-04T16:23:28Z</time>
      </trkpt>
      <trkpt lat="43.30283" lon="6.54723">
        <ele>289.2</ele>
        <time>2022-02-04T16:23:29Z</time>
      </trkpt>
      <trkpt lat="43.30281" lon="6.54731">
        <ele>287.4</ele>
        <time>2022-02-04T16:23:30Z</time>
      </trkpt>
      <trkpt lat="43.30278" lon="6.54738">
        <ele>285</ele>
        <time>2022-02-04T16:23:31Z</time>
      </trkpt>
      <trkpt lat="43.30277" lon="6.54743">
        <ele>283.4</ele>
        <time>2022-02-04T16:23:32Z</time>
      </trkpt>
      <trkpt lat="43.30278" lon="6.54748">
        <ele>282.6</ele>
        <time>2022-02-04T16:23:33Z</time>
      </trkpt>
      <trkpt lat="43.30281" lon="6.54752">
        <ele>282</ele>
        <time>2022-02-04T16:23:34Z</time>
      </trkpt>
      <trkpt lat="43.30286" lon="6.54757">
        <ele>281.4</ele>
        <time>2022-02-04T16:23:35Z</time>
      </trkpt>
      <trkpt lat="43.3029" lon="6.54762">
        <ele>281</ele>
        <time>2022-02-04T16:23:36Z</time>
      </trkpt>
      <trkpt lat="43.30294" lon="6.54767">
        <ele>280.2</ele>
        <time>2022-02-04T16:23:37Z</time>
      </trkpt>
      <trkpt lat="43.30297" lon="6.54774">
        <ele>280</ele>
        <time>2022-02-04T16:23:38Z</time>
      </trkpt>
      <trkpt lat="43.30302" lon="6.54783">
        <ele>279.6</ele>
        <time>2022-02-04T16:23:39Z</time>
      </trkpt>
      <trkpt lat="43.30306" lon="6.54791">
        <ele>278.8</ele>
        <time>2022-02-04T16:23:40Z</time>
      </trkpt>
      <trkpt lat="43.30309" lon="6.54798">
        <ele>278</ele>
        <time>2022-02-04T16:23:41Z</time>
      </trkpt>
      <trkpt lat="43.3031" lon="6.54805">
        <ele>276</ele>
        <time>2022-02-04T16:23:42Z</time>
      </trkpt>
      <trkpt lat="43.30308" lon="6.54813">
        <ele>274.4</ele>
        <time>2022-02-04T16:23:43Z</time>
      </trkpt>
      <trkpt lat="43.30304" lon="6.54819">
        <ele>273.2</ele>
        <time>2022-02-04T16:23:44Z</time>
      </trkpt>
      <trkpt lat="43.303" lon="6.54823">
        <ele>272.2</ele>
        <time>2022-02-04T16:23:45Z</time>
      </trkpt>
      <trkpt lat="43.30298" lon="6.54828">
        <ele>271.2</ele>
        <time>2022-02-04T16:23:46Z</time>
      </trkpt>
      <trkpt lat="43.30298" lon="6.54832">
        <ele>270.8</ele>
        <time>2022-02-04T16:23:47Z</time>
      </trkpt>
      <trkpt lat="43.30296" lon="6.54837">
        <ele>270</ele>
        <time>2022-02-04T16:23:48Z</time>
      </trkpt>
      <trkpt lat="43.30295" lon="6.54841">
        <ele>269.8</ele>
        <time>2022-02-04T16:23:49Z</time>
      </trkpt>
      <trkpt lat="43.30294" lon="6.54846">
        <ele>269.4</ele>
        <time>2022-02-04T16:23:50Z</time>
      </trkpt>
      <trkpt lat="43.30295" lon="6.5485">
        <ele>268.4</ele>
        <time>2022-02-04T16:23:51Z</time>
      </trkpt>
      <trkpt lat="43.30297" lon="6.54854">
        <ele>267.8</ele>
        <time>2022-02-04T16:23:52Z</time>
      </trkpt>
      <trkpt lat="43.30299" lon="6.54859">
        <ele>267</ele>
        <time>2022-02-04T16:23:53Z</time>
      </trkpt>
      <trkpt lat="43.30299" lon="6.54866">
        <ele>266.4</ele>
        <time>2022-02-04T16:23:54Z</time>
      </trkpt>
      <trkpt lat="43.30299" lon="6.54872">
        <ele>265</ele>
        <time>2022-02-04T16:23:55Z</time>
      </trkpt>
      <trkpt lat="43.30299" lon="6.54876">
        <ele>264.2</ele>
        <time>2022-02-04T16:23:56Z</time>
      </trkpt>
      <trkpt lat="43.30301" lon="6.54879">
        <ele>263.6</ele>
        <time>2022-02-04T16:23:57Z</time>
      </trkpt>
      <trkpt lat="43.30305" lon="6.54883">
        <ele>263.2</ele>
        <time>2022-02-04T16:23:58Z</time>
      </trkpt>
      <trkpt lat="43.30307" lon="6.54888">
        <ele>263</ele>
        <time>2022-02-04T16:23:59Z</time>
      </trkpt>
      <trkpt lat="43.30308" lon="6.54894">
        <ele>263</ele>
        <time>2022-02-04T16:24:00Z</time>
      </trkpt>
      <trkpt lat="43.30309" lon="6.54902">
        <ele>262.6</ele>
        <time>2022-02-04T16:24:01Z</time>
      </trkpt>
      <trkpt lat="43.30308" lon="6.54908">
        <ele>262.4</ele>
        <time>2022-02-04T16:24:02Z</time>
      </trkpt>
      <trkpt lat="43.30306" lon="6.54911">
        <ele>262.2</ele>
        <time>2022-02-04T16:24:03Z</time>
      </trkpt>
      <trkpt lat="43.30303" lon="6.54914">
        <ele>261.6</ele>
        <time>2022-02-04T16:24:04Z</time>
      </trkpt>
      <trkpt lat="43.30299" lon="6.54918">
        <ele>260.6</ele>
        <time>2022-02-04T16:24:05Z</time>
      </trkpt>
      <trkpt lat="43.30297" lon="6.54922">
        <ele>260</ele>
        <time>2022-02-04T16:24:06Z</time>
      </trkpt>
      <trkpt lat="43.30296" lon="6.54929">
        <ele>259.4</ele>
        <time>2022-02-04T16:24:07Z</time>
      </trkpt>
      <trkpt lat="43.30296" lon="6.54935">
        <ele>258.8</ele>
        <time>2022-02-04T16:24:08Z</time>
      </trkpt>
      <trkpt lat="43.30299" lon="6.54938">
        <ele>258.6</ele>
        <time>2022-02-04T16:24:09Z</time>
      </trkpt>
      <trkpt lat="43.30302" lon="6.54941">
        <ele>257.8</ele>
        <time>2022-02-04T16:24:10Z</time>
      </trkpt>
      <trkpt lat="43.30303" lon="6.54944">
        <ele>257.2</ele>
        <time>2022-02-04T16:24:11Z</time>
      </trkpt>
      <trkpt lat="43.30303" lon="6.54948">
        <ele>256.8</ele>
        <time>2022-02-04T16:24:12Z</time>
      </trkpt>
      <trkpt lat="43.30301" lon="6.54953">
        <ele>256.6</ele>
        <time>2022-02-04T16:24:13Z</time>
      </trkpt>
      <trkpt lat="43.30298" lon="6.54957">
        <ele>256.2</ele>
        <time>2022-02-04T16:24:14Z</time>
      </trkpt>
      <trkpt lat="43.30294" lon="6.54961">
        <ele>255.8</ele>
        <time>2022-02-04T16:24:15Z</time>
      </trkpt>
      <trkpt lat="43.30292" lon="6.54966">
        <ele>255.4</ele>
        <time>2022-02-04T16:24:16Z</time>
      </trkpt>
      <trkpt lat="43.30292" lon="6.54971">
        <ele>255.2</ele>
        <time>2022-02-04T16:24:17Z</time>
      </trkpt>
      <trkpt lat="43.30294" lon="6.54974">
        <ele>255.2</ele>
        <time>2022-02-04T16:24:18Z</time>
      </trkpt>
      <trkpt lat="43.30297" lon="6.54979">
        <ele>254.6</ele>
        <time>2022-02-04T16:24:19Z</time>
      </trkpt>
      <trkpt lat="43.30299" lon="6.54985">
        <ele>254.4</ele>
        <time>2022-02-04T16:24:20Z</time>
      </trkpt>
      <trkpt lat="43.30299" lon="6.5499">
        <ele>254.2</ele>
        <time>2022-02-04T16:24:21Z</time>
      </trkpt>
      <trkpt lat="43.30295" lon="6.54995">
        <ele>254</ele>
        <time>2022-02-04T16:24:22Z</time>
      </trkpt>
      <trkpt lat="43.30293" lon="6.54999">
        <ele>253.8</ele>
        <time>2022-02-04T16:24:23Z</time>
      </trkpt>
      <trkpt lat="43.30294" lon="6.55002">
        <ele>253.4</ele>
        <time>2022-02-04T16:24:24Z</time>
      </trkpt>
      <trkpt lat="43.30298" lon="6.55004">
        <ele>253.4</ele>
        <time>2022-02-04T16:24:25Z</time>
      </trkpt>
      <trkpt lat="43.30302" lon="6.55008">
        <ele>253.2</ele>
        <time>2022-02-04T16:24:26Z</time>
      </trkpt>
      <trkpt lat="43.30304" lon="6.55014">
        <ele>253</ele>
        <time>2022-02-04T16:24:27Z</time>
      </trkpt>
      <trkpt lat="43.30307" lon="6.5502">
        <ele>252.6</ele>
        <time>2022-02-04T16:24:28Z</time>
      </trkpt>
      <trkpt lat="43.30309" lon="6.55025">
        <ele>252.4</ele>
        <time>2022-02-04T16:24:29Z</time>
      </trkpt>
      <trkpt lat="43.30311" lon="6.5503">
        <ele>251.6</ele>
        <time>2022-02-04T16:24:30Z</time>
      </trkpt>
      <trkpt lat="43.30311" lon="6.55036">
        <ele>250.8</ele>
        <time>2022-02-04T16:24:31Z</time>
      </trkpt>
      <trkpt lat="43.30313" lon="6.55041">
        <ele>250.2</ele>
        <time>2022-02-04T16:24:32Z</time>
      </trkpt>
      <trkpt lat="43.30314" lon="6.55042">
        <ele>249.8</ele>
        <time>2022-02-04T16:24:33Z</time>
      </trkpt>
      <trkpt lat="43.30317" lon="6.55042">
        <ele>249.6</ele>
        <time>2022-02-04T16:24:34Z</time>
      </trkpt>
      <trkpt lat="43.30322" lon="6.55044">
        <ele>248.6</ele>
        <time>2022-02-04T16:24:35Z</time>
      </trkpt>
      <trkpt lat="43.30328" lon="6.55046">
        <ele>248</ele>
        <time>2022-02-04T16:24:36Z</time>
      </trkpt>
      <trkpt lat="43.30333" lon="6.55047">
        <ele>247.8</ele>
        <time>2022-02-04T16:24:37Z</time>
      </trkpt>
      <trkpt lat="43.30338" lon="6.5505">
        <ele>247.6</ele>
        <time>2022-02-04T16:24:38Z</time>
      </trkpt>
      <trkpt lat="43.30342" lon="6.55052">
        <ele>247.6</ele>
        <time>2022-02-04T16:24:39Z</time>
      </trkpt>
      <trkpt lat="43.30346" lon="6.55052">
        <ele>247.4</ele>
        <time>2022-02-04T16:24:40Z</time>
      </trkpt>
      <trkpt lat="43.3035" lon="6.5505">
        <ele>247.4</ele>
        <time>2022-02-04T16:24:41Z</time>
      </trkpt>
      <trkpt lat="43.30355" lon="6.55049">
        <ele>247.4</ele>
        <time>2022-02-04T16:24:42Z</time>
      </trkpt>
      <trkpt lat="43.30358" lon="6.55052">
        <ele>247.2</ele>
        <time>2022-02-04T16:24:43Z</time>
      </trkpt>
      <trkpt lat="43.3036" lon="6.55055">
        <ele>246</ele>
        <time>2022-02-04T16:24:44Z</time>
      </trkpt>
      <trkpt lat="43.30361" lon="6.55057">
        <ele>244.6</ele>
        <time>2022-02-04T16:24:45Z</time>
      </trkpt>
      <trkpt lat="43.30362" lon="6.5506">
        <ele>243.4</ele>
        <time>2022-02-04T16:24:46Z</time>
      </trkpt>
      <trkpt lat="43.30362" lon="6.55061">
        <ele>242.6</ele>
        <time>2022-02-04T16:24:47Z</time>
      </trkpt>
      <trkpt lat="43.30363" lon="6.55061">
        <ele>242.2</ele>
        <time>2022-02-04T16:24:48Z</time>
      </trkpt>
      <trkpt lat="43.30364" lon="6.5506">
        <ele>241.4</ele>
        <time>2022-02-04T16:24:49Z</time>
      </trkpt>
      <trkpt lat="43.30365" lon="6.5506">
        <ele>240.8</ele>
        <time>2022-02-04T16:24:50Z</time>
      </trkpt>
      <trkpt lat="43.30366" lon="6.55063">
        <ele>240.4</ele>
        <time>2022-02-04T16:24:51Z</time>
      </trkpt>
      <trkpt lat="43.30366" lon="6.55067">
        <ele>240</ele>
        <time>2022-02-04T16:24:52Z</time>
      </trkpt>
      <trkpt lat="43.30364" lon="6.55072">
        <ele>239</ele>
        <time>2022-02-04T16:24:53Z</time>
      </trkpt>
      <trkpt lat="43.30363" lon="6.55076">
        <ele>238</ele>
        <time>2022-02-04T16:24:54Z</time>
      </trkpt>
      <trkpt lat="43.30364" lon="6.55077">
        <ele>236.8</ele>
        <time>2022-02-04T16:24:55Z</time>
      </trkpt>
      <trkpt lat="43.30366" lon="6.55076">
        <ele>235.8</ele>
        <time>2022-02-04T16:24:56Z</time>
      </trkpt>
      <trkpt lat="43.30369" lon="6.55075">
        <ele>234.6</ele>
        <time>2022-02-04T16:24:57Z</time>
      </trkpt>
      <trkpt lat="43.30371" lon="6.55075">
        <ele>233.8</ele>
        <time>2022-02-04T16:24:58Z</time>
      </trkpt>
      <trkpt lat="43.30373" lon="6.55078">
        <ele>233.2</ele>
        <time>2022-02-04T16:24:59Z</time>
      </trkpt>
      <trkpt lat="43.30374" lon="6.55084">
        <ele>231.6</ele>
        <time>2022-02-04T16:25:00Z</time>
      </trkpt>
      <trkpt lat="43.30373" lon="6.55091">
        <ele>230.4</ele>
        <time>2022-02-04T16:25:01Z</time>
      </trkpt>
      <trkpt lat="43.30371" lon="6.55098">
        <ele>229.2</ele>
        <time>2022-02-04T16:25:02Z</time>
      </trkpt>
      <trkpt lat="43.30369" lon="6.55104">
        <ele>228.2</ele>
        <time>2022-02-04T16:25:03Z</time>
      </trkpt>
      <trkpt lat="43.3037" lon="6.55109">
        <ele>227.4</ele>
        <time>2022-02-04T16:25:04Z</time>
      </trkpt>
      <trkpt lat="43.30371" lon="6.55111">
        <ele>226.8</ele>
        <time>2022-02-04T16:25:05Z</time>
      </trkpt>
      <trkpt lat="43.30374" lon="6.5511">
        <ele>225.8</ele>
        <time>2022-02-04T16:25:06Z</time>
      </trkpt>
      <trkpt lat="43.30377" lon="6.55108">
        <ele>225</ele>
        <time>2022-02-04T16:25:07Z</time>
      </trkpt>
      <trkpt lat="43.30381" lon="6.55103">
        <ele>224.4</ele>
        <time>2022-02-04T16:25:08Z</time>
      </trkpt>
      <trkpt lat="43.30386" lon="6.55098">
        <ele>223.4</ele>
        <time>2022-02-04T16:25:09Z</time>
      </trkpt>
      <trkpt lat="43.3039" lon="6.55098">
        <ele>222.8</ele>
        <time>2022-02-04T16:25:10Z</time>
      </trkpt>
      <trkpt lat="43.30394" lon="6.55101">
        <ele>222</ele>
        <time>2022-02-04T16:25:11Z</time>
      </trkpt>
      <trkpt lat="43.30397" lon="6.55107">
        <ele>220.6</ele>
        <time>2022-02-04T16:25:12Z</time>
      </trkpt>
      <trkpt lat="43.30402" lon="6.5511">
        <ele>220</ele>
        <time>2022-02-04T16:25:13Z</time>
      </trkpt>
      <trkpt lat="43.30406" lon="6.55112">
        <ele>219.2</ele>
        <time>2022-02-04T16:25:14Z</time>
      </trkpt>
      <trkpt lat="43.30412" lon="6.55115">
        <ele>218.4</ele>
        <time>2022-02-04T16:25:15Z</time>
      </trkpt>
      <trkpt lat="43.30416" lon="6.55118">
        <ele>217.8</ele>
        <time>2022-02-04T16:25:16Z</time>
      </trkpt>
      <trkpt lat="43.3042" lon="6.55118">
        <ele>217.6</ele>
        <time>2022-02-04T16:25:17Z</time>
      </trkpt>
      <trkpt lat="43.30425" lon="6.55117">
        <ele>217</ele>
        <time>2022-02-04T16:25:18Z</time>
      </trkpt>
      <trkpt lat="43.30429" lon="6.55115">
        <ele>216.6</ele>
        <time>2022-02-04T16:25:19Z</time>
      </trkpt>
      <trkpt lat="43.30433" lon="6.55114">
        <ele>216.4</ele>
        <time>2022-02-04T16:25:20Z</time>
      </trkpt>
      <trkpt lat="43.30437" lon="6.55113">
        <ele>216.2</ele>
        <time>2022-02-04T16:25:21Z</time>
      </trkpt>
      <trkpt lat="43.30442" lon="6.55112">
        <ele>216.2</ele>
        <time>2022-02-04T16:25:22Z</time>
      </trkpt>
      <trkpt lat="43.30445" lon="6.5511">
        <ele>216.2</ele>
        <time>2022-02-04T16:25:23Z</time>
      </trkpt>
      <trkpt lat="43.30449" lon="6.55106">
        <ele>216.2</ele>
        <time>2022-02-04T16:25:24Z</time>
      </trkpt>
      <trkpt lat="43.30453" lon="6.55101">
        <ele>216.2</ele>
        <time>2022-02-04T16:25:25Z</time>
      </trkpt>
      <trkpt lat="43.30457" lon="6.55097">
        <ele>216.4</ele>
        <time>2022-02-04T16:25:26Z</time>
      </trkpt>
      <trkpt lat="43.30462" lon="6.55092">
        <ele>216.4</ele>
        <time>2022-02-04T16:25:27Z</time>
      </trkpt>
      <trkpt lat="43.30467" lon="6.55091">
        <ele>216.4</ele>
        <time>2022-02-04T16:25:28Z</time>
      </trkpt>
      <trkpt lat="43.30473" lon="6.55093">
        <ele>216.2</ele>
        <time>2022-02-04T16:25:29Z</time>
      </trkpt>
      <trkpt lat="43.30479" lon="6.55098">
        <ele>216.2</ele>
        <time>2022-02-04T16:25:30Z</time>
      </trkpt>
      <trkpt lat="43.30484" lon="6.55103">
        <ele>215.8</ele>
        <time>2022-02-04T16:25:31Z</time>
      </trkpt>
      <trkpt lat="43.30488" lon="6.55106">
        <ele>214</ele>
        <time>2022-02-04T16:25:32Z</time>
      </trkpt>
      <trkpt lat="43.30493" lon="6.55107">
        <ele>212.4</ele>
        <time>2022-02-04T16:25:33Z</time>
      </trkpt>
      <trkpt lat="43.30497" lon="6.55107">
        <ele>211.6</ele>
        <time>2022-02-04T16:25:34Z</time>
      </trkpt>
      <trkpt lat="43.30501" lon="6.55106">
        <ele>211</ele>
        <time>2022-02-04T16:25:35Z</time>
      </trkpt>
      <trkpt lat="43.30504" lon="6.55105">
        <ele>210.6</ele>
        <time>2022-02-04T16:25:36Z</time>
      </trkpt>
      <trkpt lat="43.30509" lon="6.55104">
        <ele>210.2</ele>
        <time>2022-02-04T16:25:37Z</time>
      </trkpt>
      <trkpt lat="43.30511" lon="6.55103">
        <ele>209.8</ele>
        <time>2022-02-04T16:25:38Z</time>
      </trkpt>
      <trkpt lat="43.30514" lon="6.55102">
        <ele>209.6</ele>
        <time>2022-02-04T16:25:39Z</time>
      </trkpt>
      <trkpt lat="43.30516" lon="6.551">
        <ele>209.4</ele>
        <time>2022-02-04T16:25:40Z</time>
      </trkpt>
      <trkpt lat="43.30519" lon="6.55099">
        <ele>209.4</ele>
        <time>2022-02-04T16:25:41Z</time>
      </trkpt>
      <trkpt lat="43.30523" lon="6.55098">
        <ele>209.2</ele>
        <time>2022-02-04T16:25:42Z</time>
      </trkpt>
      <trkpt lat="43.30527" lon="6.55098">
        <ele>209.2</ele>
        <time>2022-02-04T16:25:43Z</time>
      </trkpt>
      <trkpt lat="43.30531" lon="6.55098">
        <ele>209</ele>
        <time>2022-02-04T16:25:44Z</time>
      </trkpt>
      <trkpt lat="43.30534" lon="6.55098">
        <ele>209</ele>
        <time>2022-02-04T16:25:45Z</time>
      </trkpt>
      <trkpt lat="43.30537" lon="6.55097">
        <ele>209</ele>
        <time>2022-02-04T16:25:46Z</time>
      </trkpt>
      <trkpt lat="43.30541" lon="6.55096">
        <ele>209</ele>
        <time>2022-02-04T16:25:47Z</time>
      </trkpt>
      <trkpt lat="43.30545" lon="6.55096">
        <ele>209</ele>
        <time>2022-02-04T16:25:48Z</time>
      </trkpt>
      <trkpt lat="43.3055" lon="6.55097">
        <ele>208.8</ele>
        <time>2022-02-04T16:25:49Z</time>
      </trkpt>
      <trkpt lat="43.30554" lon="6.551">
        <ele>208.6</ele>
        <time>2022-02-04T16:25:50Z</time>
      </trkpt>
      <trkpt lat="43.30558" lon="6.55102">
        <ele>207.6</ele>
        <time>2022-02-04T16:25:51Z</time>
      </trkpt>
      <trkpt lat="43.30561" lon="6.55101">
        <ele>206.4</ele>
        <time>2022-02-04T16:25:52Z</time>
      </trkpt>
      <trkpt lat="43.30564" lon="6.55099">
        <ele>205.6</ele>
        <time>2022-02-04T16:25:53Z</time>
      </trkpt>
      <trkpt lat="43.30568" lon="6.55097">
        <ele>205</ele>
        <time>2022-02-04T16:25:54Z</time>
      </trkpt>
      <trkpt lat="43.30572" lon="6.55094">
        <ele>204.4</ele>
        <time>2022-02-04T16:25:55Z</time>
      </trkpt>
      <trkpt lat="43.30576" lon="6.55093">
        <ele>203.8</ele>
        <time>2022-02-04T16:25:56Z</time>
      </trkpt>
      <trkpt lat="43.30579" lon="6.55095">
        <ele>202.6</ele>
        <time>2022-02-04T16:25:57Z</time>
      </trkpt>
      <trkpt lat="43.3058" lon="6.55099">
        <ele>201.6</ele>
        <time>2022-02-04T16:25:58Z</time>
      </trkpt>
      <trkpt lat="43.30579" lon="6.55105">
        <ele>201</ele>
        <time>2022-02-04T16:25:59Z</time>
      </trkpt>
      <trkpt lat="43.30576" lon="6.55111">
        <ele>199.8</ele>
        <time>2022-02-04T16:26:00Z</time>
      </trkpt>
      <trkpt lat="43.30573" lon="6.55117">
        <ele>199.2</ele>
        <time>2022-02-04T16:26:01Z</time>
      </trkpt>
      <trkpt lat="43.30569" lon="6.55122">
        <ele>198.8</ele>
        <time>2022-02-04T16:26:02Z</time>
      </trkpt>
      <trkpt lat="43.30567" lon="6.55125">
        <ele>198.4</ele>
        <time>2022-02-04T16:26:03Z</time>
      </trkpt>
      <trkpt lat="43.30564" lon="6.55127">
        <ele>197.8</ele>
        <time>2022-02-04T16:26:04Z</time>
      </trkpt>
      <trkpt lat="43.30559" lon="6.5513">
        <ele>196.8</ele>
        <time>2022-02-04T16:26:05Z</time>
      </trkpt>
      <trkpt lat="43.30555" lon="6.55133">
        <ele>196.2</ele>
        <time>2022-02-04T16:26:06Z</time>
      </trkpt>
      <trkpt lat="43.30551" lon="6.55136">
        <ele>196</ele>
        <time>2022-02-04T16:26:07Z</time>
      </trkpt>
      <trkpt lat="43.30546" lon="6.55139">
        <ele>195.4</ele>
        <time>2022-02-04T16:26:08Z</time>
      </trkpt>
      <trkpt lat="43.30541" lon="6.55143">
        <ele>195</ele>
        <time>2022-02-04T16:26:09Z</time>
      </trkpt>
      <trkpt lat="43.30537" lon="6.55146">
        <ele>194.6</ele>
        <time>2022-02-04T16:26:10Z</time>
      </trkpt>
      <trkpt lat="43.30533" lon="6.55149">
        <ele>192.8</ele>
        <time>2022-02-04T16:26:11Z</time>
      </trkpt>
      <trkpt lat="43.30529" lon="6.55152">
        <ele>191.4</ele>
        <time>2022-02-04T16:26:12Z</time>
      </trkpt>
      <trkpt lat="43.30525" lon="6.55157">
        <ele>190.4</ele>
        <time>2022-02-04T16:26:13Z</time>
      </trkpt>
      <trkpt lat="43.3052" lon="6.55161">
        <ele>188</ele>
        <time>2022-02-04T16:26:14Z</time>
      </trkpt>
      <trkpt lat="43.30515" lon="6.55165">
        <ele>186.4</ele>
        <time>2022-02-04T16:26:15Z</time>
      </trkpt>
      <trkpt lat="43.30513" lon="6.55168">
        <ele>185.2</ele>
        <time>2022-02-04T16:26:16Z</time>
      </trkpt>
      <trkpt lat="43.30513" lon="6.5517">
        <ele>184.4</ele>
        <time>2022-02-04T16:26:17Z</time>
      </trkpt>
      <trkpt lat="43.30514" lon="6.5517">
        <ele>184</ele>
        <time>2022-02-04T16:26:18Z</time>
      </trkpt>
      <trkpt lat="43.30516" lon="6.5517">
        <ele>183.8</ele>
        <time>2022-02-04T16:26:19Z</time>
      </trkpt>
      <trkpt lat="43.3052" lon="6.5517">
        <ele>183.6</ele>
        <time>2022-02-04T16:26:20Z</time>
      </trkpt>
      <trkpt lat="43.30525" lon="6.5517">
        <ele>183.4</ele>
        <time>2022-02-04T16:26:21Z</time>
      </trkpt>
      <trkpt lat="43.3053" lon="6.5517">
        <ele>183.4</ele>
        <time>2022-02-04T16:26:22Z</time>
      </trkpt>
      <trkpt lat="43.30533" lon="6.55171">
        <ele>183.6</ele>
        <time>2022-02-04T16:26:23Z</time>
      </trkpt>
      <trkpt lat="43.30537" lon="6.55171">
        <ele>183.8</ele>
        <time>2022-02-04T16:26:24Z</time>
      </trkpt>
      <trkpt lat="43.30541" lon="6.55171">
        <ele>183.8</ele>
        <time>2022-02-04T16:26:25Z</time>
      </trkpt>
      <trkpt lat="43.30545" lon="6.55171">
        <ele>184</ele>
        <time>2022-02-04T16:26:26Z</time>
      </trkpt>
      <trkpt lat="43.30549" lon="6.55171">
        <ele>184</ele>
        <time>2022-02-04T16:26:27Z</time>
      </trkpt>
      <trkpt lat="43.30552" lon="6.55169">
        <ele>183.8</ele>
        <time>2022-02-04T16:26:28Z</time>
      </trkpt>
      <trkpt lat="43.30555" lon="6.55168">
        <ele>183.6</ele>
        <time>2022-02-04T16:26:29Z</time>
      </trkpt>
      <trkpt lat="43.30558" lon="6.55167">
        <ele>183.4</ele>
        <time>2022-02-04T16:26:30Z</time>
      </trkpt>
      <trkpt lat="43.30562" lon="6.55166">
        <ele>183.2</ele>
        <time>2022-02-04T16:26:31Z</time>
      </trkpt>
      <trkpt lat="43.30565" lon="6.55167">
        <ele>183</ele>
        <time>2022-02-04T16:26:32Z</time>
      </trkpt>
      <trkpt lat="43.30568" lon="6.55171">
        <ele>183</ele>
        <time>2022-02-04T16:26:33Z</time>
      </trkpt>
      <trkpt lat="43.3057" lon="6.55176">
        <ele>183</ele>
        <time>2022-02-04T16:26:34Z</time>
      </trkpt>
      <trkpt lat="43.30571" lon="6.55183">
        <ele>181.8</ele>
        <time>2022-02-04T16:26:35Z</time>
      </trkpt>
      <trkpt lat="43.30573" lon="6.5519">
        <ele>180.6</ele>
        <time>2022-02-04T16:26:36Z</time>
      </trkpt>
      <trkpt lat="43.30577" lon="6.55197">
        <ele>179.6</ele>
        <time>2022-02-04T16:26:37Z</time>
      </trkpt>
      <trkpt lat="43.3058" lon="6.55203">
        <ele>177.6</ele>
        <time>2022-02-04T16:26:38Z</time>
      </trkpt>
      <trkpt lat="43.30583" lon="6.55206">
        <ele>176.6</ele>
        <time>2022-02-04T16:26:39Z</time>
      </trkpt>
      <trkpt lat="43.30586" lon="6.55208">
        <ele>175.8</ele>
        <time>2022-02-04T16:26:40Z</time>
      </trkpt>
      <trkpt lat="43.30589" lon="6.5521">
        <ele>175.2</ele>
        <time>2022-02-04T16:26:41Z</time>
      </trkpt>
      <trkpt lat="43.30591" lon="6.55213">
        <ele>174.6</ele>
        <time>2022-02-04T16:26:42Z</time>
      </trkpt>
      <trkpt lat="43.30592" lon="6.55218">
        <ele>173.8</ele>
        <time>2022-02-04T16:26:43Z</time>
      </trkpt>
      <trkpt lat="43.3059" lon="6.55221">
        <ele>173.2</ele>
        <time>2022-02-04T16:26:44Z</time>
      </trkpt>
      <trkpt lat="43.30587" lon="6.55223">
        <ele>172.6</ele>
        <time>2022-02-04T16:26:45Z</time>
      </trkpt>
      <trkpt lat="43.30583" lon="6.55223">
        <ele>172</ele>
        <time>2022-02-04T16:26:46Z</time>
      </trkpt>
      <trkpt lat="43.30578" lon="6.55225">
        <ele>171.8</ele>
        <time>2022-02-04T16:26:47Z</time>
      </trkpt>
      <trkpt lat="43.30576" lon="6.55229">
        <ele>171.4</ele>
        <time>2022-02-04T16:26:48Z</time>
      </trkpt>
      <trkpt lat="43.30575" lon="6.55232">
        <ele>171</ele>
        <time>2022-02-04T16:26:49Z</time>
      </trkpt>
      <trkpt lat="43.30577" lon="6.55235">
        <ele>170.6</ele>
        <time>2022-02-04T16:26:50Z</time>
      </trkpt>
      <trkpt lat="43.3058" lon="6.55237">
        <ele>170</ele>
        <time>2022-02-04T16:26:51Z</time>
      </trkpt>
      <trkpt lat="43.30584" lon="6.55238">
        <ele>169.6</ele>
        <time>2022-02-04T16:26:52Z</time>
      </trkpt>
      <trkpt lat="43.3059" lon="6.55236">
        <ele>169.2</ele>
        <time>2022-02-04T16:26:53Z</time>
      </trkpt>
      <trkpt lat="43.30595" lon="6.55235">
        <ele>169.2</ele>
        <time>2022-02-04T16:26:54Z</time>
      </trkpt>
      <trkpt lat="43.306" lon="6.55232">
        <ele>169</ele>
        <time>2022-02-04T16:26:55Z</time>
      </trkpt>
      <trkpt lat="43.30602" lon="6.55231">
        <ele>169.4</ele>
        <time>2022-02-04T16:26:56Z</time>
      </trkpt>
      <trkpt lat="43.30603" lon="6.55231">
        <ele>169.4</ele>
        <time>2022-02-04T16:26:57Z</time>
      </trkpt>
      <trkpt lat="43.30603" lon="6.55231">
        <ele>169.6</ele>
        <time>2022-02-04T16:26:58Z</time>
      </trkpt>
      <trkpt lat="43.30603" lon="6.55231">
        <ele>169.6</ele>
        <time>2022-02-04T16:26:59Z</time>
      </trkpt>
      <trkpt lat="43.30603" lon="6.55231">
        <ele>169.6</ele>
        <time>2022-02-04T16:27:00Z</time>
      </trkpt>
      <trkpt lat="43.30603" lon="6.55233">
        <ele>169.6</ele>
        <time>2022-02-04T16:27:01Z</time>
      </trkpt>
      <trkpt lat="43.30604" lon="6.55233">
        <ele>169.6</ele>
        <time>2022-02-04T16:27:02Z</time>
      </trkpt>
      <trkpt lat="43.30604" lon="6.55233">
        <ele>169.6</ele>
        <time>2022-02-04T16:27:03Z</time>
      </trkpt>
      <trkpt lat="43.30604" lon="6.55233">
        <ele>169.6</ele>
        <time>2022-02-04T16:27:04Z</time>
      </trkpt>
      <trkpt lat="43.30604" lon="6.55233">
        <ele>169.4</ele>
        <time>2022-02-04T16:27:05Z</time>
      </trkpt>
      <trkpt lat="43.30604" lon="6.55233">
        <ele>169.4</ele>
        <time>2022-02-04T16:27:06Z</time>
      </trkpt>
      <trkpt lat="43.30604" lon="6.55233">
        <ele>169.4</ele>
        <time>2022-02-04T16:27:07Z</time>
      </trkpt>
      <trkpt lat="43.30604" lon="6.55233">
        <ele>169.4</ele>
        <time>2022-02-04T16:27:08Z</time>
      </trkpt>
      <trkpt lat="43.30604" lon="6.55233">
        <ele>169.2</ele>
        <time>2022-02-04T16:27:09Z</time>
      </trkpt>
      <trkpt lat="43.30604" lon="6.55233">
        <ele>169.4</ele>
        <time>2022-02-04T16:27:10Z</time>
      </trkpt>
      <trkpt lat="43.30604" lon="6.55233">
        <ele>169.4</ele>
        <time>2022-02-04T16:27:11Z</time>
      </trkpt>
      <trkpt lat="43.30604" lon="6.55233">
        <ele>169.4</ele>
        <time>2022-02-04T16:27:12Z</time>
      </trkpt>
      <trkpt lat="43.30604" lon="6.55233">
        <ele>169.4</ele>
        <time>2022-02-04T16:27:13Z</time>
      </trkpt>
      <trkpt lat="43.30604" lon="6.55233">
        <ele>169.4</ele>
        <time>2022-02-04T16:27:14Z</time>
      </trkpt>
      <trkpt lat="43.30604" lon="6.55233">
        <ele>169.4</ele>
        <time>2022-02-04T16:27:15Z</time>
      </trkpt>
      <trkpt lat="43.30604" lon="6.55233">
        <ele>169.4</ele>
        <time>2022-02-04T16:27:16Z</time>
      </trkpt>
      <trkpt lat="43.30604" lon="6.55233">
        <ele>169.4</ele>
        <time>2022-02-04T16:27:17Z</time>
      </trkpt>
      <trkpt lat="43.30604" lon="6.55233">
        <ele>169.4</ele>
        <time>2022-02-04T16:27:18Z</time>
      </trkpt>
      <trkpt lat="43.30604" lon="6.55233">
        <ele>169.4</ele>
        <time>2022-02-04T16:27:19Z</time>
      </trkpt>
      <trkpt lat="43.30604" lon="6.55233">
        <ele>169.4</ele>
        <time>2022-02-04T16:27:20Z</time>
      </trkpt>
      <trkpt lat="43.30604" lon="6.55233">
        <ele>169.4</ele>
        <time>2022-02-04T16:27:21Z</time>
      </trkpt>
      <trkpt lat="43.30604" lon="6.55233">
        <ele>169.2</ele>
        <time>2022-02-04T16:27:22Z</time>
      </trkpt>
      <trkpt lat="43.30604" lon="6.55233">
        <ele>169.2</ele>
        <time>2022-02-04T16:27:23Z</time>
      </trkpt>
      <trkpt lat="43.30604" lon="6.55233">
        <ele>169.2</ele>
        <time>2022-02-04T16:27:24Z</time>
      </trkpt>
      <trkpt lat="43.30604" lon="6.55233">
        <ele>169.2</ele>
        <time>2022-02-04T16:27:25Z</time>
      </trkpt>
      <trkpt lat="43.30603" lon="6.55233">
        <ele>169.2</ele>
        <time>2022-02-04T16:27:26Z</time>
      </trkpt>
      <trkpt lat="43.30603" lon="6.55233">
        <ele>169.2</ele>
        <time>2022-02-04T16:27:27Z</time>
      </trkpt>
      <trkpt lat="43.30603" lon="6.55233">
        <ele>169.2</ele>
        <time>2022-02-04T16:27:28Z</time>
      </trkpt>
      <trkpt lat="43.30603" lon="6.55233">
        <ele>169</ele>
        <time>2022-02-04T16:27:29Z</time>
      </trkpt>
      <trkpt lat="43.30603" lon="6.55233">
        <ele>169</ele>
        <time>2022-02-04T16:27:30Z</time>
      </trkpt>
      <trkpt lat="43.30603" lon="6.55233">
        <ele>169</ele>
        <time>2022-02-04T16:27:31Z</time>
      </trkpt>
      <trkpt lat="43.30603" lon="6.55233">
        <ele>169</ele>
        <time>2022-02-04T16:27:32Z</time>
      </trkpt>
      <trkpt lat="43.30603" lon="6.55233">
        <ele>168.8</ele>
        <time>2022-02-04T16:27:33Z</time>
      </trkpt>
      <trkpt lat="43.30603" lon="6.55233">
        <ele>168.8</ele>
        <time>2022-02-04T16:27:34Z</time>
      </trkpt>
      <trkpt lat="43.30603" lon="6.55233">
        <ele>168.6</ele>
        <time>2022-02-04T16:27:35Z</time>
      </trkpt>
      <trkpt lat="43.30603" lon="6.55233">
        <ele>168.4</ele>
        <time>2022-02-04T16:27:36Z</time>
      </trkpt>
      <trkpt lat="43.30603" lon="6.55233">
        <ele>168.4</ele>
        <time>2022-02-04T16:27:37Z</time>
      </trkpt>
      <trkpt lat="43.30603" lon="6.55233">
        <ele>168.4</ele>
        <time>2022-02-04T16:27:38Z</time>
      </trkpt>
      <trkpt lat="43.30603" lon="6.55233">
        <ele>168.4</ele>
        <time>2022-02-04T16:27:39Z</time>
      </trkpt>
      <trkpt lat="43.30603" lon="6.55233">
        <ele>168.2</ele>
        <time>2022-02-04T16:27:40Z</time>
      </trkpt>
      <trkpt lat="43.30603" lon="6.55233">
        <ele>168.2</ele>
        <time>2022-02-04T16:27:41Z</time>
      </trkpt>
      <trkpt lat="43.30603" lon="6.55233">
        <ele>168.2</ele>
        <time>2022-02-04T16:27:42Z</time>
      </trkpt>
      <trkpt lat="43.30603" lon="6.55233">
        <ele>168.2</ele>
        <time>2022-02-04T16:27:43Z</time>
      </trkpt>
      <trkpt lat="43.30603" lon="6.55233">
        <ele>168.2</ele>
        <time>2022-02-04T16:27:44Z</time>
      </trkpt>
      <trkpt lat="43.30603" lon="6.55233">
        <ele>168.2</ele>
        <time>2022-02-04T16:27:45Z</time>
      </trkpt>
      <trkpt lat="43.30603" lon="6.55233">
        <ele>168.2</ele>
        <time>2022-02-04T16:27:46Z</time>
      </trkpt>
      <trkpt lat="43.30605" lon="6.55232">
        <ele>168.2</ele>
        <time>2022-02-04T16:27:47Z</time>
      </trkpt>
      <trkpt lat="43.30607" lon="6.55231">
        <ele>168.2</ele>
        <time>2022-02-04T16:27:48Z</time>
      </trkpt>
      <trkpt lat="43.30609" lon="6.55231">
        <ele>168.2</ele>
        <time>2022-02-04T16:27:49Z</time>
      </trkpt>
      <trkpt lat="43.3061" lon="6.5523">
        <ele>168.2</ele>
        <time>2022-02-04T16:27:50Z</time>
      </trkpt>
      <trkpt lat="43.30612" lon="6.55228">
        <ele>168.2</ele>
        <time>2022-02-04T16:27:51Z</time>
      </trkpt>
      <trkpt lat="43.30613" lon="6.55227">
        <ele>168.2</ele>
        <time>2022-02-04T16:27:52Z</time>
      </trkpt>
      <trkpt lat="43.30615" lon="6.55226">
        <ele>168.4</ele>
        <time>2022-02-04T16:27:53Z</time>
      </trkpt>
      <trkpt lat="43.30618" lon="6.55225">
        <ele>168.4</ele>
        <time>2022-02-04T16:27:54Z</time>
      </trkpt>
      <trkpt lat="43.30621" lon="6.55223">
        <ele>168.4</ele>
        <time>2022-02-04T16:27:55Z</time>
      </trkpt>
      <trkpt lat="43.30623" lon="6.55221">
        <ele>168.6</ele>
        <time>2022-02-04T16:27:56Z</time>
      </trkpt>
      <trkpt lat="43.30627" lon="6.55218">
        <ele>169</ele>
        <time>2022-02-04T16:27:57Z</time>
      </trkpt>
      <trkpt lat="43.3063" lon="6.55215">
        <ele>169.2</ele>
        <time>2022-02-04T16:27:58Z</time>
      </trkpt>
      <trkpt lat="43.30634" lon="6.55213">
        <ele>169.6</ele>
        <time>2022-02-04T16:27:59Z</time>
      </trkpt>
      <trkpt lat="43.30639" lon="6.5521">
        <ele>169.8</ele>
        <time>2022-02-04T16:28:00Z</time>
      </trkpt>
      <trkpt lat="43.30643" lon="6.55208">
        <ele>170</ele>
        <time>2022-02-04T16:28:01Z</time>
      </trkpt>
      <trkpt lat="43.30648" lon="6.55206">
        <ele>170</ele>
        <time>2022-02-04T16:28:02Z</time>
      </trkpt>
      <trkpt lat="43.30653" lon="6.55206">
        <ele>170</ele>
        <time>2022-02-04T16:28:03Z</time>
      </trkpt>
      <trkpt lat="43.30658" lon="6.55206">
        <ele>170.2</ele>
        <time>2022-02-04T16:28:04Z</time>
      </trkpt>
      <trkpt lat="43.30664" lon="6.55208">
        <ele>170.2</ele>
        <time>2022-02-04T16:28:05Z</time>
      </trkpt>
      <trkpt lat="43.30668" lon="6.5521">
        <ele>170.2</ele>
        <time>2022-02-04T16:28:06Z</time>
      </trkpt>
      <trkpt lat="43.30673" lon="6.55213">
        <ele>170.2</ele>
        <time>2022-02-04T16:28:07Z</time>
      </trkpt>
      <trkpt lat="43.30677" lon="6.55216">
        <ele>170.4</ele>
        <time>2022-02-04T16:28:08Z</time>
      </trkpt>
      <trkpt lat="43.30682" lon="6.55219">
        <ele>170.8</ele>
        <time>2022-02-04T16:28:09Z</time>
      </trkpt>
      <trkpt lat="43.30686" lon="6.55221">
        <ele>171.2</ele>
        <time>2022-02-04T16:28:10Z</time>
      </trkpt>
      <trkpt lat="43.30691" lon="6.55223">
        <ele>171.4</ele>
        <time>2022-02-04T16:28:11Z</time>
      </trkpt>
      <trkpt lat="43.30696" lon="6.55224">
        <ele>171.4</ele>
        <time>2022-02-04T16:28:12Z</time>
      </trkpt>
      <trkpt lat="43.30701" lon="6.55225">
        <ele>171.6</ele>
        <time>2022-02-04T16:28:13Z</time>
      </trkpt>
      <trkpt lat="43.30705" lon="6.55224">
        <ele>171.6</ele>
        <time>2022-02-04T16:28:14Z</time>
      </trkpt>
      <trkpt lat="43.3071" lon="6.55223">
        <ele>171.8</ele>
        <time>2022-02-04T16:28:15Z</time>
      </trkpt>
      <trkpt lat="43.30715" lon="6.55222">
        <ele>172</ele>
        <time>2022-02-04T16:28:16Z</time>
      </trkpt>
      <trkpt lat="43.30719" lon="6.5522">
        <ele>172</ele>
        <time>2022-02-04T16:28:17Z</time>
      </trkpt>
      <trkpt lat="43.30723" lon="6.55217">
        <ele>172.2</ele>
        <time>2022-02-04T16:28:18Z</time>
      </trkpt>
      <trkpt lat="43.30727" lon="6.55213">
        <ele>172.2</ele>
        <time>2022-02-04T16:28:19Z</time>
      </trkpt>
      <trkpt lat="43.30731" lon="6.5521">
        <ele>172.2</ele>
        <time>2022-02-04T16:28:20Z</time>
      </trkpt>
      <trkpt lat="43.30735" lon="6.55207">
        <ele>172.2</ele>
        <time>2022-02-04T16:28:21Z</time>
      </trkpt>
      <trkpt lat="43.30738" lon="6.55203">
        <ele>171.8</ele>
        <time>2022-02-04T16:28:22Z</time>
      </trkpt>
      <trkpt lat="43.30742" lon="6.552">
        <ele>171.6</ele>
        <time>2022-02-04T16:28:23Z</time>
      </trkpt>
      <trkpt lat="43.30745" lon="6.55197">
        <ele>171.4</ele>
        <time>2022-02-04T16:28:24Z</time>
      </trkpt>
      <trkpt lat="43.30749" lon="6.55194">
        <ele>171.2</ele>
        <time>2022-02-04T16:28:25Z</time>
      </trkpt>
      <trkpt lat="43.30753" lon="6.5519">
        <ele>171.2</ele>
        <time>2022-02-04T16:28:26Z</time>
      </trkpt>
      <trkpt lat="43.30757" lon="6.55187">
        <ele>171.4</ele>
        <time>2022-02-04T16:28:27Z</time>
      </trkpt>
      <trkpt lat="43.30761" lon="6.55184">
        <ele>171.4</ele>
        <time>2022-02-04T16:28:28Z</time>
      </trkpt>
      <trkpt lat="43.30764" lon="6.5518">
        <ele>171.4</ele>
        <time>2022-02-04T16:28:29Z</time>
      </trkpt>
      <trkpt lat="43.30768" lon="6.55177">
        <ele>173</ele>
        <time>2022-02-04T16:28:30Z</time>
      </trkpt>
      <trkpt lat="43.30772" lon="6.55173">
        <ele>173.8</ele>
        <time>2022-02-04T16:28:31Z</time>
      </trkpt>
      <trkpt lat="43.30776" lon="6.55169">
        <ele>174.2</ele>
        <time>2022-02-04T16:28:32Z</time>
      </trkpt>
      <trkpt lat="43.30779" lon="6.55165">
        <ele>174.4</ele>
        <time>2022-02-04T16:28:33Z</time>
      </trkpt>
      <trkpt lat="43.30783" lon="6.5516">
        <ele>174.6</ele>
        <time>2022-02-04T16:28:34Z</time>
      </trkpt>
      <trkpt lat="43.30787" lon="6.55156">
        <ele>174.6</ele>
        <time>2022-02-04T16:28:35Z</time>
      </trkpt>
      <trkpt lat="43.3079" lon="6.55152">
        <ele>174.6</ele>
        <time>2022-02-04T16:28:36Z</time>
      </trkpt>
      <trkpt lat="43.30794" lon="6.55148">
        <ele>174.6</ele>
        <time>2022-02-04T16:28:37Z</time>
      </trkpt>
      <trkpt lat="43.30797" lon="6.55145">
        <ele>174.6</ele>
        <time>2022-02-04T16:28:38Z</time>
      </trkpt>
      <trkpt lat="43.308" lon="6.55141">
        <ele>174.6</ele>
        <time>2022-02-04T16:28:39Z</time>
      </trkpt>
      <trkpt lat="43.30804" lon="6.55138">
        <ele>174.6</ele>
        <time>2022-02-04T16:28:40Z</time>
      </trkpt>
      <trkpt lat="43.30807" lon="6.55135">
        <ele>174.6</ele>
        <time>2022-02-04T16:28:41Z</time>
      </trkpt>
      <trkpt lat="43.3081" lon="6.55132">
        <ele>174.6</ele>
        <time>2022-02-04T16:28:42Z</time>
      </trkpt>
      <trkpt lat="43.30813" lon="6.55128">
        <ele>174.6</ele>
        <time>2022-02-04T16:28:43Z</time>
      </trkpt>
      <trkpt lat="43.30816" lon="6.55125">
        <ele>174.6</ele>
        <time>2022-02-04T16:28:44Z</time>
      </trkpt>
      <trkpt lat="43.30819" lon="6.55121">
        <ele>174.6</ele>
        <time>2022-02-04T16:28:45Z</time>
      </trkpt>
      <trkpt lat="43.30823" lon="6.55117">
        <ele>174.6</ele>
        <time>2022-02-04T16:28:46Z</time>
      </trkpt>
      <trkpt lat="43.30827" lon="6.55113">
        <ele>174.6</ele>
        <time>2022-02-04T16:28:47Z</time>
      </trkpt>
      <trkpt lat="43.3083" lon="6.55109">
        <ele>174.6</ele>
        <time>2022-02-04T16:28:48Z</time>
      </trkpt>
      <trkpt lat="43.30834" lon="6.55106">
        <ele>174.6</ele>
        <time>2022-02-04T16:28:49Z</time>
      </trkpt>
      <trkpt lat="43.30838" lon="6.55102">
        <ele>174.4</ele>
        <time>2022-02-04T16:28:50Z</time>
      </trkpt>
      <trkpt lat="43.30842" lon="6.55098">
        <ele>174.2</ele>
        <time>2022-02-04T16:28:51Z</time>
      </trkpt>
      <trkpt lat="43.30846" lon="6.55094">
        <ele>174</ele>
        <time>2022-02-04T16:28:52Z</time>
      </trkpt>
      <trkpt lat="43.3085" lon="6.5509">
        <ele>173.8</ele>
        <time>2022-02-04T16:28:53Z</time>
      </trkpt>
      <trkpt lat="43.30854" lon="6.55085">
        <ele>173.8</ele>
        <time>2022-02-04T16:28:54Z</time>
      </trkpt>
      <trkpt lat="43.30858" lon="6.55081">
        <ele>173.6</ele>
        <time>2022-02-04T16:28:55Z</time>
      </trkpt>
      <trkpt lat="43.30862" lon="6.55076">
        <ele>173.6</ele>
        <time>2022-02-04T16:28:56Z</time>
      </trkpt>
      <trkpt lat="43.30867" lon="6.55072">
        <ele>173.4</ele>
        <time>2022-02-04T16:28:57Z</time>
      </trkpt>
      <trkpt lat="43.30871" lon="6.55068">
        <ele>173.4</ele>
        <time>2022-02-04T16:28:58Z</time>
      </trkpt>
      <trkpt lat="43.30874" lon="6.55063">
        <ele>172.8</ele>
        <time>2022-02-04T16:28:59Z</time>
      </trkpt>
      <trkpt lat="43.30878" lon="6.55059">
        <ele>172.2</ele>
        <time>2022-02-04T16:29:00Z</time>
      </trkpt>
      <trkpt lat="43.30882" lon="6.55055">
        <ele>171.8</ele>
        <time>2022-02-04T16:29:01Z</time>
      </trkpt>
      <trkpt lat="43.30886" lon="6.55052">
        <ele>171.4</ele>
        <time>2022-02-04T16:29:02Z</time>
      </trkpt>
      <trkpt lat="43.30889" lon="6.55048">
        <ele>171.2</ele>
        <time>2022-02-04T16:29:03Z</time>
      </trkpt>
      <trkpt lat="43.30893" lon="6.55044">
        <ele>171.2</ele>
        <time>2022-02-04T16:29:04Z</time>
      </trkpt>
      <trkpt lat="43.30897" lon="6.5504">
        <ele>171</ele>
        <time>2022-02-04T16:29:05Z</time>
      </trkpt>
      <trkpt lat="43.30899" lon="6.55035">
        <ele>170.8</ele>
        <time>2022-02-04T16:29:06Z</time>
      </trkpt>
      <trkpt lat="43.309" lon="6.55031">
        <ele>170.8</ele>
        <time>2022-02-04T16:29:07Z</time>
      </trkpt>
      <trkpt lat="43.30899" lon="6.55026">
        <ele>170.8</ele>
        <time>2022-02-04T16:29:08Z</time>
      </trkpt>
      <trkpt lat="43.30897" lon="6.55022">
        <ele>170.8</ele>
        <time>2022-02-04T16:29:09Z</time>
      </trkpt>
      <trkpt lat="43.30896" lon="6.55017">
        <ele>170.8</ele>
        <time>2022-02-04T16:29:10Z</time>
      </trkpt>
      <trkpt lat="43.30895" lon="6.55012">
        <ele>171.2</ele>
        <time>2022-02-04T16:29:11Z</time>
      </trkpt>
      <trkpt lat="43.30896" lon="6.55007">
        <ele>171.6</ele>
        <time>2022-02-04T16:29:12Z</time>
      </trkpt>
      <trkpt lat="43.30897" lon="6.55003">
        <ele>172.2</ele>
        <time>2022-02-04T16:29:13Z</time>
      </trkpt>
      <trkpt lat="43.30898" lon="6.54999">
        <ele>172.4</ele>
        <time>2022-02-04T16:29:14Z</time>
      </trkpt>
      <trkpt lat="43.309" lon="6.54995">
        <ele>172.8</ele>
        <time>2022-02-04T16:29:15Z</time>
      </trkpt>
      <trkpt lat="43.30904" lon="6.54992">
        <ele>173</ele>
        <time>2022-02-04T16:29:16Z</time>
      </trkpt>
      <trkpt lat="43.30907" lon="6.54989">
        <ele>173</ele>
        <time>2022-02-04T16:29:17Z</time>
      </trkpt>
      <trkpt lat="43.30911" lon="6.54986">
        <ele>173.2</ele>
        <time>2022-02-04T16:29:18Z</time>
      </trkpt>
      <trkpt lat="43.30914" lon="6.54983">
        <ele>173.4</ele>
        <time>2022-02-04T16:29:19Z</time>
      </trkpt>
      <trkpt lat="43.30918" lon="6.54981">
        <ele>173.6</ele>
        <time>2022-02-04T16:29:20Z</time>
      </trkpt>
      <trkpt lat="43.30921" lon="6.54978">
        <ele>173.8</ele>
        <time>2022-02-04T16:29:21Z</time>
      </trkpt>
      <trkpt lat="43.30923" lon="6.54975">
        <ele>174</ele>
        <time>2022-02-04T16:29:22Z</time>
      </trkpt>
      <trkpt lat="43.30925" lon="6.5497">
        <ele>174.2</ele>
        <time>2022-02-04T16:29:23Z</time>
      </trkpt>
      <trkpt lat="43.30926" lon="6.54966">
        <ele>174.4</ele>
        <time>2022-02-04T16:29:24Z</time>
      </trkpt>
      <trkpt lat="43.30927" lon="6.54961">
        <ele>174.8</ele>
        <time>2022-02-04T16:29:25Z</time>
      </trkpt>
      <trkpt lat="43.30928" lon="6.54956">
        <ele>175.4</ele>
        <time>2022-02-04T16:29:26Z</time>
      </trkpt>
      <trkpt lat="43.30929" lon="6.54951">
        <ele>175.8</ele>
        <time>2022-02-04T16:29:27Z</time>
      </trkpt>
      <trkpt lat="43.30929" lon="6.54947">
        <ele>176.6</ele>
        <time>2022-02-04T16:29:28Z</time>
      </trkpt>
      <trkpt lat="43.30929" lon="6.54943">
        <ele>177.8</ele>
        <time>2022-02-04T16:29:29Z</time>
      </trkpt>
      <trkpt lat="43.30928" lon="6.54939">
        <ele>178.6</ele>
        <time>2022-02-04T16:29:30Z</time>
      </trkpt>
      <trkpt lat="43.30926" lon="6.54936">
        <ele>179.4</ele>
        <time>2022-02-04T16:29:31Z</time>
      </trkpt>
      <trkpt lat="43.30923" lon="6.54935">
        <ele>179.8</ele>
        <time>2022-02-04T16:29:32Z</time>
      </trkpt>
      <trkpt lat="43.3092" lon="6.54934">
        <ele>180.4</ele>
        <time>2022-02-04T16:29:33Z</time>
      </trkpt>
      <trkpt lat="43.30917" lon="6.54933">
        <ele>180.8</ele>
        <time>2022-02-04T16:29:34Z</time>
      </trkpt>
      <trkpt lat="43.30914" lon="6.54931">
        <ele>181.2</ele>
        <time>2022-02-04T16:29:35Z</time>
      </trkpt>
      <trkpt lat="43.30911" lon="6.54929">
        <ele>181.8</ele>
        <time>2022-02-04T16:29:36Z</time>
      </trkpt>
      <trkpt lat="43.30908" lon="6.54926">
        <ele>182</ele>
        <time>2022-02-04T16:29:37Z</time>
      </trkpt>
      <trkpt lat="43.30906" lon="6.54922">
        <ele>182.6</ele>
        <time>2022-02-04T16:29:38Z</time>
      </trkpt>
      <trkpt lat="43.30904" lon="6.54918">
        <ele>183.2</ele>
        <time>2022-02-04T16:29:39Z</time>
      </trkpt>
      <trkpt lat="43.30903" lon="6.54914">
        <ele>183.6</ele>
        <time>2022-02-04T16:29:40Z</time>
      </trkpt>
      <trkpt lat="43.30903" lon="6.54909">
        <ele>183.8</ele>
        <time>2022-02-04T16:29:41Z</time>
      </trkpt>
      <trkpt lat="43.30903" lon="6.54904">
        <ele>184.4</ele>
        <time>2022-02-04T16:29:42Z</time>
      </trkpt>
      <trkpt lat="43.30903" lon="6.549">
        <ele>184.6</ele>
        <time>2022-02-04T16:29:43Z</time>
      </trkpt>
      <trkpt lat="43.30904" lon="6.54896">
        <ele>185.2</ele>
        <time>2022-02-04T16:29:44Z</time>
      </trkpt>
      <trkpt lat="43.30904" lon="6.54892">
        <ele>185.8</ele>
        <time>2022-02-04T16:29:45Z</time>
      </trkpt>
      <trkpt lat="43.30905" lon="6.54889">
        <ele>186.2</ele>
        <time>2022-02-04T16:29:46Z</time>
      </trkpt>
      <trkpt lat="43.30906" lon="6.54886">
        <ele>186.2</ele>
        <time>2022-02-04T16:29:47Z</time>
      </trkpt>
      <trkpt lat="43.30907" lon="6.54883">
        <ele>186.4</ele>
        <time>2022-02-04T16:29:48Z</time>
      </trkpt>
      <trkpt lat="43.30908" lon="6.54881">
        <ele>186.6</ele>
        <time>2022-02-04T16:29:49Z</time>
      </trkpt>
      <trkpt lat="43.30909" lon="6.54879">
        <ele>186.6</ele>
        <time>2022-02-04T16:29:50Z</time>
      </trkpt>
      <trkpt lat="43.30909" lon="6.54878">
        <ele>186.6</ele>
        <time>2022-02-04T16:29:51Z</time>
      </trkpt>
      <trkpt lat="43.30909" lon="6.54877">
        <ele>186.6</ele>
        <time>2022-02-04T16:29:52Z</time>
      </trkpt>
      <trkpt lat="43.30909" lon="6.54876">
        <ele>186.8</ele>
        <time>2022-02-04T16:29:53Z</time>
      </trkpt>
      <trkpt lat="43.30908" lon="6.54875">
        <ele>186.8</ele>
        <time>2022-02-04T16:29:54Z</time>
      </trkpt>
      <trkpt lat="43.30907" lon="6.54874">
        <ele>186.8</ele>
        <time>2022-02-04T16:29:55Z</time>
      </trkpt>
      <trkpt lat="43.30907" lon="6.54874">
        <ele>186.8</ele>
        <time>2022-02-04T16:29:56Z</time>
      </trkpt>
      <trkpt lat="43.30907" lon="6.54874">
        <ele>187</ele>
        <time>2022-02-04T16:29:57Z</time>
      </trkpt>
      <trkpt lat="43.30907" lon="6.54874">
        <ele>187</ele>
        <time>2022-02-04T16:29:58Z</time>
      </trkpt>
      <trkpt lat="43.30907" lon="6.54874">
        <ele>187</ele>
        <time>2022-02-04T16:29:59Z</time>
      </trkpt>
      <trkpt lat="43.30907" lon="6.54874">
        <ele>187.2</ele>
        <time>2022-02-04T16:30:00Z</time>
      </trkpt>
      <trkpt lat="43.30907" lon="6.54874">
        <ele>187.2</ele>
        <time>2022-02-04T16:30:01Z</time>
      </trkpt>
      <trkpt lat="43.30907" lon="6.54874">
        <ele>187.2</ele>
        <time>2022-02-04T16:30:02Z</time>
      </trkpt>
      <trkpt lat="43.30907" lon="6.54874">
        <ele>187.2</ele>
        <time>2022-02-04T16:30:03Z</time>
      </trkpt>
      <trkpt lat="43.30907" lon="6.54874">
        <ele>187</ele>
        <time>2022-02-04T16:30:04Z</time>
      </trkpt>
      <trkpt lat="43.30907" lon="6.54874">
        <ele>187</ele>
        <time>2022-02-04T16:30:05Z</time>
      </trkpt>
      <trkpt lat="43.30907" lon="6.54874">
        <ele>186.8</ele>
        <time>2022-02-04T16:30:06Z</time>
      </trkpt>
      <trkpt lat="43.30907" lon="6.54874">
        <ele>186.8</ele>
        <time>2022-02-04T16:30:07Z</time>
      </trkpt>
      <trkpt lat="43.30906" lon="6.54873">
        <ele>186.8</ele>
        <time>2022-02-04T16:30:08Z</time>
      </trkpt>
      <trkpt lat="43.30906" lon="6.54873">
        <ele>186.8</ele>
        <time>2022-02-04T16:30:09Z</time>
      </trkpt>
      <trkpt lat="43.30905" lon="6.54873">
        <ele>186.8</ele>
        <time>2022-02-04T16:30:10Z</time>
      </trkpt>
      <trkpt lat="43.30905" lon="6.54873">
        <ele>186.8</ele>
        <time>2022-02-04T16:30:11Z</time>
      </trkpt>
      <trkpt lat="43.30905" lon="6.54873">
        <ele>186.8</ele>
        <time>2022-02-04T16:30:12Z</time>
      </trkpt>
      <trkpt lat="43.30905" lon="6.54872">
        <ele>186.8</ele>
        <time>2022-02-04T16:30:13Z</time>
      </trkpt>
      <trkpt lat="43.30904" lon="6.5487">
        <ele>186.8</ele>
        <time>2022-02-04T16:30:14Z</time>
      </trkpt>
      <trkpt lat="43.30902" lon="6.54867">
        <ele>186.8</ele>
        <time>2022-02-04T16:30:15Z</time>
      </trkpt>
      <trkpt lat="43.309" lon="6.54864">
        <ele>187</ele>
        <time>2022-02-04T16:30:16Z</time>
      </trkpt>
      <trkpt lat="43.30899" lon="6.5486">
        <ele>187.2</ele>
        <time>2022-02-04T16:30:17Z</time>
      </trkpt>
      <trkpt lat="43.30897" lon="6.54857">
        <ele>187.6</ele>
        <time>2022-02-04T16:30:18Z</time>
      </trkpt>
      <trkpt lat="43.30896" lon="6.54854">
        <ele>188</ele>
        <time>2022-02-04T16:30:19Z</time>
      </trkpt>
      <trkpt lat="43.30894" lon="6.5485">
        <ele>188.4</ele>
        <time>2022-02-04T16:30:20Z</time>
      </trkpt>
      <trkpt lat="43.30892" lon="6.54847">
        <ele>189.2</ele>
        <time>2022-02-04T16:30:21Z</time>
      </trkpt>
      <trkpt lat="43.30891" lon="6.54844">
        <ele>189.8</ele>
        <time>2022-02-04T16:30:22Z</time>
      </trkpt>
      <trkpt lat="43.30889" lon="6.54841">
        <ele>190.6</ele>
        <time>2022-02-04T16:30:23Z</time>
      </trkpt>
      <trkpt lat="43.30888" lon="6.54838">
        <ele>191</ele>
        <time>2022-02-04T16:30:24Z</time>
      </trkpt>
      <trkpt lat="43.30886" lon="6.54835">
        <ele>191.8</ele>
        <time>2022-02-04T16:30:25Z</time>
      </trkpt>
      <trkpt lat="43.30885" lon="6.54833">
        <ele>192.8</ele>
        <time>2022-02-04T16:30:26Z</time>
      </trkpt>
      <trkpt lat="43.30883" lon="6.5483">
        <ele>193.4</ele>
        <time>2022-02-04T16:30:27Z</time>
      </trkpt>
      <trkpt lat="43.30882" lon="6.54827">
        <ele>194.6</ele>
        <time>2022-02-04T16:30:28Z</time>
      </trkpt>
      <trkpt lat="43.3088" lon="6.54824">
        <ele>195</ele>
        <time>2022-02-04T16:30:29Z</time>
      </trkpt>
      <trkpt lat="43.30878" lon="6.5482">
        <ele>195.8</ele>
        <time>2022-02-04T16:30:30Z</time>
      </trkpt>
      <trkpt lat="43.30876" lon="6.54818">
        <ele>196.4</ele>
        <time>2022-02-04T16:30:31Z</time>
      </trkpt>
      <trkpt lat="43.30875" lon="6.54816">
        <ele>196.8</ele>
        <time>2022-02-04T16:30:32Z</time>
      </trkpt>
      <trkpt lat="43.30873" lon="6.54813">
        <ele>197.6</ele>
        <time>2022-02-04T16:30:33Z</time>
      </trkpt>
      <trkpt lat="43.30872" lon="6.54811">
        <ele>198</ele>
        <time>2022-02-04T16:30:34Z</time>
      </trkpt>
      <trkpt lat="43.3087" lon="6.54809">
        <ele>198.6</ele>
        <time>2022-02-04T16:30:35Z</time>
      </trkpt>
      <trkpt lat="43.30869" lon="6.54806">
        <ele>199.2</ele>
        <time>2022-02-04T16:30:36Z</time>
      </trkpt>
      <trkpt lat="43.30868" lon="6.54804">
        <ele>200</ele>
        <time>2022-02-04T16:30:37Z</time>
      </trkpt>
      <trkpt lat="43.30866" lon="6.54801">
        <ele>200.6</ele>
        <time>2022-02-04T16:30:38Z</time>
      </trkpt>
      <trkpt lat="43.30865" lon="6.54799">
        <ele>201</ele>
        <time>2022-02-04T16:30:39Z</time>
      </trkpt>
      <trkpt lat="43.30864" lon="6.54796">
        <ele>201.8</ele>
        <time>2022-02-04T16:30:40Z</time>
      </trkpt>
      <trkpt lat="43.30863" lon="6.54793">
        <ele>202.8</ele>
        <time>2022-02-04T16:30:41Z</time>
      </trkpt>
      <trkpt lat="43.30863" lon="6.5479">
        <ele>203.4</ele>
        <time>2022-02-04T16:30:42Z</time>
      </trkpt>
      <trkpt lat="43.30863" lon="6.54788">
        <ele>203.8</ele>
        <time>2022-02-04T16:30:43Z</time>
      </trkpt>
      <trkpt lat="43.30863" lon="6.54787">
        <ele>204</ele>
        <time>2022-02-04T16:30:44Z</time>
      </trkpt>
      <trkpt lat="43.30864" lon="6.54785">
        <ele>204.4</ele>
        <time>2022-02-04T16:30:45Z</time>
      </trkpt>
      <trkpt lat="43.30864" lon="6.54782">
        <ele>204.8</ele>
        <time>2022-02-04T16:30:46Z</time>
      </trkpt>
      <trkpt lat="43.30864" lon="6.5478">
        <ele>205.2</ele>
        <time>2022-02-04T16:30:47Z</time>
      </trkpt>
      <trkpt lat="43.30863" lon="6.54777">
        <ele>205.4</ele>
        <time>2022-02-04T16:30:48Z</time>
      </trkpt>
      <trkpt lat="43.30863" lon="6.54774">
        <ele>206</ele>
        <time>2022-02-04T16:30:49Z</time>
      </trkpt>
      <trkpt lat="43.30864" lon="6.54771">
        <ele>206.6</ele>
        <time>2022-02-04T16:30:50Z</time>
      </trkpt>
      <trkpt lat="43.30864" lon="6.54768">
        <ele>206.8</ele>
        <time>2022-02-04T16:30:51Z</time>
      </trkpt>
      <trkpt lat="43.30864" lon="6.54765">
        <ele>207</ele>
        <time>2022-02-04T16:30:52Z</time>
      </trkpt>
      <trkpt lat="43.30865" lon="6.54763">
        <ele>207.2</ele>
        <time>2022-02-04T16:30:53Z</time>
      </trkpt>
      <trkpt lat="43.30866" lon="6.54761">
        <ele>207.2</ele>
        <time>2022-02-04T16:30:54Z</time>
      </trkpt>
      <trkpt lat="43.30866" lon="6.54759">
        <ele>207.4</ele>
        <time>2022-02-04T16:30:55Z</time>
      </trkpt>
      <trkpt lat="43.30867" lon="6.54756">
        <ele>207.2</ele>
        <time>2022-02-04T16:30:56Z</time>
      </trkpt>
      <trkpt lat="43.30867" lon="6.54754">
        <ele>207.4</ele>
        <time>2022-02-04T16:30:57Z</time>
      </trkpt>
      <trkpt lat="43.30867" lon="6.54751">
        <ele>207.4</ele>
        <time>2022-02-04T16:30:58Z</time>
      </trkpt>
      <trkpt lat="43.30868" lon="6.54747">
        <ele>207.6</ele>
        <time>2022-02-04T16:30:59Z</time>
      </trkpt>
      <trkpt lat="43.30869" lon="6.54744">
        <ele>207.6</ele>
        <time>2022-02-04T16:31:00Z</time>
      </trkpt>
      <trkpt lat="43.30871" lon="6.5474">
        <ele>207.6</ele>
        <time>2022-02-04T16:31:01Z</time>
      </trkpt>
      <trkpt lat="43.30872" lon="6.54736">
        <ele>207.8</ele>
        <time>2022-02-04T16:31:02Z</time>
      </trkpt>
      <trkpt lat="43.30873" lon="6.54733">
        <ele>207.8</ele>
        <time>2022-02-04T16:31:03Z</time>
      </trkpt>
      <trkpt lat="43.30874" lon="6.5473">
        <ele>208</ele>
        <time>2022-02-04T16:31:04Z</time>
      </trkpt>
      <trkpt lat="43.30876" lon="6.54727">
        <ele>208.2</ele>
        <time>2022-02-04T16:31:05Z</time>
      </trkpt>
      <trkpt lat="43.30877" lon="6.54724">
        <ele>208.4</ele>
        <time>2022-02-04T16:31:06Z</time>
      </trkpt>
      <trkpt lat="43.30878" lon="6.5472">
        <ele>208.6</ele>
        <time>2022-02-04T16:31:07Z</time>
      </trkpt>
      <trkpt lat="43.30878" lon="6.54717">
        <ele>208.8</ele>
        <time>2022-02-04T16:31:08Z</time>
      </trkpt>
      <trkpt lat="43.30878" lon="6.54713">
        <ele>208.8</ele>
        <time>2022-02-04T16:31:09Z</time>
      </trkpt>
      <trkpt lat="43.30878" lon="6.5471">
        <ele>209.4</ele>
        <time>2022-02-04T16:31:10Z</time>
      </trkpt>
      <trkpt lat="43.30879" lon="6.54706">
        <ele>209.6</ele>
        <time>2022-02-04T16:31:11Z</time>
      </trkpt>
      <trkpt lat="43.30879" lon="6.54702">
        <ele>209.8</ele>
        <time>2022-02-04T16:31:12Z</time>
      </trkpt>
      <trkpt lat="43.30879" lon="6.54698">
        <ele>210</ele>
        <time>2022-02-04T16:31:13Z</time>
      </trkpt>
      <trkpt lat="43.30878" lon="6.54693">
        <ele>210.2</ele>
        <time>2022-02-04T16:31:14Z</time>
      </trkpt>
      <trkpt lat="43.30878" lon="6.54688">
        <ele>210.4</ele>
        <time>2022-02-04T16:31:15Z</time>
      </trkpt>
      <trkpt lat="43.30878" lon="6.54683">
        <ele>210.8</ele>
        <time>2022-02-04T16:31:16Z</time>
      </trkpt>
      <trkpt lat="43.30877" lon="6.54678">
        <ele>211.2</ele>
        <time>2022-02-04T16:31:17Z</time>
      </trkpt>
      <trkpt lat="43.30877" lon="6.54673">
        <ele>211.2</ele>
        <time>2022-02-04T16:31:18Z</time>
      </trkpt>
      <trkpt lat="43.30876" lon="6.54668">
        <ele>211.8</ele>
        <time>2022-02-04T16:31:19Z</time>
      </trkpt>
      <trkpt lat="43.30875" lon="6.54663">
        <ele>212.2</ele>
        <time>2022-02-04T16:31:20Z</time>
      </trkpt>
      <trkpt lat="43.30874" lon="6.54658">
        <ele>212.4</ele>
        <time>2022-02-04T16:31:21Z</time>
      </trkpt>
      <trkpt lat="43.30873" lon="6.54652">
        <ele>212.8</ele>
        <time>2022-02-04T16:31:22Z</time>
      </trkpt>
      <trkpt lat="43.30872" lon="6.54648">
        <ele>213.2</ele>
        <time>2022-02-04T16:31:23Z</time>
      </trkpt>
      <trkpt lat="43.30871" lon="6.54643">
        <ele>213.6</ele>
        <time>2022-02-04T16:31:24Z</time>
      </trkpt>
      <trkpt lat="43.3087" lon="6.54639">
        <ele>213.8</ele>
        <time>2022-02-04T16:31:25Z</time>
      </trkpt>
      <trkpt lat="43.30869" lon="6.54634">
        <ele>214.2</ele>
        <time>2022-02-04T16:31:26Z</time>
      </trkpt>
      <trkpt lat="43.30867" lon="6.54629">
        <ele>214.6</ele>
        <time>2022-02-04T16:31:27Z</time>
      </trkpt>
      <trkpt lat="43.30866" lon="6.54624">
        <ele>214.8</ele>
        <time>2022-02-04T16:31:28Z</time>
      </trkpt>
      <trkpt lat="43.30865" lon="6.5462">
        <ele>215</ele>
        <time>2022-02-04T16:31:29Z</time>
      </trkpt>
      <trkpt lat="43.30864" lon="6.54616">
        <ele>215.4</ele>
        <time>2022-02-04T16:31:30Z</time>
      </trkpt>
      <trkpt lat="43.30863" lon="6.54611">
        <ele>216</ele>
        <time>2022-02-04T16:31:31Z</time>
      </trkpt>
      <trkpt lat="43.30862" lon="6.54607">
        <ele>216.2</ele>
        <time>2022-02-04T16:31:32Z</time>
      </trkpt>
      <trkpt lat="43.30861" lon="6.54602">
        <ele>216.4</ele>
        <time>2022-02-04T16:31:33Z</time>
      </trkpt>
      <trkpt lat="43.30859" lon="6.54597">
        <ele>216.6</ele>
        <time>2022-02-04T16:31:34Z</time>
      </trkpt>
      <trkpt lat="43.30858" lon="6.54592">
        <ele>217</ele>
        <time>2022-02-04T16:31:35Z</time>
      </trkpt>
      <trkpt lat="43.30856" lon="6.54588">
        <ele>217.4</ele>
        <time>2022-02-04T16:31:36Z</time>
      </trkpt>
      <trkpt lat="43.30854" lon="6.54584">
        <ele>217.6</ele>
        <time>2022-02-04T16:31:37Z</time>
      </trkpt>
      <trkpt lat="43.30852" lon="6.54579">
        <ele>218</ele>
        <time>2022-02-04T16:31:38Z</time>
      </trkpt>
      <trkpt lat="43.3085" lon="6.54575">
        <ele>218</ele>
        <time>2022-02-04T16:31:39Z</time>
      </trkpt>
      <trkpt lat="43.30848" lon="6.54571">
        <ele>218.8</ele>
        <time>2022-02-04T16:31:40Z</time>
      </trkpt>
      <trkpt lat="43.30846" lon="6.54568">
        <ele>219.2</ele>
        <time>2022-02-04T16:31:41Z</time>
      </trkpt>
      <trkpt lat="43.30843" lon="6.54566">
        <ele>220</ele>
        <time>2022-02-04T16:31:42Z</time>
      </trkpt>
      <trkpt lat="43.3084" lon="6.54565">
        <ele>220.6</ele>
        <time>2022-02-04T16:31:43Z</time>
      </trkpt>
      <trkpt lat="43.30836" lon="6.54565">
        <ele>220.8</ele>
        <time>2022-02-04T16:31:44Z</time>
      </trkpt>
      <trkpt lat="43.30833" lon="6.54565">
        <ele>221.2</ele>
        <time>2022-02-04T16:31:45Z</time>
      </trkpt>
      <trkpt lat="43.3083" lon="6.54565">
        <ele>221.6</ele>
        <time>2022-02-04T16:31:46Z</time>
      </trkpt>
      <trkpt lat="43.30827" lon="6.54565">
        <ele>222</ele>
        <time>2022-02-04T16:31:47Z</time>
      </trkpt>
      <trkpt lat="43.30823" lon="6.54565">
        <ele>222.4</ele>
        <time>2022-02-04T16:31:48Z</time>
      </trkpt>
      <trkpt lat="43.30819" lon="6.54564">
        <ele>222.8</ele>
        <time>2022-02-04T16:31:49Z</time>
      </trkpt>
      <trkpt lat="43.30816" lon="6.54561">
        <ele>223</ele>
        <time>2022-02-04T16:31:50Z</time>
      </trkpt>
      <trkpt lat="43.30813" lon="6.54558">
        <ele>223.4</ele>
        <time>2022-02-04T16:31:51Z</time>
      </trkpt>
      <trkpt lat="43.3081" lon="6.54556">
        <ele>223.8</ele>
        <time>2022-02-04T16:31:52Z</time>
      </trkpt>
      <trkpt lat="43.30807" lon="6.54553">
        <ele>224.2</ele>
        <time>2022-02-04T16:31:53Z</time>
      </trkpt>
      <trkpt lat="43.30804" lon="6.5455">
        <ele>224.8</ele>
        <time>2022-02-04T16:31:54Z</time>
      </trkpt>
      <trkpt lat="43.30801" lon="6.54549">
        <ele>225.2</ele>
        <time>2022-02-04T16:31:55Z</time>
      </trkpt>
      <trkpt lat="43.30797" lon="6.54549">
        <ele>226</ele>
        <time>2022-02-04T16:31:56Z</time>
      </trkpt>
      <trkpt lat="43.30794" lon="6.54549">
        <ele>226.4</ele>
        <time>2022-02-04T16:31:57Z</time>
      </trkpt>
      <trkpt lat="43.3079" lon="6.54549">
        <ele>226.8</ele>
        <time>2022-02-04T16:31:58Z</time>
      </trkpt>
      <trkpt lat="43.30787" lon="6.54548">
        <ele>227.4</ele>
        <time>2022-02-04T16:31:59Z</time>
      </trkpt>
      <trkpt lat="43.30784" lon="6.54549">
        <ele>228</ele>
        <time>2022-02-04T16:32:00Z</time>
      </trkpt>
      <trkpt lat="43.30781" lon="6.54549">
        <ele>228.4</ele>
        <time>2022-02-04T16:32:01Z</time>
      </trkpt>
      <trkpt lat="43.30779" lon="6.54549">
        <ele>228.8</ele>
        <time>2022-02-04T16:32:02Z</time>
      </trkpt>
      <trkpt lat="43.30777" lon="6.5455">
        <ele>229.6</ele>
        <time>2022-02-04T16:32:03Z</time>
      </trkpt>
      <trkpt lat="43.30774" lon="6.54552">
        <ele>230.4</ele>
        <time>2022-02-04T16:32:04Z</time>
      </trkpt>
      <trkpt lat="43.30772" lon="6.54554">
        <ele>230.8</ele>
        <time>2022-02-04T16:32:05Z</time>
      </trkpt>
      <trkpt lat="43.30769" lon="6.54557">
        <ele>231.4</ele>
        <time>2022-02-04T16:32:06Z</time>
      </trkpt>
      <trkpt lat="43.30767" lon="6.5456">
        <ele>231.8</ele>
        <time>2022-02-04T16:32:07Z</time>
      </trkpt>
      <trkpt lat="43.30765" lon="6.54565">
        <ele>232.6</ele>
        <time>2022-02-04T16:32:08Z</time>
      </trkpt>
      <trkpt lat="43.30763" lon="6.54568">
        <ele>233</ele>
        <time>2022-02-04T16:32:09Z</time>
      </trkpt>
      <trkpt lat="43.30761" lon="6.54571">
        <ele>233.4</ele>
        <time>2022-02-04T16:32:10Z</time>
      </trkpt>
      <trkpt lat="43.30759" lon="6.54574">
        <ele>233.8</ele>
        <time>2022-02-04T16:32:11Z</time>
      </trkpt>
      <trkpt lat="43.30756" lon="6.54576">
        <ele>234.4</ele>
        <time>2022-02-04T16:32:12Z</time>
      </trkpt>
      <trkpt lat="43.30754" lon="6.54578">
        <ele>235</ele>
        <time>2022-02-04T16:32:13Z</time>
      </trkpt>
      <trkpt lat="43.30751" lon="6.54579">
        <ele>236</ele>
        <time>2022-02-04T16:32:14Z</time>
      </trkpt>
      <trkpt lat="43.30748" lon="6.54581">
        <ele>236.4</ele>
        <time>2022-02-04T16:32:15Z</time>
      </trkpt>
      <trkpt lat="43.30745" lon="6.54582">
        <ele>237.2</ele>
        <time>2022-02-04T16:32:16Z</time>
      </trkpt>
      <trkpt lat="43.30742" lon="6.54583">
        <ele>237.8</ele>
        <time>2022-02-04T16:32:17Z</time>
      </trkpt>
      <trkpt lat="43.30739" lon="6.54585">
        <ele>238.4</ele>
        <time>2022-02-04T16:32:18Z</time>
      </trkpt>
      <trkpt lat="43.30735" lon="6.54584">
        <ele>238.8</ele>
        <time>2022-02-04T16:32:19Z</time>
      </trkpt>
      <trkpt lat="43.30732" lon="6.54584">
        <ele>239.2</ele>
        <time>2022-02-04T16:32:20Z</time>
      </trkpt>
      <trkpt lat="43.30729" lon="6.54584">
        <ele>239.4</ele>
        <time>2022-02-04T16:32:21Z</time>
      </trkpt>
      <trkpt lat="43.30726" lon="6.54584">
        <ele>239.8</ele>
        <time>2022-02-04T16:32:22Z</time>
      </trkpt>
      <trkpt lat="43.30723" lon="6.54584">
        <ele>240.2</ele>
        <time>2022-02-04T16:32:23Z</time>
      </trkpt>
      <trkpt lat="43.3072" lon="6.54584">
        <ele>240.6</ele>
        <time>2022-02-04T16:32:24Z</time>
      </trkpt>
      <trkpt lat="43.30716" lon="6.54584">
        <ele>241.2</ele>
        <time>2022-02-04T16:32:25Z</time>
      </trkpt>
      <trkpt lat="43.30712" lon="6.54584">
        <ele>241.6</ele>
        <time>2022-02-04T16:32:26Z</time>
      </trkpt>
      <trkpt lat="43.30709" lon="6.54584">
        <ele>242.4</ele>
        <time>2022-02-04T16:32:27Z</time>
      </trkpt>
      <trkpt lat="43.30705" lon="6.54583">
        <ele>242.6</ele>
        <time>2022-02-04T16:32:28Z</time>
      </trkpt>
      <trkpt lat="43.30702" lon="6.54583">
        <ele>243</ele>
        <time>2022-02-04T16:32:29Z</time>
      </trkpt>
      <trkpt lat="43.30698" lon="6.54583">
        <ele>243.2</ele>
        <time>2022-02-04T16:32:30Z</time>
      </trkpt>
      <trkpt lat="43.30693" lon="6.54583">
        <ele>243.4</ele>
        <time>2022-02-04T16:32:31Z</time>
      </trkpt>
      <trkpt lat="43.3069" lon="6.54582">
        <ele>244</ele>
        <time>2022-02-04T16:32:32Z</time>
      </trkpt>
      <trkpt lat="43.30686" lon="6.54581">
        <ele>244.4</ele>
        <time>2022-02-04T16:32:33Z</time>
      </trkpt>
      <trkpt lat="43.30681" lon="6.54581">
        <ele>244.6</ele>
        <time>2022-02-04T16:32:34Z</time>
      </trkpt>
      <trkpt lat="43.30678" lon="6.54578">
        <ele>244.6</ele>
        <time>2022-02-04T16:32:35Z</time>
      </trkpt>
      <trkpt lat="43.30676" lon="6.54574">
        <ele>244.8</ele>
        <time>2022-02-04T16:32:36Z</time>
      </trkpt>
      <trkpt lat="43.30675" lon="6.5457">
        <ele>244.8</ele>
        <time>2022-02-04T16:32:37Z</time>
      </trkpt>
      <trkpt lat="43.30674" lon="6.54565">
        <ele>244.8</ele>
        <time>2022-02-04T16:32:38Z</time>
      </trkpt>
      <trkpt lat="43.30674" lon="6.5456">
        <ele>245</ele>
        <time>2022-02-04T16:32:39Z</time>
      </trkpt>
      <trkpt lat="43.30672" lon="6.54556">
        <ele>245</ele>
        <time>2022-02-04T16:32:40Z</time>
      </trkpt>
      <trkpt lat="43.30671" lon="6.54552">
        <ele>245.2</ele>
        <time>2022-02-04T16:32:41Z</time>
      </trkpt>
      <trkpt lat="43.30669" lon="6.54547">
        <ele>245.4</ele>
        <time>2022-02-04T16:32:42Z</time>
      </trkpt>
      <trkpt lat="43.30666" lon="6.54542">
        <ele>245.6</ele>
        <time>2022-02-04T16:32:43Z</time>
      </trkpt>
      <trkpt lat="43.30664" lon="6.54537">
        <ele>246</ele>
        <time>2022-02-04T16:32:44Z</time>
      </trkpt>
      <trkpt lat="43.30662" lon="6.54533">
        <ele>246.2</ele>
        <time>2022-02-04T16:32:45Z</time>
      </trkpt>
      <trkpt lat="43.30658" lon="6.5453">
        <ele>246.6</ele>
        <time>2022-02-04T16:32:46Z</time>
      </trkpt>
      <trkpt lat="43.30655" lon="6.54527">
        <ele>247</ele>
        <time>2022-02-04T16:32:47Z</time>
      </trkpt>
      <trkpt lat="43.30651" lon="6.54525">
        <ele>247.4</ele>
        <time>2022-02-04T16:32:48Z</time>
      </trkpt>
      <trkpt lat="43.30648" lon="6.54523">
        <ele>248</ele>
        <time>2022-02-04T16:32:49Z</time>
      </trkpt>
      <trkpt lat="43.30644" lon="6.54521">
        <ele>248.4</ele>
        <time>2022-02-04T16:32:50Z</time>
      </trkpt>
      <trkpt lat="43.30641" lon="6.54519">
        <ele>249</ele>
        <time>2022-02-04T16:32:51Z</time>
      </trkpt>
      <trkpt lat="43.30637" lon="6.54516">
        <ele>249.6</ele>
        <time>2022-02-04T16:32:52Z</time>
      </trkpt>
      <trkpt lat="43.30634" lon="6.54513">
        <ele>250</ele>
        <time>2022-02-04T16:32:53Z</time>
      </trkpt>
      <trkpt lat="43.3063" lon="6.5451">
        <ele>250.2</ele>
        <time>2022-02-04T16:32:54Z</time>
      </trkpt>
      <trkpt lat="43.30627" lon="6.54506">
        <ele>250.8</ele>
        <time>2022-02-04T16:32:55Z</time>
      </trkpt>
      <trkpt lat="43.30625" lon="6.54503">
        <ele>251.2</ele>
        <time>2022-02-04T16:32:56Z</time>
      </trkpt>
      <trkpt lat="43.30621" lon="6.545">
        <ele>251.6</ele>
        <time>2022-02-04T16:32:57Z</time>
      </trkpt>
      <trkpt lat="43.30618" lon="6.54497">
        <ele>252</ele>
        <time>2022-02-04T16:32:58Z</time>
      </trkpt>
      <trkpt lat="43.30615" lon="6.54495">
        <ele>252</ele>
        <time>2022-02-04T16:32:59Z</time>
      </trkpt>
      <trkpt lat="43.30611" lon="6.54493">
        <ele>252.2</ele>
        <time>2022-02-04T16:33:00Z</time>
      </trkpt>
      <trkpt lat="43.30608" lon="6.54492">
        <ele>252.4</ele>
        <time>2022-02-04T16:33:01Z</time>
      </trkpt>
      <trkpt lat="43.30605" lon="6.54492">
        <ele>252.8</ele>
        <time>2022-02-04T16:33:02Z</time>
      </trkpt>
      <trkpt lat="43.30602" lon="6.54491">
        <ele>253</ele>
        <time>2022-02-04T16:33:03Z</time>
      </trkpt>
      <trkpt lat="43.306" lon="6.5449">
        <ele>253.2</ele>
        <time>2022-02-04T16:33:04Z</time>
      </trkpt>
      <trkpt lat="43.30597" lon="6.54487">
        <ele>253.2</ele>
        <time>2022-02-04T16:33:05Z</time>
      </trkpt>
      <trkpt lat="43.30595" lon="6.54483">
        <ele>253.2</ele>
        <time>2022-02-04T16:33:06Z</time>
      </trkpt>
      <trkpt lat="43.30595" lon="6.5448">
        <ele>253.2</ele>
        <time>2022-02-04T16:33:07Z</time>
      </trkpt>
      <trkpt lat="43.30596" lon="6.54476">
        <ele>253.4</ele>
        <time>2022-02-04T16:33:08Z</time>
      </trkpt>
      <trkpt lat="43.30598" lon="6.54472">
        <ele>253.4</ele>
        <time>2022-02-04T16:33:09Z</time>
      </trkpt>
      <trkpt lat="43.30599" lon="6.54468">
        <ele>253.6</ele>
        <time>2022-02-04T16:33:10Z</time>
      </trkpt>
      <trkpt lat="43.30601" lon="6.54466">
        <ele>253.8</ele>
        <time>2022-02-04T16:33:11Z</time>
      </trkpt>
      <trkpt lat="43.30603" lon="6.54463">
        <ele>254.6</ele>
        <time>2022-02-04T16:33:12Z</time>
      </trkpt>
      <trkpt lat="43.30604" lon="6.54459">
        <ele>255.2</ele>
        <time>2022-02-04T16:33:13Z</time>
      </trkpt>
      <trkpt lat="43.30606" lon="6.54455">
        <ele>255.6</ele>
        <time>2022-02-04T16:33:14Z</time>
      </trkpt>
      <trkpt lat="43.30607" lon="6.54451">
        <ele>255.8</ele>
        <time>2022-02-04T16:33:15Z</time>
      </trkpt>
      <trkpt lat="43.30609" lon="6.54447">
        <ele>256.4</ele>
        <time>2022-02-04T16:33:16Z</time>
      </trkpt>
      <trkpt lat="43.3061" lon="6.54444">
        <ele>257</ele>
        <time>2022-02-04T16:33:17Z</time>
      </trkpt>
      <trkpt lat="43.3061" lon="6.54441">
        <ele>257.8</ele>
        <time>2022-02-04T16:33:18Z</time>
      </trkpt>
      <trkpt lat="43.30609" lon="6.54437">
        <ele>258.2</ele>
        <time>2022-02-04T16:33:19Z</time>
      </trkpt>
      <trkpt lat="43.30607" lon="6.54434">
        <ele>258.8</ele>
        <time>2022-02-04T16:33:20Z</time>
      </trkpt>
      <trkpt lat="43.30605" lon="6.54432">
        <ele>259</ele>
        <time>2022-02-04T16:33:21Z</time>
      </trkpt>
      <trkpt lat="43.30602" lon="6.54433">
        <ele>259.6</ele>
        <time>2022-02-04T16:33:22Z</time>
      </trkpt>
      <trkpt lat="43.306" lon="6.54435">
        <ele>259.8</ele>
        <time>2022-02-04T16:33:23Z</time>
      </trkpt>
      <trkpt lat="43.30597" lon="6.54438">
        <ele>260</ele>
        <time>2022-02-04T16:33:24Z</time>
      </trkpt>
      <trkpt lat="43.30595" lon="6.54441">
        <ele>260.4</ele>
        <time>2022-02-04T16:33:25Z</time>
      </trkpt>
      <trkpt lat="43.30593" lon="6.54444">
        <ele>260.6</ele>
        <time>2022-02-04T16:33:26Z</time>
      </trkpt>
      <trkpt lat="43.3059" lon="6.54446">
        <ele>261</ele>
        <time>2022-02-04T16:33:27Z</time>
      </trkpt>
      <trkpt lat="43.30587" lon="6.54449">
        <ele>261.6</ele>
        <time>2022-02-04T16:33:28Z</time>
      </trkpt>
      <trkpt lat="43.30584" lon="6.54452">
        <ele>262.4</ele>
        <time>2022-02-04T16:33:29Z</time>
      </trkpt>
      <trkpt lat="43.30582" lon="6.54455">
        <ele>262.8</ele>
        <time>2022-02-04T16:33:30Z</time>
      </trkpt>
      <trkpt lat="43.3058" lon="6.54459">
        <ele>263.2</ele>
        <time>2022-02-04T16:33:31Z</time>
      </trkpt>
      <trkpt lat="43.30578" lon="6.54464">
        <ele>263.4</ele>
        <time>2022-02-04T16:33:32Z</time>
      </trkpt>
      <trkpt lat="43.30575" lon="6.54467">
        <ele>263.8</ele>
        <time>2022-02-04T16:33:33Z</time>
      </trkpt>
      <trkpt lat="43.30573" lon="6.54471">
        <ele>264.2</ele>
        <time>2022-02-04T16:33:34Z</time>
      </trkpt>
      <trkpt lat="43.30571" lon="6.54474">
        <ele>264.4</ele>
        <time>2022-02-04T16:33:35Z</time>
      </trkpt>
      <trkpt lat="43.30569" lon="6.54477">
        <ele>264.8</ele>
        <time>2022-02-04T16:33:36Z</time>
      </trkpt>
      <trkpt lat="43.30567" lon="6.54481">
        <ele>265.4</ele>
        <time>2022-02-04T16:33:37Z</time>
      </trkpt>
      <trkpt lat="43.30565" lon="6.54485">
        <ele>265.8</ele>
        <time>2022-02-04T16:33:38Z</time>
      </trkpt>
      <trkpt lat="43.30563" lon="6.54488">
        <ele>266.4</ele>
        <time>2022-02-04T16:33:39Z</time>
      </trkpt>
      <trkpt lat="43.30562" lon="6.54492">
        <ele>266.8</ele>
        <time>2022-02-04T16:33:40Z</time>
      </trkpt>
      <trkpt lat="43.3056" lon="6.54496">
        <ele>267.2</ele>
        <time>2022-02-04T16:33:41Z</time>
      </trkpt>
      <trkpt lat="43.30558" lon="6.545">
        <ele>267.6</ele>
        <time>2022-02-04T16:33:42Z</time>
      </trkpt>
      <trkpt lat="43.30556" lon="6.54504">
        <ele>268.4</ele>
        <time>2022-02-04T16:33:43Z</time>
      </trkpt>
      <trkpt lat="43.30554" lon="6.54507">
        <ele>269</ele>
        <time>2022-02-04T16:33:44Z</time>
      </trkpt>
      <trkpt lat="43.30551" lon="6.54511">
        <ele>269.2</ele>
        <time>2022-02-04T16:33:45Z</time>
      </trkpt>
      <trkpt lat="43.30548" lon="6.54514">
        <ele>269.4</ele>
        <time>2022-02-04T16:33:46Z</time>
      </trkpt>
      <trkpt lat="43.30545" lon="6.54517">
        <ele>269.8</ele>
        <time>2022-02-04T16:33:47Z</time>
      </trkpt>
      <trkpt lat="43.30542" lon="6.5452">
        <ele>270</ele>
        <time>2022-02-04T16:33:48Z</time>
      </trkpt>
      <trkpt lat="43.30539" lon="6.54523">
        <ele>270.4</ele>
        <time>2022-02-04T16:33:49Z</time>
      </trkpt>
      <trkpt lat="43.30535" lon="6.54527">
        <ele>270.8</ele>
        <time>2022-02-04T16:33:50Z</time>
      </trkpt>
      <trkpt lat="43.30532" lon="6.5453">
        <ele>271.2</ele>
        <time>2022-02-04T16:33:51Z</time>
      </trkpt>
      <trkpt lat="43.30529" lon="6.54534">
        <ele>271.6</ele>
        <time>2022-02-04T16:33:52Z</time>
      </trkpt>
      <trkpt lat="43.30527" lon="6.54538">
        <ele>271.8</ele>
        <time>2022-02-04T16:33:53Z</time>
      </trkpt>
      <trkpt lat="43.30525" lon="6.54542">
        <ele>272</ele>
        <time>2022-02-04T16:33:54Z</time>
      </trkpt>
      <trkpt lat="43.30524" lon="6.54547">
        <ele>272.4</ele>
        <time>2022-02-04T16:33:55Z</time>
      </trkpt>
      <trkpt lat="43.30523" lon="6.54552">
        <ele>272.4</ele>
        <time>2022-02-04T16:33:56Z</time>
      </trkpt>
      <trkpt lat="43.30523" lon="6.54557">
        <ele>273.2</ele>
        <time>2022-02-04T16:33:57Z</time>
      </trkpt>
      <trkpt lat="43.30523" lon="6.54562">
        <ele>273.6</ele>
        <time>2022-02-04T16:33:58Z</time>
      </trkpt>
      <trkpt lat="43.30522" lon="6.54566">
        <ele>274</ele>
        <time>2022-02-04T16:33:59Z</time>
      </trkpt>
      <trkpt lat="43.30521" lon="6.54572">
        <ele>274.2</ele>
        <time>2022-02-04T16:34:00Z</time>
      </trkpt>
      <trkpt lat="43.30519" lon="6.54577">
        <ele>274.4</ele>
        <time>2022-02-04T16:34:01Z</time>
      </trkpt>
      <trkpt lat="43.30518" lon="6.54582">
        <ele>274.8</ele>
        <time>2022-02-04T16:34:02Z</time>
      </trkpt>
      <trkpt lat="43.30516" lon="6.54587">
        <ele>275</ele>
        <time>2022-02-04T16:34:03Z</time>
      </trkpt>
      <trkpt lat="43.30515" lon="6.54591">
        <ele>275.2</ele>
        <time>2022-02-04T16:34:04Z</time>
      </trkpt>
      <trkpt lat="43.30513" lon="6.54596">
        <ele>275.6</ele>
        <time>2022-02-04T16:34:05Z</time>
      </trkpt>
      <trkpt lat="43.30512" lon="6.54601">
        <ele>276.2</ele>
        <time>2022-02-04T16:34:06Z</time>
      </trkpt>
      <trkpt lat="43.3051" lon="6.54605">
        <ele>277</ele>
        <time>2022-02-04T16:34:07Z</time>
      </trkpt>
      <trkpt lat="43.30509" lon="6.5461">
        <ele>277.2</ele>
        <time>2022-02-04T16:34:08Z</time>
      </trkpt>
      <trkpt lat="43.30507" lon="6.54614">
        <ele>277.6</ele>
        <time>2022-02-04T16:34:09Z</time>
      </trkpt>
      <trkpt lat="43.30504" lon="6.54618">
        <ele>278.2</ele>
        <time>2022-02-04T16:34:10Z</time>
      </trkpt>
      <trkpt lat="43.30501" lon="6.5462">
        <ele>278.6</ele>
        <time>2022-02-04T16:34:11Z</time>
      </trkpt>
      <trkpt lat="43.30498" lon="6.54623">
        <ele>278.8</ele>
        <time>2022-02-04T16:34:12Z</time>
      </trkpt>
      <trkpt lat="43.30494" lon="6.54624">
        <ele>279</ele>
        <time>2022-02-04T16:34:13Z</time>
      </trkpt>
      <trkpt lat="43.30491" lon="6.54623">
        <ele>279.2</ele>
        <time>2022-02-04T16:34:14Z</time>
      </trkpt>
      <trkpt lat="43.30488" lon="6.54622">
        <ele>279.6</ele>
        <time>2022-02-04T16:34:15Z</time>
      </trkpt>
      <trkpt lat="43.30484" lon="6.5462">
        <ele>280</ele>
        <time>2022-02-04T16:34:16Z</time>
      </trkpt>
      <trkpt lat="43.30481" lon="6.54618">
        <ele>280.4</ele>
        <time>2022-02-04T16:34:17Z</time>
      </trkpt>
      <trkpt lat="43.30479" lon="6.54615">
        <ele>280.8</ele>
        <time>2022-02-04T16:34:18Z</time>
      </trkpt>
      <trkpt lat="43.30475" lon="6.54612">
        <ele>281.2</ele>
        <time>2022-02-04T16:34:19Z</time>
      </trkpt>
      <trkpt lat="43.30473" lon="6.54609">
        <ele>281.8</ele>
        <time>2022-02-04T16:34:20Z</time>
      </trkpt>
      <trkpt lat="43.3047" lon="6.54605">
        <ele>282.4</ele>
        <time>2022-02-04T16:34:21Z</time>
      </trkpt>
      <trkpt lat="43.30469" lon="6.546">
        <ele>282.6</ele>
        <time>2022-02-04T16:34:22Z</time>
      </trkpt>
      <trkpt lat="43.30467" lon="6.54596">
        <ele>282.8</ele>
        <time>2022-02-04T16:34:23Z</time>
      </trkpt>
      <trkpt lat="43.30465" lon="6.54592">
        <ele>283.2</ele>
        <time>2022-02-04T16:34:24Z</time>
      </trkpt>
      <trkpt lat="43.30463" lon="6.54587">
        <ele>283.4</ele>
        <time>2022-02-04T16:34:25Z</time>
      </trkpt>
      <trkpt lat="43.30462" lon="6.54583">
        <ele>283.8</ele>
        <time>2022-02-04T16:34:26Z</time>
      </trkpt>
      <trkpt lat="43.30461" lon="6.54579">
        <ele>284</ele>
        <time>2022-02-04T16:34:27Z</time>
      </trkpt>
      <trkpt lat="43.3046" lon="6.54574">
        <ele>284.6</ele>
        <time>2022-02-04T16:34:28Z</time>
      </trkpt>
      <trkpt lat="43.30459" lon="6.5457">
        <ele>285</ele>
        <time>2022-02-04T16:34:29Z</time>
      </trkpt>
      <trkpt lat="43.30459" lon="6.54566">
        <ele>285.6</ele>
        <time>2022-02-04T16:34:30Z</time>
      </trkpt>
      <trkpt lat="43.30459" lon="6.54561">
        <ele>286.2</ele>
        <time>2022-02-04T16:34:31Z</time>
      </trkpt>
      <trkpt lat="43.30459" lon="6.54557">
        <ele>286.6</ele>
        <time>2022-02-04T16:34:32Z</time>
      </trkpt>
      <trkpt lat="43.3046" lon="6.54552">
        <ele>286.8</ele>
        <time>2022-02-04T16:34:33Z</time>
      </trkpt>
      <trkpt lat="43.3046" lon="6.54548">
        <ele>287.4</ele>
        <time>2022-02-04T16:34:34Z</time>
      </trkpt>
      <trkpt lat="43.30461" lon="6.54544">
        <ele>287.8</ele>
        <time>2022-02-04T16:34:35Z</time>
      </trkpt>
      <trkpt lat="43.30462" lon="6.5454">
        <ele>289</ele>
        <time>2022-02-04T16:34:36Z</time>
      </trkpt>
      <trkpt lat="43.30463" lon="6.54536">
        <ele>289.8</ele>
        <time>2022-02-04T16:34:37Z</time>
      </trkpt>
      <trkpt lat="43.30463" lon="6.54532">
        <ele>290.4</ele>
        <time>2022-02-04T16:34:38Z</time>
      </trkpt>
      <trkpt lat="43.30464" lon="6.54528">
        <ele>290.8</ele>
        <time>2022-02-04T16:34:39Z</time>
      </trkpt>
      <trkpt lat="43.30463" lon="6.54525">
        <ele>291.2</ele>
        <time>2022-02-04T16:34:40Z</time>
      </trkpt>
      <trkpt lat="43.30462" lon="6.54522">
        <ele>291.4</ele>
        <time>2022-02-04T16:34:41Z</time>
      </trkpt>
      <trkpt lat="43.3046" lon="6.5452">
        <ele>291.6</ele>
        <time>2022-02-04T16:34:42Z</time>
      </trkpt>
      <trkpt lat="43.30458" lon="6.54517">
        <ele>291.8</ele>
        <time>2022-02-04T16:34:43Z</time>
      </trkpt>
      <trkpt lat="43.30456" lon="6.54514">
        <ele>292.2</ele>
        <time>2022-02-04T16:34:44Z</time>
      </trkpt>
      <trkpt lat="43.30454" lon="6.54511">
        <ele>292.4</ele>
        <time>2022-02-04T16:34:45Z</time>
      </trkpt>
      <trkpt lat="43.30452" lon="6.54508">
        <ele>292.6</ele>
        <time>2022-02-04T16:34:46Z</time>
      </trkpt>
      <trkpt lat="43.3045" lon="6.54506">
        <ele>292.8</ele>
        <time>2022-02-04T16:34:47Z</time>
      </trkpt>
      <trkpt lat="43.30448" lon="6.54504">
        <ele>293.4</ele>
        <time>2022-02-04T16:34:48Z</time>
      </trkpt>
      <trkpt lat="43.30446" lon="6.54503">
        <ele>293.6</ele>
        <time>2022-02-04T16:34:49Z</time>
      </trkpt>
      <trkpt lat="43.30444" lon="6.54502">
        <ele>294</ele>
        <time>2022-02-04T16:34:50Z</time>
      </trkpt>
      <trkpt lat="43.30441" lon="6.54502">
        <ele>294.2</ele>
        <time>2022-02-04T16:34:51Z</time>
      </trkpt>
      <trkpt lat="43.30438" lon="6.54501">
        <ele>294.6</ele>
        <time>2022-02-04T16:34:52Z</time>
      </trkpt>
      <trkpt lat="43.30435" lon="6.54501">
        <ele>294.8</ele>
        <time>2022-02-04T16:34:53Z</time>
      </trkpt>
      <trkpt lat="43.30433" lon="6.545">
        <ele>295</ele>
        <time>2022-02-04T16:34:54Z</time>
      </trkpt>
      <trkpt lat="43.3043" lon="6.54499">
        <ele>295.2</ele>
        <time>2022-02-04T16:34:55Z</time>
      </trkpt>
      <trkpt lat="43.30428" lon="6.54498">
        <ele>295.8</ele>
        <time>2022-02-04T16:34:56Z</time>
      </trkpt>
      <trkpt lat="43.30425" lon="6.54498">
        <ele>296.4</ele>
        <time>2022-02-04T16:34:57Z</time>
      </trkpt>
      <trkpt lat="43.30422" lon="6.54498">
        <ele>296.8</ele>
        <time>2022-02-04T16:34:58Z</time>
      </trkpt>
      <trkpt lat="43.3042" lon="6.54498">
        <ele>297.4</ele>
        <time>2022-02-04T16:34:59Z</time>
      </trkpt>
      <trkpt lat="43.30418" lon="6.54497">
        <ele>298.2</ele>
        <time>2022-02-04T16:35:00Z</time>
      </trkpt>
      <trkpt lat="43.30415" lon="6.54497">
        <ele>298.8</ele>
        <time>2022-02-04T16:35:01Z</time>
      </trkpt>
      <trkpt lat="43.30411" lon="6.54496">
        <ele>299.6</ele>
        <time>2022-02-04T16:35:02Z</time>
      </trkpt>
      <trkpt lat="43.30408" lon="6.54496">
        <ele>300.2</ele>
        <time>2022-02-04T16:35:03Z</time>
      </trkpt>
      <trkpt lat="43.30405" lon="6.54495">
        <ele>300.4</ele>
        <time>2022-02-04T16:35:04Z</time>
      </trkpt>
      <trkpt lat="43.30402" lon="6.54495">
        <ele>301</ele>
        <time>2022-02-04T16:35:05Z</time>
      </trkpt>
      <trkpt lat="43.304" lon="6.54495">
        <ele>301.2</ele>
        <time>2022-02-04T16:35:06Z</time>
      </trkpt>
      <trkpt lat="43.30397" lon="6.54494">
        <ele>301.6</ele>
        <time>2022-02-04T16:35:07Z</time>
      </trkpt>
      <trkpt lat="43.30395" lon="6.54494">
        <ele>302.2</ele>
        <time>2022-02-04T16:35:08Z</time>
      </trkpt>
      <trkpt lat="43.30392" lon="6.54495">
        <ele>302.6</ele>
        <time>2022-02-04T16:35:09Z</time>
      </trkpt>
      <trkpt lat="43.30389" lon="6.54495">
        <ele>303.2</ele>
        <time>2022-02-04T16:35:10Z</time>
      </trkpt>
      <trkpt lat="43.30386" lon="6.54495">
        <ele>303.4</ele>
        <time>2022-02-04T16:35:11Z</time>
      </trkpt>
      <trkpt lat="43.30381" lon="6.54497">
        <ele>304.4</ele>
        <time>2022-02-04T16:35:12Z</time>
      </trkpt>
      <trkpt lat="43.30378" lon="6.54498">
        <ele>304.8</ele>
        <time>2022-02-04T16:35:13Z</time>
      </trkpt>
      <trkpt lat="43.30375" lon="6.54501">
        <ele>305.4</ele>
        <time>2022-02-04T16:35:14Z</time>
      </trkpt>
      <trkpt lat="43.30373" lon="6.54503">
        <ele>305.8</ele>
        <time>2022-02-04T16:35:15Z</time>
      </trkpt>
      <trkpt lat="43.30372" lon="6.54508">
        <ele>305.8</ele>
        <time>2022-02-04T16:35:16Z</time>
      </trkpt>
      <trkpt lat="43.30371" lon="6.54512">
        <ele>306</ele>
        <time>2022-02-04T16:35:17Z</time>
      </trkpt>
      <trkpt lat="43.30369" lon="6.54516">
        <ele>306</ele>
        <time>2022-02-04T16:35:18Z</time>
      </trkpt>
      <trkpt lat="43.30365" lon="6.54521">
        <ele>305.8</ele>
        <time>2022-02-04T16:35:19Z</time>
      </trkpt>
      <trkpt lat="43.30362" lon="6.54525">
        <ele>305.2</ele>
        <time>2022-02-04T16:35:20Z</time>
      </trkpt>
      <trkpt lat="43.30359" lon="6.5453">
        <ele>304.8</ele>
        <time>2022-02-04T16:35:21Z</time>
      </trkpt>
      <trkpt lat="43.30357" lon="6.54536">
        <ele>304.6</ele>
        <time>2022-02-04T16:35:22Z</time>
      </trkpt>
      <trkpt lat="43.30355" lon="6.54541">
        <ele>304.6</ele>
        <time>2022-02-04T16:35:23Z</time>
      </trkpt>
      <trkpt lat="43.30354" lon="6.54545">
        <ele>304.4</ele>
        <time>2022-02-04T16:35:24Z</time>
      </trkpt>
      <trkpt lat="43.30353" lon="6.5455">
        <ele>304.4</ele>
        <time>2022-02-04T16:35:25Z</time>
      </trkpt>
      <trkpt lat="43.30352" lon="6.54556">
        <ele>304.4</ele>
        <time>2022-02-04T16:35:26Z</time>
      </trkpt>
      <trkpt lat="43.30351" lon="6.54563">
        <ele>304</ele>
        <time>2022-02-04T16:35:27Z</time>
      </trkpt>
      <trkpt lat="43.30349" lon="6.54569">
        <ele>303.8</ele>
        <time>2022-02-04T16:35:28Z</time>
      </trkpt>
      <trkpt lat="43.30346" lon="6.54575">
        <ele>303.6</ele>
        <time>2022-02-04T16:35:29Z</time>
      </trkpt>
      <trkpt lat="43.30344" lon="6.5458">
        <ele>303</ele>
        <time>2022-02-04T16:35:30Z</time>
      </trkpt>
      <trkpt lat="43.30341" lon="6.54585">
        <ele>302.4</ele>
        <time>2022-02-04T16:35:31Z</time>
      </trkpt>
      <trkpt lat="43.30338" lon="6.54588">
        <ele>301.6</ele>
        <time>2022-02-04T16:35:32Z</time>
      </trkpt>
      <trkpt lat="43.30335" lon="6.54588">
        <ele>300.6</ele>
        <time>2022-02-04T16:35:33Z</time>
      </trkpt>
      <trkpt lat="43.30333" lon="6.54586">
        <ele>300.2</ele>
        <time>2022-02-04T16:35:34Z</time>
      </trkpt>
      <trkpt lat="43.30333" lon="6.54584">
        <ele>299.8</ele>
        <time>2022-02-04T16:35:35Z</time>
      </trkpt>
      <trkpt lat="43.30333" lon="6.54581">
        <ele>299.4</ele>
        <time>2022-02-04T16:35:36Z</time>
      </trkpt>
      <trkpt lat="43.30333" lon="6.54578">
        <ele>299.4</ele>
        <time>2022-02-04T16:35:37Z</time>
      </trkpt>
      <trkpt lat="43.30332" lon="6.54574">
        <ele>299.2</ele>
        <time>2022-02-04T16:35:38Z</time>
      </trkpt>
      <trkpt lat="43.30332" lon="6.5457">
        <ele>299.2</ele>
        <time>2022-02-04T16:35:39Z</time>
      </trkpt>
      <trkpt lat="43.30331" lon="6.54565">
        <ele>299.2</ele>
        <time>2022-02-04T16:35:40Z</time>
      </trkpt>
      <trkpt lat="43.30331" lon="6.54561">
        <ele>299.4</ele>
        <time>2022-02-04T16:35:41Z</time>
      </trkpt>
      <trkpt lat="43.3033" lon="6.54558">
        <ele>299.6</ele>
        <time>2022-02-04T16:35:42Z</time>
      </trkpt>
      <trkpt lat="43.30328" lon="6.54554">
        <ele>299.8</ele>
        <time>2022-02-04T16:35:43Z</time>
      </trkpt>
      <trkpt lat="43.30327" lon="6.5455">
        <ele>300.2</ele>
        <time>2022-02-04T16:35:44Z</time>
      </trkpt>
      <trkpt lat="43.30325" lon="6.54546">
        <ele>300.6</ele>
        <time>2022-02-04T16:35:45Z</time>
      </trkpt>
      <trkpt lat="43.30322" lon="6.54543">
        <ele>300.8</ele>
        <time>2022-02-04T16:35:46Z</time>
      </trkpt>
      <trkpt lat="43.30319" lon="6.54539">
        <ele>301</ele>
        <time>2022-02-04T16:35:47Z</time>
      </trkpt>
      <trkpt lat="43.30316" lon="6.54536">
        <ele>301.4</ele>
        <time>2022-02-04T16:35:48Z</time>
      </trkpt>
      <trkpt lat="43.30313" lon="6.54534">
        <ele>301.8</ele>
        <time>2022-02-04T16:35:49Z</time>
      </trkpt>
      <trkpt lat="43.3031" lon="6.54532">
        <ele>302</ele>
        <time>2022-02-04T16:35:50Z</time>
      </trkpt>
      <trkpt lat="43.30308" lon="6.5453">
        <ele>302.6</ele>
        <time>2022-02-04T16:35:51Z</time>
      </trkpt>
      <trkpt lat="43.30305" lon="6.54528">
        <ele>303</ele>
        <time>2022-02-04T16:35:52Z</time>
      </trkpt>
      <trkpt lat="43.30302" lon="6.54525">
        <ele>303.6</ele>
        <time>2022-02-04T16:35:53Z</time>
      </trkpt>
      <trkpt lat="43.30299" lon="6.54522">
        <ele>303.8</ele>
        <time>2022-02-04T16:35:54Z</time>
      </trkpt>
      <trkpt lat="43.30296" lon="6.54521">
        <ele>304.4</ele>
        <time>2022-02-04T16:35:55Z</time>
      </trkpt>
      <trkpt lat="43.30293" lon="6.5452">
        <ele>304.8</ele>
        <time>2022-02-04T16:35:56Z</time>
      </trkpt>
      <trkpt lat="43.3029" lon="6.54518">
        <ele>305.2</ele>
        <time>2022-02-04T16:35:57Z</time>
      </trkpt>
      <trkpt lat="43.30288" lon="6.54516">
        <ele>305.4</ele>
        <time>2022-02-04T16:35:58Z</time>
      </trkpt>
      <trkpt lat="43.30285" lon="6.54515">
        <ele>305.8</ele>
        <time>2022-02-04T16:35:59Z</time>
      </trkpt>
      <trkpt lat="43.30282" lon="6.54513">
        <ele>306</ele>
        <time>2022-02-04T16:36:00Z</time>
      </trkpt>
      <trkpt lat="43.30278" lon="6.54512">
        <ele>306.6</ele>
        <time>2022-02-04T16:36:01Z</time>
      </trkpt>
      <trkpt lat="43.30275" lon="6.5451">
        <ele>306.8</ele>
        <time>2022-02-04T16:36:02Z</time>
      </trkpt>
      <trkpt lat="43.30272" lon="6.54508">
        <ele>307.4</ele>
        <time>2022-02-04T16:36:03Z</time>
      </trkpt>
      <trkpt lat="43.30269" lon="6.54507">
        <ele>307.8</ele>
        <time>2022-02-04T16:36:04Z</time>
      </trkpt>
      <trkpt lat="43.30266" lon="6.54505">
        <ele>308.2</ele>
        <time>2022-02-04T16:36:05Z</time>
      </trkpt>
      <trkpt lat="43.30262" lon="6.54502">
        <ele>308.6</ele>
        <time>2022-02-04T16:36:06Z</time>
      </trkpt>
      <trkpt lat="43.3026" lon="6.545">
        <ele>309</ele>
        <time>2022-02-04T16:36:07Z</time>
      </trkpt>
      <trkpt lat="43.30257" lon="6.54497">
        <ele>309.6</ele>
        <time>2022-02-04T16:36:08Z</time>
      </trkpt>
      <trkpt lat="43.30254" lon="6.54494">
        <ele>310.2</ele>
        <time>2022-02-04T16:36:09Z</time>
      </trkpt>
      <trkpt lat="43.30252" lon="6.54491">
        <ele>310.8</ele>
        <time>2022-02-04T16:36:10Z</time>
      </trkpt>
      <trkpt lat="43.30249" lon="6.54488">
        <ele>311.2</ele>
        <time>2022-02-04T16:36:11Z</time>
      </trkpt>
      <trkpt lat="43.30246" lon="6.54485">
        <ele>312.2</ele>
        <time>2022-02-04T16:36:12Z</time>
      </trkpt>
      <trkpt lat="43.30245" lon="6.5448">
        <ele>313</ele>
        <time>2022-02-04T16:36:13Z</time>
      </trkpt>
      <trkpt lat="43.30243" lon="6.54476">
        <ele>313.4</ele>
        <time>2022-02-04T16:36:14Z</time>
      </trkpt>
      <trkpt lat="43.30242" lon="6.54472">
        <ele>314</ele>
        <time>2022-02-04T16:36:15Z</time>
      </trkpt>
      <trkpt lat="43.3024" lon="6.54468">
        <ele>314.4</ele>
        <time>2022-02-04T16:36:16Z</time>
      </trkpt>
      <trkpt lat="43.30239" lon="6.54464">
        <ele>314.6</ele>
        <time>2022-02-04T16:36:17Z</time>
      </trkpt>
      <trkpt lat="43.30237" lon="6.5446">
        <ele>315.2</ele>
        <time>2022-02-04T16:36:18Z</time>
      </trkpt>
      <trkpt lat="43.30236" lon="6.54456">
        <ele>315.8</ele>
        <time>2022-02-04T16:36:19Z</time>
      </trkpt>
      <trkpt lat="43.30234" lon="6.54452">
        <ele>316.4</ele>
        <time>2022-02-04T16:36:20Z</time>
      </trkpt>
      <trkpt lat="43.30233" lon="6.54447">
        <ele>316.8</ele>
        <time>2022-02-04T16:36:21Z</time>
      </trkpt>
      <trkpt lat="43.30232" lon="6.54443">
        <ele>317.6</ele>
        <time>2022-02-04T16:36:22Z</time>
      </trkpt>
      <trkpt lat="43.30231" lon="6.54439">
        <ele>318</ele>
        <time>2022-02-04T16:36:23Z</time>
      </trkpt>
      <trkpt lat="43.3023" lon="6.54436">
        <ele>318.4</ele>
        <time>2022-02-04T16:36:24Z</time>
      </trkpt>
      <trkpt lat="43.3023" lon="6.54431">
        <ele>319.4</ele>
        <time>2022-02-04T16:36:25Z</time>
      </trkpt>
      <trkpt lat="43.3023" lon="6.54426">
        <ele>320.2</ele>
        <time>2022-02-04T16:36:26Z</time>
      </trkpt>
      <trkpt lat="43.3023" lon="6.54421">
        <ele>320.8</ele>
        <time>2022-02-04T16:36:27Z</time>
      </trkpt>
      <trkpt lat="43.3023" lon="6.54417">
        <ele>321</ele>
        <time>2022-02-04T16:36:28Z</time>
      </trkpt>
      <trkpt lat="43.3023" lon="6.54411">
        <ele>321.2</ele>
        <time>2022-02-04T16:36:29Z</time>
      </trkpt>
      <trkpt lat="43.30231" lon="6.54406">
        <ele>321.2</ele>
        <time>2022-02-04T16:36:30Z</time>
      </trkpt>
      <trkpt lat="43.30232" lon="6.54401">
        <ele>321.4</ele>
        <time>2022-02-04T16:36:31Z</time>
      </trkpt>
      <trkpt lat="43.30234" lon="6.54396">
        <ele>321.8</ele>
        <time>2022-02-04T16:36:32Z</time>
      </trkpt>
      <trkpt lat="43.30236" lon="6.54392">
        <ele>322</ele>
        <time>2022-02-04T16:36:33Z</time>
      </trkpt>
      <trkpt lat="43.30238" lon="6.54388">
        <ele>322</ele>
        <time>2022-02-04T16:36:34Z</time>
      </trkpt>
      <trkpt lat="43.3024" lon="6.54385">
        <ele>322.2</ele>
        <time>2022-02-04T16:36:35Z</time>
      </trkpt>
      <trkpt lat="43.30242" lon="6.54382">
        <ele>322.8</ele>
        <time>2022-02-04T16:36:36Z</time>
      </trkpt>
      <trkpt lat="43.30243" lon="6.54378">
        <ele>323.2</ele>
        <time>2022-02-04T16:36:37Z</time>
      </trkpt>
      <trkpt lat="43.30245" lon="6.54374">
        <ele>323.6</ele>
        <time>2022-02-04T16:36:38Z</time>
      </trkpt>
      <trkpt lat="43.30245" lon="6.5437">
        <ele>323.8</ele>
        <time>2022-02-04T16:36:39Z</time>
      </trkpt>
      <trkpt lat="43.30246" lon="6.54366">
        <ele>324</ele>
        <time>2022-02-04T16:36:40Z</time>
      </trkpt>
      <trkpt lat="43.30247" lon="6.54361">
        <ele>324.2</ele>
        <time>2022-02-04T16:36:41Z</time>
      </trkpt>
      <trkpt lat="43.30248" lon="6.54357">
        <ele>324.4</ele>
        <time>2022-02-04T16:36:42Z</time>
      </trkpt>
      <trkpt lat="43.30249" lon="6.54352">
        <ele>324.8</ele>
        <time>2022-02-04T16:36:43Z</time>
      </trkpt>
      <trkpt lat="43.3025" lon="6.54348">
        <ele>325.2</ele>
        <time>2022-02-04T16:36:44Z</time>
      </trkpt>
      <trkpt lat="43.30251" lon="6.54344">
        <ele>325.6</ele>
        <time>2022-02-04T16:36:45Z</time>
      </trkpt>
      <trkpt lat="43.30252" lon="6.5434">
        <ele>325.8</ele>
        <time>2022-02-04T16:36:46Z</time>
      </trkpt>
      <trkpt lat="43.30253" lon="6.54336">
        <ele>326</ele>
        <time>2022-02-04T16:36:47Z</time>
      </trkpt>
      <trkpt lat="43.30254" lon="6.54332">
        <ele>326.8</ele>
        <time>2022-02-04T16:36:48Z</time>
      </trkpt>
      <trkpt lat="43.30256" lon="6.54328">
        <ele>327.8</ele>
        <time>2022-02-04T16:36:49Z</time>
      </trkpt>
      <trkpt lat="43.30257" lon="6.54324">
        <ele>329</ele>
        <time>2022-02-04T16:36:50Z</time>
      </trkpt>
      <trkpt lat="43.30258" lon="6.5432">
        <ele>329.6</ele>
        <time>2022-02-04T16:36:51Z</time>
      </trkpt>
      <trkpt lat="43.3026" lon="6.54317">
        <ele>330.2</ele>
        <time>2022-02-04T16:36:52Z</time>
      </trkpt>
      <trkpt lat="43.30261" lon="6.54314">
        <ele>331</ele>
        <time>2022-02-04T16:36:53Z</time>
      </trkpt>
      <trkpt lat="43.30263" lon="6.5431">
        <ele>331.8</ele>
        <time>2022-02-04T16:36:54Z</time>
      </trkpt>
      <trkpt lat="43.30264" lon="6.54307">
        <ele>332.4</ele>
        <time>2022-02-04T16:36:55Z</time>
      </trkpt>
      <trkpt lat="43.30266" lon="6.54303">
        <ele>332.8</ele>
        <time>2022-02-04T16:36:56Z</time>
      </trkpt>
      <trkpt lat="43.30267" lon="6.543">
        <ele>333.2</ele>
        <time>2022-02-04T16:36:57Z</time>
      </trkpt>
      <trkpt lat="43.30269" lon="6.54296">
        <ele>333.8</ele>
        <time>2022-02-04T16:36:58Z</time>
      </trkpt>
      <trkpt lat="43.3027" lon="6.54293">
        <ele>334</ele>
        <time>2022-02-04T16:36:59Z</time>
      </trkpt>
      <trkpt lat="43.30271" lon="6.54289">
        <ele>334.6</ele>
        <time>2022-02-04T16:37:00Z</time>
      </trkpt>
      <trkpt lat="43.30272" lon="6.54285">
        <ele>334.8</ele>
        <time>2022-02-04T16:37:01Z</time>
      </trkpt>
      <trkpt lat="43.30273" lon="6.5428">
        <ele>335.4</ele>
        <time>2022-02-04T16:37:02Z</time>
      </trkpt>
      <trkpt lat="43.30274" lon="6.54276">
        <ele>335.8</ele>
        <time>2022-02-04T16:37:03Z</time>
      </trkpt>
      <trkpt lat="43.30275" lon="6.54272">
        <ele>336.2</ele>
        <time>2022-02-04T16:37:04Z</time>
      </trkpt>
      <trkpt lat="43.30277" lon="6.54268">
        <ele>336.6</ele>
        <time>2022-02-04T16:37:05Z</time>
      </trkpt>
      <trkpt lat="43.30278" lon="6.54264">
        <ele>337.2</ele>
        <time>2022-02-04T16:37:06Z</time>
      </trkpt>
      <trkpt lat="43.3028" lon="6.54261">
        <ele>337.6</ele>
        <time>2022-02-04T16:37:07Z</time>
      </trkpt>
      <trkpt lat="43.30281" lon="6.54258">
        <ele>337.8</ele>
        <time>2022-02-04T16:37:08Z</time>
      </trkpt>
      <trkpt lat="43.30283" lon="6.54254">
        <ele>338</ele>
        <time>2022-02-04T16:37:09Z</time>
      </trkpt>
      <trkpt lat="43.30285" lon="6.5425">
        <ele>338</ele>
        <time>2022-02-04T16:37:10Z</time>
      </trkpt>
      <trkpt lat="43.30286" lon="6.54246">
        <ele>338.6</ele>
        <time>2022-02-04T16:37:11Z</time>
      </trkpt>
      <trkpt lat="43.30288" lon="6.54242">
        <ele>339</ele>
        <time>2022-02-04T16:37:12Z</time>
      </trkpt>
      <trkpt lat="43.30289" lon="6.54239">
        <ele>339.2</ele>
        <time>2022-02-04T16:37:13Z</time>
      </trkpt>
      <trkpt lat="43.30291" lon="6.54236">
        <ele>339.6</ele>
        <time>2022-02-04T16:37:14Z</time>
      </trkpt>
      <trkpt lat="43.30293" lon="6.54232">
        <ele>339.8</ele>
        <time>2022-02-04T16:37:15Z</time>
      </trkpt>
      <trkpt lat="43.30295" lon="6.54229">
        <ele>340.2</ele>
        <time>2022-02-04T16:37:16Z</time>
      </trkpt>
      <trkpt lat="43.30296" lon="6.54225">
        <ele>340.4</ele>
        <time>2022-02-04T16:37:17Z</time>
      </trkpt>
      <trkpt lat="43.30297" lon="6.54221">
        <ele>340.8</ele>
        <time>2022-02-04T16:37:18Z</time>
      </trkpt>
      <trkpt lat="43.30298" lon="6.54217">
        <ele>340.8</ele>
        <time>2022-02-04T16:37:19Z</time>
      </trkpt>
      <trkpt lat="43.30298" lon="6.54212">
        <ele>341</ele>
        <time>2022-02-04T16:37:20Z</time>
      </trkpt>
      <trkpt lat="43.30297" lon="6.54208">
        <ele>341.2</ele>
        <time>2022-02-04T16:37:21Z</time>
      </trkpt>
      <trkpt lat="43.30297" lon="6.54204">
        <ele>341.2</ele>
        <time>2022-02-04T16:37:22Z</time>
      </trkpt>
      <trkpt lat="43.30296" lon="6.542">
        <ele>341.4</ele>
        <time>2022-02-04T16:37:23Z</time>
      </trkpt>
      <trkpt lat="43.30295" lon="6.54196">
        <ele>342</ele>
        <time>2022-02-04T16:37:24Z</time>
      </trkpt>
      <trkpt lat="43.30294" lon="6.54192">
        <ele>342.4</ele>
        <time>2022-02-04T16:37:25Z</time>
      </trkpt>
      <trkpt lat="43.30293" lon="6.54189">
        <ele>342.8</ele>
        <time>2022-02-04T16:37:26Z</time>
      </trkpt>
      <trkpt lat="43.30292" lon="6.54185">
        <ele>343.2</ele>
        <time>2022-02-04T16:37:27Z</time>
      </trkpt>
      <trkpt lat="43.3029" lon="6.54181">
        <ele>343.8</ele>
        <time>2022-02-04T16:37:28Z</time>
      </trkpt>
      <trkpt lat="43.30289" lon="6.54178">
        <ele>344.4</ele>
        <time>2022-02-04T16:37:29Z</time>
      </trkpt>
      <trkpt lat="43.30288" lon="6.54174">
        <ele>344.8</ele>
        <time>2022-02-04T16:37:30Z</time>
      </trkpt>
      <trkpt lat="43.30286" lon="6.5417">
        <ele>345.4</ele>
        <time>2022-02-04T16:37:31Z</time>
      </trkpt>
      <trkpt lat="43.30285" lon="6.54167">
        <ele>345.6</ele>
        <time>2022-02-04T16:37:32Z</time>
      </trkpt>
      <trkpt lat="43.30283" lon="6.54163">
        <ele>345.8</ele>
        <time>2022-02-04T16:37:33Z</time>
      </trkpt>
      <trkpt lat="43.30282" lon="6.54158">
        <ele>346</ele>
        <time>2022-02-04T16:37:34Z</time>
      </trkpt>
      <trkpt lat="43.3028" lon="6.54154">
        <ele>346.2</ele>
        <time>2022-02-04T16:37:35Z</time>
      </trkpt>
      <trkpt lat="43.30278" lon="6.5415">
        <ele>346.8</ele>
        <time>2022-02-04T16:37:36Z</time>
      </trkpt>
      <trkpt lat="43.30276" lon="6.54146">
        <ele>347.4</ele>
        <time>2022-02-04T16:37:37Z</time>
      </trkpt>
      <trkpt lat="43.30274" lon="6.54143">
        <ele>347.8</ele>
        <time>2022-02-04T16:37:38Z</time>
      </trkpt>
      <trkpt lat="43.30271" lon="6.5414">
        <ele>348.4</ele>
        <time>2022-02-04T16:37:39Z</time>
      </trkpt>
      <trkpt lat="43.30269" lon="6.54136">
        <ele>348.8</ele>
        <time>2022-02-04T16:37:40Z</time>
      </trkpt>
      <trkpt lat="43.30267" lon="6.54133">
        <ele>349.6</ele>
        <time>2022-02-04T16:37:41Z</time>
      </trkpt>
      <trkpt lat="43.30265" lon="6.54129">
        <ele>350</ele>
        <time>2022-02-04T16:37:42Z</time>
      </trkpt>
      <trkpt lat="43.30263" lon="6.54126">
        <ele>350.6</ele>
        <time>2022-02-04T16:37:43Z</time>
      </trkpt>
      <trkpt lat="43.30261" lon="6.54123">
        <ele>351.4</ele>
        <time>2022-02-04T16:37:44Z</time>
      </trkpt>
      <trkpt lat="43.30258" lon="6.5412">
        <ele>352</ele>
        <time>2022-02-04T16:37:45Z</time>
      </trkpt>
      <trkpt lat="43.30256" lon="6.54116">
        <ele>352.4</ele>
        <time>2022-02-04T16:37:46Z</time>
      </trkpt>
      <trkpt lat="43.30254" lon="6.54113">
        <ele>352.8</ele>
        <time>2022-02-04T16:37:47Z</time>
      </trkpt>
      <trkpt lat="43.30252" lon="6.5411">
        <ele>353.6</ele>
        <time>2022-02-04T16:37:48Z</time>
      </trkpt>
      <trkpt lat="43.3025" lon="6.54107">
        <ele>354</ele>
        <time>2022-02-04T16:37:49Z</time>
      </trkpt>
      <trkpt lat="43.30248" lon="6.54103">
        <ele>354.2</ele>
        <time>2022-02-04T16:37:50Z</time>
      </trkpt>
      <trkpt lat="43.30246" lon="6.541">
        <ele>354.4</ele>
        <time>2022-02-04T16:37:51Z</time>
      </trkpt>
      <trkpt lat="43.30244" lon="6.54096">
        <ele>354.4</ele>
        <time>2022-02-04T16:37:52Z</time>
      </trkpt>
      <trkpt lat="43.30243" lon="6.54091">
        <ele>354.6</ele>
        <time>2022-02-04T16:37:53Z</time>
      </trkpt>
      <trkpt lat="43.30242" lon="6.54086">
        <ele>354.6</ele>
        <time>2022-02-04T16:37:54Z</time>
      </trkpt>
      <trkpt lat="43.3024" lon="6.54081">
        <ele>354.4</ele>
        <time>2022-02-04T16:37:55Z</time>
      </trkpt>
      <trkpt lat="43.30239" lon="6.54076">
        <ele>353.6</ele>
        <time>2022-02-04T16:37:56Z</time>
      </trkpt>
      <trkpt lat="43.30237" lon="6.5407">
        <ele>353</ele>
        <time>2022-02-04T16:37:57Z</time>
      </trkpt>
      <trkpt lat="43.30235" lon="6.54064">
        <ele>352.4</ele>
        <time>2022-02-04T16:37:58Z</time>
      </trkpt>
      <trkpt lat="43.30233" lon="6.54056">
        <ele>351.6</ele>
        <time>2022-02-04T16:37:59Z</time>
      </trkpt>
      <trkpt lat="43.3023" lon="6.54049">
        <ele>350.6</ele>
        <time>2022-02-04T16:38:00Z</time>
      </trkpt>
      <trkpt lat="43.30228" lon="6.54041">
        <ele>349.6</ele>
        <time>2022-02-04T16:38:01Z</time>
      </trkpt>
      <trkpt lat="43.30226" lon="6.54033">
        <ele>349.2</ele>
        <time>2022-02-04T16:38:02Z</time>
      </trkpt>
      <trkpt lat="43.30223" lon="6.54023">
        <ele>348.8</ele>
        <time>2022-02-04T16:38:03Z</time>
      </trkpt>
      <trkpt lat="43.3022" lon="6.54012">
        <ele>348.8</ele>
        <time>2022-02-04T16:38:04Z</time>
      </trkpt>
      <trkpt lat="43.30218" lon="6.54002">
        <ele>348.6</ele>
        <time>2022-02-04T16:38:05Z</time>
      </trkpt>
      <trkpt lat="43.30216" lon="6.53994">
        <ele>348.2</ele>
        <time>2022-02-04T16:38:06Z</time>
      </trkpt>
      <trkpt lat="43.30215" lon="6.53988">
        <ele>348</ele>
        <time>2022-02-04T16:38:07Z</time>
      </trkpt>
      <trkpt lat="43.30214" lon="6.53983">
        <ele>348</ele>
        <time>2022-02-04T16:38:08Z</time>
      </trkpt>
      <trkpt lat="43.30214" lon="6.53978">
        <ele>348.4</ele>
        <time>2022-02-04T16:38:09Z</time>
      </trkpt>
      <trkpt lat="43.30213" lon="6.53974">
        <ele>348.6</ele>
        <time>2022-02-04T16:38:10Z</time>
      </trkpt>
      <trkpt lat="43.30213" lon="6.53968">
        <ele>349</ele>
        <time>2022-02-04T16:38:11Z</time>
      </trkpt>
      <trkpt lat="43.30213" lon="6.53963">
        <ele>349</ele>
        <time>2022-02-04T16:38:12Z</time>
      </trkpt>
      <trkpt lat="43.30212" lon="6.53957">
        <ele>349.2</ele>
        <time>2022-02-04T16:38:13Z</time>
      </trkpt>
      <trkpt lat="43.30212" lon="6.53952">
        <ele>349.2</ele>
        <time>2022-02-04T16:38:14Z</time>
      </trkpt>
      <trkpt lat="43.30211" lon="6.53946">
        <ele>349.4</ele>
        <time>2022-02-04T16:38:15Z</time>
      </trkpt>
      <trkpt lat="43.3021" lon="6.53941">
        <ele>349.6</ele>
        <time>2022-02-04T16:38:16Z</time>
      </trkpt>
      <trkpt lat="43.3021" lon="6.53937">
        <ele>350</ele>
        <time>2022-02-04T16:38:17Z</time>
      </trkpt>
      <trkpt lat="43.3021" lon="6.53933">
        <ele>350.2</ele>
        <time>2022-02-04T16:38:18Z</time>
      </trkpt>
      <trkpt lat="43.30212" lon="6.5393">
        <ele>350.4</ele>
        <time>2022-02-04T16:38:19Z</time>
      </trkpt>
      <trkpt lat="43.30214" lon="6.53929">
        <ele>350.6</ele>
        <time>2022-02-04T16:38:20Z</time>
      </trkpt>
      <trkpt lat="43.30217" lon="6.53929">
        <ele>350.8</ele>
        <time>2022-02-04T16:38:21Z</time>
      </trkpt>
      <trkpt lat="43.30219" lon="6.5393">
        <ele>351.2</ele>
        <time>2022-02-04T16:38:22Z</time>
      </trkpt>
      <trkpt lat="43.30221" lon="6.53933">
        <ele>351.4</ele>
        <time>2022-02-04T16:38:23Z</time>
      </trkpt>
      <trkpt lat="43.30224" lon="6.53934">
        <ele>351.8</ele>
        <time>2022-02-04T16:38:24Z</time>
      </trkpt>
      <trkpt lat="43.30227" lon="6.53935">
        <ele>352.2</ele>
        <time>2022-02-04T16:38:25Z</time>
      </trkpt>
      <trkpt lat="43.30231" lon="6.53936">
        <ele>352.6</ele>
        <time>2022-02-04T16:38:26Z</time>
      </trkpt>
      <trkpt lat="43.30234" lon="6.53938">
        <ele>352.8</ele>
        <time>2022-02-04T16:38:27Z</time>
      </trkpt>
      <trkpt lat="43.30236" lon="6.53939">
        <ele>353.2</ele>
        <time>2022-02-04T16:38:28Z</time>
      </trkpt>
      <trkpt lat="43.30239" lon="6.5394">
        <ele>353.6</ele>
        <time>2022-02-04T16:38:29Z</time>
      </trkpt>
      <trkpt lat="43.30242" lon="6.53941">
        <ele>354.2</ele>
        <time>2022-02-04T16:38:30Z</time>
      </trkpt>
      <trkpt lat="43.30244" lon="6.53942">
        <ele>354.8</ele>
        <time>2022-02-04T16:38:31Z</time>
      </trkpt>
      <trkpt lat="43.30247" lon="6.53943">
        <ele>355.6</ele>
        <time>2022-02-04T16:38:32Z</time>
      </trkpt>
      <trkpt lat="43.30249" lon="6.53944">
        <ele>356.2</ele>
        <time>2022-02-04T16:38:33Z</time>
      </trkpt>
      <trkpt lat="43.30252" lon="6.53945">
        <ele>357</ele>
        <time>2022-02-04T16:38:34Z</time>
      </trkpt>
      <trkpt lat="43.30254" lon="6.53945">
        <ele>357.8</ele>
        <time>2022-02-04T16:38:35Z</time>
      </trkpt>
      <trkpt lat="43.30257" lon="6.53944">
        <ele>358.4</ele>
        <time>2022-02-04T16:38:36Z</time>
      </trkpt>
      <trkpt lat="43.3026" lon="6.53942">
        <ele>359.2</ele>
        <time>2022-02-04T16:38:37Z</time>
      </trkpt>
      <trkpt lat="43.30262" lon="6.5394">
        <ele>359.6</ele>
        <time>2022-02-04T16:38:38Z</time>
      </trkpt>
      <trkpt lat="43.30264" lon="6.53938">
        <ele>360.2</ele>
        <time>2022-02-04T16:38:39Z</time>
      </trkpt>
      <trkpt lat="43.30267" lon="6.53936">
        <ele>361</ele>
        <time>2022-02-04T16:38:40Z</time>
      </trkpt>
      <trkpt lat="43.3027" lon="6.53934">
        <ele>361.4</ele>
        <time>2022-02-04T16:38:41Z</time>
      </trkpt>
      <trkpt lat="43.30273" lon="6.53933">
        <ele>361.6</ele>
        <time>2022-02-04T16:38:42Z</time>
      </trkpt>
      <trkpt lat="43.30276" lon="6.53932">
        <ele>362</ele>
        <time>2022-02-04T16:38:43Z</time>
      </trkpt>
      <trkpt lat="43.30279" lon="6.53931">
        <ele>362.4</ele>
        <time>2022-02-04T16:38:44Z</time>
      </trkpt>
      <trkpt lat="43.30282" lon="6.53931">
        <ele>363.2</ele>
        <time>2022-02-04T16:38:45Z</time>
      </trkpt>
      <trkpt lat="43.30285" lon="6.53929">
        <ele>363.8</ele>
        <time>2022-02-04T16:38:46Z</time>
      </trkpt>
      <trkpt lat="43.30288" lon="6.53928">
        <ele>364</ele>
        <time>2022-02-04T16:38:47Z</time>
      </trkpt>
      <trkpt lat="43.30291" lon="6.53925">
        <ele>364.4</ele>
        <time>2022-02-04T16:38:48Z</time>
      </trkpt>
      <trkpt lat="43.30292" lon="6.53922">
        <ele>364.6</ele>
        <time>2022-02-04T16:38:49Z</time>
      </trkpt>
      <trkpt lat="43.30294" lon="6.53918">
        <ele>364.8</ele>
        <time>2022-02-04T16:38:50Z</time>
      </trkpt>
      <trkpt lat="43.30296" lon="6.53914">
        <ele>364.8</ele>
        <time>2022-02-04T16:38:51Z</time>
      </trkpt>
      <trkpt lat="43.30298" lon="6.5391">
        <ele>365</ele>
        <time>2022-02-04T16:38:52Z</time>
      </trkpt>
      <trkpt lat="43.30299" lon="6.53907">
        <ele>365.4</ele>
        <time>2022-02-04T16:38:53Z</time>
      </trkpt>
      <trkpt lat="43.30301" lon="6.53903">
        <ele>365.6</ele>
        <time>2022-02-04T16:38:54Z</time>
      </trkpt>
      <trkpt lat="43.30303" lon="6.539">
        <ele>365.6</ele>
        <time>2022-02-04T16:38:55Z</time>
      </trkpt>
      <trkpt lat="43.30305" lon="6.53896">
        <ele>365.8</ele>
        <time>2022-02-04T16:38:56Z</time>
      </trkpt>
      <trkpt lat="43.30306" lon="6.53893">
        <ele>365.8</ele>
        <time>2022-02-04T16:38:57Z</time>
      </trkpt>
      <trkpt lat="43.30308" lon="6.53889">
        <ele>365.8</ele>
        <time>2022-02-04T16:38:58Z</time>
      </trkpt>
      <trkpt lat="43.30311" lon="6.53887">
        <ele>366</ele>
        <time>2022-02-04T16:38:59Z</time>
      </trkpt>
      <trkpt lat="43.30313" lon="6.53884">
        <ele>366.4</ele>
        <time>2022-02-04T16:39:00Z</time>
      </trkpt>
      <trkpt lat="43.30316" lon="6.53882">
        <ele>366.6</ele>
        <time>2022-02-04T16:39:01Z</time>
      </trkpt>
      <trkpt lat="43.30319" lon="6.53882">
        <ele>366.8</ele>
        <time>2022-02-04T16:39:02Z</time>
      </trkpt>
      <trkpt lat="43.30322" lon="6.53881">
        <ele>367</ele>
        <time>2022-02-04T16:39:03Z</time>
      </trkpt>
      <trkpt lat="43.30325" lon="6.53881">
        <ele>367.2</ele>
        <time>2022-02-04T16:39:04Z</time>
      </trkpt>
      <trkpt lat="43.30328" lon="6.53879">
        <ele>367.4</ele>
        <time>2022-02-04T16:39:05Z</time>
      </trkpt>
      <trkpt lat="43.30331" lon="6.53877">
        <ele>367.6</ele>
        <time>2022-02-04T16:39:06Z</time>
      </trkpt>
      <trkpt lat="43.30334" lon="6.53874">
        <ele>367.8</ele>
        <time>2022-02-04T16:39:07Z</time>
      </trkpt>
      <trkpt lat="43.30337" lon="6.53871">
        <ele>368.6</ele>
        <time>2022-02-04T16:39:08Z</time>
      </trkpt>
      <trkpt lat="43.3034" lon="6.53869">
        <ele>369.4</ele>
        <time>2022-02-04T16:39:09Z</time>
      </trkpt>
      <trkpt lat="43.30342" lon="6.53868">
        <ele>369.8</ele>
        <time>2022-02-04T16:39:10Z</time>
      </trkpt>
      <trkpt lat="43.30345" lon="6.53868">
        <ele>370.2</ele>
        <time>2022-02-04T16:39:11Z</time>
      </trkpt>
      <trkpt lat="43.30348" lon="6.53867">
        <ele>370.8</ele>
        <time>2022-02-04T16:39:12Z</time>
      </trkpt>
      <trkpt lat="43.30351" lon="6.53867">
        <ele>371.4</ele>
        <time>2022-02-04T16:39:13Z</time>
      </trkpt>
      <trkpt lat="43.30354" lon="6.53866">
        <ele>371.6</ele>
        <time>2022-02-04T16:39:14Z</time>
      </trkpt>
      <trkpt lat="43.30357" lon="6.53865">
        <ele>372.6</ele>
        <time>2022-02-04T16:39:15Z</time>
      </trkpt>
      <trkpt lat="43.3036" lon="6.53864">
        <ele>373.4</ele>
        <time>2022-02-04T16:39:16Z</time>
      </trkpt>
      <trkpt lat="43.30362" lon="6.53864">
        <ele>374</ele>
        <time>2022-02-04T16:39:17Z</time>
      </trkpt>
      <trkpt lat="43.30365" lon="6.53864">
        <ele>374.4</ele>
        <time>2022-02-04T16:39:18Z</time>
      </trkpt>
      <trkpt lat="43.30368" lon="6.53864">
        <ele>374.8</ele>
        <time>2022-02-04T16:39:19Z</time>
      </trkpt>
      <trkpt lat="43.30371" lon="6.53864">
        <ele>375.8</ele>
        <time>2022-02-04T16:39:20Z</time>
      </trkpt>
      <trkpt lat="43.30374" lon="6.53864">
        <ele>376.4</ele>
        <time>2022-02-04T16:39:21Z</time>
      </trkpt>
      <trkpt lat="43.30377" lon="6.53864">
        <ele>376.8</ele>
        <time>2022-02-04T16:39:22Z</time>
      </trkpt>
      <trkpt lat="43.3038" lon="6.53865">
        <ele>377.2</ele>
        <time>2022-02-04T16:39:23Z</time>
      </trkpt>
      <trkpt lat="43.30383" lon="6.53866">
        <ele>377.8</ele>
        <time>2022-02-04T16:39:24Z</time>
      </trkpt>
      <trkpt lat="43.30386" lon="6.53867">
        <ele>378.8</ele>
        <time>2022-02-04T16:39:25Z</time>
      </trkpt>
      <trkpt lat="43.30388" lon="6.53869">
        <ele>379.2</ele>
        <time>2022-02-04T16:39:26Z</time>
      </trkpt>
      <trkpt lat="43.3039" lon="6.53872">
        <ele>379.6</ele>
        <time>2022-02-04T16:39:27Z</time>
      </trkpt>
      <trkpt lat="43.30392" lon="6.53875">
        <ele>380</ele>
        <time>2022-02-04T16:39:28Z</time>
      </trkpt>
      <trkpt lat="43.30394" lon="6.53878">
        <ele>380.4</ele>
        <time>2022-02-04T16:39:29Z</time>
      </trkpt>
      <trkpt lat="43.30396" lon="6.53881">
        <ele>380.6</ele>
        <time>2022-02-04T16:39:30Z</time>
      </trkpt>
      <trkpt lat="43.30398" lon="6.53884">
        <ele>380.8</ele>
        <time>2022-02-04T16:39:31Z</time>
      </trkpt>
      <trkpt lat="43.30399" lon="6.53888">
        <ele>380.8</ele>
        <time>2022-02-04T16:39:32Z</time>
      </trkpt>
      <trkpt lat="43.30399" lon="6.53891">
        <ele>381</ele>
        <time>2022-02-04T16:39:33Z</time>
      </trkpt>
      <trkpt lat="43.30399" lon="6.53895">
        <ele>381</ele>
        <time>2022-02-04T16:39:34Z</time>
      </trkpt>
      <trkpt lat="43.30398" lon="6.53898">
        <ele>381</ele>
        <time>2022-02-04T16:39:35Z</time>
      </trkpt>
      <trkpt lat="43.30397" lon="6.53901">
        <ele>381</ele>
        <time>2022-02-04T16:39:36Z</time>
      </trkpt>
      <trkpt lat="43.30395" lon="6.53904">
        <ele>381</ele>
        <time>2022-02-04T16:39:37Z</time>
      </trkpt>
      <trkpt lat="43.30394" lon="6.53906">
        <ele>380.8</ele>
        <time>2022-02-04T16:39:38Z</time>
      </trkpt>
      <trkpt lat="43.30393" lon="6.53908">
        <ele>380.6</ele>
        <time>2022-02-04T16:39:39Z</time>
      </trkpt>
      <trkpt lat="43.30392" lon="6.5391">
        <ele>380.4</ele>
        <time>2022-02-04T16:39:40Z</time>
      </trkpt>
      <trkpt lat="43.3039" lon="6.53912">
        <ele>380.2</ele>
        <time>2022-02-04T16:39:41Z</time>
      </trkpt>
      <trkpt lat="43.3039" lon="6.53913">
        <ele>380.2</ele>
        <time>2022-02-04T16:39:42Z</time>
      </trkpt>
      <trkpt lat="43.3039" lon="6.53913">
        <ele>380</ele>
        <time>2022-02-04T16:39:43Z</time>
      </trkpt>
      <trkpt lat="43.3039" lon="6.53913">
        <ele>380</ele>
        <time>2022-02-04T16:39:44Z</time>
      </trkpt>
      <trkpt lat="43.3039" lon="6.53913">
        <ele>380</ele>
        <time>2022-02-04T16:39:45Z</time>
      </trkpt>
      <trkpt lat="43.30389" lon="6.53913">
        <ele>380</ele>
        <time>2022-02-04T16:39:46Z</time>
      </trkpt>
      <trkpt lat="43.30389" lon="6.53913">
        <ele>380</ele>
        <time>2022-02-04T16:39:47Z</time>
      </trkpt>
      <trkpt lat="43.30389" lon="6.53913">
        <ele>380</ele>
        <time>2022-02-04T16:39:48Z</time>
      </trkpt>
      <trkpt lat="43.30389" lon="6.53913">
        <ele>380</ele>
        <time>2022-02-04T16:39:49Z</time>
      </trkpt>
      <trkpt lat="43.30389" lon="6.53913">
        <ele>380</ele>
        <time>2022-02-04T16:39:50Z</time>
      </trkpt>
      <trkpt lat="43.30389" lon="6.53913">
        <ele>380</ele>
        <time>2022-02-04T16:39:51Z</time>
      </trkpt>
      <trkpt lat="43.30389" lon="6.53913">
        <ele>379.8</ele>
        <time>2022-02-04T16:39:52Z</time>
      </trkpt>
      <trkpt lat="43.3039" lon="6.53913">
        <ele>379.6</ele>
        <time>2022-02-04T16:39:53Z</time>
      </trkpt>
      <trkpt lat="43.30391" lon="6.53913">
        <ele>379.6</ele>
        <time>2022-02-04T16:39:54Z</time>
      </trkpt>
      <trkpt lat="43.30391" lon="6.53913">
        <ele>379.4</ele>
        <time>2022-02-04T16:39:55Z</time>
      </trkpt>
      <trkpt lat="43.3039" lon="6.53913">
        <ele>379.4</ele>
        <time>2022-02-04T16:39:56Z</time>
      </trkpt>
      <trkpt lat="43.3039" lon="6.53913">
        <ele>379.4</ele>
        <time>2022-02-04T16:39:57Z</time>
      </trkpt>
      <trkpt lat="43.30389" lon="6.53913">
        <ele>379.2</ele>
        <time>2022-02-04T16:39:58Z</time>
      </trkpt>
      <trkpt lat="43.30389" lon="6.53913">
        <ele>379.2</ele>
        <time>2022-02-04T16:39:59Z</time>
      </trkpt>
      <trkpt lat="43.30389" lon="6.53913">
        <ele>379</ele>
        <time>2022-02-04T16:40:00Z</time>
      </trkpt>
      <trkpt lat="43.30389" lon="6.53913">
        <ele>379</ele>
        <time>2022-02-04T16:40:01Z</time>
      </trkpt>
      <trkpt lat="43.30389" lon="6.53913">
        <ele>379</ele>
        <time>2022-02-04T16:40:02Z</time>
      </trkpt>
      <trkpt lat="43.30389" lon="6.53913">
        <ele>379</ele>
        <time>2022-02-04T16:40:03Z</time>
      </trkpt>
      <trkpt lat="43.30389" lon="6.53913">
        <ele>379</ele>
        <time>2022-02-04T16:40:04Z</time>
      </trkpt>
      <trkpt lat="43.30389" lon="6.53913">
        <ele>379</ele>
        <time>2022-02-04T16:40:05Z</time>
      </trkpt>
      <trkpt lat="43.30389" lon="6.53913">
        <ele>379</ele>
        <time>2022-02-04T16:40:06Z</time>
      </trkpt>
      <trkpt lat="43.30389" lon="6.53913">
        <ele>379</ele>
        <time>2022-02-04T16:40:07Z</time>
      </trkpt>
      <trkpt lat="43.30389" lon="6.53913">
        <ele>379</ele>
        <time>2022-02-04T16:40:08Z</time>
      </trkpt>
      <trkpt lat="43.30389" lon="6.53913">
        <ele>379</ele>
        <time>2022-02-04T16:40:09Z</time>
      </trkpt>
      <trkpt lat="43.30389" lon="6.53913">
        <ele>379</ele>
        <time>2022-02-04T16:40:10Z</time>
      </trkpt>
      <trkpt lat="43.30389" lon="6.53913">
        <ele>379</ele>
        <time>2022-02-04T16:40:11Z</time>
      </trkpt>
      <trkpt lat="43.30389" lon="6.53913">
        <ele>379</ele>
        <time>2022-02-04T16:40:12Z</time>
      </trkpt>
      <trkpt lat="43.30389" lon="6.53913">
        <ele>379</ele>
        <time>2022-02-04T16:40:13Z</time>
      </trkpt>
      <trkpt lat="43.30388" lon="6.53913">
        <ele>379</ele>
        <time>2022-02-04T16:40:14Z</time>
      </trkpt>
      <trkpt lat="43.30388" lon="6.53913">
        <ele>378.8</ele>
        <time>2022-02-04T16:40:15Z</time>
      </trkpt>
      <trkpt lat="43.30388" lon="6.53913">
        <ele>378.8</ele>
        <time>2022-02-04T16:40:16Z</time>
      </trkpt>
      <trkpt lat="43.30388" lon="6.53913">
        <ele>378.6</ele>
        <time>2022-02-04T16:40:17Z</time>
      </trkpt>
      <trkpt lat="43.30388" lon="6.53913">
        <ele>378.6</ele>
        <time>2022-02-04T16:40:18Z</time>
      </trkpt>
      <trkpt lat="43.30388" lon="6.53913">
        <ele>378.6</ele>
        <time>2022-02-04T16:40:19Z</time>
      </trkpt>
      <trkpt lat="43.30388" lon="6.53913">
        <ele>378.6</ele>
        <time>2022-02-04T16:40:20Z</time>
      </trkpt>
      <trkpt lat="43.30388" lon="6.53913">
        <ele>378.6</ele>
        <time>2022-02-04T16:40:21Z</time>
      </trkpt>
      <trkpt lat="43.30388" lon="6.53913">
        <ele>378.6</ele>
        <time>2022-02-04T16:40:22Z</time>
      </trkpt>
      <trkpt lat="43.30388" lon="6.53913">
        <ele>378.4</ele>
        <time>2022-02-04T16:40:23Z</time>
      </trkpt>
      <trkpt lat="43.30388" lon="6.53913">
        <ele>378.4</ele>
        <time>2022-02-04T16:40:24Z</time>
      </trkpt>
      <trkpt lat="43.30389" lon="6.53913">
        <ele>378.2</ele>
        <time>2022-02-04T16:40:25Z</time>
      </trkpt>
      <trkpt lat="43.30389" lon="6.53912">
        <ele>378.2</ele>
        <time>2022-02-04T16:40:26Z</time>
      </trkpt>
      <trkpt lat="43.30389" lon="6.53912">
        <ele>378.2</ele>
        <time>2022-02-04T16:40:27Z</time>
      </trkpt>
      <trkpt lat="43.30389" lon="6.53912">
        <ele>378.2</ele>
        <time>2022-02-04T16:40:28Z</time>
      </trkpt>
      <trkpt lat="43.30389" lon="6.53912">
        <ele>378.2</ele>
        <time>2022-02-04T16:40:29Z</time>
      </trkpt>
      <trkpt lat="43.30389" lon="6.53912">
        <ele>378</ele>
        <time>2022-02-04T16:40:30Z</time>
      </trkpt>
      <trkpt lat="43.30389" lon="6.53912">
        <ele>378</ele>
        <time>2022-02-04T16:40:31Z</time>
      </trkpt>
      <trkpt lat="43.30389" lon="6.53912">
        <ele>378</ele>
        <time>2022-02-04T16:40:32Z</time>
      </trkpt>
      <trkpt lat="43.30389" lon="6.53912">
        <ele>377.8</ele>
        <time>2022-02-04T16:40:33Z</time>
      </trkpt>
      <trkpt lat="43.30389" lon="6.53912">
        <ele>377.8</ele>
        <time>2022-02-04T16:40:34Z</time>
      </trkpt>
      <trkpt lat="43.30389" lon="6.53912">
        <ele>377.8</ele>
        <time>2022-02-04T16:40:35Z</time>
      </trkpt>
      <trkpt lat="43.30389" lon="6.53912">
        <ele>377.6</ele>
        <time>2022-02-04T16:40:36Z</time>
      </trkpt>
      <trkpt lat="43.30389" lon="6.53912">
        <ele>378</ele>
        <time>2022-02-04T16:40:37Z</time>
      </trkpt>
      <trkpt lat="43.30389" lon="6.53912">
        <ele>378</ele>
        <time>2022-02-04T16:40:38Z</time>
      </trkpt>
      <trkpt lat="43.30389" lon="6.53912">
        <ele>378.2</ele>
        <time>2022-02-04T16:40:39Z</time>
      </trkpt>
      <trkpt lat="43.30389" lon="6.53912">
        <ele>378.2</ele>
        <time>2022-02-04T16:40:40Z</time>
      </trkpt>
      <trkpt lat="43.3039" lon="6.53911">
        <ele>378.2</ele>
        <time>2022-02-04T16:40:41Z</time>
      </trkpt>
      <trkpt lat="43.3039" lon="6.53911">
        <ele>378</ele>
        <time>2022-02-04T16:40:42Z</time>
      </trkpt>
      <trkpt lat="43.3039" lon="6.53911">
        <ele>378</ele>
        <time>2022-02-04T16:40:43Z</time>
      </trkpt>
      <trkpt lat="43.3039" lon="6.53911">
        <ele>378</ele>
        <time>2022-02-04T16:40:44Z</time>
      </trkpt>
      <trkpt lat="43.3039" lon="6.53911">
        <ele>377.8</ele>
        <time>2022-02-04T16:40:45Z</time>
      </trkpt>
      <trkpt lat="43.3039" lon="6.53911">
        <ele>377.8</ele>
        <time>2022-02-04T16:40:46Z</time>
      </trkpt>
      <trkpt lat="43.3039" lon="6.53911">
        <ele>377.6</ele>
        <time>2022-02-04T16:40:47Z</time>
      </trkpt>
      <trkpt lat="43.3039" lon="6.53911">
        <ele>377.6</ele>
        <time>2022-02-04T16:40:48Z</time>
      </trkpt>
      <trkpt lat="43.3039" lon="6.53911">
        <ele>377.6</ele>
        <time>2022-02-04T16:40:49Z</time>
      </trkpt>
      <trkpt lat="43.3039" lon="6.53911">
        <ele>377.4</ele>
        <time>2022-02-04T16:40:50Z</time>
      </trkpt>
      <trkpt lat="43.3039" lon="6.53911">
        <ele>377.4</ele>
        <time>2022-02-04T16:40:51Z</time>
      </trkpt>
      <trkpt lat="43.3039" lon="6.53911">
        <ele>377.4</ele>
        <time>2022-02-04T16:40:52Z</time>
      </trkpt>
      <trkpt lat="43.3039" lon="6.53911">
        <ele>377.4</ele>
        <time>2022-02-04T16:40:53Z</time>
      </trkpt>
      <trkpt lat="43.3039" lon="6.53911">
        <ele>377.4</ele>
        <time>2022-02-04T16:40:54Z</time>
      </trkpt>
      <trkpt lat="43.3039" lon="6.53911">
        <ele>377.4</ele>
        <time>2022-02-04T16:40:55Z</time>
      </trkpt>
      <trkpt lat="43.3039" lon="6.53911">
        <ele>377.4</ele>
        <time>2022-02-04T16:40:56Z</time>
      </trkpt>
      <trkpt lat="43.3039" lon="6.53911">
        <ele>377.4</ele>
        <time>2022-02-04T16:40:57Z</time>
      </trkpt>
      <trkpt lat="43.3039" lon="6.53911">
        <ele>377.4</ele>
        <time>2022-02-04T16:40:58Z</time>
      </trkpt>
      <trkpt lat="43.3039" lon="6.53911">
        <ele>377.2</ele>
        <time>2022-02-04T16:40:59Z</time>
      </trkpt>
      <trkpt lat="43.3039" lon="6.53911">
        <ele>377.2</ele>
        <time>2022-02-04T16:41:00Z</time>
      </trkpt>
      <trkpt lat="43.3039" lon="6.53911">
        <ele>377</ele>
        <time>2022-02-04T16:41:01Z</time>
      </trkpt>
      <trkpt lat="43.3039" lon="6.53911">
        <ele>377</ele>
        <time>2022-02-04T16:41:02Z</time>
      </trkpt>
      <trkpt lat="43.3039" lon="6.53911">
        <ele>377</ele>
        <time>2022-02-04T16:41:03Z</time>
      </trkpt>
      <trkpt lat="43.3039" lon="6.53911">
        <ele>377</ele>
        <time>2022-02-04T16:41:04Z</time>
      </trkpt>
      <trkpt lat="43.3039" lon="6.53911">
        <ele>377</ele>
        <time>2022-02-04T16:41:05Z</time>
      </trkpt>
      <trkpt lat="43.3039" lon="6.53911">
        <ele>377.2</ele>
        <time>2022-02-04T16:41:06Z</time>
      </trkpt>
      <trkpt lat="43.3039" lon="6.53911">
        <ele>377.2</ele>
        <time>2022-02-04T16:41:07Z</time>
      </trkpt>
      <trkpt lat="43.3039" lon="6.53911">
        <ele>377.2</ele>
        <time>2022-02-04T16:41:08Z</time>
      </trkpt>
      <trkpt lat="43.3039" lon="6.53911">
        <ele>377.2</ele>
        <time>2022-02-04T16:41:09Z</time>
      </trkpt>
      <trkpt lat="43.3039" lon="6.53911">
        <ele>377.4</ele>
        <time>2022-02-04T16:41:10Z</time>
      </trkpt>
      <trkpt lat="43.3039" lon="6.53911">
        <ele>377.4</ele>
        <time>2022-02-04T16:41:11Z</time>
      </trkpt>
      <trkpt lat="43.3039" lon="6.53911">
        <ele>377.2</ele>
        <time>2022-02-04T16:41:12Z</time>
      </trkpt>
      <trkpt lat="43.3039" lon="6.53911">
        <ele>377.2</ele>
        <time>2022-02-04T16:41:13Z</time>
      </trkpt>
      <trkpt lat="43.3039" lon="6.53911">
        <ele>377</ele>
        <time>2022-02-04T16:41:14Z</time>
      </trkpt>
      <trkpt lat="43.3039" lon="6.53911">
        <ele>377</ele>
        <time>2022-02-04T16:41:15Z</time>
      </trkpt>
      <trkpt lat="43.3039" lon="6.53911">
        <ele>377</ele>
        <time>2022-02-04T16:41:16Z</time>
      </trkpt>
      <trkpt lat="43.3039" lon="6.53911">
        <ele>376.8</ele>
        <time>2022-02-04T16:41:17Z</time>
      </trkpt>
      <trkpt lat="43.3039" lon="6.53911">
        <ele>377</ele>
        <time>2022-02-04T16:41:18Z</time>
      </trkpt>
      <trkpt lat="43.3039" lon="6.53911">
        <ele>377</ele>
        <time>2022-02-04T16:41:19Z</time>
      </trkpt>
      <trkpt lat="43.3039" lon="6.53911">
        <ele>377</ele>
        <time>2022-02-04T16:41:20Z</time>
      </trkpt>
      <trkpt lat="43.3039" lon="6.53911">
        <ele>377.2</ele>
        <time>2022-02-04T16:41:21Z</time>
      </trkpt>
      <trkpt lat="43.3039" lon="6.53912">
        <ele>377.2</ele>
        <time>2022-02-04T16:41:22Z</time>
      </trkpt>
      <trkpt lat="43.30389" lon="6.53912">
        <ele>377.2</ele>
        <time>2022-02-04T16:41:23Z</time>
      </trkpt>
      <trkpt lat="43.30389" lon="6.53912">
        <ele>377</ele>
        <time>2022-02-04T16:41:24Z</time>
      </trkpt>
      <trkpt lat="43.30389" lon="6.53912">
        <ele>377</ele>
        <time>2022-02-04T16:41:25Z</time>
      </trkpt>
      <trkpt lat="43.30389" lon="6.53912">
        <ele>377</ele>
        <time>2022-02-04T16:41:26Z</time>
      </trkpt>
      <trkpt lat="43.30389" lon="6.53912">
        <ele>377</ele>
        <time>2022-02-04T16:41:27Z</time>
      </trkpt>
      <trkpt lat="43.30389" lon="6.53912">
        <ele>376.8</ele>
        <time>2022-02-04T16:41:28Z</time>
      </trkpt>
      <trkpt lat="43.30389" lon="6.53912">
        <ele>377</ele>
        <time>2022-02-04T16:41:29Z</time>
      </trkpt>
      <trkpt lat="43.30389" lon="6.53912">
        <ele>377</ele>
        <time>2022-02-04T16:41:30Z</time>
      </trkpt>
      <trkpt lat="43.30389" lon="6.53912">
        <ele>377.2</ele>
        <time>2022-02-04T16:41:31Z</time>
      </trkpt>
      <trkpt lat="43.30389" lon="6.53912">
        <ele>377.2</ele>
        <time>2022-02-04T16:41:32Z</time>
      </trkpt>
      <trkpt lat="43.30389" lon="6.53912">
        <ele>377.2</ele>
        <time>2022-02-04T16:41:33Z</time>
      </trkpt>
      <trkpt lat="43.30389" lon="6.53912">
        <ele>377</ele>
        <time>2022-02-04T16:41:34Z</time>
      </trkpt>
      <trkpt lat="43.30389" lon="6.53912">
        <ele>377</ele>
        <time>2022-02-04T16:41:35Z</time>
      </trkpt>
      <trkpt lat="43.30389" lon="6.53912">
        <ele>377</ele>
        <time>2022-02-04T16:41:36Z</time>
      </trkpt>
      <trkpt lat="43.30389" lon="6.53912">
        <ele>376.8</ele>
        <time>2022-02-04T16:41:37Z</time>
      </trkpt>
      <trkpt lat="43.30389" lon="6.53912">
        <ele>376.6</ele>
        <time>2022-02-04T16:41:38Z</time>
      </trkpt>
      <trkpt lat="43.30389" lon="6.53912">
        <ele>376.6</ele>
        <time>2022-02-04T16:41:39Z</time>
      </trkpt>
      <trkpt lat="43.30389" lon="6.53912">
        <ele>376.6</ele>
        <time>2022-02-04T16:41:40Z</time>
      </trkpt>
      <trkpt lat="43.30389" lon="6.53912">
        <ele>376.6</ele>
        <time>2022-02-04T16:41:41Z</time>
      </trkpt>
      <trkpt lat="43.30389" lon="6.53912">
        <ele>376.4</ele>
        <time>2022-02-04T16:41:42Z</time>
      </trkpt>
      <trkpt lat="43.30389" lon="6.53912">
        <ele>376.2</ele>
        <time>2022-02-04T16:41:43Z</time>
      </trkpt>
      <trkpt lat="43.30389" lon="6.53912">
        <ele>376.2</ele>
        <time>2022-02-04T16:41:44Z</time>
      </trkpt>
      <trkpt lat="43.30389" lon="6.53912">
        <ele>376.2</ele>
        <time>2022-02-04T16:41:45Z</time>
      </trkpt>
      <trkpt lat="43.30389" lon="6.53912">
        <ele>377.2</ele>
        <time>2022-02-04T16:41:46Z</time>
      </trkpt>
      <trkpt lat="43.30388" lon="6.53912">
        <ele>377.2</ele>
        <time>2022-02-04T16:41:47Z</time>
      </trkpt>
      <trkpt lat="43.30388" lon="6.53912">
        <ele>377.2</ele>
        <time>2022-02-04T16:41:48Z</time>
      </trkpt>
      <trkpt lat="43.30388" lon="6.53912">
        <ele>377.2</ele>
        <time>2022-02-04T16:41:49Z</time>
      </trkpt>
      <trkpt lat="43.30388" lon="6.53912">
        <ele>377.2</ele>
        <time>2022-02-04T16:41:50Z</time>
      </trkpt>
      <trkpt lat="43.30388" lon="6.53912">
        <ele>377.2</ele>
        <time>2022-02-04T16:41:51Z</time>
      </trkpt>
      <trkpt lat="43.30388" lon="6.53912">
        <ele>377.2</ele>
        <time>2022-02-04T16:41:52Z</time>
      </trkpt>
      <trkpt lat="43.30388" lon="6.53912">
        <ele>377.2</ele>
        <time>2022-02-04T16:41:53Z</time>
      </trkpt>
      <trkpt lat="43.30388" lon="6.53912">
        <ele>377.2</ele>
        <time>2022-02-04T16:41:54Z</time>
      </trkpt>
      <trkpt lat="43.30388" lon="6.53912">
        <ele>377.2</ele>
        <time>2022-02-04T16:41:55Z</time>
      </trkpt>
      <trkpt lat="43.30388" lon="6.53912">
        <ele>377.2</ele>
        <time>2022-02-04T16:41:56Z</time>
      </trkpt>
      <trkpt lat="43.30388" lon="6.53912">
        <ele>377.2</ele>
        <time>2022-02-04T16:41:57Z</time>
      </trkpt>
      <trkpt lat="43.30388" lon="6.53912">
        <ele>377.2</ele>
        <time>2022-02-04T16:41:58Z</time>
      </trkpt>
      <trkpt lat="43.30388" lon="6.53912">
        <ele>377.2</ele>
        <time>2022-02-04T16:41:59Z</time>
      </trkpt>
      <trkpt lat="43.30388" lon="6.53912">
        <ele>377.2</ele>
        <time>2022-02-04T16:42:00Z</time>
      </trkpt>
      <trkpt lat="43.30388" lon="6.53912">
        <ele>377.2</ele>
        <time>2022-02-04T16:42:01Z</time>
      </trkpt>
      <trkpt lat="43.30388" lon="6.53912">
        <ele>377.2</ele>
        <time>2022-02-04T16:42:02Z</time>
      </trkpt>
      <trkpt lat="43.30388" lon="6.53912">
        <ele>377.2</ele>
        <time>2022-02-04T16:42:03Z</time>
      </trkpt>
      <trkpt lat="43.30388" lon="6.53912">
        <ele>377.2</ele>
        <time>2022-02-04T16:42:04Z</time>
      </trkpt>
      <trkpt lat="43.30388" lon="6.53912">
        <ele>377.2</ele>
        <time>2022-02-04T16:42:05Z</time>
      </trkpt>
      <trkpt lat="43.30388" lon="6.53912">
        <ele>377.2</ele>
        <time>2022-02-04T16:42:06Z</time>
      </trkpt>
      <trkpt lat="43.30388" lon="6.53912">
        <ele>377.2</ele>
        <time>2022-02-04T16:42:07Z</time>
      </trkpt>
      <trkpt lat="43.30388" lon="6.53912">
        <ele>377.2</ele>
        <time>2022-02-04T16:42:08Z</time>
      </trkpt>
      <trkpt lat="43.30388" lon="6.53912">
        <ele>377.2</ele>
        <time>2022-02-04T16:42:09Z</time>
      </trkpt>
      <trkpt lat="43.30388" lon="6.53912">
        <ele>377.2</ele>
        <time>2022-02-04T16:42:10Z</time>
      </trkpt>
      <trkpt lat="43.30388" lon="6.53912">
        <ele>377.2</ele>
        <time>2022-02-04T16:42:11Z</time>
      </trkpt>
      <trkpt lat="43.30388" lon="6.53912">
        <ele>377.2</ele>
        <time>2022-02-04T16:42:12Z</time>
      </trkpt>
      <trkpt lat="43.30388" lon="6.53912">
        <ele>377.2</ele>
        <time>2022-02-04T16:42:13Z</time>
      </trkpt>
      <trkpt lat="43.30388" lon="6.53912">
        <ele>377.2</ele>
        <time>2022-02-04T16:42:14Z</time>
      </trkpt>
      <trkpt lat="43.30388" lon="6.53912">
        <ele>377.2</ele>
        <time>2022-02-04T16:42:15Z</time>
      </trkpt>
      <trkpt lat="43.30388" lon="6.53912">
        <ele>377.2</ele>
        <time>2022-02-04T16:42:16Z</time>
      </trkpt>
      <trkpt lat="43.30388" lon="6.53912">
        <ele>377.2</ele>
        <time>2022-02-04T16:42:17Z</time>
      </trkpt>
      <trkpt lat="43.30388" lon="6.53912">
        <ele>377.2</ele>
        <time>2022-02-04T16:42:18Z</time>
      </trkpt>
      <trkpt lat="43.30388" lon="6.53912">
        <ele>377.2</ele>
        <time>2022-02-04T16:42:19Z</time>
      </trkpt>
      <trkpt lat="43.30388" lon="6.53912">
        <ele>377.2</ele>
        <time>2022-02-04T16:42:20Z</time>
      </trkpt>
      <trkpt lat="43.30388" lon="6.53912">
        <ele>377.2</ele>
        <time>2022-02-04T16:42:21Z</time>
      </trkpt>
      <trkpt lat="43.30388" lon="6.53912">
        <ele>377.2</ele>
        <time>2022-02-04T16:42:22Z</time>
      </trkpt>
      <trkpt lat="43.30388" lon="6.53912">
        <ele>377.2</ele>
        <time>2022-02-04T16:42:23Z</time>
      </trkpt>
      <trkpt lat="43.30388" lon="6.53912">
        <ele>377.2</ele>
        <time>2022-02-04T16:42:24Z</time>
      </trkpt>
      <trkpt lat="43.30388" lon="6.53912">
        <ele>377.2</ele>
        <time>2022-02-04T16:42:25Z</time>
      </trkpt>
      <trkpt lat="43.30388" lon="6.53912">
        <ele>377.2</ele>
        <time>2022-02-04T16:42:26Z</time>
      </trkpt>
      <trkpt lat="43.30388" lon="6.53912">
        <ele>377.2</ele>
        <time>2022-02-04T16:42:27Z</time>
      </trkpt>
      <trkpt lat="43.30388" lon="6.53912">
        <ele>377.2</ele>
        <time>2022-02-04T16:42:28Z</time>
      </trkpt>
      <trkpt lat="43.30388" lon="6.53912">
        <ele>377.2</ele>
        <time>2022-02-04T16:42:29Z</time>
      </trkpt>
      <trkpt lat="43.30388" lon="6.53912">
        <ele>377.2</ele>
        <time>2022-02-04T16:42:30Z</time>
      </trkpt>
      <trkpt lat="43.30388" lon="6.53912">
        <ele>377.2</ele>
        <time>2022-02-04T16:42:31Z</time>
      </trkpt>
      <trkpt lat="43.30388" lon="6.53912">
        <ele>377.2</ele>
        <time>2022-02-04T16:42:32Z</time>
      </trkpt>
      <trkpt lat="43.30388" lon="6.53912">
        <ele>377.2</ele>
        <time>2022-02-04T16:42:33Z</time>
      </trkpt>
      <trkpt lat="43.30388" lon="6.53912">
        <ele>377.2</ele>
        <time>2022-02-04T16:42:34Z</time>
      </trkpt>
      <trkpt lat="43.30388" lon="6.53912">
        <ele>377.2</ele>
        <time>2022-02-04T16:42:35Z</time>
      </trkpt>
      <trkpt lat="43.30388" lon="6.53912">
        <ele>377.2</ele>
        <time>2022-02-04T16:42:36Z</time>
      </trkpt>
      <trkpt lat="43.30388" lon="6.53912">
        <ele>377.2</ele>
        <time>2022-02-04T16:42:37Z</time>
      </trkpt>
      <trkpt lat="43.30388" lon="6.53912">
        <ele>377.2</ele>
        <time>2022-02-04T16:42:38Z</time>
      </trkpt>
      <trkpt lat="43.30389" lon="6.53912">
        <ele>377.2</ele>
        <time>2022-02-04T16:42:39Z</time>
      </trkpt>
      <trkpt lat="43.30389" lon="6.53912">
        <ele>377.2</ele>
        <time>2022-02-04T16:42:40Z</time>
      </trkpt>
      <trkpt lat="43.30389" lon="6.53912">
        <ele>377.2</ele>
        <time>2022-02-04T16:42:41Z</time>
      </trkpt>
      <trkpt lat="43.30389" lon="6.53912">
        <ele>377.2</ele>
        <time>2022-02-04T16:42:42Z</time>
      </trkpt>
      <trkpt lat="43.30389" lon="6.53912">
        <ele>377.2</ele>
        <time>2022-02-04T16:42:43Z</time>
      </trkpt>
      <trkpt lat="43.30389" lon="6.53912">
        <ele>377.2</ele>
        <time>2022-02-04T16:42:44Z</time>
      </trkpt>
      <trkpt lat="43.30389" lon="6.53912">
        <ele>377.2</ele>
        <time>2022-02-04T16:42:45Z</time>
      </trkpt>
      <trkpt lat="43.30389" lon="6.53912">
        <ele>377.2</ele>
        <time>2022-02-04T16:42:46Z</time>
      </trkpt>
      <trkpt lat="43.30389" lon="6.53912">
        <ele>377.2</ele>
        <time>2022-02-04T16:42:47Z</time>
      </trkpt>
      <trkpt lat="43.30389" lon="6.53912">
        <ele>377.2</ele>
        <time>2022-02-04T16:42:48Z</time>
      </trkpt>
      <trkpt lat="43.30389" lon="6.53912">
        <ele>377.2</ele>
        <time>2022-02-04T16:42:49Z</time>
      </trkpt>
      <trkpt lat="43.30389" lon="6.53912">
        <ele>377.2</ele>
        <time>2022-02-04T16:42:50Z</time>
      </trkpt>
      <trkpt lat="43.30389" lon="6.53912">
        <ele>377.2</ele>
        <time>2022-02-04T16:42:51Z</time>
      </trkpt>
      <trkpt lat="43.30389" lon="6.53912">
        <ele>377.2</ele>
        <time>2022-02-04T16:42:52Z</time>
      </trkpt>
      <trkpt lat="43.30389" lon="6.53912">
        <ele>377.2</ele>
        <time>2022-02-04T16:42:53Z</time>
      </trkpt>
      <trkpt lat="43.30389" lon="6.53912">
        <ele>377.2</ele>
        <time>2022-02-04T16:42:54Z</time>
      </trkpt>
      <trkpt lat="43.30389" lon="6.53912">
        <ele>377.2</ele>
        <time>2022-02-04T16:42:55Z</time>
      </trkpt>
      <trkpt lat="43.30389" lon="6.53912">
        <ele>377.2</ele>
        <time>2022-02-04T16:42:56Z</time>
      </trkpt>
      <trkpt lat="43.30389" lon="6.53912">
        <ele>377.2</ele>
        <time>2022-02-04T16:42:57Z</time>
      </trkpt>
      <trkpt lat="43.30389" lon="6.53912">
        <ele>377.2</ele>
        <time>2022-02-04T16:42:58Z</time>
      </trkpt>
      <trkpt lat="43.30389" lon="6.53912">
        <ele>377.2</ele>
        <time>2022-02-04T16:42:59Z</time>
      </trkpt>
      <trkpt lat="43.30389" lon="6.53912">
        <ele>377.2</ele>
        <time>2022-02-04T16:43:00Z</time>
      </trkpt>
      <trkpt lat="43.30389" lon="6.53912">
        <ele>377.2</ele>
        <time>2022-02-04T16:43:01Z</time>
      </trkpt>
      <trkpt lat="43.30389" lon="6.53912">
        <ele>377.2</ele>
        <time>2022-02-04T16:43:02Z</time>
      </trkpt>
      <trkpt lat="43.30389" lon="6.53912">
        <ele>377.2</ele>
        <time>2022-02-04T16:43:03Z</time>
      </trkpt>
      <trkpt lat="43.30389" lon="6.53912">
        <ele>377.2</ele>
        <time>2022-02-04T16:43:04Z</time>
      </trkpt>
      <trkpt lat="43.30389" lon="6.53912">
        <ele>377.2</ele>
        <time>2022-02-04T16:43:05Z</time>
      </trkpt>
      <trkpt lat="43.30389" lon="6.53912">
        <ele>377.2</ele>
        <time>2022-02-04T16:43:06Z</time>
      </trkpt>
      <trkpt lat="43.30389" lon="6.53912">
        <ele>377.2</ele>
        <time>2022-02-04T16:43:07Z</time>
      </trkpt>
      <trkpt lat="43.30389" lon="6.53912">
        <ele>377.2</ele>
        <time>2022-02-04T16:43:08Z</time>
      </trkpt>
      <trkpt lat="43.30389" lon="6.53912">
        <ele>377.2</ele>
        <time>2022-02-04T16:43:09Z</time>
      </trkpt>
      <trkpt lat="43.30389" lon="6.53912">
        <ele>377.2</ele>
        <time>2022-02-04T16:43:10Z</time>
      </trkpt>
      <trkpt lat="43.30389" lon="6.53912">
        <ele>377.2</ele>
        <time>2022-02-04T16:43:11Z</time>
      </trkpt>
      <trkpt lat="43.30389" lon="6.53912">
        <ele>377.2</ele>
        <time>2022-02-04T16:43:12Z</time>
      </trkpt>
      <trkpt lat="43.30389" lon="6.53912">
        <ele>377.2</ele>
        <time>2022-02-04T16:43:13Z</time>
      </trkpt>
      <trkpt lat="43.30389" lon="6.53912">
        <ele>377.2</ele>
        <time>2022-02-04T16:43:14Z</time>
      </trkpt>
      <trkpt lat="43.30389" lon="6.53912">
        <ele>377.2</ele>
        <time>2022-02-04T16:43:15Z</time>
      </trkpt>
      <trkpt lat="43.30389" lon="6.53912">
        <ele>377.2</ele>
        <time>2022-02-04T16:43:16Z</time>
      </trkpt>
      <trkpt lat="43.30389" lon="6.53912">
        <ele>377.2</ele>
        <time>2022-02-04T16:43:17Z</time>
      </trkpt>
      <trkpt lat="43.30389" lon="6.53912">
        <ele>377.2</ele>
        <time>2022-02-04T16:43:18Z</time>
      </trkpt>
      <trkpt lat="43.30389" lon="6.53912">
        <ele>377.2</ele>
        <time>2022-02-04T16:43:19Z</time>
      </trkpt>
      <trkpt lat="43.30389" lon="6.53912">
        <ele>377.2</ele>
        <time>2022-02-04T16:43:20Z</time>
      </trkpt>
      <trkpt lat="43.30389" lon="6.53912">
        <ele>377.2</ele>
        <time>2022-02-04T16:43:21Z</time>
      </trkpt>
      <trkpt lat="43.30389" lon="6.53912">
        <ele>377.2</ele>
        <time>2022-02-04T16:43:22Z</time>
      </trkpt>
      <trkpt lat="43.30389" lon="6.53912">
        <ele>377.2</ele>
        <time>2022-02-04T16:43:23Z</time>
      </trkpt>
      <trkpt lat="43.30389" lon="6.53912">
        <ele>377.2</ele>
        <time>2022-02-04T16:43:24Z</time>
      </trkpt>
      <trkpt lat="43.30389" lon="6.53912">
        <ele>377.2</ele>
        <time>2022-02-04T16:43:25Z</time>
      </trkpt>
      <trkpt lat="43.30389" lon="6.53912">
        <ele>377.2</ele>
        <time>2022-02-04T16:43:26Z</time>
      </trkpt>
      <trkpt lat="43.30389" lon="6.53912">
        <ele>377.2</ele>
        <time>2022-02-04T16:43:27Z</time>
      </trkpt>
      <trkpt lat="43.30389" lon="6.53912">
        <ele>377.2</ele>
        <time>2022-02-04T16:43:28Z</time>
      </trkpt>
      <trkpt lat="43.30389" lon="6.53912">
        <ele>377.2</ele>
        <time>2022-02-04T16:43:29Z</time>
      </trkpt>
      <trkpt lat="43.30389" lon="6.53912">
        <ele>377.2</ele>
        <time>2022-02-04T16:43:30Z</time>
      </trkpt>
      <trkpt lat="43.30389" lon="6.53912">
        <ele>377.2</ele>
        <time>2022-02-04T16:43:31Z</time>
      </trkpt>
      <trkpt lat="43.30389" lon="6.53912">
        <ele>377.2</ele>
        <time>2022-02-04T16:43:32Z</time>
      </trkpt>
      <trkpt lat="43.30389" lon="6.53912">
        <ele>377.2</ele>
        <time>2022-02-04T16:43:33Z</time>
      </trkpt>
      <trkpt lat="43.30389" lon="6.53912">
        <ele>377.2</ele>
        <time>2022-02-04T16:43:34Z</time>
      </trkpt>
      <trkpt lat="43.30389" lon="6.53912">
        <ele>377.2</ele>
        <time>2022-02-04T16:43:35Z</time>
      </trkpt>
      <trkpt lat="43.30389" lon="6.53912">
        <ele>377.2</ele>
        <time>2022-02-04T16:43:36Z</time>
      </trkpt>
      <trkpt lat="43.30389" lon="6.53912">
        <ele>377.2</ele>
        <time>2022-02-04T16:43:37Z</time>
      </trkpt>
      <trkpt lat="43.30389" lon="6.53912">
        <ele>377.2</ele>
        <time>2022-02-04T16:43:38Z</time>
      </trkpt>
      <trkpt lat="43.30389" lon="6.53912">
        <ele>377.2</ele>
        <time>2022-02-04T16:43:39Z</time>
      </trkpt>
      <trkpt lat="43.30389" lon="6.53912">
        <ele>377.2</ele>
        <time>2022-02-04T16:43:40Z</time>
      </trkpt>
      <trkpt lat="43.30389" lon="6.53912">
        <ele>377.2</ele>
        <time>2022-02-04T16:43:41Z</time>
      </trkpt>
      <trkpt lat="43.30389" lon="6.53912">
        <ele>377.2</ele>
        <time>2022-02-04T16:43:42Z</time>
      </trkpt>
      <trkpt lat="43.30389" lon="6.53912">
        <ele>377.2</ele>
        <time>2022-02-04T16:43:43Z</time>
      </trkpt>
      <trkpt lat="43.30389" lon="6.53912">
        <ele>377.2</ele>
        <time>2022-02-04T16:43:44Z</time>
      </trkpt>
      <trkpt lat="43.30388" lon="6.53912">
        <ele>377.2</ele>
        <time>2022-02-04T16:43:45Z</time>
      </trkpt>
      <trkpt lat="43.30388" lon="6.53912">
        <ele>377.2</ele>
        <time>2022-02-04T16:43:46Z</time>
      </trkpt>
      <trkpt lat="43.30388" lon="6.53912">
        <ele>377.2</ele>
        <time>2022-02-04T16:43:47Z</time>
      </trkpt>
      <trkpt lat="43.30388" lon="6.53912">
        <ele>377.2</ele>
        <time>2022-02-04T16:43:48Z</time>
      </trkpt>
      <trkpt lat="43.30388" lon="6.53912">
        <ele>377.2</ele>
        <time>2022-02-04T16:43:49Z</time>
      </trkpt>
      <trkpt lat="43.30388" lon="6.53912">
        <ele>377.2</ele>
        <time>2022-02-04T16:43:50Z</time>
      </trkpt>
      <trkpt lat="43.30388" lon="6.53912">
        <ele>377.2</ele>
        <time>2022-02-04T16:43:51Z</time>
      </trkpt>
      <trkpt lat="43.30388" lon="6.53912">
        <ele>377.2</ele>
        <time>2022-02-04T16:43:52Z</time>
      </trkpt>
      <trkpt lat="43.30388" lon="6.53912">
        <ele>377.2</ele>
        <time>2022-02-04T16:43:53Z</time>
      </trkpt>
      <trkpt lat="43.30388" lon="6.53912">
        <ele>377.2</ele>
        <time>2022-02-04T16:43:54Z</time>
      </trkpt>
      <trkpt lat="43.30388" lon="6.53912">
        <ele>377.2</ele>
        <time>2022-02-04T16:43:55Z</time>
      </trkpt>
      <trkpt lat="43.30388" lon="6.53912">
        <ele>377.2</ele>
        <time>2022-02-04T16:43:56Z</time>
      </trkpt>
      <trkpt lat="43.30388" lon="6.53912">
        <ele>377.2</ele>
        <time>2022-02-04T16:43:57Z</time>
      </trkpt>
      <trkpt lat="43.30388" lon="6.53912">
        <ele>377.2</ele>
        <time>2022-02-04T16:43:58Z</time>
      </trkpt>
      <trkpt lat="43.30388" lon="6.53912">
        <ele>377.2</ele>
        <time>2022-02-04T16:43:59Z</time>
      </trkpt>
      <trkpt lat="43.30388" lon="6.53912">
        <ele>377.2</ele>
        <time>2022-02-04T16:44:00Z</time>
      </trkpt>
      <trkpt lat="43.30388" lon="6.53912">
        <ele>377.2</ele>
        <time>2022-02-04T16:44:01Z</time>
      </trkpt>
      <trkpt lat="43.30388" lon="6.53912">
        <ele>377.2</ele>
        <time>2022-02-04T16:44:02Z</time>
      </trkpt>
      <trkpt lat="43.30388" lon="6.53912">
        <ele>377.2</ele>
        <time>2022-02-04T16:44:03Z</time>
      </trkpt>
      <trkpt lat="43.30388" lon="6.53912">
        <ele>377.2</ele>
        <time>2022-02-04T16:44:04Z</time>
      </trkpt>
      <trkpt lat="43.30388" lon="6.53912">
        <ele>377.2</ele>
        <time>2022-02-04T16:44:05Z</time>
      </trkpt>
      <trkpt lat="43.30388" lon="6.53912">
        <ele>377.2</ele>
        <time>2022-02-04T16:44:06Z</time>
      </trkpt>
      <trkpt lat="43.30388" lon="6.53912">
        <ele>377.2</ele>
        <time>2022-02-04T16:44:07Z</time>
      </trkpt>
      <trkpt lat="43.30388" lon="6.53912">
        <ele>377.2</ele>
        <time>2022-02-04T16:44:08Z</time>
      </trkpt>
      <trkpt lat="43.30388" lon="6.53912">
        <ele>377.2</ele>
        <time>2022-02-04T16:44:09Z</time>
      </trkpt>
      <trkpt lat="43.30388" lon="6.53912">
        <ele>377.2</ele>
        <time>2022-02-04T16:44:10Z</time>
      </trkpt>
      <trkpt lat="43.30388" lon="6.53912">
        <ele>377.2</ele>
        <time>2022-02-04T16:44:11Z</time>
      </trkpt>
      <trkpt lat="43.30388" lon="6.53912">
        <ele>377.2</ele>
        <time>2022-02-04T16:44:12Z</time>
      </trkpt>
      <trkpt lat="43.30388" lon="6.53912">
        <ele>377.2</ele>
        <time>2022-02-04T16:44:13Z</time>
      </trkpt>
      <trkpt lat="43.30388" lon="6.53912">
        <ele>377.2</ele>
        <time>2022-02-04T16:44:14Z</time>
      </trkpt>
      <trkpt lat="43.30388" lon="6.53912">
        <ele>377.2</ele>
        <time>2022-02-04T16:44:15Z</time>
      </trkpt>
      <trkpt lat="43.30388" lon="6.53912">
        <ele>377.2</ele>
        <time>2022-02-04T16:44:16Z</time>
      </trkpt>
      <trkpt lat="43.30388" lon="6.53912">
        <ele>377.2</ele>
        <time>2022-02-04T16:44:17Z</time>
      </trkpt>
      <trkpt lat="43.30388" lon="6.53912">
        <ele>377.2</ele>
        <time>2022-02-04T16:44:18Z</time>
      </trkpt>
      <trkpt lat="43.30388" lon="6.53912">
        <ele>377.2</ele>
        <time>2022-02-04T16:44:19Z</time>
      </trkpt>
      <trkpt lat="43.30388" lon="6.53912">
        <ele>377.2</ele>
        <time>2022-02-04T16:44:20Z</time>
      </trkpt>
      <trkpt lat="43.30388" lon="6.53912">
        <ele>377.2</ele>
        <time>2022-02-04T16:44:21Z</time>
      </trkpt>
      <trkpt lat="43.30388" lon="6.53912">
        <ele>377.2</ele>
        <time>2022-02-04T16:44:22Z</time>
      </trkpt>
      <trkpt lat="43.30388" lon="6.53912">
        <ele>377.2</ele>
        <time>2022-02-04T16:44:23Z</time>
      </trkpt>
      <trkpt lat="43.30388" lon="6.53912">
        <ele>377.2</ele>
        <time>2022-02-04T16:44:24Z</time>
      </trkpt>
      <trkpt lat="43.30388" lon="6.53912">
        <ele>377.2</ele>
        <time>2022-02-04T16:44:25Z</time>
      </trkpt>
      <trkpt lat="43.30388" lon="6.53912">
        <ele>377.2</ele>
        <time>2022-02-04T16:44:26Z</time>
      </trkpt>
      <trkpt lat="43.30388" lon="6.53912">
        <ele>377.2</ele>
        <time>2022-02-04T16:44:27Z</time>
      </trkpt>
      <trkpt lat="43.30388" lon="6.53912">
        <ele>377.2</ele>
        <time>2022-02-04T16:44:28Z</time>
      </trkpt>
      <trkpt lat="43.30388" lon="6.53912">
        <ele>377.2</ele>
        <time>2022-02-04T16:44:29Z</time>
      </trkpt>
      <trkpt lat="43.30388" lon="6.53912">
        <ele>377.2</ele>
        <time>2022-02-04T16:44:30Z</time>
      </trkpt>
      <trkpt lat="43.30388" lon="6.53912">
        <ele>377.2</ele>
        <time>2022-02-04T16:44:31Z</time>
      </trkpt>
      <trkpt lat="43.30388" lon="6.53912">
        <ele>377.2</ele>
        <time>2022-02-04T16:44:32Z</time>
      </trkpt>
      <trkpt lat="43.30388" lon="6.53912">
        <ele>377.2</ele>
        <time>2022-02-04T16:44:33Z</time>
      </trkpt>
      <trkpt lat="43.30388" lon="6.53912">
        <ele>377.2</ele>
        <time>2022-02-04T16:44:34Z</time>
      </trkpt>
      <trkpt lat="43.30388" lon="6.53912">
        <ele>377.2</ele>
        <time>2022-02-04T16:44:35Z</time>
      </trkpt>
      <trkpt lat="43.30388" lon="6.53912">
        <ele>377.2</ele>
        <time>2022-02-04T16:44:36Z</time>
      </trkpt>
      <trkpt lat="43.30386" lon="6.53914">
        <ele>377.2</ele>
        <time>2022-02-04T16:44:37Z</time>
      </trkpt>
      <trkpt lat="43.30384" lon="6.53918">
        <ele>374.2</ele>
        <time>2022-02-04T16:44:38Z</time>
      </trkpt>
      <trkpt lat="43.30381" lon="6.53924">
        <ele>374.2</ele>
        <time>2022-02-04T16:44:39Z</time>
      </trkpt>
      <trkpt lat="43.30378" lon="6.53929">
        <ele>374.2</ele>
        <time>2022-02-04T16:44:40Z</time>
      </trkpt>
      <trkpt lat="43.30374" lon="6.53934">
        <ele>374.2</ele>
        <time>2022-02-04T16:44:41Z</time>
      </trkpt>
      <trkpt lat="43.3037" lon="6.5394">
        <ele>374.2</ele>
        <time>2022-02-04T16:44:42Z</time>
      </trkpt>
      <trkpt lat="43.30367" lon="6.53947">
        <ele>373.6</ele>
        <time>2022-02-04T16:44:43Z</time>
      </trkpt>
      <trkpt lat="43.30364" lon="6.53953">
        <ele>372.8</ele>
        <time>2022-02-04T16:44:44Z</time>
      </trkpt>
      <trkpt lat="43.30363" lon="6.5396">
        <ele>371.4</ele>
        <time>2022-02-04T16:44:45Z</time>
      </trkpt>
      <trkpt lat="43.30362" lon="6.53969">
        <ele>370</ele>
        <time>2022-02-04T16:44:46Z</time>
      </trkpt>
      <trkpt lat="43.30361" lon="6.53978">
        <ele>370.2</ele>
        <time>2022-02-04T16:44:47Z</time>
      </trkpt>
      <trkpt lat="43.3036" lon="6.53985">
        <ele>370.2</ele>
        <time>2022-02-04T16:44:48Z</time>
      </trkpt>
      <trkpt lat="43.3036" lon="6.53992">
        <ele>370.2</ele>
        <time>2022-02-04T16:44:49Z</time>
      </trkpt>
      <trkpt lat="43.30359" lon="6.54">
        <ele>370.2</ele>
        <time>2022-02-04T16:44:50Z</time>
      </trkpt>
      <trkpt lat="43.30357" lon="6.54007">
        <ele>370.2</ele>
        <time>2022-02-04T16:44:51Z</time>
      </trkpt>
      <trkpt lat="43.30354" lon="6.54014">
        <ele>370</ele>
        <time>2022-02-04T16:44:52Z</time>
      </trkpt>
      <trkpt lat="43.30351" lon="6.54021">
        <ele>369.6</ele>
        <time>2022-02-04T16:44:53Z</time>
      </trkpt>
      <trkpt lat="43.30346" lon="6.54027">
        <ele>368</ele>
        <time>2022-02-04T16:44:54Z</time>
      </trkpt>
      <trkpt lat="43.30342" lon="6.54032">
        <ele>367</ele>
        <time>2022-02-04T16:44:55Z</time>
      </trkpt>
      <trkpt lat="43.30337" lon="6.54037">
        <ele>366.4</ele>
        <time>2022-02-04T16:44:56Z</time>
      </trkpt>
      <trkpt lat="43.30334" lon="6.5404">
        <ele>366</ele>
        <time>2022-02-04T16:44:57Z</time>
      </trkpt>
      <trkpt lat="43.30332" lon="6.54041">
        <ele>365.8</ele>
        <time>2022-02-04T16:44:58Z</time>
      </trkpt>
      <trkpt lat="43.30332" lon="6.54042">
        <ele>365.6</ele>
        <time>2022-02-04T16:44:59Z</time>
      </trkpt>
      <trkpt lat="43.30335" lon="6.54045">
        <ele>365.6</ele>
        <time>2022-02-04T16:45:00Z</time>
      </trkpt>
      <trkpt lat="43.30338" lon="6.54047">
        <ele>365.6</ele>
        <time>2022-02-04T16:45:01Z</time>
      </trkpt>
      <trkpt lat="43.30342" lon="6.54048">
        <ele>364.2</ele>
        <time>2022-02-04T16:45:02Z</time>
      </trkpt>
      <trkpt lat="43.30345" lon="6.54049">
        <ele>363.2</ele>
        <time>2022-02-04T16:45:03Z</time>
      </trkpt>
      <trkpt lat="43.30347" lon="6.54052">
        <ele>362.8</ele>
        <time>2022-02-04T16:45:04Z</time>
      </trkpt>
      <trkpt lat="43.30346" lon="6.54055">
        <ele>361.8</ele>
        <time>2022-02-04T16:45:05Z</time>
      </trkpt>
      <trkpt lat="43.30345" lon="6.54059">
        <ele>360.4</ele>
        <time>2022-02-04T16:45:06Z</time>
      </trkpt>
      <trkpt lat="43.30344" lon="6.54062">
        <ele>359.6</ele>
        <time>2022-02-04T16:45:07Z</time>
      </trkpt>
      <trkpt lat="43.30342" lon="6.54064">
        <ele>358.6</ele>
        <time>2022-02-04T16:45:08Z</time>
      </trkpt>
      <trkpt lat="43.30338" lon="6.54066">
        <ele>357.8</ele>
        <time>2022-02-04T16:45:09Z</time>
      </trkpt>
      <trkpt lat="43.30334" lon="6.54069">
        <ele>356.8</ele>
        <time>2022-02-04T16:45:10Z</time>
      </trkpt>
      <trkpt lat="43.30331" lon="6.54073">
        <ele>356.2</ele>
        <time>2022-02-04T16:45:11Z</time>
      </trkpt>
      <trkpt lat="43.30329" lon="6.5408">
        <ele>355.6</ele>
        <time>2022-02-04T16:45:12Z</time>
      </trkpt>
      <trkpt lat="43.30328" lon="6.5409">
        <ele>354.8</ele>
        <time>2022-02-04T16:45:13Z</time>
      </trkpt>
      <trkpt lat="43.30329" lon="6.54101">
        <ele>353.6</ele>
        <time>2022-02-04T16:45:14Z</time>
      </trkpt>
      <trkpt lat="43.30329" lon="6.54109">
        <ele>351.8</ele>
        <time>2022-02-04T16:45:15Z</time>
      </trkpt>
      <trkpt lat="43.30329" lon="6.54116">
        <ele>350.4</ele>
        <time>2022-02-04T16:45:16Z</time>
      </trkpt>
      <trkpt lat="43.30329" lon="6.5412">
        <ele>349.8</ele>
        <time>2022-02-04T16:45:17Z</time>
      </trkpt>
      <trkpt lat="43.30328" lon="6.5412">
        <ele>349.4</ele>
        <time>2022-02-04T16:45:18Z</time>
      </trkpt>
      <trkpt lat="43.30328" lon="6.5412">
        <ele>349.2</ele>
        <time>2022-02-04T16:45:19Z</time>
      </trkpt>
      <trkpt lat="43.30328" lon="6.5412">
        <ele>349</ele>
        <time>2022-02-04T16:45:20Z</time>
      </trkpt>
      <trkpt lat="43.30328" lon="6.5412">
        <ele>349</ele>
        <time>2022-02-04T16:45:21Z</time>
      </trkpt>
      <trkpt lat="43.30328" lon="6.5412">
        <ele>349</ele>
        <time>2022-02-04T16:45:22Z</time>
      </trkpt>
      <trkpt lat="43.30328" lon="6.5412">
        <ele>349</ele>
        <time>2022-02-04T16:45:23Z</time>
      </trkpt>
      <trkpt lat="43.30328" lon="6.5412">
        <ele>349</ele>
        <time>2022-02-04T16:45:24Z</time>
      </trkpt>
      <trkpt lat="43.30328" lon="6.5412">
        <ele>349</ele>
        <time>2022-02-04T16:45:25Z</time>
      </trkpt>
      <trkpt lat="43.30328" lon="6.5412">
        <ele>349</ele>
        <time>2022-02-04T16:45:26Z</time>
      </trkpt>
      <trkpt lat="43.30328" lon="6.54119">
        <ele>349</ele>
        <time>2022-02-04T16:45:27Z</time>
      </trkpt>
      <trkpt lat="43.30328" lon="6.54117">
        <ele>349</ele>
        <time>2022-02-04T16:45:28Z</time>
      </trkpt>
      <trkpt lat="43.30329" lon="6.54115">
        <ele>349</ele>
        <time>2022-02-04T16:45:29Z</time>
      </trkpt>
      <trkpt lat="43.30329" lon="6.54111">
        <ele>349</ele>
        <time>2022-02-04T16:45:30Z</time>
      </trkpt>
      <trkpt lat="43.3033" lon="6.54106">
        <ele>349</ele>
        <time>2022-02-04T16:45:31Z</time>
      </trkpt>
      <trkpt lat="43.3033" lon="6.54101">
        <ele>349</ele>
        <time>2022-02-04T16:45:32Z</time>
      </trkpt>
      <trkpt lat="43.3033" lon="6.54097">
        <ele>349.2</ele>
        <time>2022-02-04T16:45:33Z</time>
      </trkpt>
      <trkpt lat="43.30329" lon="6.54093">
        <ele>349.2</ele>
        <time>2022-02-04T16:45:34Z</time>
      </trkpt>
      <trkpt lat="43.30329" lon="6.5409">
        <ele>349.4</ele>
        <time>2022-02-04T16:45:35Z</time>
      </trkpt>
      <trkpt lat="43.30328" lon="6.54087">
        <ele>349.8</ele>
        <time>2022-02-04T16:45:36Z</time>
      </trkpt>
      <trkpt lat="43.30328" lon="6.54084">
        <ele>350.8</ele>
        <time>2022-02-04T16:45:37Z</time>
      </trkpt>
      <trkpt lat="43.30329" lon="6.54081">
        <ele>352</ele>
        <time>2022-02-04T16:45:38Z</time>
      </trkpt>
      <trkpt lat="43.3033" lon="6.54079">
        <ele>353</ele>
        <time>2022-02-04T16:45:39Z</time>
      </trkpt>
      <trkpt lat="43.30331" lon="6.54077">
        <ele>353.6</ele>
        <time>2022-02-04T16:45:40Z</time>
      </trkpt>
      <trkpt lat="43.30332" lon="6.54074">
        <ele>354.6</ele>
        <time>2022-02-04T16:45:41Z</time>
      </trkpt>
      <trkpt lat="43.30333" lon="6.54072">
        <ele>355.4</ele>
        <time>2022-02-04T16:45:42Z</time>
      </trkpt>
      <trkpt lat="43.30334" lon="6.54071">
        <ele>356</ele>
        <time>2022-02-04T16:45:43Z</time>
      </trkpt>
      <trkpt lat="43.30335" lon="6.5407">
        <ele>356.6</ele>
        <time>2022-02-04T16:45:44Z</time>
      </trkpt>
      <trkpt lat="43.30336" lon="6.5407">
        <ele>357</ele>
        <time>2022-02-04T16:45:45Z</time>
      </trkpt>
      <trkpt lat="43.30337" lon="6.5407">
        <ele>357</ele>
        <time>2022-02-04T16:45:46Z</time>
      </trkpt>
      <trkpt lat="43.30337" lon="6.5407">
        <ele>357.4</ele>
        <time>2022-02-04T16:45:47Z</time>
      </trkpt>
      <trkpt lat="43.30338" lon="6.54069">
        <ele>357.4</ele>
        <time>2022-02-04T16:45:48Z</time>
      </trkpt>
      <trkpt lat="43.30339" lon="6.54069">
        <ele>357.4</ele>
        <time>2022-02-04T16:45:49Z</time>
      </trkpt>
      <trkpt lat="43.3034" lon="6.54069">
        <ele>357.4</ele>
        <time>2022-02-04T16:45:50Z</time>
      </trkpt>
      <trkpt lat="43.3034" lon="6.54069">
        <ele>357.2</ele>
        <time>2022-02-04T16:45:51Z</time>
      </trkpt>
      <trkpt lat="43.30339" lon="6.54069">
        <ele>357.2</ele>
        <time>2022-02-04T16:45:52Z</time>
      </trkpt>
      <trkpt lat="43.30338" lon="6.54069">
        <ele>357</ele>
        <time>2022-02-04T16:45:53Z</time>
      </trkpt>
      <trkpt lat="43.30337" lon="6.54069">
        <ele>357</ele>
        <time>2022-02-04T16:45:54Z</time>
      </trkpt>
      <trkpt lat="43.30337" lon="6.54069">
        <ele>357</ele>
        <time>2022-02-04T16:45:55Z</time>
      </trkpt>
      <trkpt lat="43.30337" lon="6.54069">
        <ele>357</ele>
        <time>2022-02-04T16:45:56Z</time>
      </trkpt>
      <trkpt lat="43.30337" lon="6.54069">
        <ele>357.2</ele>
        <time>2022-02-04T16:45:57Z</time>
      </trkpt>
      <trkpt lat="43.30337" lon="6.54069">
        <ele>357.2</ele>
        <time>2022-02-04T16:45:58Z</time>
      </trkpt>
      <trkpt lat="43.30337" lon="6.54069">
        <ele>357.2</ele>
        <time>2022-02-04T16:45:59Z</time>
      </trkpt>
      <trkpt lat="43.30337" lon="6.54069">
        <ele>357.4</ele>
        <time>2022-02-04T16:46:00Z</time>
      </trkpt>
      <trkpt lat="43.30337" lon="6.54069">
        <ele>357.4</ele>
        <time>2022-02-04T16:46:01Z</time>
      </trkpt>
      <trkpt lat="43.30337" lon="6.54069">
        <ele>357.4</ele>
        <time>2022-02-04T16:46:02Z</time>
      </trkpt>
      <trkpt lat="43.30337" lon="6.54069">
        <ele>357.6</ele>
        <time>2022-02-04T16:46:03Z</time>
      </trkpt>
      <trkpt lat="43.30337" lon="6.54069">
        <ele>357.6</ele>
        <time>2022-02-04T16:46:04Z</time>
      </trkpt>
      <trkpt lat="43.30337" lon="6.54069">
        <ele>357.6</ele>
        <time>2022-02-04T16:46:05Z</time>
      </trkpt>
      <trkpt lat="43.30337" lon="6.54069">
        <ele>357.6</ele>
        <time>2022-02-04T16:46:06Z</time>
      </trkpt>
      <trkpt lat="43.30337" lon="6.54069">
        <ele>357.4</ele>
        <time>2022-02-04T16:46:07Z</time>
      </trkpt>
      <trkpt lat="43.30337" lon="6.54069">
        <ele>357.4</ele>
        <time>2022-02-04T16:46:08Z</time>
      </trkpt>
      <trkpt lat="43.30337" lon="6.54069">
        <ele>357.2</ele>
        <time>2022-02-04T16:46:09Z</time>
      </trkpt>
      <trkpt lat="43.30337" lon="6.54069">
        <ele>357.2</ele>
        <time>2022-02-04T16:46:10Z</time>
      </trkpt>
      <trkpt lat="43.30337" lon="6.54069">
        <ele>357</ele>
        <time>2022-02-04T16:46:11Z</time>
      </trkpt>
      <trkpt lat="43.30337" lon="6.54069">
        <ele>357</ele>
        <time>2022-02-04T16:46:12Z</time>
      </trkpt>
      <trkpt lat="43.30337" lon="6.54069">
        <ele>357</ele>
        <time>2022-02-04T16:46:13Z</time>
      </trkpt>
      <trkpt lat="43.30337" lon="6.54069">
        <ele>357</ele>
        <time>2022-02-04T16:46:14Z</time>
      </trkpt>
      <trkpt lat="43.30337" lon="6.54069">
        <ele>357.2</ele>
        <time>2022-02-04T16:46:15Z</time>
      </trkpt>
      <trkpt lat="43.30337" lon="6.54069">
        <ele>357.2</ele>
        <time>2022-02-04T16:46:16Z</time>
      </trkpt>
      <trkpt lat="43.30337" lon="6.54069">
        <ele>357.2</ele>
        <time>2022-02-04T16:46:17Z</time>
      </trkpt>
      <trkpt lat="43.30337" lon="6.54069">
        <ele>357.2</ele>
        <time>2022-02-04T16:46:18Z</time>
      </trkpt>
      <trkpt lat="43.30337" lon="6.54069">
        <ele>357</ele>
        <time>2022-02-04T16:46:19Z</time>
      </trkpt>
      <trkpt lat="43.30337" lon="6.54069">
        <ele>357</ele>
        <time>2022-02-04T16:46:20Z</time>
      </trkpt>
      <trkpt lat="43.30336" lon="6.54069">
        <ele>357</ele>
        <time>2022-02-04T16:46:21Z</time>
      </trkpt>
      <trkpt lat="43.30335" lon="6.54073">
        <ele>356.6</ele>
        <time>2022-02-04T16:46:22Z</time>
      </trkpt>
      <trkpt lat="43.30334" lon="6.5408">
        <ele>356.2</ele>
        <time>2022-02-04T16:46:23Z</time>
      </trkpt>
      <trkpt lat="43.30334" lon="6.54089">
        <ele>355.6</ele>
        <time>2022-02-04T16:46:24Z</time>
      </trkpt>
      <trkpt lat="43.30339" lon="6.54099">
        <ele>354.2</ele>
        <time>2022-02-04T16:46:25Z</time>
      </trkpt>
      <trkpt lat="43.3034" lon="6.54106">
        <ele>351.6</ele>
        <time>2022-02-04T16:46:26Z</time>
      </trkpt>
      <trkpt lat="43.30339" lon="6.5411">
        <ele>350.2</ele>
        <time>2022-02-04T16:46:27Z</time>
      </trkpt>
      <trkpt lat="43.30339" lon="6.54111">
        <ele>349.4</ele>
        <time>2022-02-04T16:46:28Z</time>
      </trkpt>
      <trkpt lat="43.30339" lon="6.54112">
        <ele>349</ele>
        <time>2022-02-04T16:46:29Z</time>
      </trkpt>
      <trkpt lat="43.30338" lon="6.54112">
        <ele>348.8</ele>
        <time>2022-02-04T16:46:30Z</time>
      </trkpt>
      <trkpt lat="43.30338" lon="6.54112">
        <ele>348.6</ele>
        <time>2022-02-04T16:46:31Z</time>
      </trkpt>
      <trkpt lat="43.30338" lon="6.54112">
        <ele>348.6</ele>
        <time>2022-02-04T16:46:32Z</time>
      </trkpt>
      <trkpt lat="43.30338" lon="6.54112">
        <ele>348.6</ele>
        <time>2022-02-04T16:46:33Z</time>
      </trkpt>
      <trkpt lat="43.30338" lon="6.54112">
        <ele>348.6</ele>
        <time>2022-02-04T16:46:34Z</time>
      </trkpt>
      <trkpt lat="43.30338" lon="6.54112">
        <ele>348.6</ele>
        <time>2022-02-04T16:46:35Z</time>
      </trkpt>
      <trkpt lat="43.30338" lon="6.54112">
        <ele>348.6</ele>
        <time>2022-02-04T16:46:36Z</time>
      </trkpt>
      <trkpt lat="43.30336" lon="6.54112">
        <ele>348.6</ele>
        <time>2022-02-04T16:46:37Z</time>
      </trkpt>
      <trkpt lat="43.30335" lon="6.54111">
        <ele>348.6</ele>
        <time>2022-02-04T16:46:38Z</time>
      </trkpt>
      <trkpt lat="43.30335" lon="6.54111">
        <ele>348.6</ele>
        <time>2022-02-04T16:46:39Z</time>
      </trkpt>
      <trkpt lat="43.30335" lon="6.54111">
        <ele>348.8</ele>
        <time>2022-02-04T16:46:40Z</time>
      </trkpt>
      <trkpt lat="43.30335" lon="6.54111">
        <ele>348.8</ele>
        <time>2022-02-04T16:46:41Z</time>
      </trkpt>
      <trkpt lat="43.30335" lon="6.54111">
        <ele>348.8</ele>
        <time>2022-02-04T16:46:42Z</time>
      </trkpt>
      <trkpt lat="43.30335" lon="6.54111">
        <ele>348.8</ele>
        <time>2022-02-04T16:46:43Z</time>
      </trkpt>
      <trkpt lat="43.30335" lon="6.54111">
        <ele>348.8</ele>
        <time>2022-02-04T16:46:44Z</time>
      </trkpt>
      <trkpt lat="43.30335" lon="6.54111">
        <ele>348.6</ele>
        <time>2022-02-04T16:46:45Z</time>
      </trkpt>
      <trkpt lat="43.30335" lon="6.54111">
        <ele>348.6</ele>
        <time>2022-02-04T16:46:46Z</time>
      </trkpt>
      <trkpt lat="43.30335" lon="6.54111">
        <ele>348.6</ele>
        <time>2022-02-04T16:46:47Z</time>
      </trkpt>
      <trkpt lat="43.30335" lon="6.54111">
        <ele>348.6</ele>
        <time>2022-02-04T16:46:48Z</time>
      </trkpt>
      <trkpt lat="43.30335" lon="6.54111">
        <ele>348.6</ele>
        <time>2022-02-04T16:46:49Z</time>
      </trkpt>
      <trkpt lat="43.30335" lon="6.54111">
        <ele>348.6</ele>
        <time>2022-02-04T16:46:50Z</time>
      </trkpt>
      <trkpt lat="43.30335" lon="6.54111">
        <ele>348.6</ele>
        <time>2022-02-04T16:46:51Z</time>
      </trkpt>
      <trkpt lat="43.30335" lon="6.54111">
        <ele>348.6</ele>
        <time>2022-02-04T16:46:52Z</time>
      </trkpt>
      <trkpt lat="43.30335" lon="6.54111">
        <ele>348.6</ele>
        <time>2022-02-04T16:46:53Z</time>
      </trkpt>
      <trkpt lat="43.30335" lon="6.54111">
        <ele>348.6</ele>
        <time>2022-02-04T16:46:54Z</time>
      </trkpt>
      <trkpt lat="43.30335" lon="6.54111">
        <ele>348.6</ele>
        <time>2022-02-04T16:46:55Z</time>
      </trkpt>
      <trkpt lat="43.30335" lon="6.54111">
        <ele>348.8</ele>
        <time>2022-02-04T16:46:56Z</time>
      </trkpt>
      <trkpt lat="43.30335" lon="6.54111">
        <ele>348.8</ele>
        <time>2022-02-04T16:46:57Z</time>
      </trkpt>
      <trkpt lat="43.30335" lon="6.54111">
        <ele>348.8</ele>
        <time>2022-02-04T16:46:58Z</time>
      </trkpt>
      <trkpt lat="43.30335" lon="6.54111">
        <ele>348.8</ele>
        <time>2022-02-04T16:46:59Z</time>
      </trkpt>
      <trkpt lat="43.30335" lon="6.54111">
        <ele>348.6</ele>
        <time>2022-02-04T16:47:00Z</time>
      </trkpt>
      <trkpt lat="43.30335" lon="6.54111">
        <ele>348.6</ele>
        <time>2022-02-04T16:47:01Z</time>
      </trkpt>
      <trkpt lat="43.30335" lon="6.54111">
        <ele>348.6</ele>
        <time>2022-02-04T16:47:02Z</time>
      </trkpt>
      <trkpt lat="43.30335" lon="6.54111">
        <ele>348.6</ele>
        <time>2022-02-04T16:47:03Z</time>
      </trkpt>
      <trkpt lat="43.30335" lon="6.54111">
        <ele>348.6</ele>
        <time>2022-02-04T16:47:04Z</time>
      </trkpt>
      <trkpt lat="43.30335" lon="6.54111">
        <ele>348.4</ele>
        <time>2022-02-04T16:47:05Z</time>
      </trkpt>
      <trkpt lat="43.30335" lon="6.54111">
        <ele>348.4</ele>
        <time>2022-02-04T16:47:06Z</time>
      </trkpt>
      <trkpt lat="43.30334" lon="6.54111">
        <ele>348.4</ele>
        <time>2022-02-04T16:47:07Z</time>
      </trkpt>
      <trkpt lat="43.30334" lon="6.54112">
        <ele>348.4</ele>
        <time>2022-02-04T16:47:08Z</time>
      </trkpt>
      <trkpt lat="43.30334" lon="6.54112">
        <ele>348.4</ele>
        <time>2022-02-04T16:47:09Z</time>
      </trkpt>
      <trkpt lat="43.30334" lon="6.54112">
        <ele>348.4</ele>
        <time>2022-02-04T16:47:10Z</time>
      </trkpt>
      <trkpt lat="43.30334" lon="6.54112">
        <ele>348.6</ele>
        <time>2022-02-04T16:47:11Z</time>
      </trkpt>
      <trkpt lat="43.30334" lon="6.54112">
        <ele>348.6</ele>
        <time>2022-02-04T16:47:12Z</time>
      </trkpt>
      <trkpt lat="43.30334" lon="6.54112">
        <ele>348.6</ele>
        <time>2022-02-04T16:47:13Z</time>
      </trkpt>
      <trkpt lat="43.30334" lon="6.54112">
        <ele>348.6</ele>
        <time>2022-02-04T16:47:14Z</time>
      </trkpt>
      <trkpt lat="43.30334" lon="6.54112">
        <ele>348.6</ele>
        <time>2022-02-04T16:47:15Z</time>
      </trkpt>
      <trkpt lat="43.30334" lon="6.54112">
        <ele>348.6</ele>
        <time>2022-02-04T16:47:16Z</time>
      </trkpt>
      <trkpt lat="43.30334" lon="6.54112">
        <ele>348.6</ele>
        <time>2022-02-04T16:47:17Z</time>
      </trkpt>
      <trkpt lat="43.30334" lon="6.54112">
        <ele>348.6</ele>
        <time>2022-02-04T16:47:18Z</time>
      </trkpt>
      <trkpt lat="43.30334" lon="6.54112">
        <ele>348.6</ele>
        <time>2022-02-04T16:47:19Z</time>
      </trkpt>
      <trkpt lat="43.30334" lon="6.54112">
        <ele>348.6</ele>
        <time>2022-02-04T16:47:20Z</time>
      </trkpt>
      <trkpt lat="43.30334" lon="6.54112">
        <ele>348.6</ele>
        <time>2022-02-04T16:47:21Z</time>
      </trkpt>
      <trkpt lat="43.30334" lon="6.54112">
        <ele>348.6</ele>
        <time>2022-02-04T16:47:22Z</time>
      </trkpt>
      <trkpt lat="43.30334" lon="6.54112">
        <ele>348.6</ele>
        <time>2022-02-04T16:47:23Z</time>
      </trkpt>
      <trkpt lat="43.30334" lon="6.54112">
        <ele>348.6</ele>
        <time>2022-02-04T16:47:24Z</time>
      </trkpt>
      <trkpt lat="43.30334" lon="6.54112">
        <ele>348.6</ele>
        <time>2022-02-04T16:47:25Z</time>
      </trkpt>
      <trkpt lat="43.30334" lon="6.54112">
        <ele>348.6</ele>
        <time>2022-02-04T16:47:26Z</time>
      </trkpt>
      <trkpt lat="43.30334" lon="6.54112">
        <ele>348.4</ele>
        <time>2022-02-04T16:47:27Z</time>
      </trkpt>
      <trkpt lat="43.30334" lon="6.54112">
        <ele>348.4</ele>
        <time>2022-02-04T16:47:28Z</time>
      </trkpt>
      <trkpt lat="43.30334" lon="6.54112">
        <ele>348.4</ele>
        <time>2022-02-04T16:47:29Z</time>
      </trkpt>
      <trkpt lat="43.30334" lon="6.54112">
        <ele>348.4</ele>
        <time>2022-02-04T16:47:30Z</time>
      </trkpt>
      <trkpt lat="43.30334" lon="6.54112">
        <ele>348.4</ele>
        <time>2022-02-04T16:47:31Z</time>
      </trkpt>
      <trkpt lat="43.30334" lon="6.54112">
        <ele>348.2</ele>
        <time>2022-02-04T16:47:32Z</time>
      </trkpt>
      <trkpt lat="43.30334" lon="6.54112">
        <ele>348.2</ele>
        <time>2022-02-04T16:47:33Z</time>
      </trkpt>
      <trkpt lat="43.30334" lon="6.54112">
        <ele>348.2</ele>
        <time>2022-02-04T16:47:34Z</time>
      </trkpt>
      <trkpt lat="43.30334" lon="6.54112">
        <ele>348.2</ele>
        <time>2022-02-04T16:47:35Z</time>
      </trkpt>
      <trkpt lat="43.30334" lon="6.54112">
        <ele>348.2</ele>
        <time>2022-02-04T16:47:36Z</time>
      </trkpt>
      <trkpt lat="43.30334" lon="6.54112">
        <ele>348.2</ele>
        <time>2022-02-04T16:47:37Z</time>
      </trkpt>
      <trkpt lat="43.30334" lon="6.54112">
        <ele>348.2</ele>
        <time>2022-02-04T16:47:38Z</time>
      </trkpt>
      <trkpt lat="43.30334" lon="6.54112">
        <ele>348.2</ele>
        <time>2022-02-04T16:47:39Z</time>
      </trkpt>
      <trkpt lat="43.30334" lon="6.54112">
        <ele>348.2</ele>
        <time>2022-02-04T16:47:40Z</time>
      </trkpt>
      <trkpt lat="43.30334" lon="6.54112">
        <ele>348.2</ele>
        <time>2022-02-04T16:47:41Z</time>
      </trkpt>
      <trkpt lat="43.30334" lon="6.54112">
        <ele>348.2</ele>
        <time>2022-02-04T16:47:42Z</time>
      </trkpt>
      <trkpt lat="43.30334" lon="6.54112">
        <ele>348.2</ele>
        <time>2022-02-04T16:47:43Z</time>
      </trkpt>
      <trkpt lat="43.30334" lon="6.54112">
        <ele>348.2</ele>
        <time>2022-02-04T16:47:44Z</time>
      </trkpt>
      <trkpt lat="43.30334" lon="6.54112">
        <ele>348.2</ele>
        <time>2022-02-04T16:47:45Z</time>
      </trkpt>
      <trkpt lat="43.30334" lon="6.54112">
        <ele>348.2</ele>
        <time>2022-02-04T16:47:46Z</time>
      </trkpt>
      <trkpt lat="43.30334" lon="6.54112">
        <ele>348.4</ele>
        <time>2022-02-04T16:47:47Z</time>
      </trkpt>
      <trkpt lat="43.30332" lon="6.54112">
        <ele>348.4</ele>
        <time>2022-02-04T16:47:48Z</time>
      </trkpt>
      <trkpt lat="43.30332" lon="6.54112">
        <ele>348.4</ele>
        <time>2022-02-04T16:47:49Z</time>
      </trkpt>
      <trkpt lat="43.30332" lon="6.54112">
        <ele>348.4</ele>
        <time>2022-02-04T16:47:50Z</time>
      </trkpt>
      <trkpt lat="43.30332" lon="6.54112">
        <ele>348.4</ele>
        <time>2022-02-04T16:47:51Z</time>
      </trkpt>
      <trkpt lat="43.30332" lon="6.54112">
        <ele>348.4</ele>
        <time>2022-02-04T16:47:52Z</time>
      </trkpt>
      <trkpt lat="43.30332" lon="6.54112">
        <ele>348.4</ele>
        <time>2022-02-04T16:47:53Z</time>
      </trkpt>
      <trkpt lat="43.30332" lon="6.54112">
        <ele>348.4</ele>
        <time>2022-02-04T16:47:54Z</time>
      </trkpt>
      <trkpt lat="43.30332" lon="6.54112">
        <ele>348.4</ele>
        <time>2022-02-04T16:47:55Z</time>
      </trkpt>
      <trkpt lat="43.30332" lon="6.54112">
        <ele>348.4</ele>
        <time>2022-02-04T16:47:56Z</time>
      </trkpt>
      <trkpt lat="43.30332" lon="6.54112">
        <ele>348.4</ele>
        <time>2022-02-04T16:47:57Z</time>
      </trkpt>
      <trkpt lat="43.30332" lon="6.54112">
        <ele>348.2</ele>
        <time>2022-02-04T16:47:58Z</time>
      </trkpt>
      <trkpt lat="43.30331" lon="6.54112">
        <ele>348.2</ele>
        <time>2022-02-04T16:47:59Z</time>
      </trkpt>
      <trkpt lat="43.30331" lon="6.54112">
        <ele>348.2</ele>
        <time>2022-02-04T16:48:00Z</time>
      </trkpt>
      <trkpt lat="43.30331" lon="6.54112">
        <ele>348.2</ele>
        <time>2022-02-04T16:48:01Z</time>
      </trkpt>
      <trkpt lat="43.30331" lon="6.54112">
        <ele>348.2</ele>
        <time>2022-02-04T16:48:02Z</time>
      </trkpt>
      <trkpt lat="43.30331" lon="6.54112">
        <ele>348</ele>
        <time>2022-02-04T16:48:03Z</time>
      </trkpt>
      <trkpt lat="43.30331" lon="6.54112">
        <ele>348</ele>
        <time>2022-02-04T16:48:04Z</time>
      </trkpt>
      <trkpt lat="43.30331" lon="6.54112">
        <ele>348</ele>
        <time>2022-02-04T16:48:05Z</time>
      </trkpt>
      <trkpt lat="43.30331" lon="6.54112">
        <ele>348</ele>
        <time>2022-02-04T16:48:06Z</time>
      </trkpt>
      <trkpt lat="43.30331" lon="6.54112">
        <ele>348</ele>
        <time>2022-02-04T16:48:07Z</time>
      </trkpt>
      <trkpt lat="43.30331" lon="6.54112">
        <ele>348</ele>
        <time>2022-02-04T16:48:08Z</time>
      </trkpt>
      <trkpt lat="43.30331" lon="6.54112">
        <ele>348</ele>
        <time>2022-02-04T16:48:09Z</time>
      </trkpt>
      <trkpt lat="43.30331" lon="6.54112">
        <ele>348</ele>
        <time>2022-02-04T16:48:10Z</time>
      </trkpt>
      <trkpt lat="43.30331" lon="6.54112">
        <ele>348</ele>
        <time>2022-02-04T16:48:11Z</time>
      </trkpt>
      <trkpt lat="43.30331" lon="6.54112">
        <ele>348</ele>
        <time>2022-02-04T16:48:12Z</time>
      </trkpt>
      <trkpt lat="43.30331" lon="6.54112">
        <ele>348</ele>
        <time>2022-02-04T16:48:13Z</time>
      </trkpt>
      <trkpt lat="43.30331" lon="6.54112">
        <ele>348</ele>
        <time>2022-02-04T16:48:14Z</time>
      </trkpt>
      <trkpt lat="43.30331" lon="6.54112">
        <ele>348</ele>
        <time>2022-02-04T16:48:15Z</time>
      </trkpt>
      <trkpt lat="43.30331" lon="6.54112">
        <ele>348</ele>
        <time>2022-02-04T16:48:16Z</time>
      </trkpt>
      <trkpt lat="43.30331" lon="6.54112">
        <ele>348</ele>
        <time>2022-02-04T16:48:17Z</time>
      </trkpt>
      <trkpt lat="43.30331" lon="6.54112">
        <ele>348</ele>
        <time>2022-02-04T16:48:18Z</time>
      </trkpt>
      <trkpt lat="43.30331" lon="6.54112">
        <ele>348</ele>
        <time>2022-02-04T16:48:19Z</time>
      </trkpt>
      <trkpt lat="43.30331" lon="6.54112">
        <ele>348</ele>
        <time>2022-02-04T16:48:20Z</time>
      </trkpt>
      <trkpt lat="43.30331" lon="6.54112">
        <ele>348</ele>
        <time>2022-02-04T16:48:21Z</time>
      </trkpt>
      <trkpt lat="43.30331" lon="6.54112">
        <ele>348</ele>
        <time>2022-02-04T16:48:22Z</time>
      </trkpt>
      <trkpt lat="43.30331" lon="6.54112">
        <ele>348</ele>
        <time>2022-02-04T16:48:23Z</time>
      </trkpt>
      <trkpt lat="43.30331" lon="6.54112">
        <ele>348.4</ele>
        <time>2022-02-04T16:48:24Z</time>
      </trkpt>
      <trkpt lat="43.30331" lon="6.54112">
        <ele>348.4</ele>
        <time>2022-02-04T16:48:25Z</time>
      </trkpt>
      <trkpt lat="43.30331" lon="6.54112">
        <ele>348.4</ele>
        <time>2022-02-04T16:48:26Z</time>
      </trkpt>
      <trkpt lat="43.30331" lon="6.54112">
        <ele>348.4</ele>
        <time>2022-02-04T16:48:27Z</time>
      </trkpt>
      <trkpt lat="43.30331" lon="6.54112">
        <ele>348.4</ele>
        <time>2022-02-04T16:48:28Z</time>
      </trkpt>
      <trkpt lat="43.30331" lon="6.54112">
        <ele>348.4</ele>
        <time>2022-02-04T16:48:29Z</time>
      </trkpt>
      <trkpt lat="43.30331" lon="6.54112">
        <ele>348.4</ele>
        <time>2022-02-04T16:48:30Z</time>
      </trkpt>
      <trkpt lat="43.30331" lon="6.54112">
        <ele>348.4</ele>
        <time>2022-02-04T16:48:31Z</time>
      </trkpt>
      <trkpt lat="43.30331" lon="6.54112">
        <ele>348.4</ele>
        <time>2022-02-04T16:48:32Z</time>
      </trkpt>
      <trkpt lat="43.30331" lon="6.54112">
        <ele>348.4</ele>
        <time>2022-02-04T16:48:33Z</time>
      </trkpt>
      <trkpt lat="43.30331" lon="6.54112">
        <ele>348.4</ele>
        <time>2022-02-04T16:48:34Z</time>
      </trkpt>
      <trkpt lat="43.30331" lon="6.54112">
        <ele>348.4</ele>
        <time>2022-02-04T16:48:35Z</time>
      </trkpt>
      <trkpt lat="43.30331" lon="6.54112">
        <ele>348.4</ele>
        <time>2022-02-04T16:48:36Z</time>
      </trkpt>
      <trkpt lat="43.30331" lon="6.54112">
        <ele>348.4</ele>
        <time>2022-02-04T16:48:37Z</time>
      </trkpt>
      <trkpt lat="43.30331" lon="6.54112">
        <ele>348.4</ele>
        <time>2022-02-04T16:48:38Z</time>
      </trkpt>
      <trkpt lat="43.30331" lon="6.54112">
        <ele>348.4</ele>
        <time>2022-02-04T16:48:39Z</time>
      </trkpt>
      <trkpt lat="43.30331" lon="6.54112">
        <ele>348.4</ele>
        <time>2022-02-04T16:48:40Z</time>
      </trkpt>
      <trkpt lat="43.30331" lon="6.54112">
        <ele>348.4</ele>
        <time>2022-02-04T16:48:41Z</time>
      </trkpt>
      <trkpt lat="43.30331" lon="6.54112">
        <ele>348.4</ele>
        <time>2022-02-04T16:48:42Z</time>
      </trkpt>
      <trkpt lat="43.30331" lon="6.54112">
        <ele>348.4</ele>
        <time>2022-02-04T16:48:43Z</time>
      </trkpt>
      <trkpt lat="43.30331" lon="6.54112">
        <ele>348.4</ele>
        <time>2022-02-04T16:48:44Z</time>
      </trkpt>
      <trkpt lat="43.30331" lon="6.54113">
        <ele>348.4</ele>
        <time>2022-02-04T16:48:45Z</time>
      </trkpt>
      <trkpt lat="43.30331" lon="6.54113">
        <ele>348.4</ele>
        <time>2022-02-04T16:48:46Z</time>
      </trkpt>
      <trkpt lat="43.30331" lon="6.54113">
        <ele>348.4</ele>
        <time>2022-02-04T16:48:47Z</time>
      </trkpt>
      <trkpt lat="43.30331" lon="6.54113">
        <ele>348.4</ele>
        <time>2022-02-04T16:48:48Z</time>
      </trkpt>
      <trkpt lat="43.3033" lon="6.54112">
        <ele>348.4</ele>
        <time>2022-02-04T16:48:49Z</time>
      </trkpt>
      <trkpt lat="43.3033" lon="6.54112">
        <ele>348.4</ele>
        <time>2022-02-04T16:48:50Z</time>
      </trkpt>
      <trkpt lat="43.3033" lon="6.54112">
        <ele>348.4</ele>
        <time>2022-02-04T16:48:51Z</time>
      </trkpt>
      <trkpt lat="43.3033" lon="6.54112">
        <ele>348.4</ele>
        <time>2022-02-04T16:48:52Z</time>
      </trkpt>
      <trkpt lat="43.3033" lon="6.54112">
        <ele>348.4</ele>
        <time>2022-02-04T16:48:53Z</time>
      </trkpt>
      <trkpt lat="43.3033" lon="6.54112">
        <ele>348.4</ele>
        <time>2022-02-04T16:48:54Z</time>
      </trkpt>
      <trkpt lat="43.3033" lon="6.54112">
        <ele>348.4</ele>
        <time>2022-02-04T16:48:55Z</time>
      </trkpt>
      <trkpt lat="43.3033" lon="6.54113">
        <ele>348.4</ele>
        <time>2022-02-04T16:48:56Z</time>
      </trkpt>
      <trkpt lat="43.3033" lon="6.54115">
        <ele>348.4</ele>
        <time>2022-02-04T16:48:57Z</time>
      </trkpt>
      <trkpt lat="43.3033" lon="6.54116">
        <ele>348.4</ele>
        <time>2022-02-04T16:48:58Z</time>
      </trkpt>
      <trkpt lat="43.30329" lon="6.54117">
        <ele>348.4</ele>
        <time>2022-02-04T16:48:59Z</time>
      </trkpt>
      <trkpt lat="43.30329" lon="6.54118">
        <ele>348.4</ele>
        <time>2022-02-04T16:49:00Z</time>
      </trkpt>
      <trkpt lat="43.30329" lon="6.54118">
        <ele>348.4</ele>
        <time>2022-02-04T16:49:01Z</time>
      </trkpt>
      <trkpt lat="43.30329" lon="6.54118">
        <ele>348.4</ele>
        <time>2022-02-04T16:49:02Z</time>
      </trkpt>
      <trkpt lat="43.30329" lon="6.54118">
        <ele>348.4</ele>
        <time>2022-02-04T16:49:03Z</time>
      </trkpt>
      <trkpt lat="43.30329" lon="6.54118">
        <ele>348.4</ele>
        <time>2022-02-04T16:49:04Z</time>
      </trkpt>
      <trkpt lat="43.30328" lon="6.5412">
        <ele>348.6</ele>
        <time>2022-02-04T16:49:05Z</time>
      </trkpt>
      <trkpt lat="43.30327" lon="6.54122">
        <ele>348.6</ele>
        <time>2022-02-04T16:49:06Z</time>
      </trkpt>
      <trkpt lat="43.30327" lon="6.54124">
        <ele>348.6</ele>
        <time>2022-02-04T16:49:07Z</time>
      </trkpt>
      <trkpt lat="43.30328" lon="6.54126">
        <ele>348.6</ele>
        <time>2022-02-04T16:49:08Z</time>
      </trkpt>
      <trkpt lat="43.30329" lon="6.54129">
        <ele>348.6</ele>
        <time>2022-02-04T16:49:09Z</time>
      </trkpt>
      <trkpt lat="43.30332" lon="6.54134">
        <ele>348.2</ele>
        <time>2022-02-04T16:49:10Z</time>
      </trkpt>
      <trkpt lat="43.30335" lon="6.54139">
        <ele>347.6</ele>
        <time>2022-02-04T16:49:11Z</time>
      </trkpt>
      <trkpt lat="43.30339" lon="6.54146">
        <ele>347</ele>
        <time>2022-02-04T16:49:12Z</time>
      </trkpt>
      <trkpt lat="43.30343" lon="6.54153">
        <ele>346.2</ele>
        <time>2022-02-04T16:49:13Z</time>
      </trkpt>
      <trkpt lat="43.30347" lon="6.5416">
        <ele>345.4</ele>
        <time>2022-02-04T16:49:14Z</time>
      </trkpt>
      <trkpt lat="43.30351" lon="6.54168">
        <ele>344.2</ele>
        <time>2022-02-04T16:49:15Z</time>
      </trkpt>
      <trkpt lat="43.30355" lon="6.54177">
        <ele>343.6</ele>
        <time>2022-02-04T16:49:16Z</time>
      </trkpt>
      <trkpt lat="43.30359" lon="6.54186">
        <ele>342.8</ele>
        <time>2022-02-04T16:49:17Z</time>
      </trkpt>
      <trkpt lat="43.30363" lon="6.54193">
        <ele>342.2</ele>
        <time>2022-02-04T16:49:18Z</time>
      </trkpt>
      <trkpt lat="43.30366" lon="6.542">
        <ele>341.8</ele>
        <time>2022-02-04T16:49:19Z</time>
      </trkpt>
      <trkpt lat="43.30368" lon="6.54207">
        <ele>341.6</ele>
        <time>2022-02-04T16:49:20Z</time>
      </trkpt>
      <trkpt lat="43.30368" lon="6.54213">
        <ele>341.6</ele>
        <time>2022-02-04T16:49:21Z</time>
      </trkpt>
      <trkpt lat="43.30366" lon="6.5422">
        <ele>341.4</ele>
        <time>2022-02-04T16:49:22Z</time>
      </trkpt>
      <trkpt lat="43.30365" lon="6.54226">
        <ele>342.2</ele>
        <time>2022-02-04T16:49:23Z</time>
      </trkpt>
      <trkpt lat="43.30363" lon="6.54233">
        <ele>342.8</ele>
        <time>2022-02-04T16:49:24Z</time>
      </trkpt>
      <trkpt lat="43.30361" lon="6.54239">
        <ele>343.4</ele>
        <time>2022-02-04T16:49:25Z</time>
      </trkpt>
      <trkpt lat="43.3036" lon="6.54246">
        <ele>343.8</ele>
        <time>2022-02-04T16:49:26Z</time>
      </trkpt>
      <trkpt lat="43.30359" lon="6.54254">
        <ele>344</ele>
        <time>2022-02-04T16:49:27Z</time>
      </trkpt>
      <trkpt lat="43.30358" lon="6.54262">
        <ele>344</ele>
        <time>2022-02-04T16:49:28Z</time>
      </trkpt>
      <trkpt lat="43.30358" lon="6.5427">
        <ele>344.2</ele>
        <time>2022-02-04T16:49:29Z</time>
      </trkpt>
      <trkpt lat="43.30357" lon="6.54279">
        <ele>344.2</ele>
        <time>2022-02-04T16:49:30Z</time>
      </trkpt>
      <trkpt lat="43.30356" lon="6.54288">
        <ele>344.4</ele>
        <time>2022-02-04T16:49:31Z</time>
      </trkpt>
      <trkpt lat="43.30354" lon="6.54297">
        <ele>344.4</ele>
        <time>2022-02-04T16:49:32Z</time>
      </trkpt>
      <trkpt lat="43.30353" lon="6.54306">
        <ele>344.4</ele>
        <time>2022-02-04T16:49:33Z</time>
      </trkpt>
      <trkpt lat="43.30352" lon="6.54314">
        <ele>344.6</ele>
        <time>2022-02-04T16:49:34Z</time>
      </trkpt>
      <trkpt lat="43.30354" lon="6.54323">
        <ele>343.8</ele>
        <time>2022-02-04T16:49:35Z</time>
      </trkpt>
      <trkpt lat="43.30356" lon="6.54333">
        <ele>343.2</ele>
        <time>2022-02-04T16:49:36Z</time>
      </trkpt>
      <trkpt lat="43.30357" lon="6.54342">
        <ele>342.8</ele>
        <time>2022-02-04T16:49:37Z</time>
      </trkpt>
      <trkpt lat="43.30357" lon="6.54351">
        <ele>342.4</ele>
        <time>2022-02-04T16:49:38Z</time>
      </trkpt>
      <trkpt lat="43.30357" lon="6.54359">
        <ele>342</ele>
        <time>2022-02-04T16:49:39Z</time>
      </trkpt>
      <trkpt lat="43.30356" lon="6.54368">
        <ele>341.8</ele>
        <time>2022-02-04T16:49:40Z</time>
      </trkpt>
      <trkpt lat="43.30356" lon="6.54378">
        <ele>341.6</ele>
        <time>2022-02-04T16:49:41Z</time>
      </trkpt>
      <trkpt lat="43.30356" lon="6.54387">
        <ele>341</ele>
        <time>2022-02-04T16:49:42Z</time>
      </trkpt>
      <trkpt lat="43.30356" lon="6.54395">
        <ele>339.8</ele>
        <time>2022-02-04T16:49:43Z</time>
      </trkpt>
      <trkpt lat="43.30356" lon="6.54401">
        <ele>338.6</ele>
        <time>2022-02-04T16:49:44Z</time>
      </trkpt>
      <trkpt lat="43.3036" lon="6.54406">
        <ele>337.2</ele>
        <time>2022-02-04T16:49:45Z</time>
      </trkpt>
      <trkpt lat="43.30364" lon="6.5441">
        <ele>335.8</ele>
        <time>2022-02-04T16:49:46Z</time>
      </trkpt>
      <trkpt lat="43.30366" lon="6.54414">
        <ele>335</ele>
        <time>2022-02-04T16:49:47Z</time>
      </trkpt>
      <trkpt lat="43.30367" lon="6.54419">
        <ele>334.4</ele>
        <time>2022-02-04T16:49:48Z</time>
      </trkpt>
      <trkpt lat="43.30367" lon="6.54426">
        <ele>333.2</ele>
        <time>2022-02-04T16:49:49Z</time>
      </trkpt>
      <trkpt lat="43.30364" lon="6.54433">
        <ele>332.2</ele>
        <time>2022-02-04T16:49:50Z</time>
      </trkpt>
      <trkpt lat="43.30362" lon="6.54439">
        <ele>330.6</ele>
        <time>2022-02-04T16:49:51Z</time>
      </trkpt>
      <trkpt lat="43.30361" lon="6.54444">
        <ele>329.2</ele>
        <time>2022-02-04T16:49:52Z</time>
      </trkpt>
      <trkpt lat="43.30362" lon="6.54449">
        <ele>328.4</ele>
        <time>2022-02-04T16:49:53Z</time>
      </trkpt>
      <trkpt lat="43.30365" lon="6.54452">
        <ele>327.8</ele>
        <time>2022-02-04T16:49:54Z</time>
      </trkpt>
      <trkpt lat="43.30369" lon="6.54456">
        <ele>327.6</ele>
        <time>2022-02-04T16:49:55Z</time>
      </trkpt>
      <trkpt lat="43.30372" lon="6.54459">
        <ele>326.4</ele>
        <time>2022-02-04T16:49:56Z</time>
      </trkpt>
      <trkpt lat="43.30375" lon="6.54463">
        <ele>323.4</ele>
        <time>2022-02-04T16:49:57Z</time>
      </trkpt>
      <trkpt lat="43.30375" lon="6.54469">
        <ele>321.2</ele>
        <time>2022-02-04T16:49:58Z</time>
      </trkpt>
      <trkpt lat="43.30374" lon="6.54477">
        <ele>319.6</ele>
        <time>2022-02-04T16:49:59Z</time>
      </trkpt>
      <trkpt lat="43.30373" lon="6.54487">
        <ele>318.8</ele>
        <time>2022-02-04T16:50:00Z</time>
      </trkpt>
      <trkpt lat="43.30371" lon="6.54498">
        <ele>317.8</ele>
        <time>2022-02-04T16:50:01Z</time>
      </trkpt>
      <trkpt lat="43.3037" lon="6.54509">
        <ele>314.6</ele>
        <time>2022-02-04T16:50:02Z</time>
      </trkpt>
      <trkpt lat="43.30369" lon="6.54519">
        <ele>313</ele>
        <time>2022-02-04T16:50:03Z</time>
      </trkpt>
      <trkpt lat="43.30368" lon="6.54531">
        <ele>311</ele>
        <time>2022-02-04T16:50:04Z</time>
      </trkpt>
      <trkpt lat="43.30368" lon="6.54543">
        <ele>309.8</ele>
        <time>2022-02-04T16:50:05Z</time>
      </trkpt>
      <trkpt lat="43.30368" lon="6.54554">
        <ele>308.6</ele>
        <time>2022-02-04T16:50:06Z</time>
      </trkpt>
      <trkpt lat="43.30367" lon="6.54566">
        <ele>308</ele>
        <time>2022-02-04T16:50:07Z</time>
      </trkpt>
      <trkpt lat="43.30365" lon="6.54576">
        <ele>307.8</ele>
        <time>2022-02-04T16:50:08Z</time>
      </trkpt>
      <trkpt lat="43.30362" lon="6.54586">
        <ele>307.2</ele>
        <time>2022-02-04T16:50:09Z</time>
      </trkpt>
      <trkpt lat="43.30359" lon="6.54596">
        <ele>306.8</ele>
        <time>2022-02-04T16:50:10Z</time>
      </trkpt>
      <trkpt lat="43.30355" lon="6.54606">
        <ele>305.8</ele>
        <time>2022-02-04T16:50:11Z</time>
      </trkpt>
      <trkpt lat="43.3035" lon="6.54616">
        <ele>304.8</ele>
        <time>2022-02-04T16:50:12Z</time>
      </trkpt>
      <trkpt lat="43.30344" lon="6.54624">
        <ele>304</ele>
        <time>2022-02-04T16:50:13Z</time>
      </trkpt>
      <trkpt lat="43.30338" lon="6.5463">
        <ele>303.2</ele>
        <time>2022-02-04T16:50:14Z</time>
      </trkpt>
      <trkpt lat="43.30332" lon="6.54635">
        <ele>302.4</ele>
        <time>2022-02-04T16:50:15Z</time>
      </trkpt>
      <trkpt lat="43.30327" lon="6.5464">
        <ele>301.8</ele>
        <time>2022-02-04T16:50:16Z</time>
      </trkpt>
      <trkpt lat="43.30324" lon="6.54645">
        <ele>305</ele>
        <time>2022-02-04T16:50:17Z</time>
      </trkpt>
      <trkpt lat="43.30322" lon="6.54651">
        <ele>304</ele>
        <time>2022-02-04T16:50:18Z</time>
      </trkpt>
      <trkpt lat="43.30319" lon="6.54657">
        <ele>302.8</ele>
        <time>2022-02-04T16:50:19Z</time>
      </trkpt>
      <trkpt lat="43.30314" lon="6.54661">
        <ele>302.4</ele>
        <time>2022-02-04T16:50:20Z</time>
      </trkpt>
      <trkpt lat="43.30308" lon="6.54663">
        <ele>302.2</ele>
        <time>2022-02-04T16:50:21Z</time>
      </trkpt>
      <trkpt lat="43.30303" lon="6.54667">
        <ele>301.2</ele>
        <time>2022-02-04T16:50:22Z</time>
      </trkpt>
      <trkpt lat="43.30299" lon="6.54671">
        <ele>300.2</ele>
        <time>2022-02-04T16:50:23Z</time>
      </trkpt>
      <trkpt lat="43.30295" lon="6.54678">
        <ele>299.2</ele>
        <time>2022-02-04T16:50:24Z</time>
      </trkpt>
      <trkpt lat="43.30291" lon="6.54685">
        <ele>298.8</ele>
        <time>2022-02-04T16:50:25Z</time>
      </trkpt>
      <trkpt lat="43.30287" lon="6.5469">
        <ele>298.6</ele>
        <time>2022-02-04T16:50:26Z</time>
      </trkpt>
      <trkpt lat="43.30281" lon="6.54692">
        <ele>298.2</ele>
        <time>2022-02-04T16:50:27Z</time>
      </trkpt>
      <trkpt lat="43.30276" lon="6.5469">
        <ele>297.8</ele>
        <time>2022-02-04T16:50:28Z</time>
      </trkpt>
      <trkpt lat="43.30271" lon="6.54687">
        <ele>297.4</ele>
        <time>2022-02-04T16:50:29Z</time>
      </trkpt>
      <trkpt lat="43.30266" lon="6.54685">
        <ele>297</ele>
        <time>2022-02-04T16:50:30Z</time>
      </trkpt>
      <trkpt lat="43.30261" lon="6.54685">
        <ele>295.8</ele>
        <time>2022-02-04T16:50:31Z</time>
      </trkpt>
      <trkpt lat="43.30256" lon="6.54688">
        <ele>294.8</ele>
        <time>2022-02-04T16:50:32Z</time>
      </trkpt>
      <trkpt lat="43.30252" lon="6.54691">
        <ele>294</ele>
        <time>2022-02-04T16:50:33Z</time>
      </trkpt>
      <trkpt lat="43.30248" lon="6.54697">
        <ele>293.2</ele>
        <time>2022-02-04T16:50:34Z</time>
      </trkpt>
      <trkpt lat="43.30245" lon="6.54703">
        <ele>292</ele>
        <time>2022-02-04T16:50:35Z</time>
      </trkpt>
      <trkpt lat="43.30239" lon="6.54708">
        <ele>291.2</ele>
        <time>2022-02-04T16:50:36Z</time>
      </trkpt>
      <trkpt lat="43.30233" lon="6.54713">
        <ele>290.4</ele>
        <time>2022-02-04T16:50:37Z</time>
      </trkpt>
      <trkpt lat="43.30226" lon="6.54719">
        <ele>288.8</ele>
        <time>2022-02-04T16:50:38Z</time>
      </trkpt>
      <trkpt lat="43.3022" lon="6.54727">
        <ele>287.4</ele>
        <time>2022-02-04T16:50:39Z</time>
      </trkpt>
      <trkpt lat="43.30216" lon="6.54738">
        <ele>286.2</ele>
        <time>2022-02-04T16:50:40Z</time>
      </trkpt>
      <trkpt lat="43.30212" lon="6.54749">
        <ele>284.4</ele>
        <time>2022-02-04T16:50:41Z</time>
      </trkpt>
      <trkpt lat="43.3021" lon="6.54761">
        <ele>282.6</ele>
        <time>2022-02-04T16:50:42Z</time>
      </trkpt>
      <trkpt lat="43.3021" lon="6.54773">
        <ele>281.6</ele>
        <time>2022-02-04T16:50:43Z</time>
      </trkpt>
      <trkpt lat="43.30211" lon="6.54784">
        <ele>280.8</ele>
        <time>2022-02-04T16:50:44Z</time>
      </trkpt>
      <trkpt lat="43.30211" lon="6.54797">
        <ele>280</ele>
        <time>2022-02-04T16:50:45Z</time>
      </trkpt>
      <trkpt lat="43.30213" lon="6.54811">
        <ele>277.8</ele>
        <time>2022-02-04T16:50:46Z</time>
      </trkpt>
      <trkpt lat="43.30213" lon="6.54825">
        <ele>276.6</ele>
        <time>2022-02-04T16:50:47Z</time>
      </trkpt>
      <trkpt lat="43.30213" lon="6.54839">
        <ele>275.8</ele>
        <time>2022-02-04T16:50:48Z</time>
      </trkpt>
      <trkpt lat="43.30214" lon="6.54853">
        <ele>274.8</ele>
        <time>2022-02-04T16:50:49Z</time>
      </trkpt>
      <trkpt lat="43.30215" lon="6.54867">
        <ele>273.8</ele>
        <time>2022-02-04T16:50:50Z</time>
      </trkpt>
      <trkpt lat="43.30215" lon="6.54881">
        <ele>273</ele>
        <time>2022-02-04T16:50:51Z</time>
      </trkpt>
      <trkpt lat="43.30215" lon="6.54894">
        <ele>272.2</ele>
        <time>2022-02-04T16:50:52Z</time>
      </trkpt>
      <trkpt lat="43.30214" lon="6.54908">
        <ele>271.6</ele>
        <time>2022-02-04T16:50:53Z</time>
      </trkpt>
      <trkpt lat="43.30213" lon="6.54921">
        <ele>270.8</ele>
        <time>2022-02-04T16:50:54Z</time>
      </trkpt>
      <trkpt lat="43.30213" lon="6.54935">
        <ele>270.4</ele>
        <time>2022-02-04T16:50:55Z</time>
      </trkpt>
      <trkpt lat="43.30213" lon="6.54948">
        <ele>271.4</ele>
        <time>2022-02-04T16:50:56Z</time>
      </trkpt>
      <trkpt lat="43.30212" lon="6.54962">
        <ele>269</ele>
        <time>2022-02-04T16:50:57Z</time>
      </trkpt>
      <trkpt lat="43.30213" lon="6.54975">
        <ele>267.8</ele>
        <time>2022-02-04T16:50:58Z</time>
      </trkpt>
      <trkpt lat="43.30214" lon="6.54986">
        <ele>267.2</ele>
        <time>2022-02-04T16:50:59Z</time>
      </trkpt>
      <trkpt lat="43.30213" lon="6.54997">
        <ele>266.8</ele>
        <time>2022-02-04T16:51:00Z</time>
      </trkpt>
      <trkpt lat="43.30211" lon="6.55007">
        <ele>266.8</ele>
        <time>2022-02-04T16:51:01Z</time>
      </trkpt>
      <trkpt lat="43.30208" lon="6.55018">
        <ele>266.2</ele>
        <time>2022-02-04T16:51:02Z</time>
      </trkpt>
      <trkpt lat="43.30205" lon="6.55028">
        <ele>265.8</ele>
        <time>2022-02-04T16:51:03Z</time>
      </trkpt>
      <trkpt lat="43.30201" lon="6.55039">
        <ele>265.2</ele>
        <time>2022-02-04T16:51:04Z</time>
      </trkpt>
      <trkpt lat="43.30196" lon="6.55049">
        <ele>265</ele>
        <time>2022-02-04T16:51:05Z</time>
      </trkpt>
      <trkpt lat="43.30192" lon="6.55059">
        <ele>264.6</ele>
        <time>2022-02-04T16:51:06Z</time>
      </trkpt>
      <trkpt lat="43.30188" lon="6.55068">
        <ele>264.6</ele>
        <time>2022-02-04T16:51:07Z</time>
      </trkpt>
      <trkpt lat="43.30185" lon="6.55074">
        <ele>264.4</ele>
        <time>2022-02-04T16:51:08Z</time>
      </trkpt>
      <trkpt lat="43.30181" lon="6.55076">
        <ele>264.4</ele>
        <time>2022-02-04T16:51:09Z</time>
      </trkpt>
      <trkpt lat="43.30177" lon="6.55076">
        <ele>264.4</ele>
        <time>2022-02-04T16:51:10Z</time>
      </trkpt>
      <trkpt lat="43.30174" lon="6.55075">
        <ele>264</ele>
        <time>2022-02-04T16:51:11Z</time>
      </trkpt>
      <trkpt lat="43.30171" lon="6.55073">
        <ele>263.8</ele>
        <time>2022-02-04T16:51:12Z</time>
      </trkpt>
      <trkpt lat="43.30166" lon="6.5507">
        <ele>263.8</ele>
        <time>2022-02-04T16:51:13Z</time>
      </trkpt>
      <trkpt lat="43.30161" lon="6.55068">
        <ele>263.8</ele>
        <time>2022-02-04T16:51:14Z</time>
      </trkpt>
      <trkpt lat="43.30155" lon="6.55065">
        <ele>263.4</ele>
        <time>2022-02-04T16:51:15Z</time>
      </trkpt>
      <trkpt lat="43.30148" lon="6.55062">
        <ele>263.2</ele>
        <time>2022-02-04T16:51:16Z</time>
      </trkpt>
      <trkpt lat="43.30142" lon="6.55059">
        <ele>263</ele>
        <time>2022-02-04T16:51:17Z</time>
      </trkpt>
      <trkpt lat="43.30135" lon="6.55058">
        <ele>262.6</ele>
        <time>2022-02-04T16:51:18Z</time>
      </trkpt>
      <trkpt lat="43.3013" lon="6.55059">
        <ele>261.6</ele>
        <time>2022-02-04T16:51:19Z</time>
      </trkpt>
      <trkpt lat="43.30126" lon="6.55062">
        <ele>260.8</ele>
        <time>2022-02-04T16:51:20Z</time>
      </trkpt>
      <trkpt lat="43.30124" lon="6.55068">
        <ele>260.2</ele>
        <time>2022-02-04T16:51:21Z</time>
      </trkpt>
      <trkpt lat="43.30123" lon="6.55075">
        <ele>258.8</ele>
        <time>2022-02-04T16:51:22Z</time>
      </trkpt>
      <trkpt lat="43.30123" lon="6.55084">
        <ele>258</ele>
        <time>2022-02-04T16:51:23Z</time>
      </trkpt>
      <trkpt lat="43.30122" lon="6.55093">
        <ele>257.2</ele>
        <time>2022-02-04T16:51:24Z</time>
      </trkpt>
      <trkpt lat="43.3012" lon="6.55098">
        <ele>256.8</ele>
        <time>2022-02-04T16:51:25Z</time>
      </trkpt>
      <trkpt lat="43.30119" lon="6.551">
        <ele>255.6</ele>
        <time>2022-02-04T16:51:26Z</time>
      </trkpt>
      <trkpt lat="43.30118" lon="6.55101">
        <ele>254.4</ele>
        <time>2022-02-04T16:51:27Z</time>
      </trkpt>
      <trkpt lat="43.30118" lon="6.55101">
        <ele>253.6</ele>
        <time>2022-02-04T16:51:28Z</time>
      </trkpt>
      <trkpt lat="43.30118" lon="6.551">
        <ele>253</ele>
        <time>2022-02-04T16:51:29Z</time>
      </trkpt>
      <trkpt lat="43.30116" lon="6.55099">
        <ele>252.4</ele>
        <time>2022-02-04T16:51:30Z</time>
      </trkpt>
      <trkpt lat="43.30115" lon="6.55096">
        <ele>252.2</ele>
        <time>2022-02-04T16:51:31Z</time>
      </trkpt>
      <trkpt lat="43.30114" lon="6.55093">
        <ele>252</ele>
        <time>2022-02-04T16:51:32Z</time>
      </trkpt>
      <trkpt lat="43.30113" lon="6.55089">
        <ele>251.6</ele>
        <time>2022-02-04T16:51:33Z</time>
      </trkpt>
      <trkpt lat="43.3011" lon="6.55086">
        <ele>251.2</ele>
        <time>2022-02-04T16:51:34Z</time>
      </trkpt>
      <trkpt lat="43.30105" lon="6.55083">
        <ele>250.8</ele>
        <time>2022-02-04T16:51:35Z</time>
      </trkpt>
      <trkpt lat="43.301" lon="6.55082">
        <ele>250.6</ele>
        <time>2022-02-04T16:51:36Z</time>
      </trkpt>
      <trkpt lat="43.30096" lon="6.55081">
        <ele>250</ele>
        <time>2022-02-04T16:51:37Z</time>
      </trkpt>
      <trkpt lat="43.30092" lon="6.5508">
        <ele>248.6</ele>
        <time>2022-02-04T16:51:38Z</time>
      </trkpt>
      <trkpt lat="43.30089" lon="6.55078">
        <ele>247.2</ele>
        <time>2022-02-04T16:51:39Z</time>
      </trkpt>
      <trkpt lat="43.30087" lon="6.55076">
        <ele>246.4</ele>
        <time>2022-02-04T16:51:40Z</time>
      </trkpt>
      <trkpt lat="43.30087" lon="6.55071">
        <ele>245.6</ele>
        <time>2022-02-04T16:51:41Z</time>
      </trkpt>
      <trkpt lat="43.30086" lon="6.55066">
        <ele>245.2</ele>
        <time>2022-02-04T16:51:42Z</time>
      </trkpt>
      <trkpt lat="43.30084" lon="6.55062">
        <ele>244.6</ele>
        <time>2022-02-04T16:51:43Z</time>
      </trkpt>
      <trkpt lat="43.3008" lon="6.55061">
        <ele>244.2</ele>
        <time>2022-02-04T16:51:44Z</time>
      </trkpt>
      <trkpt lat="43.30076" lon="6.55062">
        <ele>243.2</ele>
        <time>2022-02-04T16:51:45Z</time>
      </trkpt>
      <trkpt lat="43.30074" lon="6.55064">
        <ele>242.6</ele>
        <time>2022-02-04T16:51:46Z</time>
      </trkpt>
      <trkpt lat="43.30071" lon="6.55069">
        <ele>241.8</ele>
        <time>2022-02-04T16:51:47Z</time>
      </trkpt>
      <trkpt lat="43.30068" lon="6.55076">
        <ele>241.2</ele>
        <time>2022-02-04T16:51:48Z</time>
      </trkpt>
      <trkpt lat="43.30065" lon="6.55083">
        <ele>239.8</ele>
        <time>2022-02-04T16:51:49Z</time>
      </trkpt>
      <trkpt lat="43.30062" lon="6.55084">
        <ele>239.2</ele>
        <time>2022-02-04T16:51:50Z</time>
      </trkpt>
      <trkpt lat="43.3006" lon="6.55081">
        <ele>238</ele>
        <time>2022-02-04T16:51:51Z</time>
      </trkpt>
      <trkpt lat="43.30057" lon="6.55076">
        <ele>237.2</ele>
        <time>2022-02-04T16:51:52Z</time>
      </trkpt>
      <trkpt lat="43.30056" lon="6.55072">
        <ele>236.6</ele>
        <time>2022-02-04T16:51:53Z</time>
      </trkpt>
      <trkpt lat="43.30053" lon="6.55069">
        <ele>235.4</ele>
        <time>2022-02-04T16:51:54Z</time>
      </trkpt>
      <trkpt lat="43.30049" lon="6.55067">
        <ele>234.6</ele>
        <time>2022-02-04T16:51:55Z</time>
      </trkpt>
      <trkpt lat="43.30045" lon="6.55065">
        <ele>233.2</ele>
        <time>2022-02-04T16:51:56Z</time>
      </trkpt>
      <trkpt lat="43.30042" lon="6.55061">
        <ele>232</ele>
        <time>2022-02-04T16:51:57Z</time>
      </trkpt>
      <trkpt lat="43.30039" lon="6.55059">
        <ele>231</ele>
        <time>2022-02-04T16:51:58Z</time>
      </trkpt>
      <trkpt lat="43.30035" lon="6.55059">
        <ele>230.2</ele>
        <time>2022-02-04T16:51:59Z</time>
      </trkpt>
      <trkpt lat="43.30031" lon="6.55061">
        <ele>229.4</ele>
        <time>2022-02-04T16:52:00Z</time>
      </trkpt>
      <trkpt lat="43.30028" lon="6.55062">
        <ele>228.6</ele>
        <time>2022-02-04T16:52:01Z</time>
      </trkpt>
      <trkpt lat="43.30027" lon="6.55065">
        <ele>227.4</ele>
        <time>2022-02-04T16:52:02Z</time>
      </trkpt>
      <trkpt lat="43.30025" lon="6.55069">
        <ele>226.8</ele>
        <time>2022-02-04T16:52:03Z</time>
      </trkpt>
      <trkpt lat="43.30022" lon="6.55071">
        <ele>226.4</ele>
        <time>2022-02-04T16:52:04Z</time>
      </trkpt>
      <trkpt lat="43.30019" lon="6.55075">
        <ele>225.2</ele>
        <time>2022-02-04T16:52:05Z</time>
      </trkpt>
      <trkpt lat="43.30017" lon="6.5508">
        <ele>223.6</ele>
        <time>2022-02-04T16:52:06Z</time>
      </trkpt>
      <trkpt lat="43.30015" lon="6.55082">
        <ele>222.6</ele>
        <time>2022-02-04T16:52:07Z</time>
      </trkpt>
      <trkpt lat="43.30014" lon="6.55083">
        <ele>222.2</ele>
        <time>2022-02-04T16:52:08Z</time>
      </trkpt>
      <trkpt lat="43.30012" lon="6.55085">
        <ele>221.8</ele>
        <time>2022-02-04T16:52:09Z</time>
      </trkpt>
      <trkpt lat="43.3001" lon="6.55088">
        <ele>221.4</ele>
        <time>2022-02-04T16:52:10Z</time>
      </trkpt>
      <trkpt lat="43.30005" lon="6.55089">
        <ele>221.2</ele>
        <time>2022-02-04T16:52:11Z</time>
      </trkpt>
      <trkpt lat="43.3" lon="6.55088">
        <ele>220.8</ele>
        <time>2022-02-04T16:52:12Z</time>
      </trkpt>
      <trkpt lat="43.29996" lon="6.55087">
        <ele>220</ele>
        <time>2022-02-04T16:52:13Z</time>
      </trkpt>
      <trkpt lat="43.29994" lon="6.55086">
        <ele>218.4</ele>
        <time>2022-02-04T16:52:14Z</time>
      </trkpt>
      <trkpt lat="43.29992" lon="6.55087">
        <ele>217.2</ele>
        <time>2022-02-04T16:52:15Z</time>
      </trkpt>
      <trkpt lat="43.2999" lon="6.55092">
        <ele>216.4</ele>
        <time>2022-02-04T16:52:16Z</time>
      </trkpt>
      <trkpt lat="43.29987" lon="6.55097">
        <ele>215.6</ele>
        <time>2022-02-04T16:52:17Z</time>
      </trkpt>
      <trkpt lat="43.29983" lon="6.55104">
        <ele>214.4</ele>
        <time>2022-02-04T16:52:18Z</time>
      </trkpt>
      <trkpt lat="43.2998" lon="6.55109">
        <ele>213.8</ele>
        <time>2022-02-04T16:52:19Z</time>
      </trkpt>
      <trkpt lat="43.29976" lon="6.55114">
        <ele>212.8</ele>
        <time>2022-02-04T16:52:20Z</time>
      </trkpt>
      <trkpt lat="43.29971" lon="6.55115">
        <ele>212</ele>
        <time>2022-02-04T16:52:21Z</time>
      </trkpt>
      <trkpt lat="43.29965" lon="6.55113">
        <ele>211.6</ele>
        <time>2022-02-04T16:52:22Z</time>
      </trkpt>
      <trkpt lat="43.29961" lon="6.55109">
        <ele>211</ele>
        <time>2022-02-04T16:52:23Z</time>
      </trkpt>
      <trkpt lat="43.29957" lon="6.55106">
        <ele>209.6</ele>
        <time>2022-02-04T16:52:24Z</time>
      </trkpt>
      <trkpt lat="43.29953" lon="6.55106">
        <ele>208.6</ele>
        <time>2022-02-04T16:52:25Z</time>
      </trkpt>
      <trkpt lat="43.2995" lon="6.55109">
        <ele>207.6</ele>
        <time>2022-02-04T16:52:26Z</time>
      </trkpt>
      <trkpt lat="43.29947" lon="6.55112">
        <ele>207</ele>
        <time>2022-02-04T16:52:27Z</time>
      </trkpt>
      <trkpt lat="43.29944" lon="6.55115">
        <ele>206.4</ele>
        <time>2022-02-04T16:52:28Z</time>
      </trkpt>
      <trkpt lat="43.29942" lon="6.55118">
        <ele>205.8</ele>
        <time>2022-02-04T16:52:29Z</time>
      </trkpt>
      <trkpt lat="43.2994" lon="6.55122">
        <ele>204.4</ele>
        <time>2022-02-04T16:52:30Z</time>
      </trkpt>
      <trkpt lat="43.29938" lon="6.55126">
        <ele>203.6</ele>
        <time>2022-02-04T16:52:31Z</time>
      </trkpt>
      <trkpt lat="43.29937" lon="6.55128">
        <ele>202.2</ele>
        <time>2022-02-04T16:52:32Z</time>
      </trkpt>
      <trkpt lat="43.29934" lon="6.5513">
        <ele>200.8</ele>
        <time>2022-02-04T16:52:33Z</time>
      </trkpt>
      <trkpt lat="43.29931" lon="6.55131">
        <ele>199</ele>
        <time>2022-02-04T16:52:34Z</time>
      </trkpt>
      <trkpt lat="43.29927" lon="6.55134">
        <ele>198</ele>
        <time>2022-02-04T16:52:35Z</time>
      </trkpt>
      <trkpt lat="43.29925" lon="6.55138">
        <ele>197</ele>
        <time>2022-02-04T16:52:36Z</time>
      </trkpt>
      <trkpt lat="43.29923" lon="6.55143">
        <ele>196</ele>
        <time>2022-02-04T16:52:37Z</time>
      </trkpt>
      <trkpt lat="43.29922" lon="6.55149">
        <ele>194.2</ele>
        <time>2022-02-04T16:52:38Z</time>
      </trkpt>
      <trkpt lat="43.29921" lon="6.55154">
        <ele>193.4</ele>
        <time>2022-02-04T16:52:39Z</time>
      </trkpt>
      <trkpt lat="43.29919" lon="6.55158">
        <ele>192.6</ele>
        <time>2022-02-04T16:52:40Z</time>
      </trkpt>
      <trkpt lat="43.29916" lon="6.55162">
        <ele>191.6</ele>
        <time>2022-02-04T16:52:41Z</time>
      </trkpt>
      <trkpt lat="43.29915" lon="6.55168">
        <ele>190.4</ele>
        <time>2022-02-04T16:52:42Z</time>
      </trkpt>
      <trkpt lat="43.29914" lon="6.55174">
        <ele>189.4</ele>
        <time>2022-02-04T16:52:43Z</time>
      </trkpt>
      <trkpt lat="43.29912" lon="6.5518">
        <ele>188.8</ele>
        <time>2022-02-04T16:52:44Z</time>
      </trkpt>
      <trkpt lat="43.2991" lon="6.55188">
        <ele>187.4</ele>
        <time>2022-02-04T16:52:45Z</time>
      </trkpt>
      <trkpt lat="43.29908" lon="6.55196">
        <ele>186.6</ele>
        <time>2022-02-04T16:52:46Z</time>
      </trkpt>
      <trkpt lat="43.29906" lon="6.55203">
        <ele>186.2</ele>
        <time>2022-02-04T16:52:47Z</time>
      </trkpt>
      <trkpt lat="43.29902" lon="6.5521">
        <ele>185.4</ele>
        <time>2022-02-04T16:52:48Z</time>
      </trkpt>
      <trkpt lat="43.29897" lon="6.55215">
        <ele>183.8</ele>
        <time>2022-02-04T16:52:49Z</time>
      </trkpt>
      <trkpt lat="43.29894" lon="6.55219">
        <ele>183</ele>
        <time>2022-02-04T16:52:50Z</time>
      </trkpt>
      <trkpt lat="43.29892" lon="6.55222">
        <ele>182.2</ele>
        <time>2022-02-04T16:52:51Z</time>
      </trkpt>
      <trkpt lat="43.2989" lon="6.55225">
        <ele>182</ele>
        <time>2022-02-04T16:52:52Z</time>
      </trkpt>
      <trkpt lat="43.29888" lon="6.55224">
        <ele>181.8</ele>
        <time>2022-02-04T16:52:53Z</time>
      </trkpt>
      <trkpt lat="43.29885" lon="6.55221">
        <ele>181.4</ele>
        <time>2022-02-04T16:52:54Z</time>
      </trkpt>
      <trkpt lat="43.29883" lon="6.55219">
        <ele>180.4</ele>
        <time>2022-02-04T16:52:55Z</time>
      </trkpt>
      <trkpt lat="43.2988" lon="6.55217">
        <ele>179.6</ele>
        <time>2022-02-04T16:52:56Z</time>
      </trkpt>
      <trkpt lat="43.29877" lon="6.55217">
        <ele>178.6</ele>
        <time>2022-02-04T16:52:57Z</time>
      </trkpt>
      <trkpt lat="43.29874" lon="6.55217">
        <ele>177.6</ele>
        <time>2022-02-04T16:52:58Z</time>
      </trkpt>
      <trkpt lat="43.29872" lon="6.55215">
        <ele>176.8</ele>
        <time>2022-02-04T16:52:59Z</time>
      </trkpt>
      <trkpt lat="43.29871" lon="6.55213">
        <ele>175.6</ele>
        <time>2022-02-04T16:53:00Z</time>
      </trkpt>
      <trkpt lat="43.2987" lon="6.55211">
        <ele>174.4</ele>
        <time>2022-02-04T16:53:01Z</time>
      </trkpt>
      <trkpt lat="43.29868" lon="6.55209">
        <ele>173.6</ele>
        <time>2022-02-04T16:53:02Z</time>
      </trkpt>
      <trkpt lat="43.29866" lon="6.55208">
        <ele>173</ele>
        <time>2022-02-04T16:53:03Z</time>
      </trkpt>
      <trkpt lat="43.29865" lon="6.55209">
        <ele>171.8</ele>
        <time>2022-02-04T16:53:04Z</time>
      </trkpt>
      <trkpt lat="43.29864" lon="6.55209">
        <ele>170.6</ele>
        <time>2022-02-04T16:53:05Z</time>
      </trkpt>
      <trkpt lat="43.29864" lon="6.55209">
        <ele>169.6</ele>
        <time>2022-02-04T16:53:06Z</time>
      </trkpt>
      <trkpt lat="43.29864" lon="6.55209">
        <ele>169</ele>
        <time>2022-02-04T16:53:07Z</time>
      </trkpt>
      <trkpt lat="43.29864" lon="6.55209">
        <ele>168.4</ele>
        <time>2022-02-04T16:53:08Z</time>
      </trkpt>
      <trkpt lat="43.29864" lon="6.55209">
        <ele>168</ele>
        <time>2022-02-04T16:53:09Z</time>
      </trkpt>
      <trkpt lat="43.29864" lon="6.55209">
        <ele>167.6</ele>
        <time>2022-02-04T16:53:10Z</time>
      </trkpt>
      <trkpt lat="43.29864" lon="6.55209">
        <ele>167.4</ele>
        <time>2022-02-04T16:53:11Z</time>
      </trkpt>
      <trkpt lat="43.29864" lon="6.5521">
        <ele>167.4</ele>
        <time>2022-02-04T16:53:12Z</time>
      </trkpt>
      <trkpt lat="43.29863" lon="6.55211">
        <ele>167.2</ele>
        <time>2022-02-04T16:53:13Z</time>
      </trkpt>
      <trkpt lat="43.29863" lon="6.55211">
        <ele>166.6</ele>
        <time>2022-02-04T16:53:14Z</time>
      </trkpt>
      <trkpt lat="43.29862" lon="6.55212">
        <ele>166.2</ele>
        <time>2022-02-04T16:53:15Z</time>
      </trkpt>
      <trkpt lat="43.2986" lon="6.55213">
        <ele>165.8</ele>
        <time>2022-02-04T16:53:16Z</time>
      </trkpt>
      <trkpt lat="43.29857" lon="6.55213">
        <ele>165.6</ele>
        <time>2022-02-04T16:53:17Z</time>
      </trkpt>
      <trkpt lat="43.29855" lon="6.55213">
        <ele>165.4</ele>
        <time>2022-02-04T16:53:18Z</time>
      </trkpt>
      <trkpt lat="43.29852" lon="6.55212">
        <ele>164.6</ele>
        <time>2022-02-04T16:53:19Z</time>
      </trkpt>
      <trkpt lat="43.29848" lon="6.55211">
        <ele>164</ele>
        <time>2022-02-04T16:53:20Z</time>
      </trkpt>
      <trkpt lat="43.29846" lon="6.5521">
        <ele>162</ele>
        <time>2022-02-04T16:53:21Z</time>
      </trkpt>
      <trkpt lat="43.29846" lon="6.5521">
        <ele>160.6</ele>
        <time>2022-02-04T16:53:22Z</time>
      </trkpt>
      <trkpt lat="43.29846" lon="6.5521">
        <ele>159.8</ele>
        <time>2022-02-04T16:53:23Z</time>
      </trkpt>
      <trkpt lat="43.29846" lon="6.5521">
        <ele>159.4</ele>
        <time>2022-02-04T16:53:24Z</time>
      </trkpt>
      <trkpt lat="43.29846" lon="6.5521">
        <ele>159.2</ele>
        <time>2022-02-04T16:53:25Z</time>
      </trkpt>
      <trkpt lat="43.29846" lon="6.55211">
        <ele>159</ele>
        <time>2022-02-04T16:53:26Z</time>
      </trkpt>
      <trkpt lat="43.29846" lon="6.55211">
        <ele>159</ele>
        <time>2022-02-04T16:53:27Z</time>
      </trkpt>
      <trkpt lat="43.29845" lon="6.55211">
        <ele>159</ele>
        <time>2022-02-04T16:53:28Z</time>
      </trkpt>
      <trkpt lat="43.29844" lon="6.55211">
        <ele>159</ele>
        <time>2022-02-04T16:53:29Z</time>
      </trkpt>
      <trkpt lat="43.29844" lon="6.55211">
        <ele>159</ele>
        <time>2022-02-04T16:53:30Z</time>
      </trkpt>
      <trkpt lat="43.29844" lon="6.5521">
        <ele>159</ele>
        <time>2022-02-04T16:53:31Z</time>
      </trkpt>
      <trkpt lat="43.29844" lon="6.5521">
        <ele>159</ele>
        <time>2022-02-04T16:53:32Z</time>
      </trkpt>
      <trkpt lat="43.29844" lon="6.5521">
        <ele>158.8</ele>
        <time>2022-02-04T16:53:33Z</time>
      </trkpt>
      <trkpt lat="43.29844" lon="6.55209">
        <ele>158.8</ele>
        <time>2022-02-04T16:53:34Z</time>
      </trkpt>
      <trkpt lat="43.29842" lon="6.55208">
        <ele>158.8</ele>
        <time>2022-02-04T16:53:35Z</time>
      </trkpt>
      <trkpt lat="43.29839" lon="6.55208">
        <ele>158.8</ele>
        <time>2022-02-04T16:53:36Z</time>
      </trkpt>
      <trkpt lat="43.29837" lon="6.55209">
        <ele>157.8</ele>
        <time>2022-02-04T16:53:37Z</time>
      </trkpt>
      <trkpt lat="43.29834" lon="6.5521">
        <ele>156.6</ele>
        <time>2022-02-04T16:53:38Z</time>
      </trkpt>
      <trkpt lat="43.29831" lon="6.55212">
        <ele>155.4</ele>
        <time>2022-02-04T16:53:39Z</time>
      </trkpt>
      <trkpt lat="43.29829" lon="6.55214">
        <ele>154.2</ele>
        <time>2022-02-04T16:53:40Z</time>
      </trkpt>
      <trkpt lat="43.29826" lon="6.55215">
        <ele>153.4</ele>
        <time>2022-02-04T16:53:41Z</time>
      </trkpt>
      <trkpt lat="43.29824" lon="6.55215">
        <ele>152.8</ele>
        <time>2022-02-04T16:53:42Z</time>
      </trkpt>
      <trkpt lat="43.29822" lon="6.55213">
        <ele>152.6</ele>
        <time>2022-02-04T16:53:43Z</time>
      </trkpt>
      <trkpt lat="43.2982" lon="6.55212">
        <ele>152.2</ele>
        <time>2022-02-04T16:53:44Z</time>
      </trkpt>
      <trkpt lat="43.29816" lon="6.55212">
        <ele>151.4</ele>
        <time>2022-02-04T16:53:45Z</time>
      </trkpt>
      <trkpt lat="43.29812" lon="6.55211">
        <ele>150.4</ele>
        <time>2022-02-04T16:53:46Z</time>
      </trkpt>
      <trkpt lat="43.2981" lon="6.5521">
        <ele>149.2</ele>
        <time>2022-02-04T16:53:47Z</time>
      </trkpt>
      <trkpt lat="43.29808" lon="6.55208">
        <ele>147.4</ele>
        <time>2022-02-04T16:53:48Z</time>
      </trkpt>
      <trkpt lat="43.29808" lon="6.55206">
        <ele>146.4</ele>
        <time>2022-02-04T16:53:49Z</time>
      </trkpt>
      <trkpt lat="43.29807" lon="6.55204">
        <ele>145.6</ele>
        <time>2022-02-04T16:53:50Z</time>
      </trkpt>
      <trkpt lat="43.29807" lon="6.55203">
        <ele>144.8</ele>
        <time>2022-02-04T16:53:51Z</time>
      </trkpt>
      <trkpt lat="43.29806" lon="6.552">
        <ele>144.2</ele>
        <time>2022-02-04T16:53:52Z</time>
      </trkpt>
      <trkpt lat="43.29805" lon="6.55197">
        <ele>143.6</ele>
        <time>2022-02-04T16:53:53Z</time>
      </trkpt>
      <trkpt lat="43.29804" lon="6.55195">
        <ele>142.8</ele>
        <time>2022-02-04T16:53:54Z</time>
      </trkpt>
      <trkpt lat="43.29801" lon="6.55193">
        <ele>142</ele>
        <time>2022-02-04T16:53:55Z</time>
      </trkpt>
      <trkpt lat="43.29799" lon="6.55192">
        <ele>140.8</ele>
        <time>2022-02-04T16:53:56Z</time>
      </trkpt>
      <trkpt lat="43.29796" lon="6.55192">
        <ele>139.8</ele>
        <time>2022-02-04T16:53:57Z</time>
      </trkpt>
      <trkpt lat="43.29791" lon="6.55193">
        <ele>139</ele>
        <time>2022-02-04T16:53:58Z</time>
      </trkpt>
      <trkpt lat="43.29786" lon="6.55194">
        <ele>138.6</ele>
        <time>2022-02-04T16:53:59Z</time>
      </trkpt>
      <trkpt lat="43.29781" lon="6.55195">
        <ele>136.6</ele>
        <time>2022-02-04T16:54:00Z</time>
      </trkpt>
      <trkpt lat="43.29779" lon="6.55197">
        <ele>135.2</ele>
        <time>2022-02-04T16:54:01Z</time>
      </trkpt>
      <trkpt lat="43.29777" lon="6.552">
        <ele>134.6</ele>
        <time>2022-02-04T16:54:02Z</time>
      </trkpt>
      <trkpt lat="43.29776" lon="6.55202">
        <ele>134</ele>
        <time>2022-02-04T16:54:03Z</time>
      </trkpt>
      <trkpt lat="43.29773" lon="6.55205">
        <ele>133.8</ele>
        <time>2022-02-04T16:54:04Z</time>
      </trkpt>
      <trkpt lat="43.2977" lon="6.55208">
        <ele>133.2</ele>
        <time>2022-02-04T16:54:05Z</time>
      </trkpt>
      <trkpt lat="43.29768" lon="6.55213">
        <ele>132.4</ele>
        <time>2022-02-04T16:54:06Z</time>
      </trkpt>
      <trkpt lat="43.29766" lon="6.55217">
        <ele>131.4</ele>
        <time>2022-02-04T16:54:07Z</time>
      </trkpt>
      <trkpt lat="43.29763" lon="6.55221">
        <ele>130.2</ele>
        <time>2022-02-04T16:54:08Z</time>
      </trkpt>
      <trkpt lat="43.29761" lon="6.55228">
        <ele>129.6</ele>
        <time>2022-02-04T16:54:09Z</time>
      </trkpt>
      <trkpt lat="43.29758" lon="6.55233">
        <ele>128.4</ele>
        <time>2022-02-04T16:54:10Z</time>
      </trkpt>
      <trkpt lat="43.29756" lon="6.55238">
        <ele>127.6</ele>
        <time>2022-02-04T16:54:11Z</time>
      </trkpt>
      <trkpt lat="43.29754" lon="6.55243">
        <ele>126.4</ele>
        <time>2022-02-04T16:54:12Z</time>
      </trkpt>
      <trkpt lat="43.29752" lon="6.5525">
        <ele>125.6</ele>
        <time>2022-02-04T16:54:13Z</time>
      </trkpt>
      <trkpt lat="43.2975" lon="6.55257">
        <ele>124.2</ele>
        <time>2022-02-04T16:54:14Z</time>
      </trkpt>
      <trkpt lat="43.29751" lon="6.55265">
        <ele>123.4</ele>
        <time>2022-02-04T16:54:15Z</time>
      </trkpt>
      <trkpt lat="43.29751" lon="6.55275">
        <ele>122.6</ele>
        <time>2022-02-04T16:54:16Z</time>
      </trkpt>
      <trkpt lat="43.29751" lon="6.55283">
        <ele>121.8</ele>
        <time>2022-02-04T16:54:17Z</time>
      </trkpt>
      <trkpt lat="43.29749" lon="6.55292">
        <ele>121.2</ele>
        <time>2022-02-04T16:54:18Z</time>
      </trkpt>
      <trkpt lat="43.29747" lon="6.55302">
        <ele>120.2</ele>
        <time>2022-02-04T16:54:19Z</time>
      </trkpt>
      <trkpt lat="43.29745" lon="6.55312">
        <ele>118.2</ele>
        <time>2022-02-04T16:54:20Z</time>
      </trkpt>
      <trkpt lat="43.29744" lon="6.55322">
        <ele>116.8</ele>
        <time>2022-02-04T16:54:21Z</time>
      </trkpt>
      <trkpt lat="43.29743" lon="6.55333">
        <ele>115.6</ele>
        <time>2022-02-04T16:54:22Z</time>
      </trkpt>
      <trkpt lat="43.29742" lon="6.55343">
        <ele>114.8</ele>
        <time>2022-02-04T16:54:23Z</time>
      </trkpt>
      <trkpt lat="43.2974" lon="6.55355">
        <ele>113.6</ele>
        <time>2022-02-04T16:54:24Z</time>
      </trkpt>
      <trkpt lat="43.29739" lon="6.55366">
        <ele>113</ele>
        <time>2022-02-04T16:54:25Z</time>
      </trkpt>
      <trkpt lat="43.29738" lon="6.55377">
        <ele>112.4</ele>
        <time>2022-02-04T16:54:26Z</time>
      </trkpt>
      <trkpt lat="43.29737" lon="6.55386">
        <ele>111.8</ele>
        <time>2022-02-04T16:54:27Z</time>
      </trkpt>
      <trkpt lat="43.29737" lon="6.55391">
        <ele>110.2</ele>
        <time>2022-02-04T16:54:28Z</time>
      </trkpt>
      <trkpt lat="43.29737" lon="6.55396">
        <ele>109.2</ele>
        <time>2022-02-04T16:54:29Z</time>
      </trkpt>
      <trkpt lat="43.29737" lon="6.55401">
        <ele>108.4</ele>
        <time>2022-02-04T16:54:30Z</time>
      </trkpt>
      <trkpt lat="43.29737" lon="6.55405">
        <ele>107.8</ele>
        <time>2022-02-04T16:54:31Z</time>
      </trkpt>
      <trkpt lat="43.29734" lon="6.5541">
        <ele>107.6</ele>
        <time>2022-02-04T16:54:32Z</time>
      </trkpt>
      <trkpt lat="43.29732" lon="6.55416">
        <ele>107.4</ele>
        <time>2022-02-04T16:54:33Z</time>
      </trkpt>
      <trkpt lat="43.29732" lon="6.55423">
        <ele>106.8</ele>
        <time>2022-02-04T16:54:34Z</time>
      </trkpt>
      <trkpt lat="43.29731" lon="6.55431">
        <ele>106.4</ele>
        <time>2022-02-04T16:54:35Z</time>
      </trkpt>
      <trkpt lat="43.2973" lon="6.55439">
        <ele>106.2</ele>
        <time>2022-02-04T16:54:36Z</time>
      </trkpt>
      <trkpt lat="43.29728" lon="6.55447">
        <ele>106.2</ele>
        <time>2022-02-04T16:54:37Z</time>
      </trkpt>
      <trkpt lat="43.29726" lon="6.55455">
        <ele>106.2</ele>
        <time>2022-02-04T16:54:38Z</time>
      </trkpt>
      <trkpt lat="43.29724" lon="6.55462">
        <ele>106</ele>
        <time>2022-02-04T16:54:39Z</time>
      </trkpt>
      <trkpt lat="43.29723" lon="6.5547">
        <ele>106</ele>
        <time>2022-02-04T16:54:40Z</time>
      </trkpt>
      <trkpt lat="43.29722" lon="6.55479">
        <ele>105.8</ele>
        <time>2022-02-04T16:54:41Z</time>
      </trkpt>
      <trkpt lat="43.29721" lon="6.55488">
        <ele>104.8</ele>
        <time>2022-02-04T16:54:42Z</time>
      </trkpt>
      <trkpt lat="43.29722" lon="6.55498">
        <ele>104.2</ele>
        <time>2022-02-04T16:54:43Z</time>
      </trkpt>
      <trkpt lat="43.29724" lon="6.55506">
        <ele>103.2</ele>
        <time>2022-02-04T16:54:44Z</time>
      </trkpt>
      <trkpt lat="43.29726" lon="6.55514">
        <ele>102.4</ele>
        <time>2022-02-04T16:54:45Z</time>
      </trkpt>
      <trkpt lat="43.29729" lon="6.55522">
        <ele>101.8</ele>
        <time>2022-02-04T16:54:46Z</time>
      </trkpt>
      <trkpt lat="43.29732" lon="6.55528">
        <ele>101.4</ele>
        <time>2022-02-04T16:54:47Z</time>
      </trkpt>
      <trkpt lat="43.29734" lon="6.55533">
        <ele>101.2</ele>
        <time>2022-02-04T16:54:48Z</time>
      </trkpt>
      <trkpt lat="43.29735" lon="6.55539">
        <ele>101</ele>
        <time>2022-02-04T16:54:49Z</time>
      </trkpt>
      <trkpt lat="43.29734" lon="6.55545">
        <ele>100.6</ele>
        <time>2022-02-04T16:54:50Z</time>
      </trkpt>
      <trkpt lat="43.29733" lon="6.55552">
        <ele>99.8</ele>
        <time>2022-02-04T16:54:51Z</time>
      </trkpt>
      <trkpt lat="43.29732" lon="6.55561">
        <ele>99.2</ele>
        <time>2022-02-04T16:54:52Z</time>
      </trkpt>
      <trkpt lat="43.29731" lon="6.55569">
        <ele>99</ele>
        <time>2022-02-04T16:54:53Z</time>
      </trkpt>
      <trkpt lat="43.2973" lon="6.55577">
        <ele>99</ele>
        <time>2022-02-04T16:54:54Z</time>
      </trkpt>
      <trkpt lat="43.29728" lon="6.55585">
        <ele>98</ele>
        <time>2022-02-04T16:54:55Z</time>
      </trkpt>
      <trkpt lat="43.29727" lon="6.55594">
        <ele>97.6</ele>
        <time>2022-02-04T16:54:56Z</time>
      </trkpt>
      <trkpt lat="43.29726" lon="6.55604">
        <ele>97.8</ele>
        <time>2022-02-04T16:54:57Z</time>
      </trkpt>
      <trkpt lat="43.29725" lon="6.55614">
        <ele>97.4</ele>
        <time>2022-02-04T16:54:58Z</time>
      </trkpt>
      <trkpt lat="43.29724" lon="6.55625">
        <ele>97</ele>
        <time>2022-02-04T16:54:59Z</time>
      </trkpt>
      <trkpt lat="43.29722" lon="6.55635">
        <ele>96.2</ele>
        <time>2022-02-04T16:55:00Z</time>
      </trkpt>
      <trkpt lat="43.2972" lon="6.55646">
        <ele>95.8</ele>
        <time>2022-02-04T16:55:01Z</time>
      </trkpt>
      <trkpt lat="43.29718" lon="6.55656">
        <ele>95.4</ele>
        <time>2022-02-04T16:55:02Z</time>
      </trkpt>
      <trkpt lat="43.29717" lon="6.55664">
        <ele>95.2</ele>
        <time>2022-02-04T16:55:03Z</time>
      </trkpt>
      <trkpt lat="43.29716" lon="6.5567">
        <ele>95.2</ele>
        <time>2022-02-04T16:55:04Z</time>
      </trkpt>
      <trkpt lat="43.29715" lon="6.55673">
        <ele>95</ele>
        <time>2022-02-04T16:55:05Z</time>
      </trkpt>
      <trkpt lat="43.29715" lon="6.55674">
        <ele>95</ele>
        <time>2022-02-04T16:55:06Z</time>
      </trkpt>
      <trkpt lat="43.29715" lon="6.55674">
        <ele>95</ele>
        <time>2022-02-04T16:55:07Z</time>
      </trkpt>
      <trkpt lat="43.29714" lon="6.55674">
        <ele>95</ele>
        <time>2022-02-04T16:55:08Z</time>
      </trkpt>
      <trkpt lat="43.29714" lon="6.55674">
        <ele>95</ele>
        <time>2022-02-04T16:55:09Z</time>
      </trkpt>
      <trkpt lat="43.29714" lon="6.55674">
        <ele>95</ele>
        <time>2022-02-04T16:55:10Z</time>
      </trkpt>
      <trkpt lat="43.29714" lon="6.55674">
        <ele>95</ele>
        <time>2022-02-04T16:55:11Z</time>
      </trkpt>
      <trkpt lat="43.29714" lon="6.55674">
        <ele>95</ele>
        <time>2022-02-04T16:55:12Z</time>
      </trkpt>
      <trkpt lat="43.29714" lon="6.55674">
        <ele>95</ele>
        <time>2022-02-04T16:55:13Z</time>
      </trkpt>
      <trkpt lat="43.29714" lon="6.55674">
        <ele>95</ele>
        <time>2022-02-04T16:55:14Z</time>
      </trkpt>
      <trkpt lat="43.29714" lon="6.55674">
        <ele>95</ele>
        <time>2022-02-04T16:55:15Z</time>
      </trkpt>
      <trkpt lat="43.29714" lon="6.55674">
        <ele>94.8</ele>
        <time>2022-02-04T16:55:16Z</time>
      </trkpt>
      <trkpt lat="43.29714" lon="6.55674">
        <ele>94.8</ele>
        <time>2022-02-04T16:55:17Z</time>
      </trkpt>
      <trkpt lat="43.29714" lon="6.55674">
        <ele>94.8</ele>
        <time>2022-02-04T16:55:18Z</time>
      </trkpt>
      <trkpt lat="43.29714" lon="6.55674">
        <ele>94.8</ele>
        <time>2022-02-04T16:55:19Z</time>
      </trkpt>
      <trkpt lat="43.29714" lon="6.55674">
        <ele>94.8</ele>
        <time>2022-02-04T16:55:20Z</time>
      </trkpt>
      <trkpt lat="43.29714" lon="6.55674">
        <ele>94.8</ele>
        <time>2022-02-04T16:55:21Z</time>
      </trkpt>
      <trkpt lat="43.29714" lon="6.55674">
        <ele>94.8</ele>
        <time>2022-02-04T16:55:22Z</time>
      </trkpt>
      <trkpt lat="43.29714" lon="6.55674">
        <ele>94.8</ele>
        <time>2022-02-04T16:55:23Z</time>
      </trkpt>
      <trkpt lat="43.29714" lon="6.55674">
        <ele>94.8</ele>
        <time>2022-02-04T16:55:24Z</time>
      </trkpt>
      <trkpt lat="43.29714" lon="6.55674">
        <ele>94.6</ele>
        <time>2022-02-04T16:55:25Z</time>
      </trkpt>
      <trkpt lat="43.29714" lon="6.55674">
        <ele>94.6</ele>
        <time>2022-02-04T16:55:26Z</time>
      </trkpt>
      <trkpt lat="43.29714" lon="6.55674">
        <ele>94.6</ele>
        <time>2022-02-04T16:55:27Z</time>
      </trkpt>
      <trkpt lat="43.29714" lon="6.55674">
        <ele>94.4</ele>
        <time>2022-02-04T16:55:28Z</time>
      </trkpt>
      <trkpt lat="43.29714" lon="6.55674">
        <ele>94.4</ele>
        <time>2022-02-04T16:55:29Z</time>
      </trkpt>
      <trkpt lat="43.29714" lon="6.55674">
        <ele>94.4</ele>
        <time>2022-02-04T16:55:30Z</time>
      </trkpt>
      <trkpt lat="43.29714" lon="6.55674">
        <ele>94.4</ele>
        <time>2022-02-04T16:55:31Z</time>
      </trkpt>
      <trkpt lat="43.29714" lon="6.55674">
        <ele>94.4</ele>
        <time>2022-02-04T16:55:32Z</time>
      </trkpt>
      <trkpt lat="43.29714" lon="6.55674">
        <ele>94.4</ele>
        <time>2022-02-04T16:55:33Z</time>
      </trkpt>
      <trkpt lat="43.29714" lon="6.55674">
        <ele>94.4</ele>
        <time>2022-02-04T16:55:34Z</time>
      </trkpt>
      <trkpt lat="43.29714" lon="6.55674">
        <ele>94.4</ele>
        <time>2022-02-04T16:55:35Z</time>
      </trkpt>
      <trkpt lat="43.29714" lon="6.55674">
        <ele>94.6</ele>
        <time>2022-02-04T16:55:36Z</time>
      </trkpt>
      <trkpt lat="43.29714" lon="6.55674">
        <ele>94.6</ele>
        <time>2022-02-04T16:55:37Z</time>
      </trkpt>
      <trkpt lat="43.29714" lon="6.55674">
        <ele>94.6</ele>
        <time>2022-02-04T16:55:38Z</time>
      </trkpt>
      <trkpt lat="43.29714" lon="6.55674">
        <ele>94.6</ele>
        <time>2022-02-04T16:55:39Z</time>
      </trkpt>
      <trkpt lat="43.29714" lon="6.55674">
        <ele>94.6</ele>
        <time>2022-02-04T16:55:40Z</time>
      </trkpt>
      <trkpt lat="43.29714" lon="6.55674">
        <ele>94.4</ele>
        <time>2022-02-04T16:55:41Z</time>
      </trkpt>
      <trkpt lat="43.29714" lon="6.55674">
        <ele>94.2</ele>
        <time>2022-02-04T16:55:42Z</time>
      </trkpt>
      <trkpt lat="43.29714" lon="6.55674">
        <ele>94</ele>
        <time>2022-02-04T16:55:43Z</time>
      </trkpt>
      <trkpt lat="43.29714" lon="6.55674">
        <ele>94</ele>
        <time>2022-02-04T16:55:44Z</time>
      </trkpt>
      <trkpt lat="43.29714" lon="6.55674">
        <ele>94</ele>
        <time>2022-02-04T16:55:45Z</time>
      </trkpt>
      <trkpt lat="43.29714" lon="6.55674">
        <ele>94</ele>
        <time>2022-02-04T16:55:46Z</time>
      </trkpt>
      <trkpt lat="43.29714" lon="6.55674">
        <ele>94</ele>
        <time>2022-02-04T16:55:47Z</time>
      </trkpt>
      <trkpt lat="43.29714" lon="6.55674">
        <ele>94</ele>
        <time>2022-02-04T16:55:48Z</time>
      </trkpt>
      <trkpt lat="43.29714" lon="6.55674">
        <ele>94</ele>
        <time>2022-02-04T16:55:49Z</time>
      </trkpt>
      <trkpt lat="43.29714" lon="6.55674">
        <ele>94</ele>
        <time>2022-02-04T16:55:50Z</time>
      </trkpt>
      <trkpt lat="43.29714" lon="6.55674">
        <ele>94</ele>
        <time>2022-02-04T16:55:51Z</time>
      </trkpt>
      <trkpt lat="43.29715" lon="6.55674">
        <ele>93.8</ele>
        <time>2022-02-04T16:55:52Z</time>
      </trkpt>
      <trkpt lat="43.29715" lon="6.55674">
        <ele>93.8</ele>
        <time>2022-02-04T16:55:53Z</time>
      </trkpt>
      <trkpt lat="43.29715" lon="6.55674">
        <ele>93.8</ele>
        <time>2022-02-04T16:55:54Z</time>
      </trkpt>
      <trkpt lat="43.29715" lon="6.55674">
        <ele>93.8</ele>
        <time>2022-02-04T16:55:55Z</time>
      </trkpt>
      <trkpt lat="43.29716" lon="6.55671">
        <ele>93.6</ele>
        <time>2022-02-04T16:55:56Z</time>
      </trkpt>
      <trkpt lat="43.29718" lon="6.55668">
        <ele>93.6</ele>
        <time>2022-02-04T16:55:57Z</time>
      </trkpt>
      <trkpt lat="43.29719" lon="6.55664">
        <ele>93.6</ele>
        <time>2022-02-04T16:55:58Z</time>
      </trkpt>
      <trkpt lat="43.29721" lon="6.5566">
        <ele>93.6</ele>
        <time>2022-02-04T16:55:59Z</time>
      </trkpt>
      <trkpt lat="43.29722" lon="6.55656">
        <ele>93.6</ele>
        <time>2022-02-04T16:56:00Z</time>
      </trkpt>
      <trkpt lat="43.29724" lon="6.55652">
        <ele>93.6</ele>
        <time>2022-02-04T16:56:01Z</time>
      </trkpt>
      <trkpt lat="43.29726" lon="6.55647">
        <ele>93.8</ele>
        <time>2022-02-04T16:56:02Z</time>
      </trkpt>
      <trkpt lat="43.29727" lon="6.55643">
        <ele>94.2</ele>
        <time>2022-02-04T16:56:03Z</time>
      </trkpt>
      <trkpt lat="43.29729" lon="6.55639">
        <ele>94.4</ele>
        <time>2022-02-04T16:56:04Z</time>
      </trkpt>
      <trkpt lat="43.29729" lon="6.55637">
        <ele>94.8</ele>
        <time>2022-02-04T16:56:05Z</time>
      </trkpt>
      <trkpt lat="43.29731" lon="6.55633">
        <ele>95.2</ele>
        <time>2022-02-04T16:56:06Z</time>
      </trkpt>
      <trkpt lat="43.29732" lon="6.55629">
        <ele>95.6</ele>
        <time>2022-02-04T16:56:07Z</time>
      </trkpt>
      <trkpt lat="43.29733" lon="6.55625">
        <ele>95.8</ele>
        <time>2022-02-04T16:56:08Z</time>
      </trkpt>
      <trkpt lat="43.29734" lon="6.55622">
        <ele>96.2</ele>
        <time>2022-02-04T16:56:09Z</time>
      </trkpt>
      <trkpt lat="43.29735" lon="6.55618">
        <ele>96.8</ele>
        <time>2022-02-04T16:56:10Z</time>
      </trkpt>
      <trkpt lat="43.29736" lon="6.55614">
        <ele>97.2</ele>
        <time>2022-02-04T16:56:11Z</time>
      </trkpt>
      <trkpt lat="43.29737" lon="6.55609">
        <ele>97.4</ele>
        <time>2022-02-04T16:56:12Z</time>
      </trkpt>
      <trkpt lat="43.29738" lon="6.55605">
        <ele>97.6</ele>
        <time>2022-02-04T16:56:13Z</time>
      </trkpt>
      <trkpt lat="43.29739" lon="6.55601">
        <ele>97.8</ele>
        <time>2022-02-04T16:56:14Z</time>
      </trkpt>
      <trkpt lat="43.2974" lon="6.55596">
        <ele>98</ele>
        <time>2022-02-04T16:56:15Z</time>
      </trkpt>
      <trkpt lat="43.2974" lon="6.55593">
        <ele>98</ele>
        <time>2022-02-04T16:56:16Z</time>
      </trkpt>
      <trkpt lat="43.29741" lon="6.55588">
        <ele>98.6</ele>
        <time>2022-02-04T16:56:17Z</time>
      </trkpt>
      <trkpt lat="43.29742" lon="6.55583">
        <ele>99</ele>
        <time>2022-02-04T16:56:18Z</time>
      </trkpt>
      <trkpt lat="43.29743" lon="6.55578">
        <ele>99.2</ele>
        <time>2022-02-04T16:56:19Z</time>
      </trkpt>
      <trkpt lat="43.29744" lon="6.55575">
        <ele>99.6</ele>
        <time>2022-02-04T16:56:20Z</time>
      </trkpt>
      <trkpt lat="43.29744" lon="6.5557">
        <ele>99.8</ele>
        <time>2022-02-04T16:56:21Z</time>
      </trkpt>
      <trkpt lat="43.29745" lon="6.55566">
        <ele>100</ele>
        <time>2022-02-04T16:56:22Z</time>
      </trkpt>
      <trkpt lat="43.29746" lon="6.55562">
        <ele>100.2</ele>
        <time>2022-02-04T16:56:23Z</time>
      </trkpt>
      <trkpt lat="43.29746" lon="6.55558">
        <ele>101</ele>
        <time>2022-02-04T16:56:24Z</time>
      </trkpt>
      <trkpt lat="43.29746" lon="6.55554">
        <ele>101.4</ele>
        <time>2022-02-04T16:56:25Z</time>
      </trkpt>
      <trkpt lat="43.29747" lon="6.5555">
        <ele>102</ele>
        <time>2022-02-04T16:56:26Z</time>
      </trkpt>
      <trkpt lat="43.29747" lon="6.55545">
        <ele>102.4</ele>
        <time>2022-02-04T16:56:27Z</time>
      </trkpt>
      <trkpt lat="43.29746" lon="6.5554">
        <ele>102.6</ele>
        <time>2022-02-04T16:56:28Z</time>
      </trkpt>
      <trkpt lat="43.29746" lon="6.55536">
        <ele>102.8</ele>
        <time>2022-02-04T16:56:29Z</time>
      </trkpt>
      <trkpt lat="43.29746" lon="6.55533">
        <ele>103.6</ele>
        <time>2022-02-04T16:56:30Z</time>
      </trkpt>
      <trkpt lat="43.29745" lon="6.55529">
        <ele>105.4</ele>
        <time>2022-02-04T16:56:31Z</time>
      </trkpt>
      <trkpt lat="43.29745" lon="6.55524">
        <ele>105.4</ele>
        <time>2022-02-04T16:56:32Z</time>
      </trkpt>
      <trkpt lat="43.29744" lon="6.55519">
        <ele>105.4</ele>
        <time>2022-02-04T16:56:33Z</time>
      </trkpt>
      <trkpt lat="43.29744" lon="6.55516">
        <ele>105.2</ele>
        <time>2022-02-04T16:56:34Z</time>
      </trkpt>
      <trkpt lat="43.29743" lon="6.5551">
        <ele>105.2</ele>
        <time>2022-02-04T16:56:35Z</time>
      </trkpt>
      <trkpt lat="43.29742" lon="6.55507">
        <ele>105.2</ele>
        <time>2022-02-04T16:56:36Z</time>
      </trkpt>
      <trkpt lat="43.29742" lon="6.55502">
        <ele>105.2</ele>
        <time>2022-02-04T16:56:37Z</time>
      </trkpt>
      <trkpt lat="43.29741" lon="6.55498">
        <ele>105.8</ele>
        <time>2022-02-04T16:56:38Z</time>
      </trkpt>
      <trkpt lat="43.29741" lon="6.55493">
        <ele>106.4</ele>
        <time>2022-02-04T16:56:39Z</time>
      </trkpt>
      <trkpt lat="43.2974" lon="6.55489">
        <ele>106.8</ele>
        <time>2022-02-04T16:56:40Z</time>
      </trkpt>
      <trkpt lat="43.2974" lon="6.55483">
        <ele>107.2</ele>
        <time>2022-02-04T16:56:41Z</time>
      </trkpt>
      <trkpt lat="43.2974" lon="6.55479">
        <ele>107.2</ele>
        <time>2022-02-04T16:56:42Z</time>
      </trkpt>
      <trkpt lat="43.2974" lon="6.55475">
        <ele>108</ele>
        <time>2022-02-04T16:56:43Z</time>
      </trkpt>
      <trkpt lat="43.2974" lon="6.55471">
        <ele>108.4</ele>
        <time>2022-02-04T16:56:44Z</time>
      </trkpt>
      <trkpt lat="43.2974" lon="6.55466">
        <ele>109</ele>
        <time>2022-02-04T16:56:45Z</time>
      </trkpt>
      <trkpt lat="43.29741" lon="6.55461">
        <ele>109.6</ele>
        <time>2022-02-04T16:56:46Z</time>
      </trkpt>
      <trkpt lat="43.29742" lon="6.55457">
        <ele>110.2</ele>
        <time>2022-02-04T16:56:47Z</time>
      </trkpt>
      <trkpt lat="43.29743" lon="6.55452">
        <ele>110.6</ele>
        <time>2022-02-04T16:56:48Z</time>
      </trkpt>
      <trkpt lat="43.29745" lon="6.55448">
        <ele>111</ele>
        <time>2022-02-04T16:56:49Z</time>
      </trkpt>
      <trkpt lat="43.29746" lon="6.55444">
        <ele>111.2</ele>
        <time>2022-02-04T16:56:50Z</time>
      </trkpt>
      <trkpt lat="43.29747" lon="6.5544">
        <ele>111.8</ele>
        <time>2022-02-04T16:56:51Z</time>
      </trkpt>
      <trkpt lat="43.29749" lon="6.55435">
        <ele>112.4</ele>
        <time>2022-02-04T16:56:52Z</time>
      </trkpt>
      <trkpt lat="43.29751" lon="6.55431">
        <ele>112.8</ele>
        <time>2022-02-04T16:56:53Z</time>
      </trkpt>
      <trkpt lat="43.29753" lon="6.55427">
        <ele>113</ele>
        <time>2022-02-04T16:56:54Z</time>
      </trkpt>
      <trkpt lat="43.29754" lon="6.55424">
        <ele>113.2</ele>
        <time>2022-02-04T16:56:55Z</time>
      </trkpt>
      <trkpt lat="43.29756" lon="6.5542">
        <ele>113.4</ele>
        <time>2022-02-04T16:56:56Z</time>
      </trkpt>
      <trkpt lat="43.29758" lon="6.55415">
        <ele>113.6</ele>
        <time>2022-02-04T16:56:57Z</time>
      </trkpt>
      <trkpt lat="43.2976" lon="6.55411">
        <ele>113.6</ele>
        <time>2022-02-04T16:56:58Z</time>
      </trkpt>
      <trkpt lat="43.29762" lon="6.55408">
        <ele>113.8</ele>
        <time>2022-02-04T16:56:59Z</time>
      </trkpt>
      <trkpt lat="43.29764" lon="6.55405">
        <ele>114.2</ele>
        <time>2022-02-04T16:57:00Z</time>
      </trkpt>
      <trkpt lat="43.29766" lon="6.55401">
        <ele>114.4</ele>
        <time>2022-02-04T16:57:01Z</time>
      </trkpt>
      <trkpt lat="43.29768" lon="6.55397">
        <ele>114.6</ele>
        <time>2022-02-04T16:57:02Z</time>
      </trkpt>
      <trkpt lat="43.2977" lon="6.55393">
        <ele>114.8</ele>
        <time>2022-02-04T16:57:03Z</time>
      </trkpt>
      <trkpt lat="43.29771" lon="6.55389">
        <ele>115.2</ele>
        <time>2022-02-04T16:57:04Z</time>
      </trkpt>
      <trkpt lat="43.29772" lon="6.55385">
        <ele>115.4</ele>
        <time>2022-02-04T16:57:05Z</time>
      </trkpt>
      <trkpt lat="43.29773" lon="6.55381">
        <ele>116</ele>
        <time>2022-02-04T16:57:06Z</time>
      </trkpt>
      <trkpt lat="43.29774" lon="6.55375">
        <ele>116.2</ele>
        <time>2022-02-04T16:57:07Z</time>
      </trkpt>
      <trkpt lat="43.29774" lon="6.55372">
        <ele>116.6</ele>
        <time>2022-02-04T16:57:08Z</time>
      </trkpt>
      <trkpt lat="43.29775" lon="6.55366">
        <ele>116.6</ele>
        <time>2022-02-04T16:57:09Z</time>
      </trkpt>
      <trkpt lat="43.29776" lon="6.55362">
        <ele>116.8</ele>
        <time>2022-02-04T16:57:10Z</time>
      </trkpt>
      <trkpt lat="43.29777" lon="6.55359">
        <ele>117</ele>
        <time>2022-02-04T16:57:11Z</time>
      </trkpt>
      <trkpt lat="43.29779" lon="6.55355">
        <ele>117.2</ele>
        <time>2022-02-04T16:57:12Z</time>
      </trkpt>
      <trkpt lat="43.29782" lon="6.55352">
        <ele>117.6</ele>
        <time>2022-02-04T16:57:13Z</time>
      </trkpt>
      <trkpt lat="43.29784" lon="6.5535">
        <ele>117.8</ele>
        <time>2022-02-04T16:57:14Z</time>
      </trkpt>
      <trkpt lat="43.29787" lon="6.55349">
        <ele>118.2</ele>
        <time>2022-02-04T16:57:15Z</time>
      </trkpt>
      <trkpt lat="43.2979" lon="6.5535">
        <ele>118.8</ele>
        <time>2022-02-04T16:57:16Z</time>
      </trkpt>
      <trkpt lat="43.29794" lon="6.55352">
        <ele>119.4</ele>
        <time>2022-02-04T16:57:17Z</time>
      </trkpt>
      <trkpt lat="43.29796" lon="6.55355">
        <ele>119.6</ele>
        <time>2022-02-04T16:57:18Z</time>
      </trkpt>
      <trkpt lat="43.29798" lon="6.55359">
        <ele>120</ele>
        <time>2022-02-04T16:57:19Z</time>
      </trkpt>
      <trkpt lat="43.29799" lon="6.55364">
        <ele>120.4</ele>
        <time>2022-02-04T16:57:20Z</time>
      </trkpt>
      <trkpt lat="43.29799" lon="6.55369">
        <ele>120.6</ele>
        <time>2022-02-04T16:57:21Z</time>
      </trkpt>
      <trkpt lat="43.29798" lon="6.55374">
        <ele>120.8</ele>
        <time>2022-02-04T16:57:22Z</time>
      </trkpt>
      <trkpt lat="43.29797" lon="6.5538">
        <ele>121.4</ele>
        <time>2022-02-04T16:57:23Z</time>
      </trkpt>
      <trkpt lat="43.29796" lon="6.55385">
        <ele>121.6</ele>
        <time>2022-02-04T16:57:24Z</time>
      </trkpt>
      <trkpt lat="43.29794" lon="6.55388">
        <ele>121.8</ele>
        <time>2022-02-04T16:57:25Z</time>
      </trkpt>
      <trkpt lat="43.29793" lon="6.55393">
        <ele>122</ele>
        <time>2022-02-04T16:57:26Z</time>
      </trkpt>
      <trkpt lat="43.2979" lon="6.55398">
        <ele>122.2</ele>
        <time>2022-02-04T16:57:27Z</time>
      </trkpt>
      <trkpt lat="43.29788" lon="6.55401">
        <ele>122.2</ele>
        <time>2022-02-04T16:57:28Z</time>
      </trkpt>
      <trkpt lat="43.29786" lon="6.55405">
        <ele>122.4</ele>
        <time>2022-02-04T16:57:29Z</time>
      </trkpt>
      <trkpt lat="43.29784" lon="6.55409">
        <ele>122.4</ele>
        <time>2022-02-04T16:57:30Z</time>
      </trkpt>
      <trkpt lat="43.29782" lon="6.55414">
        <ele>122.6</ele>
        <time>2022-02-04T16:57:31Z</time>
      </trkpt>
      <trkpt lat="43.29779" lon="6.55419">
        <ele>122.6</ele>
        <time>2022-02-04T16:57:32Z</time>
      </trkpt>
      <trkpt lat="43.29778" lon="6.55423">
        <ele>122.8</ele>
        <time>2022-02-04T16:57:33Z</time>
      </trkpt>
      <trkpt lat="43.29776" lon="6.55428">
        <ele>122.8</ele>
        <time>2022-02-04T16:57:34Z</time>
      </trkpt>
      <trkpt lat="43.29775" lon="6.55432">
        <ele>123</ele>
        <time>2022-02-04T16:57:35Z</time>
      </trkpt>
      <trkpt lat="43.29774" lon="6.55437">
        <ele>123.4</ele>
        <time>2022-02-04T16:57:36Z</time>
      </trkpt>
      <trkpt lat="43.29773" lon="6.55443">
        <ele>123.4</ele>
        <time>2022-02-04T16:57:37Z</time>
      </trkpt>
      <trkpt lat="43.29773" lon="6.55449">
        <ele>123.6</ele>
        <time>2022-02-04T16:57:38Z</time>
      </trkpt>
      <trkpt lat="43.29773" lon="6.55454">
        <ele>123.6</ele>
        <time>2022-02-04T16:57:39Z</time>
      </trkpt>
      <trkpt lat="43.29775" lon="6.55459">
        <ele>123.6</ele>
        <time>2022-02-04T16:57:40Z</time>
      </trkpt>
      <trkpt lat="43.29776" lon="6.55463">
        <ele>123.8</ele>
        <time>2022-02-04T16:57:41Z</time>
      </trkpt>
      <trkpt lat="43.29779" lon="6.55468">
        <ele>124</ele>
        <time>2022-02-04T16:57:42Z</time>
      </trkpt>
      <trkpt lat="43.29781" lon="6.5547">
        <ele>124</ele>
        <time>2022-02-04T16:57:43Z</time>
      </trkpt>
      <trkpt lat="43.29785" lon="6.55472">
        <ele>124.2</ele>
        <time>2022-02-04T16:57:44Z</time>
      </trkpt>
      <trkpt lat="43.29789" lon="6.55475">
        <ele>124.4</ele>
        <time>2022-02-04T16:57:45Z</time>
      </trkpt>
      <trkpt lat="43.29793" lon="6.55477">
        <ele>124.6</ele>
        <time>2022-02-04T16:57:46Z</time>
      </trkpt>
      <trkpt lat="43.29796" lon="6.5548">
        <ele>124.8</ele>
        <time>2022-02-04T16:57:47Z</time>
      </trkpt>
      <trkpt lat="43.29801" lon="6.55484">
        <ele>125</ele>
        <time>2022-02-04T16:57:48Z</time>
      </trkpt>
      <trkpt lat="43.29804" lon="6.55489">
        <ele>125</ele>
        <time>2022-02-04T16:57:49Z</time>
      </trkpt>
      <trkpt lat="43.29806" lon="6.55493">
        <ele>125.2</ele>
        <time>2022-02-04T16:57:50Z</time>
      </trkpt>
      <trkpt lat="43.29807" lon="6.55498">
        <ele>125.6</ele>
        <time>2022-02-04T16:57:51Z</time>
      </trkpt>
      <trkpt lat="43.29808" lon="6.55503">
        <ele>126</ele>
        <time>2022-02-04T16:57:52Z</time>
      </trkpt>
      <trkpt lat="43.29809" lon="6.5551">
        <ele>126.6</ele>
        <time>2022-02-04T16:57:53Z</time>
      </trkpt>
      <trkpt lat="43.29809" lon="6.55515">
        <ele>128.2</ele>
        <time>2022-02-04T16:57:54Z</time>
      </trkpt>
      <trkpt lat="43.2981" lon="6.55519">
        <ele>128.2</ele>
        <time>2022-02-04T16:57:55Z</time>
      </trkpt>
      <trkpt lat="43.2981" lon="6.55524">
        <ele>128.2</ele>
        <time>2022-02-04T16:57:56Z</time>
      </trkpt>
      <trkpt lat="43.29811" lon="6.5553">
        <ele>128.2</ele>
        <time>2022-02-04T16:57:57Z</time>
      </trkpt>
      <trkpt lat="43.29813" lon="6.55532">
        <ele>128.6</ele>
        <time>2022-02-04T16:57:58Z</time>
      </trkpt>
      <trkpt lat="43.29815" lon="6.55533">
        <ele>129</ele>
        <time>2022-02-04T16:57:59Z</time>
      </trkpt>
      <trkpt lat="43.29818" lon="6.55532">
        <ele>129.4</ele>
        <time>2022-02-04T16:58:00Z</time>
      </trkpt>
      <trkpt lat="43.29819" lon="6.55529">
        <ele>129.6</ele>
        <time>2022-02-04T16:58:01Z</time>
      </trkpt>
      <trkpt lat="43.2982" lon="6.55524">
        <ele>130</ele>
        <time>2022-02-04T16:58:02Z</time>
      </trkpt>
      <trkpt lat="43.29822" lon="6.55518">
        <ele>130.2</ele>
        <time>2022-02-04T16:58:03Z</time>
      </trkpt>
      <trkpt lat="43.29823" lon="6.55513">
        <ele>130.4</ele>
        <time>2022-02-04T16:58:04Z</time>
      </trkpt>
      <trkpt lat="43.29824" lon="6.55508">
        <ele>130.6</ele>
        <time>2022-02-04T16:58:05Z</time>
      </trkpt>
      <trkpt lat="43.29825" lon="6.55504">
        <ele>131</ele>
        <time>2022-02-04T16:58:06Z</time>
      </trkpt>
      <trkpt lat="43.29826" lon="6.55499">
        <ele>131.2</ele>
        <time>2022-02-04T16:58:07Z</time>
      </trkpt>
      <trkpt lat="43.29827" lon="6.55493">
        <ele>132</ele>
        <time>2022-02-04T16:58:08Z</time>
      </trkpt>
      <trkpt lat="43.29826" lon="6.55489">
        <ele>132.8</ele>
        <time>2022-02-04T16:58:09Z</time>
      </trkpt>
      <trkpt lat="43.29827" lon="6.55484">
        <ele>133.6</ele>
        <time>2022-02-04T16:58:10Z</time>
      </trkpt>
      <trkpt lat="43.29827" lon="6.55481">
        <ele>134.4</ele>
        <time>2022-02-04T16:58:11Z</time>
      </trkpt>
      <trkpt lat="43.29827" lon="6.55476">
        <ele>134.8</ele>
        <time>2022-02-04T16:58:12Z</time>
      </trkpt>
      <trkpt lat="43.29826" lon="6.5547">
        <ele>135.2</ele>
        <time>2022-02-04T16:58:13Z</time>
      </trkpt>
      <trkpt lat="43.29826" lon="6.55466">
        <ele>135.8</ele>
        <time>2022-02-04T16:58:14Z</time>
      </trkpt>
      <trkpt lat="43.29825" lon="6.5546">
        <ele>136</ele>
        <time>2022-02-04T16:58:15Z</time>
      </trkpt>
      <trkpt lat="43.29824" lon="6.55456">
        <ele>136.4</ele>
        <time>2022-02-04T16:58:16Z</time>
      </trkpt>
      <trkpt lat="43.29823" lon="6.55451">
        <ele>136.8</ele>
        <time>2022-02-04T16:58:17Z</time>
      </trkpt>
      <trkpt lat="43.29823" lon="6.55445">
        <ele>137.2</ele>
        <time>2022-02-04T16:58:18Z</time>
      </trkpt>
      <trkpt lat="43.29823" lon="6.5544">
        <ele>137.4</ele>
        <time>2022-02-04T16:58:19Z</time>
      </trkpt>
      <trkpt lat="43.29823" lon="6.55434">
        <ele>138</ele>
        <time>2022-02-04T16:58:20Z</time>
      </trkpt>
      <trkpt lat="43.29823" lon="6.55429">
        <ele>138.2</ele>
        <time>2022-02-04T16:58:21Z</time>
      </trkpt>
      <trkpt lat="43.29824" lon="6.55423">
        <ele>138.6</ele>
        <time>2022-02-04T16:58:22Z</time>
      </trkpt>
      <trkpt lat="43.29825" lon="6.55418">
        <ele>139</ele>
        <time>2022-02-04T16:58:23Z</time>
      </trkpt>
      <trkpt lat="43.29826" lon="6.55411">
        <ele>139.2</ele>
        <time>2022-02-04T16:58:24Z</time>
      </trkpt>
      <trkpt lat="43.29828" lon="6.55407">
        <ele>139.4</ele>
        <time>2022-02-04T16:58:25Z</time>
      </trkpt>
      <trkpt lat="43.29829" lon="6.55402">
        <ele>139.4</ele>
        <time>2022-02-04T16:58:26Z</time>
      </trkpt>
      <trkpt lat="43.29831" lon="6.55397">
        <ele>139.6</ele>
        <time>2022-02-04T16:58:27Z</time>
      </trkpt>
      <trkpt lat="43.29834" lon="6.55393">
        <ele>139.8</ele>
        <time>2022-02-04T16:58:28Z</time>
      </trkpt>
      <trkpt lat="43.29836" lon="6.55388">
        <ele>140</ele>
        <time>2022-02-04T16:58:29Z</time>
      </trkpt>
      <trkpt lat="43.2984" lon="6.55384">
        <ele>140</ele>
        <time>2022-02-04T16:58:30Z</time>
      </trkpt>
      <trkpt lat="43.29842" lon="6.55381">
        <ele>140.2</ele>
        <time>2022-02-04T16:58:31Z</time>
      </trkpt>
      <trkpt lat="43.29846" lon="6.55378">
        <ele>141.2</ele>
        <time>2022-02-04T16:58:32Z</time>
      </trkpt>
      <trkpt lat="43.2985" lon="6.55377">
        <ele>141.6</ele>
        <time>2022-02-04T16:58:33Z</time>
      </trkpt>
      <trkpt lat="43.29853" lon="6.55375">
        <ele>142</ele>
        <time>2022-02-04T16:58:34Z</time>
      </trkpt>
      <trkpt lat="43.29857" lon="6.55374">
        <ele>142.4</ele>
        <time>2022-02-04T16:58:35Z</time>
      </trkpt>
      <trkpt lat="43.29861" lon="6.55372">
        <ele>142.8</ele>
        <time>2022-02-04T16:58:36Z</time>
      </trkpt>
      <trkpt lat="43.29864" lon="6.55371">
        <ele>143</ele>
        <time>2022-02-04T16:58:37Z</time>
      </trkpt>
      <trkpt lat="43.29869" lon="6.55368">
        <ele>143.2</ele>
        <time>2022-02-04T16:58:38Z</time>
      </trkpt>
      <trkpt lat="43.29873" lon="6.55366">
        <ele>143.2</ele>
        <time>2022-02-04T16:58:39Z</time>
      </trkpt>
      <trkpt lat="43.29876" lon="6.55365">
        <ele>143.4</ele>
        <time>2022-02-04T16:58:40Z</time>
      </trkpt>
      <trkpt lat="43.29879" lon="6.55363">
        <ele>143.8</ele>
        <time>2022-02-04T16:58:41Z</time>
      </trkpt>
      <trkpt lat="43.29883" lon="6.55361">
        <ele>144.4</ele>
        <time>2022-02-04T16:58:42Z</time>
      </trkpt>
      <trkpt lat="43.29887" lon="6.55357">
        <ele>144.8</ele>
        <time>2022-02-04T16:58:43Z</time>
      </trkpt>
      <trkpt lat="43.29889" lon="6.55354">
        <ele>145.2</ele>
        <time>2022-02-04T16:58:44Z</time>
      </trkpt>
      <trkpt lat="43.29892" lon="6.55352">
        <ele>145.8</ele>
        <time>2022-02-04T16:58:45Z</time>
      </trkpt>
      <trkpt lat="43.29894" lon="6.55349">
        <ele>146.2</ele>
        <time>2022-02-04T16:58:46Z</time>
      </trkpt>
      <trkpt lat="43.29895" lon="6.55345">
        <ele>146.6</ele>
        <time>2022-02-04T16:58:47Z</time>
      </trkpt>
      <trkpt lat="43.29896" lon="6.55341">
        <ele>146.8</ele>
        <time>2022-02-04T16:58:48Z</time>
      </trkpt>
      <trkpt lat="43.29895" lon="6.55337">
        <ele>147.2</ele>
        <time>2022-02-04T16:58:49Z</time>
      </trkpt>
      <trkpt lat="43.29894" lon="6.55332">
        <ele>147.4</ele>
        <time>2022-02-04T16:58:50Z</time>
      </trkpt>
      <trkpt lat="43.29892" lon="6.55328">
        <ele>147.6</ele>
        <time>2022-02-04T16:58:51Z</time>
      </trkpt>
      <trkpt lat="43.2989" lon="6.55325">
        <ele>148</ele>
        <time>2022-02-04T16:58:52Z</time>
      </trkpt>
      <trkpt lat="43.29887" lon="6.55321">
        <ele>148.2</ele>
        <time>2022-02-04T16:58:53Z</time>
      </trkpt>
      <trkpt lat="43.29883" lon="6.55319">
        <ele>148.8</ele>
        <time>2022-02-04T16:58:54Z</time>
      </trkpt>
      <trkpt lat="43.2988" lon="6.55316">
        <ele>149</ele>
        <time>2022-02-04T16:58:55Z</time>
      </trkpt>
      <trkpt lat="43.29876" lon="6.55314">
        <ele>149.2</ele>
        <time>2022-02-04T16:58:56Z</time>
      </trkpt>
      <trkpt lat="43.29873" lon="6.55312">
        <ele>149.4</ele>
        <time>2022-02-04T16:58:57Z</time>
      </trkpt>
      <trkpt lat="43.29869" lon="6.55309">
        <ele>149.8</ele>
        <time>2022-02-04T16:58:58Z</time>
      </trkpt>
      <trkpt lat="43.29865" lon="6.55307">
        <ele>149.8</ele>
        <time>2022-02-04T16:58:59Z</time>
      </trkpt>
      <trkpt lat="43.29861" lon="6.55305">
        <ele>150</ele>
        <time>2022-02-04T16:59:00Z</time>
      </trkpt>
      <trkpt lat="43.29858" lon="6.55303">
        <ele>150.2</ele>
        <time>2022-02-04T16:59:01Z</time>
      </trkpt>
      <trkpt lat="43.29854" lon="6.55301">
        <ele>150.4</ele>
        <time>2022-02-04T16:59:02Z</time>
      </trkpt>
      <trkpt lat="43.2985" lon="6.55297">
        <ele>150.6</ele>
        <time>2022-02-04T16:59:03Z</time>
      </trkpt>
      <trkpt lat="43.29846" lon="6.55296">
        <ele>150.6</ele>
        <time>2022-02-04T16:59:04Z</time>
      </trkpt>
      <trkpt lat="43.29842" lon="6.55292">
        <ele>152.2</ele>
        <time>2022-02-04T16:59:05Z</time>
      </trkpt>
      <trkpt lat="43.29839" lon="6.5529">
        <ele>152.2</ele>
        <time>2022-02-04T16:59:06Z</time>
      </trkpt>
      <trkpt lat="43.29836" lon="6.55286">
        <ele>152.2</ele>
        <time>2022-02-04T16:59:07Z</time>
      </trkpt>
      <trkpt lat="43.29833" lon="6.55282">
        <ele>152.2</ele>
        <time>2022-02-04T16:59:08Z</time>
      </trkpt>
      <trkpt lat="43.29831" lon="6.55278">
        <ele>152.2</ele>
        <time>2022-02-04T16:59:09Z</time>
      </trkpt>
      <trkpt lat="43.29829" lon="6.55274">
        <ele>152.4</ele>
        <time>2022-02-04T16:59:10Z</time>
      </trkpt>
      <trkpt lat="43.29828" lon="6.5527">
        <ele>152.6</ele>
        <time>2022-02-04T16:59:11Z</time>
      </trkpt>
      <trkpt lat="43.29827" lon="6.55266">
        <ele>153</ele>
        <time>2022-02-04T16:59:12Z</time>
      </trkpt>
      <trkpt lat="43.29826" lon="6.55261">
        <ele>153.2</ele>
        <time>2022-02-04T16:59:13Z</time>
      </trkpt>
      <trkpt lat="43.29826" lon="6.55256">
        <ele>153.4</ele>
        <time>2022-02-04T16:59:14Z</time>
      </trkpt>
      <trkpt lat="43.29827" lon="6.5525">
        <ele>153.8</ele>
        <time>2022-02-04T16:59:15Z</time>
      </trkpt>
      <trkpt lat="43.29828" lon="6.55246">
        <ele>154.2</ele>
        <time>2022-02-04T16:59:16Z</time>
      </trkpt>
      <trkpt lat="43.29829" lon="6.55241">
        <ele>154.4</ele>
        <time>2022-02-04T16:59:17Z</time>
      </trkpt>
      <trkpt lat="43.29831" lon="6.55237">
        <ele>154.6</ele>
        <time>2022-02-04T16:59:18Z</time>
      </trkpt>
      <trkpt lat="43.29834" lon="6.55232">
        <ele>154.8</ele>
        <time>2022-02-04T16:59:19Z</time>
      </trkpt>
      <trkpt lat="43.29836" lon="6.55228">
        <ele>155.2</ele>
        <time>2022-02-04T16:59:20Z</time>
      </trkpt>
      <trkpt lat="43.29838" lon="6.55224">
        <ele>155.4</ele>
        <time>2022-02-04T16:59:21Z</time>
      </trkpt>
      <trkpt lat="43.2984" lon="6.55221">
        <ele>155.6</ele>
        <time>2022-02-04T16:59:22Z</time>
      </trkpt>
      <trkpt lat="43.29842" lon="6.55217">
        <ele>155.8</ele>
        <time>2022-02-04T16:59:23Z</time>
      </trkpt>
      <trkpt lat="43.29844" lon="6.55212">
        <ele>156</ele>
        <time>2022-02-04T16:59:24Z</time>
      </trkpt>
      <trkpt lat="43.29846" lon="6.55208">
        <ele>156.4</ele>
        <time>2022-02-04T16:59:25Z</time>
      </trkpt>
      <trkpt lat="43.29847" lon="6.55205">
        <ele>156.8</ele>
        <time>2022-02-04T16:59:26Z</time>
      </trkpt>
      <trkpt lat="43.29849" lon="6.55202">
        <ele>157</ele>
        <time>2022-02-04T16:59:27Z</time>
      </trkpt>
      <trkpt lat="43.29851" lon="6.55197">
        <ele>157.4</ele>
        <time>2022-02-04T16:59:28Z</time>
      </trkpt>
      <trkpt lat="43.29852" lon="6.55194">
        <ele>157.8</ele>
        <time>2022-02-04T16:59:29Z</time>
      </trkpt>
      <trkpt lat="43.29853" lon="6.5519">
        <ele>158</ele>
        <time>2022-02-04T16:59:30Z</time>
      </trkpt>
      <trkpt lat="43.29854" lon="6.55186">
        <ele>158</ele>
        <time>2022-02-04T16:59:31Z</time>
      </trkpt>
      <trkpt lat="43.29853" lon="6.55181">
        <ele>158.4</ele>
        <time>2022-02-04T16:59:32Z</time>
      </trkpt>
      <trkpt lat="43.29853" lon="6.55175">
        <ele>158.8</ele>
        <time>2022-02-04T16:59:33Z</time>
      </trkpt>
      <trkpt lat="43.29851" lon="6.55171">
        <ele>159.2</ele>
        <time>2022-02-04T16:59:34Z</time>
      </trkpt>
      <trkpt lat="43.29849" lon="6.55165">
        <ele>159.4</ele>
        <time>2022-02-04T16:59:35Z</time>
      </trkpt>
      <trkpt lat="43.29848" lon="6.55162">
        <ele>159.6</ele>
        <time>2022-02-04T16:59:36Z</time>
      </trkpt>
      <trkpt lat="43.29846" lon="6.55158">
        <ele>160.2</ele>
        <time>2022-02-04T16:59:37Z</time>
      </trkpt>
      <trkpt lat="43.29845" lon="6.55154">
        <ele>160.8</ele>
        <time>2022-02-04T16:59:38Z</time>
      </trkpt>
      <trkpt lat="43.29843" lon="6.55149">
        <ele>161</ele>
        <time>2022-02-04T16:59:39Z</time>
      </trkpt>
      <trkpt lat="43.29842" lon="6.55145">
        <ele>161.8</ele>
        <time>2022-02-04T16:59:40Z</time>
      </trkpt>
      <trkpt lat="43.29841" lon="6.55142">
        <ele>162.4</ele>
        <time>2022-02-04T16:59:41Z</time>
      </trkpt>
      <trkpt lat="43.29841" lon="6.55137">
        <ele>163</ele>
        <time>2022-02-04T16:59:42Z</time>
      </trkpt>
      <trkpt lat="43.2984" lon="6.55133">
        <ele>163.2</ele>
        <time>2022-02-04T16:59:43Z</time>
      </trkpt>
      <trkpt lat="43.2984" lon="6.55128">
        <ele>163.4</ele>
        <time>2022-02-04T16:59:44Z</time>
      </trkpt>
      <trkpt lat="43.29839" lon="6.55122">
        <ele>164</ele>
        <time>2022-02-04T16:59:45Z</time>
      </trkpt>
      <trkpt lat="43.29838" lon="6.55118">
        <ele>164.4</ele>
        <time>2022-02-04T16:59:46Z</time>
      </trkpt>
      <trkpt lat="43.29838" lon="6.55113">
        <ele>165</ele>
        <time>2022-02-04T16:59:47Z</time>
      </trkpt>
      <trkpt lat="43.29838" lon="6.55108">
        <ele>165.2</ele>
        <time>2022-02-04T16:59:48Z</time>
      </trkpt>
      <trkpt lat="43.29838" lon="6.55103">
        <ele>165.6</ele>
        <time>2022-02-04T16:59:49Z</time>
      </trkpt>
      <trkpt lat="43.29838" lon="6.55097">
        <ele>165.8</ele>
        <time>2022-02-04T16:59:50Z</time>
      </trkpt>
      <trkpt lat="43.29838" lon="6.55093">
        <ele>166.2</ele>
        <time>2022-02-04T16:59:51Z</time>
      </trkpt>
      <trkpt lat="43.29838" lon="6.55088">
        <ele>166.4</ele>
        <time>2022-02-04T16:59:52Z</time>
      </trkpt>
      <trkpt lat="43.29838" lon="6.55083">
        <ele>166.6</ele>
        <time>2022-02-04T16:59:53Z</time>
      </trkpt>
      <trkpt lat="43.29839" lon="6.55078">
        <ele>167</ele>
        <time>2022-02-04T16:59:54Z</time>
      </trkpt>
      <trkpt lat="43.29839" lon="6.55073">
        <ele>167.4</ele>
        <time>2022-02-04T16:59:55Z</time>
      </trkpt>
      <trkpt lat="43.2984" lon="6.55069">
        <ele>167.8</ele>
        <time>2022-02-04T16:59:56Z</time>
      </trkpt>
      <trkpt lat="43.29841" lon="6.55064">
        <ele>168.2</ele>
        <time>2022-02-04T16:59:57Z</time>
      </trkpt>
      <trkpt lat="43.29842" lon="6.55059">
        <ele>168.6</ele>
        <time>2022-02-04T16:59:58Z</time>
      </trkpt>
      <trkpt lat="43.29843" lon="6.55054">
        <ele>168.8</ele>
        <time>2022-02-04T16:59:59Z</time>
      </trkpt>
      <trkpt lat="43.29844" lon="6.5505">
        <ele>169</ele>
        <time>2022-02-04T17:00:00Z</time>
      </trkpt>
      <trkpt lat="43.29845" lon="6.55045">
        <ele>169.2</ele>
        <time>2022-02-04T17:00:01Z</time>
      </trkpt>
      <trkpt lat="43.29846" lon="6.5504">
        <ele>169.4</ele>
        <time>2022-02-04T17:00:02Z</time>
      </trkpt>
      <trkpt lat="43.29846" lon="6.55035">
        <ele>169.6</ele>
        <time>2022-02-04T17:00:03Z</time>
      </trkpt>
      <trkpt lat="43.29845" lon="6.5503">
        <ele>169.8</ele>
        <time>2022-02-04T17:00:04Z</time>
      </trkpt>
      <trkpt lat="43.29843" lon="6.55026">
        <ele>170</ele>
        <time>2022-02-04T17:00:05Z</time>
      </trkpt>
      <trkpt lat="43.29841" lon="6.55023">
        <ele>170.2</ele>
        <time>2022-02-04T17:00:06Z</time>
      </trkpt>
      <trkpt lat="43.29838" lon="6.5502">
        <ele>170.6</ele>
        <time>2022-02-04T17:00:07Z</time>
      </trkpt>
      <trkpt lat="43.29835" lon="6.55017">
        <ele>171</ele>
        <time>2022-02-04T17:00:08Z</time>
      </trkpt>
      <trkpt lat="43.29832" lon="6.55014">
        <ele>171.4</ele>
        <time>2022-02-04T17:00:09Z</time>
      </trkpt>
      <trkpt lat="43.29829" lon="6.5501">
        <ele>171.6</ele>
        <time>2022-02-04T17:00:10Z</time>
      </trkpt>
      <trkpt lat="43.29827" lon="6.55007">
        <ele>172</ele>
        <time>2022-02-04T17:00:11Z</time>
      </trkpt>
      <trkpt lat="43.29825" lon="6.55002">
        <ele>172.2</ele>
        <time>2022-02-04T17:00:12Z</time>
      </trkpt>
      <trkpt lat="43.29824" lon="6.54997">
        <ele>172.4</ele>
        <time>2022-02-04T17:00:13Z</time>
      </trkpt>
      <trkpt lat="43.29823" lon="6.54993">
        <ele>172.6</ele>
        <time>2022-02-04T17:00:14Z</time>
      </trkpt>
      <trkpt lat="43.29822" lon="6.54988">
        <ele>173</ele>
        <time>2022-02-04T17:00:15Z</time>
      </trkpt>
      <trkpt lat="43.29822" lon="6.54982">
        <ele>173.4</ele>
        <time>2022-02-04T17:00:16Z</time>
      </trkpt>
      <trkpt lat="43.29822" lon="6.54978">
        <ele>173.8</ele>
        <time>2022-02-04T17:00:17Z</time>
      </trkpt>
      <trkpt lat="43.29822" lon="6.54973">
        <ele>174.2</ele>
        <time>2022-02-04T17:00:18Z</time>
      </trkpt>
      <trkpt lat="43.29822" lon="6.54968">
        <ele>174.6</ele>
        <time>2022-02-04T17:00:19Z</time>
      </trkpt>
      <trkpt lat="43.29822" lon="6.54963">
        <ele>175</ele>
        <time>2022-02-04T17:00:20Z</time>
      </trkpt>
      <trkpt lat="43.29821" lon="6.54957">
        <ele>175.4</ele>
        <time>2022-02-04T17:00:21Z</time>
      </trkpt>
      <trkpt lat="43.2982" lon="6.54953">
        <ele>175.8</ele>
        <time>2022-02-04T17:00:22Z</time>
      </trkpt>
      <trkpt lat="43.2982" lon="6.54948">
        <ele>176</ele>
        <time>2022-02-04T17:00:23Z</time>
      </trkpt>
      <trkpt lat="43.29819" lon="6.54944">
        <ele>176.4</ele>
        <time>2022-02-04T17:00:24Z</time>
      </trkpt>
      <trkpt lat="43.29819" lon="6.54938">
        <ele>176.8</ele>
        <time>2022-02-04T17:00:25Z</time>
      </trkpt>
      <trkpt lat="43.29818" lon="6.54935">
        <ele>177.4</ele>
        <time>2022-02-04T17:00:26Z</time>
      </trkpt>
      <trkpt lat="43.29817" lon="6.5493">
        <ele>177.8</ele>
        <time>2022-02-04T17:00:27Z</time>
      </trkpt>
      <trkpt lat="43.29817" lon="6.54926">
        <ele>178</ele>
        <time>2022-02-04T17:00:28Z</time>
      </trkpt>
      <trkpt lat="43.29817" lon="6.5492">
        <ele>178.4</ele>
        <time>2022-02-04T17:00:29Z</time>
      </trkpt>
      <trkpt lat="43.29818" lon="6.54916">
        <ele>178.8</ele>
        <time>2022-02-04T17:00:30Z</time>
      </trkpt>
      <trkpt lat="43.29819" lon="6.54913">
        <ele>179.2</ele>
        <time>2022-02-04T17:00:31Z</time>
      </trkpt>
      <trkpt lat="43.29821" lon="6.5491">
        <ele>179.4</ele>
        <time>2022-02-04T17:00:32Z</time>
      </trkpt>
      <trkpt lat="43.29823" lon="6.54907">
        <ele>180</ele>
        <time>2022-02-04T17:00:33Z</time>
      </trkpt>
      <trkpt lat="43.29826" lon="6.54905">
        <ele>180.2</ele>
        <time>2022-02-04T17:00:34Z</time>
      </trkpt>
      <trkpt lat="43.29829" lon="6.54904">
        <ele>180.6</ele>
        <time>2022-02-04T17:00:35Z</time>
      </trkpt>
      <trkpt lat="43.29832" lon="6.54904">
        <ele>181.2</ele>
        <time>2022-02-04T17:00:36Z</time>
      </trkpt>
      <trkpt lat="43.29835" lon="6.54905">
        <ele>181.8</ele>
        <time>2022-02-04T17:00:37Z</time>
      </trkpt>
      <trkpt lat="43.29837" lon="6.54906">
        <ele>182.2</ele>
        <time>2022-02-04T17:00:38Z</time>
      </trkpt>
      <trkpt lat="43.2984" lon="6.54908">
        <ele>182.8</ele>
        <time>2022-02-04T17:00:39Z</time>
      </trkpt>
      <trkpt lat="43.29842" lon="6.54911">
        <ele>183.2</ele>
        <time>2022-02-04T17:00:40Z</time>
      </trkpt>
      <trkpt lat="43.29844" lon="6.54913">
        <ele>183.6</ele>
        <time>2022-02-04T17:00:41Z</time>
      </trkpt>
      <trkpt lat="43.29846" lon="6.54915">
        <ele>184</ele>
        <time>2022-02-04T17:00:42Z</time>
      </trkpt>
      <trkpt lat="43.29847" lon="6.54919">
        <ele>184.6</ele>
        <time>2022-02-04T17:00:43Z</time>
      </trkpt>
      <trkpt lat="43.29847" lon="6.54923">
        <ele>185.6</ele>
        <time>2022-02-04T17:00:44Z</time>
      </trkpt>
      <trkpt lat="43.29848" lon="6.54927">
        <ele>186.2</ele>
        <time>2022-02-04T17:00:45Z</time>
      </trkpt>
      <trkpt lat="43.29849" lon="6.5493">
        <ele>186.6</ele>
        <time>2022-02-04T17:00:46Z</time>
      </trkpt>
      <trkpt lat="43.29849" lon="6.54933">
        <ele>187</ele>
        <time>2022-02-04T17:00:47Z</time>
      </trkpt>
      <trkpt lat="43.29851" lon="6.54937">
        <ele>187.2</ele>
        <time>2022-02-04T17:00:48Z</time>
      </trkpt>
      <trkpt lat="43.29853" lon="6.54941">
        <ele>187.6</ele>
        <time>2022-02-04T17:00:49Z</time>
      </trkpt>
      <trkpt lat="43.29854" lon="6.54945">
        <ele>187.8</ele>
        <time>2022-02-04T17:00:50Z</time>
      </trkpt>
      <trkpt lat="43.29855" lon="6.54948">
        <ele>188</ele>
        <time>2022-02-04T17:00:51Z</time>
      </trkpt>
      <trkpt lat="43.29857" lon="6.54951">
        <ele>188.2</ele>
        <time>2022-02-04T17:00:52Z</time>
      </trkpt>
      <trkpt lat="43.29859" lon="6.54954">
        <ele>188.4</ele>
        <time>2022-02-04T17:00:53Z</time>
      </trkpt>
      <trkpt lat="43.29861" lon="6.54956">
        <ele>188.4</ele>
        <time>2022-02-04T17:00:54Z</time>
      </trkpt>
      <trkpt lat="43.29864" lon="6.54957">
        <ele>188.6</ele>
        <time>2022-02-04T17:00:55Z</time>
      </trkpt>
      <trkpt lat="43.29867" lon="6.54957">
        <ele>188.6</ele>
        <time>2022-02-04T17:00:56Z</time>
      </trkpt>
      <trkpt lat="43.2987" lon="6.54955">
        <ele>188.8</ele>
        <time>2022-02-04T17:00:57Z</time>
      </trkpt>
      <trkpt lat="43.29873" lon="6.54954">
        <ele>189.2</ele>
        <time>2022-02-04T17:00:58Z</time>
      </trkpt>
      <trkpt lat="43.29876" lon="6.54953">
        <ele>189.8</ele>
        <time>2022-02-04T17:00:59Z</time>
      </trkpt>
      <trkpt lat="43.29879" lon="6.54952">
        <ele>190.2</ele>
        <time>2022-02-04T17:01:00Z</time>
      </trkpt>
      <trkpt lat="43.29882" lon="6.54952">
        <ele>190.6</ele>
        <time>2022-02-04T17:01:01Z</time>
      </trkpt>
      <trkpt lat="43.29886" lon="6.54952">
        <ele>190.8</ele>
        <time>2022-02-04T17:01:02Z</time>
      </trkpt>
      <trkpt lat="43.29889" lon="6.54954">
        <ele>191.2</ele>
        <time>2022-02-04T17:01:03Z</time>
      </trkpt>
      <trkpt lat="43.29892" lon="6.54954">
        <ele>191.8</ele>
        <time>2022-02-04T17:01:04Z</time>
      </trkpt>
      <trkpt lat="43.29895" lon="6.54955">
        <ele>192.6</ele>
        <time>2022-02-04T17:01:05Z</time>
      </trkpt>
      <trkpt lat="43.29898" lon="6.54956">
        <ele>193</ele>
        <time>2022-02-04T17:01:06Z</time>
      </trkpt>
      <trkpt lat="43.29901" lon="6.54956">
        <ele>193.6</ele>
        <time>2022-02-04T17:01:07Z</time>
      </trkpt>
      <trkpt lat="43.29903" lon="6.54955">
        <ele>194</ele>
        <time>2022-02-04T17:01:08Z</time>
      </trkpt>
      <trkpt lat="43.29906" lon="6.54952">
        <ele>194.6</ele>
        <time>2022-02-04T17:01:09Z</time>
      </trkpt>
      <trkpt lat="43.29908" lon="6.5495">
        <ele>194.8</ele>
        <time>2022-02-04T17:01:10Z</time>
      </trkpt>
      <trkpt lat="43.2991" lon="6.54949">
        <ele>195.4</ele>
        <time>2022-02-04T17:01:11Z</time>
      </trkpt>
      <trkpt lat="43.29913" lon="6.54947">
        <ele>195.8</ele>
        <time>2022-02-04T17:01:12Z</time>
      </trkpt>
      <trkpt lat="43.29915" lon="6.54946">
        <ele>196.2</ele>
        <time>2022-02-04T17:01:13Z</time>
      </trkpt>
      <trkpt lat="43.29917" lon="6.54944">
        <ele>196.6</ele>
        <time>2022-02-04T17:01:14Z</time>
      </trkpt>
      <trkpt lat="43.2992" lon="6.54943">
        <ele>196.8</ele>
        <time>2022-02-04T17:01:15Z</time>
      </trkpt>
      <trkpt lat="43.29923" lon="6.54943">
        <ele>197.4</ele>
        <time>2022-02-04T17:01:16Z</time>
      </trkpt>
      <trkpt lat="43.29925" lon="6.54943">
        <ele>197.8</ele>
        <time>2022-02-04T17:01:17Z</time>
      </trkpt>
      <trkpt lat="43.29928" lon="6.54944">
        <ele>198.2</ele>
        <time>2022-02-04T17:01:18Z</time>
      </trkpt>
      <trkpt lat="43.29929" lon="6.54944">
        <ele>198.8</ele>
        <time>2022-02-04T17:01:19Z</time>
      </trkpt>
      <trkpt lat="43.29931" lon="6.54945">
        <ele>199.4</ele>
        <time>2022-02-04T17:01:20Z</time>
      </trkpt>
      <trkpt lat="43.29934" lon="6.54946">
        <ele>200</ele>
        <time>2022-02-04T17:01:21Z</time>
      </trkpt>
      <trkpt lat="43.29935" lon="6.54946">
        <ele>200.8</ele>
        <time>2022-02-04T17:01:22Z</time>
      </trkpt>
      <trkpt lat="43.29938" lon="6.54947">
        <ele>201.6</ele>
        <time>2022-02-04T17:01:23Z</time>
      </trkpt>
      <trkpt lat="43.2994" lon="6.54949">
        <ele>202</ele>
        <time>2022-02-04T17:01:24Z</time>
      </trkpt>
      <trkpt lat="43.29942" lon="6.54951">
        <ele>203</ele>
        <time>2022-02-04T17:01:25Z</time>
      </trkpt>
      <trkpt lat="43.29944" lon="6.54953">
        <ele>203.8</ele>
        <time>2022-02-04T17:01:26Z</time>
      </trkpt>
      <trkpt lat="43.29946" lon="6.54954">
        <ele>204.2</ele>
        <time>2022-02-04T17:01:27Z</time>
      </trkpt>
      <trkpt lat="43.29947" lon="6.54956">
        <ele>205</ele>
        <time>2022-02-04T17:01:28Z</time>
      </trkpt>
      <trkpt lat="43.29949" lon="6.54957">
        <ele>206.6</ele>
        <time>2022-02-04T17:01:29Z</time>
      </trkpt>
      <trkpt lat="43.2995" lon="6.54958">
        <ele>206.6</ele>
        <time>2022-02-04T17:01:30Z</time>
      </trkpt>
      <trkpt lat="43.29953" lon="6.54958">
        <ele>206.6</ele>
        <time>2022-02-04T17:01:31Z</time>
      </trkpt>
      <trkpt lat="43.29955" lon="6.54958">
        <ele>207</ele>
        <time>2022-02-04T17:01:32Z</time>
      </trkpt>
      <trkpt lat="43.29957" lon="6.54958">
        <ele>207.6</ele>
        <time>2022-02-04T17:01:33Z</time>
      </trkpt>
      <trkpt lat="43.2996" lon="6.54958">
        <ele>208.2</ele>
        <time>2022-02-04T17:01:34Z</time>
      </trkpt>
      <trkpt lat="43.29963" lon="6.54957">
        <ele>209</ele>
        <time>2022-02-04T17:01:35Z</time>
      </trkpt>
      <trkpt lat="43.29965" lon="6.54956">
        <ele>209.6</ele>
        <time>2022-02-04T17:01:36Z</time>
      </trkpt>
      <trkpt lat="43.29967" lon="6.54955">
        <ele>210</ele>
        <time>2022-02-04T17:01:37Z</time>
      </trkpt>
      <trkpt lat="43.2997" lon="6.54954">
        <ele>210.4</ele>
        <time>2022-02-04T17:01:38Z</time>
      </trkpt>
      <trkpt lat="43.29972" lon="6.54953">
        <ele>211.2</ele>
        <time>2022-02-04T17:01:39Z</time>
      </trkpt>
      <trkpt lat="43.29974" lon="6.54951">
        <ele>211.6</ele>
        <time>2022-02-04T17:01:40Z</time>
      </trkpt>
      <trkpt lat="43.29976" lon="6.54948">
        <ele>212</ele>
        <time>2022-02-04T17:01:41Z</time>
      </trkpt>
      <trkpt lat="43.29978" lon="6.54946">
        <ele>212.2</ele>
        <time>2022-02-04T17:01:42Z</time>
      </trkpt>
      <trkpt lat="43.29978" lon="6.54943">
        <ele>212.6</ele>
        <time>2022-02-04T17:01:43Z</time>
      </trkpt>
      <trkpt lat="43.29979" lon="6.5494">
        <ele>213</ele>
        <time>2022-02-04T17:01:44Z</time>
      </trkpt>
      <trkpt lat="43.29979" lon="6.54937">
        <ele>213.6</ele>
        <time>2022-02-04T17:01:45Z</time>
      </trkpt>
      <trkpt lat="43.29979" lon="6.54933">
        <ele>214</ele>
        <time>2022-02-04T17:01:46Z</time>
      </trkpt>
      <trkpt lat="43.29979" lon="6.5493">
        <ele>214.6</ele>
        <time>2022-02-04T17:01:47Z</time>
      </trkpt>
      <trkpt lat="43.29979" lon="6.54926">
        <ele>215</ele>
        <time>2022-02-04T17:01:48Z</time>
      </trkpt>
      <trkpt lat="43.29979" lon="6.54922">
        <ele>215.6</ele>
        <time>2022-02-04T17:01:49Z</time>
      </trkpt>
      <trkpt lat="43.29979" lon="6.54919">
        <ele>216</ele>
        <time>2022-02-04T17:01:50Z</time>
      </trkpt>
      <trkpt lat="43.29979" lon="6.54915">
        <ele>216.6</ele>
        <time>2022-02-04T17:01:51Z</time>
      </trkpt>
      <trkpt lat="43.29978" lon="6.54911">
        <ele>217</ele>
        <time>2022-02-04T17:01:52Z</time>
      </trkpt>
      <trkpt lat="43.29978" lon="6.54908">
        <ele>217.4</ele>
        <time>2022-02-04T17:01:53Z</time>
      </trkpt>
      <trkpt lat="43.29978" lon="6.54904">
        <ele>217.8</ele>
        <time>2022-02-04T17:01:54Z</time>
      </trkpt>
      <trkpt lat="43.29978" lon="6.54899">
        <ele>218.2</ele>
        <time>2022-02-04T17:01:55Z</time>
      </trkpt>
      <trkpt lat="43.29977" lon="6.54895">
        <ele>218.4</ele>
        <time>2022-02-04T17:01:56Z</time>
      </trkpt>
      <trkpt lat="43.29978" lon="6.54891">
        <ele>218.8</ele>
        <time>2022-02-04T17:01:57Z</time>
      </trkpt>
      <trkpt lat="43.29978" lon="6.54888">
        <ele>219.2</ele>
        <time>2022-02-04T17:01:58Z</time>
      </trkpt>
      <trkpt lat="43.29979" lon="6.54885">
        <ele>219.4</ele>
        <time>2022-02-04T17:01:59Z</time>
      </trkpt>
      <trkpt lat="43.2998" lon="6.54882">
        <ele>220.2</ele>
        <time>2022-02-04T17:02:00Z</time>
      </trkpt>
      <trkpt lat="43.29981" lon="6.54879">
        <ele>220.8</ele>
        <time>2022-02-04T17:02:01Z</time>
      </trkpt>
      <trkpt lat="43.29983" lon="6.54877">
        <ele>221.2</ele>
        <time>2022-02-04T17:02:02Z</time>
      </trkpt>
      <trkpt lat="43.29985" lon="6.54875">
        <ele>221.6</ele>
        <time>2022-02-04T17:02:03Z</time>
      </trkpt>
      <trkpt lat="43.29987" lon="6.54873">
        <ele>222.4</ele>
        <time>2022-02-04T17:02:04Z</time>
      </trkpt>
      <trkpt lat="43.29989" lon="6.54871">
        <ele>222.8</ele>
        <time>2022-02-04T17:02:05Z</time>
      </trkpt>
      <trkpt lat="43.2999" lon="6.54869">
        <ele>223.2</ele>
        <time>2022-02-04T17:02:06Z</time>
      </trkpt>
      <trkpt lat="43.29992" lon="6.54868">
        <ele>223.8</ele>
        <time>2022-02-04T17:02:07Z</time>
      </trkpt>
      <trkpt lat="43.29994" lon="6.54867">
        <ele>224.4</ele>
        <time>2022-02-04T17:02:08Z</time>
      </trkpt>
      <trkpt lat="43.29996" lon="6.54866">
        <ele>224.8</ele>
        <time>2022-02-04T17:02:09Z</time>
      </trkpt>
      <trkpt lat="43.29999" lon="6.54864">
        <ele>225.2</ele>
        <time>2022-02-04T17:02:10Z</time>
      </trkpt>
      <trkpt lat="43.30002" lon="6.54864">
        <ele>225.6</ele>
        <time>2022-02-04T17:02:11Z</time>
      </trkpt>
      <trkpt lat="43.30005" lon="6.54863">
        <ele>226.4</ele>
        <time>2022-02-04T17:02:12Z</time>
      </trkpt>
      <trkpt lat="43.30007" lon="6.54863">
        <ele>227</ele>
        <time>2022-02-04T17:02:13Z</time>
      </trkpt>
      <trkpt lat="43.3001" lon="6.54862">
        <ele>227.8</ele>
        <time>2022-02-04T17:02:14Z</time>
      </trkpt>
      <trkpt lat="43.30012" lon="6.54862">
        <ele>228.2</ele>
        <time>2022-02-04T17:02:15Z</time>
      </trkpt>
      <trkpt lat="43.30015" lon="6.54861">
        <ele>229</ele>
        <time>2022-02-04T17:02:16Z</time>
      </trkpt>
      <trkpt lat="43.30017" lon="6.5486">
        <ele>229.6</ele>
        <time>2022-02-04T17:02:17Z</time>
      </trkpt>
      <trkpt lat="43.30018" lon="6.54859">
        <ele>230.2</ele>
        <time>2022-02-04T17:02:18Z</time>
      </trkpt>
      <trkpt lat="43.3002" lon="6.54856">
        <ele>231</ele>
        <time>2022-02-04T17:02:19Z</time>
      </trkpt>
      <trkpt lat="43.3002" lon="6.54855">
        <ele>231.8</ele>
        <time>2022-02-04T17:02:20Z</time>
      </trkpt>
      <trkpt lat="43.3002" lon="6.54853">
        <ele>232.4</ele>
        <time>2022-02-04T17:02:21Z</time>
      </trkpt>
      <trkpt lat="43.3002" lon="6.54852">
        <ele>232.8</ele>
        <time>2022-02-04T17:02:22Z</time>
      </trkpt>
      <trkpt lat="43.3002" lon="6.54851">
        <ele>233</ele>
        <time>2022-02-04T17:02:23Z</time>
      </trkpt>
      <trkpt lat="43.3002" lon="6.54849">
        <ele>233.4</ele>
        <time>2022-02-04T17:02:24Z</time>
      </trkpt>
      <trkpt lat="43.30022" lon="6.54849">
        <ele>233.4</ele>
        <time>2022-02-04T17:02:25Z</time>
      </trkpt>
      <trkpt lat="43.30023" lon="6.54849">
        <ele>233.8</ele>
        <time>2022-02-04T17:02:26Z</time>
      </trkpt>
      <trkpt lat="43.30024" lon="6.54851">
        <ele>234</ele>
        <time>2022-02-04T17:02:27Z</time>
      </trkpt>
      <trkpt lat="43.30025" lon="6.54852">
        <ele>234.2</ele>
        <time>2022-02-04T17:02:28Z</time>
      </trkpt>
      <trkpt lat="43.30025" lon="6.54854">
        <ele>234.2</ele>
        <time>2022-02-04T17:02:29Z</time>
      </trkpt>
      <trkpt lat="43.30026" lon="6.54856">
        <ele>234.2</ele>
        <time>2022-02-04T17:02:30Z</time>
      </trkpt>
      <trkpt lat="43.30026" lon="6.54859">
        <ele>234.2</ele>
        <time>2022-02-04T17:02:31Z</time>
      </trkpt>
      <trkpt lat="43.30026" lon="6.54861">
        <ele>234.4</ele>
        <time>2022-02-04T17:02:32Z</time>
      </trkpt>
      <trkpt lat="43.30026" lon="6.54864">
        <ele>234.4</ele>
        <time>2022-02-04T17:02:33Z</time>
      </trkpt>
      <trkpt lat="43.30026" lon="6.54868">
        <ele>234.4</ele>
        <time>2022-02-04T17:02:34Z</time>
      </trkpt>
      <trkpt lat="43.30026" lon="6.54872">
        <ele>234.4</ele>
        <time>2022-02-04T17:02:35Z</time>
      </trkpt>
      <trkpt lat="43.30026" lon="6.54876">
        <ele>234</ele>
        <time>2022-02-04T17:02:36Z</time>
      </trkpt>
      <trkpt lat="43.30027" lon="6.54879">
        <ele>233.8</ele>
        <time>2022-02-04T17:02:37Z</time>
      </trkpt>
      <trkpt lat="43.30027" lon="6.54882">
        <ele>233.8</ele>
        <time>2022-02-04T17:02:38Z</time>
      </trkpt>
      <trkpt lat="43.30028" lon="6.54886">
        <ele>233.6</ele>
        <time>2022-02-04T17:02:39Z</time>
      </trkpt>
      <trkpt lat="43.30029" lon="6.54889">
        <ele>233.4</ele>
        <time>2022-02-04T17:02:40Z</time>
      </trkpt>
      <trkpt lat="43.3003" lon="6.54891">
        <ele>234.8</ele>
        <time>2022-02-04T17:02:41Z</time>
      </trkpt>
      <trkpt lat="43.30031" lon="6.54895">
        <ele>234.8</ele>
        <time>2022-02-04T17:02:42Z</time>
      </trkpt>
      <trkpt lat="43.30032" lon="6.54898">
        <ele>234.8</ele>
        <time>2022-02-04T17:02:43Z</time>
      </trkpt>
      <trkpt lat="43.30033" lon="6.549">
        <ele>234.8</ele>
        <time>2022-02-04T17:02:44Z</time>
      </trkpt>
      <trkpt lat="43.30035" lon="6.54902">
        <ele>234.8</ele>
        <time>2022-02-04T17:02:45Z</time>
      </trkpt>
      <trkpt lat="43.30038" lon="6.54904">
        <ele>234.8</ele>
        <time>2022-02-04T17:02:46Z</time>
      </trkpt>
      <trkpt lat="43.3004" lon="6.54906">
        <ele>234.8</ele>
        <time>2022-02-04T17:02:47Z</time>
      </trkpt>
      <trkpt lat="43.30043" lon="6.54907">
        <ele>235.2</ele>
        <time>2022-02-04T17:02:48Z</time>
      </trkpt>
      <trkpt lat="43.30045" lon="6.54909">
        <ele>235.4</ele>
        <time>2022-02-04T17:02:49Z</time>
      </trkpt>
      <trkpt lat="43.30048" lon="6.54911">
        <ele>235.8</ele>
        <time>2022-02-04T17:02:50Z</time>
      </trkpt>
      <trkpt lat="43.3005" lon="6.54914">
        <ele>236.4</ele>
        <time>2022-02-04T17:02:51Z</time>
      </trkpt>
      <trkpt lat="43.30053" lon="6.54916">
        <ele>236.6</ele>
        <time>2022-02-04T17:02:52Z</time>
      </trkpt>
      <trkpt lat="43.30056" lon="6.54918">
        <ele>237</ele>
        <time>2022-02-04T17:02:53Z</time>
      </trkpt>
      <trkpt lat="43.30058" lon="6.5492">
        <ele>237.4</ele>
        <time>2022-02-04T17:02:54Z</time>
      </trkpt>
      <trkpt lat="43.3006" lon="6.54922">
        <ele>238.2</ele>
        <time>2022-02-04T17:02:55Z</time>
      </trkpt>
      <trkpt lat="43.30063" lon="6.54924">
        <ele>238.8</ele>
        <time>2022-02-04T17:02:56Z</time>
      </trkpt>
      <trkpt lat="43.30065" lon="6.54926">
        <ele>239.2</ele>
        <time>2022-02-04T17:02:57Z</time>
      </trkpt>
      <trkpt lat="43.30067" lon="6.54928">
        <ele>240.2</ele>
        <time>2022-02-04T17:02:58Z</time>
      </trkpt>
      <trkpt lat="43.3007" lon="6.54932">
        <ele>240.8</ele>
        <time>2022-02-04T17:02:59Z</time>
      </trkpt>
      <trkpt lat="43.30072" lon="6.54935">
        <ele>241.4</ele>
        <time>2022-02-04T17:03:00Z</time>
      </trkpt>
      <trkpt lat="43.30074" lon="6.54938">
        <ele>241.6</ele>
        <time>2022-02-04T17:03:01Z</time>
      </trkpt>
      <trkpt lat="43.30076" lon="6.5494">
        <ele>241.8</ele>
        <time>2022-02-04T17:03:02Z</time>
      </trkpt>
      <trkpt lat="43.30078" lon="6.54944">
        <ele>242.4</ele>
        <time>2022-02-04T17:03:03Z</time>
      </trkpt>
      <trkpt lat="43.30081" lon="6.54946">
        <ele>243.2</ele>
        <time>2022-02-04T17:03:04Z</time>
      </trkpt>
      <trkpt lat="43.30083" lon="6.54948">
        <ele>243.6</ele>
        <time>2022-02-04T17:03:05Z</time>
      </trkpt>
      <trkpt lat="43.30085" lon="6.54951">
        <ele>244</ele>
        <time>2022-02-04T17:03:06Z</time>
      </trkpt>
      <trkpt lat="43.30088" lon="6.54953">
        <ele>244.4</ele>
        <time>2022-02-04T17:03:07Z</time>
      </trkpt>
      <trkpt lat="43.3009" lon="6.54956">
        <ele>244.8</ele>
        <time>2022-02-04T17:03:08Z</time>
      </trkpt>
      <trkpt lat="43.30093" lon="6.54958">
        <ele>245.4</ele>
        <time>2022-02-04T17:03:09Z</time>
      </trkpt>
      <trkpt lat="43.30095" lon="6.54961">
        <ele>245.8</ele>
        <time>2022-02-04T17:03:10Z</time>
      </trkpt>
      <trkpt lat="43.30097" lon="6.54964">
        <ele>246.4</ele>
        <time>2022-02-04T17:03:11Z</time>
      </trkpt>
      <trkpt lat="43.30099" lon="6.54967">
        <ele>247.2</ele>
        <time>2022-02-04T17:03:12Z</time>
      </trkpt>
      <trkpt lat="43.30101" lon="6.54969">
        <ele>247.8</ele>
        <time>2022-02-04T17:03:13Z</time>
      </trkpt>
      <trkpt lat="43.30103" lon="6.54972">
        <ele>248.2</ele>
        <time>2022-02-04T17:03:14Z</time>
      </trkpt>
      <trkpt lat="43.30105" lon="6.54975">
        <ele>249</ele>
        <time>2022-02-04T17:03:15Z</time>
      </trkpt>
      <trkpt lat="43.30107" lon="6.54977">
        <ele>249.6</ele>
        <time>2022-02-04T17:03:16Z</time>
      </trkpt>
      <trkpt lat="43.3011" lon="6.54979">
        <ele>250</ele>
        <time>2022-02-04T17:03:17Z</time>
      </trkpt>
      <trkpt lat="43.30112" lon="6.5498">
        <ele>250.8</ele>
        <time>2022-02-04T17:03:18Z</time>
      </trkpt>
      <trkpt lat="43.30114" lon="6.54981">
        <ele>251.4</ele>
        <time>2022-02-04T17:03:19Z</time>
      </trkpt>
      <trkpt lat="43.30116" lon="6.54982">
        <ele>252.2</ele>
        <time>2022-02-04T17:03:20Z</time>
      </trkpt>
      <trkpt lat="43.30119" lon="6.54982">
        <ele>252.6</ele>
        <time>2022-02-04T17:03:21Z</time>
      </trkpt>
      <trkpt lat="43.30121" lon="6.54983">
        <ele>252.8</ele>
        <time>2022-02-04T17:03:22Z</time>
      </trkpt>
      <trkpt lat="43.30123" lon="6.54983">
        <ele>253</ele>
        <time>2022-02-04T17:03:23Z</time>
      </trkpt>
      <trkpt lat="43.30126" lon="6.54983">
        <ele>253.4</ele>
        <time>2022-02-04T17:03:24Z</time>
      </trkpt>
      <trkpt lat="43.30128" lon="6.54983">
        <ele>254.4</ele>
        <time>2022-02-04T17:03:25Z</time>
      </trkpt>
      <trkpt lat="43.3013" lon="6.54983">
        <ele>254.8</ele>
        <time>2022-02-04T17:03:26Z</time>
      </trkpt>
      <trkpt lat="43.30132" lon="6.54982">
        <ele>255.8</ele>
        <time>2022-02-04T17:03:27Z</time>
      </trkpt>
      <trkpt lat="43.30135" lon="6.54982">
        <ele>256.4</ele>
        <time>2022-02-04T17:03:28Z</time>
      </trkpt>
      <trkpt lat="43.30137" lon="6.54982">
        <ele>257.4</ele>
        <time>2022-02-04T17:03:29Z</time>
      </trkpt>
      <trkpt lat="43.30139" lon="6.54983">
        <ele>258</ele>
        <time>2022-02-04T17:03:30Z</time>
      </trkpt>
      <trkpt lat="43.30141" lon="6.54983">
        <ele>259</ele>
        <time>2022-02-04T17:03:31Z</time>
      </trkpt>
      <trkpt lat="43.30144" lon="6.54984">
        <ele>259.4</ele>
        <time>2022-02-04T17:03:32Z</time>
      </trkpt>
      <trkpt lat="43.30146" lon="6.54985">
        <ele>260.2</ele>
        <time>2022-02-04T17:03:33Z</time>
      </trkpt>
      <trkpt lat="43.30148" lon="6.54985">
        <ele>260.8</ele>
        <time>2022-02-04T17:03:34Z</time>
      </trkpt>
      <trkpt lat="43.3015" lon="6.54986">
        <ele>261.2</ele>
        <time>2022-02-04T17:03:35Z</time>
      </trkpt>
      <trkpt lat="43.30152" lon="6.54986">
        <ele>262.2</ele>
        <time>2022-02-04T17:03:36Z</time>
      </trkpt>
      <trkpt lat="43.30154" lon="6.54986">
        <ele>263</ele>
        <time>2022-02-04T17:03:37Z</time>
      </trkpt>
      <trkpt lat="43.30156" lon="6.54987">
        <ele>263.8</ele>
        <time>2022-02-04T17:03:38Z</time>
      </trkpt>
      <trkpt lat="43.30157" lon="6.54986">
        <ele>264.4</ele>
        <time>2022-02-04T17:03:39Z</time>
      </trkpt>
      <trkpt lat="43.30159" lon="6.54985">
        <ele>264.8</ele>
        <time>2022-02-04T17:03:40Z</time>
      </trkpt>
      <trkpt lat="43.30159" lon="6.54984">
        <ele>265</ele>
        <time>2022-02-04T17:03:41Z</time>
      </trkpt>
      <trkpt lat="43.3016" lon="6.54982">
        <ele>265.2</ele>
        <time>2022-02-04T17:03:42Z</time>
      </trkpt>
      <trkpt lat="43.30161" lon="6.54981">
        <ele>265.2</ele>
        <time>2022-02-04T17:03:43Z</time>
      </trkpt>
      <trkpt lat="43.30162" lon="6.5498">
        <ele>265.2</ele>
        <time>2022-02-04T17:03:44Z</time>
      </trkpt>
      <trkpt lat="43.30162" lon="6.54979">
        <ele>265.4</ele>
        <time>2022-02-04T17:03:45Z</time>
      </trkpt>
      <trkpt lat="43.30163" lon="6.54977">
        <ele>265.4</ele>
        <time>2022-02-04T17:03:46Z</time>
      </trkpt>
      <trkpt lat="43.30163" lon="6.54975">
        <ele>265.2</ele>
        <time>2022-02-04T17:03:47Z</time>
      </trkpt>
      <trkpt lat="43.30164" lon="6.54973">
        <ele>265.2</ele>
        <time>2022-02-04T17:03:48Z</time>
      </trkpt>
      <trkpt lat="43.30164" lon="6.5497">
        <ele>265</ele>
        <time>2022-02-04T17:03:49Z</time>
      </trkpt>
      <trkpt lat="43.30165" lon="6.54968">
        <ele>264.8</ele>
        <time>2022-02-04T17:03:50Z</time>
      </trkpt>
      <trkpt lat="43.30166" lon="6.54963">
        <ele>264.8</ele>
        <time>2022-02-04T17:03:51Z</time>
      </trkpt>
      <trkpt lat="43.30166" lon="6.54959">
        <ele>264.6</ele>
        <time>2022-02-04T17:03:52Z</time>
      </trkpt>
      <trkpt lat="43.30166" lon="6.54953">
        <ele>264.6</ele>
        <time>2022-02-04T17:03:53Z</time>
      </trkpt>
      <trkpt lat="43.30167" lon="6.54948">
        <ele>264.4</ele>
        <time>2022-02-04T17:03:54Z</time>
      </trkpt>
      <trkpt lat="43.30167" lon="6.54942">
        <ele>264.4</ele>
        <time>2022-02-04T17:03:55Z</time>
      </trkpt>
      <trkpt lat="43.30167" lon="6.54937">
        <ele>264.2</ele>
        <time>2022-02-04T17:03:56Z</time>
      </trkpt>
      <trkpt lat="43.30167" lon="6.54929">
        <ele>263.8</ele>
        <time>2022-02-04T17:03:57Z</time>
      </trkpt>
      <trkpt lat="43.30166" lon="6.54923">
        <ele>263.6</ele>
        <time>2022-02-04T17:03:58Z</time>
      </trkpt>
      <trkpt lat="43.30166" lon="6.54916">
        <ele>263</ele>
        <time>2022-02-04T17:03:59Z</time>
      </trkpt>
      <trkpt lat="43.30165" lon="6.54909">
        <ele>262.6</ele>
        <time>2022-02-04T17:04:00Z</time>
      </trkpt>
      <trkpt lat="43.30165" lon="6.54902">
        <ele>262</ele>
        <time>2022-02-04T17:04:01Z</time>
      </trkpt>
      <trkpt lat="43.30164" lon="6.54895">
        <ele>261.6</ele>
        <time>2022-02-04T17:04:02Z</time>
      </trkpt>
      <trkpt lat="43.30163" lon="6.54889">
        <ele>261.4</ele>
        <time>2022-02-04T17:04:03Z</time>
      </trkpt>
      <trkpt lat="43.30163" lon="6.54883">
        <ele>261.4</ele>
        <time>2022-02-04T17:04:04Z</time>
      </trkpt>
      <trkpt lat="43.30162" lon="6.54878">
        <ele>261.6</ele>
        <time>2022-02-04T17:04:05Z</time>
      </trkpt>
      <trkpt lat="43.30161" lon="6.54873">
        <ele>262.4</ele>
        <time>2022-02-04T17:04:06Z</time>
      </trkpt>
      <trkpt lat="43.30161" lon="6.54869">
        <ele>262.8</ele>
        <time>2022-02-04T17:04:07Z</time>
      </trkpt>
      <trkpt lat="43.3016" lon="6.54864">
        <ele>263.2</ele>
        <time>2022-02-04T17:04:08Z</time>
      </trkpt>
      <trkpt lat="43.30159" lon="6.5486">
        <ele>263.8</ele>
        <time>2022-02-04T17:04:09Z</time>
      </trkpt>
      <trkpt lat="43.30158" lon="6.54855">
        <ele>264.4</ele>
        <time>2022-02-04T17:04:10Z</time>
      </trkpt>
      <trkpt lat="43.30158" lon="6.54851">
        <ele>264.8</ele>
        <time>2022-02-04T17:04:11Z</time>
      </trkpt>
      <trkpt lat="43.30157" lon="6.54847">
        <ele>265.6</ele>
        <time>2022-02-04T17:04:12Z</time>
      </trkpt>
      <trkpt lat="43.30157" lon="6.54843">
        <ele>266.2</ele>
        <time>2022-02-04T17:04:13Z</time>
      </trkpt>
      <trkpt lat="43.30156" lon="6.54839">
        <ele>266.6</ele>
        <time>2022-02-04T17:04:14Z</time>
      </trkpt>
      <trkpt lat="43.30156" lon="6.54835">
        <ele>267.4</ele>
        <time>2022-02-04T17:04:15Z</time>
      </trkpt>
      <trkpt lat="43.30156" lon="6.54831">
        <ele>268</ele>
        <time>2022-02-04T17:04:16Z</time>
      </trkpt>
      <trkpt lat="43.30156" lon="6.54827">
        <ele>268.4</ele>
        <time>2022-02-04T17:04:17Z</time>
      </trkpt>
      <trkpt lat="43.30156" lon="6.54822">
        <ele>268.6</ele>
        <time>2022-02-04T17:04:18Z</time>
      </trkpt>
      <trkpt lat="43.30156" lon="6.54817">
        <ele>268.8</ele>
        <time>2022-02-04T17:04:19Z</time>
      </trkpt>
      <trkpt lat="43.30157" lon="6.54813">
        <ele>268.8</ele>
        <time>2022-02-04T17:04:20Z</time>
      </trkpt>
      <trkpt lat="43.30159" lon="6.54808">
        <ele>268.8</ele>
        <time>2022-02-04T17:04:21Z</time>
      </trkpt>
      <trkpt lat="43.30159" lon="6.54803">
        <ele>269</ele>
        <time>2022-02-04T17:04:22Z</time>
      </trkpt>
      <trkpt lat="43.3016" lon="6.54799">
        <ele>269</ele>
        <time>2022-02-04T17:04:23Z</time>
      </trkpt>
      <trkpt lat="43.3016" lon="6.54794">
        <ele>269.2</ele>
        <time>2022-02-04T17:04:24Z</time>
      </trkpt>
      <trkpt lat="43.30161" lon="6.5479">
        <ele>269.2</ele>
        <time>2022-02-04T17:04:25Z</time>
      </trkpt>
      <trkpt lat="43.30161" lon="6.54785">
        <ele>269.4</ele>
        <time>2022-02-04T17:04:26Z</time>
      </trkpt>
      <trkpt lat="43.30162" lon="6.5478">
        <ele>269.4</ele>
        <time>2022-02-04T17:04:27Z</time>
      </trkpt>
      <trkpt lat="43.30162" lon="6.54775">
        <ele>269.6</ele>
        <time>2022-02-04T17:04:28Z</time>
      </trkpt>
      <trkpt lat="43.30162" lon="6.5477">
        <ele>269.8</ele>
        <time>2022-02-04T17:04:29Z</time>
      </trkpt>
      <trkpt lat="43.30163" lon="6.54765">
        <ele>269.8</ele>
        <time>2022-02-04T17:04:30Z</time>
      </trkpt>
      <trkpt lat="43.30163" lon="6.54759">
        <ele>269.8</ele>
        <time>2022-02-04T17:04:31Z</time>
      </trkpt>
      <trkpt lat="43.30164" lon="6.54753">
        <ele>270</ele>
        <time>2022-02-04T17:04:32Z</time>
      </trkpt>
      <trkpt lat="43.30165" lon="6.54747">
        <ele>270</ele>
        <time>2022-02-04T17:04:33Z</time>
      </trkpt>
      <trkpt lat="43.30166" lon="6.54741">
        <ele>270</ele>
        <time>2022-02-04T17:04:34Z</time>
      </trkpt>
      <trkpt lat="43.30168" lon="6.54736">
        <ele>270</ele>
        <time>2022-02-04T17:04:35Z</time>
      </trkpt>
      <trkpt lat="43.3017" lon="6.5473">
        <ele>270</ele>
        <time>2022-02-04T17:04:36Z</time>
      </trkpt>
      <trkpt lat="43.30172" lon="6.54725">
        <ele>270.2</ele>
        <time>2022-02-04T17:04:37Z</time>
      </trkpt>
      <trkpt lat="43.30174" lon="6.54721">
        <ele>270.4</ele>
        <time>2022-02-04T17:04:38Z</time>
      </trkpt>
      <trkpt lat="43.30176" lon="6.54717">
        <ele>270.6</ele>
        <time>2022-02-04T17:04:39Z</time>
      </trkpt>
      <trkpt lat="43.30179" lon="6.54713">
        <ele>271</ele>
        <time>2022-02-04T17:04:40Z</time>
      </trkpt>
      <trkpt lat="43.30181" lon="6.5471">
        <ele>271.6</ele>
        <time>2022-02-04T17:04:41Z</time>
      </trkpt>
      <trkpt lat="43.30183" lon="6.54706">
        <ele>272.2</ele>
        <time>2022-02-04T17:04:42Z</time>
      </trkpt>
      <trkpt lat="43.30186" lon="6.54703">
        <ele>272.8</ele>
        <time>2022-02-04T17:04:43Z</time>
      </trkpt>
      <trkpt lat="43.30188" lon="6.54701">
        <ele>273.4</ele>
        <time>2022-02-04T17:04:44Z</time>
      </trkpt>
      <trkpt lat="43.3019" lon="6.54698">
        <ele>273.8</ele>
        <time>2022-02-04T17:04:45Z</time>
      </trkpt>
      <trkpt lat="43.30192" lon="6.54695">
        <ele>274.8</ele>
        <time>2022-02-04T17:04:46Z</time>
      </trkpt>
      <trkpt lat="43.30193" lon="6.54693">
        <ele>275.2</ele>
        <time>2022-02-04T17:04:47Z</time>
      </trkpt>
      <trkpt lat="43.30195" lon="6.54692">
        <ele>275.8</ele>
        <time>2022-02-04T17:04:48Z</time>
      </trkpt>
      <trkpt lat="43.30198" lon="6.54691">
        <ele>276.8</ele>
        <time>2022-02-04T17:04:49Z</time>
      </trkpt>
      <trkpt lat="43.30202" lon="6.5469">
        <ele>277.4</ele>
        <time>2022-02-04T17:04:50Z</time>
      </trkpt>
      <trkpt lat="43.30205" lon="6.54689">
        <ele>277.8</ele>
        <time>2022-02-04T17:04:51Z</time>
      </trkpt>
      <trkpt lat="43.30209" lon="6.54688">
        <ele>278.2</ele>
        <time>2022-02-04T17:04:52Z</time>
      </trkpt>
      <trkpt lat="43.30212" lon="6.54688">
        <ele>278.6</ele>
        <time>2022-02-04T17:04:53Z</time>
      </trkpt>
      <trkpt lat="43.30215" lon="6.54688">
        <ele>278.8</ele>
        <time>2022-02-04T17:04:54Z</time>
      </trkpt>
      <trkpt lat="43.30218" lon="6.54687">
        <ele>279.2</ele>
        <time>2022-02-04T17:04:55Z</time>
      </trkpt>
      <trkpt lat="43.30221" lon="6.54686">
        <ele>279.8</ele>
        <time>2022-02-04T17:04:56Z</time>
      </trkpt>
      <trkpt lat="43.30224" lon="6.54685">
        <ele>280.2</ele>
        <time>2022-02-04T17:04:57Z</time>
      </trkpt>
      <trkpt lat="43.30227" lon="6.54684">
        <ele>281</ele>
        <time>2022-02-04T17:04:58Z</time>
      </trkpt>
      <trkpt lat="43.3023" lon="6.54684">
        <ele>281.4</ele>
        <time>2022-02-04T17:04:59Z</time>
      </trkpt>
      <trkpt lat="43.30232" lon="6.54683">
        <ele>281.8</ele>
        <time>2022-02-04T17:05:00Z</time>
      </trkpt>
      <trkpt lat="43.30234" lon="6.54682">
        <ele>282.2</ele>
        <time>2022-02-04T17:05:01Z</time>
      </trkpt>
      <trkpt lat="43.30237" lon="6.54681">
        <ele>282.6</ele>
        <time>2022-02-04T17:05:02Z</time>
      </trkpt>
      <trkpt lat="43.30239" lon="6.54679">
        <ele>283</ele>
        <time>2022-02-04T17:05:03Z</time>
      </trkpt>
      <trkpt lat="43.30241" lon="6.54678">
        <ele>283.4</ele>
        <time>2022-02-04T17:05:04Z</time>
      </trkpt>
      <trkpt lat="43.30244" lon="6.54677">
        <ele>284.2</ele>
        <time>2022-02-04T17:05:05Z</time>
      </trkpt>
      <trkpt lat="43.30246" lon="6.54676">
        <ele>285</ele>
        <time>2022-02-04T17:05:06Z</time>
      </trkpt>
      <trkpt lat="43.30249" lon="6.54675">
        <ele>285.6</ele>
        <time>2022-02-04T17:05:07Z</time>
      </trkpt>
      <trkpt lat="43.30251" lon="6.54675">
        <ele>286</ele>
        <time>2022-02-04T17:05:08Z</time>
      </trkpt>
      <trkpt lat="43.30255" lon="6.54674">
        <ele>286.4</ele>
        <time>2022-02-04T17:05:09Z</time>
      </trkpt>
      <trkpt lat="43.30258" lon="6.54674">
        <ele>286.8</ele>
        <time>2022-02-04T17:05:10Z</time>
      </trkpt>
      <trkpt lat="43.30261" lon="6.54674">
        <ele>287.2</ele>
        <time>2022-02-04T17:05:11Z</time>
      </trkpt>
      <trkpt lat="43.30264" lon="6.54673">
        <ele>287.4</ele>
        <time>2022-02-04T17:05:12Z</time>
      </trkpt>
      <trkpt lat="43.30266" lon="6.54673">
        <ele>287.6</ele>
        <time>2022-02-04T17:05:13Z</time>
      </trkpt>
      <trkpt lat="43.30269" lon="6.54672">
        <ele>288</ele>
        <time>2022-02-04T17:05:14Z</time>
      </trkpt>
      <trkpt lat="43.30271" lon="6.54671">
        <ele>288.8</ele>
        <time>2022-02-04T17:05:15Z</time>
      </trkpt>
      <trkpt lat="43.30274" lon="6.54671">
        <ele>289.2</ele>
        <time>2022-02-04T17:05:16Z</time>
      </trkpt>
      <trkpt lat="43.30277" lon="6.5467">
        <ele>289.8</ele>
        <time>2022-02-04T17:05:17Z</time>
      </trkpt>
      <trkpt lat="43.3028" lon="6.5467">
        <ele>290.6</ele>
        <time>2022-02-04T17:05:18Z</time>
      </trkpt>
      <trkpt lat="43.30283" lon="6.5467">
        <ele>291.2</ele>
        <time>2022-02-04T17:05:19Z</time>
      </trkpt>
      <trkpt lat="43.30285" lon="6.54669">
        <ele>291.8</ele>
        <time>2022-02-04T17:05:20Z</time>
      </trkpt>
      <trkpt lat="43.30288" lon="6.54668">
        <ele>292.4</ele>
        <time>2022-02-04T17:05:21Z</time>
      </trkpt>
      <trkpt lat="43.3029" lon="6.54667">
        <ele>292.8</ele>
        <time>2022-02-04T17:05:22Z</time>
      </trkpt>
      <trkpt lat="43.30293" lon="6.54666">
        <ele>293.6</ele>
        <time>2022-02-04T17:05:23Z</time>
      </trkpt>
      <trkpt lat="43.30295" lon="6.54664">
        <ele>294.2</ele>
        <time>2022-02-04T17:05:24Z</time>
      </trkpt>
      <trkpt lat="43.30298" lon="6.54662">
        <ele>294.4</ele>
        <time>2022-02-04T17:05:25Z</time>
      </trkpt>
      <trkpt lat="43.303" lon="6.54659">
        <ele>294.8</ele>
        <time>2022-02-04T17:05:26Z</time>
      </trkpt>
      <trkpt lat="43.30303" lon="6.54655">
        <ele>295.4</ele>
        <time>2022-02-04T17:05:27Z</time>
      </trkpt>
      <trkpt lat="43.30304" lon="6.54653">
        <ele>295.6</ele>
        <time>2022-02-04T17:05:28Z</time>
      </trkpt>
      <trkpt lat="43.30307" lon="6.54648">
        <ele>296.4</ele>
        <time>2022-02-04T17:05:29Z</time>
      </trkpt>
      <trkpt lat="43.30309" lon="6.54645">
        <ele>297.2</ele>
        <time>2022-02-04T17:05:30Z</time>
      </trkpt>
      <trkpt lat="43.30311" lon="6.54642">
        <ele>297.6</ele>
        <time>2022-02-04T17:05:31Z</time>
      </trkpt>
      <trkpt lat="43.30312" lon="6.54638">
        <ele>297.8</ele>
        <time>2022-02-04T17:05:32Z</time>
      </trkpt>
      <trkpt lat="43.30314" lon="6.54635">
        <ele>298.4</ele>
        <time>2022-02-04T17:05:33Z</time>
      </trkpt>
      <trkpt lat="43.30315" lon="6.54631">
        <ele>299</ele>
        <time>2022-02-04T17:05:34Z</time>
      </trkpt>
      <trkpt lat="43.30317" lon="6.54627">
        <ele>299.2</ele>
        <time>2022-02-04T17:05:35Z</time>
      </trkpt>
      <trkpt lat="43.30319" lon="6.54623">
        <ele>299.6</ele>
        <time>2022-02-04T17:05:36Z</time>
      </trkpt>
      <trkpt lat="43.30321" lon="6.5462">
        <ele>299.8</ele>
        <time>2022-02-04T17:05:37Z</time>
      </trkpt>
      <trkpt lat="43.30322" lon="6.54616">
        <ele>299.8</ele>
        <time>2022-02-04T17:05:38Z</time>
      </trkpt>
      <trkpt lat="43.30324" lon="6.54612">
        <ele>300</ele>
        <time>2022-02-04T17:05:39Z</time>
      </trkpt>
      <trkpt lat="43.30325" lon="6.54608">
        <ele>300.2</ele>
        <time>2022-02-04T17:05:40Z</time>
      </trkpt>
      <trkpt lat="43.30326" lon="6.54605">
        <ele>300.6</ele>
        <time>2022-02-04T17:05:41Z</time>
      </trkpt>
      <trkpt lat="43.30328" lon="6.54602">
        <ele>300.8</ele>
        <time>2022-02-04T17:05:42Z</time>
      </trkpt>
      <trkpt lat="43.30329" lon="6.54598">
        <ele>301.2</ele>
        <time>2022-02-04T17:05:43Z</time>
      </trkpt>
      <trkpt lat="43.3033" lon="6.54594">
        <ele>302</ele>
        <time>2022-02-04T17:05:44Z</time>
      </trkpt>
      <trkpt lat="43.30331" lon="6.5459">
        <ele>302.6</ele>
        <time>2022-02-04T17:05:45Z</time>
      </trkpt>
      <trkpt lat="43.30331" lon="6.54585">
        <ele>303</ele>
        <time>2022-02-04T17:05:46Z</time>
      </trkpt>
      <trkpt lat="43.30331" lon="6.54581">
        <ele>303.2</ele>
        <time>2022-02-04T17:05:47Z</time>
      </trkpt>
      <trkpt lat="43.30331" lon="6.54576">
        <ele>303.6</ele>
        <time>2022-02-04T17:05:48Z</time>
      </trkpt>
      <trkpt lat="43.30331" lon="6.54572">
        <ele>304</ele>
        <time>2022-02-04T17:05:49Z</time>
      </trkpt>
      <trkpt lat="43.3033" lon="6.54567">
        <ele>304.2</ele>
        <time>2022-02-04T17:05:50Z</time>
      </trkpt>
      <trkpt lat="43.3033" lon="6.54563">
        <ele>304.4</ele>
        <time>2022-02-04T17:05:51Z</time>
      </trkpt>
      <trkpt lat="43.30329" lon="6.54559">
        <ele>304.6</ele>
        <time>2022-02-04T17:05:52Z</time>
      </trkpt>
      <trkpt lat="43.30328" lon="6.54555">
        <ele>305.2</ele>
        <time>2022-02-04T17:05:53Z</time>
      </trkpt>
      <trkpt lat="43.30327" lon="6.5455">
        <ele>305.6</ele>
        <time>2022-02-04T17:05:54Z</time>
      </trkpt>
      <trkpt lat="43.30326" lon="6.54546">
        <ele>306</ele>
        <time>2022-02-04T17:05:55Z</time>
      </trkpt>
      <trkpt lat="43.30324" lon="6.54543">
        <ele>306.4</ele>
        <time>2022-02-04T17:05:56Z</time>
      </trkpt>
      <trkpt lat="43.30321" lon="6.54539">
        <ele>306.8</ele>
        <time>2022-02-04T17:05:57Z</time>
      </trkpt>
      <trkpt lat="43.30319" lon="6.54536">
        <ele>307</ele>
        <time>2022-02-04T17:05:58Z</time>
      </trkpt>
      <trkpt lat="43.30316" lon="6.54534">
        <ele>307</ele>
        <time>2022-02-04T17:05:59Z</time>
      </trkpt>
      <trkpt lat="43.30312" lon="6.54533">
        <ele>307.4</ele>
        <time>2022-02-04T17:06:00Z</time>
      </trkpt>
      <trkpt lat="43.3031" lon="6.54531">
        <ele>307.8</ele>
        <time>2022-02-04T17:06:01Z</time>
      </trkpt>
      <trkpt lat="43.30307" lon="6.5453">
        <ele>308.2</ele>
        <time>2022-02-04T17:06:02Z</time>
      </trkpt>
      <trkpt lat="43.30304" lon="6.54528">
        <ele>308.4</ele>
        <time>2022-02-04T17:06:03Z</time>
      </trkpt>
      <trkpt lat="43.30301" lon="6.54527">
        <ele>308.6</ele>
        <time>2022-02-04T17:06:04Z</time>
      </trkpt>
      <trkpt lat="43.30298" lon="6.54525">
        <ele>309</ele>
        <time>2022-02-04T17:06:05Z</time>
      </trkpt>
      <trkpt lat="43.30296" lon="6.54524">
        <ele>309.4</ele>
        <time>2022-02-04T17:06:06Z</time>
      </trkpt>
      <trkpt lat="43.30293" lon="6.54522">
        <ele>309.8</ele>
        <time>2022-02-04T17:06:07Z</time>
      </trkpt>
      <trkpt lat="43.3029" lon="6.54521">
        <ele>310.4</ele>
        <time>2022-02-04T17:06:08Z</time>
      </trkpt>
      <trkpt lat="43.30287" lon="6.5452">
        <ele>310.8</ele>
        <time>2022-02-04T17:06:09Z</time>
      </trkpt>
      <trkpt lat="43.30284" lon="6.54519">
        <ele>311.2</ele>
        <time>2022-02-04T17:06:10Z</time>
      </trkpt>
      <trkpt lat="43.30282" lon="6.54517">
        <ele>311.4</ele>
        <time>2022-02-04T17:06:11Z</time>
      </trkpt>
      <trkpt lat="43.30278" lon="6.54516">
        <ele>311.8</ele>
        <time>2022-02-04T17:06:12Z</time>
      </trkpt>
      <trkpt lat="43.30275" lon="6.54515">
        <ele>312.2</ele>
        <time>2022-02-04T17:06:13Z</time>
      </trkpt>
      <trkpt lat="43.30272" lon="6.54513">
        <ele>312.6</ele>
        <time>2022-02-04T17:06:14Z</time>
      </trkpt>
      <trkpt lat="43.3027" lon="6.54511">
        <ele>312.8</ele>
        <time>2022-02-04T17:06:15Z</time>
      </trkpt>
      <trkpt lat="43.30267" lon="6.54509">
        <ele>313</ele>
        <time>2022-02-04T17:06:16Z</time>
      </trkpt>
      <trkpt lat="43.30264" lon="6.54507">
        <ele>313.4</ele>
        <time>2022-02-04T17:06:17Z</time>
      </trkpt>
      <trkpt lat="43.30262" lon="6.54505">
        <ele>314</ele>
        <time>2022-02-04T17:06:18Z</time>
      </trkpt>
      <trkpt lat="43.30259" lon="6.54503">
        <ele>314.8</ele>
        <time>2022-02-04T17:06:19Z</time>
      </trkpt>
      <trkpt lat="43.30257" lon="6.54501">
        <ele>315.2</ele>
        <time>2022-02-04T17:06:20Z</time>
      </trkpt>
      <trkpt lat="43.30255" lon="6.54498">
        <ele>316.2</ele>
        <time>2022-02-04T17:06:21Z</time>
      </trkpt>
      <trkpt lat="43.30253" lon="6.54495">
        <ele>316.2</ele>
        <time>2022-02-04T17:06:22Z</time>
      </trkpt>
      <trkpt lat="43.30251" lon="6.54492">
        <ele>316.2</ele>
        <time>2022-02-04T17:06:23Z</time>
      </trkpt>
      <trkpt lat="43.30248" lon="6.54488">
        <ele>316.6</ele>
        <time>2022-02-04T17:06:24Z</time>
      </trkpt>
      <trkpt lat="43.30247" lon="6.54485">
        <ele>317.4</ele>
        <time>2022-02-04T17:06:25Z</time>
      </trkpt>
      <trkpt lat="43.30245" lon="6.54482">
        <ele>317.6</ele>
        <time>2022-02-04T17:06:26Z</time>
      </trkpt>
      <trkpt lat="43.30243" lon="6.54478">
        <ele>318</ele>
        <time>2022-02-04T17:06:27Z</time>
      </trkpt>
      <trkpt lat="43.30242" lon="6.54474">
        <ele>318.4</ele>
        <time>2022-02-04T17:06:28Z</time>
      </trkpt>
      <trkpt lat="43.3024" lon="6.54471">
        <ele>318.8</ele>
        <time>2022-02-04T17:06:29Z</time>
      </trkpt>
      <trkpt lat="43.30239" lon="6.54467">
        <ele>319</ele>
        <time>2022-02-04T17:06:30Z</time>
      </trkpt>
      <trkpt lat="43.30238" lon="6.54464">
        <ele>319.2</ele>
        <time>2022-02-04T17:06:31Z</time>
      </trkpt>
      <trkpt lat="43.30237" lon="6.5446">
        <ele>319.4</ele>
        <time>2022-02-04T17:06:32Z</time>
      </trkpt>
      <trkpt lat="43.30235" lon="6.54456">
        <ele>319.6</ele>
        <time>2022-02-04T17:06:33Z</time>
      </trkpt>
      <trkpt lat="43.30234" lon="6.54452">
        <ele>320</ele>
        <time>2022-02-04T17:06:34Z</time>
      </trkpt>
      <trkpt lat="43.30233" lon="6.54449">
        <ele>320.6</ele>
        <time>2022-02-04T17:06:35Z</time>
      </trkpt>
      <trkpt lat="43.30232" lon="6.54445">
        <ele>321</ele>
        <time>2022-02-04T17:06:36Z</time>
      </trkpt>
      <trkpt lat="43.30231" lon="6.54441">
        <ele>321.2</ele>
        <time>2022-02-04T17:06:37Z</time>
      </trkpt>
      <trkpt lat="43.30231" lon="6.54437">
        <ele>322</ele>
        <time>2022-02-04T17:06:38Z</time>
      </trkpt>
      <trkpt lat="43.3023" lon="6.54433">
        <ele>322.4</ele>
        <time>2022-02-04T17:06:39Z</time>
      </trkpt>
      <trkpt lat="43.3023" lon="6.54429">
        <ele>322.6</ele>
        <time>2022-02-04T17:06:40Z</time>
      </trkpt>
      <trkpt lat="43.30229" lon="6.54425">
        <ele>322.8</ele>
        <time>2022-02-04T17:06:41Z</time>
      </trkpt>
      <trkpt lat="43.30229" lon="6.5442">
        <ele>323</ele>
        <time>2022-02-04T17:06:42Z</time>
      </trkpt>
      <trkpt lat="43.30229" lon="6.54416">
        <ele>323</ele>
        <time>2022-02-04T17:06:43Z</time>
      </trkpt>
      <trkpt lat="43.3023" lon="6.54411">
        <ele>323.2</ele>
        <time>2022-02-04T17:06:44Z</time>
      </trkpt>
      <trkpt lat="43.3023" lon="6.54407">
        <ele>323.4</ele>
        <time>2022-02-04T17:06:45Z</time>
      </trkpt>
      <trkpt lat="43.30231" lon="6.54402">
        <ele>323.6</ele>
        <time>2022-02-04T17:06:46Z</time>
      </trkpt>
      <trkpt lat="43.30233" lon="6.54398">
        <ele>323.8</ele>
        <time>2022-02-04T17:06:47Z</time>
      </trkpt>
      <trkpt lat="43.30234" lon="6.54394">
        <ele>324.2</ele>
        <time>2022-02-04T17:06:48Z</time>
      </trkpt>
      <trkpt lat="43.30236" lon="6.5439">
        <ele>324.6</ele>
        <time>2022-02-04T17:06:49Z</time>
      </trkpt>
      <trkpt lat="43.30238" lon="6.54387">
        <ele>325.4</ele>
        <time>2022-02-04T17:06:50Z</time>
      </trkpt>
      <trkpt lat="43.30239" lon="6.54383">
        <ele>325.8</ele>
        <time>2022-02-04T17:06:51Z</time>
      </trkpt>
      <trkpt lat="43.30241" lon="6.5438">
        <ele>326.2</ele>
        <time>2022-02-04T17:06:52Z</time>
      </trkpt>
      <trkpt lat="43.30242" lon="6.54377">
        <ele>326.8</ele>
        <time>2022-02-04T17:06:53Z</time>
      </trkpt>
      <trkpt lat="43.30243" lon="6.54373">
        <ele>327.2</ele>
        <time>2022-02-04T17:06:54Z</time>
      </trkpt>
      <trkpt lat="43.30244" lon="6.54369">
        <ele>327.4</ele>
        <time>2022-02-04T17:06:55Z</time>
      </trkpt>
      <trkpt lat="43.30245" lon="6.54365">
        <ele>328.2</ele>
        <time>2022-02-04T17:06:56Z</time>
      </trkpt>
      <trkpt lat="43.30246" lon="6.54359">
        <ele>328.4</ele>
        <time>2022-02-04T17:06:57Z</time>
      </trkpt>
      <trkpt lat="43.30247" lon="6.54356">
        <ele>328.6</ele>
        <time>2022-02-04T17:06:58Z</time>
      </trkpt>
      <trkpt lat="43.30248" lon="6.54352">
        <ele>328.8</ele>
        <time>2022-02-04T17:06:59Z</time>
      </trkpt>
      <trkpt lat="43.30249" lon="6.54347">
        <ele>329</ele>
        <time>2022-02-04T17:07:00Z</time>
      </trkpt>
      <trkpt lat="43.3025" lon="6.54343">
        <ele>329.4</ele>
        <time>2022-02-04T17:07:01Z</time>
      </trkpt>
      <trkpt lat="43.30251" lon="6.54339">
        <ele>329.4</ele>
        <time>2022-02-04T17:07:02Z</time>
      </trkpt>
      <trkpt lat="43.30253" lon="6.54335">
        <ele>330.2</ele>
        <time>2022-02-04T17:07:03Z</time>
      </trkpt>
      <trkpt lat="43.30254" lon="6.54331">
        <ele>330.8</ele>
        <time>2022-02-04T17:07:04Z</time>
      </trkpt>
      <trkpt lat="43.30255" lon="6.54327">
        <ele>331.6</ele>
        <time>2022-02-04T17:07:05Z</time>
      </trkpt>
      <trkpt lat="43.30257" lon="6.54324">
        <ele>332.6</ele>
        <time>2022-02-04T17:07:06Z</time>
      </trkpt>
      <trkpt lat="43.30258" lon="6.5432">
        <ele>333.4</ele>
        <time>2022-02-04T17:07:07Z</time>
      </trkpt>
      <trkpt lat="43.3026" lon="6.54316">
        <ele>334.2</ele>
        <time>2022-02-04T17:07:08Z</time>
      </trkpt>
      <trkpt lat="43.30261" lon="6.54313">
        <ele>335</ele>
        <time>2022-02-04T17:07:09Z</time>
      </trkpt>
      <trkpt lat="43.30263" lon="6.54309">
        <ele>336</ele>
        <time>2022-02-04T17:07:10Z</time>
      </trkpt>
      <trkpt lat="43.30265" lon="6.54305">
        <ele>336.8</ele>
        <time>2022-02-04T17:07:11Z</time>
      </trkpt>
      <trkpt lat="43.30266" lon="6.54301">
        <ele>337.2</ele>
        <time>2022-02-04T17:07:12Z</time>
      </trkpt>
      <trkpt lat="43.30267" lon="6.54297">
        <ele>337.4</ele>
        <time>2022-02-04T17:07:13Z</time>
      </trkpt>
      <trkpt lat="43.30269" lon="6.54293">
        <ele>337.8</ele>
        <time>2022-02-04T17:07:14Z</time>
      </trkpt>
      <trkpt lat="43.3027" lon="6.5429">
        <ele>338.2</ele>
        <time>2022-02-04T17:07:15Z</time>
      </trkpt>
      <trkpt lat="43.30272" lon="6.54286">
        <ele>338.8</ele>
        <time>2022-02-04T17:07:16Z</time>
      </trkpt>
      <trkpt lat="43.30273" lon="6.54283">
        <ele>339</ele>
        <time>2022-02-04T17:07:17Z</time>
      </trkpt>
      <trkpt lat="43.30274" lon="6.54279">
        <ele>339.4</ele>
        <time>2022-02-04T17:07:18Z</time>
      </trkpt>
      <trkpt lat="43.30275" lon="6.54276">
        <ele>339.6</ele>
        <time>2022-02-04T17:07:19Z</time>
      </trkpt>
      <trkpt lat="43.30276" lon="6.54272">
        <ele>340</ele>
        <time>2022-02-04T17:07:20Z</time>
      </trkpt>
      <trkpt lat="43.30277" lon="6.54269">
        <ele>340.2</ele>
        <time>2022-02-04T17:07:21Z</time>
      </trkpt>
      <trkpt lat="43.30279" lon="6.54265">
        <ele>340.6</ele>
        <time>2022-02-04T17:07:22Z</time>
      </trkpt>
      <trkpt lat="43.3028" lon="6.54262">
        <ele>341</ele>
        <time>2022-02-04T17:07:23Z</time>
      </trkpt>
      <trkpt lat="43.30282" lon="6.54258">
        <ele>341.2</ele>
        <time>2022-02-04T17:07:24Z</time>
      </trkpt>
      <trkpt lat="43.30283" lon="6.54254">
        <ele>341.6</ele>
        <time>2022-02-04T17:07:25Z</time>
      </trkpt>
      <trkpt lat="43.30285" lon="6.54251">
        <ele>342</ele>
        <time>2022-02-04T17:07:26Z</time>
      </trkpt>
      <trkpt lat="43.30286" lon="6.54247">
        <ele>342.2</ele>
        <time>2022-02-04T17:07:27Z</time>
      </trkpt>
      <trkpt lat="43.30288" lon="6.54244">
        <ele>342.4</ele>
        <time>2022-02-04T17:07:28Z</time>
      </trkpt>
      <trkpt lat="43.3029" lon="6.5424">
        <ele>342.6</ele>
        <time>2022-02-04T17:07:29Z</time>
      </trkpt>
      <trkpt lat="43.30291" lon="6.54236">
        <ele>342.8</ele>
        <time>2022-02-04T17:07:30Z</time>
      </trkpt>
      <trkpt lat="43.30293" lon="6.54233">
        <ele>343.2</ele>
        <time>2022-02-04T17:07:31Z</time>
      </trkpt>
      <trkpt lat="43.30294" lon="6.54229">
        <ele>343.4</ele>
        <time>2022-02-04T17:07:32Z</time>
      </trkpt>
      <trkpt lat="43.30296" lon="6.54225">
        <ele>343.6</ele>
        <time>2022-02-04T17:07:33Z</time>
      </trkpt>
      <trkpt lat="43.30298" lon="6.54222">
        <ele>343.8</ele>
        <time>2022-02-04T17:07:34Z</time>
      </trkpt>
      <trkpt lat="43.30299" lon="6.54218">
        <ele>344.2</ele>
        <time>2022-02-04T17:07:35Z</time>
      </trkpt>
      <trkpt lat="43.30299" lon="6.54213">
        <ele>344.4</ele>
        <time>2022-02-04T17:07:36Z</time>
      </trkpt>
      <trkpt lat="43.30299" lon="6.54209">
        <ele>344.8</ele>
        <time>2022-02-04T17:07:37Z</time>
      </trkpt>
      <trkpt lat="43.30299" lon="6.54205">
        <ele>345</ele>
        <time>2022-02-04T17:07:38Z</time>
      </trkpt>
      <trkpt lat="43.30298" lon="6.54202">
        <ele>345.2</ele>
        <time>2022-02-04T17:07:39Z</time>
      </trkpt>
      <trkpt lat="43.30297" lon="6.54198">
        <ele>345.8</ele>
        <time>2022-02-04T17:07:40Z</time>
      </trkpt>
      <trkpt lat="43.30296" lon="6.54194">
        <ele>346.2</ele>
        <time>2022-02-04T17:07:41Z</time>
      </trkpt>
      <trkpt lat="43.30295" lon="6.5419">
        <ele>346.6</ele>
        <time>2022-02-04T17:07:42Z</time>
      </trkpt>
      <trkpt lat="43.30293" lon="6.54186">
        <ele>347</ele>
        <time>2022-02-04T17:07:43Z</time>
      </trkpt>
      <trkpt lat="43.30292" lon="6.54182">
        <ele>347.4</ele>
        <time>2022-02-04T17:07:44Z</time>
      </trkpt>
      <trkpt lat="43.30291" lon="6.54178">
        <ele>347.8</ele>
        <time>2022-02-04T17:07:45Z</time>
      </trkpt>
      <trkpt lat="43.3029" lon="6.54174">
        <ele>348.2</ele>
        <time>2022-02-04T17:07:46Z</time>
      </trkpt>
      <trkpt lat="43.30288" lon="6.54171">
        <ele>348.6</ele>
        <time>2022-02-04T17:07:47Z</time>
      </trkpt>
      <trkpt lat="43.30287" lon="6.54167">
        <ele>348.8</ele>
        <time>2022-02-04T17:07:48Z</time>
      </trkpt>
      <trkpt lat="43.30285" lon="6.54164">
        <ele>349.2</ele>
        <time>2022-02-04T17:07:49Z</time>
      </trkpt>
      <trkpt lat="43.30283" lon="6.54161">
        <ele>349.6</ele>
        <time>2022-02-04T17:07:50Z</time>
      </trkpt>
      <trkpt lat="43.30282" lon="6.54157">
        <ele>349.8</ele>
        <time>2022-02-04T17:07:51Z</time>
      </trkpt>
      <trkpt lat="43.3028" lon="6.54154">
        <ele>350.2</ele>
        <time>2022-02-04T17:07:52Z</time>
      </trkpt>
      <trkpt lat="43.30279" lon="6.5415">
        <ele>350.4</ele>
        <time>2022-02-04T17:07:53Z</time>
      </trkpt>
      <trkpt lat="43.30277" lon="6.54148">
        <ele>351</ele>
        <time>2022-02-04T17:07:54Z</time>
      </trkpt>
      <trkpt lat="43.30275" lon="6.54145">
        <ele>351.4</ele>
        <time>2022-02-04T17:07:55Z</time>
      </trkpt>
      <trkpt lat="43.30274" lon="6.54143">
        <ele>351.8</ele>
        <time>2022-02-04T17:07:56Z</time>
      </trkpt>
      <trkpt lat="43.30272" lon="6.5414">
        <ele>352</ele>
        <time>2022-02-04T17:07:57Z</time>
      </trkpt>
      <trkpt lat="43.3027" lon="6.54137">
        <ele>352.4</ele>
        <time>2022-02-04T17:07:58Z</time>
      </trkpt>
      <trkpt lat="43.30268" lon="6.54133">
        <ele>352.6</ele>
        <time>2022-02-04T17:07:59Z</time>
      </trkpt>
      <trkpt lat="43.30266" lon="6.5413">
        <ele>353.2</ele>
        <time>2022-02-04T17:08:00Z</time>
      </trkpt>
      <trkpt lat="43.30263" lon="6.54127">
        <ele>353.6</ele>
        <time>2022-02-04T17:08:01Z</time>
      </trkpt>
      <trkpt lat="43.30261" lon="6.54125">
        <ele>353.8</ele>
        <time>2022-02-04T17:08:02Z</time>
      </trkpt>
      <trkpt lat="43.30259" lon="6.54122">
        <ele>354.2</ele>
        <time>2022-02-04T17:08:03Z</time>
      </trkpt>
      <trkpt lat="43.30257" lon="6.54118">
        <ele>354.4</ele>
        <time>2022-02-04T17:08:04Z</time>
      </trkpt>
      <trkpt lat="43.30254" lon="6.54115">
        <ele>355.2</ele>
        <time>2022-02-04T17:08:05Z</time>
      </trkpt>
      <trkpt lat="43.30252" lon="6.54111">
        <ele>356</ele>
        <time>2022-02-04T17:08:06Z</time>
      </trkpt>
      <trkpt lat="43.30249" lon="6.54107">
        <ele>356.2</ele>
        <time>2022-02-04T17:08:07Z</time>
      </trkpt>
      <trkpt lat="43.30247" lon="6.54103">
        <ele>356.8</ele>
        <time>2022-02-04T17:08:08Z</time>
      </trkpt>
      <trkpt lat="43.30246" lon="6.54098">
        <ele>357</ele>
        <time>2022-02-04T17:08:09Z</time>
      </trkpt>
      <trkpt lat="43.30244" lon="6.54093">
        <ele>357.2</ele>
        <time>2022-02-04T17:08:10Z</time>
      </trkpt>
      <trkpt lat="43.30243" lon="6.54087">
        <ele>357.2</ele>
        <time>2022-02-04T17:08:11Z</time>
      </trkpt>
      <trkpt lat="43.30241" lon="6.54081">
        <ele>357</ele>
        <time>2022-02-04T17:08:12Z</time>
      </trkpt>
      <trkpt lat="43.30239" lon="6.54074">
        <ele>356.8</ele>
        <time>2022-02-04T17:08:13Z</time>
      </trkpt>
      <trkpt lat="43.30237" lon="6.54067">
        <ele>356.6</ele>
        <time>2022-02-04T17:08:14Z</time>
      </trkpt>
      <trkpt lat="43.30234" lon="6.54058">
        <ele>355.2</ele>
        <time>2022-02-04T17:08:15Z</time>
      </trkpt>
      <trkpt lat="43.30231" lon="6.54049">
        <ele>354.4</ele>
        <time>2022-02-04T17:08:16Z</time>
      </trkpt>
      <trkpt lat="43.30229" lon="6.54039">
        <ele>353.2</ele>
        <time>2022-02-04T17:08:17Z</time>
      </trkpt>
      <trkpt lat="43.30226" lon="6.54029">
        <ele>352.4</ele>
        <time>2022-02-04T17:08:18Z</time>
      </trkpt>
      <trkpt lat="43.30222" lon="6.54017">
        <ele>352</ele>
        <time>2022-02-04T17:08:19Z</time>
      </trkpt>
      <trkpt lat="43.30219" lon="6.54006">
        <ele>351.8</ele>
        <time>2022-02-04T17:08:20Z</time>
      </trkpt>
      <trkpt lat="43.30216" lon="6.53995">
        <ele>351.8</ele>
        <time>2022-02-04T17:08:21Z</time>
      </trkpt>
      <trkpt lat="43.30214" lon="6.53987">
        <ele>351.6</ele>
        <time>2022-02-04T17:08:22Z</time>
      </trkpt>
      <trkpt lat="43.30213" lon="6.5398">
        <ele>351.6</ele>
        <time>2022-02-04T17:08:23Z</time>
      </trkpt>
      <trkpt lat="43.30212" lon="6.53974">
        <ele>351.6</ele>
        <time>2022-02-04T17:08:24Z</time>
      </trkpt>
      <trkpt lat="43.30211" lon="6.53968">
        <ele>352</ele>
        <time>2022-02-04T17:08:25Z</time>
      </trkpt>
      <trkpt lat="43.3021" lon="6.53962">
        <ele>352.2</ele>
        <time>2022-02-04T17:08:26Z</time>
      </trkpt>
      <trkpt lat="43.3021" lon="6.53956">
        <ele>352.4</ele>
        <time>2022-02-04T17:08:27Z</time>
      </trkpt>
      <trkpt lat="43.30209" lon="6.5395">
        <ele>352.6</ele>
        <time>2022-02-04T17:08:28Z</time>
      </trkpt>
      <trkpt lat="43.30209" lon="6.53945">
        <ele>353</ele>
        <time>2022-02-04T17:08:29Z</time>
      </trkpt>
      <trkpt lat="43.30209" lon="6.53941">
        <ele>353.6</ele>
        <time>2022-02-04T17:08:30Z</time>
      </trkpt>
      <trkpt lat="43.30208" lon="6.53937">
        <ele>353.8</ele>
        <time>2022-02-04T17:08:31Z</time>
      </trkpt>
      <trkpt lat="43.30208" lon="6.53934">
        <ele>354</ele>
        <time>2022-02-04T17:08:32Z</time>
      </trkpt>
      <trkpt lat="43.30208" lon="6.53932">
        <ele>354.2</ele>
        <time>2022-02-04T17:08:33Z</time>
      </trkpt>
      <trkpt lat="43.3021" lon="6.5393">
        <ele>354.2</ele>
        <time>2022-02-04T17:08:34Z</time>
      </trkpt>
      <trkpt lat="43.30211" lon="6.5393">
        <ele>354.2</ele>
        <time>2022-02-04T17:08:35Z</time>
      </trkpt>
      <trkpt lat="43.30214" lon="6.53931">
        <ele>354.4</ele>
        <time>2022-02-04T17:08:36Z</time>
      </trkpt>
      <trkpt lat="43.30216" lon="6.53933">
        <ele>354.8</ele>
        <time>2022-02-04T17:08:37Z</time>
      </trkpt>
      <trkpt lat="43.30218" lon="6.53936">
        <ele>355.2</ele>
        <time>2022-02-04T17:08:38Z</time>
      </trkpt>
      <trkpt lat="43.3022" lon="6.53938">
        <ele>355.4</ele>
        <time>2022-02-04T17:08:39Z</time>
      </trkpt>
      <trkpt lat="43.30222" lon="6.53942">
        <ele>355.6</ele>
        <time>2022-02-04T17:08:40Z</time>
      </trkpt>
      <trkpt lat="43.30225" lon="6.53945">
        <ele>355.8</ele>
        <time>2022-02-04T17:08:41Z</time>
      </trkpt>
      <trkpt lat="43.30227" lon="6.53948">
        <ele>356</ele>
        <time>2022-02-04T17:08:42Z</time>
      </trkpt>
      <trkpt lat="43.3023" lon="6.53951">
        <ele>356</ele>
        <time>2022-02-04T17:08:43Z</time>
      </trkpt>
      <trkpt lat="43.30232" lon="6.53952">
        <ele>356.2</ele>
        <time>2022-02-04T17:08:44Z</time>
      </trkpt>
      <trkpt lat="43.30234" lon="6.53952">
        <ele>356.4</ele>
        <time>2022-02-04T17:08:45Z</time>
      </trkpt>
      <trkpt lat="43.30237" lon="6.53951">
        <ele>356.8</ele>
        <time>2022-02-04T17:08:46Z</time>
      </trkpt>
      <trkpt lat="43.30239" lon="6.5395">
        <ele>357.2</ele>
        <time>2022-02-04T17:08:47Z</time>
      </trkpt>
      <trkpt lat="43.30241" lon="6.53949">
        <ele>357.4</ele>
        <time>2022-02-04T17:08:48Z</time>
      </trkpt>
      <trkpt lat="43.30244" lon="6.53948">
        <ele>358.6</ele>
        <time>2022-02-04T17:08:49Z</time>
      </trkpt>
      <trkpt lat="43.30246" lon="6.53948">
        <ele>359.2</ele>
        <time>2022-02-04T17:08:50Z</time>
      </trkpt>
      <trkpt lat="43.30249" lon="6.53947">
        <ele>360</ele>
        <time>2022-02-04T17:08:51Z</time>
      </trkpt>
      <trkpt lat="43.30251" lon="6.53946">
        <ele>360.8</ele>
        <time>2022-02-04T17:08:52Z</time>
      </trkpt>
      <trkpt lat="43.30254" lon="6.53945">
        <ele>361.6</ele>
        <time>2022-02-04T17:08:53Z</time>
      </trkpt>
      <trkpt lat="43.30256" lon="6.53943">
        <ele>362.4</ele>
        <time>2022-02-04T17:08:54Z</time>
      </trkpt>
      <trkpt lat="43.30259" lon="6.53941">
        <ele>363</ele>
        <time>2022-02-04T17:08:55Z</time>
      </trkpt>
      <trkpt lat="43.30262" lon="6.53939">
        <ele>363.8</ele>
        <time>2022-02-04T17:08:56Z</time>
      </trkpt>
      <trkpt lat="43.30264" lon="6.53936">
        <ele>364.2</ele>
        <time>2022-02-04T17:08:57Z</time>
      </trkpt>
      <trkpt lat="43.30267" lon="6.53934">
        <ele>364.4</ele>
        <time>2022-02-04T17:08:58Z</time>
      </trkpt>
      <trkpt lat="43.3027" lon="6.53932">
        <ele>364.6</ele>
        <time>2022-02-04T17:08:59Z</time>
      </trkpt>
      <trkpt lat="43.30273" lon="6.53931">
        <ele>365</ele>
        <time>2022-02-04T17:09:00Z</time>
      </trkpt>
      <trkpt lat="43.30276" lon="6.5393">
        <ele>365.2</ele>
        <time>2022-02-04T17:09:01Z</time>
      </trkpt>
      <trkpt lat="43.30279" lon="6.53931">
        <ele>365.8</ele>
        <time>2022-02-04T17:09:02Z</time>
      </trkpt>
      <trkpt lat="43.30282" lon="6.53931">
        <ele>366</ele>
        <time>2022-02-04T17:09:03Z</time>
      </trkpt>
      <trkpt lat="43.30285" lon="6.5393">
        <ele>366.4</ele>
        <time>2022-02-04T17:09:04Z</time>
      </trkpt>
      <trkpt lat="43.30287" lon="6.53929">
        <ele>366.6</ele>
        <time>2022-02-04T17:09:05Z</time>
      </trkpt>
      <trkpt lat="43.30289" lon="6.53925">
        <ele>366.8</ele>
        <time>2022-02-04T17:09:06Z</time>
      </trkpt>
      <trkpt lat="43.30291" lon="6.53922">
        <ele>367</ele>
        <time>2022-02-04T17:09:07Z</time>
      </trkpt>
      <trkpt lat="43.30293" lon="6.53919">
        <ele>367.4</ele>
        <time>2022-02-04T17:09:08Z</time>
      </trkpt>
      <trkpt lat="43.30295" lon="6.53915">
        <ele>367.6</ele>
        <time>2022-02-04T17:09:09Z</time>
      </trkpt>
      <trkpt lat="43.30296" lon="6.53912">
        <ele>367.8</ele>
        <time>2022-02-04T17:09:10Z</time>
      </trkpt>
      <trkpt lat="43.30298" lon="6.53908">
        <ele>368.2</ele>
        <time>2022-02-04T17:09:11Z</time>
      </trkpt>
      <trkpt lat="43.303" lon="6.53905">
        <ele>368.4</ele>
        <time>2022-02-04T17:09:12Z</time>
      </trkpt>
      <trkpt lat="43.30302" lon="6.53901">
        <ele>368.6</ele>
        <time>2022-02-04T17:09:13Z</time>
      </trkpt>
      <trkpt lat="43.30304" lon="6.53897">
        <ele>368.8</ele>
        <time>2022-02-04T17:09:14Z</time>
      </trkpt>
      <trkpt lat="43.30306" lon="6.53894">
        <ele>369</ele>
        <time>2022-02-04T17:09:15Z</time>
      </trkpt>
      <trkpt lat="43.30308" lon="6.5389">
        <ele>369.2</ele>
        <time>2022-02-04T17:09:16Z</time>
      </trkpt>
      <trkpt lat="43.3031" lon="6.53887">
        <ele>369.4</ele>
        <time>2022-02-04T17:09:17Z</time>
      </trkpt>
      <trkpt lat="43.30313" lon="6.53885">
        <ele>369.2</ele>
        <time>2022-02-04T17:09:18Z</time>
      </trkpt>
      <trkpt lat="43.30316" lon="6.53883">
        <ele>369.4</ele>
        <time>2022-02-04T17:09:19Z</time>
      </trkpt>
      <trkpt lat="43.30319" lon="6.53882">
        <ele>369.6</ele>
        <time>2022-02-04T17:09:20Z</time>
      </trkpt>
      <trkpt lat="43.30322" lon="6.5388">
        <ele>369.6</ele>
        <time>2022-02-04T17:09:21Z</time>
      </trkpt>
      <trkpt lat="43.30326" lon="6.5388">
        <ele>369.8</ele>
        <time>2022-02-04T17:09:22Z</time>
      </trkpt>
      <trkpt lat="43.30328" lon="6.53878">
        <ele>370</ele>
        <time>2022-02-04T17:09:23Z</time>
      </trkpt>
      <trkpt lat="43.30331" lon="6.53876">
        <ele>370.2</ele>
        <time>2022-02-04T17:09:24Z</time>
      </trkpt>
      <trkpt lat="43.30333" lon="6.53873">
        <ele>370.6</ele>
        <time>2022-02-04T17:09:25Z</time>
      </trkpt>
      <trkpt lat="43.30336" lon="6.53872">
        <ele>371.2</ele>
        <time>2022-02-04T17:09:26Z</time>
      </trkpt>
      <trkpt lat="43.30339" lon="6.5387">
        <ele>372</ele>
        <time>2022-02-04T17:09:27Z</time>
      </trkpt>
      <trkpt lat="43.30342" lon="6.53869">
        <ele>372.6</ele>
        <time>2022-02-04T17:09:28Z</time>
      </trkpt>
      <trkpt lat="43.30345" lon="6.53868">
        <ele>373</ele>
        <time>2022-02-04T17:09:29Z</time>
      </trkpt>
      <trkpt lat="43.30348" lon="6.53868">
        <ele>373.4</ele>
        <time>2022-02-04T17:09:30Z</time>
      </trkpt>
      <trkpt lat="43.30351" lon="6.53867">
        <ele>373.8</ele>
        <time>2022-02-04T17:09:31Z</time>
      </trkpt>
      <trkpt lat="43.30354" lon="6.53866">
        <ele>374.4</ele>
        <time>2022-02-04T17:09:32Z</time>
      </trkpt>
      <trkpt lat="43.30357" lon="6.53866">
        <ele>375</ele>
        <time>2022-02-04T17:09:33Z</time>
      </trkpt>
      <trkpt lat="43.3036" lon="6.53866">
        <ele>376</ele>
        <time>2022-02-04T17:09:34Z</time>
      </trkpt>
      <trkpt lat="43.30363" lon="6.53865">
        <ele>376.6</ele>
        <time>2022-02-04T17:09:35Z</time>
      </trkpt>
      <trkpt lat="43.30366" lon="6.53865">
        <ele>377.8</ele>
        <time>2022-02-04T17:09:36Z</time>
      </trkpt>
      <trkpt lat="43.3037" lon="6.53864">
        <ele>378.6</ele>
        <time>2022-02-04T17:09:37Z</time>
      </trkpt>
      <trkpt lat="43.30373" lon="6.53864">
        <ele>378.8</ele>
        <time>2022-02-04T17:09:38Z</time>
      </trkpt>
      <trkpt lat="43.30376" lon="6.53864">
        <ele>378.8</ele>
        <time>2022-02-04T17:09:39Z</time>
      </trkpt>
      <trkpt lat="43.3038" lon="6.53864">
        <ele>378.8</ele>
        <time>2022-02-04T17:09:40Z</time>
      </trkpt>
      <trkpt lat="43.30383" lon="6.53866">
        <ele>379</ele>
        <time>2022-02-04T17:09:41Z</time>
      </trkpt>
      <trkpt lat="43.30387" lon="6.53868">
        <ele>379.6</ele>
        <time>2022-02-04T17:09:42Z</time>
      </trkpt>
      <trkpt lat="43.3039" lon="6.5387">
        <ele>380.4</ele>
        <time>2022-02-04T17:09:43Z</time>
      </trkpt>
      <trkpt lat="43.30393" lon="6.53873">
        <ele>380.8</ele>
        <time>2022-02-04T17:09:44Z</time>
      </trkpt>
      <trkpt lat="43.30395" lon="6.53876">
        <ele>381.4</ele>
        <time>2022-02-04T17:09:45Z</time>
      </trkpt>
      <trkpt lat="43.30397" lon="6.5388">
        <ele>382</ele>
        <time>2022-02-04T17:09:46Z</time>
      </trkpt>
      <trkpt lat="43.30398" lon="6.53883">
        <ele>382.2</ele>
        <time>2022-02-04T17:09:47Z</time>
      </trkpt>
      <trkpt lat="43.304" lon="6.53887">
        <ele>382.4</ele>
        <time>2022-02-04T17:09:48Z</time>
      </trkpt>
      <trkpt lat="43.304" lon="6.5389">
        <ele>382.6</ele>
        <time>2022-02-04T17:09:49Z</time>
      </trkpt>
      <trkpt lat="43.304" lon="6.53893">
        <ele>382.8</ele>
        <time>2022-02-04T17:09:50Z</time>
      </trkpt>
      <trkpt lat="43.30399" lon="6.53895">
        <ele>382.6</ele>
        <time>2022-02-04T17:09:51Z</time>
      </trkpt>
      <trkpt lat="43.30399" lon="6.53898">
        <ele>382.6</ele>
        <time>2022-02-04T17:09:52Z</time>
      </trkpt>
      <trkpt lat="43.30398" lon="6.53901">
        <ele>382.4</ele>
        <time>2022-02-04T17:09:53Z</time>
      </trkpt>
      <trkpt lat="43.30396" lon="6.53904">
        <ele>382.4</ele>
        <time>2022-02-04T17:09:54Z</time>
      </trkpt>
      <trkpt lat="43.30394" lon="6.53906">
        <ele>382.4</ele>
        <time>2022-02-04T17:09:55Z</time>
      </trkpt>
      <trkpt lat="43.30393" lon="6.53908">
        <ele>382.2</ele>
        <time>2022-02-04T17:09:56Z</time>
      </trkpt>
      <trkpt lat="43.30391" lon="6.5391">
        <ele>382.2</ele>
        <time>2022-02-04T17:09:57Z</time>
      </trkpt>
      <trkpt lat="43.3039" lon="6.53912">
        <ele>382</ele>
        <time>2022-02-04T17:09:58Z</time>
      </trkpt>
      <trkpt lat="43.3039" lon="6.53912">
        <ele>381.8</ele>
        <time>2022-02-04T17:09:59Z</time>
      </trkpt>
      <trkpt lat="43.3039" lon="6.53912">
        <ele>381.6</ele>
        <time>2022-02-04T17:10:00Z</time>
      </trkpt>
      <trkpt lat="43.3039" lon="6.53912">
        <ele>381.4</ele>
        <time>2022-02-04T17:10:01Z</time>
      </trkpt>
      <trkpt lat="43.3039" lon="6.53911">
        <ele>381.4</ele>
        <time>2022-02-04T17:10:02Z</time>
      </trkpt>
      <trkpt lat="43.3039" lon="6.53911">
        <ele>381.2</ele>
        <time>2022-02-04T17:10:03Z</time>
      </trkpt>
      <trkpt lat="43.3039" lon="6.53911">
        <ele>381.2</ele>
        <time>2022-02-04T17:10:04Z</time>
      </trkpt>
      <trkpt lat="43.3039" lon="6.53911">
        <ele>381</ele>
        <time>2022-02-04T17:10:05Z</time>
      </trkpt>
      <trkpt lat="43.3039" lon="6.53911">
        <ele>381</ele>
        <time>2022-02-04T17:10:06Z</time>
      </trkpt>
      <trkpt lat="43.3039" lon="6.53911">
        <ele>380.8</ele>
        <time>2022-02-04T17:10:07Z</time>
      </trkpt>
      <trkpt lat="43.3039" lon="6.53911">
        <ele>380.8</ele>
        <time>2022-02-04T17:10:08Z</time>
      </trkpt>
      <trkpt lat="43.3039" lon="6.53911">
        <ele>380.8</ele>
        <time>2022-02-04T17:10:09Z</time>
      </trkpt>
      <trkpt lat="43.3039" lon="6.53911">
        <ele>380.6</ele>
        <time>2022-02-04T17:10:10Z</time>
      </trkpt>
      <trkpt lat="43.3039" lon="6.53911">
        <ele>380.6</ele>
        <time>2022-02-04T17:10:11Z</time>
      </trkpt>
      <trkpt lat="43.3039" lon="6.53911">
        <ele>380.6</ele>
        <time>2022-02-04T17:10:12Z</time>
      </trkpt>
      <trkpt lat="43.3039" lon="6.53911">
        <ele>380.6</ele>
        <time>2022-02-04T17:10:13Z</time>
      </trkpt>
      <trkpt lat="43.3039" lon="6.53911">
        <ele>380.6</ele>
        <time>2022-02-04T17:10:14Z</time>
      </trkpt>
      <trkpt lat="43.3039" lon="6.53911">
        <ele>380.6</ele>
        <time>2022-02-04T17:10:15Z</time>
      </trkpt>
      <trkpt lat="43.3039" lon="6.53911">
        <ele>380.6</ele>
        <time>2022-02-04T17:10:16Z</time>
      </trkpt>
      <trkpt lat="43.3039" lon="6.53911">
        <ele>380.6</ele>
        <time>2022-02-04T17:10:17Z</time>
      </trkpt>
      <trkpt lat="43.3039" lon="6.53911">
        <ele>380.8</ele>
        <time>2022-02-04T17:10:18Z</time>
      </trkpt>
      <trkpt lat="43.3039" lon="6.53911">
        <ele>380.8</ele>
        <time>2022-02-04T17:10:19Z</time>
      </trkpt>
      <trkpt lat="43.3039" lon="6.53911">
        <ele>380.8</ele>
        <time>2022-02-04T17:10:20Z</time>
      </trkpt>
      <trkpt lat="43.3039" lon="6.53911">
        <ele>380.6</ele>
        <time>2022-02-04T17:10:21Z</time>
      </trkpt>
      <trkpt lat="43.3039" lon="6.53911">
        <ele>380.6</ele>
        <time>2022-02-04T17:10:22Z</time>
      </trkpt>
      <trkpt lat="43.3039" lon="6.53911">
        <ele>380.6</ele>
        <time>2022-02-04T17:10:23Z</time>
      </trkpt>
      <trkpt lat="43.3039" lon="6.53911">
        <ele>380.4</ele>
        <time>2022-02-04T17:10:24Z</time>
      </trkpt>
      <trkpt lat="43.3039" lon="6.53911">
        <ele>380.2</ele>
        <time>2022-02-04T17:10:25Z</time>
      </trkpt>
      <trkpt lat="43.3039" lon="6.53911">
        <ele>380.2</ele>
        <time>2022-02-04T17:10:26Z</time>
      </trkpt>
      <trkpt lat="43.3039" lon="6.53911">
        <ele>380.2</ele>
        <time>2022-02-04T17:10:27Z</time>
      </trkpt>
      <trkpt lat="43.3039" lon="6.53911">
        <ele>380</ele>
        <time>2022-02-04T17:10:28Z</time>
      </trkpt>
      <trkpt lat="43.30391" lon="6.53911">
        <ele>380</ele>
        <time>2022-02-04T17:10:29Z</time>
      </trkpt>
      <trkpt lat="43.30391" lon="6.53911">
        <ele>380</ele>
        <time>2022-02-04T17:10:30Z</time>
      </trkpt>
      <trkpt lat="43.30391" lon="6.53911">
        <ele>380.2</ele>
        <time>2022-02-04T17:10:31Z</time>
      </trkpt>
      <trkpt lat="43.30391" lon="6.53911">
        <ele>380.2</ele>
        <time>2022-02-04T17:10:32Z</time>
      </trkpt>
      <trkpt lat="43.30391" lon="6.53911">
        <ele>380.2</ele>
        <time>2022-02-04T17:10:33Z</time>
      </trkpt>
      <trkpt lat="43.30391" lon="6.53911">
        <ele>380.2</ele>
        <time>2022-02-04T17:10:34Z</time>
      </trkpt>
      <trkpt lat="43.30391" lon="6.53911">
        <ele>380.2</ele>
        <time>2022-02-04T17:10:35Z</time>
      </trkpt>
      <trkpt lat="43.30391" lon="6.53911">
        <ele>380.2</ele>
        <time>2022-02-04T17:10:36Z</time>
      </trkpt>
      <trkpt lat="43.30391" lon="6.53911">
        <ele>380</ele>
        <time>2022-02-04T17:10:37Z</time>
      </trkpt>
      <trkpt lat="43.30391" lon="6.53911">
        <ele>380</ele>
        <time>2022-02-04T17:10:38Z</time>
      </trkpt>
      <trkpt lat="43.30391" lon="6.53911">
        <ele>380</ele>
        <time>2022-02-04T17:10:39Z</time>
      </trkpt>
      <trkpt lat="43.30391" lon="6.53911">
        <ele>380</ele>
        <time>2022-02-04T17:10:40Z</time>
      </trkpt>
      <trkpt lat="43.30391" lon="6.53911">
        <ele>379.8</ele>
        <time>2022-02-04T17:10:41Z</time>
      </trkpt>
      <trkpt lat="43.30391" lon="6.53911">
        <ele>379.8</ele>
        <time>2022-02-04T17:10:42Z</time>
      </trkpt>
      <trkpt lat="43.30391" lon="6.53911">
        <ele>379.8</ele>
        <time>2022-02-04T17:10:43Z</time>
      </trkpt>
      <trkpt lat="43.30391" lon="6.53911">
        <ele>379.6</ele>
        <time>2022-02-04T17:10:44Z</time>
      </trkpt>
      <trkpt lat="43.30391" lon="6.53911">
        <ele>379.6</ele>
        <time>2022-02-04T17:10:45Z</time>
      </trkpt>
      <trkpt lat="43.30391" lon="6.53911">
        <ele>379.6</ele>
        <time>2022-02-04T17:10:46Z</time>
      </trkpt>
      <trkpt lat="43.30391" lon="6.53911">
        <ele>379.4</ele>
        <time>2022-02-04T17:10:47Z</time>
      </trkpt>
      <trkpt lat="43.30391" lon="6.53911">
        <ele>379.4</ele>
        <time>2022-02-04T17:10:48Z</time>
      </trkpt>
      <trkpt lat="43.30391" lon="6.53911">
        <ele>379.4</ele>
        <time>2022-02-04T17:10:49Z</time>
      </trkpt>
      <trkpt lat="43.30391" lon="6.53911">
        <ele>379.2</ele>
        <time>2022-02-04T17:10:50Z</time>
      </trkpt>
      <trkpt lat="43.30391" lon="6.53911">
        <ele>379.2</ele>
        <time>2022-02-04T17:10:51Z</time>
      </trkpt>
      <trkpt lat="43.30391" lon="6.53911">
        <ele>379.2</ele>
        <time>2022-02-04T17:10:52Z</time>
      </trkpt>
      <trkpt lat="43.30391" lon="6.53911">
        <ele>379.2</ele>
        <time>2022-02-04T17:10:53Z</time>
      </trkpt>
      <trkpt lat="43.30391" lon="6.53911">
        <ele>379</ele>
        <time>2022-02-04T17:10:54Z</time>
      </trkpt>
      <trkpt lat="43.30391" lon="6.53911">
        <ele>379</ele>
        <time>2022-02-04T17:10:55Z</time>
      </trkpt>
      <trkpt lat="43.30391" lon="6.53911">
        <ele>379</ele>
        <time>2022-02-04T17:10:56Z</time>
      </trkpt>
      <trkpt lat="43.30391" lon="6.53911">
        <ele>379</ele>
        <time>2022-02-04T17:10:57Z</time>
      </trkpt>
      <trkpt lat="43.30391" lon="6.53911">
        <ele>379</ele>
        <time>2022-02-04T17:10:58Z</time>
      </trkpt>
      <trkpt lat="43.30391" lon="6.53911">
        <ele>379</ele>
        <time>2022-02-04T17:10:59Z</time>
      </trkpt>
      <trkpt lat="43.30391" lon="6.53911">
        <ele>379</ele>
        <time>2022-02-04T17:11:00Z</time>
      </trkpt>
      <trkpt lat="43.30391" lon="6.53911">
        <ele>379</ele>
        <time>2022-02-04T17:11:01Z</time>
      </trkpt>
      <trkpt lat="43.30391" lon="6.53911">
        <ele>379</ele>
        <time>2022-02-04T17:11:02Z</time>
      </trkpt>
      <trkpt lat="43.30391" lon="6.53911">
        <ele>379</ele>
        <time>2022-02-04T17:11:03Z</time>
      </trkpt>
      <trkpt lat="43.30391" lon="6.53911">
        <ele>379</ele>
        <time>2022-02-04T17:11:04Z</time>
      </trkpt>
      <trkpt lat="43.30391" lon="6.53911">
        <ele>378.8</ele>
        <time>2022-02-04T17:11:05Z</time>
      </trkpt>
      <trkpt lat="43.30391" lon="6.53911">
        <ele>378.8</ele>
        <time>2022-02-04T17:11:06Z</time>
      </trkpt>
      <trkpt lat="43.30391" lon="6.53911">
        <ele>378.8</ele>
        <time>2022-02-04T17:11:07Z</time>
      </trkpt>
      <trkpt lat="43.30391" lon="6.53911">
        <ele>378.8</ele>
        <time>2022-02-04T17:11:08Z</time>
      </trkpt>
      <trkpt lat="43.30391" lon="6.53911">
        <ele>378.8</ele>
        <time>2022-02-04T17:11:09Z</time>
      </trkpt>
      <trkpt lat="43.30391" lon="6.53911">
        <ele>379</ele>
        <time>2022-02-04T17:11:10Z</time>
      </trkpt>
      <trkpt lat="43.30391" lon="6.53911">
        <ele>379</ele>
        <time>2022-02-04T17:11:11Z</time>
      </trkpt>
      <trkpt lat="43.30391" lon="6.53911">
        <ele>379</ele>
        <time>2022-02-04T17:11:12Z</time>
      </trkpt>
      <trkpt lat="43.30391" lon="6.53911">
        <ele>379.2</ele>
        <time>2022-02-04T17:11:13Z</time>
      </trkpt>
      <trkpt lat="43.30391" lon="6.53911">
        <ele>379.2</ele>
        <time>2022-02-04T17:11:14Z</time>
      </trkpt>
      <trkpt lat="43.30391" lon="6.53911">
        <ele>379.2</ele>
        <time>2022-02-04T17:11:15Z</time>
      </trkpt>
      <trkpt lat="43.30391" lon="6.53911">
        <ele>379</ele>
        <time>2022-02-04T17:11:16Z</time>
      </trkpt>
      <trkpt lat="43.30391" lon="6.53911">
        <ele>378.6</ele>
        <time>2022-02-04T17:11:17Z</time>
      </trkpt>
      <trkpt lat="43.30391" lon="6.53911">
        <ele>378.6</ele>
        <time>2022-02-04T17:11:18Z</time>
      </trkpt>
      <trkpt lat="43.30391" lon="6.53911">
        <ele>378.4</ele>
        <time>2022-02-04T17:11:19Z</time>
      </trkpt>
      <trkpt lat="43.30391" lon="6.53911">
        <ele>378.2</ele>
        <time>2022-02-04T17:11:20Z</time>
      </trkpt>
      <trkpt lat="43.30391" lon="6.53911">
        <ele>378.2</ele>
        <time>2022-02-04T17:11:21Z</time>
      </trkpt>
      <trkpt lat="43.30391" lon="6.53911">
        <ele>378.2</ele>
        <time>2022-02-04T17:11:22Z</time>
      </trkpt>
      <trkpt lat="43.30391" lon="6.53911">
        <ele>378.4</ele>
        <time>2022-02-04T17:11:23Z</time>
      </trkpt>
      <trkpt lat="43.30391" lon="6.53911">
        <ele>378.4</ele>
        <time>2022-02-04T17:11:24Z</time>
      </trkpt>
      <trkpt lat="43.30391" lon="6.53911">
        <ele>378.4</ele>
        <time>2022-02-04T17:11:25Z</time>
      </trkpt>
      <trkpt lat="43.30391" lon="6.53911">
        <ele>378.6</ele>
        <time>2022-02-04T17:11:26Z</time>
      </trkpt>
      <trkpt lat="43.30391" lon="6.53911">
        <ele>378.4</ele>
        <time>2022-02-04T17:11:27Z</time>
      </trkpt>
      <trkpt lat="43.30391" lon="6.53911">
        <ele>378.2</ele>
        <time>2022-02-04T17:11:28Z</time>
      </trkpt>
      <trkpt lat="43.30391" lon="6.53911">
        <ele>378.2</ele>
        <time>2022-02-04T17:11:29Z</time>
      </trkpt>
      <trkpt lat="43.30391" lon="6.53911">
        <ele>378</ele>
        <time>2022-02-04T17:11:30Z</time>
      </trkpt>
      <trkpt lat="43.30391" lon="6.53911">
        <ele>378</ele>
        <time>2022-02-04T17:11:31Z</time>
      </trkpt>
      <trkpt lat="43.30391" lon="6.53911">
        <ele>378</ele>
        <time>2022-02-04T17:11:32Z</time>
      </trkpt>
      <trkpt lat="43.30391" lon="6.53911">
        <ele>378</ele>
        <time>2022-02-04T17:11:33Z</time>
      </trkpt>
      <trkpt lat="43.30391" lon="6.53911">
        <ele>378</ele>
        <time>2022-02-04T17:11:34Z</time>
      </trkpt>
      <trkpt lat="43.30391" lon="6.53911">
        <ele>378.2</ele>
        <time>2022-02-04T17:11:35Z</time>
      </trkpt>
      <trkpt lat="43.30391" lon="6.53911">
        <ele>378.2</ele>
        <time>2022-02-04T17:11:36Z</time>
      </trkpt>
      <trkpt lat="43.30391" lon="6.53911">
        <ele>378.2</ele>
        <time>2022-02-04T17:11:37Z</time>
      </trkpt>
      <trkpt lat="43.30391" lon="6.53911">
        <ele>378.2</ele>
        <time>2022-02-04T17:11:38Z</time>
      </trkpt>
      <trkpt lat="43.30391" lon="6.53911">
        <ele>378</ele>
        <time>2022-02-04T17:11:39Z</time>
      </trkpt>
      <trkpt lat="43.30391" lon="6.53911">
        <ele>378</ele>
        <time>2022-02-04T17:11:40Z</time>
      </trkpt>
      <trkpt lat="43.30391" lon="6.53911">
        <ele>377.8</ele>
        <time>2022-02-04T17:11:41Z</time>
      </trkpt>
      <trkpt lat="43.30391" lon="6.53911">
        <ele>377.8</ele>
        <time>2022-02-04T17:11:42Z</time>
      </trkpt>
      <trkpt lat="43.30391" lon="6.53911">
        <ele>377.6</ele>
        <time>2022-02-04T17:11:43Z</time>
      </trkpt>
      <trkpt lat="43.30391" lon="6.53911">
        <ele>377.6</ele>
        <time>2022-02-04T17:11:44Z</time>
      </trkpt>
      <trkpt lat="43.30391" lon="6.53911">
        <ele>377.8</ele>
        <time>2022-02-04T17:11:45Z</time>
      </trkpt>
      <trkpt lat="43.30391" lon="6.53911">
        <ele>377.8</ele>
        <time>2022-02-04T17:11:46Z</time>
      </trkpt>
      <trkpt lat="43.30391" lon="6.53911">
        <ele>378</ele>
        <time>2022-02-04T17:11:47Z</time>
      </trkpt>
      <trkpt lat="43.30391" lon="6.53911">
        <ele>378</ele>
        <time>2022-02-04T17:11:48Z</time>
      </trkpt>
      <trkpt lat="43.30391" lon="6.53911">
        <ele>378</ele>
        <time>2022-02-04T17:11:49Z</time>
      </trkpt>
      <trkpt lat="43.30391" lon="6.53911">
        <ele>378</ele>
        <time>2022-02-04T17:11:50Z</time>
      </trkpt>
      <trkpt lat="43.30391" lon="6.53911">
        <ele>378.2</ele>
        <time>2022-02-04T17:11:51Z</time>
      </trkpt>
      <trkpt lat="43.30391" lon="6.53911">
        <ele>378.2</ele>
        <time>2022-02-04T17:11:52Z</time>
      </trkpt>
      <trkpt lat="43.30391" lon="6.53911">
        <ele>378.2</ele>
        <time>2022-02-04T17:11:53Z</time>
      </trkpt>
      <trkpt lat="43.30391" lon="6.53911">
        <ele>378.2</ele>
        <time>2022-02-04T17:11:54Z</time>
      </trkpt>
      <trkpt lat="43.30391" lon="6.53911">
        <ele>378.2</ele>
        <time>2022-02-04T17:11:55Z</time>
      </trkpt>
      <trkpt lat="43.30391" lon="6.53911">
        <ele>378.2</ele>
        <time>2022-02-04T17:11:56Z</time>
      </trkpt>
      <trkpt lat="43.30391" lon="6.53911">
        <ele>378.2</ele>
        <time>2022-02-04T17:11:57Z</time>
      </trkpt>
      <trkpt lat="43.30391" lon="6.53911">
        <ele>378.2</ele>
        <time>2022-02-04T17:11:58Z</time>
      </trkpt>
      <trkpt lat="43.30391" lon="6.53911">
        <ele>378.2</ele>
        <time>2022-02-04T17:11:59Z</time>
      </trkpt>
      <trkpt lat="43.30391" lon="6.53911">
        <ele>378.2</ele>
        <time>2022-02-04T17:12:00Z</time>
      </trkpt>
      <trkpt lat="43.30391" lon="6.53911">
        <ele>378.2</ele>
        <time>2022-02-04T17:12:01Z</time>
      </trkpt>
      <trkpt lat="43.30391" lon="6.53911">
        <ele>378</ele>
        <time>2022-02-04T17:12:02Z</time>
      </trkpt>
      <trkpt lat="43.30391" lon="6.53911">
        <ele>378</ele>
        <time>2022-02-04T17:12:03Z</time>
      </trkpt>
      <trkpt lat="43.30391" lon="6.53911">
        <ele>378</ele>
        <time>2022-02-04T17:12:04Z</time>
      </trkpt>
      <trkpt lat="43.30391" lon="6.53911">
        <ele>378</ele>
        <time>2022-02-04T17:12:05Z</time>
      </trkpt>
      <trkpt lat="43.30391" lon="6.53911">
        <ele>378</ele>
        <time>2022-02-04T17:12:06Z</time>
      </trkpt>
      <trkpt lat="43.30391" lon="6.53911">
        <ele>378</ele>
        <time>2022-02-04T17:12:07Z</time>
      </trkpt>
      <trkpt lat="43.30391" lon="6.53911">
        <ele>378</ele>
        <time>2022-02-04T17:12:08Z</time>
      </trkpt>
      <trkpt lat="43.30391" lon="6.53911">
        <ele>377.8</ele>
        <time>2022-02-04T17:12:09Z</time>
      </trkpt>
      <trkpt lat="43.30391" lon="6.53911">
        <ele>377.8</ele>
        <time>2022-02-04T17:12:10Z</time>
      </trkpt>
      <trkpt lat="43.30391" lon="6.53911">
        <ele>377.8</ele>
        <time>2022-02-04T17:12:11Z</time>
      </trkpt>
      <trkpt lat="43.30391" lon="6.53911">
        <ele>377.8</ele>
        <time>2022-02-04T17:12:12Z</time>
      </trkpt>
      <trkpt lat="43.30391" lon="6.53911">
        <ele>377.8</ele>
        <time>2022-02-04T17:12:13Z</time>
      </trkpt>
      <trkpt lat="43.30391" lon="6.53911">
        <ele>377.8</ele>
        <time>2022-02-04T17:12:14Z</time>
      </trkpt>
      <trkpt lat="43.30391" lon="6.53911">
        <ele>377.8</ele>
        <time>2022-02-04T17:12:15Z</time>
      </trkpt>
      <trkpt lat="43.30391" lon="6.53911">
        <ele>377.6</ele>
        <time>2022-02-04T17:12:16Z</time>
      </trkpt>
      <trkpt lat="43.30391" lon="6.53911">
        <ele>377.6</ele>
        <time>2022-02-04T17:12:17Z</time>
      </trkpt>
      <trkpt lat="43.30391" lon="6.53911">
        <ele>377.6</ele>
        <time>2022-02-04T17:12:18Z</time>
      </trkpt>
      <trkpt lat="43.30391" lon="6.53911">
        <ele>377.6</ele>
        <time>2022-02-04T17:12:19Z</time>
      </trkpt>
      <trkpt lat="43.30391" lon="6.53911">
        <ele>377.6</ele>
        <time>2022-02-04T17:12:20Z</time>
      </trkpt>
      <trkpt lat="43.30391" lon="6.53911">
        <ele>377.6</ele>
        <time>2022-02-04T17:12:21Z</time>
      </trkpt>
      <trkpt lat="43.30391" lon="6.53911">
        <ele>377.6</ele>
        <time>2022-02-04T17:12:22Z</time>
      </trkpt>
      <trkpt lat="43.30391" lon="6.53911">
        <ele>377.6</ele>
        <time>2022-02-04T17:12:23Z</time>
      </trkpt>
      <trkpt lat="43.30391" lon="6.53911">
        <ele>377.6</ele>
        <time>2022-02-04T17:12:24Z</time>
      </trkpt>
      <trkpt lat="43.30391" lon="6.53911">
        <ele>377.6</ele>
        <time>2022-02-04T17:12:25Z</time>
      </trkpt>
      <trkpt lat="43.30391" lon="6.53911">
        <ele>377.6</ele>
        <time>2022-02-04T17:12:26Z</time>
      </trkpt>
      <trkpt lat="43.30391" lon="6.53911">
        <ele>377.6</ele>
        <time>2022-02-04T17:12:27Z</time>
      </trkpt>
      <trkpt lat="43.30391" lon="6.53911">
        <ele>377.6</ele>
        <time>2022-02-04T17:12:28Z</time>
      </trkpt>
      <trkpt lat="43.30391" lon="6.53911">
        <ele>377.6</ele>
        <time>2022-02-04T17:12:29Z</time>
      </trkpt>
      <trkpt lat="43.30391" lon="6.53911">
        <ele>377.6</ele>
        <time>2022-02-04T17:12:30Z</time>
      </trkpt>
      <trkpt lat="43.30391" lon="6.53911">
        <ele>377.4</ele>
        <time>2022-02-04T17:12:31Z</time>
      </trkpt>
      <trkpt lat="43.30391" lon="6.53911">
        <ele>377.4</ele>
        <time>2022-02-04T17:12:32Z</time>
      </trkpt>
      <trkpt lat="43.30391" lon="6.53911">
        <ele>377.4</ele>
        <time>2022-02-04T17:12:33Z</time>
      </trkpt>
      <trkpt lat="43.30391" lon="6.53911">
        <ele>377.4</ele>
        <time>2022-02-04T17:12:34Z</time>
      </trkpt>
      <trkpt lat="43.30391" lon="6.53911">
        <ele>377.2</ele>
        <time>2022-02-04T17:12:35Z</time>
      </trkpt>
      <trkpt lat="43.30391" lon="6.53911">
        <ele>377.2</ele>
        <time>2022-02-04T17:12:36Z</time>
      </trkpt>
      <trkpt lat="43.30391" lon="6.53911">
        <ele>377.2</ele>
        <time>2022-02-04T17:12:37Z</time>
      </trkpt>
      <trkpt lat="43.30391" lon="6.53911">
        <ele>377.2</ele>
        <time>2022-02-04T17:12:38Z</time>
      </trkpt>
      <trkpt lat="43.30391" lon="6.53911">
        <ele>377.2</ele>
        <time>2022-02-04T17:12:39Z</time>
      </trkpt>
      <trkpt lat="43.30391" lon="6.53911">
        <ele>377.2</ele>
        <time>2022-02-04T17:12:40Z</time>
      </trkpt>
      <trkpt lat="43.30391" lon="6.53911">
        <ele>377.2</ele>
        <time>2022-02-04T17:12:41Z</time>
      </trkpt>
      <trkpt lat="43.30391" lon="6.53911">
        <ele>377.2</ele>
        <time>2022-02-04T17:12:42Z</time>
      </trkpt>
      <trkpt lat="43.30391" lon="6.53911">
        <ele>377.2</ele>
        <time>2022-02-04T17:12:43Z</time>
      </trkpt>
      <trkpt lat="43.30391" lon="6.53911">
        <ele>377</ele>
        <time>2022-02-04T17:12:44Z</time>
      </trkpt>
      <trkpt lat="43.30391" lon="6.53911">
        <ele>377</ele>
        <time>2022-02-04T17:12:45Z</time>
      </trkpt>
      <trkpt lat="43.30391" lon="6.53911">
        <ele>377</ele>
        <time>2022-02-04T17:12:46Z</time>
      </trkpt>
      <trkpt lat="43.30391" lon="6.53911">
        <ele>377</ele>
        <time>2022-02-04T17:12:47Z</time>
      </trkpt>
      <trkpt lat="43.30391" lon="6.53911">
        <ele>377</ele>
        <time>2022-02-04T17:12:48Z</time>
      </trkpt>
      <trkpt lat="43.30391" lon="6.53911">
        <ele>377</ele>
        <time>2022-02-04T17:12:49Z</time>
      </trkpt>
      <trkpt lat="43.30391" lon="6.53911">
        <ele>377</ele>
        <time>2022-02-04T17:12:50Z</time>
      </trkpt>
      <trkpt lat="43.30391" lon="6.53911">
        <ele>377</ele>
        <time>2022-02-04T17:12:51Z</time>
      </trkpt>
      <trkpt lat="43.30391" lon="6.53911">
        <ele>377</ele>
        <time>2022-02-04T17:12:52Z</time>
      </trkpt>
      <trkpt lat="43.30391" lon="6.53911">
        <ele>377.2</ele>
        <time>2022-02-04T17:12:53Z</time>
      </trkpt>
      <trkpt lat="43.30391" lon="6.53911">
        <ele>377.2</ele>
        <time>2022-02-04T17:12:54Z</time>
      </trkpt>
      <trkpt lat="43.30391" lon="6.53911">
        <ele>377.2</ele>
        <time>2022-02-04T17:12:55Z</time>
      </trkpt>
      <trkpt lat="43.30391" lon="6.53911">
        <ele>377.2</ele>
        <time>2022-02-04T17:12:56Z</time>
      </trkpt>
      <trkpt lat="43.30391" lon="6.53911">
        <ele>377.2</ele>
        <time>2022-02-04T17:12:57Z</time>
      </trkpt>
      <trkpt lat="43.30391" lon="6.53911">
        <ele>377.2</ele>
        <time>2022-02-04T17:12:58Z</time>
      </trkpt>
      <trkpt lat="43.30391" lon="6.53911">
        <ele>377.2</ele>
        <time>2022-02-04T17:12:59Z</time>
      </trkpt>
      <trkpt lat="43.30391" lon="6.53911">
        <ele>377</ele>
        <time>2022-02-04T17:13:00Z</time>
      </trkpt>
      <trkpt lat="43.30391" lon="6.53911">
        <ele>377</ele>
        <time>2022-02-04T17:13:01Z</time>
      </trkpt>
      <trkpt lat="43.30391" lon="6.53911">
        <ele>377</ele>
        <time>2022-02-04T17:13:02Z</time>
      </trkpt>
      <trkpt lat="43.30391" lon="6.53911">
        <ele>377</ele>
        <time>2022-02-04T17:13:03Z</time>
      </trkpt>
      <trkpt lat="43.30391" lon="6.53911">
        <ele>376.8</ele>
        <time>2022-02-04T17:13:04Z</time>
      </trkpt>
      <trkpt lat="43.30391" lon="6.53911">
        <ele>376.8</ele>
        <time>2022-02-04T17:13:05Z</time>
      </trkpt>
      <trkpt lat="43.30391" lon="6.53911">
        <ele>376.8</ele>
        <time>2022-02-04T17:13:06Z</time>
      </trkpt>
      <trkpt lat="43.30391" lon="6.53911">
        <ele>376.8</ele>
        <time>2022-02-04T17:13:07Z</time>
      </trkpt>
      <trkpt lat="43.30391" lon="6.53911">
        <ele>376.8</ele>
        <time>2022-02-04T17:13:08Z</time>
      </trkpt>
      <trkpt lat="43.30391" lon="6.53911">
        <ele>377</ele>
        <time>2022-02-04T17:13:09Z</time>
      </trkpt>
      <trkpt lat="43.30391" lon="6.53911">
        <ele>377</ele>
        <time>2022-02-04T17:13:10Z</time>
      </trkpt>
      <trkpt lat="43.30391" lon="6.53911">
        <ele>377</ele>
        <time>2022-02-04T17:13:11Z</time>
      </trkpt>
      <trkpt lat="43.30391" lon="6.53911">
        <ele>377</ele>
        <time>2022-02-04T17:13:12Z</time>
      </trkpt>
      <trkpt lat="43.30391" lon="6.53911">
        <ele>377</ele>
        <time>2022-02-04T17:13:13Z</time>
      </trkpt>
      <trkpt lat="43.30391" lon="6.53911">
        <ele>377</ele>
        <time>2022-02-04T17:13:14Z</time>
      </trkpt>
      <trkpt lat="43.30391" lon="6.53911">
        <ele>377</ele>
        <time>2022-02-04T17:13:15Z</time>
      </trkpt>
      <trkpt lat="43.30391" lon="6.53911">
        <ele>377</ele>
        <time>2022-02-04T17:13:16Z</time>
      </trkpt>
      <trkpt lat="43.30391" lon="6.53911">
        <ele>377</ele>
        <time>2022-02-04T17:13:17Z</time>
      </trkpt>
      <trkpt lat="43.30391" lon="6.53911">
        <ele>377.2</ele>
        <time>2022-02-04T17:13:18Z</time>
      </trkpt>
      <trkpt lat="43.30391" lon="6.53911">
        <ele>377.2</ele>
        <time>2022-02-04T17:13:19Z</time>
      </trkpt>
      <trkpt lat="43.30391" lon="6.53911">
        <ele>377.2</ele>
        <time>2022-02-04T17:13:20Z</time>
      </trkpt>
      <trkpt lat="43.30391" lon="6.53911">
        <ele>377.2</ele>
        <time>2022-02-04T17:13:21Z</time>
      </trkpt>
      <trkpt lat="43.30391" lon="6.53911">
        <ele>377.2</ele>
        <time>2022-02-04T17:13:22Z</time>
      </trkpt>
      <trkpt lat="43.30391" lon="6.53911">
        <ele>377.2</ele>
        <time>2022-02-04T17:13:23Z</time>
      </trkpt>
      <trkpt lat="43.30391" lon="6.53911">
        <ele>377.2</ele>
        <time>2022-02-04T17:13:24Z</time>
      </trkpt>
      <trkpt lat="43.30391" lon="6.53911">
        <ele>377.2</ele>
        <time>2022-02-04T17:13:25Z</time>
      </trkpt>
      <trkpt lat="43.30391" lon="6.53911">
        <ele>377.2</ele>
        <time>2022-02-04T17:13:26Z</time>
      </trkpt>
      <trkpt lat="43.30391" lon="6.53911">
        <ele>377.2</ele>
        <time>2022-02-04T17:13:27Z</time>
      </trkpt>
      <trkpt lat="43.30391" lon="6.53911">
        <ele>377.2</ele>
        <time>2022-02-04T17:13:28Z</time>
      </trkpt>
      <trkpt lat="43.30391" lon="6.53911">
        <ele>377</ele>
        <time>2022-02-04T17:13:29Z</time>
      </trkpt>
      <trkpt lat="43.30391" lon="6.53911">
        <ele>377</ele>
        <time>2022-02-04T17:13:30Z</time>
      </trkpt>
      <trkpt lat="43.30391" lon="6.53911">
        <ele>377</ele>
        <time>2022-02-04T17:13:31Z</time>
      </trkpt>
      <trkpt lat="43.30391" lon="6.53911">
        <ele>377</ele>
        <time>2022-02-04T17:13:32Z</time>
      </trkpt>
      <trkpt lat="43.30391" lon="6.53911">
        <ele>377</ele>
        <time>2022-02-04T17:13:33Z</time>
      </trkpt>
      <trkpt lat="43.30391" lon="6.53911">
        <ele>377</ele>
        <time>2022-02-04T17:13:34Z</time>
      </trkpt>
      <trkpt lat="43.30391" lon="6.53911">
        <ele>377</ele>
        <time>2022-02-04T17:13:35Z</time>
      </trkpt>
      <trkpt lat="43.30391" lon="6.53911">
        <ele>377</ele>
        <time>2022-02-04T17:13:36Z</time>
      </trkpt>
      <trkpt lat="43.30391" lon="6.53911">
        <ele>377</ele>
        <time>2022-02-04T17:13:37Z</time>
      </trkpt>
      <trkpt lat="43.30391" lon="6.53911">
        <ele>377</ele>
        <time>2022-02-04T17:13:38Z</time>
      </trkpt>
      <trkpt lat="43.30391" lon="6.53911">
        <ele>377</ele>
        <time>2022-02-04T17:13:39Z</time>
      </trkpt>
      <trkpt lat="43.30391" lon="6.53911">
        <ele>377</ele>
        <time>2022-02-04T17:13:40Z</time>
      </trkpt>
      <trkpt lat="43.30391" lon="6.53911">
        <ele>377</ele>
        <time>2022-02-04T17:13:41Z</time>
      </trkpt>
      <trkpt lat="43.30391" lon="6.53911">
        <ele>377</ele>
        <time>2022-02-04T17:13:42Z</time>
      </trkpt>
      <trkpt lat="43.30391" lon="6.53911">
        <ele>377</ele>
        <time>2022-02-04T17:13:43Z</time>
      </trkpt>
      <trkpt lat="43.30391" lon="6.53911">
        <ele>377</ele>
        <time>2022-02-04T17:13:44Z</time>
      </trkpt>
      <trkpt lat="43.30391" lon="6.53911">
        <ele>377</ele>
        <time>2022-02-04T17:13:45Z</time>
      </trkpt>
      <trkpt lat="43.30391" lon="6.53911">
        <ele>377</ele>
        <time>2022-02-04T17:13:46Z</time>
      </trkpt>
      <trkpt lat="43.30391" lon="6.53911">
        <ele>377</ele>
        <time>2022-02-04T17:13:47Z</time>
      </trkpt>
      <trkpt lat="43.30391" lon="6.53911">
        <ele>377</ele>
        <time>2022-02-04T17:13:48Z</time>
      </trkpt>
      <trkpt lat="43.30391" lon="6.53911">
        <ele>377</ele>
        <time>2022-02-04T17:13:49Z</time>
      </trkpt>
      <trkpt lat="43.30391" lon="6.53911">
        <ele>377</ele>
        <time>2022-02-04T17:13:50Z</time>
      </trkpt>
      <trkpt lat="43.30391" lon="6.53911">
        <ele>377.2</ele>
        <time>2022-02-04T17:13:51Z</time>
      </trkpt>
      <trkpt lat="43.30391" lon="6.53911">
        <ele>377.2</ele>
        <time>2022-02-04T17:13:52Z</time>
      </trkpt>
      <trkpt lat="43.30391" lon="6.53911">
        <ele>377.2</ele>
        <time>2022-02-04T17:13:53Z</time>
      </trkpt>
      <trkpt lat="43.30391" lon="6.53911">
        <ele>377.2</ele>
        <time>2022-02-04T17:13:54Z</time>
      </trkpt>
      <trkpt lat="43.30391" lon="6.53911">
        <ele>377.2</ele>
        <time>2022-02-04T17:13:55Z</time>
      </trkpt>
      <trkpt lat="43.30391" lon="6.53911">
        <ele>377.2</ele>
        <time>2022-02-04T17:13:56Z</time>
      </trkpt>
      <trkpt lat="43.30391" lon="6.53911">
        <ele>377.2</ele>
        <time>2022-02-04T17:13:57Z</time>
      </trkpt>
      <trkpt lat="43.30391" lon="6.53911">
        <ele>377.2</ele>
        <time>2022-02-04T17:13:58Z</time>
      </trkpt>
      <trkpt lat="43.30391" lon="6.53911">
        <ele>377.2</ele>
        <time>2022-02-04T17:13:59Z</time>
      </trkpt>
      <trkpt lat="43.30391" lon="6.53911">
        <ele>377.2</ele>
        <time>2022-02-04T17:14:00Z</time>
      </trkpt>
      <trkpt lat="43.30391" lon="6.53911">
        <ele>377.2</ele>
        <time>2022-02-04T17:14:01Z</time>
      </trkpt>
      <trkpt lat="43.30391" lon="6.53911">
        <ele>377.2</ele>
        <time>2022-02-04T17:14:02Z</time>
      </trkpt>
      <trkpt lat="43.30391" lon="6.53911">
        <ele>377</ele>
        <time>2022-02-04T17:14:03Z</time>
      </trkpt>
      <trkpt lat="43.30391" lon="6.53911">
        <ele>377</ele>
        <time>2022-02-04T17:14:04Z</time>
      </trkpt>
      <trkpt lat="43.30391" lon="6.53911">
        <ele>377</ele>
        <time>2022-02-04T17:14:05Z</time>
      </trkpt>
      <trkpt lat="43.30391" lon="6.53911">
        <ele>377</ele>
        <time>2022-02-04T17:14:06Z</time>
      </trkpt>
      <trkpt lat="43.30391" lon="6.53911">
        <ele>377</ele>
        <time>2022-02-04T17:14:07Z</time>
      </trkpt>
      <trkpt lat="43.30391" lon="6.53911">
        <ele>377</ele>
        <time>2022-02-04T17:14:08Z</time>
      </trkpt>
      <trkpt lat="43.30391" lon="6.53911">
        <ele>377</ele>
        <time>2022-02-04T17:14:09Z</time>
      </trkpt>
      <trkpt lat="43.30391" lon="6.53911">
        <ele>377</ele>
        <time>2022-02-04T17:14:10Z</time>
      </trkpt>
      <trkpt lat="43.30391" lon="6.53911">
        <ele>377</ele>
        <time>2022-02-04T17:14:11Z</time>
      </trkpt>
      <trkpt lat="43.30391" lon="6.53911">
        <ele>376.8</ele>
        <time>2022-02-04T17:14:12Z</time>
      </trkpt>
      <trkpt lat="43.30391" lon="6.53911">
        <ele>376.8</ele>
        <time>2022-02-04T17:14:13Z</time>
      </trkpt>
      <trkpt lat="43.30391" lon="6.53911">
        <ele>376.8</ele>
        <time>2022-02-04T17:14:14Z</time>
      </trkpt>
      <trkpt lat="43.30391" lon="6.53911">
        <ele>376.8</ele>
        <time>2022-02-04T17:14:15Z</time>
      </trkpt>
      <trkpt lat="43.30391" lon="6.53911">
        <ele>376.8</ele>
        <time>2022-02-04T17:14:16Z</time>
      </trkpt>
      <trkpt lat="43.30391" lon="6.53911">
        <ele>376.8</ele>
        <time>2022-02-04T17:14:17Z</time>
      </trkpt>
      <trkpt lat="43.30391" lon="6.53911">
        <ele>377</ele>
        <time>2022-02-04T17:14:18Z</time>
      </trkpt>
      <trkpt lat="43.30391" lon="6.53911">
        <ele>377</ele>
        <time>2022-02-04T17:14:19Z</time>
      </trkpt>
      <trkpt lat="43.30391" lon="6.5391">
        <ele>377</ele>
        <time>2022-02-04T17:14:20Z</time>
      </trkpt>
      <trkpt lat="43.30391" lon="6.5391">
        <ele>377</ele>
        <time>2022-02-04T17:14:21Z</time>
      </trkpt>
      <trkpt lat="43.30391" lon="6.5391">
        <ele>377</ele>
        <time>2022-02-04T17:14:22Z</time>
      </trkpt>
      <trkpt lat="43.30391" lon="6.5391">
        <ele>377</ele>
        <time>2022-02-04T17:14:23Z</time>
      </trkpt>
      <trkpt lat="43.30391" lon="6.5391">
        <ele>376.8</ele>
        <time>2022-02-04T17:14:24Z</time>
      </trkpt>
      <trkpt lat="43.30391" lon="6.5391">
        <ele>376.8</ele>
        <time>2022-02-04T17:14:25Z</time>
      </trkpt>
      <trkpt lat="43.30391" lon="6.5391">
        <ele>376.8</ele>
        <time>2022-02-04T17:14:26Z</time>
      </trkpt>
      <trkpt lat="43.30391" lon="6.5391">
        <ele>376.8</ele>
        <time>2022-02-04T17:14:27Z</time>
      </trkpt>
      <trkpt lat="43.30391" lon="6.5391">
        <ele>376.8</ele>
        <time>2022-02-04T17:14:28Z</time>
      </trkpt>
      <trkpt lat="43.30391" lon="6.5391">
        <ele>376.8</ele>
        <time>2022-02-04T17:14:29Z</time>
      </trkpt>
      <trkpt lat="43.30391" lon="6.5391">
        <ele>376.8</ele>
        <time>2022-02-04T17:14:30Z</time>
      </trkpt>
      <trkpt lat="43.30391" lon="6.5391">
        <ele>376.8</ele>
        <time>2022-02-04T17:14:31Z</time>
      </trkpt>
      <trkpt lat="43.30391" lon="6.5391">
        <ele>376.8</ele>
        <time>2022-02-04T17:14:32Z</time>
      </trkpt>
      <trkpt lat="43.30391" lon="6.5391">
        <ele>376.6</ele>
        <time>2022-02-04T17:14:33Z</time>
      </trkpt>
      <trkpt lat="43.30391" lon="6.5391">
        <ele>376.6</ele>
        <time>2022-02-04T17:14:34Z</time>
      </trkpt>
      <trkpt lat="43.3039" lon="6.5391">
        <ele>376.6</ele>
        <time>2022-02-04T17:14:35Z</time>
      </trkpt>
      <trkpt lat="43.3039" lon="6.5391">
        <ele>376.6</ele>
        <time>2022-02-04T17:14:36Z</time>
      </trkpt>
      <trkpt lat="43.3039" lon="6.5391">
        <ele>376.4</ele>
        <time>2022-02-04T17:14:37Z</time>
      </trkpt>
      <trkpt lat="43.3039" lon="6.5391">
        <ele>376.4</ele>
        <time>2022-02-04T17:14:38Z</time>
      </trkpt>
      <trkpt lat="43.3039" lon="6.5391">
        <ele>376.4</ele>
        <time>2022-02-04T17:14:39Z</time>
      </trkpt>
      <trkpt lat="43.3039" lon="6.5391">
        <ele>376.4</ele>
        <time>2022-02-04T17:14:40Z</time>
      </trkpt>
      <trkpt lat="43.3039" lon="6.5391">
        <ele>376.4</ele>
        <time>2022-02-04T17:14:41Z</time>
      </trkpt>
      <trkpt lat="43.3039" lon="6.5391">
        <ele>376.4</ele>
        <time>2022-02-04T17:14:42Z</time>
      </trkpt>
      <trkpt lat="43.3039" lon="6.5391">
        <ele>376.4</ele>
        <time>2022-02-04T17:14:43Z</time>
      </trkpt>
      <trkpt lat="43.3039" lon="6.5391">
        <ele>376.4</ele>
        <time>2022-02-04T17:14:44Z</time>
      </trkpt>
      <trkpt lat="43.3039" lon="6.5391">
        <ele>376.4</ele>
        <time>2022-02-04T17:14:45Z</time>
      </trkpt>
      <trkpt lat="43.3039" lon="6.5391">
        <ele>376.4</ele>
        <time>2022-02-04T17:14:46Z</time>
      </trkpt>
      <trkpt lat="43.3039" lon="6.5391">
        <ele>376.4</ele>
        <time>2022-02-04T17:14:47Z</time>
      </trkpt>
      <trkpt lat="43.3039" lon="6.5391">
        <ele>376.4</ele>
        <time>2022-02-04T17:14:48Z</time>
      </trkpt>
      <trkpt lat="43.3039" lon="6.5391">
        <ele>376.4</ele>
        <time>2022-02-04T17:14:49Z</time>
      </trkpt>
      <trkpt lat="43.3039" lon="6.5391">
        <ele>376.4</ele>
        <time>2022-02-04T17:14:50Z</time>
      </trkpt>
      <trkpt lat="43.3039" lon="6.5391">
        <ele>376.4</ele>
        <time>2022-02-04T17:14:51Z</time>
      </trkpt>
      <trkpt lat="43.3039" lon="6.5391">
        <ele>376.2</ele>
        <time>2022-02-04T17:14:52Z</time>
      </trkpt>
      <trkpt lat="43.3039" lon="6.5391">
        <ele>376.2</ele>
        <time>2022-02-04T17:14:53Z</time>
      </trkpt>
      <trkpt lat="43.3039" lon="6.5391">
        <ele>376.2</ele>
        <time>2022-02-04T17:14:54Z</time>
      </trkpt>
      <trkpt lat="43.3039" lon="6.5391">
        <ele>376</ele>
        <time>2022-02-04T17:14:55Z</time>
      </trkpt>
      <trkpt lat="43.3039" lon="6.5391">
        <ele>376</ele>
        <time>2022-02-04T17:14:56Z</time>
      </trkpt>
      <trkpt lat="43.3039" lon="6.5391">
        <ele>376</ele>
        <time>2022-02-04T17:14:57Z</time>
      </trkpt>
      <trkpt lat="43.3039" lon="6.5391">
        <ele>376</ele>
        <time>2022-02-04T17:14:58Z</time>
      </trkpt>
      <trkpt lat="43.3039" lon="6.5391">
        <ele>376</ele>
        <time>2022-02-04T17:14:59Z</time>
      </trkpt>
      <trkpt lat="43.3039" lon="6.5391">
        <ele>376</ele>
        <time>2022-02-04T17:15:00Z</time>
      </trkpt>
      <trkpt lat="43.3039" lon="6.5391">
        <ele>376</ele>
        <time>2022-02-04T17:15:01Z</time>
      </trkpt>
      <trkpt lat="43.3039" lon="6.5391">
        <ele>376</ele>
        <time>2022-02-04T17:15:02Z</time>
      </trkpt>
      <trkpt lat="43.3039" lon="6.5391">
        <ele>376</ele>
        <time>2022-02-04T17:15:03Z</time>
      </trkpt>
      <trkpt lat="43.3039" lon="6.5391">
        <ele>376</ele>
        <time>2022-02-04T17:15:04Z</time>
      </trkpt>
      <trkpt lat="43.3039" lon="6.5391">
        <ele>376</ele>
        <time>2022-02-04T17:15:05Z</time>
      </trkpt>
      <trkpt lat="43.3039" lon="6.5391">
        <ele>376</ele>
        <time>2022-02-04T17:15:06Z</time>
      </trkpt>
      <trkpt lat="43.3039" lon="6.5391">
        <ele>376</ele>
        <time>2022-02-04T17:15:07Z</time>
      </trkpt>
      <trkpt lat="43.3039" lon="6.5391">
        <ele>376</ele>
        <time>2022-02-04T17:15:08Z</time>
      </trkpt>
      <trkpt lat="43.3039" lon="6.5391">
        <ele>376</ele>
        <time>2022-02-04T17:15:09Z</time>
      </trkpt>
      <trkpt lat="43.3039" lon="6.5391">
        <ele>376</ele>
        <time>2022-02-04T17:15:10Z</time>
      </trkpt>
      <trkpt lat="43.3039" lon="6.5391">
        <ele>376</ele>
        <time>2022-02-04T17:15:11Z</time>
      </trkpt>
      <trkpt lat="43.3039" lon="6.5391">
        <ele>376</ele>
        <time>2022-02-04T17:15:12Z</time>
      </trkpt>
      <trkpt lat="43.3039" lon="6.5391">
        <ele>376</ele>
        <time>2022-02-04T17:15:13Z</time>
      </trkpt>
      <trkpt lat="43.3039" lon="6.5391">
        <ele>376</ele>
        <time>2022-02-04T17:15:14Z</time>
      </trkpt>
      <trkpt lat="43.3039" lon="6.5391">
        <ele>376.2</ele>
        <time>2022-02-04T17:15:15Z</time>
      </trkpt>
      <trkpt lat="43.3039" lon="6.5391">
        <ele>376.2</ele>
        <time>2022-02-04T17:15:16Z</time>
      </trkpt>
      <trkpt lat="43.3039" lon="6.5391">
        <ele>376.2</ele>
        <time>2022-02-04T17:15:17Z</time>
      </trkpt>
      <trkpt lat="43.3039" lon="6.5391">
        <ele>376.2</ele>
        <time>2022-02-04T17:15:18Z</time>
      </trkpt>
      <trkpt lat="43.3039" lon="6.5391">
        <ele>376</ele>
        <time>2022-02-04T17:15:19Z</time>
      </trkpt>
      <trkpt lat="43.3039" lon="6.5391">
        <ele>376</ele>
        <time>2022-02-04T17:15:20Z</time>
      </trkpt>
      <trkpt lat="43.3039" lon="6.5391">
        <ele>376</ele>
        <time>2022-02-04T17:15:21Z</time>
      </trkpt>
      <trkpt lat="43.3039" lon="6.5391">
        <ele>376</ele>
        <time>2022-02-04T17:15:22Z</time>
      </trkpt>
      <trkpt lat="43.3039" lon="6.5391">
        <ele>375.8</ele>
        <time>2022-02-04T17:15:23Z</time>
      </trkpt>
      <trkpt lat="43.3039" lon="6.5391">
        <ele>375.8</ele>
        <time>2022-02-04T17:15:24Z</time>
      </trkpt>
      <trkpt lat="43.3039" lon="6.5391">
        <ele>375.8</ele>
        <time>2022-02-04T17:15:25Z</time>
      </trkpt>
      <trkpt lat="43.3039" lon="6.5391">
        <ele>375.8</ele>
        <time>2022-02-04T17:15:26Z</time>
      </trkpt>
      <trkpt lat="43.3039" lon="6.5391">
        <ele>375.8</ele>
        <time>2022-02-04T17:15:27Z</time>
      </trkpt>
      <trkpt lat="43.3039" lon="6.5391">
        <ele>375.6</ele>
        <time>2022-02-04T17:15:28Z</time>
      </trkpt>
      <trkpt lat="43.3039" lon="6.5391">
        <ele>375.6</ele>
        <time>2022-02-04T17:15:29Z</time>
      </trkpt>
      <trkpt lat="43.3039" lon="6.5391">
        <ele>375.6</ele>
        <time>2022-02-04T17:15:30Z</time>
      </trkpt>
      <trkpt lat="43.3039" lon="6.5391">
        <ele>375.6</ele>
        <time>2022-02-04T17:15:31Z</time>
      </trkpt>
      <trkpt lat="43.3039" lon="6.5391">
        <ele>375.6</ele>
        <time>2022-02-04T17:15:32Z</time>
      </trkpt>
      <trkpt lat="43.3039" lon="6.5391">
        <ele>375.6</ele>
        <time>2022-02-04T17:15:33Z</time>
      </trkpt>
      <trkpt lat="43.3039" lon="6.5391">
        <ele>375.6</ele>
        <time>2022-02-04T17:15:34Z</time>
      </trkpt>
      <trkpt lat="43.3039" lon="6.5391">
        <ele>375.6</ele>
        <time>2022-02-04T17:15:35Z</time>
      </trkpt>
      <trkpt lat="43.3039" lon="6.5391">
        <ele>375.6</ele>
        <time>2022-02-04T17:15:36Z</time>
      </trkpt>
      <trkpt lat="43.3039" lon="6.5391">
        <ele>375.8</ele>
        <time>2022-02-04T17:15:37Z</time>
      </trkpt>
      <trkpt lat="43.3039" lon="6.5391">
        <ele>376</ele>
        <time>2022-02-04T17:15:38Z</time>
      </trkpt>
      <trkpt lat="43.3039" lon="6.5391">
        <ele>376.2</ele>
        <time>2022-02-04T17:15:39Z</time>
      </trkpt>
      <trkpt lat="43.3039" lon="6.5391">
        <ele>376.2</ele>
        <time>2022-02-04T17:15:40Z</time>
      </trkpt>
      <trkpt lat="43.3039" lon="6.5391">
        <ele>376.2</ele>
        <time>2022-02-04T17:15:41Z</time>
      </trkpt>
      <trkpt lat="43.3039" lon="6.5391">
        <ele>376.2</ele>
        <time>2022-02-04T17:15:42Z</time>
      </trkpt>
      <trkpt lat="43.3039" lon="6.5391">
        <ele>376.2</ele>
        <time>2022-02-04T17:15:43Z</time>
      </trkpt>
      <trkpt lat="43.3039" lon="6.5391">
        <ele>376.2</ele>
        <time>2022-02-04T17:15:44Z</time>
      </trkpt>
      <trkpt lat="43.3039" lon="6.5391">
        <ele>376.2</ele>
        <time>2022-02-04T17:15:45Z</time>
      </trkpt>
      <trkpt lat="43.3039" lon="6.5391">
        <ele>376</ele>
        <time>2022-02-04T17:15:46Z</time>
      </trkpt>
      <trkpt lat="43.3039" lon="6.5391">
        <ele>375.8</ele>
        <time>2022-02-04T17:15:47Z</time>
      </trkpt>
      <trkpt lat="43.3039" lon="6.5391">
        <ele>375.8</ele>
        <time>2022-02-04T17:15:48Z</time>
      </trkpt>
      <trkpt lat="43.3039" lon="6.5391">
        <ele>375.6</ele>
        <time>2022-02-04T17:15:49Z</time>
      </trkpt>
      <trkpt lat="43.3039" lon="6.5391">
        <ele>375.6</ele>
        <time>2022-02-04T17:15:50Z</time>
      </trkpt>
      <trkpt lat="43.3039" lon="6.5391">
        <ele>375.6</ele>
        <time>2022-02-04T17:15:51Z</time>
      </trkpt>
      <trkpt lat="43.3039" lon="6.5391">
        <ele>375.6</ele>
        <time>2022-02-04T17:15:52Z</time>
      </trkpt>
      <trkpt lat="43.3039" lon="6.5391">
        <ele>375.6</ele>
        <time>2022-02-04T17:15:53Z</time>
      </trkpt>
      <trkpt lat="43.3039" lon="6.5391">
        <ele>375.6</ele>
        <time>2022-02-04T17:15:54Z</time>
      </trkpt>
      <trkpt lat="43.3039" lon="6.5391">
        <ele>375.6</ele>
        <time>2022-02-04T17:15:55Z</time>
      </trkpt>
      <trkpt lat="43.3039" lon="6.5391">
        <ele>375.4</ele>
        <time>2022-02-04T17:15:56Z</time>
      </trkpt>
      <trkpt lat="43.3039" lon="6.5391">
        <ele>375.4</ele>
        <time>2022-02-04T17:15:57Z</time>
      </trkpt>
      <trkpt lat="43.3039" lon="6.5391">
        <ele>375.4</ele>
        <time>2022-02-04T17:15:58Z</time>
      </trkpt>
      <trkpt lat="43.3039" lon="6.5391">
        <ele>375.4</ele>
        <time>2022-02-04T17:15:59Z</time>
      </trkpt>
      <trkpt lat="43.3039" lon="6.5391">
        <ele>375.6</ele>
        <time>2022-02-04T17:16:00Z</time>
      </trkpt>
      <trkpt lat="43.3039" lon="6.5391">
        <ele>375.6</ele>
        <time>2022-02-04T17:16:01Z</time>
      </trkpt>
      <trkpt lat="43.3039" lon="6.5391">
        <ele>375.8</ele>
        <time>2022-02-04T17:16:02Z</time>
      </trkpt>
      <trkpt lat="43.3039" lon="6.5391">
        <ele>375.8</ele>
        <time>2022-02-04T17:16:03Z</time>
      </trkpt>
      <trkpt lat="43.3039" lon="6.5391">
        <ele>375.8</ele>
        <time>2022-02-04T17:16:04Z</time>
      </trkpt>
      <trkpt lat="43.3039" lon="6.5391">
        <ele>375.8</ele>
        <time>2022-02-04T17:16:05Z</time>
      </trkpt>
      <trkpt lat="43.3039" lon="6.5391">
        <ele>375.6</ele>
        <time>2022-02-04T17:16:06Z</time>
      </trkpt>
      <trkpt lat="43.3039" lon="6.5391">
        <ele>375.6</ele>
        <time>2022-02-04T17:16:07Z</time>
      </trkpt>
      <trkpt lat="43.3039" lon="6.5391">
        <ele>375.6</ele>
        <time>2022-02-04T17:16:08Z</time>
      </trkpt>
      <trkpt lat="43.3039" lon="6.5391">
        <ele>375.6</ele>
        <time>2022-02-04T17:16:09Z</time>
      </trkpt>
      <trkpt lat="43.3039" lon="6.5391">
        <ele>375.6</ele>
        <time>2022-02-04T17:16:10Z</time>
      </trkpt>
      <trkpt lat="43.3039" lon="6.5391">
        <ele>375.6</ele>
        <time>2022-02-04T17:16:11Z</time>
      </trkpt>
      <trkpt lat="43.3039" lon="6.5391">
        <ele>375.6</ele>
        <time>2022-02-04T17:16:12Z</time>
      </trkpt>
      <trkpt lat="43.3039" lon="6.5391">
        <ele>375.6</ele>
        <time>2022-02-04T17:16:13Z</time>
      </trkpt>
      <trkpt lat="43.3039" lon="6.5391">
        <ele>375.6</ele>
        <time>2022-02-04T17:16:14Z</time>
      </trkpt>
      <trkpt lat="43.3039" lon="6.5391">
        <ele>375.6</ele>
        <time>2022-02-04T17:16:15Z</time>
      </trkpt>
      <trkpt lat="43.3039" lon="6.5391">
        <ele>375.6</ele>
        <time>2022-02-04T17:16:16Z</time>
      </trkpt>
      <trkpt lat="43.3039" lon="6.5391">
        <ele>375.6</ele>
        <time>2022-02-04T17:16:17Z</time>
      </trkpt>
      <trkpt lat="43.3039" lon="6.5391">
        <ele>375.6</ele>
        <time>2022-02-04T17:16:18Z</time>
      </trkpt>
      <trkpt lat="43.3039" lon="6.5391">
        <ele>375.6</ele>
        <time>2022-02-04T17:16:19Z</time>
      </trkpt>
      <trkpt lat="43.3039" lon="6.5391">
        <ele>375.6</ele>
        <time>2022-02-04T17:16:20Z</time>
      </trkpt>
      <trkpt lat="43.3039" lon="6.5391">
        <ele>375.6</ele>
        <time>2022-02-04T17:16:21Z</time>
      </trkpt>
      <trkpt lat="43.3039" lon="6.5391">
        <ele>375.6</ele>
        <time>2022-02-04T17:16:22Z</time>
      </trkpt>
      <trkpt lat="43.3039" lon="6.5391">
        <ele>375.6</ele>
        <time>2022-02-04T17:16:23Z</time>
      </trkpt>
      <trkpt lat="43.3039" lon="6.5391">
        <ele>375.6</ele>
        <time>2022-02-04T17:16:24Z</time>
      </trkpt>
      <trkpt lat="43.3039" lon="6.5391">
        <ele>375.6</ele>
        <time>2022-02-04T17:16:25Z</time>
      </trkpt>
      <trkpt lat="43.3039" lon="6.5391">
        <ele>375.6</ele>
        <time>2022-02-04T17:16:26Z</time>
      </trkpt>
      <trkpt lat="43.3039" lon="6.5391">
        <ele>375.6</ele>
        <time>2022-02-04T17:16:27Z</time>
      </trkpt>
      <trkpt lat="43.3039" lon="6.5391">
        <ele>375.6</ele>
        <time>2022-02-04T17:16:28Z</time>
      </trkpt>
      <trkpt lat="43.3039" lon="6.5391">
        <ele>375.6</ele>
        <time>2022-02-04T17:16:29Z</time>
      </trkpt>
      <trkpt lat="43.3039" lon="6.5391">
        <ele>375.6</ele>
        <time>2022-02-04T17:16:30Z</time>
      </trkpt>
      <trkpt lat="43.3039" lon="6.5391">
        <ele>375.6</ele>
        <time>2022-02-04T17:16:31Z</time>
      </trkpt>
      <trkpt lat="43.3039" lon="6.5391">
        <ele>375.6</ele>
        <time>2022-02-04T17:16:32Z</time>
      </trkpt>
      <trkpt lat="43.3039" lon="6.5391">
        <ele>375.6</ele>
        <time>2022-02-04T17:16:33Z</time>
      </trkpt>
      <trkpt lat="43.3039" lon="6.5391">
        <ele>375.6</ele>
        <time>2022-02-04T17:16:34Z</time>
      </trkpt>
      <trkpt lat="43.3039" lon="6.5391">
        <ele>375.6</ele>
        <time>2022-02-04T17:16:35Z</time>
      </trkpt>
      <trkpt lat="43.3039" lon="6.5391">
        <ele>375.6</ele>
        <time>2022-02-04T17:16:36Z</time>
      </trkpt>
      <trkpt lat="43.3039" lon="6.5391">
        <ele>375.6</ele>
        <time>2022-02-04T17:16:37Z</time>
      </trkpt>
      <trkpt lat="43.3039" lon="6.5391">
        <ele>375.6</ele>
        <time>2022-02-04T17:16:38Z</time>
      </trkpt>
      <trkpt lat="43.3039" lon="6.5391">
        <ele>375.6</ele>
        <time>2022-02-04T17:16:39Z</time>
      </trkpt>
      <trkpt lat="43.3039" lon="6.5391">
        <ele>375.6</ele>
        <time>2022-02-04T17:16:40Z</time>
      </trkpt>
      <trkpt lat="43.3039" lon="6.5391">
        <ele>375.6</ele>
        <time>2022-02-04T17:16:41Z</time>
      </trkpt>
      <trkpt lat="43.3039" lon="6.5391">
        <ele>375.6</ele>
        <time>2022-02-04T17:16:42Z</time>
      </trkpt>
      <trkpt lat="43.3039" lon="6.5391">
        <ele>375.6</ele>
        <time>2022-02-04T17:16:43Z</time>
      </trkpt>
      <trkpt lat="43.3039" lon="6.5391">
        <ele>375.6</ele>
        <time>2022-02-04T17:16:44Z</time>
      </trkpt>
      <trkpt lat="43.3039" lon="6.5391">
        <ele>375.6</ele>
        <time>2022-02-04T17:16:45Z</time>
      </trkpt>
      <trkpt lat="43.3039" lon="6.5391">
        <ele>375.6</ele>
        <time>2022-02-04T17:16:46Z</time>
      </trkpt>
      <trkpt lat="43.3039" lon="6.5391">
        <ele>375.6</ele>
        <time>2022-02-04T17:16:47Z</time>
      </trkpt>
      <trkpt lat="43.3039" lon="6.5391">
        <ele>375.6</ele>
        <time>2022-02-04T17:16:48Z</time>
      </trkpt>
      <trkpt lat="43.3039" lon="6.5391">
        <ele>375.6</ele>
        <time>2022-02-04T17:16:49Z</time>
      </trkpt>
      <trkpt lat="43.3039" lon="6.5391">
        <ele>375.6</ele>
        <time>2022-02-04T17:16:50Z</time>
      </trkpt>
      <trkpt lat="43.30388" lon="6.53912">
        <ele>375.6</ele>
        <time>2022-02-04T17:16:51Z</time>
      </trkpt>
      <trkpt lat="43.30385" lon="6.53914">
        <ele>375.6</ele>
        <time>2022-02-04T17:16:52Z</time>
      </trkpt>
      <trkpt lat="43.30381" lon="6.53917">
        <ele>375.6</ele>
        <time>2022-02-04T17:16:53Z</time>
      </trkpt>
      <trkpt lat="43.30376" lon="6.5392">
        <ele>375.6</ele>
        <time>2022-02-04T17:16:54Z</time>
      </trkpt>
      <trkpt lat="43.30372" lon="6.53923">
        <ele>375.6</ele>
        <time>2022-02-04T17:16:55Z</time>
      </trkpt>
      <trkpt lat="43.30367" lon="6.53926">
        <ele>375.4</ele>
        <time>2022-02-04T17:16:56Z</time>
      </trkpt>
      <trkpt lat="43.30363" lon="6.53927">
        <ele>375</ele>
        <time>2022-02-04T17:16:57Z</time>
      </trkpt>
      <trkpt lat="43.30359" lon="6.53928">
        <ele>374.6</ele>
        <time>2022-02-04T17:16:58Z</time>
      </trkpt>
      <trkpt lat="43.30355" lon="6.53929">
        <ele>374.4</ele>
        <time>2022-02-04T17:16:59Z</time>
      </trkpt>
      <trkpt lat="43.3035" lon="6.53928">
        <ele>373.8</ele>
        <time>2022-02-04T17:17:00Z</time>
      </trkpt>
      <trkpt lat="43.30345" lon="6.53928">
        <ele>373.6</ele>
        <time>2022-02-04T17:17:01Z</time>
      </trkpt>
      <trkpt lat="43.3034" lon="6.5393">
        <ele>373</ele>
        <time>2022-02-04T17:17:02Z</time>
      </trkpt>
      <trkpt lat="43.30336" lon="6.53931">
        <ele>373.2</ele>
        <time>2022-02-04T17:17:03Z</time>
      </trkpt>
      <trkpt lat="43.30333" lon="6.53935">
        <ele>372.6</ele>
        <time>2022-02-04T17:17:04Z</time>
      </trkpt>
      <trkpt lat="43.30331" lon="6.53941">
        <ele>372</ele>
        <time>2022-02-04T17:17:05Z</time>
      </trkpt>
      <trkpt lat="43.30329" lon="6.53948">
        <ele>371.4</ele>
        <time>2022-02-04T17:17:06Z</time>
      </trkpt>
      <trkpt lat="43.30327" lon="6.53956">
        <ele>371.2</ele>
        <time>2022-02-04T17:17:07Z</time>
      </trkpt>
      <trkpt lat="43.30323" lon="6.53964">
        <ele>371</ele>
        <time>2022-02-04T17:17:08Z</time>
      </trkpt>
      <trkpt lat="43.30317" lon="6.53971">
        <ele>370.8</ele>
        <time>2022-02-04T17:17:09Z</time>
      </trkpt>
      <trkpt lat="43.30312" lon="6.53977">
        <ele>370.4</ele>
        <time>2022-02-04T17:17:10Z</time>
      </trkpt>
      <trkpt lat="43.30306" lon="6.53985">
        <ele>369.8</ele>
        <time>2022-02-04T17:17:11Z</time>
      </trkpt>
      <trkpt lat="43.30301" lon="6.53992">
        <ele>369</ele>
        <time>2022-02-04T17:17:12Z</time>
      </trkpt>
      <trkpt lat="43.30296" lon="6.53997">
        <ele>367.4</ele>
        <time>2022-02-04T17:17:13Z</time>
      </trkpt>
      <trkpt lat="43.30293" lon="6.54003">
        <ele>366</ele>
        <time>2022-02-04T17:17:14Z</time>
      </trkpt>
      <trkpt lat="43.30292" lon="6.54008">
        <ele>365.2</ele>
        <time>2022-02-04T17:17:15Z</time>
      </trkpt>
      <trkpt lat="43.30293" lon="6.54014">
        <ele>364.6</ele>
        <time>2022-02-04T17:17:16Z</time>
      </trkpt>
      <trkpt lat="43.30293" lon="6.54022">
        <ele>364.4</ele>
        <time>2022-02-04T17:17:17Z</time>
      </trkpt>
      <trkpt lat="43.30294" lon="6.54031">
        <ele>363.6</ele>
        <time>2022-02-04T17:17:18Z</time>
      </trkpt>
      <trkpt lat="43.30294" lon="6.5404">
        <ele>362.6</ele>
        <time>2022-02-04T17:17:19Z</time>
      </trkpt>
      <trkpt lat="43.30295" lon="6.54047">
        <ele>361.6</ele>
        <time>2022-02-04T17:17:20Z</time>
      </trkpt>
      <trkpt lat="43.30297" lon="6.54051">
        <ele>360.2</ele>
        <time>2022-02-04T17:17:21Z</time>
      </trkpt>
      <trkpt lat="43.30302" lon="6.54053">
        <ele>359</ele>
        <time>2022-02-04T17:17:22Z</time>
      </trkpt>
      <trkpt lat="43.30307" lon="6.54053">
        <ele>357.8</ele>
        <time>2022-02-04T17:17:23Z</time>
      </trkpt>
      <trkpt lat="43.30312" lon="6.54054">
        <ele>357.2</ele>
        <time>2022-02-04T17:17:24Z</time>
      </trkpt>
      <trkpt lat="43.30315" lon="6.54058">
        <ele>356.4</ele>
        <time>2022-02-04T17:17:25Z</time>
      </trkpt>
      <trkpt lat="43.30315" lon="6.54064">
        <ele>355.4</ele>
        <time>2022-02-04T17:17:26Z</time>
      </trkpt>
      <trkpt lat="43.30314" lon="6.54074">
        <ele>353.6</ele>
        <time>2022-02-04T17:17:27Z</time>
      </trkpt>
      <trkpt lat="43.30312" lon="6.54084">
        <ele>350.8</ele>
        <time>2022-02-04T17:17:28Z</time>
      </trkpt>
      <trkpt lat="43.30311" lon="6.54097">
        <ele>346.8</ele>
        <time>2022-02-04T17:17:29Z</time>
      </trkpt>
      <trkpt lat="43.3031" lon="6.54111">
        <ele>344</ele>
        <time>2022-02-04T17:17:30Z</time>
      </trkpt>
      <trkpt lat="43.3031" lon="6.54122">
        <ele>342.6</ele>
        <time>2022-02-04T17:17:31Z</time>
      </trkpt>
      <trkpt lat="43.30309" lon="6.54131">
        <ele>341.6</ele>
        <time>2022-02-04T17:17:32Z</time>
      </trkpt>
      <trkpt lat="43.30308" lon="6.54142">
        <ele>340.8</ele>
        <time>2022-02-04T17:17:33Z</time>
      </trkpt>
      <trkpt lat="43.30307" lon="6.54153">
        <ele>340.6</ele>
        <time>2022-02-04T17:17:34Z</time>
      </trkpt>
      <trkpt lat="43.30306" lon="6.54167">
        <ele>340.4</ele>
        <time>2022-02-04T17:17:35Z</time>
      </trkpt>
      <trkpt lat="43.30306" lon="6.54179">
        <ele>340.2</ele>
        <time>2022-02-04T17:17:36Z</time>
      </trkpt>
      <trkpt lat="43.30307" lon="6.54191">
        <ele>339.8</ele>
        <time>2022-02-04T17:17:37Z</time>
      </trkpt>
      <trkpt lat="43.30308" lon="6.54204">
        <ele>339.4</ele>
        <time>2022-02-04T17:17:38Z</time>
      </trkpt>
      <trkpt lat="43.3031" lon="6.54216">
        <ele>339.4</ele>
        <time>2022-02-04T17:17:39Z</time>
      </trkpt>
      <trkpt lat="43.30314" lon="6.54226">
        <ele>339.4</ele>
        <time>2022-02-04T17:17:40Z</time>
      </trkpt>
      <trkpt lat="43.30318" lon="6.54233">
        <ele>339.4</ele>
        <time>2022-02-04T17:17:41Z</time>
      </trkpt>
      <trkpt lat="43.30321" lon="6.5424">
        <ele>339.4</ele>
        <time>2022-02-04T17:17:42Z</time>
      </trkpt>
      <trkpt lat="43.30322" lon="6.54246">
        <ele>339.8</ele>
        <time>2022-02-04T17:17:43Z</time>
      </trkpt>
      <trkpt lat="43.30323" lon="6.54254">
        <ele>340</ele>
        <time>2022-02-04T17:17:44Z</time>
      </trkpt>
      <trkpt lat="43.30324" lon="6.54262">
        <ele>340.6</ele>
        <time>2022-02-04T17:17:45Z</time>
      </trkpt>
      <trkpt lat="43.30325" lon="6.54271">
        <ele>341</ele>
        <time>2022-02-04T17:17:46Z</time>
      </trkpt>
      <trkpt lat="43.30325" lon="6.5428">
        <ele>341.2</ele>
        <time>2022-02-04T17:17:47Z</time>
      </trkpt>
      <trkpt lat="43.30324" lon="6.54288">
        <ele>341.6</ele>
        <time>2022-02-04T17:17:48Z</time>
      </trkpt>
      <trkpt lat="43.30322" lon="6.54296">
        <ele>342</ele>
        <time>2022-02-04T17:17:49Z</time>
      </trkpt>
      <trkpt lat="43.30319" lon="6.54303">
        <ele>341.8</ele>
        <time>2022-02-04T17:17:50Z</time>
      </trkpt>
      <trkpt lat="43.30315" lon="6.54307">
        <ele>341.8</ele>
        <time>2022-02-04T17:17:51Z</time>
      </trkpt>
      <trkpt lat="43.30312" lon="6.54309">
        <ele>342.2</ele>
        <time>2022-02-04T17:17:52Z</time>
      </trkpt>
      <trkpt lat="43.30307" lon="6.54313">
        <ele>342</ele>
        <time>2022-02-04T17:17:53Z</time>
      </trkpt>
      <trkpt lat="43.30301" lon="6.54316">
        <ele>342.6</ele>
        <time>2022-02-04T17:17:54Z</time>
      </trkpt>
      <trkpt lat="43.30295" lon="6.5432">
        <ele>342.6</ele>
        <time>2022-02-04T17:17:55Z</time>
      </trkpt>
      <trkpt lat="43.30291" lon="6.54323">
        <ele>342.2</ele>
        <time>2022-02-04T17:17:56Z</time>
      </trkpt>
      <trkpt lat="43.30289" lon="6.54327">
        <ele>341.8</ele>
        <time>2022-02-04T17:17:57Z</time>
      </trkpt>
      <trkpt lat="43.30288" lon="6.54334">
        <ele>341</ele>
        <time>2022-02-04T17:17:58Z</time>
      </trkpt>
      <trkpt lat="43.30289" lon="6.54338">
        <ele>340.6</ele>
        <time>2022-02-04T17:17:59Z</time>
      </trkpt>
      <trkpt lat="43.3029" lon="6.54344">
        <ele>339.8</ele>
        <time>2022-02-04T17:18:00Z</time>
      </trkpt>
      <trkpt lat="43.30291" lon="6.54348">
        <ele>339.4</ele>
        <time>2022-02-04T17:18:01Z</time>
      </trkpt>
      <trkpt lat="43.30293" lon="6.54354">
        <ele>339.2</ele>
        <time>2022-02-04T17:18:02Z</time>
      </trkpt>
      <trkpt lat="43.30293" lon="6.5436">
        <ele>339</ele>
        <time>2022-02-04T17:18:03Z</time>
      </trkpt>
      <trkpt lat="43.3029" lon="6.54367">
        <ele>338.6</ele>
        <time>2022-02-04T17:18:04Z</time>
      </trkpt>
      <trkpt lat="43.30286" lon="6.54373">
        <ele>336.6</ele>
        <time>2022-02-04T17:18:05Z</time>
      </trkpt>
      <trkpt lat="43.30283" lon="6.54379">
        <ele>335.8</ele>
        <time>2022-02-04T17:18:06Z</time>
      </trkpt>
      <trkpt lat="43.30282" lon="6.54384">
        <ele>335.2</ele>
        <time>2022-02-04T17:18:07Z</time>
      </trkpt>
      <trkpt lat="43.30282" lon="6.54391">
        <ele>334.4</ele>
        <time>2022-02-04T17:18:08Z</time>
      </trkpt>
      <trkpt lat="43.30282" lon="6.544">
        <ele>333.4</ele>
        <time>2022-02-04T17:18:09Z</time>
      </trkpt>
      <trkpt lat="43.30284" lon="6.54409">
        <ele>332.2</ele>
        <time>2022-02-04T17:18:10Z</time>
      </trkpt>
      <trkpt lat="43.30285" lon="6.5442">
        <ele>331</ele>
        <time>2022-02-04T17:18:11Z</time>
      </trkpt>
      <trkpt lat="43.30288" lon="6.5443">
        <ele>327.8</ele>
        <time>2022-02-04T17:18:12Z</time>
      </trkpt>
      <trkpt lat="43.3029" lon="6.54439">
        <ele>325.6</ele>
        <time>2022-02-04T17:18:13Z</time>
      </trkpt>
      <trkpt lat="43.30293" lon="6.54445">
        <ele>324.4</ele>
        <time>2022-02-04T17:18:14Z</time>
      </trkpt>
      <trkpt lat="43.30295" lon="6.54452">
        <ele>323.6</ele>
        <time>2022-02-04T17:18:15Z</time>
      </trkpt>
      <trkpt lat="43.30296" lon="6.5446">
        <ele>322.4</ele>
        <time>2022-02-04T17:18:16Z</time>
      </trkpt>
      <trkpt lat="43.30296" lon="6.5447">
        <ele>321</ele>
        <time>2022-02-04T17:18:17Z</time>
      </trkpt>
      <trkpt lat="43.30296" lon="6.54476">
        <ele>319.6</ele>
        <time>2022-02-04T17:18:18Z</time>
      </trkpt>
      <trkpt lat="43.30297" lon="6.54485">
        <ele>318.2</ele>
        <time>2022-02-04T17:18:19Z</time>
      </trkpt>
      <trkpt lat="43.30298" lon="6.54492">
        <ele>316.8</ele>
        <time>2022-02-04T17:18:20Z</time>
      </trkpt>
      <trkpt lat="43.30299" lon="6.545">
        <ele>315.6</ele>
        <time>2022-02-04T17:18:21Z</time>
      </trkpt>
      <trkpt lat="43.30299" lon="6.54506">
        <ele>314.6</ele>
        <time>2022-02-04T17:18:22Z</time>
      </trkpt>
      <trkpt lat="43.30298" lon="6.5451">
        <ele>313.4</ele>
        <time>2022-02-04T17:18:23Z</time>
      </trkpt>
      <trkpt lat="43.30296" lon="6.54512">
        <ele>311.4</ele>
        <time>2022-02-04T17:18:24Z</time>
      </trkpt>
      <trkpt lat="43.30293" lon="6.54514">
        <ele>310.2</ele>
        <time>2022-02-04T17:18:25Z</time>
      </trkpt>
      <trkpt lat="43.3029" lon="6.54516">
        <ele>309.6</ele>
        <time>2022-02-04T17:18:26Z</time>
      </trkpt>
      <trkpt lat="43.30287" lon="6.54518">
        <ele>309</ele>
        <time>2022-02-04T17:18:27Z</time>
      </trkpt>
      <trkpt lat="43.30286" lon="6.54522">
        <ele>308.4</ele>
        <time>2022-02-04T17:18:28Z</time>
      </trkpt>
      <trkpt lat="43.30286" lon="6.54526">
        <ele>307.8</ele>
        <time>2022-02-04T17:18:29Z</time>
      </trkpt>
      <trkpt lat="43.30287" lon="6.54531">
        <ele>307.4</ele>
        <time>2022-02-04T17:18:30Z</time>
      </trkpt>
      <trkpt lat="43.3029" lon="6.54536">
        <ele>306.6</ele>
        <time>2022-02-04T17:18:31Z</time>
      </trkpt>
      <trkpt lat="43.30292" lon="6.54541">
        <ele>305.8</ele>
        <time>2022-02-04T17:18:32Z</time>
      </trkpt>
      <trkpt lat="43.30291" lon="6.54545">
        <ele>304</ele>
        <time>2022-02-04T17:18:33Z</time>
      </trkpt>
      <trkpt lat="43.30288" lon="6.54548">
        <ele>302.6</ele>
        <time>2022-02-04T17:18:34Z</time>
      </trkpt>
      <trkpt lat="43.30285" lon="6.54552">
        <ele>301.4</ele>
        <time>2022-02-04T17:18:35Z</time>
      </trkpt>
      <trkpt lat="43.30281" lon="6.54556">
        <ele>300.6</ele>
        <time>2022-02-04T17:18:36Z</time>
      </trkpt>
      <trkpt lat="43.30278" lon="6.54562">
        <ele>299.8</ele>
        <time>2022-02-04T17:18:37Z</time>
      </trkpt>
      <trkpt lat="43.30276" lon="6.54571">
        <ele>299.4</ele>
        <time>2022-02-04T17:18:38Z</time>
      </trkpt>
      <trkpt lat="43.30276" lon="6.54581">
        <ele>297.6</ele>
        <time>2022-02-04T17:18:39Z</time>
      </trkpt>
      <trkpt lat="43.30275" lon="6.54592">
        <ele>296.4</ele>
        <time>2022-02-04T17:18:40Z</time>
      </trkpt>
      <trkpt lat="43.30272" lon="6.54602">
        <ele>295.6</ele>
        <time>2022-02-04T17:18:41Z</time>
      </trkpt>
      <trkpt lat="43.30266" lon="6.5461">
        <ele>294.6</ele>
        <time>2022-02-04T17:18:42Z</time>
      </trkpt>
      <trkpt lat="43.30261" lon="6.54618">
        <ele>293.8</ele>
        <time>2022-02-04T17:18:43Z</time>
      </trkpt>
      <trkpt lat="43.30257" lon="6.54624">
        <ele>291.6</ele>
        <time>2022-02-04T17:18:44Z</time>
      </trkpt>
      <trkpt lat="43.30253" lon="6.54631">
        <ele>288.4</ele>
        <time>2022-02-04T17:18:45Z</time>
      </trkpt>
      <trkpt lat="43.30251" lon="6.54637">
        <ele>286.8</ele>
        <time>2022-02-04T17:18:46Z</time>
      </trkpt>
      <trkpt lat="43.30247" lon="6.54644">
        <ele>285.2</ele>
        <time>2022-02-04T17:18:47Z</time>
      </trkpt>
      <trkpt lat="43.30243" lon="6.54648">
        <ele>284.2</ele>
        <time>2022-02-04T17:18:48Z</time>
      </trkpt>
      <trkpt lat="43.30238" lon="6.54651">
        <ele>283.4</ele>
        <time>2022-02-04T17:18:49Z</time>
      </trkpt>
      <trkpt lat="43.30232" lon="6.54653">
        <ele>282</ele>
        <time>2022-02-04T17:18:50Z</time>
      </trkpt>
      <trkpt lat="43.30227" lon="6.54656">
        <ele>280.6</ele>
        <time>2022-02-04T17:18:51Z</time>
      </trkpt>
      <trkpt lat="43.30223" lon="6.5466">
        <ele>280</ele>
        <time>2022-02-04T17:18:52Z</time>
      </trkpt>
      <trkpt lat="43.30218" lon="6.54663">
        <ele>279</ele>
        <time>2022-02-04T17:18:53Z</time>
      </trkpt>
      <trkpt lat="43.30212" lon="6.54665">
        <ele>278.4</ele>
        <time>2022-02-04T17:18:54Z</time>
      </trkpt>
      <trkpt lat="43.30206" lon="6.54668">
        <ele>278.2</ele>
        <time>2022-02-04T17:18:55Z</time>
      </trkpt>
      <trkpt lat="43.302" lon="6.54671">
        <ele>277.4</ele>
        <time>2022-02-04T17:18:56Z</time>
      </trkpt>
      <trkpt lat="43.30194" lon="6.54675">
        <ele>276.4</ele>
        <time>2022-02-04T17:18:57Z</time>
      </trkpt>
      <trkpt lat="43.30188" lon="6.54681">
        <ele>275.6</ele>
        <time>2022-02-04T17:18:58Z</time>
      </trkpt>
      <trkpt lat="43.30184" lon="6.54688">
        <ele>274.8</ele>
        <time>2022-02-04T17:18:59Z</time>
      </trkpt>
      <trkpt lat="43.30182" lon="6.54695">
        <ele>274.2</ele>
        <time>2022-02-04T17:19:00Z</time>
      </trkpt>
      <trkpt lat="43.30177" lon="6.54703">
        <ele>274.6</ele>
        <time>2022-02-04T17:19:01Z</time>
      </trkpt>
      <trkpt lat="43.30173" lon="6.54708">
        <ele>273.2</ele>
        <time>2022-02-04T17:19:02Z</time>
      </trkpt>
      <trkpt lat="43.30168" lon="6.54713">
        <ele>272.2</ele>
        <time>2022-02-04T17:19:03Z</time>
      </trkpt>
      <trkpt lat="43.30164" lon="6.54717">
        <ele>271.4</ele>
        <time>2022-02-04T17:19:04Z</time>
      </trkpt>
      <trkpt lat="43.30161" lon="6.54721">
        <ele>270.2</ele>
        <time>2022-02-04T17:19:05Z</time>
      </trkpt>
      <trkpt lat="43.30158" lon="6.54729">
        <ele>268.8</ele>
        <time>2022-02-04T17:19:06Z</time>
      </trkpt>
      <trkpt lat="43.30157" lon="6.54736">
        <ele>267</ele>
        <time>2022-02-04T17:19:07Z</time>
      </trkpt>
      <trkpt lat="43.30154" lon="6.54744">
        <ele>266</ele>
        <time>2022-02-04T17:19:08Z</time>
      </trkpt>
      <trkpt lat="43.30152" lon="6.54753">
        <ele>265.2</ele>
        <time>2022-02-04T17:19:09Z</time>
      </trkpt>
      <trkpt lat="43.30149" lon="6.5476">
        <ele>264.8</ele>
        <time>2022-02-04T17:19:10Z</time>
      </trkpt>
      <trkpt lat="43.30146" lon="6.54769">
        <ele>264.6</ele>
        <time>2022-02-04T17:19:11Z</time>
      </trkpt>
      <trkpt lat="43.30144" lon="6.54777">
        <ele>264.4</ele>
        <time>2022-02-04T17:19:12Z</time>
      </trkpt>
      <trkpt lat="43.30142" lon="6.54785">
        <ele>264.2</ele>
        <time>2022-02-04T17:19:13Z</time>
      </trkpt>
      <trkpt lat="43.30141" lon="6.54793">
        <ele>263.6</ele>
        <time>2022-02-04T17:19:14Z</time>
      </trkpt>
      <trkpt lat="43.30142" lon="6.54804">
        <ele>263.2</ele>
        <time>2022-02-04T17:19:15Z</time>
      </trkpt>
      <trkpt lat="43.30142" lon="6.54812">
        <ele>263</ele>
        <time>2022-02-04T17:19:16Z</time>
      </trkpt>
      <trkpt lat="43.30143" lon="6.5482">
        <ele>263</ele>
        <time>2022-02-04T17:19:17Z</time>
      </trkpt>
      <trkpt lat="43.30143" lon="6.54829">
        <ele>262.8</ele>
        <time>2022-02-04T17:19:18Z</time>
      </trkpt>
      <trkpt lat="43.30143" lon="6.54838">
        <ele>262.8</ele>
        <time>2022-02-04T17:19:19Z</time>
      </trkpt>
      <trkpt lat="43.30144" lon="6.54847">
        <ele>262.8</ele>
        <time>2022-02-04T17:19:20Z</time>
      </trkpt>
      <trkpt lat="43.30144" lon="6.54855">
        <ele>262.8</ele>
        <time>2022-02-04T17:19:21Z</time>
      </trkpt>
      <trkpt lat="43.30142" lon="6.54862">
        <ele>262.8</ele>
        <time>2022-02-04T17:19:22Z</time>
      </trkpt>
      <trkpt lat="43.3014" lon="6.54871">
        <ele>262.8</ele>
        <time>2022-02-04T17:19:23Z</time>
      </trkpt>
      <trkpt lat="43.30139" lon="6.5488">
        <ele>261.8</ele>
        <time>2022-02-04T17:19:24Z</time>
      </trkpt>
      <trkpt lat="43.30137" lon="6.54887">
        <ele>261.2</ele>
        <time>2022-02-04T17:19:25Z</time>
      </trkpt>
      <trkpt lat="43.30134" lon="6.54894">
        <ele>261.4</ele>
        <time>2022-02-04T17:19:26Z</time>
      </trkpt>
      <trkpt lat="43.30134" lon="6.54901">
        <ele>261.4</ele>
        <time>2022-02-04T17:19:27Z</time>
      </trkpt>
      <trkpt lat="43.30134" lon="6.54906">
        <ele>261.4</ele>
        <time>2022-02-04T17:19:28Z</time>
      </trkpt>
      <trkpt lat="43.30136" lon="6.54912">
        <ele>261</ele>
        <time>2022-02-04T17:19:29Z</time>
      </trkpt>
      <trkpt lat="43.30135" lon="6.5492">
        <ele>260.4</ele>
        <time>2022-02-04T17:19:30Z</time>
      </trkpt>
      <trkpt lat="43.30133" lon="6.54923">
        <ele>259.6</ele>
        <time>2022-02-04T17:19:31Z</time>
      </trkpt>
      <trkpt lat="43.30129" lon="6.54923">
        <ele>258.4</ele>
        <time>2022-02-04T17:19:32Z</time>
      </trkpt>
      <trkpt lat="43.30125" lon="6.54922">
        <ele>257.6</ele>
        <time>2022-02-04T17:19:33Z</time>
      </trkpt>
      <trkpt lat="43.3012" lon="6.54918">
        <ele>257.4</ele>
        <time>2022-02-04T17:19:34Z</time>
      </trkpt>
      <trkpt lat="43.30115" lon="6.54915">
        <ele>257</ele>
        <time>2022-02-04T17:19:35Z</time>
      </trkpt>
      <trkpt lat="43.30112" lon="6.54914">
        <ele>256.6</ele>
        <time>2022-02-04T17:19:36Z</time>
      </trkpt>
      <trkpt lat="43.30107" lon="6.54911">
        <ele>256.4</ele>
        <time>2022-02-04T17:19:37Z</time>
      </trkpt>
      <trkpt lat="43.30103" lon="6.54906">
        <ele>256</ele>
        <time>2022-02-04T17:19:38Z</time>
      </trkpt>
      <trkpt lat="43.30099" lon="6.549">
        <ele>255.2</ele>
        <time>2022-02-04T17:19:39Z</time>
      </trkpt>
      <trkpt lat="43.30095" lon="6.54894">
        <ele>253.2</ele>
        <time>2022-02-04T17:19:40Z</time>
      </trkpt>
      <trkpt lat="43.30092" lon="6.54887">
        <ele>252</ele>
        <time>2022-02-04T17:19:41Z</time>
      </trkpt>
      <trkpt lat="43.30089" lon="6.54881">
        <ele>251</ele>
        <time>2022-02-04T17:19:42Z</time>
      </trkpt>
      <trkpt lat="43.30086" lon="6.54874">
        <ele>250.2</ele>
        <time>2022-02-04T17:19:43Z</time>
      </trkpt>
      <trkpt lat="43.30083" lon="6.54865">
        <ele>248.4</ele>
        <time>2022-02-04T17:19:44Z</time>
      </trkpt>
      <trkpt lat="43.3008" lon="6.54857">
        <ele>247.4</ele>
        <time>2022-02-04T17:19:45Z</time>
      </trkpt>
      <trkpt lat="43.30077" lon="6.54847">
        <ele>246.8</ele>
        <time>2022-02-04T17:19:46Z</time>
      </trkpt>
      <trkpt lat="43.30075" lon="6.54841">
        <ele>246.4</ele>
        <time>2022-02-04T17:19:47Z</time>
      </trkpt>
      <trkpt lat="43.30072" lon="6.54838">
        <ele>245.8</ele>
        <time>2022-02-04T17:19:48Z</time>
      </trkpt>
      <trkpt lat="43.30067" lon="6.54837">
        <ele>245.2</ele>
        <time>2022-02-04T17:19:49Z</time>
      </trkpt>
      <trkpt lat="43.30062" lon="6.54837">
        <ele>244.4</ele>
        <time>2022-02-04T17:19:50Z</time>
      </trkpt>
      <trkpt lat="43.30057" lon="6.54836">
        <ele>243.8</ele>
        <time>2022-02-04T17:19:51Z</time>
      </trkpt>
      <trkpt lat="43.30052" lon="6.54835">
        <ele>243</ele>
        <time>2022-02-04T17:19:52Z</time>
      </trkpt>
      <trkpt lat="43.30048" lon="6.54832">
        <ele>242.4</ele>
        <time>2022-02-04T17:19:53Z</time>
      </trkpt>
      <trkpt lat="43.30045" lon="6.5483">
        <ele>241.6</ele>
        <time>2022-02-04T17:19:54Z</time>
      </trkpt>
      <trkpt lat="43.3004" lon="6.54831">
        <ele>240.6</ele>
        <time>2022-02-04T17:19:55Z</time>
      </trkpt>
      <trkpt lat="43.30035" lon="6.54832">
        <ele>239.8</ele>
        <time>2022-02-04T17:19:56Z</time>
      </trkpt>
      <trkpt lat="43.30031" lon="6.54837">
        <ele>238.2</ele>
        <time>2022-02-04T17:19:57Z</time>
      </trkpt>
      <trkpt lat="43.30027" lon="6.54842">
        <ele>237.2</ele>
        <time>2022-02-04T17:19:58Z</time>
      </trkpt>
      <trkpt lat="43.30023" lon="6.54846">
        <ele>236.6</ele>
        <time>2022-02-04T17:19:59Z</time>
      </trkpt>
      <trkpt lat="43.30018" lon="6.54847">
        <ele>235.8</ele>
        <time>2022-02-04T17:20:00Z</time>
      </trkpt>
      <trkpt lat="43.30012" lon="6.54847">
        <ele>235.4</ele>
        <time>2022-02-04T17:20:01Z</time>
      </trkpt>
      <trkpt lat="43.30006" lon="6.54846">
        <ele>235</ele>
        <time>2022-02-04T17:20:02Z</time>
      </trkpt>
      <trkpt lat="43.30001" lon="6.54845">
        <ele>234.4</ele>
        <time>2022-02-04T17:20:03Z</time>
      </trkpt>
      <trkpt lat="43.29999" lon="6.54842">
        <ele>234</ele>
        <time>2022-02-04T17:20:04Z</time>
      </trkpt>
      <trkpt lat="43.29996" lon="6.54837">
        <ele>233.2</ele>
        <time>2022-02-04T17:20:05Z</time>
      </trkpt>
      <trkpt lat="43.29993" lon="6.54832">
        <ele>232.8</ele>
        <time>2022-02-04T17:20:06Z</time>
      </trkpt>
      <trkpt lat="43.29991" lon="6.54826">
        <ele>232.4</ele>
        <time>2022-02-04T17:20:07Z</time>
      </trkpt>
      <trkpt lat="43.29988" lon="6.54822">
        <ele>231.4</ele>
        <time>2022-02-04T17:20:08Z</time>
      </trkpt>
      <trkpt lat="43.29984" lon="6.54822">
        <ele>230.8</ele>
        <time>2022-02-04T17:20:09Z</time>
      </trkpt>
      <trkpt lat="43.29982" lon="6.54825">
        <ele>230</ele>
        <time>2022-02-04T17:20:10Z</time>
      </trkpt>
      <trkpt lat="43.29979" lon="6.54829">
        <ele>229.2</ele>
        <time>2022-02-04T17:20:11Z</time>
      </trkpt>
      <trkpt lat="43.29978" lon="6.54835">
        <ele>228.6</ele>
        <time>2022-02-04T17:20:12Z</time>
      </trkpt>
      <trkpt lat="43.29975" lon="6.54841">
        <ele>227.8</ele>
        <time>2022-02-04T17:20:13Z</time>
      </trkpt>
      <trkpt lat="43.29973" lon="6.54847">
        <ele>226.6</ele>
        <time>2022-02-04T17:20:14Z</time>
      </trkpt>
      <trkpt lat="43.29972" lon="6.54852">
        <ele>226</ele>
        <time>2022-02-04T17:20:15Z</time>
      </trkpt>
      <trkpt lat="43.29972" lon="6.54856">
        <ele>225.4</ele>
        <time>2022-02-04T17:20:16Z</time>
      </trkpt>
      <trkpt lat="43.29971" lon="6.5486">
        <ele>225.2</ele>
        <time>2022-02-04T17:20:17Z</time>
      </trkpt>
      <trkpt lat="43.2997" lon="6.54866">
        <ele>225.2</ele>
        <time>2022-02-04T17:20:18Z</time>
      </trkpt>
      <trkpt lat="43.2997" lon="6.54872">
        <ele>225.2</ele>
        <time>2022-02-04T17:20:19Z</time>
      </trkpt>
      <trkpt lat="43.2997" lon="6.54878">
        <ele>225.2</ele>
        <time>2022-02-04T17:20:20Z</time>
      </trkpt>
      <trkpt lat="43.29969" lon="6.54883">
        <ele>225</ele>
        <time>2022-02-04T17:20:21Z</time>
      </trkpt>
      <trkpt lat="43.29967" lon="6.54886">
        <ele>224.4</ele>
        <time>2022-02-04T17:20:22Z</time>
      </trkpt>
      <trkpt lat="43.29963" lon="6.54888">
        <ele>223.4</ele>
        <time>2022-02-04T17:20:23Z</time>
      </trkpt>
      <trkpt lat="43.29959" lon="6.54888">
        <ele>222.2</ele>
        <time>2022-02-04T17:20:24Z</time>
      </trkpt>
      <trkpt lat="43.29954" lon="6.54886">
        <ele>221.2</ele>
        <time>2022-02-04T17:20:25Z</time>
      </trkpt>
      <trkpt lat="43.29949" lon="6.54884">
        <ele>220.2</ele>
        <time>2022-02-04T17:20:26Z</time>
      </trkpt>
      <trkpt lat="43.29944" lon="6.54883">
        <ele>219</ele>
        <time>2022-02-04T17:20:27Z</time>
      </trkpt>
      <trkpt lat="43.2994" lon="6.5488">
        <ele>217.4</ele>
        <time>2022-02-04T17:20:28Z</time>
      </trkpt>
      <trkpt lat="43.29937" lon="6.54876">
        <ele>216.4</ele>
        <time>2022-02-04T17:20:29Z</time>
      </trkpt>
      <trkpt lat="43.29935" lon="6.54871">
        <ele>215.8</ele>
        <time>2022-02-04T17:20:30Z</time>
      </trkpt>
      <trkpt lat="43.29934" lon="6.54866">
        <ele>215.2</ele>
        <time>2022-02-04T17:20:31Z</time>
      </trkpt>
      <trkpt lat="43.29933" lon="6.54862">
        <ele>215</ele>
        <time>2022-02-04T17:20:32Z</time>
      </trkpt>
      <trkpt lat="43.29932" lon="6.54855">
        <ele>214.8</ele>
        <time>2022-02-04T17:20:33Z</time>
      </trkpt>
      <trkpt lat="43.29931" lon="6.5485">
        <ele>214.6</ele>
        <time>2022-02-04T17:20:34Z</time>
      </trkpt>
      <trkpt lat="43.29929" lon="6.54849">
        <ele>214.6</ele>
        <time>2022-02-04T17:20:35Z</time>
      </trkpt>
      <trkpt lat="43.29927" lon="6.5485">
        <ele>213.6</ele>
        <time>2022-02-04T17:20:36Z</time>
      </trkpt>
      <trkpt lat="43.29925" lon="6.54852">
        <ele>212.8</ele>
        <time>2022-02-04T17:20:37Z</time>
      </trkpt>
      <trkpt lat="43.29923" lon="6.54854">
        <ele>212</ele>
        <time>2022-02-04T17:20:38Z</time>
      </trkpt>
      <trkpt lat="43.29919" lon="6.54857">
        <ele>210.8</ele>
        <time>2022-02-04T17:20:39Z</time>
      </trkpt>
      <trkpt lat="43.29917" lon="6.5486">
        <ele>210</ele>
        <time>2022-02-04T17:20:40Z</time>
      </trkpt>
      <trkpt lat="43.29914" lon="6.54863">
        <ele>209</ele>
        <time>2022-02-04T17:20:41Z</time>
      </trkpt>
      <trkpt lat="43.29912" lon="6.54864">
        <ele>207.4</ele>
        <time>2022-02-04T17:20:42Z</time>
      </trkpt>
      <trkpt lat="43.29908" lon="6.54864">
        <ele>206</ele>
        <time>2022-02-04T17:20:43Z</time>
      </trkpt>
      <trkpt lat="43.29906" lon="6.54865">
        <ele>204.6</ele>
        <time>2022-02-04T17:20:44Z</time>
      </trkpt>
      <trkpt lat="43.29903" lon="6.54867">
        <ele>203.6</ele>
        <time>2022-02-04T17:20:45Z</time>
      </trkpt>
      <trkpt lat="43.29901" lon="6.54869">
        <ele>202.2</ele>
        <time>2022-02-04T17:20:46Z</time>
      </trkpt>
      <trkpt lat="43.29898" lon="6.54869">
        <ele>201.6</ele>
        <time>2022-02-04T17:20:47Z</time>
      </trkpt>
      <trkpt lat="43.29896" lon="6.54867">
        <ele>200.8</ele>
        <time>2022-02-04T17:20:48Z</time>
      </trkpt>
      <trkpt lat="43.29895" lon="6.54863">
        <ele>199.2</ele>
        <time>2022-02-04T17:20:49Z</time>
      </trkpt>
      <trkpt lat="43.29893" lon="6.54858">
        <ele>198</ele>
        <time>2022-02-04T17:20:50Z</time>
      </trkpt>
      <trkpt lat="43.29892" lon="6.54856">
        <ele>197.2</ele>
        <time>2022-02-04T17:20:51Z</time>
      </trkpt>
      <trkpt lat="43.29891" lon="6.54857">
        <ele>196.6</ele>
        <time>2022-02-04T17:20:52Z</time>
      </trkpt>
      <trkpt lat="43.29888" lon="6.54859">
        <ele>195.8</ele>
        <time>2022-02-04T17:20:53Z</time>
      </trkpt>
      <trkpt lat="43.29885" lon="6.54862">
        <ele>195.2</ele>
        <time>2022-02-04T17:20:54Z</time>
      </trkpt>
      <trkpt lat="43.29881" lon="6.54866">
        <ele>194.6</ele>
        <time>2022-02-04T17:20:55Z</time>
      </trkpt>
      <trkpt lat="43.29878" lon="6.5487">
        <ele>194.2</ele>
        <time>2022-02-04T17:20:56Z</time>
      </trkpt>
      <trkpt lat="43.29875" lon="6.54871">
        <ele>192.6</ele>
        <time>2022-02-04T17:20:57Z</time>
      </trkpt>
      <trkpt lat="43.29872" lon="6.54873">
        <ele>191.6</ele>
        <time>2022-02-04T17:20:58Z</time>
      </trkpt>
      <trkpt lat="43.2987" lon="6.54878">
        <ele>190.8</ele>
        <time>2022-02-04T17:20:59Z</time>
      </trkpt>
      <trkpt lat="43.29869" lon="6.54883">
        <ele>190.2</ele>
        <time>2022-02-04T17:21:00Z</time>
      </trkpt>
      <trkpt lat="43.29868" lon="6.54887">
        <ele>189.6</ele>
        <time>2022-02-04T17:21:01Z</time>
      </trkpt>
      <trkpt lat="43.29865" lon="6.54891">
        <ele>189</ele>
        <time>2022-02-04T17:21:02Z</time>
      </trkpt>
      <trkpt lat="43.29861" lon="6.54895">
        <ele>188.6</ele>
        <time>2022-02-04T17:21:03Z</time>
      </trkpt>
      <trkpt lat="43.29857" lon="6.54898">
        <ele>187.4</ele>
        <time>2022-02-04T17:21:04Z</time>
      </trkpt>
      <trkpt lat="43.29854" lon="6.549">
        <ele>186.6</ele>
        <time>2022-02-04T17:21:05Z</time>
      </trkpt>
      <trkpt lat="43.29849" lon="6.54899">
        <ele>185.8</ele>
        <time>2022-02-04T17:21:06Z</time>
      </trkpt>
      <trkpt lat="43.29846" lon="6.54896">
        <ele>185</ele>
        <time>2022-02-04T17:21:07Z</time>
      </trkpt>
      <trkpt lat="43.29842" lon="6.54895">
        <ele>184.4</ele>
        <time>2022-02-04T17:21:08Z</time>
      </trkpt>
      <trkpt lat="43.29838" lon="6.54894">
        <ele>183.4</ele>
        <time>2022-02-04T17:21:09Z</time>
      </trkpt>
      <trkpt lat="43.29834" lon="6.54894">
        <ele>182.8</ele>
        <time>2022-02-04T17:21:10Z</time>
      </trkpt>
      <trkpt lat="43.29831" lon="6.54895">
        <ele>181.6</ele>
        <time>2022-02-04T17:21:11Z</time>
      </trkpt>
      <trkpt lat="43.29827" lon="6.54897">
        <ele>181</ele>
        <time>2022-02-04T17:21:12Z</time>
      </trkpt>
      <trkpt lat="43.29826" lon="6.54897">
        <ele>180.6</ele>
        <time>2022-02-04T17:21:13Z</time>
      </trkpt>
      <trkpt lat="43.29824" lon="6.54897">
        <ele>180.4</ele>
        <time>2022-02-04T17:21:14Z</time>
      </trkpt>
      <trkpt lat="43.29821" lon="6.54898">
        <ele>180</ele>
        <time>2022-02-04T17:21:15Z</time>
      </trkpt>
      <trkpt lat="43.29819" lon="6.54898">
        <ele>179.4</ele>
        <time>2022-02-04T17:21:16Z</time>
      </trkpt>
      <trkpt lat="43.29816" lon="6.54897">
        <ele>178.6</ele>
        <time>2022-02-04T17:21:17Z</time>
      </trkpt>
      <trkpt lat="43.29815" lon="6.54896">
        <ele>178</ele>
        <time>2022-02-04T17:21:18Z</time>
      </trkpt>
      <trkpt lat="43.29814" lon="6.54894">
        <ele>177</ele>
        <time>2022-02-04T17:21:19Z</time>
      </trkpt>
      <trkpt lat="43.29812" lon="6.54895">
        <ele>176.2</ele>
        <time>2022-02-04T17:21:20Z</time>
      </trkpt>
      <trkpt lat="43.29808" lon="6.54896">
        <ele>175</ele>
        <time>2022-02-04T17:21:21Z</time>
      </trkpt>
      <trkpt lat="43.29804" lon="6.54898">
        <ele>173.8</ele>
        <time>2022-02-04T17:21:22Z</time>
      </trkpt>
      <trkpt lat="43.29802" lon="6.549">
        <ele>173</ele>
        <time>2022-02-04T17:21:23Z</time>
      </trkpt>
      <trkpt lat="43.29799" lon="6.54901">
        <ele>171.8</ele>
        <time>2022-02-04T17:21:24Z</time>
      </trkpt>
      <trkpt lat="43.29797" lon="6.54901">
        <ele>170.8</ele>
        <time>2022-02-04T17:21:25Z</time>
      </trkpt>
      <trkpt lat="43.29795" lon="6.54899">
        <ele>170</ele>
        <time>2022-02-04T17:21:26Z</time>
      </trkpt>
      <trkpt lat="43.29794" lon="6.54897">
        <ele>168.8</ele>
        <time>2022-02-04T17:21:27Z</time>
      </trkpt>
      <trkpt lat="43.29793" lon="6.54897">
        <ele>167.8</ele>
        <time>2022-02-04T17:21:28Z</time>
      </trkpt>
      <trkpt lat="43.29791" lon="6.54897">
        <ele>166.6</ele>
        <time>2022-02-04T17:21:29Z</time>
      </trkpt>
      <trkpt lat="43.29791" lon="6.54898">
        <ele>166</ele>
        <time>2022-02-04T17:21:30Z</time>
      </trkpt>
      <trkpt lat="43.29789" lon="6.549">
        <ele>165.4</ele>
        <time>2022-02-04T17:21:31Z</time>
      </trkpt>
      <trkpt lat="43.29788" lon="6.54904">
        <ele>164.6</ele>
        <time>2022-02-04T17:21:32Z</time>
      </trkpt>
      <trkpt lat="43.29786" lon="6.54908">
        <ele>163.8</ele>
        <time>2022-02-04T17:21:33Z</time>
      </trkpt>
      <trkpt lat="43.29783" lon="6.54914">
        <ele>162.8</ele>
        <time>2022-02-04T17:21:34Z</time>
      </trkpt>
      <trkpt lat="43.29781" lon="6.54921">
        <ele>161.8</ele>
        <time>2022-02-04T17:21:35Z</time>
      </trkpt>
      <trkpt lat="43.29778" lon="6.54928">
        <ele>161</ele>
        <time>2022-02-04T17:21:36Z</time>
      </trkpt>
      <trkpt lat="43.29776" lon="6.54936">
        <ele>160</ele>
        <time>2022-02-04T17:21:37Z</time>
      </trkpt>
      <trkpt lat="43.29775" lon="6.54942">
        <ele>159</ele>
        <time>2022-02-04T17:21:38Z</time>
      </trkpt>
      <trkpt lat="43.29773" lon="6.54948">
        <ele>158.4</ele>
        <time>2022-02-04T17:21:39Z</time>
      </trkpt>
      <trkpt lat="43.2977" lon="6.54954">
        <ele>157.2</ele>
        <time>2022-02-04T17:21:40Z</time>
      </trkpt>
      <trkpt lat="43.29767" lon="6.54957">
        <ele>156.2</ele>
        <time>2022-02-04T17:21:41Z</time>
      </trkpt>
      <trkpt lat="43.29765" lon="6.54959">
        <ele>154.6</ele>
        <time>2022-02-04T17:21:42Z</time>
      </trkpt>
      <trkpt lat="43.29764" lon="6.54964">
        <ele>153</ele>
        <time>2022-02-04T17:21:43Z</time>
      </trkpt>
      <trkpt lat="43.29764" lon="6.54969">
        <ele>151.4</ele>
        <time>2022-02-04T17:21:44Z</time>
      </trkpt>
      <trkpt lat="43.29765" lon="6.54976">
        <ele>150.4</ele>
        <time>2022-02-04T17:21:45Z</time>
      </trkpt>
      <trkpt lat="43.29766" lon="6.54984">
        <ele>149.6</ele>
        <time>2022-02-04T17:21:46Z</time>
      </trkpt>
      <trkpt lat="43.29767" lon="6.54992">
        <ele>149.4</ele>
        <time>2022-02-04T17:21:47Z</time>
      </trkpt>
      <trkpt lat="43.29768" lon="6.55001">
        <ele>148.8</ele>
        <time>2022-02-04T17:21:48Z</time>
      </trkpt>
      <trkpt lat="43.29768" lon="6.55009">
        <ele>148.4</ele>
        <time>2022-02-04T17:21:49Z</time>
      </trkpt>
      <trkpt lat="43.29768" lon="6.55016">
        <ele>147.8</ele>
        <time>2022-02-04T17:21:50Z</time>
      </trkpt>
      <trkpt lat="43.29767" lon="6.55022">
        <ele>147.4</ele>
        <time>2022-02-04T17:21:51Z</time>
      </trkpt>
      <trkpt lat="43.29766" lon="6.55028">
        <ele>147.2</ele>
        <time>2022-02-04T17:21:52Z</time>
      </trkpt>
      <trkpt lat="43.29764" lon="6.55033">
        <ele>146.8</ele>
        <time>2022-02-04T17:21:53Z</time>
      </trkpt>
      <trkpt lat="43.29762" lon="6.55038">
        <ele>146</ele>
        <time>2022-02-04T17:21:54Z</time>
      </trkpt>
      <trkpt lat="43.29761" lon="6.55043">
        <ele>145.6</ele>
        <time>2022-02-04T17:21:55Z</time>
      </trkpt>
      <trkpt lat="43.2976" lon="6.55049">
        <ele>144.4</ele>
        <time>2022-02-04T17:21:56Z</time>
      </trkpt>
      <trkpt lat="43.29759" lon="6.55055">
        <ele>143.6</ele>
        <time>2022-02-04T17:21:57Z</time>
      </trkpt>
      <trkpt lat="43.29759" lon="6.55061">
        <ele>141.8</ele>
        <time>2022-02-04T17:21:58Z</time>
      </trkpt>
      <trkpt lat="43.29759" lon="6.55066">
        <ele>140.8</ele>
        <time>2022-02-04T17:21:59Z</time>
      </trkpt>
      <trkpt lat="43.29758" lon="6.55072">
        <ele>140.2</ele>
        <time>2022-02-04T17:22:00Z</time>
      </trkpt>
      <trkpt lat="43.29758" lon="6.55077">
        <ele>139.8</ele>
        <time>2022-02-04T17:22:01Z</time>
      </trkpt>
      <trkpt lat="43.29757" lon="6.55085">
        <ele>138.8</ele>
        <time>2022-02-04T17:22:02Z</time>
      </trkpt>
      <trkpt lat="43.29756" lon="6.5509">
        <ele>138</ele>
        <time>2022-02-04T17:22:03Z</time>
      </trkpt>
      <trkpt lat="43.29753" lon="6.55097">
        <ele>137.4</ele>
        <time>2022-02-04T17:22:04Z</time>
      </trkpt>
      <trkpt lat="43.2975" lon="6.55104">
        <ele>136.6</ele>
        <time>2022-02-04T17:22:05Z</time>
      </trkpt>
      <trkpt lat="43.29746" lon="6.55114">
        <ele>134.8</ele>
        <time>2022-02-04T17:22:06Z</time>
      </trkpt>
      <trkpt lat="43.29746" lon="6.55122">
        <ele>133</ele>
        <time>2022-02-04T17:22:07Z</time>
      </trkpt>
      <trkpt lat="43.29749" lon="6.55125">
        <ele>132</ele>
        <time>2022-02-04T17:22:08Z</time>
      </trkpt>
      <trkpt lat="43.29752" lon="6.55128">
        <ele>131.6</ele>
        <time>2022-02-04T17:22:09Z</time>
      </trkpt>
      <trkpt lat="43.29755" lon="6.55131">
        <ele>131.2</ele>
        <time>2022-02-04T17:22:10Z</time>
      </trkpt>
      <trkpt lat="43.29758" lon="6.55136">
        <ele>131.4</ele>
        <time>2022-02-04T17:22:11Z</time>
      </trkpt>
      <trkpt lat="43.2976" lon="6.55138">
        <ele>131.4</ele>
        <time>2022-02-04T17:22:12Z</time>
      </trkpt>
      <trkpt lat="43.29763" lon="6.55141">
        <ele>131.6</ele>
        <time>2022-02-04T17:22:13Z</time>
      </trkpt>
      <trkpt lat="43.29766" lon="6.55144">
        <ele>131.6</ele>
        <time>2022-02-04T17:22:14Z</time>
      </trkpt>
      <trkpt lat="43.29769" lon="6.55147">
        <ele>131.8</ele>
        <time>2022-02-04T17:22:15Z</time>
      </trkpt>
      <trkpt lat="43.29771" lon="6.55151">
        <ele>131.8</ele>
        <time>2022-02-04T17:22:16Z</time>
      </trkpt>
      <trkpt lat="43.29771" lon="6.55156">
        <ele>131.4</ele>
        <time>2022-02-04T17:22:17Z</time>
      </trkpt>
      <trkpt lat="43.29772" lon="6.5516">
        <ele>131</ele>
        <time>2022-02-04T17:22:18Z</time>
      </trkpt>
      <trkpt lat="43.29773" lon="6.55164">
        <ele>130.8</ele>
        <time>2022-02-04T17:22:19Z</time>
      </trkpt>
      <trkpt lat="43.29774" lon="6.55169">
        <ele>130.6</ele>
        <time>2022-02-04T17:22:20Z</time>
      </trkpt>
      <trkpt lat="43.29774" lon="6.55175">
        <ele>130.4</ele>
        <time>2022-02-04T17:22:21Z</time>
      </trkpt>
      <trkpt lat="43.29774" lon="6.55183">
        <ele>130</ele>
        <time>2022-02-04T17:22:22Z</time>
      </trkpt>
      <trkpt lat="43.29772" lon="6.5519">
        <ele>129.6</ele>
        <time>2022-02-04T17:22:23Z</time>
      </trkpt>
      <trkpt lat="43.2977" lon="6.55196">
        <ele>129.4</ele>
        <time>2022-02-04T17:22:24Z</time>
      </trkpt>
      <trkpt lat="43.2977" lon="6.55202">
        <ele>128.8</ele>
        <time>2022-02-04T17:22:25Z</time>
      </trkpt>
      <trkpt lat="43.29768" lon="6.55207">
        <ele>128.4</ele>
        <time>2022-02-04T17:22:26Z</time>
      </trkpt>
      <trkpt lat="43.29766" lon="6.55213">
        <ele>128</ele>
        <time>2022-02-04T17:22:27Z</time>
      </trkpt>
      <trkpt lat="43.29764" lon="6.55218">
        <ele>127.6</ele>
        <time>2022-02-04T17:22:28Z</time>
      </trkpt>
      <trkpt lat="43.29763" lon="6.55224">
        <ele>127.2</ele>
        <time>2022-02-04T17:22:29Z</time>
      </trkpt>
      <trkpt lat="43.29761" lon="6.55229">
        <ele>127</ele>
        <time>2022-02-04T17:22:30Z</time>
      </trkpt>
      <trkpt lat="43.29759" lon="6.55235">
        <ele>126.8</ele>
        <time>2022-02-04T17:22:31Z</time>
      </trkpt>
      <trkpt lat="43.29756" lon="6.55241">
        <ele>126.4</ele>
        <time>2022-02-04T17:22:32Z</time>
      </trkpt>
      <trkpt lat="43.29754" lon="6.55247">
        <ele>125.6</ele>
        <time>2022-02-04T17:22:33Z</time>
      </trkpt>
      <trkpt lat="43.29753" lon="6.55254">
        <ele>125</ele>
        <time>2022-02-04T17:22:34Z</time>
      </trkpt>
      <trkpt lat="43.29753" lon="6.5526">
        <ele>124</ele>
        <time>2022-02-04T17:22:35Z</time>
      </trkpt>
      <trkpt lat="43.29753" lon="6.55271">
        <ele>123.2</ele>
        <time>2022-02-04T17:22:36Z</time>
      </trkpt>
      <trkpt lat="43.29752" lon="6.55281">
        <ele>122.4</ele>
        <time>2022-02-04T17:22:37Z</time>
      </trkpt>
      <trkpt lat="43.29751" lon="6.55291">
        <ele>121.2</ele>
        <time>2022-02-04T17:22:38Z</time>
      </trkpt>
      <trkpt lat="43.29749" lon="6.55299">
        <ele>120.2</ele>
        <time>2022-02-04T17:22:39Z</time>
      </trkpt>
      <trkpt lat="43.29748" lon="6.5531">
        <ele>118.6</ele>
        <time>2022-02-04T17:22:40Z</time>
      </trkpt>
      <trkpt lat="43.29746" lon="6.55321">
        <ele>117.8</ele>
        <time>2022-02-04T17:22:41Z</time>
      </trkpt>
      <trkpt lat="43.29744" lon="6.55332">
        <ele>116.6</ele>
        <time>2022-02-04T17:22:42Z</time>
      </trkpt>
      <trkpt lat="43.29742" lon="6.55345">
        <ele>115.8</ele>
        <time>2022-02-04T17:22:43Z</time>
      </trkpt>
      <trkpt lat="43.29741" lon="6.55358">
        <ele>115.2</ele>
        <time>2022-02-04T17:22:44Z</time>
      </trkpt>
      <trkpt lat="43.29741" lon="6.55367">
        <ele>114.6</ele>
        <time>2022-02-04T17:22:45Z</time>
      </trkpt>
      <trkpt lat="43.29741" lon="6.55379">
        <ele>114</ele>
        <time>2022-02-04T17:22:46Z</time>
      </trkpt>
      <trkpt lat="43.29741" lon="6.55389">
        <ele>113.6</ele>
        <time>2022-02-04T17:22:47Z</time>
      </trkpt>
      <trkpt lat="43.29741" lon="6.55395">
        <ele>112.4</ele>
        <time>2022-02-04T17:22:48Z</time>
      </trkpt>
      <trkpt lat="43.29742" lon="6.55397">
        <ele>110.2</ele>
        <time>2022-02-04T17:22:49Z</time>
      </trkpt>
      <trkpt lat="43.29742" lon="6.55399">
        <ele>109.2</ele>
        <time>2022-02-04T17:22:50Z</time>
      </trkpt>
      <trkpt lat="43.29741" lon="6.55402">
        <ele>108.6</ele>
        <time>2022-02-04T17:22:51Z</time>
      </trkpt>
      <trkpt lat="43.29741" lon="6.55404">
        <ele>108.2</ele>
        <time>2022-02-04T17:22:52Z</time>
      </trkpt>
      <trkpt lat="43.29739" lon="6.55407">
        <ele>107.8</ele>
        <time>2022-02-04T17:22:53Z</time>
      </trkpt>
      <trkpt lat="43.29736" lon="6.55412">
        <ele>107.8</ele>
        <time>2022-02-04T17:22:54Z</time>
      </trkpt>
      <trkpt lat="43.29734" lon="6.55419">
        <ele>107.8</ele>
        <time>2022-02-04T17:22:55Z</time>
      </trkpt>
      <trkpt lat="43.29733" lon="6.55424">
        <ele>107.6</ele>
        <time>2022-02-04T17:22:56Z</time>
      </trkpt>
      <trkpt lat="43.29733" lon="6.55433">
        <ele>107.2</ele>
        <time>2022-02-04T17:22:57Z</time>
      </trkpt>
      <trkpt lat="43.29731" lon="6.55443">
        <ele>107</ele>
        <time>2022-02-04T17:22:58Z</time>
      </trkpt>
      <trkpt lat="43.29729" lon="6.55452">
        <ele>106.8</ele>
        <time>2022-02-04T17:22:59Z</time>
      </trkpt>
      <trkpt lat="43.29727" lon="6.55459">
        <ele>106.2</ele>
        <time>2022-02-04T17:23:00Z</time>
      </trkpt>
      <trkpt lat="43.29726" lon="6.55467">
        <ele>105.8</ele>
        <time>2022-02-04T17:23:01Z</time>
      </trkpt>
      <trkpt lat="43.29724" lon="6.55476">
        <ele>105.6</ele>
        <time>2022-02-04T17:23:02Z</time>
      </trkpt>
      <trkpt lat="43.29723" lon="6.55485">
        <ele>105.6</ele>
        <time>2022-02-04T17:23:03Z</time>
      </trkpt>
      <trkpt lat="43.29723" lon="6.55495">
        <ele>105.4</ele>
        <time>2022-02-04T17:23:04Z</time>
      </trkpt>
      <trkpt lat="43.29725" lon="6.55503">
        <ele>105</ele>
        <time>2022-02-04T17:23:05Z</time>
      </trkpt>
      <trkpt lat="43.29727" lon="6.55511">
        <ele>103.6</ele>
        <time>2022-02-04T17:23:06Z</time>
      </trkpt>
      <trkpt lat="43.29729" lon="6.55519">
        <ele>102.6</ele>
        <time>2022-02-04T17:23:07Z</time>
      </trkpt>
      <trkpt lat="43.29733" lon="6.55527">
        <ele>102.2</ele>
        <time>2022-02-04T17:23:08Z</time>
      </trkpt>
      <trkpt lat="43.29736" lon="6.55533">
        <ele>101.6</ele>
        <time>2022-02-04T17:23:09Z</time>
      </trkpt>
      <trkpt lat="43.29738" lon="6.5554">
        <ele>101.2</ele>
        <time>2022-02-04T17:23:10Z</time>
      </trkpt>
      <trkpt lat="43.29738" lon="6.55546">
        <ele>100.2</ele>
        <time>2022-02-04T17:23:11Z</time>
      </trkpt>
      <trkpt lat="43.29738" lon="6.55553">
        <ele>99.4</ele>
        <time>2022-02-04T17:23:12Z</time>
      </trkpt>
      <trkpt lat="43.29737" lon="6.5556">
        <ele>99.2</ele>
        <time>2022-02-04T17:23:13Z</time>
      </trkpt>
      <trkpt lat="43.29736" lon="6.55568">
        <ele>99.2</ele>
        <time>2022-02-04T17:23:14Z</time>
      </trkpt>
      <trkpt lat="43.29735" lon="6.55576">
        <ele>98.8</ele>
        <time>2022-02-04T17:23:15Z</time>
      </trkpt>
      <trkpt lat="43.29733" lon="6.55584">
        <ele>98.8</ele>
        <time>2022-02-04T17:23:16Z</time>
      </trkpt>
      <trkpt lat="43.29732" lon="6.55593">
        <ele>98.6</ele>
        <time>2022-02-04T17:23:17Z</time>
      </trkpt>
      <trkpt lat="43.2973" lon="6.55603">
        <ele>98.6</ele>
        <time>2022-02-04T17:23:18Z</time>
      </trkpt>
      <trkpt lat="43.29729" lon="6.55614">
        <ele>98</ele>
        <time>2022-02-04T17:23:19Z</time>
      </trkpt>
      <trkpt lat="43.29727" lon="6.55624">
        <ele>96.8</ele>
        <time>2022-02-04T17:23:20Z</time>
      </trkpt>
      <trkpt lat="43.29725" lon="6.55635">
        <ele>96.4</ele>
        <time>2022-02-04T17:23:21Z</time>
      </trkpt>
      <trkpt lat="43.29723" lon="6.55646">
        <ele>95.8</ele>
        <time>2022-02-04T17:23:22Z</time>
      </trkpt>
      <trkpt lat="43.29721" lon="6.55655">
        <ele>95.4</ele>
        <time>2022-02-04T17:23:23Z</time>
      </trkpt>
      <trkpt lat="43.29721" lon="6.55663">
        <ele>95.2</ele>
        <time>2022-02-04T17:23:24Z</time>
      </trkpt>
      <trkpt lat="43.29721" lon="6.55667">
        <ele>95</ele>
        <time>2022-02-04T17:23:25Z</time>
      </trkpt>
      <trkpt lat="43.29722" lon="6.55669">
        <ele>95</ele>
        <time>2022-02-04T17:23:26Z</time>
      </trkpt>
      <trkpt lat="43.29722" lon="6.55669">
        <ele>95</ele>
        <time>2022-02-04T17:23:27Z</time>
      </trkpt>
      <trkpt lat="43.29723" lon="6.55668">
        <ele>95.2</ele>
        <time>2022-02-04T17:23:28Z</time>
      </trkpt>
      <trkpt lat="43.29723" lon="6.55668">
        <ele>95.2</ele>
        <time>2022-02-04T17:23:29Z</time>
      </trkpt>
      <trkpt lat="43.29723" lon="6.55668">
        <ele>95.4</ele>
        <time>2022-02-04T17:23:30Z</time>
      </trkpt>
      <trkpt lat="43.29723" lon="6.55668">
        <ele>95.4</ele>
        <time>2022-02-04T17:23:31Z</time>
      </trkpt>
      <trkpt lat="43.29723" lon="6.55668">
        <ele>95.4</ele>
        <time>2022-02-04T17:23:32Z</time>
      </trkpt>
      <trkpt lat="43.29723" lon="6.55668">
        <ele>95.4</ele>
        <time>2022-02-04T17:23:33Z</time>
      </trkpt>
      <trkpt lat="43.29723" lon="6.55668">
        <ele>95.4</ele>
        <time>2022-02-04T17:23:34Z</time>
      </trkpt>
      <trkpt lat="43.29723" lon="6.55668">
        <ele>95.2</ele>
        <time>2022-02-04T17:23:35Z</time>
      </trkpt>
      <trkpt lat="43.29723" lon="6.55668">
        <ele>95</ele>
        <time>2022-02-04T17:23:36Z</time>
      </trkpt>
      <trkpt lat="43.29723" lon="6.55668">
        <ele>95</ele>
        <time>2022-02-04T17:23:37Z</time>
      </trkpt>
      <trkpt lat="43.29723" lon="6.55668">
        <ele>95</ele>
        <time>2022-02-04T17:23:38Z</time>
      </trkpt>
      <trkpt lat="43.29723" lon="6.55668">
        <ele>95</ele>
        <time>2022-02-04T17:23:39Z</time>
      </trkpt>
      <trkpt lat="43.29723" lon="6.55668">
        <ele>95</ele>
        <time>2022-02-04T17:23:40Z</time>
      </trkpt>
      <trkpt lat="43.29723" lon="6.55668">
        <ele>95</ele>
        <time>2022-02-04T17:23:41Z</time>
      </trkpt>
      <trkpt lat="43.29723" lon="6.55668">
        <ele>95</ele>
        <time>2022-02-04T17:23:42Z</time>
      </trkpt>
      <trkpt lat="43.29723" lon="6.55668">
        <ele>95</ele>
        <time>2022-02-04T17:23:43Z</time>
      </trkpt>
      <trkpt lat="43.29723" lon="6.55668">
        <ele>95</ele>
        <time>2022-02-04T17:23:44Z</time>
      </trkpt>
      <trkpt lat="43.29723" lon="6.55668">
        <ele>95</ele>
        <time>2022-02-04T17:23:45Z</time>
      </trkpt>
      <trkpt lat="43.29723" lon="6.55668">
        <ele>95</ele>
        <time>2022-02-04T17:23:46Z</time>
      </trkpt>
      <trkpt lat="43.29723" lon="6.55668">
        <ele>95</ele>
        <time>2022-02-04T17:23:47Z</time>
      </trkpt>
      <trkpt lat="43.29723" lon="6.55668">
        <ele>95</ele>
        <time>2022-02-04T17:23:48Z</time>
      </trkpt>
      <trkpt lat="43.29723" lon="6.55668">
        <ele>95</ele>
        <time>2022-02-04T17:23:49Z</time>
      </trkpt>
      <trkpt lat="43.29723" lon="6.55668">
        <ele>95</ele>
        <time>2022-02-04T17:23:50Z</time>
      </trkpt>
      <trkpt lat="43.29723" lon="6.55668">
        <ele>95</ele>
        <time>2022-02-04T17:23:51Z</time>
      </trkpt>
      <trkpt lat="43.29723" lon="6.55668">
        <ele>94.8</ele>
        <time>2022-02-04T17:23:52Z</time>
      </trkpt>
      <trkpt lat="43.29723" lon="6.55668">
        <ele>94.8</ele>
        <time>2022-02-04T17:23:53Z</time>
      </trkpt>
      <trkpt lat="43.29723" lon="6.55668">
        <ele>94.8</ele>
        <time>2022-02-04T17:23:54Z</time>
      </trkpt>
      <trkpt lat="43.29723" lon="6.55668">
        <ele>94.8</ele>
        <time>2022-02-04T17:23:55Z</time>
      </trkpt>
      <trkpt lat="43.29723" lon="6.55668">
        <ele>94.8</ele>
        <time>2022-02-04T17:23:56Z</time>
      </trkpt>
      <trkpt lat="43.29723" lon="6.55668">
        <ele>94.8</ele>
        <time>2022-02-04T17:23:57Z</time>
      </trkpt>
      <trkpt lat="43.29723" lon="6.55668">
        <ele>94.6</ele>
        <time>2022-02-04T17:23:58Z</time>
      </trkpt>
      <trkpt lat="43.29723" lon="6.55668">
        <ele>94.8</ele>
        <time>2022-02-04T17:23:59Z</time>
      </trkpt>
      <trkpt lat="43.29723" lon="6.55668">
        <ele>94.8</ele>
        <time>2022-02-04T17:24:00Z</time>
      </trkpt>
      <trkpt lat="43.29723" lon="6.55668">
        <ele>94.8</ele>
        <time>2022-02-04T17:24:01Z</time>
      </trkpt>
      <trkpt lat="43.29723" lon="6.55668">
        <ele>94.8</ele>
        <time>2022-02-04T17:24:02Z</time>
      </trkpt>
      <trkpt lat="43.29723" lon="6.55668">
        <ele>94.8</ele>
        <time>2022-02-04T17:24:03Z</time>
      </trkpt>
      <trkpt lat="43.29723" lon="6.55668">
        <ele>95</ele>
        <time>2022-02-04T17:24:04Z</time>
      </trkpt>
      <trkpt lat="43.29723" lon="6.55668">
        <ele>95</ele>
        <time>2022-02-04T17:24:05Z</time>
      </trkpt>
      <trkpt lat="43.29723" lon="6.55668">
        <ele>95</ele>
        <time>2022-02-04T17:24:06Z</time>
      </trkpt>
      <trkpt lat="43.29723" lon="6.55668">
        <ele>95</ele>
        <time>2022-02-04T17:24:07Z</time>
      </trkpt>
      <trkpt lat="43.29723" lon="6.55668">
        <ele>95</ele>
        <time>2022-02-04T17:24:08Z</time>
      </trkpt>
      <trkpt lat="43.29723" lon="6.55668">
        <ele>95</ele>
        <time>2022-02-04T17:24:09Z</time>
      </trkpt>
      <trkpt lat="43.29723" lon="6.55668">
        <ele>95</ele>
        <time>2022-02-04T17:24:10Z</time>
      </trkpt>
      <trkpt lat="43.29723" lon="6.55668">
        <ele>95</ele>
        <time>2022-02-04T17:24:11Z</time>
      </trkpt>
      <trkpt lat="43.29722" lon="6.55668">
        <ele>94.8</ele>
        <time>2022-02-04T17:24:12Z</time>
      </trkpt>
      <trkpt lat="43.29722" lon="6.55667">
        <ele>95</ele>
        <time>2022-02-04T17:24:13Z</time>
      </trkpt>
      <trkpt lat="43.29722" lon="6.55667">
        <ele>95</ele>
        <time>2022-02-04T17:24:14Z</time>
      </trkpt>
      <trkpt lat="43.29722" lon="6.55667">
        <ele>95</ele>
        <time>2022-02-04T17:24:15Z</time>
      </trkpt>
      <trkpt lat="43.29722" lon="6.55667">
        <ele>95</ele>
        <time>2022-02-04T17:24:16Z</time>
      </trkpt>
      <trkpt lat="43.29722" lon="6.55667">
        <ele>95</ele>
        <time>2022-02-04T17:24:17Z</time>
      </trkpt>
      <trkpt lat="43.29722" lon="6.55667">
        <ele>95</ele>
        <time>2022-02-04T17:24:18Z</time>
      </trkpt>
      <trkpt lat="43.29722" lon="6.55667">
        <ele>95</ele>
        <time>2022-02-04T17:24:19Z</time>
      </trkpt>
      <trkpt lat="43.29722" lon="6.55667">
        <ele>95</ele>
        <time>2022-02-04T17:24:20Z</time>
      </trkpt>
      <trkpt lat="43.29722" lon="6.55667">
        <ele>95</ele>
        <time>2022-02-04T17:24:21Z</time>
      </trkpt>
      <trkpt lat="43.29722" lon="6.55667">
        <ele>95</ele>
        <time>2022-02-04T17:24:22Z</time>
      </trkpt>
      <trkpt lat="43.29722" lon="6.55667">
        <ele>95</ele>
        <time>2022-02-04T17:24:23Z</time>
      </trkpt>
      <trkpt lat="43.29722" lon="6.55667">
        <ele>95</ele>
        <time>2022-02-04T17:24:24Z</time>
      </trkpt>
      <trkpt lat="43.29722" lon="6.55667">
        <ele>95</ele>
        <time>2022-02-04T17:24:25Z</time>
      </trkpt>
      <trkpt lat="43.29722" lon="6.55667">
        <ele>95</ele>
        <time>2022-02-04T17:24:26Z</time>
      </trkpt>
      <trkpt lat="43.29722" lon="6.55667">
        <ele>95</ele>
        <time>2022-02-04T17:24:27Z</time>
      </trkpt>
      <trkpt lat="43.29722" lon="6.55667">
        <ele>95</ele>
        <time>2022-02-04T17:24:28Z</time>
      </trkpt>
      <trkpt lat="43.29722" lon="6.55667">
        <ele>95</ele>
        <time>2022-02-04T17:24:29Z</time>
      </trkpt>
      <trkpt lat="43.29722" lon="6.55667">
        <ele>95</ele>
        <time>2022-02-04T17:24:30Z</time>
      </trkpt>
      <trkpt lat="43.29722" lon="6.55667">
        <ele>95</ele>
        <time>2022-02-04T17:24:31Z</time>
      </trkpt>
      <trkpt lat="43.29722" lon="6.55667">
        <ele>95</ele>
        <time>2022-02-04T17:24:32Z</time>
      </trkpt>
      <trkpt lat="43.29722" lon="6.55667">
        <ele>94.8</ele>
        <time>2022-02-04T17:24:33Z</time>
      </trkpt>
      <trkpt lat="43.29722" lon="6.55667">
        <ele>94.8</ele>
        <time>2022-02-04T17:24:34Z</time>
      </trkpt>
      <trkpt lat="43.29722" lon="6.55667">
        <ele>94.8</ele>
        <time>2022-02-04T17:24:35Z</time>
      </trkpt>
      <trkpt lat="43.29722" lon="6.55667">
        <ele>94.8</ele>
        <time>2022-02-04T17:24:36Z</time>
      </trkpt>
      <trkpt lat="43.29722" lon="6.55667">
        <ele>94.8</ele>
        <time>2022-02-04T17:24:37Z</time>
      </trkpt>
      <trkpt lat="43.29722" lon="6.55667">
        <ele>94.8</ele>
        <time>2022-02-04T17:24:38Z</time>
      </trkpt>
      <trkpt lat="43.29722" lon="6.55667">
        <ele>94.8</ele>
        <time>2022-02-04T17:24:39Z</time>
      </trkpt>
      <trkpt lat="43.29722" lon="6.55667">
        <ele>94.8</ele>
        <time>2022-02-04T17:24:40Z</time>
      </trkpt>
      <trkpt lat="43.29722" lon="6.55667">
        <ele>94.8</ele>
        <time>2022-02-04T17:24:41Z</time>
      </trkpt>
      <trkpt lat="43.29722" lon="6.55667">
        <ele>94.8</ele>
        <time>2022-02-04T17:24:42Z</time>
      </trkpt>
      <trkpt lat="43.29722" lon="6.55667">
        <ele>94.8</ele>
        <time>2022-02-04T17:24:43Z</time>
      </trkpt>
      <trkpt lat="43.29722" lon="6.55667">
        <ele>94.8</ele>
        <time>2022-02-04T17:24:44Z</time>
      </trkpt>
      <trkpt lat="43.29722" lon="6.55667">
        <ele>94.8</ele>
        <time>2022-02-04T17:24:45Z</time>
      </trkpt>
      <trkpt lat="43.29722" lon="6.55667">
        <ele>94.8</ele>
        <time>2022-02-04T17:24:46Z</time>
      </trkpt>
      <trkpt lat="43.29722" lon="6.55667">
        <ele>94.8</ele>
        <time>2022-02-04T17:24:47Z</time>
      </trkpt>
      <trkpt lat="43.29722" lon="6.55667">
        <ele>94.8</ele>
        <time>2022-02-04T17:24:48Z</time>
      </trkpt>
      <trkpt lat="43.29722" lon="6.55667">
        <ele>94.8</ele>
        <time>2022-02-04T17:24:49Z</time>
      </trkpt>
      <trkpt lat="43.29722" lon="6.55667">
        <ele>94.8</ele>
        <time>2022-02-04T17:24:50Z</time>
      </trkpt>
      <trkpt lat="43.29722" lon="6.55667">
        <ele>94.8</ele>
        <time>2022-02-04T17:24:51Z</time>
      </trkpt>
      <trkpt lat="43.29722" lon="6.55667">
        <ele>94.8</ele>
        <time>2022-02-04T17:24:52Z</time>
      </trkpt>
      <trkpt lat="43.29722" lon="6.55667">
        <ele>94.8</ele>
        <time>2022-02-04T17:24:53Z</time>
      </trkpt>
      <trkpt lat="43.29722" lon="6.55667">
        <ele>94.8</ele>
        <time>2022-02-04T17:24:54Z</time>
      </trkpt>
      <trkpt lat="43.29722" lon="6.55667">
        <ele>94.8</ele>
        <time>2022-02-04T17:24:55Z</time>
      </trkpt>
      <trkpt lat="43.29722" lon="6.55667">
        <ele>94.8</ele>
        <time>2022-02-04T17:24:56Z</time>
      </trkpt>
      <trkpt lat="43.29722" lon="6.55667">
        <ele>94.6</ele>
        <time>2022-02-04T17:24:57Z</time>
      </trkpt>
      <trkpt lat="43.29722" lon="6.55667">
        <ele>94.6</ele>
        <time>2022-02-04T17:24:58Z</time>
      </trkpt>
      <trkpt lat="43.29722" lon="6.55667">
        <ele>94.6</ele>
        <time>2022-02-04T17:24:59Z</time>
      </trkpt>
      <trkpt lat="43.29722" lon="6.55667">
        <ele>94.6</ele>
        <time>2022-02-04T17:25:00Z</time>
      </trkpt>
      <trkpt lat="43.29722" lon="6.55666">
        <ele>94.6</ele>
        <time>2022-02-04T17:25:01Z</time>
      </trkpt>
      <trkpt lat="43.29722" lon="6.55666">
        <ele>94.6</ele>
        <time>2022-02-04T17:25:02Z</time>
      </trkpt>
      <trkpt lat="43.29721" lon="6.55666">
        <ele>94.6</ele>
        <time>2022-02-04T17:25:03Z</time>
      </trkpt>
      <trkpt lat="43.29721" lon="6.55666">
        <ele>94.6</ele>
        <time>2022-02-04T17:25:04Z</time>
      </trkpt>
      <trkpt lat="43.29721" lon="6.55666">
        <ele>94.6</ele>
        <time>2022-02-04T17:25:05Z</time>
      </trkpt>
      <trkpt lat="43.29721" lon="6.55666">
        <ele>94.6</ele>
        <time>2022-02-04T17:25:06Z</time>
      </trkpt>
      <trkpt lat="43.29721" lon="6.55666">
        <ele>94.6</ele>
        <time>2022-02-04T17:25:07Z</time>
      </trkpt>
      <trkpt lat="43.29721" lon="6.55666">
        <ele>94.4</ele>
        <time>2022-02-04T17:25:08Z</time>
      </trkpt>
      <trkpt lat="43.29721" lon="6.55666">
        <ele>94.4</ele>
        <time>2022-02-04T17:25:09Z</time>
      </trkpt>
      <trkpt lat="43.29721" lon="6.55666">
        <ele>94.4</ele>
        <time>2022-02-04T17:25:10Z</time>
      </trkpt>
      <trkpt lat="43.29721" lon="6.55666">
        <ele>94.6</ele>
        <time>2022-02-04T17:25:11Z</time>
      </trkpt>
      <trkpt lat="43.29722" lon="6.55666">
        <ele>94.6</ele>
        <time>2022-02-04T17:25:12Z</time>
      </trkpt>
      <trkpt lat="43.29722" lon="6.55666">
        <ele>94.6</ele>
        <time>2022-02-04T17:25:13Z</time>
      </trkpt>
      <trkpt lat="43.29722" lon="6.55666">
        <ele>94.6</ele>
        <time>2022-02-04T17:25:14Z</time>
      </trkpt>
      <trkpt lat="43.29722" lon="6.55666">
        <ele>94.6</ele>
        <time>2022-02-04T17:25:15Z</time>
      </trkpt>
      <trkpt lat="43.29722" lon="6.55666">
        <ele>94.6</ele>
        <time>2022-02-04T17:25:16Z</time>
      </trkpt>
      <trkpt lat="43.29722" lon="6.55666">
        <ele>94.6</ele>
        <time>2022-02-04T17:25:17Z</time>
      </trkpt>
      <trkpt lat="43.29722" lon="6.55666">
        <ele>94.6</ele>
        <time>2022-02-04T17:25:18Z</time>
      </trkpt>
      <trkpt lat="43.29722" lon="6.55666">
        <ele>94.6</ele>
        <time>2022-02-04T17:25:19Z</time>
      </trkpt>
      <trkpt lat="43.29722" lon="6.55666">
        <ele>94.6</ele>
        <time>2022-02-04T17:25:20Z</time>
      </trkpt>
      <trkpt lat="43.29722" lon="6.55666">
        <ele>94.6</ele>
        <time>2022-02-04T17:25:21Z</time>
      </trkpt>
      <trkpt lat="43.29722" lon="6.55665">
        <ele>94.6</ele>
        <time>2022-02-04T17:25:22Z</time>
      </trkpt>
      <trkpt lat="43.29722" lon="6.55665">
        <ele>94.6</ele>
        <time>2022-02-04T17:25:23Z</time>
      </trkpt>
      <trkpt lat="43.29722" lon="6.55665">
        <ele>94.6</ele>
        <time>2022-02-04T17:25:24Z</time>
      </trkpt>
      <trkpt lat="43.29722" lon="6.55665">
        <ele>94.6</ele>
        <time>2022-02-04T17:25:25Z</time>
      </trkpt>
      <trkpt lat="43.29722" lon="6.55665">
        <ele>94.6</ele>
        <time>2022-02-04T17:25:26Z</time>
      </trkpt>
      <trkpt lat="43.29721" lon="6.55665">
        <ele>94.6</ele>
        <time>2022-02-04T17:25:27Z</time>
      </trkpt>
      <trkpt lat="43.29721" lon="6.55665">
        <ele>94.6</ele>
        <time>2022-02-04T17:25:28Z</time>
      </trkpt>
      <trkpt lat="43.29721" lon="6.55665">
        <ele>94.6</ele>
        <time>2022-02-04T17:25:29Z</time>
      </trkpt>
      <trkpt lat="43.29721" lon="6.55665">
        <ele>94.6</ele>
        <time>2022-02-04T17:25:30Z</time>
      </trkpt>
      <trkpt lat="43.29721" lon="6.55665">
        <ele>94.6</ele>
        <time>2022-02-04T17:25:31Z</time>
      </trkpt>
      <trkpt lat="43.29721" lon="6.55665">
        <ele>94.4</ele>
        <time>2022-02-04T17:25:32Z</time>
      </trkpt>
      <trkpt lat="43.29721" lon="6.55665">
        <ele>94.4</ele>
        <time>2022-02-04T17:25:33Z</time>
      </trkpt>
      <trkpt lat="43.29721" lon="6.55665">
        <ele>94.6</ele>
        <time>2022-02-04T17:25:34Z</time>
      </trkpt>
      <trkpt lat="43.29721" lon="6.55665">
        <ele>94.6</ele>
        <time>2022-02-04T17:25:35Z</time>
      </trkpt>
      <trkpt lat="43.29721" lon="6.55665">
        <ele>94.6</ele>
        <time>2022-02-04T17:25:36Z</time>
      </trkpt>
      <trkpt lat="43.29721" lon="6.55665">
        <ele>94.6</ele>
        <time>2022-02-04T17:25:37Z</time>
      </trkpt>
      <trkpt lat="43.29721" lon="6.55665">
        <ele>94.6</ele>
        <time>2022-02-04T17:25:38Z</time>
      </trkpt>
      <trkpt lat="43.29721" lon="6.55665">
        <ele>94.6</ele>
        <time>2022-02-04T17:25:39Z</time>
      </trkpt>
      <trkpt lat="43.29721" lon="6.55664">
        <ele>94.6</ele>
        <time>2022-02-04T17:25:40Z</time>
      </trkpt>
      <trkpt lat="43.2972" lon="6.55663">
        <ele>94.6</ele>
        <time>2022-02-04T17:25:41Z</time>
      </trkpt>
      <trkpt lat="43.2972" lon="6.55663">
        <ele>94.6</ele>
        <time>2022-02-04T17:25:42Z</time>
      </trkpt>
      <trkpt lat="43.2972" lon="6.55663">
        <ele>94.6</ele>
        <time>2022-02-04T17:25:43Z</time>
      </trkpt>
      <trkpt lat="43.2972" lon="6.55663">
        <ele>94.6</ele>
        <time>2022-02-04T17:25:44Z</time>
      </trkpt>
      <trkpt lat="43.2972" lon="6.55663">
        <ele>94.6</ele>
        <time>2022-02-04T17:25:45Z</time>
      </trkpt>
      <trkpt lat="43.2972" lon="6.55663">
        <ele>94.6</ele>
        <time>2022-02-04T17:25:46Z</time>
      </trkpt>
      <trkpt lat="43.2972" lon="6.55663">
        <ele>94.6</ele>
        <time>2022-02-04T17:25:47Z</time>
      </trkpt>
      <trkpt lat="43.2972" lon="6.55663">
        <ele>94.6</ele>
        <time>2022-02-04T17:25:48Z</time>
      </trkpt>
      <trkpt lat="43.2972" lon="6.55663">
        <ele>94.6</ele>
        <time>2022-02-04T17:25:49Z</time>
      </trkpt>
      <trkpt lat="43.2972" lon="6.55663">
        <ele>94.6</ele>
        <time>2022-02-04T17:25:50Z</time>
      </trkpt>
      <trkpt lat="43.2972" lon="6.55663">
        <ele>94.6</ele>
        <time>2022-02-04T17:25:51Z</time>
      </trkpt>
      <trkpt lat="43.2972" lon="6.55663">
        <ele>94.6</ele>
        <time>2022-02-04T17:25:52Z</time>
      </trkpt>
      <trkpt lat="43.2972" lon="6.55663">
        <ele>94.6</ele>
        <time>2022-02-04T17:25:53Z</time>
      </trkpt>
      <trkpt lat="43.2972" lon="6.55663">
        <ele>94.6</ele>
        <time>2022-02-04T17:25:54Z</time>
      </trkpt>
      <trkpt lat="43.2972" lon="6.55663">
        <ele>94.6</ele>
        <time>2022-02-04T17:25:55Z</time>
      </trkpt>
      <trkpt lat="43.2972" lon="6.55663">
        <ele>94.6</ele>
        <time>2022-02-04T17:25:56Z</time>
      </trkpt>
      <trkpt lat="43.2972" lon="6.55663">
        <ele>94.6</ele>
        <time>2022-02-04T17:25:57Z</time>
      </trkpt>
      <trkpt lat="43.2972" lon="6.55663">
        <ele>94.6</ele>
        <time>2022-02-04T17:25:58Z</time>
      </trkpt>
      <trkpt lat="43.2972" lon="6.55663">
        <ele>94.6</ele>
        <time>2022-02-04T17:25:59Z</time>
      </trkpt>
      <trkpt lat="43.2972" lon="6.55663">
        <ele>94.6</ele>
        <time>2022-02-04T17:26:00Z</time>
      </trkpt>
      <trkpt lat="43.2972" lon="6.55663">
        <ele>94.6</ele>
        <time>2022-02-04T17:26:01Z</time>
      </trkpt>
      <trkpt lat="43.2972" lon="6.55663">
        <ele>94.6</ele>
        <time>2022-02-04T17:26:02Z</time>
      </trkpt>
      <trkpt lat="43.2972" lon="6.55663">
        <ele>94.6</ele>
        <time>2022-02-04T17:26:03Z</time>
      </trkpt>
      <trkpt lat="43.2972" lon="6.55663">
        <ele>94.6</ele>
        <time>2022-02-04T17:26:04Z</time>
      </trkpt>
      <trkpt lat="43.2972" lon="6.55663">
        <ele>94.6</ele>
        <time>2022-02-04T17:26:05Z</time>
      </trkpt>
      <trkpt lat="43.2972" lon="6.55663">
        <ele>94.6</ele>
        <time>2022-02-04T17:26:06Z</time>
      </trkpt>
      <trkpt lat="43.2972" lon="6.55663">
        <ele>94.6</ele>
        <time>2022-02-04T17:26:07Z</time>
      </trkpt>
      <trkpt lat="43.2972" lon="6.55663">
        <ele>94.6</ele>
        <time>2022-02-04T17:26:08Z</time>
      </trkpt>
      <trkpt lat="43.2972" lon="6.55663">
        <ele>94.6</ele>
        <time>2022-02-04T17:26:09Z</time>
      </trkpt>
      <trkpt lat="43.2972" lon="6.55663">
        <ele>94.6</ele>
        <time>2022-02-04T17:26:10Z</time>
      </trkpt>
      <trkpt lat="43.2972" lon="6.55663">
        <ele>94.6</ele>
        <time>2022-02-04T17:26:11Z</time>
      </trkpt>
      <trkpt lat="43.2972" lon="6.55663">
        <ele>94.6</ele>
        <time>2022-02-04T17:26:12Z</time>
      </trkpt>
      <trkpt lat="43.2972" lon="6.55663">
        <ele>94.6</ele>
        <time>2022-02-04T17:26:13Z</time>
      </trkpt>
      <trkpt lat="43.2972" lon="6.55663">
        <ele>94.6</ele>
        <time>2022-02-04T17:26:14Z</time>
      </trkpt>
      <trkpt lat="43.2972" lon="6.55663">
        <ele>94.6</ele>
        <time>2022-02-04T17:26:15Z</time>
      </trkpt>
      <trkpt lat="43.2972" lon="6.55663">
        <ele>94.6</ele>
        <time>2022-02-04T17:26:16Z</time>
      </trkpt>
      <trkpt lat="43.2972" lon="6.55663">
        <ele>94.6</ele>
        <time>2022-02-04T17:26:17Z</time>
      </trkpt>
      <trkpt lat="43.2972" lon="6.55663">
        <ele>94.6</ele>
        <time>2022-02-04T17:26:18Z</time>
      </trkpt>
      <trkpt lat="43.2972" lon="6.55663">
        <ele>94.6</ele>
        <time>2022-02-04T17:26:19Z</time>
      </trkpt>
      <trkpt lat="43.2972" lon="6.55663">
        <ele>94.6</ele>
        <time>2022-02-04T17:26:20Z</time>
      </trkpt>
      <trkpt lat="43.2972" lon="6.55663">
        <ele>94.6</ele>
        <time>2022-02-04T17:26:21Z</time>
      </trkpt>
      <trkpt lat="43.2972" lon="6.55663">
        <ele>94.6</ele>
        <time>2022-02-04T17:26:22Z</time>
      </trkpt>
      <trkpt lat="43.2972" lon="6.55663">
        <ele>94.6</ele>
        <time>2022-02-04T17:26:23Z</time>
      </trkpt>
      <trkpt lat="43.2972" lon="6.55663">
        <ele>94.6</ele>
        <time>2022-02-04T17:26:24Z</time>
      </trkpt>
      <trkpt lat="43.2972" lon="6.55663">
        <ele>94.6</ele>
        <time>2022-02-04T17:26:25Z</time>
      </trkpt>
      <trkpt lat="43.2972" lon="6.55663">
        <ele>94.6</ele>
        <time>2022-02-04T17:26:26Z</time>
      </trkpt>
      <trkpt lat="43.2972" lon="6.55663">
        <ele>94.6</ele>
        <time>2022-02-04T17:26:27Z</time>
      </trkpt>
      <trkpt lat="43.2972" lon="6.55663">
        <ele>94.6</ele>
        <time>2022-02-04T17:26:28Z</time>
      </trkpt>
      <trkpt lat="43.2972" lon="6.55663">
        <ele>94.6</ele>
        <time>2022-02-04T17:26:29Z</time>
      </trkpt>
      <trkpt lat="43.2972" lon="6.55663">
        <ele>94.6</ele>
        <time>2022-02-04T17:26:30Z</time>
      </trkpt>
      <trkpt lat="43.2972" lon="6.55663">
        <ele>94.6</ele>
        <time>2022-02-04T17:26:31Z</time>
      </trkpt>
      <trkpt lat="43.2972" lon="6.55663">
        <ele>94.6</ele>
        <time>2022-02-04T17:26:32Z</time>
      </trkpt>
      <trkpt lat="43.2972" lon="6.55663">
        <ele>94.6</ele>
        <time>2022-02-04T17:26:33Z</time>
      </trkpt>
      <trkpt lat="43.2972" lon="6.55663">
        <ele>94.6</ele>
        <time>2022-02-04T17:26:34Z</time>
      </trkpt>
      <trkpt lat="43.2972" lon="6.55663">
        <ele>94.6</ele>
        <time>2022-02-04T17:26:35Z</time>
      </trkpt>
      <trkpt lat="43.2972" lon="6.55663">
        <ele>94.6</ele>
        <time>2022-02-04T17:26:36Z</time>
      </trkpt>
      <trkpt lat="43.2972" lon="6.55663">
        <ele>94.6</ele>
        <time>2022-02-04T17:26:37Z</time>
      </trkpt>
      <trkpt lat="43.2972" lon="6.55663">
        <ele>94.6</ele>
        <time>2022-02-04T17:26:38Z</time>
      </trkpt>
      <trkpt lat="43.29721" lon="6.55663">
        <ele>94.6</ele>
        <time>2022-02-04T17:26:39Z</time>
      </trkpt>
      <trkpt lat="43.29721" lon="6.55663">
        <ele>94.6</ele>
        <time>2022-02-04T17:26:40Z</time>
      </trkpt>
      <trkpt lat="43.29721" lon="6.55663">
        <ele>94.6</ele>
        <time>2022-02-04T17:26:41Z</time>
      </trkpt>
      <trkpt lat="43.29721" lon="6.55663">
        <ele>94.6</ele>
        <time>2022-02-04T17:26:42Z</time>
      </trkpt>
      <trkpt lat="43.29722" lon="6.5566">
        <ele>94.6</ele>
        <time>2022-02-04T17:26:43Z</time>
      </trkpt>
      <trkpt lat="43.29722" lon="6.55657">
        <ele>94.6</ele>
        <time>2022-02-04T17:26:44Z</time>
      </trkpt>
      <trkpt lat="43.29723" lon="6.55654">
        <ele>94.6</ele>
        <time>2022-02-04T17:26:45Z</time>
      </trkpt>
      <trkpt lat="43.29724" lon="6.55651">
        <ele>94.6</ele>
        <time>2022-02-04T17:26:46Z</time>
      </trkpt>
      <trkpt lat="43.29726" lon="6.55648">
        <ele>94.8</ele>
        <time>2022-02-04T17:26:47Z</time>
      </trkpt>
      <trkpt lat="43.29727" lon="6.55644">
        <ele>95</ele>
        <time>2022-02-04T17:26:48Z</time>
      </trkpt>
      <trkpt lat="43.29728" lon="6.5564">
        <ele>95.2</ele>
        <time>2022-02-04T17:26:49Z</time>
      </trkpt>
      <trkpt lat="43.29729" lon="6.55637">
        <ele>95.4</ele>
        <time>2022-02-04T17:26:50Z</time>
      </trkpt>
      <trkpt lat="43.2973" lon="6.55633">
        <ele>95.8</ele>
        <time>2022-02-04T17:26:51Z</time>
      </trkpt>
      <trkpt lat="43.2973" lon="6.5563">
        <ele>96</ele>
        <time>2022-02-04T17:26:52Z</time>
      </trkpt>
      <trkpt lat="43.29731" lon="6.55627">
        <ele>96.4</ele>
        <time>2022-02-04T17:26:53Z</time>
      </trkpt>
      <trkpt lat="43.29732" lon="6.55624">
        <ele>96.8</ele>
        <time>2022-02-04T17:26:54Z</time>
      </trkpt>
      <trkpt lat="43.29733" lon="6.5562">
        <ele>97.2</ele>
        <time>2022-02-04T17:26:55Z</time>
      </trkpt>
      <trkpt lat="43.29734" lon="6.55616">
        <ele>97.2</ele>
        <time>2022-02-04T17:26:56Z</time>
      </trkpt>
      <trkpt lat="43.29735" lon="6.55614">
        <ele>97.6</ele>
        <time>2022-02-04T17:26:57Z</time>
      </trkpt>
      <trkpt lat="43.29736" lon="6.5561">
        <ele>97.8</ele>
        <time>2022-02-04T17:26:58Z</time>
      </trkpt>
      <trkpt lat="43.29737" lon="6.55606">
        <ele>98</ele>
        <time>2022-02-04T17:26:59Z</time>
      </trkpt>
      <trkpt lat="43.29738" lon="6.55603">
        <ele>98.4</ele>
        <time>2022-02-04T17:27:00Z</time>
      </trkpt>
      <trkpt lat="43.29739" lon="6.55599">
        <ele>98.4</ele>
        <time>2022-02-04T17:27:01Z</time>
      </trkpt>
      <trkpt lat="43.2974" lon="6.55596">
        <ele>99</ele>
        <time>2022-02-04T17:27:02Z</time>
      </trkpt>
      <trkpt lat="43.2974" lon="6.55592">
        <ele>99.4</ele>
        <time>2022-02-04T17:27:03Z</time>
      </trkpt>
      <trkpt lat="43.29741" lon="6.55588">
        <ele>99.8</ele>
        <time>2022-02-04T17:27:04Z</time>
      </trkpt>
      <trkpt lat="43.29742" lon="6.55584">
        <ele>100</ele>
        <time>2022-02-04T17:27:05Z</time>
      </trkpt>
      <trkpt lat="43.29743" lon="6.5558">
        <ele>100.4</ele>
        <time>2022-02-04T17:27:06Z</time>
      </trkpt>
      <trkpt lat="43.29744" lon="6.55577">
        <ele>100.6</ele>
        <time>2022-02-04T17:27:07Z</time>
      </trkpt>
      <trkpt lat="43.29744" lon="6.55572">
        <ele>100.8</ele>
        <time>2022-02-04T17:27:08Z</time>
      </trkpt>
      <trkpt lat="43.29745" lon="6.55568">
        <ele>101.2</ele>
        <time>2022-02-04T17:27:09Z</time>
      </trkpt>
      <trkpt lat="43.29746" lon="6.55564">
        <ele>101.4</ele>
        <time>2022-02-04T17:27:10Z</time>
      </trkpt>
      <trkpt lat="43.29747" lon="6.5556">
        <ele>102</ele>
        <time>2022-02-04T17:27:11Z</time>
      </trkpt>
      <trkpt lat="43.29747" lon="6.55555">
        <ele>102.2</ele>
        <time>2022-02-04T17:27:12Z</time>
      </trkpt>
      <trkpt lat="43.29747" lon="6.55551">
        <ele>102.6</ele>
        <time>2022-02-04T17:27:13Z</time>
      </trkpt>
      <trkpt lat="43.29747" lon="6.55546">
        <ele>102.8</ele>
        <time>2022-02-04T17:27:14Z</time>
      </trkpt>
      <trkpt lat="43.29747" lon="6.55542">
        <ele>103.2</ele>
        <time>2022-02-04T17:27:15Z</time>
      </trkpt>
      <trkpt lat="43.29747" lon="6.55538">
        <ele>103.4</ele>
        <time>2022-02-04T17:27:16Z</time>
      </trkpt>
      <trkpt lat="43.29747" lon="6.55535">
        <ele>103.6</ele>
        <time>2022-02-04T17:27:17Z</time>
      </trkpt>
      <trkpt lat="43.29747" lon="6.55531">
        <ele>104</ele>
        <time>2022-02-04T17:27:18Z</time>
      </trkpt>
      <trkpt lat="43.29747" lon="6.55528">
        <ele>104.4</ele>
        <time>2022-02-04T17:27:19Z</time>
      </trkpt>
      <trkpt lat="43.29746" lon="6.55524">
        <ele>105.4</ele>
        <time>2022-02-04T17:27:20Z</time>
      </trkpt>
      <trkpt lat="43.29746" lon="6.5552">
        <ele>105.4</ele>
        <time>2022-02-04T17:27:21Z</time>
      </trkpt>
      <trkpt lat="43.29745" lon="6.55517">
        <ele>105.4</ele>
        <time>2022-02-04T17:27:22Z</time>
      </trkpt>
      <trkpt lat="43.29744" lon="6.55512">
        <ele>105.4</ele>
        <time>2022-02-04T17:27:23Z</time>
      </trkpt>
      <trkpt lat="43.29744" lon="6.55509">
        <ele>105.4</ele>
        <time>2022-02-04T17:27:24Z</time>
      </trkpt>
      <trkpt lat="43.29743" lon="6.55505">
        <ele>105.8</ele>
        <time>2022-02-04T17:27:25Z</time>
      </trkpt>
      <trkpt lat="43.29743" lon="6.55502">
        <ele>106</ele>
        <time>2022-02-04T17:27:26Z</time>
      </trkpt>
      <trkpt lat="43.29742" lon="6.55498">
        <ele>106.4</ele>
        <time>2022-02-04T17:27:27Z</time>
      </trkpt>
      <trkpt lat="43.29741" lon="6.55494">
        <ele>106.6</ele>
        <time>2022-02-04T17:27:28Z</time>
      </trkpt>
      <trkpt lat="43.29741" lon="6.55491">
        <ele>107.2</ele>
        <time>2022-02-04T17:27:29Z</time>
      </trkpt>
      <trkpt lat="43.29741" lon="6.55487">
        <ele>107.8</ele>
        <time>2022-02-04T17:27:30Z</time>
      </trkpt>
      <trkpt lat="43.2974" lon="6.55484">
        <ele>108.4</ele>
        <time>2022-02-04T17:27:31Z</time>
      </trkpt>
      <trkpt lat="43.2974" lon="6.5548">
        <ele>108.6</ele>
        <time>2022-02-04T17:27:32Z</time>
      </trkpt>
      <trkpt lat="43.29739" lon="6.55474">
        <ele>109</ele>
        <time>2022-02-04T17:27:33Z</time>
      </trkpt>
      <trkpt lat="43.29739" lon="6.5547">
        <ele>109.2</ele>
        <time>2022-02-04T17:27:34Z</time>
      </trkpt>
      <trkpt lat="43.29739" lon="6.55466">
        <ele>109.4</ele>
        <time>2022-02-04T17:27:35Z</time>
      </trkpt>
      <trkpt lat="43.2974" lon="6.55463">
        <ele>109.8</ele>
        <time>2022-02-04T17:27:36Z</time>
      </trkpt>
      <trkpt lat="43.2974" lon="6.55459">
        <ele>110.4</ele>
        <time>2022-02-04T17:27:37Z</time>
      </trkpt>
      <trkpt lat="43.29741" lon="6.55454">
        <ele>110.8</ele>
        <time>2022-02-04T17:27:38Z</time>
      </trkpt>
      <trkpt lat="43.29742" lon="6.5545">
        <ele>111.2</ele>
        <time>2022-02-04T17:27:39Z</time>
      </trkpt>
      <trkpt lat="43.29744" lon="6.55445">
        <ele>111.6</ele>
        <time>2022-02-04T17:27:40Z</time>
      </trkpt>
      <trkpt lat="43.29745" lon="6.55442">
        <ele>112</ele>
        <time>2022-02-04T17:27:41Z</time>
      </trkpt>
      <trkpt lat="43.29746" lon="6.55437">
        <ele>112.4</ele>
        <time>2022-02-04T17:27:42Z</time>
      </trkpt>
      <trkpt lat="43.29747" lon="6.55433">
        <ele>112.6</ele>
        <time>2022-02-04T17:27:43Z</time>
      </trkpt>
      <trkpt lat="43.29749" lon="6.5543">
        <ele>112.8</ele>
        <time>2022-02-04T17:27:44Z</time>
      </trkpt>
      <trkpt lat="43.29752" lon="6.55426">
        <ele>113</ele>
        <time>2022-02-04T17:27:45Z</time>
      </trkpt>
      <trkpt lat="43.29753" lon="6.55423">
        <ele>113</ele>
        <time>2022-02-04T17:27:46Z</time>
      </trkpt>
      <trkpt lat="43.29755" lon="6.55419">
        <ele>113.6</ele>
        <time>2022-02-04T17:27:47Z</time>
      </trkpt>
      <trkpt lat="43.29757" lon="6.55415">
        <ele>114</ele>
        <time>2022-02-04T17:27:48Z</time>
      </trkpt>
      <trkpt lat="43.29759" lon="6.55411">
        <ele>114.2</ele>
        <time>2022-02-04T17:27:49Z</time>
      </trkpt>
      <trkpt lat="43.29761" lon="6.55407">
        <ele>114.4</ele>
        <time>2022-02-04T17:27:50Z</time>
      </trkpt>
      <trkpt lat="43.29763" lon="6.55403">
        <ele>114.8</ele>
        <time>2022-02-04T17:27:51Z</time>
      </trkpt>
      <trkpt lat="43.29764" lon="6.554">
        <ele>115.2</ele>
        <time>2022-02-04T17:27:52Z</time>
      </trkpt>
      <trkpt lat="43.29766" lon="6.55396">
        <ele>115.4</ele>
        <time>2022-02-04T17:27:53Z</time>
      </trkpt>
      <trkpt lat="43.29768" lon="6.55392">
        <ele>115.6</ele>
        <time>2022-02-04T17:27:54Z</time>
      </trkpt>
      <trkpt lat="43.2977" lon="6.55388">
        <ele>115.8</ele>
        <time>2022-02-04T17:27:55Z</time>
      </trkpt>
      <trkpt lat="43.29772" lon="6.55384">
        <ele>116.2</ele>
        <time>2022-02-04T17:27:56Z</time>
      </trkpt>
      <trkpt lat="43.29773" lon="6.5538">
        <ele>116.4</ele>
        <time>2022-02-04T17:27:57Z</time>
      </trkpt>
      <trkpt lat="43.29774" lon="6.55376">
        <ele>116.8</ele>
        <time>2022-02-04T17:27:58Z</time>
      </trkpt>
      <trkpt lat="43.29775" lon="6.55372">
        <ele>117</ele>
        <time>2022-02-04T17:27:59Z</time>
      </trkpt>
      <trkpt lat="43.29776" lon="6.55368">
        <ele>117.2</ele>
        <time>2022-02-04T17:28:00Z</time>
      </trkpt>
      <trkpt lat="43.29776" lon="6.55363">
        <ele>117.8</ele>
        <time>2022-02-04T17:28:01Z</time>
      </trkpt>
      <trkpt lat="43.29777" lon="6.55359">
        <ele>118</ele>
        <time>2022-02-04T17:28:02Z</time>
      </trkpt>
      <trkpt lat="43.29779" lon="6.55355">
        <ele>118.4</ele>
        <time>2022-02-04T17:28:03Z</time>
      </trkpt>
      <trkpt lat="43.29781" lon="6.55352">
        <ele>118.6</ele>
        <time>2022-02-04T17:28:04Z</time>
      </trkpt>
      <trkpt lat="43.29784" lon="6.5535">
        <ele>119.2</ele>
        <time>2022-02-04T17:28:05Z</time>
      </trkpt>
      <trkpt lat="43.29787" lon="6.55349">
        <ele>119.4</ele>
        <time>2022-02-04T17:28:06Z</time>
      </trkpt>
      <trkpt lat="43.2979" lon="6.55349">
        <ele>120.2</ele>
        <time>2022-02-04T17:28:07Z</time>
      </trkpt>
      <trkpt lat="43.29793" lon="6.55351">
        <ele>120.4</ele>
        <time>2022-02-04T17:28:08Z</time>
      </trkpt>
      <trkpt lat="43.29795" lon="6.55353">
        <ele>120.8</ele>
        <time>2022-02-04T17:28:09Z</time>
      </trkpt>
      <trkpt lat="43.29797" lon="6.55357">
        <ele>121</ele>
        <time>2022-02-04T17:28:10Z</time>
      </trkpt>
      <trkpt lat="43.29797" lon="6.55361">
        <ele>121.4</ele>
        <time>2022-02-04T17:28:11Z</time>
      </trkpt>
      <trkpt lat="43.29798" lon="6.55366">
        <ele>122.2</ele>
        <time>2022-02-04T17:28:12Z</time>
      </trkpt>
      <trkpt lat="43.29797" lon="6.55371">
        <ele>122.6</ele>
        <time>2022-02-04T17:28:13Z</time>
      </trkpt>
      <trkpt lat="43.29797" lon="6.55376">
        <ele>122.8</ele>
        <time>2022-02-04T17:28:14Z</time>
      </trkpt>
      <trkpt lat="43.29796" lon="6.55381">
        <ele>122.8</ele>
        <time>2022-02-04T17:28:15Z</time>
      </trkpt>
      <trkpt lat="43.29795" lon="6.55386">
        <ele>123.2</ele>
        <time>2022-02-04T17:28:16Z</time>
      </trkpt>
      <trkpt lat="43.29793" lon="6.5539">
        <ele>123.2</ele>
        <time>2022-02-04T17:28:17Z</time>
      </trkpt>
      <trkpt lat="43.29791" lon="6.55395">
        <ele>123.4</ele>
        <time>2022-02-04T17:28:18Z</time>
      </trkpt>
      <trkpt lat="43.29789" lon="6.55399">
        <ele>123.4</ele>
        <time>2022-02-04T17:28:19Z</time>
      </trkpt>
      <trkpt lat="43.29787" lon="6.55403">
        <ele>123.4</ele>
        <time>2022-02-04T17:28:20Z</time>
      </trkpt>
      <trkpt lat="43.29785" lon="6.55407">
        <ele>123.6</ele>
        <time>2022-02-04T17:28:21Z</time>
      </trkpt>
      <trkpt lat="43.29783" lon="6.55411">
        <ele>123.6</ele>
        <time>2022-02-04T17:28:22Z</time>
      </trkpt>
      <trkpt lat="43.29781" lon="6.55415">
        <ele>123.6</ele>
        <time>2022-02-04T17:28:23Z</time>
      </trkpt>
      <trkpt lat="43.29779" lon="6.5542">
        <ele>123.8</ele>
        <time>2022-02-04T17:28:24Z</time>
      </trkpt>
      <trkpt lat="43.29778" lon="6.55425">
        <ele>123.8</ele>
        <time>2022-02-04T17:28:25Z</time>
      </trkpt>
      <trkpt lat="43.29776" lon="6.5543">
        <ele>124</ele>
        <time>2022-02-04T17:28:26Z</time>
      </trkpt>
      <trkpt lat="43.29775" lon="6.55435">
        <ele>124</ele>
        <time>2022-02-04T17:28:27Z</time>
      </trkpt>
      <trkpt lat="43.29774" lon="6.5544">
        <ele>124.2</ele>
        <time>2022-02-04T17:28:28Z</time>
      </trkpt>
      <trkpt lat="43.29773" lon="6.55445">
        <ele>124.2</ele>
        <time>2022-02-04T17:28:29Z</time>
      </trkpt>
      <trkpt lat="43.29773" lon="6.5545">
        <ele>124.4</ele>
        <time>2022-02-04T17:28:30Z</time>
      </trkpt>
      <trkpt lat="43.29774" lon="6.55455">
        <ele>124.4</ele>
        <time>2022-02-04T17:28:31Z</time>
      </trkpt>
      <trkpt lat="43.29776" lon="6.55459">
        <ele>124.6</ele>
        <time>2022-02-04T17:28:32Z</time>
      </trkpt>
      <trkpt lat="43.29777" lon="6.55463">
        <ele>124.8</ele>
        <time>2022-02-04T17:28:33Z</time>
      </trkpt>
      <trkpt lat="43.2978" lon="6.55466">
        <ele>124.8</ele>
        <time>2022-02-04T17:28:34Z</time>
      </trkpt>
      <trkpt lat="43.29783" lon="6.55469">
        <ele>125</ele>
        <time>2022-02-04T17:28:35Z</time>
      </trkpt>
      <trkpt lat="43.29786" lon="6.55471">
        <ele>125.2</ele>
        <time>2022-02-04T17:28:36Z</time>
      </trkpt>
      <trkpt lat="43.29789" lon="6.55473">
        <ele>125.2</ele>
        <time>2022-02-04T17:28:37Z</time>
      </trkpt>
      <trkpt lat="43.29793" lon="6.55476">
        <ele>125.4</ele>
        <time>2022-02-04T17:28:38Z</time>
      </trkpt>
      <trkpt lat="43.29797" lon="6.55478">
        <ele>125.6</ele>
        <time>2022-02-04T17:28:39Z</time>
      </trkpt>
      <trkpt lat="43.298" lon="6.5548">
        <ele>125.8</ele>
        <time>2022-02-04T17:28:40Z</time>
      </trkpt>
      <trkpt lat="43.29803" lon="6.55483">
        <ele>126</ele>
        <time>2022-02-04T17:28:41Z</time>
      </trkpt>
      <trkpt lat="43.29806" lon="6.55487">
        <ele>126.2</ele>
        <time>2022-02-04T17:28:42Z</time>
      </trkpt>
      <trkpt lat="43.29809" lon="6.5549">
        <ele>126.4</ele>
        <time>2022-02-04T17:28:43Z</time>
      </trkpt>
      <trkpt lat="43.29811" lon="6.55494">
        <ele>126.6</ele>
        <time>2022-02-04T17:28:44Z</time>
      </trkpt>
      <trkpt lat="43.29812" lon="6.55499">
        <ele>126.8</ele>
        <time>2022-02-04T17:28:45Z</time>
      </trkpt>
      <trkpt lat="43.29812" lon="6.55504">
        <ele>127</ele>
        <time>2022-02-04T17:28:46Z</time>
      </trkpt>
      <trkpt lat="43.29813" lon="6.55509">
        <ele>127.4</ele>
        <time>2022-02-04T17:28:47Z</time>
      </trkpt>
      <trkpt lat="43.29813" lon="6.55513">
        <ele>128.2</ele>
        <time>2022-02-04T17:28:48Z</time>
      </trkpt>
      <trkpt lat="43.29812" lon="6.55517">
        <ele>128.2</ele>
        <time>2022-02-04T17:28:49Z</time>
      </trkpt>
      <trkpt lat="43.29812" lon="6.5552">
        <ele>128.2</ele>
        <time>2022-02-04T17:28:50Z</time>
      </trkpt>
      <trkpt lat="43.29813" lon="6.55524">
        <ele>128.4</ele>
        <time>2022-02-04T17:28:51Z</time>
      </trkpt>
      <trkpt lat="43.29814" lon="6.55529">
        <ele>128.8</ele>
        <time>2022-02-04T17:28:52Z</time>
      </trkpt>
      <trkpt lat="43.29815" lon="6.55531">
        <ele>129</ele>
        <time>2022-02-04T17:28:53Z</time>
      </trkpt>
      <trkpt lat="43.29817" lon="6.55533">
        <ele>129.2</ele>
        <time>2022-02-04T17:28:54Z</time>
      </trkpt>
      <trkpt lat="43.2982" lon="6.55533">
        <ele>129.6</ele>
        <time>2022-02-04T17:28:55Z</time>
      </trkpt>
      <trkpt lat="43.29822" lon="6.55531">
        <ele>129.6</ele>
        <time>2022-02-04T17:28:56Z</time>
      </trkpt>
      <trkpt lat="43.29824" lon="6.55528">
        <ele>130</ele>
        <time>2022-02-04T17:28:57Z</time>
      </trkpt>
      <trkpt lat="43.29824" lon="6.55523">
        <ele>130.2</ele>
        <time>2022-02-04T17:28:58Z</time>
      </trkpt>
      <trkpt lat="43.29825" lon="6.55519">
        <ele>130.6</ele>
        <time>2022-02-04T17:28:59Z</time>
      </trkpt>
      <trkpt lat="43.29825" lon="6.55515">
        <ele>130.8</ele>
        <time>2022-02-04T17:29:00Z</time>
      </trkpt>
      <trkpt lat="43.29826" lon="6.55511">
        <ele>131</ele>
        <time>2022-02-04T17:29:01Z</time>
      </trkpt>
      <trkpt lat="43.29827" lon="6.55508">
        <ele>131.4</ele>
        <time>2022-02-04T17:29:02Z</time>
      </trkpt>
      <trkpt lat="43.29828" lon="6.55504">
        <ele>131.6</ele>
        <time>2022-02-04T17:29:03Z</time>
      </trkpt>
      <trkpt lat="43.29828" lon="6.555">
        <ele>132</ele>
        <time>2022-02-04T17:29:04Z</time>
      </trkpt>
      <trkpt lat="43.29829" lon="6.55495">
        <ele>132.2</ele>
        <time>2022-02-04T17:29:05Z</time>
      </trkpt>
      <trkpt lat="43.29829" lon="6.55491">
        <ele>132.4</ele>
        <time>2022-02-04T17:29:06Z</time>
      </trkpt>
      <trkpt lat="43.29828" lon="6.55486">
        <ele>132.8</ele>
        <time>2022-02-04T17:29:07Z</time>
      </trkpt>
      <trkpt lat="43.29828" lon="6.55482">
        <ele>133.4</ele>
        <time>2022-02-04T17:29:08Z</time>
      </trkpt>
      <trkpt lat="43.29828" lon="6.55478">
        <ele>133.8</ele>
        <time>2022-02-04T17:29:09Z</time>
      </trkpt>
      <trkpt lat="43.29827" lon="6.55473">
        <ele>134.2</ele>
        <time>2022-02-04T17:29:10Z</time>
      </trkpt>
      <trkpt lat="43.29827" lon="6.55469">
        <ele>134.4</ele>
        <time>2022-02-04T17:29:11Z</time>
      </trkpt>
      <trkpt lat="43.29826" lon="6.55465">
        <ele>134.6</ele>
        <time>2022-02-04T17:29:12Z</time>
      </trkpt>
      <trkpt lat="43.29826" lon="6.5546">
        <ele>134.8</ele>
        <time>2022-02-04T17:29:13Z</time>
      </trkpt>
      <trkpt lat="43.29825" lon="6.55456">
        <ele>135.2</ele>
        <time>2022-02-04T17:29:14Z</time>
      </trkpt>
      <trkpt lat="43.29824" lon="6.55452">
        <ele>135.6</ele>
        <time>2022-02-04T17:29:15Z</time>
      </trkpt>
      <trkpt lat="43.29824" lon="6.55449">
        <ele>136</ele>
        <time>2022-02-04T17:29:16Z</time>
      </trkpt>
      <trkpt lat="43.29823" lon="6.55444">
        <ele>136.2</ele>
        <time>2022-02-04T17:29:17Z</time>
      </trkpt>
      <trkpt lat="43.29823" lon="6.5544">
        <ele>136.4</ele>
        <time>2022-02-04T17:29:18Z</time>
      </trkpt>
      <trkpt lat="43.29824" lon="6.55435">
        <ele>137</ele>
        <time>2022-02-04T17:29:19Z</time>
      </trkpt>
      <trkpt lat="43.29824" lon="6.55431">
        <ele>137.4</ele>
        <time>2022-02-04T17:29:20Z</time>
      </trkpt>
      <trkpt lat="43.29824" lon="6.55426">
        <ele>137.6</ele>
        <time>2022-02-04T17:29:21Z</time>
      </trkpt>
      <trkpt lat="43.29825" lon="6.55421">
        <ele>138</ele>
        <time>2022-02-04T17:29:22Z</time>
      </trkpt>
      <trkpt lat="43.29826" lon="6.55416">
        <ele>138.4</ele>
        <time>2022-02-04T17:29:23Z</time>
      </trkpt>
      <trkpt lat="43.29827" lon="6.55411">
        <ele>138.8</ele>
        <time>2022-02-04T17:29:24Z</time>
      </trkpt>
      <trkpt lat="43.29828" lon="6.55406">
        <ele>139.2</ele>
        <time>2022-02-04T17:29:25Z</time>
      </trkpt>
      <trkpt lat="43.29829" lon="6.55403">
        <ele>139.6</ele>
        <time>2022-02-04T17:29:26Z</time>
      </trkpt>
      <trkpt lat="43.2983" lon="6.55397">
        <ele>140</ele>
        <time>2022-02-04T17:29:27Z</time>
      </trkpt>
      <trkpt lat="43.29831" lon="6.55393">
        <ele>140.6</ele>
        <time>2022-02-04T17:29:28Z</time>
      </trkpt>
      <trkpt lat="43.29833" lon="6.55389">
        <ele>141</ele>
        <time>2022-02-04T17:29:29Z</time>
      </trkpt>
      <trkpt lat="43.29835" lon="6.55386">
        <ele>141.2</ele>
        <time>2022-02-04T17:29:30Z</time>
      </trkpt>
      <trkpt lat="43.29838" lon="6.55383">
        <ele>141.6</ele>
        <time>2022-02-04T17:29:31Z</time>
      </trkpt>
      <trkpt lat="43.29841" lon="6.5538">
        <ele>141.8</ele>
        <time>2022-02-04T17:29:32Z</time>
      </trkpt>
      <trkpt lat="43.29845" lon="6.55378">
        <ele>142.2</ele>
        <time>2022-02-04T17:29:33Z</time>
      </trkpt>
      <trkpt lat="43.29848" lon="6.55376">
        <ele>142.4</ele>
        <time>2022-02-04T17:29:34Z</time>
      </trkpt>
      <trkpt lat="43.29851" lon="6.55375">
        <ele>142.8</ele>
        <time>2022-02-04T17:29:35Z</time>
      </trkpt>
      <trkpt lat="43.29855" lon="6.55373">
        <ele>143</ele>
        <time>2022-02-04T17:29:36Z</time>
      </trkpt>
      <trkpt lat="43.29859" lon="6.55371">
        <ele>143.2</ele>
        <time>2022-02-04T17:29:37Z</time>
      </trkpt>
      <trkpt lat="43.29862" lon="6.5537">
        <ele>143.6</ele>
        <time>2022-02-04T17:29:38Z</time>
      </trkpt>
      <trkpt lat="43.29866" lon="6.55369">
        <ele>143.8</ele>
        <time>2022-02-04T17:29:39Z</time>
      </trkpt>
      <trkpt lat="43.29869" lon="6.55367">
        <ele>144.2</ele>
        <time>2022-02-04T17:29:40Z</time>
      </trkpt>
      <trkpt lat="43.29872" lon="6.55366">
        <ele>144.4</ele>
        <time>2022-02-04T17:29:41Z</time>
      </trkpt>
      <trkpt lat="43.29875" lon="6.55365">
        <ele>144.6</ele>
        <time>2022-02-04T17:29:42Z</time>
      </trkpt>
      <trkpt lat="43.29878" lon="6.55363">
        <ele>143.4</ele>
        <time>2022-02-04T17:29:43Z</time>
      </trkpt>
      <trkpt lat="43.29881" lon="6.55362">
        <ele>143.4</ele>
        <time>2022-02-04T17:29:44Z</time>
      </trkpt>
      <trkpt lat="43.29884" lon="6.55359">
        <ele>143.4</ele>
        <time>2022-02-04T17:29:45Z</time>
      </trkpt>
      <trkpt lat="43.29886" lon="6.55356">
        <ele>143.4</ele>
        <time>2022-02-04T17:29:46Z</time>
      </trkpt>
      <trkpt lat="43.29889" lon="6.55353">
        <ele>143.6</ele>
        <time>2022-02-04T17:29:47Z</time>
      </trkpt>
      <trkpt lat="43.2989" lon="6.55349">
        <ele>144</ele>
        <time>2022-02-04T17:29:48Z</time>
      </trkpt>
      <trkpt lat="43.29891" lon="6.55345">
        <ele>144.4</ele>
        <time>2022-02-04T17:29:49Z</time>
      </trkpt>
      <trkpt lat="43.29892" lon="6.55341">
        <ele>144.8</ele>
        <time>2022-02-04T17:29:50Z</time>
      </trkpt>
      <trkpt lat="43.29892" lon="6.55336">
        <ele>144.8</ele>
        <time>2022-02-04T17:29:51Z</time>
      </trkpt>
      <trkpt lat="43.29891" lon="6.55332">
        <ele>145</ele>
        <time>2022-02-04T17:29:52Z</time>
      </trkpt>
      <trkpt lat="43.2989" lon="6.55328">
        <ele>145.4</ele>
        <time>2022-02-04T17:29:53Z</time>
      </trkpt>
      <trkpt lat="43.29888" lon="6.55324">
        <ele>145.6</ele>
        <time>2022-02-04T17:29:54Z</time>
      </trkpt>
      <trkpt lat="43.29885" lon="6.55321">
        <ele>145.8</ele>
        <time>2022-02-04T17:29:55Z</time>
      </trkpt>
      <trkpt lat="43.29881" lon="6.55319">
        <ele>146</ele>
        <time>2022-02-04T17:29:56Z</time>
      </trkpt>
      <trkpt lat="43.29878" lon="6.55317">
        <ele>146.2</ele>
        <time>2022-02-04T17:29:57Z</time>
      </trkpt>
      <trkpt lat="43.29875" lon="6.55315">
        <ele>146.4</ele>
        <time>2022-02-04T17:29:58Z</time>
      </trkpt>
      <trkpt lat="43.29872" lon="6.55313">
        <ele>146.6</ele>
        <time>2022-02-04T17:29:59Z</time>
      </trkpt>
      <trkpt lat="43.29868" lon="6.55311">
        <ele>146.6</ele>
        <time>2022-02-04T17:30:00Z</time>
      </trkpt>
      <trkpt lat="43.29865" lon="6.55309">
        <ele>146.8</ele>
        <time>2022-02-04T17:30:01Z</time>
      </trkpt>
      <trkpt lat="43.29862" lon="6.55306">
        <ele>147</ele>
        <time>2022-02-04T17:30:02Z</time>
      </trkpt>
      <trkpt lat="43.29858" lon="6.55305">
        <ele>147.2</ele>
        <time>2022-02-04T17:30:03Z</time>
      </trkpt>
      <trkpt lat="43.29855" lon="6.55303">
        <ele>147.4</ele>
        <time>2022-02-04T17:30:04Z</time>
      </trkpt>
      <trkpt lat="43.29852" lon="6.55301">
        <ele>147.6</ele>
        <time>2022-02-04T17:30:05Z</time>
      </trkpt>
      <trkpt lat="43.29849" lon="6.55299">
        <ele>147.8</ele>
        <time>2022-02-04T17:30:06Z</time>
      </trkpt>
      <trkpt lat="43.29845" lon="6.55296">
        <ele>148</ele>
        <time>2022-02-04T17:30:07Z</time>
      </trkpt>
      <trkpt lat="43.29842" lon="6.55293">
        <ele>148.6</ele>
        <time>2022-02-04T17:30:08Z</time>
      </trkpt>
      <trkpt lat="43.29839" lon="6.5529">
        <ele>148.8</ele>
        <time>2022-02-04T17:30:09Z</time>
      </trkpt>
      <trkpt lat="43.29836" lon="6.55287">
        <ele>149</ele>
        <time>2022-02-04T17:30:10Z</time>
      </trkpt>
      <trkpt lat="43.29834" lon="6.55284">
        <ele>149.2</ele>
        <time>2022-02-04T17:30:11Z</time>
      </trkpt>
      <trkpt lat="43.29831" lon="6.5528">
        <ele>149.6</ele>
        <time>2022-02-04T17:30:12Z</time>
      </trkpt>
      <trkpt lat="43.29828" lon="6.55276">
        <ele>150</ele>
        <time>2022-02-04T17:30:13Z</time>
      </trkpt>
      <trkpt lat="43.29826" lon="6.55272">
        <ele>150.2</ele>
        <time>2022-02-04T17:30:14Z</time>
      </trkpt>
      <trkpt lat="43.29825" lon="6.55268">
        <ele>150.4</ele>
        <time>2022-02-04T17:30:15Z</time>
      </trkpt>
      <trkpt lat="43.29824" lon="6.55264">
        <ele>150.6</ele>
        <time>2022-02-04T17:30:16Z</time>
      </trkpt>
      <trkpt lat="43.29823" lon="6.55259">
        <ele>150.8</ele>
        <time>2022-02-04T17:30:17Z</time>
      </trkpt>
      <trkpt lat="43.29823" lon="6.55254">
        <ele>151</ele>
        <time>2022-02-04T17:30:18Z</time>
      </trkpt>
      <trkpt lat="43.29824" lon="6.5525">
        <ele>151.2</ele>
        <time>2022-02-04T17:30:19Z</time>
      </trkpt>
      <trkpt lat="43.29825" lon="6.55245">
        <ele>151.2</ele>
        <time>2022-02-04T17:30:20Z</time>
      </trkpt>
      <trkpt lat="43.29826" lon="6.55241">
        <ele>151.4</ele>
        <time>2022-02-04T17:30:21Z</time>
      </trkpt>
      <trkpt lat="43.29828" lon="6.55235">
        <ele>151.8</ele>
        <time>2022-02-04T17:30:22Z</time>
      </trkpt>
      <trkpt lat="43.2983" lon="6.55231">
        <ele>152</ele>
        <time>2022-02-04T17:30:23Z</time>
      </trkpt>
      <trkpt lat="43.29831" lon="6.55227">
        <ele>152.4</ele>
        <time>2022-02-04T17:30:24Z</time>
      </trkpt>
      <trkpt lat="43.29833" lon="6.55223">
        <ele>152.4</ele>
        <time>2022-02-04T17:30:25Z</time>
      </trkpt>
      <trkpt lat="43.29835" lon="6.55218">
        <ele>152.8</ele>
        <time>2022-02-04T17:30:26Z</time>
      </trkpt>
      <trkpt lat="43.29838" lon="6.55213">
        <ele>153.6</ele>
        <time>2022-02-04T17:30:27Z</time>
      </trkpt>
      <trkpt lat="43.2984" lon="6.55209">
        <ele>154.2</ele>
        <time>2022-02-04T17:30:28Z</time>
      </trkpt>
      <trkpt lat="43.29842" lon="6.55205">
        <ele>154.6</ele>
        <time>2022-02-04T17:30:29Z</time>
      </trkpt>
      <trkpt lat="43.29844" lon="6.55201">
        <ele>155</ele>
        <time>2022-02-04T17:30:30Z</time>
      </trkpt>
      <trkpt lat="43.29845" lon="6.55198">
        <ele>155.4</ele>
        <time>2022-02-04T17:30:31Z</time>
      </trkpt>
      <trkpt lat="43.29847" lon="6.55193">
        <ele>155.6</ele>
        <time>2022-02-04T17:30:32Z</time>
      </trkpt>
      <trkpt lat="43.29848" lon="6.55188">
        <ele>155.8</ele>
        <time>2022-02-04T17:30:33Z</time>
      </trkpt>
      <trkpt lat="43.29848" lon="6.55184">
        <ele>156</ele>
        <time>2022-02-04T17:30:34Z</time>
      </trkpt>
      <trkpt lat="43.29848" lon="6.5518">
        <ele>156.4</ele>
        <time>2022-02-04T17:30:35Z</time>
      </trkpt>
      <trkpt lat="43.29848" lon="6.55174">
        <ele>156.6</ele>
        <time>2022-02-04T17:30:36Z</time>
      </trkpt>
      <trkpt lat="43.29847" lon="6.5517">
        <ele>156.8</ele>
        <time>2022-02-04T17:30:37Z</time>
      </trkpt>
      <trkpt lat="43.29847" lon="6.55166">
        <ele>157.4</ele>
        <time>2022-02-04T17:30:38Z</time>
      </trkpt>
      <trkpt lat="43.29845" lon="6.55162">
        <ele>158.2</ele>
        <time>2022-02-04T17:30:39Z</time>
      </trkpt>
      <trkpt lat="43.29844" lon="6.55158">
        <ele>158.6</ele>
        <time>2022-02-04T17:30:40Z</time>
      </trkpt>
      <trkpt lat="43.29842" lon="6.55154">
        <ele>158.8</ele>
        <time>2022-02-04T17:30:41Z</time>
      </trkpt>
      <trkpt lat="43.29841" lon="6.5515">
        <ele>159.2</ele>
        <time>2022-02-04T17:30:42Z</time>
      </trkpt>
      <trkpt lat="43.29839" lon="6.55145">
        <ele>159.4</ele>
        <time>2022-02-04T17:30:43Z</time>
      </trkpt>
      <trkpt lat="43.29838" lon="6.5514">
        <ele>159.6</ele>
        <time>2022-02-04T17:30:44Z</time>
      </trkpt>
      <trkpt lat="43.29837" lon="6.55137">
        <ele>160</ele>
        <time>2022-02-04T17:30:45Z</time>
      </trkpt>
      <trkpt lat="43.29836" lon="6.55132">
        <ele>160.6</ele>
        <time>2022-02-04T17:30:46Z</time>
      </trkpt>
      <trkpt lat="43.29835" lon="6.55126">
        <ele>160.8</ele>
        <time>2022-02-04T17:30:47Z</time>
      </trkpt>
      <trkpt lat="43.29835" lon="6.55122">
        <ele>161.4</ele>
        <time>2022-02-04T17:30:48Z</time>
      </trkpt>
      <trkpt lat="43.29834" lon="6.55117">
        <ele>161.8</ele>
        <time>2022-02-04T17:30:49Z</time>
      </trkpt>
      <trkpt lat="43.29834" lon="6.55113">
        <ele>162.2</ele>
        <time>2022-02-04T17:30:50Z</time>
      </trkpt>
      <trkpt lat="43.29833" lon="6.55107">
        <ele>162.6</ele>
        <time>2022-02-04T17:30:51Z</time>
      </trkpt>
      <trkpt lat="43.29833" lon="6.55101">
        <ele>163.2</ele>
        <time>2022-02-04T17:30:52Z</time>
      </trkpt>
      <trkpt lat="43.29834" lon="6.55096">
        <ele>163.4</ele>
        <time>2022-02-04T17:30:53Z</time>
      </trkpt>
      <trkpt lat="43.29834" lon="6.55091">
        <ele>164</ele>
        <time>2022-02-04T17:30:54Z</time>
      </trkpt>
      <trkpt lat="43.29834" lon="6.55087">
        <ele>164.2</ele>
        <time>2022-02-04T17:30:55Z</time>
      </trkpt>
      <trkpt lat="43.29835" lon="6.55082">
        <ele>164.4</ele>
        <time>2022-02-04T17:30:56Z</time>
      </trkpt>
      <trkpt lat="43.29835" lon="6.55076">
        <ele>164.6</ele>
        <time>2022-02-04T17:30:57Z</time>
      </trkpt>
      <trkpt lat="43.29836" lon="6.55072">
        <ele>165</ele>
        <time>2022-02-04T17:30:58Z</time>
      </trkpt>
      <trkpt lat="43.29837" lon="6.55067">
        <ele>165.2</ele>
        <time>2022-02-04T17:30:59Z</time>
      </trkpt>
      <trkpt lat="43.29838" lon="6.55062">
        <ele>165.4</ele>
        <time>2022-02-04T17:31:00Z</time>
      </trkpt>
      <trkpt lat="43.29839" lon="6.55057">
        <ele>165.8</ele>
        <time>2022-02-04T17:31:01Z</time>
      </trkpt>
      <trkpt lat="43.2984" lon="6.55053">
        <ele>166.4</ele>
        <time>2022-02-04T17:31:02Z</time>
      </trkpt>
      <trkpt lat="43.29841" lon="6.55048">
        <ele>166.6</ele>
        <time>2022-02-04T17:31:03Z</time>
      </trkpt>
      <trkpt lat="43.29842" lon="6.55042">
        <ele>167</ele>
        <time>2022-02-04T17:31:04Z</time>
      </trkpt>
      <trkpt lat="43.29842" lon="6.55038">
        <ele>167.2</ele>
        <time>2022-02-04T17:31:05Z</time>
      </trkpt>
      <trkpt lat="43.29842" lon="6.55033">
        <ele>167.4</ele>
        <time>2022-02-04T17:31:06Z</time>
      </trkpt>
      <trkpt lat="43.29841" lon="6.55029">
        <ele>167.6</ele>
        <time>2022-02-04T17:31:07Z</time>
      </trkpt>
      <trkpt lat="43.29839" lon="6.55024">
        <ele>167.8</ele>
        <time>2022-02-04T17:31:08Z</time>
      </trkpt>
      <trkpt lat="43.29837" lon="6.55021">
        <ele>168.4</ele>
        <time>2022-02-04T17:31:09Z</time>
      </trkpt>
      <trkpt lat="43.29834" lon="6.55018">
        <ele>168.6</ele>
        <time>2022-02-04T17:31:10Z</time>
      </trkpt>
      <trkpt lat="43.29832" lon="6.55016">
        <ele>169</ele>
        <time>2022-02-04T17:31:11Z</time>
      </trkpt>
      <trkpt lat="43.29828" lon="6.55013">
        <ele>169.2</ele>
        <time>2022-02-04T17:31:12Z</time>
      </trkpt>
      <trkpt lat="43.29826" lon="6.55009">
        <ele>169.6</ele>
        <time>2022-02-04T17:31:13Z</time>
      </trkpt>
      <trkpt lat="43.29823" lon="6.55005">
        <ele>169.6</ele>
        <time>2022-02-04T17:31:14Z</time>
      </trkpt>
      <trkpt lat="43.29821" lon="6.55001">
        <ele>170</ele>
        <time>2022-02-04T17:31:15Z</time>
      </trkpt>
      <trkpt lat="43.2982" lon="6.54997">
        <ele>170.4</ele>
        <time>2022-02-04T17:31:16Z</time>
      </trkpt>
      <trkpt lat="43.29819" lon="6.54992">
        <ele>170.6</ele>
        <time>2022-02-04T17:31:17Z</time>
      </trkpt>
      <trkpt lat="43.29819" lon="6.54987">
        <ele>170.6</ele>
        <time>2022-02-04T17:31:18Z</time>
      </trkpt>
      <trkpt lat="43.29819" lon="6.54982">
        <ele>170.8</ele>
        <time>2022-02-04T17:31:19Z</time>
      </trkpt>
      <trkpt lat="43.29819" lon="6.54978">
        <ele>171.4</ele>
        <time>2022-02-04T17:31:20Z</time>
      </trkpt>
      <trkpt lat="43.29819" lon="6.54973">
        <ele>171.8</ele>
        <time>2022-02-04T17:31:21Z</time>
      </trkpt>
      <trkpt lat="43.29819" lon="6.54968">
        <ele>172.2</ele>
        <time>2022-02-04T17:31:22Z</time>
      </trkpt>
      <trkpt lat="43.29819" lon="6.54964">
        <ele>172.6</ele>
        <time>2022-02-04T17:31:23Z</time>
      </trkpt>
      <trkpt lat="43.29818" lon="6.54958">
        <ele>173</ele>
        <time>2022-02-04T17:31:24Z</time>
      </trkpt>
      <trkpt lat="43.29818" lon="6.54955">
        <ele>173.4</ele>
        <time>2022-02-04T17:31:25Z</time>
      </trkpt>
      <trkpt lat="43.29817" lon="6.54951">
        <ele>174</ele>
        <time>2022-02-04T17:31:26Z</time>
      </trkpt>
      <trkpt lat="43.29817" lon="6.54947">
        <ele>174.4</ele>
        <time>2022-02-04T17:31:27Z</time>
      </trkpt>
      <trkpt lat="43.29816" lon="6.54942">
        <ele>174.8</ele>
        <time>2022-02-04T17:31:28Z</time>
      </trkpt>
      <trkpt lat="43.29816" lon="6.54939">
        <ele>175.2</ele>
        <time>2022-02-04T17:31:29Z</time>
      </trkpt>
      <trkpt lat="43.29815" lon="6.54935">
        <ele>175.6</ele>
        <time>2022-02-04T17:31:30Z</time>
      </trkpt>
      <trkpt lat="43.29814" lon="6.5493">
        <ele>175.8</ele>
        <time>2022-02-04T17:31:31Z</time>
      </trkpt>
      <trkpt lat="43.29814" lon="6.54925">
        <ele>176</ele>
        <time>2022-02-04T17:31:32Z</time>
      </trkpt>
      <trkpt lat="43.29814" lon="6.54921">
        <ele>176.4</ele>
        <time>2022-02-04T17:31:33Z</time>
      </trkpt>
      <trkpt lat="43.29814" lon="6.54916">
        <ele>176.6</ele>
        <time>2022-02-04T17:31:34Z</time>
      </trkpt>
      <trkpt lat="43.29815" lon="6.54913">
        <ele>176.8</ele>
        <time>2022-02-04T17:31:35Z</time>
      </trkpt>
      <trkpt lat="43.29817" lon="6.5491">
        <ele>177.2</ele>
        <time>2022-02-04T17:31:36Z</time>
      </trkpt>
      <trkpt lat="43.29819" lon="6.54907">
        <ele>177.4</ele>
        <time>2022-02-04T17:31:37Z</time>
      </trkpt>
      <trkpt lat="43.29821" lon="6.54905">
        <ele>177.8</ele>
        <time>2022-02-04T17:31:38Z</time>
      </trkpt>
      <trkpt lat="43.29824" lon="6.54903">
        <ele>178.2</ele>
        <time>2022-02-04T17:31:39Z</time>
      </trkpt>
      <trkpt lat="43.29826" lon="6.54902">
        <ele>178.6</ele>
        <time>2022-02-04T17:31:40Z</time>
      </trkpt>
      <trkpt lat="43.29828" lon="6.54901">
        <ele>179</ele>
        <time>2022-02-04T17:31:41Z</time>
      </trkpt>
      <trkpt lat="43.29831" lon="6.54902">
        <ele>179.2</ele>
        <time>2022-02-04T17:31:42Z</time>
      </trkpt>
      <trkpt lat="43.29834" lon="6.54903">
        <ele>179.8</ele>
        <time>2022-02-04T17:31:43Z</time>
      </trkpt>
      <trkpt lat="43.29836" lon="6.54905">
        <ele>180.2</ele>
        <time>2022-02-04T17:31:44Z</time>
      </trkpt>
      <trkpt lat="43.29838" lon="6.54906">
        <ele>180.8</ele>
        <time>2022-02-04T17:31:45Z</time>
      </trkpt>
      <trkpt lat="43.29839" lon="6.54908">
        <ele>181.4</ele>
        <time>2022-02-04T17:31:46Z</time>
      </trkpt>
      <trkpt lat="43.29841" lon="6.54909">
        <ele>181.8</ele>
        <time>2022-02-04T17:31:47Z</time>
      </trkpt>
      <trkpt lat="43.29843" lon="6.54912">
        <ele>182.6</ele>
        <time>2022-02-04T17:31:48Z</time>
      </trkpt>
      <trkpt lat="43.29844" lon="6.54915">
        <ele>183</ele>
        <time>2022-02-04T17:31:49Z</time>
      </trkpt>
      <trkpt lat="43.29844" lon="6.54919">
        <ele>183.4</ele>
        <time>2022-02-04T17:31:50Z</time>
      </trkpt>
      <trkpt lat="43.29845" lon="6.54922">
        <ele>183.8</ele>
        <time>2022-02-04T17:31:51Z</time>
      </trkpt>
      <trkpt lat="43.29846" lon="6.54926">
        <ele>184.2</ele>
        <time>2022-02-04T17:31:52Z</time>
      </trkpt>
      <trkpt lat="43.29848" lon="6.5493">
        <ele>184.6</ele>
        <time>2022-02-04T17:31:53Z</time>
      </trkpt>
      <trkpt lat="43.2985" lon="6.54933">
        <ele>184.8</ele>
        <time>2022-02-04T17:31:54Z</time>
      </trkpt>
      <trkpt lat="43.29852" lon="6.54936">
        <ele>185</ele>
        <time>2022-02-04T17:31:55Z</time>
      </trkpt>
      <trkpt lat="43.29853" lon="6.5494">
        <ele>185.6</ele>
        <time>2022-02-04T17:31:56Z</time>
      </trkpt>
      <trkpt lat="43.29854" lon="6.54943">
        <ele>185.8</ele>
        <time>2022-02-04T17:31:57Z</time>
      </trkpt>
      <trkpt lat="43.29856" lon="6.54947">
        <ele>186</ele>
        <time>2022-02-04T17:31:58Z</time>
      </trkpt>
      <trkpt lat="43.29858" lon="6.5495">
        <ele>186.2</ele>
        <time>2022-02-04T17:31:59Z</time>
      </trkpt>
      <trkpt lat="43.2986" lon="6.54952">
        <ele>186.2</ele>
        <time>2022-02-04T17:32:00Z</time>
      </trkpt>
      <trkpt lat="43.29863" lon="6.54954">
        <ele>186.4</ele>
        <time>2022-02-04T17:32:01Z</time>
      </trkpt>
      <trkpt lat="43.29866" lon="6.54955">
        <ele>186.6</ele>
        <time>2022-02-04T17:32:02Z</time>
      </trkpt>
      <trkpt lat="43.29869" lon="6.54955">
        <ele>186.8</ele>
        <time>2022-02-04T17:32:03Z</time>
      </trkpt>
      <trkpt lat="43.29871" lon="6.54954">
        <ele>187</ele>
        <time>2022-02-04T17:32:04Z</time>
      </trkpt>
      <trkpt lat="43.29874" lon="6.54952">
        <ele>187.4</ele>
        <time>2022-02-04T17:32:05Z</time>
      </trkpt>
      <trkpt lat="43.29876" lon="6.54952">
        <ele>187.8</ele>
        <time>2022-02-04T17:32:06Z</time>
      </trkpt>
      <trkpt lat="43.29879" lon="6.54951">
        <ele>188</ele>
        <time>2022-02-04T17:32:07Z</time>
      </trkpt>
      <trkpt lat="43.29883" lon="6.54952">
        <ele>188.2</ele>
        <time>2022-02-04T17:32:08Z</time>
      </trkpt>
      <trkpt lat="43.29885" lon="6.54953">
        <ele>188.4</ele>
        <time>2022-02-04T17:32:09Z</time>
      </trkpt>
      <trkpt lat="43.29888" lon="6.54954">
        <ele>188.8</ele>
        <time>2022-02-04T17:32:10Z</time>
      </trkpt>
      <trkpt lat="43.2989" lon="6.54954">
        <ele>189.2</ele>
        <time>2022-02-04T17:32:11Z</time>
      </trkpt>
      <trkpt lat="43.29893" lon="6.54954">
        <ele>190</ele>
        <time>2022-02-04T17:32:12Z</time>
      </trkpt>
      <trkpt lat="43.29895" lon="6.54954">
        <ele>190.4</ele>
        <time>2022-02-04T17:32:13Z</time>
      </trkpt>
      <trkpt lat="43.29899" lon="6.54954">
        <ele>190.8</ele>
        <time>2022-02-04T17:32:14Z</time>
      </trkpt>
      <trkpt lat="43.29901" lon="6.54953">
        <ele>191.2</ele>
        <time>2022-02-04T17:32:15Z</time>
      </trkpt>
      <trkpt lat="43.29903" lon="6.54952">
        <ele>191.6</ele>
        <time>2022-02-04T17:32:16Z</time>
      </trkpt>
      <trkpt lat="43.29905" lon="6.54951">
        <ele>192.2</ele>
        <time>2022-02-04T17:32:17Z</time>
      </trkpt>
      <trkpt lat="43.29907" lon="6.54948">
        <ele>192.6</ele>
        <time>2022-02-04T17:32:18Z</time>
      </trkpt>
      <trkpt lat="43.29909" lon="6.54946">
        <ele>193</ele>
        <time>2022-02-04T17:32:19Z</time>
      </trkpt>
      <trkpt lat="43.29911" lon="6.54944">
        <ele>193.6</ele>
        <time>2022-02-04T17:32:20Z</time>
      </trkpt>
      <trkpt lat="43.29913" lon="6.54941">
        <ele>194.2</ele>
        <time>2022-02-04T17:32:21Z</time>
      </trkpt>
      <trkpt lat="43.29915" lon="6.5494">
        <ele>194.8</ele>
        <time>2022-02-04T17:32:22Z</time>
      </trkpt>
      <trkpt lat="43.29918" lon="6.5494">
        <ele>195</ele>
        <time>2022-02-04T17:32:23Z</time>
      </trkpt>
      <trkpt lat="43.2992" lon="6.5494">
        <ele>195.4</ele>
        <time>2022-02-04T17:32:24Z</time>
      </trkpt>
      <trkpt lat="43.29923" lon="6.5494">
        <ele>195.8</ele>
        <time>2022-02-04T17:32:25Z</time>
      </trkpt>
      <trkpt lat="43.29926" lon="6.54942">
        <ele>196.4</ele>
        <time>2022-02-04T17:32:26Z</time>
      </trkpt>
      <trkpt lat="43.29928" lon="6.54943">
        <ele>196.8</ele>
        <time>2022-02-04T17:32:27Z</time>
      </trkpt>
      <trkpt lat="43.2993" lon="6.54944">
        <ele>197.8</ele>
        <time>2022-02-04T17:32:28Z</time>
      </trkpt>
      <trkpt lat="43.29932" lon="6.54945">
        <ele>198.8</ele>
        <time>2022-02-04T17:32:29Z</time>
      </trkpt>
      <trkpt lat="43.29935" lon="6.54946">
        <ele>199.4</ele>
        <time>2022-02-04T17:32:30Z</time>
      </trkpt>
      <trkpt lat="43.29937" lon="6.54947">
        <ele>199.8</ele>
        <time>2022-02-04T17:32:31Z</time>
      </trkpt>
      <trkpt lat="43.29939" lon="6.54948">
        <ele>200.4</ele>
        <time>2022-02-04T17:32:32Z</time>
      </trkpt>
      <trkpt lat="43.2994" lon="6.54949">
        <ele>200.8</ele>
        <time>2022-02-04T17:32:33Z</time>
      </trkpt>
      <trkpt lat="43.29943" lon="6.54951">
        <ele>201.4</ele>
        <time>2022-02-04T17:32:34Z</time>
      </trkpt>
      <trkpt lat="43.29945" lon="6.54952">
        <ele>202</ele>
        <time>2022-02-04T17:32:35Z</time>
      </trkpt>
      <trkpt lat="43.29946" lon="6.54953">
        <ele>202.4</ele>
        <time>2022-02-04T17:32:36Z</time>
      </trkpt>
      <trkpt lat="43.29948" lon="6.54955">
        <ele>203.2</ele>
        <time>2022-02-04T17:32:37Z</time>
      </trkpt>
      <trkpt lat="43.29949" lon="6.54956">
        <ele>203.8</ele>
        <time>2022-02-04T17:32:38Z</time>
      </trkpt>
      <trkpt lat="43.29951" lon="6.54956">
        <ele>204.2</ele>
        <time>2022-02-04T17:32:39Z</time>
      </trkpt>
      <trkpt lat="43.29953" lon="6.54956">
        <ele>205</ele>
        <time>2022-02-04T17:32:40Z</time>
      </trkpt>
      <trkpt lat="43.29955" lon="6.54955">
        <ele>205.6</ele>
        <time>2022-02-04T17:32:41Z</time>
      </trkpt>
      <trkpt lat="43.29956" lon="6.54955">
        <ele>206</ele>
        <time>2022-02-04T17:32:42Z</time>
      </trkpt>
      <trkpt lat="43.29958" lon="6.54955">
        <ele>206.8</ele>
        <time>2022-02-04T17:32:43Z</time>
      </trkpt>
      <trkpt lat="43.29961" lon="6.54954">
        <ele>207.4</ele>
        <time>2022-02-04T17:32:44Z</time>
      </trkpt>
      <trkpt lat="43.29962" lon="6.54953">
        <ele>208</ele>
        <time>2022-02-04T17:32:45Z</time>
      </trkpt>
      <trkpt lat="43.29965" lon="6.54953">
        <ele>208.4</ele>
        <time>2022-02-04T17:32:46Z</time>
      </trkpt>
      <trkpt lat="43.29967" lon="6.54952">
        <ele>208.8</ele>
        <time>2022-02-04T17:32:47Z</time>
      </trkpt>
      <trkpt lat="43.29969" lon="6.54952">
        <ele>209.2</ele>
        <time>2022-02-04T17:32:48Z</time>
      </trkpt>
      <trkpt lat="43.29971" lon="6.54951">
        <ele>209.6</ele>
        <time>2022-02-04T17:32:49Z</time>
      </trkpt>
      <trkpt lat="43.29973" lon="6.5495">
        <ele>210</ele>
        <time>2022-02-04T17:32:50Z</time>
      </trkpt>
      <trkpt lat="43.29975" lon="6.54948">
        <ele>210.4</ele>
        <time>2022-02-04T17:32:51Z</time>
      </trkpt>
      <trkpt lat="43.29976" lon="6.54945">
        <ele>210.8</ele>
        <time>2022-02-04T17:32:52Z</time>
      </trkpt>
      <trkpt lat="43.29977" lon="6.54943">
        <ele>211.2</ele>
        <time>2022-02-04T17:32:53Z</time>
      </trkpt>
      <trkpt lat="43.29978" lon="6.5494">
        <ele>211.6</ele>
        <time>2022-02-04T17:32:54Z</time>
      </trkpt>
      <trkpt lat="43.29978" lon="6.54937">
        <ele>211.8</ele>
        <time>2022-02-04T17:32:55Z</time>
      </trkpt>
      <trkpt lat="43.29978" lon="6.54934">
        <ele>212.2</ele>
        <time>2022-02-04T17:32:56Z</time>
      </trkpt>
      <trkpt lat="43.29978" lon="6.54931">
        <ele>212.6</ele>
        <time>2022-02-04T17:32:57Z</time>
      </trkpt>
      <trkpt lat="43.29977" lon="6.54927">
        <ele>213.2</ele>
        <time>2022-02-04T17:32:58Z</time>
      </trkpt>
      <trkpt lat="43.29977" lon="6.54924">
        <ele>213.6</ele>
        <time>2022-02-04T17:32:59Z</time>
      </trkpt>
      <trkpt lat="43.29976" lon="6.54921">
        <ele>214</ele>
        <time>2022-02-04T17:33:00Z</time>
      </trkpt>
      <trkpt lat="43.29976" lon="6.54917">
        <ele>214.4</ele>
        <time>2022-02-04T17:33:01Z</time>
      </trkpt>
      <trkpt lat="43.29976" lon="6.54914">
        <ele>214.8</ele>
        <time>2022-02-04T17:33:02Z</time>
      </trkpt>
      <trkpt lat="43.29975" lon="6.54911">
        <ele>215</ele>
        <time>2022-02-04T17:33:03Z</time>
      </trkpt>
      <trkpt lat="43.29975" lon="6.54907">
        <ele>215.4</ele>
        <time>2022-02-04T17:33:04Z</time>
      </trkpt>
      <trkpt lat="43.29975" lon="6.54902">
        <ele>215.8</ele>
        <time>2022-02-04T17:33:05Z</time>
      </trkpt>
      <trkpt lat="43.29974" lon="6.54898">
        <ele>216.2</ele>
        <time>2022-02-04T17:33:06Z</time>
      </trkpt>
      <trkpt lat="43.29973" lon="6.54895">
        <ele>216.6</ele>
        <time>2022-02-04T17:33:07Z</time>
      </trkpt>
      <trkpt lat="43.29974" lon="6.54891">
        <ele>216.8</ele>
        <time>2022-02-04T17:33:08Z</time>
      </trkpt>
      <trkpt lat="43.29974" lon="6.54887">
        <ele>217.2</ele>
        <time>2022-02-04T17:33:09Z</time>
      </trkpt>
      <trkpt lat="43.29974" lon="6.54884">
        <ele>217.6</ele>
        <time>2022-02-04T17:33:10Z</time>
      </trkpt>
      <trkpt lat="43.29974" lon="6.54881">
        <ele>217.8</ele>
        <time>2022-02-04T17:33:11Z</time>
      </trkpt>
      <trkpt lat="43.29975" lon="6.54877">
        <ele>218.2</ele>
        <time>2022-02-04T17:33:12Z</time>
      </trkpt>
      <trkpt lat="43.29977" lon="6.54874">
        <ele>218.8</ele>
        <time>2022-02-04T17:33:13Z</time>
      </trkpt>
      <trkpt lat="43.29978" lon="6.54872">
        <ele>219.2</ele>
        <time>2022-02-04T17:33:14Z</time>
      </trkpt>
      <trkpt lat="43.29981" lon="6.54869">
        <ele>219.6</ele>
        <time>2022-02-04T17:33:15Z</time>
      </trkpt>
      <trkpt lat="43.29982" lon="6.54867">
        <ele>220.4</ele>
        <time>2022-02-04T17:33:16Z</time>
      </trkpt>
      <trkpt lat="43.29984" lon="6.54864">
        <ele>221.2</ele>
        <time>2022-02-04T17:33:17Z</time>
      </trkpt>
      <trkpt lat="43.29986" lon="6.54863">
        <ele>221.8</ele>
        <time>2022-02-04T17:33:18Z</time>
      </trkpt>
      <trkpt lat="43.29988" lon="6.54861">
        <ele>222.4</ele>
        <time>2022-02-04T17:33:19Z</time>
      </trkpt>
      <trkpt lat="43.2999" lon="6.5486">
        <ele>223</ele>
        <time>2022-02-04T17:33:20Z</time>
      </trkpt>
      <trkpt lat="43.29993" lon="6.54859">
        <ele>223.6</ele>
        <time>2022-02-04T17:33:21Z</time>
      </trkpt>
      <trkpt lat="43.29995" lon="6.54857">
        <ele>224.2</ele>
        <time>2022-02-04T17:33:22Z</time>
      </trkpt>
      <trkpt lat="43.29998" lon="6.54856">
        <ele>224.8</ele>
        <time>2022-02-04T17:33:23Z</time>
      </trkpt>
      <trkpt lat="43.30003" lon="6.54858">
        <ele>225.4</ele>
        <time>2022-02-04T17:33:24Z</time>
      </trkpt>
      <trkpt lat="43.30006" lon="6.54858">
        <ele>226.2</ele>
        <time>2022-02-04T17:33:25Z</time>
      </trkpt>
      <trkpt lat="43.30009" lon="6.54858">
        <ele>226.8</ele>
        <time>2022-02-04T17:33:26Z</time>
      </trkpt>
      <trkpt lat="43.30012" lon="6.54858">
        <ele>227.4</ele>
        <time>2022-02-04T17:33:27Z</time>
      </trkpt>
      <trkpt lat="43.30014" lon="6.54858">
        <ele>228</ele>
        <time>2022-02-04T17:33:28Z</time>
      </trkpt>
      <trkpt lat="43.30016" lon="6.54857">
        <ele>228.4</ele>
        <time>2022-02-04T17:33:29Z</time>
      </trkpt>
      <trkpt lat="43.30019" lon="6.54858">
        <ele>229</ele>
        <time>2022-02-04T17:33:30Z</time>
      </trkpt>
      <trkpt lat="43.3002" lon="6.54859">
        <ele>229.4</ele>
        <time>2022-02-04T17:33:31Z</time>
      </trkpt>
      <trkpt lat="43.30022" lon="6.54861">
        <ele>229.8</ele>
        <time>2022-02-04T17:33:32Z</time>
      </trkpt>
      <trkpt lat="43.30023" lon="6.54864">
        <ele>230.2</ele>
        <time>2022-02-04T17:33:33Z</time>
      </trkpt>
      <trkpt lat="43.30023" lon="6.54867">
        <ele>230.4</ele>
        <time>2022-02-04T17:33:34Z</time>
      </trkpt>
      <trkpt lat="43.30024" lon="6.54871">
        <ele>230.4</ele>
        <time>2022-02-04T17:33:35Z</time>
      </trkpt>
      <trkpt lat="43.30024" lon="6.54875">
        <ele>230.2</ele>
        <time>2022-02-04T17:33:36Z</time>
      </trkpt>
      <trkpt lat="43.30025" lon="6.54879">
        <ele>230.2</ele>
        <time>2022-02-04T17:33:37Z</time>
      </trkpt>
      <trkpt lat="43.30026" lon="6.54882">
        <ele>230.2</ele>
        <time>2022-02-04T17:33:38Z</time>
      </trkpt>
      <trkpt lat="43.30027" lon="6.54886">
        <ele>230.2</ele>
        <time>2022-02-04T17:33:39Z</time>
      </trkpt>
      <trkpt lat="43.30028" lon="6.54889">
        <ele>230.2</ele>
        <time>2022-02-04T17:33:40Z</time>
      </trkpt>
      <trkpt lat="43.30029" lon="6.54893">
        <ele>230.4</ele>
        <time>2022-02-04T17:33:41Z</time>
      </trkpt>
      <trkpt lat="43.30031" lon="6.54897">
        <ele>230.6</ele>
        <time>2022-02-04T17:33:42Z</time>
      </trkpt>
      <trkpt lat="43.30032" lon="6.549">
        <ele>230.8</ele>
        <time>2022-02-04T17:33:43Z</time>
      </trkpt>
      <trkpt lat="43.30033" lon="6.54903">
        <ele>231</ele>
        <time>2022-02-04T17:33:44Z</time>
      </trkpt>
      <trkpt lat="43.30035" lon="6.54905">
        <ele>231</ele>
        <time>2022-02-04T17:33:45Z</time>
      </trkpt>
      <trkpt lat="43.30038" lon="6.54907">
        <ele>231.2</ele>
        <time>2022-02-04T17:33:46Z</time>
      </trkpt>
      <trkpt lat="43.30041" lon="6.54908">
        <ele>231.4</ele>
        <time>2022-02-04T17:33:47Z</time>
      </trkpt>
      <trkpt lat="43.30043" lon="6.54909">
        <ele>231.4</ele>
        <time>2022-02-04T17:33:48Z</time>
      </trkpt>
      <trkpt lat="43.30045" lon="6.54911">
        <ele>231.6</ele>
        <time>2022-02-04T17:33:49Z</time>
      </trkpt>
      <trkpt lat="43.30048" lon="6.54913">
        <ele>231.6</ele>
        <time>2022-02-04T17:33:50Z</time>
      </trkpt>
      <trkpt lat="43.30051" lon="6.54915">
        <ele>232.2</ele>
        <time>2022-02-04T17:33:51Z</time>
      </trkpt>
      <trkpt lat="43.30054" lon="6.54917">
        <ele>232.8</ele>
        <time>2022-02-04T17:33:52Z</time>
      </trkpt>
      <trkpt lat="43.30056" lon="6.54918">
        <ele>233.4</ele>
        <time>2022-02-04T17:33:53Z</time>
      </trkpt>
      <trkpt lat="43.30059" lon="6.5492">
        <ele>234</ele>
        <time>2022-02-04T17:33:54Z</time>
      </trkpt>
      <trkpt lat="43.30062" lon="6.54921">
        <ele>234.6</ele>
        <time>2022-02-04T17:33:55Z</time>
      </trkpt>
      <trkpt lat="43.30064" lon="6.54922">
        <ele>235</ele>
        <time>2022-02-04T17:33:56Z</time>
      </trkpt>
      <trkpt lat="43.30067" lon="6.54924">
        <ele>235.8</ele>
        <time>2022-02-04T17:33:57Z</time>
      </trkpt>
      <trkpt lat="43.30069" lon="6.54926">
        <ele>236.4</ele>
        <time>2022-02-04T17:33:58Z</time>
      </trkpt>
      <trkpt lat="43.3007" lon="6.54929">
        <ele>236.8</ele>
        <time>2022-02-04T17:33:59Z</time>
      </trkpt>
      <trkpt lat="43.30072" lon="6.54931">
        <ele>237.2</ele>
        <time>2022-02-04T17:34:00Z</time>
      </trkpt>
      <trkpt lat="43.30073" lon="6.54935">
        <ele>237.6</ele>
        <time>2022-02-04T17:34:01Z</time>
      </trkpt>
      <trkpt lat="43.30075" lon="6.54938">
        <ele>238</ele>
        <time>2022-02-04T17:34:02Z</time>
      </trkpt>
      <trkpt lat="43.30076" lon="6.5494">
        <ele>238.4</ele>
        <time>2022-02-04T17:34:03Z</time>
      </trkpt>
      <trkpt lat="43.30078" lon="6.54942">
        <ele>239</ele>
        <time>2022-02-04T17:34:04Z</time>
      </trkpt>
      <trkpt lat="43.3008" lon="6.54945">
        <ele>239.4</ele>
        <time>2022-02-04T17:34:05Z</time>
      </trkpt>
      <trkpt lat="43.30082" lon="6.54947">
        <ele>240</ele>
        <time>2022-02-04T17:34:06Z</time>
      </trkpt>
      <trkpt lat="43.30084" lon="6.5495">
        <ele>240.4</ele>
        <time>2022-02-04T17:34:07Z</time>
      </trkpt>
      <trkpt lat="43.30086" lon="6.54952">
        <ele>240.8</ele>
        <time>2022-02-04T17:34:08Z</time>
      </trkpt>
      <trkpt lat="43.30088" lon="6.54954">
        <ele>241.2</ele>
        <time>2022-02-04T17:34:09Z</time>
      </trkpt>
      <trkpt lat="43.3009" lon="6.54956">
        <ele>241.6</ele>
        <time>2022-02-04T17:34:10Z</time>
      </trkpt>
      <trkpt lat="43.30092" lon="6.5496">
        <ele>242.4</ele>
        <time>2022-02-04T17:34:11Z</time>
      </trkpt>
      <trkpt lat="43.30094" lon="6.54963">
        <ele>242.8</ele>
        <time>2022-02-04T17:34:12Z</time>
      </trkpt>
      <trkpt lat="43.30096" lon="6.54965">
        <ele>243.2</ele>
        <time>2022-02-04T17:34:13Z</time>
      </trkpt>
      <trkpt lat="43.30098" lon="6.54968">
        <ele>243.6</ele>
        <time>2022-02-04T17:34:14Z</time>
      </trkpt>
      <trkpt lat="43.30099" lon="6.54971">
        <ele>244.4</ele>
        <time>2022-02-04T17:34:15Z</time>
      </trkpt>
      <trkpt lat="43.30101" lon="6.54973">
        <ele>244.8</ele>
        <time>2022-02-04T17:34:16Z</time>
      </trkpt>
      <trkpt lat="43.30103" lon="6.54976">
        <ele>245.4</ele>
        <time>2022-02-04T17:34:17Z</time>
      </trkpt>
      <trkpt lat="43.30106" lon="6.54978">
        <ele>246</ele>
        <time>2022-02-04T17:34:18Z</time>
      </trkpt>
      <trkpt lat="43.30108" lon="6.54979">
        <ele>247</ele>
        <time>2022-02-04T17:34:19Z</time>
      </trkpt>
      <trkpt lat="43.3011" lon="6.54981">
        <ele>247.4</ele>
        <time>2022-02-04T17:34:20Z</time>
      </trkpt>
      <trkpt lat="43.30112" lon="6.54982">
        <ele>247.8</ele>
        <time>2022-02-04T17:34:21Z</time>
      </trkpt>
      <trkpt lat="43.30115" lon="6.54983">
        <ele>248.4</ele>
        <time>2022-02-04T17:34:22Z</time>
      </trkpt>
      <trkpt lat="43.30117" lon="6.54983">
        <ele>249</ele>
        <time>2022-02-04T17:34:23Z</time>
      </trkpt>
      <trkpt lat="43.30119" lon="6.54984">
        <ele>249.4</ele>
        <time>2022-02-04T17:34:24Z</time>
      </trkpt>
      <trkpt lat="43.30122" lon="6.54985">
        <ele>250</ele>
        <time>2022-02-04T17:34:25Z</time>
      </trkpt>
      <trkpt lat="43.30124" lon="6.54985">
        <ele>250.6</ele>
        <time>2022-02-04T17:34:26Z</time>
      </trkpt>
      <trkpt lat="43.30127" lon="6.54984">
        <ele>251.2</ele>
        <time>2022-02-04T17:34:27Z</time>
      </trkpt>
      <trkpt lat="43.30129" lon="6.54984">
        <ele>251.8</ele>
        <time>2022-02-04T17:34:28Z</time>
      </trkpt>
      <trkpt lat="43.30132" lon="6.54983">
        <ele>252.4</ele>
        <time>2022-02-04T17:34:29Z</time>
      </trkpt>
      <trkpt lat="43.30134" lon="6.54984">
        <ele>253</ele>
        <time>2022-02-04T17:34:30Z</time>
      </trkpt>
      <trkpt lat="43.30137" lon="6.54984">
        <ele>253.6</ele>
        <time>2022-02-04T17:34:31Z</time>
      </trkpt>
      <trkpt lat="43.30139" lon="6.54983">
        <ele>254.2</ele>
        <time>2022-02-04T17:34:32Z</time>
      </trkpt>
      <trkpt lat="43.30141" lon="6.54983">
        <ele>255</ele>
        <time>2022-02-04T17:34:33Z</time>
      </trkpt>
      <trkpt lat="43.30143" lon="6.54984">
        <ele>255.4</ele>
        <time>2022-02-04T17:34:34Z</time>
      </trkpt>
      <trkpt lat="43.30145" lon="6.54984">
        <ele>256</ele>
        <time>2022-02-04T17:34:35Z</time>
      </trkpt>
      <trkpt lat="43.30147" lon="6.54985">
        <ele>257</ele>
        <time>2022-02-04T17:34:36Z</time>
      </trkpt>
      <trkpt lat="43.30149" lon="6.54986">
        <ele>257.6</ele>
        <time>2022-02-04T17:34:37Z</time>
      </trkpt>
      <trkpt lat="43.30151" lon="6.54987">
        <ele>258.2</ele>
        <time>2022-02-04T17:34:38Z</time>
      </trkpt>
      <trkpt lat="43.30153" lon="6.54987">
        <ele>258.8</ele>
        <time>2022-02-04T17:34:39Z</time>
      </trkpt>
      <trkpt lat="43.30155" lon="6.54987">
        <ele>259.4</ele>
        <time>2022-02-04T17:34:40Z</time>
      </trkpt>
      <trkpt lat="43.30157" lon="6.54987">
        <ele>260</ele>
        <time>2022-02-04T17:34:41Z</time>
      </trkpt>
      <trkpt lat="43.30159" lon="6.54986">
        <ele>260.4</ele>
        <time>2022-02-04T17:34:42Z</time>
      </trkpt>
      <trkpt lat="43.30161" lon="6.54986">
        <ele>260.8</ele>
        <time>2022-02-04T17:34:43Z</time>
      </trkpt>
      <trkpt lat="43.30163" lon="6.54987">
        <ele>261.2</ele>
        <time>2022-02-04T17:34:44Z</time>
      </trkpt>
      <trkpt lat="43.30164" lon="6.54987">
        <ele>261.4</ele>
        <time>2022-02-04T17:34:45Z</time>
      </trkpt>
      <trkpt lat="43.30165" lon="6.54987">
        <ele>261.6</ele>
        <time>2022-02-04T17:34:46Z</time>
      </trkpt>
      <trkpt lat="43.30166" lon="6.54986">
        <ele>261.8</ele>
        <time>2022-02-04T17:34:47Z</time>
      </trkpt>
      <trkpt lat="43.30166" lon="6.54984">
        <ele>262</ele>
        <time>2022-02-04T17:34:48Z</time>
      </trkpt>
      <trkpt lat="43.30166" lon="6.54981">
        <ele>262</ele>
        <time>2022-02-04T17:34:49Z</time>
      </trkpt>
      <trkpt lat="43.30166" lon="6.54978">
        <ele>262</ele>
        <time>2022-02-04T17:34:50Z</time>
      </trkpt>
      <trkpt lat="43.30166" lon="6.54974">
        <ele>262</ele>
        <time>2022-02-04T17:34:51Z</time>
      </trkpt>
      <trkpt lat="43.30166" lon="6.5497">
        <ele>262</ele>
        <time>2022-02-04T17:34:52Z</time>
      </trkpt>
      <trkpt lat="43.30166" lon="6.54965">
        <ele>261.8</ele>
        <time>2022-02-04T17:34:53Z</time>
      </trkpt>
      <trkpt lat="43.30167" lon="6.54959">
        <ele>261.6</ele>
        <time>2022-02-04T17:34:54Z</time>
      </trkpt>
      <trkpt lat="43.30167" lon="6.54954">
        <ele>261.4</ele>
        <time>2022-02-04T17:34:55Z</time>
      </trkpt>
      <trkpt lat="43.30167" lon="6.54946">
        <ele>261</ele>
        <time>2022-02-04T17:34:56Z</time>
      </trkpt>
      <trkpt lat="43.30167" lon="6.54939">
        <ele>260.6</ele>
        <time>2022-02-04T17:34:57Z</time>
      </trkpt>
      <trkpt lat="43.30167" lon="6.54931">
        <ele>260.4</ele>
        <time>2022-02-04T17:34:58Z</time>
      </trkpt>
      <trkpt lat="43.30167" lon="6.54925">
        <ele>260</ele>
        <time>2022-02-04T17:34:59Z</time>
      </trkpt>
      <trkpt lat="43.30166" lon="6.54917">
        <ele>259.8</ele>
        <time>2022-02-04T17:35:00Z</time>
      </trkpt>
      <trkpt lat="43.30165" lon="6.54908">
        <ele>259.8</ele>
        <time>2022-02-04T17:35:01Z</time>
      </trkpt>
      <trkpt lat="43.30164" lon="6.54901">
        <ele>259.4</ele>
        <time>2022-02-04T17:35:02Z</time>
      </trkpt>
      <trkpt lat="43.30163" lon="6.54894">
        <ele>259.2</ele>
        <time>2022-02-04T17:35:03Z</time>
      </trkpt>
      <trkpt lat="43.30163" lon="6.54889">
        <ele>259.2</ele>
        <time>2022-02-04T17:35:04Z</time>
      </trkpt>
      <trkpt lat="43.30162" lon="6.54884">
        <ele>259.2</ele>
        <time>2022-02-04T17:35:05Z</time>
      </trkpt>
      <trkpt lat="43.30161" lon="6.5488">
        <ele>259.6</ele>
        <time>2022-02-04T17:35:06Z</time>
      </trkpt>
      <trkpt lat="43.30161" lon="6.54875">
        <ele>259.8</ele>
        <time>2022-02-04T17:35:07Z</time>
      </trkpt>
      <trkpt lat="43.3016" lon="6.54871">
        <ele>260.4</ele>
        <time>2022-02-04T17:35:08Z</time>
      </trkpt>
      <trkpt lat="43.30159" lon="6.54867">
        <ele>260.8</ele>
        <time>2022-02-04T17:35:09Z</time>
      </trkpt>
      <trkpt lat="43.30159" lon="6.54864">
        <ele>261.4</ele>
        <time>2022-02-04T17:35:10Z</time>
      </trkpt>
      <trkpt lat="43.30158" lon="6.54861">
        <ele>261.8</ele>
        <time>2022-02-04T17:35:11Z</time>
      </trkpt>
      <trkpt lat="43.30158" lon="6.54856">
        <ele>262.2</ele>
        <time>2022-02-04T17:35:12Z</time>
      </trkpt>
      <trkpt lat="43.30157" lon="6.54852">
        <ele>262.6</ele>
        <time>2022-02-04T17:35:13Z</time>
      </trkpt>
      <trkpt lat="43.30157" lon="6.54848">
        <ele>263</ele>
        <time>2022-02-04T17:35:14Z</time>
      </trkpt>
      <trkpt lat="43.30157" lon="6.54845">
        <ele>263.6</ele>
        <time>2022-02-04T17:35:15Z</time>
      </trkpt>
      <trkpt lat="43.30156" lon="6.54841">
        <ele>264.2</ele>
        <time>2022-02-04T17:35:16Z</time>
      </trkpt>
      <trkpt lat="43.30155" lon="6.54836">
        <ele>264.8</ele>
        <time>2022-02-04T17:35:17Z</time>
      </trkpt>
      <trkpt lat="43.30155" lon="6.54834">
        <ele>265.4</ele>
        <time>2022-02-04T17:35:18Z</time>
      </trkpt>
      <trkpt lat="43.30155" lon="6.5483">
        <ele>265.8</ele>
        <time>2022-02-04T17:35:19Z</time>
      </trkpt>
      <trkpt lat="43.30155" lon="6.54825">
        <ele>266.2</ele>
        <time>2022-02-04T17:35:20Z</time>
      </trkpt>
      <trkpt lat="43.30155" lon="6.54819">
        <ele>266.4</ele>
        <time>2022-02-04T17:35:21Z</time>
      </trkpt>
      <trkpt lat="43.30155" lon="6.54814">
        <ele>266.6</ele>
        <time>2022-02-04T17:35:22Z</time>
      </trkpt>
      <trkpt lat="43.30155" lon="6.54809">
        <ele>266.8</ele>
        <time>2022-02-04T17:35:23Z</time>
      </trkpt>
      <trkpt lat="43.30156" lon="6.54805">
        <ele>267</ele>
        <time>2022-02-04T17:35:24Z</time>
      </trkpt>
      <trkpt lat="43.30157" lon="6.54799">
        <ele>267.2</ele>
        <time>2022-02-04T17:35:25Z</time>
      </trkpt>
      <trkpt lat="43.30158" lon="6.54794">
        <ele>267.4</ele>
        <time>2022-02-04T17:35:26Z</time>
      </trkpt>
      <trkpt lat="43.30158" lon="6.5479">
        <ele>267.6</ele>
        <time>2022-02-04T17:35:27Z</time>
      </trkpt>
      <trkpt lat="43.30159" lon="6.54785">
        <ele>267.8</ele>
        <time>2022-02-04T17:35:28Z</time>
      </trkpt>
      <trkpt lat="43.30159" lon="6.5478">
        <ele>268</ele>
        <time>2022-02-04T17:35:29Z</time>
      </trkpt>
      <trkpt lat="43.3016" lon="6.54776">
        <ele>268</ele>
        <time>2022-02-04T17:35:30Z</time>
      </trkpt>
      <trkpt lat="43.3016" lon="6.5477">
        <ele>268.2</ele>
        <time>2022-02-04T17:35:31Z</time>
      </trkpt>
      <trkpt lat="43.30161" lon="6.54764">
        <ele>268.2</ele>
        <time>2022-02-04T17:35:32Z</time>
      </trkpt>
      <trkpt lat="43.30161" lon="6.54758">
        <ele>268.2</ele>
        <time>2022-02-04T17:35:33Z</time>
      </trkpt>
      <trkpt lat="43.30162" lon="6.54752">
        <ele>268.2</ele>
        <time>2022-02-04T17:35:34Z</time>
      </trkpt>
      <trkpt lat="43.30162" lon="6.54747">
        <ele>268</ele>
        <time>2022-02-04T17:35:35Z</time>
      </trkpt>
      <trkpt lat="43.30164" lon="6.54741">
        <ele>268</ele>
        <time>2022-02-04T17:35:36Z</time>
      </trkpt>
      <trkpt lat="43.30165" lon="6.54734">
        <ele>268</ele>
        <time>2022-02-04T17:35:37Z</time>
      </trkpt>
      <trkpt lat="43.30167" lon="6.54728">
        <ele>268</ele>
        <time>2022-02-04T17:35:38Z</time>
      </trkpt>
      <trkpt lat="43.30169" lon="6.54723">
        <ele>268</ele>
        <time>2022-02-04T17:35:39Z</time>
      </trkpt>
      <trkpt lat="43.30171" lon="6.54719">
        <ele>268</ele>
        <time>2022-02-04T17:35:40Z</time>
      </trkpt>
      <trkpt lat="43.30173" lon="6.54717">
        <ele>268.2</ele>
        <time>2022-02-04T17:35:41Z</time>
      </trkpt>
      <trkpt lat="43.30176" lon="6.54713">
        <ele>268.2</ele>
        <time>2022-02-04T17:35:42Z</time>
      </trkpt>
      <trkpt lat="43.30178" lon="6.5471">
        <ele>268.8</ele>
        <time>2022-02-04T17:35:43Z</time>
      </trkpt>
      <trkpt lat="43.3018" lon="6.54707">
        <ele>269.2</ele>
        <time>2022-02-04T17:35:44Z</time>
      </trkpt>
      <trkpt lat="43.30181" lon="6.54705">
        <ele>270</ele>
        <time>2022-02-04T17:35:45Z</time>
      </trkpt>
      <trkpt lat="43.30183" lon="6.54702">
        <ele>270.8</ele>
        <time>2022-02-04T17:35:46Z</time>
      </trkpt>
      <trkpt lat="43.30186" lon="6.54699">
        <ele>271.4</ele>
        <time>2022-02-04T17:35:47Z</time>
      </trkpt>
      <trkpt lat="43.30187" lon="6.54697">
        <ele>271.6</ele>
        <time>2022-02-04T17:35:48Z</time>
      </trkpt>
      <trkpt lat="43.30189" lon="6.54694">
        <ele>272</ele>
        <time>2022-02-04T17:35:49Z</time>
      </trkpt>
      <trkpt lat="43.3019" lon="6.54692">
        <ele>273.2</ele>
        <time>2022-02-04T17:35:50Z</time>
      </trkpt>
      <trkpt lat="43.30192" lon="6.54691">
        <ele>274</ele>
        <time>2022-02-04T17:35:51Z</time>
      </trkpt>
      <trkpt lat="43.30195" lon="6.54689">
        <ele>274.8</ele>
        <time>2022-02-04T17:35:52Z</time>
      </trkpt>
      <trkpt lat="43.30198" lon="6.54688">
        <ele>275.4</ele>
        <time>2022-02-04T17:35:53Z</time>
      </trkpt>
      <trkpt lat="43.30201" lon="6.54687">
        <ele>275.8</ele>
        <time>2022-02-04T17:35:54Z</time>
      </trkpt>
      <trkpt lat="43.30204" lon="6.54687">
        <ele>276.2</ele>
        <time>2022-02-04T17:35:55Z</time>
      </trkpt>
      <trkpt lat="43.30206" lon="6.54686">
        <ele>276.4</ele>
        <time>2022-02-04T17:35:56Z</time>
      </trkpt>
      <trkpt lat="43.3021" lon="6.54686">
        <ele>276.4</ele>
        <time>2022-02-04T17:35:57Z</time>
      </trkpt>
      <trkpt lat="43.30213" lon="6.54685">
        <ele>276.6</ele>
        <time>2022-02-04T17:35:58Z</time>
      </trkpt>
      <trkpt lat="43.30215" lon="6.54685">
        <ele>276.6</ele>
        <time>2022-02-04T17:35:59Z</time>
      </trkpt>
      <trkpt lat="43.30218" lon="6.54684">
        <ele>277.4</ele>
        <time>2022-02-04T17:36:00Z</time>
      </trkpt>
      <trkpt lat="43.3022" lon="6.54683">
        <ele>277.8</ele>
        <time>2022-02-04T17:36:01Z</time>
      </trkpt>
      <trkpt lat="43.30223" lon="6.54682">
        <ele>278.2</ele>
        <time>2022-02-04T17:36:02Z</time>
      </trkpt>
      <trkpt lat="43.30226" lon="6.54681">
        <ele>278.8</ele>
        <time>2022-02-04T17:36:03Z</time>
      </trkpt>
      <trkpt lat="43.30228" lon="6.54679">
        <ele>279.2</ele>
        <time>2022-02-04T17:36:04Z</time>
      </trkpt>
      <trkpt lat="43.3023" lon="6.54678">
        <ele>280</ele>
        <time>2022-02-04T17:36:05Z</time>
      </trkpt>
      <trkpt lat="43.30233" lon="6.54677">
        <ele>280.6</ele>
        <time>2022-02-04T17:36:06Z</time>
      </trkpt>
      <trkpt lat="43.30235" lon="6.54675">
        <ele>281</ele>
        <time>2022-02-04T17:36:07Z</time>
      </trkpt>
      <trkpt lat="43.30237" lon="6.54674">
        <ele>281.8</ele>
        <time>2022-02-04T17:36:08Z</time>
      </trkpt>
      <trkpt lat="43.30239" lon="6.54673">
        <ele>282.4</ele>
        <time>2022-02-04T17:36:09Z</time>
      </trkpt>
      <trkpt lat="43.30241" lon="6.54671">
        <ele>282.8</ele>
        <time>2022-02-04T17:36:10Z</time>
      </trkpt>
      <trkpt lat="43.30243" lon="6.5467">
        <ele>283.2</ele>
        <time>2022-02-04T17:36:11Z</time>
      </trkpt>
      <trkpt lat="43.30246" lon="6.54669">
        <ele>283.8</ele>
        <time>2022-02-04T17:36:12Z</time>
      </trkpt>
      <trkpt lat="43.30249" lon="6.5467">
        <ele>284.2</ele>
        <time>2022-02-04T17:36:13Z</time>
      </trkpt>
      <trkpt lat="43.30251" lon="6.5467">
        <ele>284.4</ele>
        <time>2022-02-04T17:36:14Z</time>
      </trkpt>
      <trkpt lat="43.30254" lon="6.5467">
        <ele>284.6</ele>
        <time>2022-02-04T17:36:15Z</time>
      </trkpt>
      <trkpt lat="43.30256" lon="6.5467">
        <ele>284.8</ele>
        <time>2022-02-04T17:36:16Z</time>
      </trkpt>
      <trkpt lat="43.30259" lon="6.5467">
        <ele>285</ele>
        <time>2022-02-04T17:36:17Z</time>
      </trkpt>
      <trkpt lat="43.30263" lon="6.5467">
        <ele>285.6</ele>
        <time>2022-02-04T17:36:18Z</time>
      </trkpt>
      <trkpt lat="43.30266" lon="6.5467">
        <ele>286.2</ele>
        <time>2022-02-04T17:36:19Z</time>
      </trkpt>
      <trkpt lat="43.30268" lon="6.54669">
        <ele>286.8</ele>
        <time>2022-02-04T17:36:20Z</time>
      </trkpt>
      <trkpt lat="43.3027" lon="6.54669">
        <ele>287.2</ele>
        <time>2022-02-04T17:36:21Z</time>
      </trkpt>
      <trkpt lat="43.30273" lon="6.54668">
        <ele>287.4</ele>
        <time>2022-02-04T17:36:22Z</time>
      </trkpt>
      <trkpt lat="43.30276" lon="6.54668">
        <ele>288.2</ele>
        <time>2022-02-04T17:36:23Z</time>
      </trkpt>
      <trkpt lat="43.30279" lon="6.54667">
        <ele>288.8</ele>
        <time>2022-02-04T17:36:24Z</time>
      </trkpt>
      <trkpt lat="43.30281" lon="6.54667">
        <ele>289.4</ele>
        <time>2022-02-04T17:36:25Z</time>
      </trkpt>
      <trkpt lat="43.30283" lon="6.54666">
        <ele>290</ele>
        <time>2022-02-04T17:36:26Z</time>
      </trkpt>
      <trkpt lat="43.30285" lon="6.54665">
        <ele>290.4</ele>
        <time>2022-02-04T17:36:27Z</time>
      </trkpt>
      <trkpt lat="43.30288" lon="6.54663">
        <ele>291.2</ele>
        <time>2022-02-04T17:36:28Z</time>
      </trkpt>
      <trkpt lat="43.3029" lon="6.54662">
        <ele>291.8</ele>
        <time>2022-02-04T17:36:29Z</time>
      </trkpt>
      <trkpt lat="43.30292" lon="6.54661">
        <ele>292.2</ele>
        <time>2022-02-04T17:36:30Z</time>
      </trkpt>
      <trkpt lat="43.30294" lon="6.54659">
        <ele>292.6</ele>
        <time>2022-02-04T17:36:31Z</time>
      </trkpt>
      <trkpt lat="43.30296" lon="6.54657">
        <ele>293</ele>
        <time>2022-02-04T17:36:32Z</time>
      </trkpt>
      <trkpt lat="43.30298" lon="6.54654">
        <ele>293.6</ele>
        <time>2022-02-04T17:36:33Z</time>
      </trkpt>
      <trkpt lat="43.30299" lon="6.54651">
        <ele>294.2</ele>
        <time>2022-02-04T17:36:34Z</time>
      </trkpt>
      <trkpt lat="43.30301" lon="6.54648">
        <ele>294.6</ele>
        <time>2022-02-04T17:36:35Z</time>
      </trkpt>
      <trkpt lat="43.30303" lon="6.54645">
        <ele>294.6</ele>
        <time>2022-02-04T17:36:36Z</time>
      </trkpt>
      <trkpt lat="43.30305" lon="6.54641">
        <ele>294.8</ele>
        <time>2022-02-04T17:36:37Z</time>
      </trkpt>
      <trkpt lat="43.30307" lon="6.54637">
        <ele>295</ele>
        <time>2022-02-04T17:36:38Z</time>
      </trkpt>
      <trkpt lat="43.30308" lon="6.54633">
        <ele>295</ele>
        <time>2022-02-04T17:36:39Z</time>
      </trkpt>
      <trkpt lat="43.3031" lon="6.5463">
        <ele>295.4</ele>
        <time>2022-02-04T17:36:40Z</time>
      </trkpt>
      <trkpt lat="43.30311" lon="6.54626">
        <ele>296</ele>
        <time>2022-02-04T17:36:41Z</time>
      </trkpt>
      <trkpt lat="43.30313" lon="6.54621">
        <ele>296.2</ele>
        <time>2022-02-04T17:36:42Z</time>
      </trkpt>
      <trkpt lat="43.30314" lon="6.54617">
        <ele>296.8</ele>
        <time>2022-02-04T17:36:43Z</time>
      </trkpt>
      <trkpt lat="43.30316" lon="6.54614">
        <ele>297</ele>
        <time>2022-02-04T17:36:44Z</time>
      </trkpt>
      <trkpt lat="43.30317" lon="6.5461">
        <ele>297.2</ele>
        <time>2022-02-04T17:36:45Z</time>
      </trkpt>
      <trkpt lat="43.30318" lon="6.54606">
        <ele>297.6</ele>
        <time>2022-02-04T17:36:46Z</time>
      </trkpt>
      <trkpt lat="43.3032" lon="6.54602">
        <ele>298.2</ele>
        <time>2022-02-04T17:36:47Z</time>
      </trkpt>
      <trkpt lat="43.30321" lon="6.54597">
        <ele>298.4</ele>
        <time>2022-02-04T17:36:48Z</time>
      </trkpt>
      <trkpt lat="43.30323" lon="6.54594">
        <ele>299</ele>
        <time>2022-02-04T17:36:49Z</time>
      </trkpt>
      <trkpt lat="43.30324" lon="6.5459">
        <ele>299.4</ele>
        <time>2022-02-04T17:36:50Z</time>
      </trkpt>
      <trkpt lat="43.30324" lon="6.54585">
        <ele>299.8</ele>
        <time>2022-02-04T17:36:51Z</time>
      </trkpt>
      <trkpt lat="43.30325" lon="6.54581">
        <ele>300.4</ele>
        <time>2022-02-04T17:36:52Z</time>
      </trkpt>
      <trkpt lat="43.30325" lon="6.54576">
        <ele>300.8</ele>
        <time>2022-02-04T17:36:53Z</time>
      </trkpt>
      <trkpt lat="43.30325" lon="6.54572">
        <ele>301.2</ele>
        <time>2022-02-04T17:36:54Z</time>
      </trkpt>
      <trkpt lat="43.30325" lon="6.54568">
        <ele>301.6</ele>
        <time>2022-02-04T17:36:55Z</time>
      </trkpt>
      <trkpt lat="43.30324" lon="6.54563">
        <ele>302</ele>
        <time>2022-02-04T17:36:56Z</time>
      </trkpt>
      <trkpt lat="43.30324" lon="6.5456">
        <ele>302.2</ele>
        <time>2022-02-04T17:36:57Z</time>
      </trkpt>
      <trkpt lat="43.30323" lon="6.54556">
        <ele>302.6</ele>
        <time>2022-02-04T17:36:58Z</time>
      </trkpt>
      <trkpt lat="43.30322" lon="6.54551">
        <ele>303.2</ele>
        <time>2022-02-04T17:36:59Z</time>
      </trkpt>
      <trkpt lat="43.30321" lon="6.54547">
        <ele>303.4</ele>
        <time>2022-02-04T17:37:00Z</time>
      </trkpt>
      <trkpt lat="43.30319" lon="6.54544">
        <ele>303.6</ele>
        <time>2022-02-04T17:37:01Z</time>
      </trkpt>
      <trkpt lat="43.30317" lon="6.5454">
        <ele>303.8</ele>
        <time>2022-02-04T17:37:02Z</time>
      </trkpt>
      <trkpt lat="43.30315" lon="6.54537">
        <ele>303.8</ele>
        <time>2022-02-04T17:37:03Z</time>
      </trkpt>
      <trkpt lat="43.30312" lon="6.54535">
        <ele>304</ele>
        <time>2022-02-04T17:37:04Z</time>
      </trkpt>
      <trkpt lat="43.30309" lon="6.54533">
        <ele>304.2</ele>
        <time>2022-02-04T17:37:05Z</time>
      </trkpt>
      <trkpt lat="43.30306" lon="6.54531">
        <ele>304.4</ele>
        <time>2022-02-04T17:37:06Z</time>
      </trkpt>
      <trkpt lat="43.30304" lon="6.54529">
        <ele>304.8</ele>
        <time>2022-02-04T17:37:07Z</time>
      </trkpt>
      <trkpt lat="43.30301" lon="6.54527">
        <ele>305.4</ele>
        <time>2022-02-04T17:37:08Z</time>
      </trkpt>
      <trkpt lat="43.30298" lon="6.54525">
        <ele>306</ele>
        <time>2022-02-04T17:37:09Z</time>
      </trkpt>
      <trkpt lat="43.30296" lon="6.54523">
        <ele>306.2</ele>
        <time>2022-02-04T17:37:10Z</time>
      </trkpt>
      <trkpt lat="43.30294" lon="6.54521">
        <ele>306.6</ele>
        <time>2022-02-04T17:37:11Z</time>
      </trkpt>
      <trkpt lat="43.30292" lon="6.5452">
        <ele>307.2</ele>
        <time>2022-02-04T17:37:12Z</time>
      </trkpt>
      <trkpt lat="43.3029" lon="6.54519">
        <ele>307.6</ele>
        <time>2022-02-04T17:37:13Z</time>
      </trkpt>
      <trkpt lat="43.30287" lon="6.54518">
        <ele>308.2</ele>
        <time>2022-02-04T17:37:14Z</time>
      </trkpt>
      <trkpt lat="43.30284" lon="6.54517">
        <ele>308.8</ele>
        <time>2022-02-04T17:37:15Z</time>
      </trkpt>
      <trkpt lat="43.30281" lon="6.54517">
        <ele>309.2</ele>
        <time>2022-02-04T17:37:16Z</time>
      </trkpt>
      <trkpt lat="43.30278" lon="6.54516">
        <ele>309.6</ele>
        <time>2022-02-04T17:37:17Z</time>
      </trkpt>
      <trkpt lat="43.30276" lon="6.54514">
        <ele>310</ele>
        <time>2022-02-04T17:37:18Z</time>
      </trkpt>
      <trkpt lat="43.30273" lon="6.54512">
        <ele>310.2</ele>
        <time>2022-02-04T17:37:19Z</time>
      </trkpt>
      <trkpt lat="43.30271" lon="6.54511">
        <ele>310.6</ele>
        <time>2022-02-04T17:37:20Z</time>
      </trkpt>
      <trkpt lat="43.30268" lon="6.54509">
        <ele>311</ele>
        <time>2022-02-04T17:37:21Z</time>
      </trkpt>
      <trkpt lat="43.30266" lon="6.54507">
        <ele>311.2</ele>
        <time>2022-02-04T17:37:22Z</time>
      </trkpt>
      <trkpt lat="43.30263" lon="6.54505">
        <ele>311.2</ele>
        <time>2022-02-04T17:37:23Z</time>
      </trkpt>
      <trkpt lat="43.30261" lon="6.54503">
        <ele>312</ele>
        <time>2022-02-04T17:37:24Z</time>
      </trkpt>
      <trkpt lat="43.30258" lon="6.54501">
        <ele>312.6</ele>
        <time>2022-02-04T17:37:25Z</time>
      </trkpt>
      <trkpt lat="43.30256" lon="6.54498">
        <ele>312.8</ele>
        <time>2022-02-04T17:37:26Z</time>
      </trkpt>
      <trkpt lat="43.30254" lon="6.54496">
        <ele>313.4</ele>
        <time>2022-02-04T17:37:27Z</time>
      </trkpt>
      <trkpt lat="43.30252" lon="6.54493">
        <ele>313.8</ele>
        <time>2022-02-04T17:37:28Z</time>
      </trkpt>
      <trkpt lat="43.3025" lon="6.54489">
        <ele>314.6</ele>
        <time>2022-02-04T17:37:29Z</time>
      </trkpt>
      <trkpt lat="43.30248" lon="6.54485">
        <ele>315.4</ele>
        <time>2022-02-04T17:37:30Z</time>
      </trkpt>
      <trkpt lat="43.30246" lon="6.54481">
        <ele>316.4</ele>
        <time>2022-02-04T17:37:31Z</time>
      </trkpt>
      <trkpt lat="43.30245" lon="6.54477">
        <ele>316.8</ele>
        <time>2022-02-04T17:37:32Z</time>
      </trkpt>
      <trkpt lat="43.30243" lon="6.54473">
        <ele>317.2</ele>
        <time>2022-02-04T17:37:33Z</time>
      </trkpt>
      <trkpt lat="43.30241" lon="6.5447">
        <ele>317.6</ele>
        <time>2022-02-04T17:37:34Z</time>
      </trkpt>
      <trkpt lat="43.3024" lon="6.54466">
        <ele>317.8</ele>
        <time>2022-02-04T17:37:35Z</time>
      </trkpt>
      <trkpt lat="43.30239" lon="6.54462">
        <ele>318.2</ele>
        <time>2022-02-04T17:37:36Z</time>
      </trkpt>
      <trkpt lat="43.30238" lon="6.54458">
        <ele>318.6</ele>
        <time>2022-02-04T17:37:37Z</time>
      </trkpt>
      <trkpt lat="43.30236" lon="6.54454">
        <ele>319.2</ele>
        <time>2022-02-04T17:37:38Z</time>
      </trkpt>
      <trkpt lat="43.30234" lon="6.54449">
        <ele>319.6</ele>
        <time>2022-02-04T17:37:39Z</time>
      </trkpt>
      <trkpt lat="43.30233" lon="6.54444">
        <ele>319.8</ele>
        <time>2022-02-04T17:37:40Z</time>
      </trkpt>
      <trkpt lat="43.30233" lon="6.5444">
        <ele>320.2</ele>
        <time>2022-02-04T17:37:41Z</time>
      </trkpt>
      <trkpt lat="43.30232" lon="6.54436">
        <ele>320.6</ele>
        <time>2022-02-04T17:37:42Z</time>
      </trkpt>
      <trkpt lat="43.30231" lon="6.54432">
        <ele>321.2</ele>
        <time>2022-02-04T17:37:43Z</time>
      </trkpt>
      <trkpt lat="43.30231" lon="6.54427">
        <ele>321.4</ele>
        <time>2022-02-04T17:37:44Z</time>
      </trkpt>
      <trkpt lat="43.3023" lon="6.54423">
        <ele>321.6</ele>
        <time>2022-02-04T17:37:45Z</time>
      </trkpt>
      <trkpt lat="43.3023" lon="6.54419">
        <ele>322</ele>
        <time>2022-02-04T17:37:46Z</time>
      </trkpt>
      <trkpt lat="43.3023" lon="6.54414">
        <ele>322.2</ele>
        <time>2022-02-04T17:37:47Z</time>
      </trkpt>
      <trkpt lat="43.30231" lon="6.5441">
        <ele>322.4</ele>
        <time>2022-02-04T17:37:48Z</time>
      </trkpt>
      <trkpt lat="43.30232" lon="6.54405">
        <ele>322.4</ele>
        <time>2022-02-04T17:37:49Z</time>
      </trkpt>
      <trkpt lat="43.30233" lon="6.544">
        <ele>323</ele>
        <time>2022-02-04T17:37:50Z</time>
      </trkpt>
      <trkpt lat="43.30234" lon="6.54397">
        <ele>323.2</ele>
        <time>2022-02-04T17:37:51Z</time>
      </trkpt>
      <trkpt lat="43.30236" lon="6.54393">
        <ele>323.4</ele>
        <time>2022-02-04T17:37:52Z</time>
      </trkpt>
      <trkpt lat="43.30237" lon="6.5439">
        <ele>323.8</ele>
        <time>2022-02-04T17:37:53Z</time>
      </trkpt>
      <trkpt lat="43.30239" lon="6.54386">
        <ele>324.2</ele>
        <time>2022-02-04T17:37:54Z</time>
      </trkpt>
      <trkpt lat="43.30241" lon="6.54381">
        <ele>324.4</ele>
        <time>2022-02-04T17:37:55Z</time>
      </trkpt>
      <trkpt lat="43.30243" lon="6.54377">
        <ele>324.8</ele>
        <time>2022-02-04T17:37:56Z</time>
      </trkpt>
      <trkpt lat="43.30244" lon="6.54373">
        <ele>325.4</ele>
        <time>2022-02-04T17:37:57Z</time>
      </trkpt>
      <trkpt lat="43.30245" lon="6.54369">
        <ele>326</ele>
        <time>2022-02-04T17:37:58Z</time>
      </trkpt>
      <trkpt lat="43.30246" lon="6.54364">
        <ele>326.4</ele>
        <time>2022-02-04T17:37:59Z</time>
      </trkpt>
      <trkpt lat="43.30247" lon="6.54359">
        <ele>326.8</ele>
        <time>2022-02-04T17:38:00Z</time>
      </trkpt>
      <trkpt lat="43.30248" lon="6.54356">
        <ele>327</ele>
        <time>2022-02-04T17:38:01Z</time>
      </trkpt>
      <trkpt lat="43.30249" lon="6.54352">
        <ele>327.2</ele>
        <time>2022-02-04T17:38:02Z</time>
      </trkpt>
      <trkpt lat="43.3025" lon="6.54348">
        <ele>327.6</ele>
        <time>2022-02-04T17:38:03Z</time>
      </trkpt>
      <trkpt lat="43.30251" lon="6.54344">
        <ele>328.2</ele>
        <time>2022-02-04T17:38:04Z</time>
      </trkpt>
      <trkpt lat="43.30252" lon="6.5434">
        <ele>328.6</ele>
        <time>2022-02-04T17:38:05Z</time>
      </trkpt>
      <trkpt lat="43.30253" lon="6.54337">
        <ele>329</ele>
        <time>2022-02-04T17:38:06Z</time>
      </trkpt>
      <trkpt lat="43.30254" lon="6.54334">
        <ele>329.6</ele>
        <time>2022-02-04T17:38:07Z</time>
      </trkpt>
      <trkpt lat="43.30255" lon="6.5433">
        <ele>330.2</ele>
        <time>2022-02-04T17:38:08Z</time>
      </trkpt>
      <trkpt lat="43.30256" lon="6.54326">
        <ele>330.4</ele>
        <time>2022-02-04T17:38:09Z</time>
      </trkpt>
      <trkpt lat="43.30257" lon="6.54322">
        <ele>331.6</ele>
        <time>2022-02-04T17:38:10Z</time>
      </trkpt>
      <trkpt lat="43.30258" lon="6.54319">
        <ele>332.4</ele>
        <time>2022-02-04T17:38:11Z</time>
      </trkpt>
      <trkpt lat="43.30259" lon="6.54316">
        <ele>332.8</ele>
        <time>2022-02-04T17:38:12Z</time>
      </trkpt>
      <trkpt lat="43.3026" lon="6.54313">
        <ele>333.4</ele>
        <time>2022-02-04T17:38:13Z</time>
      </trkpt>
      <trkpt lat="43.30261" lon="6.54311">
        <ele>334.2</ele>
        <time>2022-02-04T17:38:14Z</time>
      </trkpt>
      <trkpt lat="43.30263" lon="6.54308">
        <ele>334.6</ele>
        <time>2022-02-04T17:38:15Z</time>
      </trkpt>
      <trkpt lat="43.30264" lon="6.54304">
        <ele>335.2</ele>
        <time>2022-02-04T17:38:16Z</time>
      </trkpt>
      <trkpt lat="43.30265" lon="6.54301">
        <ele>335.4</ele>
        <time>2022-02-04T17:38:17Z</time>
      </trkpt>
      <trkpt lat="43.30266" lon="6.54297">
        <ele>336.2</ele>
        <time>2022-02-04T17:38:18Z</time>
      </trkpt>
      <trkpt lat="43.30267" lon="6.54294">
        <ele>337</ele>
        <time>2022-02-04T17:38:19Z</time>
      </trkpt>
      <trkpt lat="43.30268" lon="6.5429">
        <ele>337.4</ele>
        <time>2022-02-04T17:38:20Z</time>
      </trkpt>
      <trkpt lat="43.30268" lon="6.54287">
        <ele>337.8</ele>
        <time>2022-02-04T17:38:21Z</time>
      </trkpt>
      <trkpt lat="43.30269" lon="6.54283">
        <ele>338</ele>
        <time>2022-02-04T17:38:22Z</time>
      </trkpt>
      <trkpt lat="43.3027" lon="6.54279">
        <ele>338.2</ele>
        <time>2022-02-04T17:38:23Z</time>
      </trkpt>
      <trkpt lat="43.30271" lon="6.54276">
        <ele>338.4</ele>
        <time>2022-02-04T17:38:24Z</time>
      </trkpt>
      <trkpt lat="43.30272" lon="6.54273">
        <ele>338.6</ele>
        <time>2022-02-04T17:38:25Z</time>
      </trkpt>
      <trkpt lat="43.30273" lon="6.5427">
        <ele>339</ele>
        <time>2022-02-04T17:38:26Z</time>
      </trkpt>
      <trkpt lat="43.30274" lon="6.54266">
        <ele>339.4</ele>
        <time>2022-02-04T17:38:27Z</time>
      </trkpt>
      <trkpt lat="43.30275" lon="6.54262">
        <ele>339.8</ele>
        <time>2022-02-04T17:38:28Z</time>
      </trkpt>
      <trkpt lat="43.30276" lon="6.54259">
        <ele>340.2</ele>
        <time>2022-02-04T17:38:29Z</time>
      </trkpt>
      <trkpt lat="43.30278" lon="6.54255">
        <ele>340.4</ele>
        <time>2022-02-04T17:38:30Z</time>
      </trkpt>
      <trkpt lat="43.30279" lon="6.54252">
        <ele>340.6</ele>
        <time>2022-02-04T17:38:31Z</time>
      </trkpt>
      <trkpt lat="43.3028" lon="6.54248">
        <ele>340.8</ele>
        <time>2022-02-04T17:38:32Z</time>
      </trkpt>
      <trkpt lat="43.30282" lon="6.54245">
        <ele>341</ele>
        <time>2022-02-04T17:38:33Z</time>
      </trkpt>
      <trkpt lat="43.30283" lon="6.54242">
        <ele>341.2</ele>
        <time>2022-02-04T17:38:34Z</time>
      </trkpt>
      <trkpt lat="43.30285" lon="6.54238">
        <ele>341.2</ele>
        <time>2022-02-04T17:38:35Z</time>
      </trkpt>
      <trkpt lat="43.30287" lon="6.54234">
        <ele>341.2</ele>
        <time>2022-02-04T17:38:36Z</time>
      </trkpt>
      <trkpt lat="43.30288" lon="6.5423">
        <ele>341.2</ele>
        <time>2022-02-04T17:38:37Z</time>
      </trkpt>
      <trkpt lat="43.3029" lon="6.54226">
        <ele>341.4</ele>
        <time>2022-02-04T17:38:38Z</time>
      </trkpt>
      <trkpt lat="43.30291" lon="6.54223">
        <ele>341.6</ele>
        <time>2022-02-04T17:38:39Z</time>
      </trkpt>
      <trkpt lat="43.30293" lon="6.54219">
        <ele>342</ele>
        <time>2022-02-04T17:38:40Z</time>
      </trkpt>
      <trkpt lat="43.30294" lon="6.54215">
        <ele>342.2</ele>
        <time>2022-02-04T17:38:41Z</time>
      </trkpt>
      <trkpt lat="43.30294" lon="6.5421">
        <ele>342.2</ele>
        <time>2022-02-04T17:38:42Z</time>
      </trkpt>
      <trkpt lat="43.30294" lon="6.54206">
        <ele>342.6</ele>
        <time>2022-02-04T17:38:43Z</time>
      </trkpt>
      <trkpt lat="43.30294" lon="6.54202">
        <ele>343.4</ele>
        <time>2022-02-04T17:38:44Z</time>
      </trkpt>
      <trkpt lat="43.30293" lon="6.54199">
        <ele>343.8</ele>
        <time>2022-02-04T17:38:45Z</time>
      </trkpt>
      <trkpt lat="43.30293" lon="6.54196">
        <ele>344.2</ele>
        <time>2022-02-04T17:38:46Z</time>
      </trkpt>
      <trkpt lat="43.30292" lon="6.54192">
        <ele>344.6</ele>
        <time>2022-02-04T17:38:47Z</time>
      </trkpt>
      <trkpt lat="43.30291" lon="6.54188">
        <ele>344.8</ele>
        <time>2022-02-04T17:38:48Z</time>
      </trkpt>
      <trkpt lat="43.3029" lon="6.54184">
        <ele>345</ele>
        <time>2022-02-04T17:38:49Z</time>
      </trkpt>
      <trkpt lat="43.30288" lon="6.5418">
        <ele>345.4</ele>
        <time>2022-02-04T17:38:50Z</time>
      </trkpt>
      <trkpt lat="43.30287" lon="6.54176">
        <ele>345.8</ele>
        <time>2022-02-04T17:38:51Z</time>
      </trkpt>
      <trkpt lat="43.30285" lon="6.54171">
        <ele>346.2</ele>
        <time>2022-02-04T17:38:52Z</time>
      </trkpt>
      <trkpt lat="43.30283" lon="6.54167">
        <ele>346.6</ele>
        <time>2022-02-04T17:38:53Z</time>
      </trkpt>
      <trkpt lat="43.30281" lon="6.54164">
        <ele>347.6</ele>
        <time>2022-02-04T17:38:54Z</time>
      </trkpt>
      <trkpt lat="43.30279" lon="6.54159">
        <ele>348.2</ele>
        <time>2022-02-04T17:38:55Z</time>
      </trkpt>
      <trkpt lat="43.30277" lon="6.54154">
        <ele>348.8</ele>
        <time>2022-02-04T17:38:56Z</time>
      </trkpt>
      <trkpt lat="43.30276" lon="6.54151">
        <ele>349.2</ele>
        <time>2022-02-04T17:38:57Z</time>
      </trkpt>
      <trkpt lat="43.30273" lon="6.54147">
        <ele>349.6</ele>
        <time>2022-02-04T17:38:58Z</time>
      </trkpt>
      <trkpt lat="43.30272" lon="6.54144">
        <ele>350</ele>
        <time>2022-02-04T17:38:59Z</time>
      </trkpt>
      <trkpt lat="43.3027" lon="6.5414">
        <ele>350.4</ele>
        <time>2022-02-04T17:39:00Z</time>
      </trkpt>
      <trkpt lat="43.30268" lon="6.54137">
        <ele>351</ele>
        <time>2022-02-04T17:39:01Z</time>
      </trkpt>
      <trkpt lat="43.30265" lon="6.54133">
        <ele>351.2</ele>
        <time>2022-02-04T17:39:02Z</time>
      </trkpt>
      <trkpt lat="43.30263" lon="6.5413">
        <ele>351.6</ele>
        <time>2022-02-04T17:39:03Z</time>
      </trkpt>
      <trkpt lat="43.30261" lon="6.54127">
        <ele>352.2</ele>
        <time>2022-02-04T17:39:04Z</time>
      </trkpt>
      <trkpt lat="43.30259" lon="6.54123">
        <ele>352.8</ele>
        <time>2022-02-04T17:39:05Z</time>
      </trkpt>
      <trkpt lat="43.30257" lon="6.54121">
        <ele>353.2</ele>
        <time>2022-02-04T17:39:06Z</time>
      </trkpt>
      <trkpt lat="43.30256" lon="6.54118">
        <ele>353.6</ele>
        <time>2022-02-04T17:39:07Z</time>
      </trkpt>
      <trkpt lat="43.30254" lon="6.54115">
        <ele>354</ele>
        <time>2022-02-04T17:39:08Z</time>
      </trkpt>
      <trkpt lat="43.30252" lon="6.54112">
        <ele>354.4</ele>
        <time>2022-02-04T17:39:09Z</time>
      </trkpt>
      <trkpt lat="43.3025" lon="6.54109">
        <ele>354.4</ele>
        <time>2022-02-04T17:39:10Z</time>
      </trkpt>
      <trkpt lat="43.30248" lon="6.54106">
        <ele>354.6</ele>
        <time>2022-02-04T17:39:11Z</time>
      </trkpt>
      <trkpt lat="43.30246" lon="6.54102">
        <ele>354.6</ele>
        <time>2022-02-04T17:39:12Z</time>
      </trkpt>
      <trkpt lat="43.30244" lon="6.54097">
        <ele>354.6</ele>
        <time>2022-02-04T17:39:13Z</time>
      </trkpt>
      <trkpt lat="43.30242" lon="6.54093">
        <ele>354.6</ele>
        <time>2022-02-04T17:39:14Z</time>
      </trkpt>
      <trkpt lat="43.30241" lon="6.54088">
        <ele>355</ele>
        <time>2022-02-04T17:39:15Z</time>
      </trkpt>
      <trkpt lat="43.3024" lon="6.54083">
        <ele>355.2</ele>
        <time>2022-02-04T17:39:16Z</time>
      </trkpt>
      <trkpt lat="43.30238" lon="6.54078">
        <ele>355.4</ele>
        <time>2022-02-04T17:39:17Z</time>
      </trkpt>
      <trkpt lat="43.30237" lon="6.54073">
        <ele>355.2</ele>
        <time>2022-02-04T17:39:18Z</time>
      </trkpt>
      <trkpt lat="43.30236" lon="6.54067">
        <ele>354.8</ele>
        <time>2022-02-04T17:39:19Z</time>
      </trkpt>
      <trkpt lat="43.30234" lon="6.54059">
        <ele>354.4</ele>
        <time>2022-02-04T17:39:20Z</time>
      </trkpt>
      <trkpt lat="43.30232" lon="6.54052">
        <ele>353.6</ele>
        <time>2022-02-04T17:39:21Z</time>
      </trkpt>
      <trkpt lat="43.30229" lon="6.54043">
        <ele>353</ele>
        <time>2022-02-04T17:39:22Z</time>
      </trkpt>
      <trkpt lat="43.30227" lon="6.54036">
        <ele>352.2</ele>
        <time>2022-02-04T17:39:23Z</time>
      </trkpt>
      <trkpt lat="43.30224" lon="6.54027">
        <ele>351.6</ele>
        <time>2022-02-04T17:39:24Z</time>
      </trkpt>
      <trkpt lat="43.30222" lon="6.54017">
        <ele>351</ele>
        <time>2022-02-04T17:39:25Z</time>
      </trkpt>
      <trkpt lat="43.3022" lon="6.54009">
        <ele>350</ele>
        <time>2022-02-04T17:39:26Z</time>
      </trkpt>
      <trkpt lat="43.30218" lon="6.53999">
        <ele>349.6</ele>
        <time>2022-02-04T17:39:27Z</time>
      </trkpt>
      <trkpt lat="43.30217" lon="6.53992">
        <ele>349.2</ele>
        <time>2022-02-04T17:39:28Z</time>
      </trkpt>
      <trkpt lat="43.30216" lon="6.53987">
        <ele>349</ele>
        <time>2022-02-04T17:39:29Z</time>
      </trkpt>
      <trkpt lat="43.30215" lon="6.53983">
        <ele>348</ele>
        <time>2022-02-04T17:39:30Z</time>
      </trkpt>
      <trkpt lat="43.30215" lon="6.53979">
        <ele>348</ele>
        <time>2022-02-04T17:39:31Z</time>
      </trkpt>
      <trkpt lat="43.30214" lon="6.53974">
        <ele>348</ele>
        <time>2022-02-04T17:39:32Z</time>
      </trkpt>
      <trkpt lat="43.30214" lon="6.53968">
        <ele>348</ele>
        <time>2022-02-04T17:39:33Z</time>
      </trkpt>
      <trkpt lat="43.30213" lon="6.53963">
        <ele>348.2</ele>
        <time>2022-02-04T17:39:34Z</time>
      </trkpt>
      <trkpt lat="43.30212" lon="6.53957">
        <ele>348.2</ele>
        <time>2022-02-04T17:39:35Z</time>
      </trkpt>
      <trkpt lat="43.30212" lon="6.53952">
        <ele>348.4</ele>
        <time>2022-02-04T17:39:36Z</time>
      </trkpt>
      <trkpt lat="43.30211" lon="6.53946">
        <ele>348.8</ele>
        <time>2022-02-04T17:39:37Z</time>
      </trkpt>
      <trkpt lat="43.3021" lon="6.53941">
        <ele>349</ele>
        <time>2022-02-04T17:39:38Z</time>
      </trkpt>
      <trkpt lat="43.3021" lon="6.53937">
        <ele>349.2</ele>
        <time>2022-02-04T17:39:39Z</time>
      </trkpt>
      <trkpt lat="43.30209" lon="6.53933">
        <ele>349.4</ele>
        <time>2022-02-04T17:39:40Z</time>
      </trkpt>
      <trkpt lat="43.30208" lon="6.53929">
        <ele>349.6</ele>
        <time>2022-02-04T17:39:41Z</time>
      </trkpt>
      <trkpt lat="43.30205" lon="6.53926">
        <ele>350</ele>
        <time>2022-02-04T17:39:42Z</time>
      </trkpt>
      <trkpt lat="43.30202" lon="6.53923">
        <ele>350.2</ele>
        <time>2022-02-04T17:39:43Z</time>
      </trkpt>
      <trkpt lat="43.30198" lon="6.53921">
        <ele>350.2</ele>
        <time>2022-02-04T17:39:44Z</time>
      </trkpt>
      <trkpt lat="43.30194" lon="6.53919">
        <ele>350.2</ele>
        <time>2022-02-04T17:39:45Z</time>
      </trkpt>
      <trkpt lat="43.3019" lon="6.53917">
        <ele>350.2</ele>
        <time>2022-02-04T17:39:46Z</time>
      </trkpt>
      <trkpt lat="43.30186" lon="6.53913">
        <ele>350.2</ele>
        <time>2022-02-04T17:39:47Z</time>
      </trkpt>
      <trkpt lat="43.30182" lon="6.53911">
        <ele>350.2</ele>
        <time>2022-02-04T17:39:48Z</time>
      </trkpt>
      <trkpt lat="43.30178" lon="6.5391">
        <ele>350.2</ele>
        <time>2022-02-04T17:39:49Z</time>
      </trkpt>
      <trkpt lat="43.30175" lon="6.5391">
        <ele>350.2</ele>
        <time>2022-02-04T17:39:50Z</time>
      </trkpt>
      <trkpt lat="43.30171" lon="6.5391">
        <ele>350.4</ele>
        <time>2022-02-04T17:39:51Z</time>
      </trkpt>
      <trkpt lat="43.30166" lon="6.53911">
        <ele>350.6</ele>
        <time>2022-02-04T17:39:52Z</time>
      </trkpt>
      <trkpt lat="43.30162" lon="6.53912">
        <ele>351</ele>
        <time>2022-02-04T17:39:53Z</time>
      </trkpt>
      <trkpt lat="43.30159" lon="6.53915">
        <ele>351.2</ele>
        <time>2022-02-04T17:39:54Z</time>
      </trkpt>
      <trkpt lat="43.30157" lon="6.53917">
        <ele>351.6</ele>
        <time>2022-02-04T17:39:55Z</time>
      </trkpt>
      <trkpt lat="43.30154" lon="6.5392">
        <ele>351.8</ele>
        <time>2022-02-04T17:39:56Z</time>
      </trkpt>
      <trkpt lat="43.30152" lon="6.53924">
        <ele>352</ele>
        <time>2022-02-04T17:39:57Z</time>
      </trkpt>
      <trkpt lat="43.30149" lon="6.53927">
        <ele>352.2</ele>
        <time>2022-02-04T17:39:58Z</time>
      </trkpt>
      <trkpt lat="43.30146" lon="6.53929">
        <ele>352.4</ele>
        <time>2022-02-04T17:39:59Z</time>
      </trkpt>
      <trkpt lat="43.30143" lon="6.5393">
        <ele>352.4</ele>
        <time>2022-02-04T17:40:00Z</time>
      </trkpt>
      <trkpt lat="43.3014" lon="6.53931">
        <ele>352.4</ele>
        <time>2022-02-04T17:40:01Z</time>
      </trkpt>
      <trkpt lat="43.30136" lon="6.53932">
        <ele>352.6</ele>
        <time>2022-02-04T17:40:02Z</time>
      </trkpt>
      <trkpt lat="43.30132" lon="6.53933">
        <ele>352.6</ele>
        <time>2022-02-04T17:40:03Z</time>
      </trkpt>
      <trkpt lat="43.30129" lon="6.53935">
        <ele>352.6</ele>
        <time>2022-02-04T17:40:04Z</time>
      </trkpt>
      <trkpt lat="43.30127" lon="6.53938">
        <ele>352.6</ele>
        <time>2022-02-04T17:40:05Z</time>
      </trkpt>
      <trkpt lat="43.30125" lon="6.53942">
        <ele>352.6</ele>
        <time>2022-02-04T17:40:06Z</time>
      </trkpt>
      <trkpt lat="43.30122" lon="6.53947">
        <ele>352.6</ele>
        <time>2022-02-04T17:40:07Z</time>
      </trkpt>
      <trkpt lat="43.30121" lon="6.53952">
        <ele>352.6</ele>
        <time>2022-02-04T17:40:08Z</time>
      </trkpt>
      <trkpt lat="43.30119" lon="6.53956">
        <ele>352.6</ele>
        <time>2022-02-04T17:40:09Z</time>
      </trkpt>
      <trkpt lat="43.30117" lon="6.5396">
        <ele>352.6</ele>
        <time>2022-02-04T17:40:10Z</time>
      </trkpt>
      <trkpt lat="43.30115" lon="6.53964">
        <ele>352.6</ele>
        <time>2022-02-04T17:40:11Z</time>
      </trkpt>
      <trkpt lat="43.30113" lon="6.53968">
        <ele>352.8</ele>
        <time>2022-02-04T17:40:12Z</time>
      </trkpt>
      <trkpt lat="43.30111" lon="6.53972">
        <ele>353.4</ele>
        <time>2022-02-04T17:40:13Z</time>
      </trkpt>
      <trkpt lat="43.30109" lon="6.53974">
        <ele>353.6</ele>
        <time>2022-02-04T17:40:14Z</time>
      </trkpt>
      <trkpt lat="43.30106" lon="6.53978">
        <ele>353.8</ele>
        <time>2022-02-04T17:40:15Z</time>
      </trkpt>
      <trkpt lat="43.30103" lon="6.53982">
        <ele>354.2</ele>
        <time>2022-02-04T17:40:16Z</time>
      </trkpt>
      <trkpt lat="43.30101" lon="6.53985">
        <ele>354.4</ele>
        <time>2022-02-04T17:40:17Z</time>
      </trkpt>
      <trkpt lat="43.30099" lon="6.53987">
        <ele>354.4</ele>
        <time>2022-02-04T17:40:18Z</time>
      </trkpt>
      <trkpt lat="43.30098" lon="6.5399">
        <ele>354.6</ele>
        <time>2022-02-04T17:40:19Z</time>
      </trkpt>
      <trkpt lat="43.30096" lon="6.53993">
        <ele>354.8</ele>
        <time>2022-02-04T17:40:20Z</time>
      </trkpt>
      <trkpt lat="43.30095" lon="6.53997">
        <ele>355</ele>
        <time>2022-02-04T17:40:21Z</time>
      </trkpt>
      <trkpt lat="43.30093" lon="6.54001">
        <ele>355</ele>
        <time>2022-02-04T17:40:22Z</time>
      </trkpt>
      <trkpt lat="43.30092" lon="6.54003">
        <ele>355</ele>
        <time>2022-02-04T17:40:23Z</time>
      </trkpt>
      <trkpt lat="43.30092" lon="6.54005">
        <ele>355</ele>
        <time>2022-02-04T17:40:24Z</time>
      </trkpt>
      <trkpt lat="43.30092" lon="6.54006">
        <ele>354.8</ele>
        <time>2022-02-04T17:40:25Z</time>
      </trkpt>
      <trkpt lat="43.30092" lon="6.54006">
        <ele>354.4</ele>
        <time>2022-02-04T17:40:26Z</time>
      </trkpt>
      <trkpt lat="43.30092" lon="6.54006">
        <ele>354</ele>
        <time>2022-02-04T17:40:27Z</time>
      </trkpt>
      <trkpt lat="43.30092" lon="6.54006">
        <ele>354</ele>
        <time>2022-02-04T17:40:28Z</time>
      </trkpt>
      <trkpt lat="43.30092" lon="6.54006">
        <ele>353.8</ele>
        <time>2022-02-04T17:40:29Z</time>
      </trkpt>
      <trkpt lat="43.30091" lon="6.54006">
        <ele>353.8</ele>
        <time>2022-02-04T17:40:30Z</time>
      </trkpt>
      <trkpt lat="43.3009" lon="6.54007">
        <ele>353.8</ele>
        <time>2022-02-04T17:40:31Z</time>
      </trkpt>
      <trkpt lat="43.30089" lon="6.5401">
        <ele>353.8</ele>
        <time>2022-02-04T17:40:32Z</time>
      </trkpt>
      <trkpt lat="43.30088" lon="6.54014">
        <ele>353.8</ele>
        <time>2022-02-04T17:40:33Z</time>
      </trkpt>
      <trkpt lat="43.30087" lon="6.5402">
        <ele>353.4</ele>
        <time>2022-02-04T17:40:34Z</time>
      </trkpt>
      <trkpt lat="43.30085" lon="6.54023">
        <ele>353</ele>
        <time>2022-02-04T17:40:35Z</time>
      </trkpt>
      <trkpt lat="43.30082" lon="6.54028">
        <ele>352.8</ele>
        <time>2022-02-04T17:40:36Z</time>
      </trkpt>
      <trkpt lat="43.30078" lon="6.54032">
        <ele>352.2</ele>
        <time>2022-02-04T17:40:37Z</time>
      </trkpt>
      <trkpt lat="43.30075" lon="6.54035">
        <ele>351.8</ele>
        <time>2022-02-04T17:40:38Z</time>
      </trkpt>
      <trkpt lat="43.30071" lon="6.5404">
        <ele>351.2</ele>
        <time>2022-02-04T17:40:39Z</time>
      </trkpt>
      <trkpt lat="43.30067" lon="6.54043">
        <ele>351</ele>
        <time>2022-02-04T17:40:40Z</time>
      </trkpt>
      <trkpt lat="43.30062" lon="6.54045">
        <ele>350.6</ele>
        <time>2022-02-04T17:40:41Z</time>
      </trkpt>
      <trkpt lat="43.30058" lon="6.54046">
        <ele>350.2</ele>
        <time>2022-02-04T17:40:42Z</time>
      </trkpt>
      <trkpt lat="43.30054" lon="6.54048">
        <ele>349.8</ele>
        <time>2022-02-04T17:40:43Z</time>
      </trkpt>
      <trkpt lat="43.30049" lon="6.54051">
        <ele>349.6</ele>
        <time>2022-02-04T17:40:44Z</time>
      </trkpt>
      <trkpt lat="43.30043" lon="6.54054">
        <ele>348.6</ele>
        <time>2022-02-04T17:40:45Z</time>
      </trkpt>
      <trkpt lat="43.30038" lon="6.54056">
        <ele>347.8</ele>
        <time>2022-02-04T17:40:46Z</time>
      </trkpt>
      <trkpt lat="43.30033" lon="6.54056">
        <ele>346.8</ele>
        <time>2022-02-04T17:40:47Z</time>
      </trkpt>
      <trkpt lat="43.30029" lon="6.54056">
        <ele>345.6</ele>
        <time>2022-02-04T17:40:48Z</time>
      </trkpt>
      <trkpt lat="43.30025" lon="6.54056">
        <ele>344.8</ele>
        <time>2022-02-04T17:40:49Z</time>
      </trkpt>
      <trkpt lat="43.3002" lon="6.54055">
        <ele>344</ele>
        <time>2022-02-04T17:40:50Z</time>
      </trkpt>
      <trkpt lat="43.30016" lon="6.54055">
        <ele>343.4</ele>
        <time>2022-02-04T17:40:51Z</time>
      </trkpt>
      <trkpt lat="43.30011" lon="6.54055">
        <ele>342.6</ele>
        <time>2022-02-04T17:40:52Z</time>
      </trkpt>
      <trkpt lat="43.30007" lon="6.54055">
        <ele>341.6</ele>
        <time>2022-02-04T17:40:53Z</time>
      </trkpt>
      <trkpt lat="43.30003" lon="6.54056">
        <ele>340.6</ele>
        <time>2022-02-04T17:40:54Z</time>
      </trkpt>
      <trkpt lat="43.29999" lon="6.54056">
        <ele>340</ele>
        <time>2022-02-04T17:40:55Z</time>
      </trkpt>
      <trkpt lat="43.29995" lon="6.54056">
        <ele>338.8</ele>
        <time>2022-02-04T17:40:56Z</time>
      </trkpt>
      <trkpt lat="43.29991" lon="6.54056">
        <ele>337.6</ele>
        <time>2022-02-04T17:40:57Z</time>
      </trkpt>
      <trkpt lat="43.29987" lon="6.54056">
        <ele>336.6</ele>
        <time>2022-02-04T17:40:58Z</time>
      </trkpt>
      <trkpt lat="43.2998" lon="6.54056">
        <ele>335.4</ele>
        <time>2022-02-04T17:40:59Z</time>
      </trkpt>
      <trkpt lat="43.29974" lon="6.54058">
        <ele>333.8</ele>
        <time>2022-02-04T17:41:00Z</time>
      </trkpt>
      <trkpt lat="43.29969" lon="6.54061">
        <ele>332.6</ele>
        <time>2022-02-04T17:41:01Z</time>
      </trkpt>
      <trkpt lat="43.29965" lon="6.54063">
        <ele>331</ele>
        <time>2022-02-04T17:41:02Z</time>
      </trkpt>
      <trkpt lat="43.2996" lon="6.54065">
        <ele>329.8</ele>
        <time>2022-02-04T17:41:03Z</time>
      </trkpt>
      <trkpt lat="43.29955" lon="6.54066">
        <ele>329</ele>
        <time>2022-02-04T17:41:04Z</time>
      </trkpt>
      <trkpt lat="43.2995" lon="6.54066">
        <ele>328.6</ele>
        <time>2022-02-04T17:41:05Z</time>
      </trkpt>
      <trkpt lat="43.29944" lon="6.54065">
        <ele>328.4</ele>
        <time>2022-02-04T17:41:06Z</time>
      </trkpt>
      <trkpt lat="43.29938" lon="6.54063">
        <ele>327.2</ele>
        <time>2022-02-04T17:41:07Z</time>
      </trkpt>
      <trkpt lat="43.29933" lon="6.54061">
        <ele>326.4</ele>
        <time>2022-02-04T17:41:08Z</time>
      </trkpt>
      <trkpt lat="43.2993" lon="6.54059">
        <ele>325.6</ele>
        <time>2022-02-04T17:41:09Z</time>
      </trkpt>
      <trkpt lat="43.29928" lon="6.54055">
        <ele>325.2</ele>
        <time>2022-02-04T17:41:10Z</time>
      </trkpt>
      <trkpt lat="43.29926" lon="6.54052">
        <ele>324.8</ele>
        <time>2022-02-04T17:41:11Z</time>
      </trkpt>
      <trkpt lat="43.29924" lon="6.54048">
        <ele>324.4</ele>
        <time>2022-02-04T17:41:12Z</time>
      </trkpt>
      <trkpt lat="43.29922" lon="6.54044">
        <ele>324</ele>
        <time>2022-02-04T17:41:13Z</time>
      </trkpt>
      <trkpt lat="43.2992" lon="6.5404">
        <ele>323.8</ele>
        <time>2022-02-04T17:41:14Z</time>
      </trkpt>
      <trkpt lat="43.29917" lon="6.54036">
        <ele>323.4</ele>
        <time>2022-02-04T17:41:15Z</time>
      </trkpt>
      <trkpt lat="43.29915" lon="6.5403">
        <ele>323</ele>
        <time>2022-02-04T17:41:16Z</time>
      </trkpt>
      <trkpt lat="43.29912" lon="6.54025">
        <ele>322.4</ele>
        <time>2022-02-04T17:41:17Z</time>
      </trkpt>
      <trkpt lat="43.29909" lon="6.54019">
        <ele>322</ele>
        <time>2022-02-04T17:41:18Z</time>
      </trkpt>
      <trkpt lat="43.29905" lon="6.54015">
        <ele>321</ele>
        <time>2022-02-04T17:41:19Z</time>
      </trkpt>
      <trkpt lat="43.29899" lon="6.54012">
        <ele>319.6</ele>
        <time>2022-02-04T17:41:20Z</time>
      </trkpt>
      <trkpt lat="43.29893" lon="6.54012">
        <ele>318.4</ele>
        <time>2022-02-04T17:41:21Z</time>
      </trkpt>
      <trkpt lat="43.29887" lon="6.54013">
        <ele>317.6</ele>
        <time>2022-02-04T17:41:22Z</time>
      </trkpt>
      <trkpt lat="43.2988" lon="6.54015">
        <ele>317</ele>
        <time>2022-02-04T17:41:23Z</time>
      </trkpt>
      <trkpt lat="43.29873" lon="6.54018">
        <ele>316.4</ele>
        <time>2022-02-04T17:41:24Z</time>
      </trkpt>
      <trkpt lat="43.29865" lon="6.54021">
        <ele>315.8</ele>
        <time>2022-02-04T17:41:25Z</time>
      </trkpt>
      <trkpt lat="43.29858" lon="6.54023">
        <ele>315</ele>
        <time>2022-02-04T17:41:26Z</time>
      </trkpt>
      <trkpt lat="43.29851" lon="6.54025">
        <ele>314</ele>
        <time>2022-02-04T17:41:27Z</time>
      </trkpt>
      <trkpt lat="43.29843" lon="6.5403">
        <ele>313.6</ele>
        <time>2022-02-04T17:41:28Z</time>
      </trkpt>
      <trkpt lat="43.29838" lon="6.54033">
        <ele>313.4</ele>
        <time>2022-02-04T17:41:29Z</time>
      </trkpt>
      <trkpt lat="43.29833" lon="6.54035">
        <ele>313.2</ele>
        <time>2022-02-04T17:41:30Z</time>
      </trkpt>
      <trkpt lat="43.29829" lon="6.54035">
        <ele>313.2</ele>
        <time>2022-02-04T17:41:31Z</time>
      </trkpt>
      <trkpt lat="43.29825" lon="6.54034">
        <ele>313.2</ele>
        <time>2022-02-04T17:41:32Z</time>
      </trkpt>
      <trkpt lat="43.29822" lon="6.54032">
        <ele>313.4</ele>
        <time>2022-02-04T17:41:33Z</time>
      </trkpt>
      <trkpt lat="43.29819" lon="6.5403">
        <ele>314</ele>
        <time>2022-02-04T17:41:34Z</time>
      </trkpt>
      <trkpt lat="43.29816" lon="6.54029">
        <ele>314.2</ele>
        <time>2022-02-04T17:41:35Z</time>
      </trkpt>
      <trkpt lat="43.29813" lon="6.54028">
        <ele>314.4</ele>
        <time>2022-02-04T17:41:36Z</time>
      </trkpt>
      <trkpt lat="43.2981" lon="6.54027">
        <ele>314.8</ele>
        <time>2022-02-04T17:41:37Z</time>
      </trkpt>
      <trkpt lat="43.29807" lon="6.54026">
        <ele>315.6</ele>
        <time>2022-02-04T17:41:38Z</time>
      </trkpt>
      <trkpt lat="43.29804" lon="6.54026">
        <ele>316</ele>
        <time>2022-02-04T17:41:39Z</time>
      </trkpt>
      <trkpt lat="43.29802" lon="6.54025">
        <ele>316.8</ele>
        <time>2022-02-04T17:41:40Z</time>
      </trkpt>
      <trkpt lat="43.298" lon="6.54023">
        <ele>317.4</ele>
        <time>2022-02-04T17:41:41Z</time>
      </trkpt>
      <trkpt lat="43.29798" lon="6.54022">
        <ele>318</ele>
        <time>2022-02-04T17:41:42Z</time>
      </trkpt>
      <trkpt lat="43.29796" lon="6.5402">
        <ele>318.4</ele>
        <time>2022-02-04T17:41:43Z</time>
      </trkpt>
      <trkpt lat="43.29794" lon="6.54018">
        <ele>318.6</ele>
        <time>2022-02-04T17:41:44Z</time>
      </trkpt>
      <trkpt lat="43.29791" lon="6.54016">
        <ele>319</ele>
        <time>2022-02-04T17:41:45Z</time>
      </trkpt>
      <trkpt lat="43.29789" lon="6.54014">
        <ele>319.8</ele>
        <time>2022-02-04T17:41:46Z</time>
      </trkpt>
      <trkpt lat="43.29787" lon="6.54012">
        <ele>320.6</ele>
        <time>2022-02-04T17:41:47Z</time>
      </trkpt>
      <trkpt lat="43.29785" lon="6.54009">
        <ele>321</ele>
        <time>2022-02-04T17:41:48Z</time>
      </trkpt>
      <trkpt lat="43.29783" lon="6.54007">
        <ele>321.4</ele>
        <time>2022-02-04T17:41:49Z</time>
      </trkpt>
      <trkpt lat="43.29781" lon="6.54005">
        <ele>322</ele>
        <time>2022-02-04T17:41:50Z</time>
      </trkpt>
      <trkpt lat="43.29779" lon="6.54002">
        <ele>322.6</ele>
        <time>2022-02-04T17:41:51Z</time>
      </trkpt>
      <trkpt lat="43.29777" lon="6.54">
        <ele>323.2</ele>
        <time>2022-02-04T17:41:52Z</time>
      </trkpt>
      <trkpt lat="43.29775" lon="6.53999">
        <ele>324</ele>
        <time>2022-02-04T17:41:53Z</time>
      </trkpt>
      <trkpt lat="43.29773" lon="6.53997">
        <ele>324.8</ele>
        <time>2022-02-04T17:41:54Z</time>
      </trkpt>
      <trkpt lat="43.2977" lon="6.53995">
        <ele>325.4</ele>
        <time>2022-02-04T17:41:55Z</time>
      </trkpt>
      <trkpt lat="43.29768" lon="6.53994">
        <ele>326</ele>
        <time>2022-02-04T17:41:56Z</time>
      </trkpt>
      <trkpt lat="43.29765" lon="6.53993">
        <ele>326.4</ele>
        <time>2022-02-04T17:41:57Z</time>
      </trkpt>
      <trkpt lat="43.29762" lon="6.53992">
        <ele>326.8</ele>
        <time>2022-02-04T17:41:58Z</time>
      </trkpt>
      <trkpt lat="43.29759" lon="6.53993">
        <ele>327.2</ele>
        <time>2022-02-04T17:41:59Z</time>
      </trkpt>
      <trkpt lat="43.29756" lon="6.53994">
        <ele>327.6</ele>
        <time>2022-02-04T17:42:00Z</time>
      </trkpt>
      <trkpt lat="43.29753" lon="6.53994">
        <ele>328</ele>
        <time>2022-02-04T17:42:01Z</time>
      </trkpt>
      <trkpt lat="43.29749" lon="6.53994">
        <ele>328.2</ele>
        <time>2022-02-04T17:42:02Z</time>
      </trkpt>
      <trkpt lat="43.29746" lon="6.53994">
        <ele>328.4</ele>
        <time>2022-02-04T17:42:03Z</time>
      </trkpt>
      <trkpt lat="43.29742" lon="6.53993">
        <ele>328.6</ele>
        <time>2022-02-04T17:42:04Z</time>
      </trkpt>
      <trkpt lat="43.29739" lon="6.53992">
        <ele>328.6</ele>
        <time>2022-02-04T17:42:05Z</time>
      </trkpt>
      <trkpt lat="43.29737" lon="6.53991">
        <ele>329</ele>
        <time>2022-02-04T17:42:06Z</time>
      </trkpt>
      <trkpt lat="43.29734" lon="6.5399">
        <ele>329</ele>
        <time>2022-02-04T17:42:07Z</time>
      </trkpt>
      <trkpt lat="43.29732" lon="6.53987">
        <ele>329.4</ele>
        <time>2022-02-04T17:42:08Z</time>
      </trkpt>
      <trkpt lat="43.29729" lon="6.53984">
        <ele>329.8</ele>
        <time>2022-02-04T17:42:09Z</time>
      </trkpt>
      <trkpt lat="43.29727" lon="6.53981">
        <ele>330.2</ele>
        <time>2022-02-04T17:42:10Z</time>
      </trkpt>
      <trkpt lat="43.29725" lon="6.53979">
        <ele>330.6</ele>
        <time>2022-02-04T17:42:11Z</time>
      </trkpt>
      <trkpt lat="43.29723" lon="6.53977">
        <ele>331</ele>
        <time>2022-02-04T17:42:12Z</time>
      </trkpt>
      <trkpt lat="43.29721" lon="6.53976">
        <ele>332</ele>
        <time>2022-02-04T17:42:13Z</time>
      </trkpt>
      <trkpt lat="43.29719" lon="6.53974">
        <ele>332.6</ele>
        <time>2022-02-04T17:42:14Z</time>
      </trkpt>
      <trkpt lat="43.29717" lon="6.53973">
        <ele>332.8</ele>
        <time>2022-02-04T17:42:15Z</time>
      </trkpt>
      <trkpt lat="43.29715" lon="6.53972">
        <ele>333.4</ele>
        <time>2022-02-04T17:42:16Z</time>
      </trkpt>
      <trkpt lat="43.29713" lon="6.53971">
        <ele>333.8</ele>
        <time>2022-02-04T17:42:17Z</time>
      </trkpt>
      <trkpt lat="43.2971" lon="6.5397">
        <ele>334.2</ele>
        <time>2022-02-04T17:42:18Z</time>
      </trkpt>
      <trkpt lat="43.29708" lon="6.53969">
        <ele>334.4</ele>
        <time>2022-02-04T17:42:19Z</time>
      </trkpt>
      <trkpt lat="43.29707" lon="6.53969">
        <ele>334.6</ele>
        <time>2022-02-04T17:42:20Z</time>
      </trkpt>
      <trkpt lat="43.29705" lon="6.53969">
        <ele>335</ele>
        <time>2022-02-04T17:42:21Z</time>
      </trkpt>
      <trkpt lat="43.29705" lon="6.53969">
        <ele>335.4</ele>
        <time>2022-02-04T17:42:22Z</time>
      </trkpt>
      <trkpt lat="43.29704" lon="6.53969">
        <ele>335.4</ele>
        <time>2022-02-04T17:42:23Z</time>
      </trkpt>
      <trkpt lat="43.29704" lon="6.53969">
        <ele>335.6</ele>
        <time>2022-02-04T17:42:24Z</time>
      </trkpt>
      <trkpt lat="43.29703" lon="6.5397">
        <ele>335.6</ele>
        <time>2022-02-04T17:42:25Z</time>
      </trkpt>
      <trkpt lat="43.29701" lon="6.53971">
        <ele>335.6</ele>
        <time>2022-02-04T17:42:26Z</time>
      </trkpt>
      <trkpt lat="43.29699" lon="6.53972">
        <ele>335.4</ele>
        <time>2022-02-04T17:42:27Z</time>
      </trkpt>
      <trkpt lat="43.29695" lon="6.53973">
        <ele>335.4</ele>
        <time>2022-02-04T17:42:28Z</time>
      </trkpt>
      <trkpt lat="43.2969" lon="6.53976">
        <ele>335.4</ele>
        <time>2022-02-04T17:42:29Z</time>
      </trkpt>
      <trkpt lat="43.29686" lon="6.53981">
        <ele>334.4</ele>
        <time>2022-02-04T17:42:30Z</time>
      </trkpt>
      <trkpt lat="43.29683" lon="6.53986">
        <ele>333.8</ele>
        <time>2022-02-04T17:42:31Z</time>
      </trkpt>
      <trkpt lat="43.29678" lon="6.53994">
        <ele>333</ele>
        <time>2022-02-04T17:42:32Z</time>
      </trkpt>
      <trkpt lat="43.29672" lon="6.54">
        <ele>332.6</ele>
        <time>2022-02-04T17:42:33Z</time>
      </trkpt>
      <trkpt lat="43.29667" lon="6.54007">
        <ele>330.8</ele>
        <time>2022-02-04T17:42:34Z</time>
      </trkpt>
      <trkpt lat="43.29662" lon="6.54014">
        <ele>329.6</ele>
        <time>2022-02-04T17:42:35Z</time>
      </trkpt>
      <trkpt lat="43.29657" lon="6.54022">
        <ele>328.4</ele>
        <time>2022-02-04T17:42:36Z</time>
      </trkpt>
      <trkpt lat="43.29651" lon="6.54033">
        <ele>326</ele>
        <time>2022-02-04T17:42:37Z</time>
      </trkpt>
      <trkpt lat="43.29647" lon="6.54041">
        <ele>324.4</ele>
        <time>2022-02-04T17:42:38Z</time>
      </trkpt>
      <trkpt lat="43.29643" lon="6.54047">
        <ele>323.4</ele>
        <time>2022-02-04T17:42:39Z</time>
      </trkpt>
      <trkpt lat="43.2964" lon="6.54051">
        <ele>323</ele>
        <time>2022-02-04T17:42:40Z</time>
      </trkpt>
      <trkpt lat="43.29636" lon="6.54053">
        <ele>322.6</ele>
        <time>2022-02-04T17:42:41Z</time>
      </trkpt>
      <trkpt lat="43.2963" lon="6.54055">
        <ele>322.4</ele>
        <time>2022-02-04T17:42:42Z</time>
      </trkpt>
      <trkpt lat="43.29625" lon="6.54057">
        <ele>322.2</ele>
        <time>2022-02-04T17:42:43Z</time>
      </trkpt>
      <trkpt lat="43.29619" lon="6.54059">
        <ele>321.8</ele>
        <time>2022-02-04T17:42:44Z</time>
      </trkpt>
      <trkpt lat="43.29615" lon="6.5406">
        <ele>321.6</ele>
        <time>2022-02-04T17:42:45Z</time>
      </trkpt>
      <trkpt lat="43.29609" lon="6.54062">
        <ele>321.2</ele>
        <time>2022-02-04T17:42:46Z</time>
      </trkpt>
      <trkpt lat="43.29606" lon="6.54064">
        <ele>321</ele>
        <time>2022-02-04T17:42:47Z</time>
      </trkpt>
      <trkpt lat="43.29602" lon="6.54065">
        <ele>321</ele>
        <time>2022-02-04T17:42:48Z</time>
      </trkpt>
      <trkpt lat="43.29597" lon="6.54067">
        <ele>321.2</ele>
        <time>2022-02-04T17:42:49Z</time>
      </trkpt>
      <trkpt lat="43.29595" lon="6.54068">
        <ele>321.2</ele>
        <time>2022-02-04T17:42:50Z</time>
      </trkpt>
      <trkpt lat="43.29591" lon="6.54069">
        <ele>321.2</ele>
        <time>2022-02-04T17:42:51Z</time>
      </trkpt>
      <trkpt lat="43.29588" lon="6.54069">
        <ele>321.2</ele>
        <time>2022-02-04T17:42:52Z</time>
      </trkpt>
      <trkpt lat="43.29586" lon="6.54069">
        <ele>321.6</ele>
        <time>2022-02-04T17:42:53Z</time>
      </trkpt>
      <trkpt lat="43.29583" lon="6.54069">
        <ele>322.4</ele>
        <time>2022-02-04T17:42:54Z</time>
      </trkpt>
      <trkpt lat="43.29581" lon="6.54069">
        <ele>323</ele>
        <time>2022-02-04T17:42:55Z</time>
      </trkpt>
      <trkpt lat="43.29578" lon="6.5407">
        <ele>323.2</ele>
        <time>2022-02-04T17:42:56Z</time>
      </trkpt>
      <trkpt lat="43.29576" lon="6.54071">
        <ele>323.6</ele>
        <time>2022-02-04T17:42:57Z</time>
      </trkpt>
      <trkpt lat="43.29573" lon="6.54072">
        <ele>324</ele>
        <time>2022-02-04T17:42:58Z</time>
      </trkpt>
      <trkpt lat="43.29571" lon="6.54073">
        <ele>324</ele>
        <time>2022-02-04T17:42:59Z</time>
      </trkpt>
      <trkpt lat="43.29567" lon="6.54075">
        <ele>324.2</ele>
        <time>2022-02-04T17:43:00Z</time>
      </trkpt>
      <trkpt lat="43.29563" lon="6.54077">
        <ele>324.2</ele>
        <time>2022-02-04T17:43:01Z</time>
      </trkpt>
      <trkpt lat="43.29559" lon="6.54079">
        <ele>324.2</ele>
        <time>2022-02-04T17:43:02Z</time>
      </trkpt>
      <trkpt lat="43.29554" lon="6.54081">
        <ele>324</ele>
        <time>2022-02-04T17:43:03Z</time>
      </trkpt>
      <trkpt lat="43.29549" lon="6.54082">
        <ele>323.8</ele>
        <time>2022-02-04T17:43:04Z</time>
      </trkpt>
      <trkpt lat="43.29545" lon="6.54084">
        <ele>323.2</ele>
        <time>2022-02-04T17:43:05Z</time>
      </trkpt>
      <trkpt lat="43.29542" lon="6.54086">
        <ele>322.8</ele>
        <time>2022-02-04T17:43:06Z</time>
      </trkpt>
      <trkpt lat="43.29539" lon="6.54087">
        <ele>322.4</ele>
        <time>2022-02-04T17:43:07Z</time>
      </trkpt>
      <trkpt lat="43.29537" lon="6.54087">
        <ele>322.2</ele>
        <time>2022-02-04T17:43:08Z</time>
      </trkpt>
      <trkpt lat="43.29536" lon="6.54086">
        <ele>321.8</ele>
        <time>2022-02-04T17:43:09Z</time>
      </trkpt>
      <trkpt lat="43.29536" lon="6.54086">
        <ele>321.6</ele>
        <time>2022-02-04T17:43:10Z</time>
      </trkpt>
      <trkpt lat="43.29536" lon="6.54086">
        <ele>321.6</ele>
        <time>2022-02-04T17:43:11Z</time>
      </trkpt>
      <trkpt lat="43.29536" lon="6.54086">
        <ele>321.4</ele>
        <time>2022-02-04T17:43:12Z</time>
      </trkpt>
      <trkpt lat="43.29536" lon="6.54086">
        <ele>321.4</ele>
        <time>2022-02-04T17:43:13Z</time>
      </trkpt>
      <trkpt lat="43.29536" lon="6.54086">
        <ele>321.4</ele>
        <time>2022-02-04T17:43:14Z</time>
      </trkpt>
      <trkpt lat="43.29536" lon="6.54086">
        <ele>321.4</ele>
        <time>2022-02-04T17:43:15Z</time>
      </trkpt>
      <trkpt lat="43.29536" lon="6.54086">
        <ele>321.4</ele>
        <time>2022-02-04T17:43:16Z</time>
      </trkpt>
      <trkpt lat="43.29536" lon="6.54086">
        <ele>321.4</ele>
        <time>2022-02-04T17:43:17Z</time>
      </trkpt>
      <trkpt lat="43.29536" lon="6.54086">
        <ele>321.4</ele>
        <time>2022-02-04T17:43:18Z</time>
      </trkpt>
      <trkpt lat="43.29536" lon="6.54086">
        <ele>321.4</ele>
        <time>2022-02-04T17:43:19Z</time>
      </trkpt>
      <trkpt lat="43.29536" lon="6.54086">
        <ele>321.6</ele>
        <time>2022-02-04T17:43:20Z</time>
      </trkpt>
      <trkpt lat="43.29536" lon="6.54086">
        <ele>321.4</ele>
        <time>2022-02-04T17:43:21Z</time>
      </trkpt>
      <trkpt lat="43.29536" lon="6.54086">
        <ele>321.4</ele>
        <time>2022-02-04T17:43:22Z</time>
      </trkpt>
      <trkpt lat="43.29536" lon="6.54086">
        <ele>321.4</ele>
        <time>2022-02-04T17:43:23Z</time>
      </trkpt>
      <trkpt lat="43.29536" lon="6.54086">
        <ele>321.4</ele>
        <time>2022-02-04T17:43:24Z</time>
      </trkpt>
      <trkpt lat="43.29536" lon="6.54086">
        <ele>321.4</ele>
        <time>2022-02-04T17:43:25Z</time>
      </trkpt>
      <trkpt lat="43.29536" lon="6.54086">
        <ele>321.4</ele>
        <time>2022-02-04T17:43:26Z</time>
      </trkpt>
      <trkpt lat="43.29536" lon="6.54086">
        <ele>321.4</ele>
        <time>2022-02-04T17:43:27Z</time>
      </trkpt>
      <trkpt lat="43.29536" lon="6.54086">
        <ele>321.4</ele>
        <time>2022-02-04T17:43:28Z</time>
      </trkpt>
      <trkpt lat="43.29536" lon="6.54086">
        <ele>321.4</ele>
        <time>2022-02-04T17:43:29Z</time>
      </trkpt>
      <trkpt lat="43.29536" lon="6.54086">
        <ele>321.4</ele>
        <time>2022-02-04T17:43:30Z</time>
      </trkpt>
      <trkpt lat="43.29536" lon="6.54086">
        <ele>321.4</ele>
        <time>2022-02-04T17:43:31Z</time>
      </trkpt>
      <trkpt lat="43.29536" lon="6.54086">
        <ele>321.4</ele>
        <time>2022-02-04T17:43:32Z</time>
      </trkpt>
      <trkpt lat="43.29536" lon="6.54086">
        <ele>321.6</ele>
        <time>2022-02-04T17:43:33Z</time>
      </trkpt>
      <trkpt lat="43.29536" lon="6.54086">
        <ele>321.4</ele>
        <time>2022-02-04T17:43:34Z</time>
      </trkpt>
      <trkpt lat="43.29536" lon="6.54086">
        <ele>321.4</ele>
        <time>2022-02-04T17:43:35Z</time>
      </trkpt>
      <trkpt lat="43.29536" lon="6.54086">
        <ele>321.4</ele>
        <time>2022-02-04T17:43:36Z</time>
      </trkpt>
      <trkpt lat="43.29536" lon="6.54086">
        <ele>321.4</ele>
        <time>2022-02-04T17:43:37Z</time>
      </trkpt>
      <trkpt lat="43.29536" lon="6.54086">
        <ele>321.4</ele>
        <time>2022-02-04T17:43:38Z</time>
      </trkpt>
      <trkpt lat="43.29536" lon="6.54086">
        <ele>321.4</ele>
        <time>2022-02-04T17:43:39Z</time>
      </trkpt>
      <trkpt lat="43.29536" lon="6.54086">
        <ele>321.4</ele>
        <time>2022-02-04T17:43:40Z</time>
      </trkpt>
      <trkpt lat="43.29534" lon="6.54085">
        <ele>321.4</ele>
        <time>2022-02-04T17:43:41Z</time>
      </trkpt>
      <trkpt lat="43.29532" lon="6.54084">
        <ele>321.4</ele>
        <time>2022-02-04T17:43:42Z</time>
      </trkpt>
      <trkpt lat="43.29529" lon="6.54082">
        <ele>321.4</ele>
        <time>2022-02-04T17:43:43Z</time>
      </trkpt>
      <trkpt lat="43.29527" lon="6.54079">
        <ele>321.4</ele>
        <time>2022-02-04T17:43:44Z</time>
      </trkpt>
      <trkpt lat="43.29526" lon="6.54076">
        <ele>321.4</ele>
        <time>2022-02-04T17:43:45Z</time>
      </trkpt>
      <trkpt lat="43.29526" lon="6.54072">
        <ele>321.4</ele>
        <time>2022-02-04T17:43:46Z</time>
      </trkpt>
      <trkpt lat="43.29525" lon="6.54067">
        <ele>321.6</ele>
        <time>2022-02-04T17:43:47Z</time>
      </trkpt>
      <trkpt lat="43.29525" lon="6.54062">
        <ele>321.6</ele>
        <time>2022-02-04T17:43:48Z</time>
      </trkpt>
      <trkpt lat="43.29525" lon="6.54058">
        <ele>322.4</ele>
        <time>2022-02-04T17:43:49Z</time>
      </trkpt>
      <trkpt lat="43.29525" lon="6.54053">
        <ele>323</ele>
        <time>2022-02-04T17:43:50Z</time>
      </trkpt>
      <trkpt lat="43.29525" lon="6.54047">
        <ele>323.4</ele>
        <time>2022-02-04T17:43:51Z</time>
      </trkpt>
      <trkpt lat="43.29525" lon="6.54044">
        <ele>324.2</ele>
        <time>2022-02-04T17:43:52Z</time>
      </trkpt>
      <trkpt lat="43.29525" lon="6.54039">
        <ele>324.8</ele>
        <time>2022-02-04T17:43:53Z</time>
      </trkpt>
      <trkpt lat="43.29524" lon="6.54034">
        <ele>325.6</ele>
        <time>2022-02-04T17:43:54Z</time>
      </trkpt>
      <trkpt lat="43.29524" lon="6.5403">
        <ele>326.4</ele>
        <time>2022-02-04T17:43:55Z</time>
      </trkpt>
      <trkpt lat="43.29523" lon="6.54026">
        <ele>327</ele>
        <time>2022-02-04T17:43:56Z</time>
      </trkpt>
      <trkpt lat="43.29523" lon="6.54022">
        <ele>327.4</ele>
        <time>2022-02-04T17:43:57Z</time>
      </trkpt>
      <trkpt lat="43.29522" lon="6.54018">
        <ele>327.6</ele>
        <time>2022-02-04T17:43:58Z</time>
      </trkpt>
      <trkpt lat="43.29521" lon="6.54014">
        <ele>328.2</ele>
        <time>2022-02-04T17:43:59Z</time>
      </trkpt>
      <trkpt lat="43.2952" lon="6.5401">
        <ele>328.6</ele>
        <time>2022-02-04T17:44:00Z</time>
      </trkpt>
      <trkpt lat="43.29519" lon="6.54005">
        <ele>328.8</ele>
        <time>2022-02-04T17:44:01Z</time>
      </trkpt>
      <trkpt lat="43.29519" lon="6.54">
        <ele>329.2</ele>
        <time>2022-02-04T17:44:02Z</time>
      </trkpt>
      <trkpt lat="43.29518" lon="6.53995">
        <ele>329.6</ele>
        <time>2022-02-04T17:44:03Z</time>
      </trkpt>
      <trkpt lat="43.29518" lon="6.5399">
        <ele>330</ele>
        <time>2022-02-04T17:44:04Z</time>
      </trkpt>
      <trkpt lat="43.29518" lon="6.53987">
        <ele>330.2</ele>
        <time>2022-02-04T17:44:05Z</time>
      </trkpt>
      <trkpt lat="43.29518" lon="6.53982">
        <ele>330.6</ele>
        <time>2022-02-04T17:44:06Z</time>
      </trkpt>
      <trkpt lat="43.29519" lon="6.53978">
        <ele>331.2</ele>
        <time>2022-02-04T17:44:07Z</time>
      </trkpt>
      <trkpt lat="43.2952" lon="6.53973">
        <ele>331.8</ele>
        <time>2022-02-04T17:44:08Z</time>
      </trkpt>
      <trkpt lat="43.2952" lon="6.53969">
        <ele>332.2</ele>
        <time>2022-02-04T17:44:09Z</time>
      </trkpt>
      <trkpt lat="43.29521" lon="6.53964">
        <ele>332.6</ele>
        <time>2022-02-04T17:44:10Z</time>
      </trkpt>
      <trkpt lat="43.29522" lon="6.5396">
        <ele>333.2</ele>
        <time>2022-02-04T17:44:11Z</time>
      </trkpt>
      <trkpt lat="43.29523" lon="6.53956">
        <ele>333.6</ele>
        <time>2022-02-04T17:44:12Z</time>
      </trkpt>
      <trkpt lat="43.29523" lon="6.53952">
        <ele>334</ele>
        <time>2022-02-04T17:44:13Z</time>
      </trkpt>
      <trkpt lat="43.29523" lon="6.53948">
        <ele>334.2</ele>
        <time>2022-02-04T17:44:14Z</time>
      </trkpt>
      <trkpt lat="43.29524" lon="6.53943">
        <ele>334.6</ele>
        <time>2022-02-04T17:44:15Z</time>
      </trkpt>
      <trkpt lat="43.29524" lon="6.53939">
        <ele>335</ele>
        <time>2022-02-04T17:44:16Z</time>
      </trkpt>
      <trkpt lat="43.29525" lon="6.53934">
        <ele>335.4</ele>
        <time>2022-02-04T17:44:17Z</time>
      </trkpt>
      <trkpt lat="43.29525" lon="6.5393">
        <ele>336</ele>
        <time>2022-02-04T17:44:18Z</time>
      </trkpt>
      <trkpt lat="43.29526" lon="6.53925">
        <ele>336.2</ele>
        <time>2022-02-04T17:44:19Z</time>
      </trkpt>
      <trkpt lat="43.29527" lon="6.53921">
        <ele>336.6</ele>
        <time>2022-02-04T17:44:20Z</time>
      </trkpt>
      <trkpt lat="43.29529" lon="6.53917">
        <ele>337</ele>
        <time>2022-02-04T17:44:21Z</time>
      </trkpt>
      <trkpt lat="43.2953" lon="6.53913">
        <ele>337.8</ele>
        <time>2022-02-04T17:44:22Z</time>
      </trkpt>
      <trkpt lat="43.29531" lon="6.5391">
        <ele>338.2</ele>
        <time>2022-02-04T17:44:23Z</time>
      </trkpt>
      <trkpt lat="43.29531" lon="6.53909">
        <ele>338.6</ele>
        <time>2022-02-04T17:44:24Z</time>
      </trkpt>
      <trkpt lat="43.29532" lon="6.53907">
        <ele>338.8</ele>
        <time>2022-02-04T17:44:25Z</time>
      </trkpt>
      <trkpt lat="43.29532" lon="6.53906">
        <ele>339.4</ele>
        <time>2022-02-04T17:44:26Z</time>
      </trkpt>
      <trkpt lat="43.29532" lon="6.53905">
        <ele>339.6</ele>
        <time>2022-02-04T17:44:27Z</time>
      </trkpt>
      <trkpt lat="43.29532" lon="6.53905">
        <ele>339.8</ele>
        <time>2022-02-04T17:44:28Z</time>
      </trkpt>
      <trkpt lat="43.29531" lon="6.53903">
        <ele>340</ele>
        <time>2022-02-04T17:44:29Z</time>
      </trkpt>
      <trkpt lat="43.2953" lon="6.53903">
        <ele>340</ele>
        <time>2022-02-04T17:44:30Z</time>
      </trkpt>
      <trkpt lat="43.29529" lon="6.53902">
        <ele>340</ele>
        <time>2022-02-04T17:44:31Z</time>
      </trkpt>
      <trkpt lat="43.29529" lon="6.53902">
        <ele>340.2</ele>
        <time>2022-02-04T17:44:32Z</time>
      </trkpt>
      <trkpt lat="43.29529" lon="6.53902">
        <ele>340.2</ele>
        <time>2022-02-04T17:44:33Z</time>
      </trkpt>
      <trkpt lat="43.29529" lon="6.53902">
        <ele>340</ele>
        <time>2022-02-04T17:44:34Z</time>
      </trkpt>
      <trkpt lat="43.29529" lon="6.53902">
        <ele>340</ele>
        <time>2022-02-04T17:44:35Z</time>
      </trkpt>
      <trkpt lat="43.29529" lon="6.53902">
        <ele>340</ele>
        <time>2022-02-04T17:44:36Z</time>
      </trkpt>
      <trkpt lat="43.29529" lon="6.53902">
        <ele>340</ele>
        <time>2022-02-04T17:44:37Z</time>
      </trkpt>
      <trkpt lat="43.29529" lon="6.53902">
        <ele>340</ele>
        <time>2022-02-04T17:44:38Z</time>
      </trkpt>
      <trkpt lat="43.29529" lon="6.53902">
        <ele>340</ele>
        <time>2022-02-04T17:44:39Z</time>
      </trkpt>
      <trkpt lat="43.29529" lon="6.53902">
        <ele>340</ele>
        <time>2022-02-04T17:44:40Z</time>
      </trkpt>
      <trkpt lat="43.29529" lon="6.53902">
        <ele>340</ele>
        <time>2022-02-04T17:44:41Z</time>
      </trkpt>
      <trkpt lat="43.29529" lon="6.53902">
        <ele>340</ele>
        <time>2022-02-04T17:44:42Z</time>
      </trkpt>
      <trkpt lat="43.29529" lon="6.53902">
        <ele>340.2</ele>
        <time>2022-02-04T17:44:43Z</time>
      </trkpt>
      <trkpt lat="43.29529" lon="6.53902">
        <ele>340.2</ele>
        <time>2022-02-04T17:44:44Z</time>
      </trkpt>
      <trkpt lat="43.29529" lon="6.53902">
        <ele>340.2</ele>
        <time>2022-02-04T17:44:45Z</time>
      </trkpt>
      <trkpt lat="43.29529" lon="6.53902">
        <ele>340.2</ele>
        <time>2022-02-04T17:44:46Z</time>
      </trkpt>
      <trkpt lat="43.29529" lon="6.53902">
        <ele>340.2</ele>
        <time>2022-02-04T17:44:47Z</time>
      </trkpt>
      <trkpt lat="43.29529" lon="6.53902">
        <ele>340.2</ele>
        <time>2022-02-04T17:44:48Z</time>
      </trkpt>
      <trkpt lat="43.29529" lon="6.53902">
        <ele>340.2</ele>
        <time>2022-02-04T17:44:49Z</time>
      </trkpt>
      <trkpt lat="43.29529" lon="6.53902">
        <ele>340.2</ele>
        <time>2022-02-04T17:44:50Z</time>
      </trkpt>
      <trkpt lat="43.29529" lon="6.53904">
        <ele>340</ele>
        <time>2022-02-04T17:44:51Z</time>
      </trkpt>
      <trkpt lat="43.29529" lon="6.53905">
        <ele>340</ele>
        <time>2022-02-04T17:44:52Z</time>
      </trkpt>
      <trkpt lat="43.2953" lon="6.53906">
        <ele>340</ele>
        <time>2022-02-04T17:44:53Z</time>
      </trkpt>
      <trkpt lat="43.2953" lon="6.53907">
        <ele>339.8</ele>
        <time>2022-02-04T17:44:54Z</time>
      </trkpt>
      <trkpt lat="43.29532" lon="6.53908">
        <ele>339.8</ele>
        <time>2022-02-04T17:44:55Z</time>
      </trkpt>
      <trkpt lat="43.29533" lon="6.53909">
        <ele>339.8</ele>
        <time>2022-02-04T17:44:56Z</time>
      </trkpt>
      <trkpt lat="43.29535" lon="6.53909">
        <ele>339.8</ele>
        <time>2022-02-04T17:44:57Z</time>
      </trkpt>
      <trkpt lat="43.29537" lon="6.53909">
        <ele>339.8</ele>
        <time>2022-02-04T17:44:58Z</time>
      </trkpt>
      <trkpt lat="43.2954" lon="6.5391">
        <ele>339.8</ele>
        <time>2022-02-04T17:44:59Z</time>
      </trkpt>
      <trkpt lat="43.29543" lon="6.5391">
        <ele>339.8</ele>
        <time>2022-02-04T17:45:00Z</time>
      </trkpt>
      <trkpt lat="43.29545" lon="6.5391">
        <ele>339.8</ele>
        <time>2022-02-04T17:45:01Z</time>
      </trkpt>
      <trkpt lat="43.29548" lon="6.5391">
        <ele>340</ele>
        <time>2022-02-04T17:45:02Z</time>
      </trkpt>
      <trkpt lat="43.2955" lon="6.53909">
        <ele>340.2</ele>
        <time>2022-02-04T17:45:03Z</time>
      </trkpt>
      <trkpt lat="43.2955" lon="6.53909">
        <ele>340.8</ele>
        <time>2022-02-04T17:45:04Z</time>
      </trkpt>
      <trkpt lat="43.2955" lon="6.53909">
        <ele>341.2</ele>
        <time>2022-02-04T17:45:05Z</time>
      </trkpt>
      <trkpt lat="43.2955" lon="6.53909">
        <ele>341.4</ele>
        <time>2022-02-04T17:45:06Z</time>
      </trkpt>
      <trkpt lat="43.2955" lon="6.53909">
        <ele>341.4</ele>
        <time>2022-02-04T17:45:07Z</time>
      </trkpt>
      <trkpt lat="43.2955" lon="6.53908">
        <ele>341.6</ele>
        <time>2022-02-04T17:45:08Z</time>
      </trkpt>
      <trkpt lat="43.29551" lon="6.53906">
        <ele>341.8</ele>
        <time>2022-02-04T17:45:09Z</time>
      </trkpt>
      <trkpt lat="43.29552" lon="6.53904">
        <ele>341.8</ele>
        <time>2022-02-04T17:45:10Z</time>
      </trkpt>
      <trkpt lat="43.29552" lon="6.53902">
        <ele>341.8</ele>
        <time>2022-02-04T17:45:11Z</time>
      </trkpt>
      <trkpt lat="43.29553" lon="6.539">
        <ele>342</ele>
        <time>2022-02-04T17:45:12Z</time>
      </trkpt>
      <trkpt lat="43.29553" lon="6.53896">
        <ele>342.6</ele>
        <time>2022-02-04T17:45:13Z</time>
      </trkpt>
      <trkpt lat="43.29554" lon="6.53893">
        <ele>343</ele>
        <time>2022-02-04T17:45:14Z</time>
      </trkpt>
      <trkpt lat="43.29555" lon="6.53889">
        <ele>343.2</ele>
        <time>2022-02-04T17:45:15Z</time>
      </trkpt>
      <trkpt lat="43.29556" lon="6.53887">
        <ele>343.4</ele>
        <time>2022-02-04T17:45:16Z</time>
      </trkpt>
      <trkpt lat="43.29558" lon="6.53884">
        <ele>344</ele>
        <time>2022-02-04T17:45:17Z</time>
      </trkpt>
      <trkpt lat="43.29561" lon="6.53881">
        <ele>344.2</ele>
        <time>2022-02-04T17:45:18Z</time>
      </trkpt>
      <trkpt lat="43.29563" lon="6.5388">
        <ele>344.6</ele>
        <time>2022-02-04T17:45:19Z</time>
      </trkpt>
      <trkpt lat="43.29565" lon="6.5388">
        <ele>345.2</ele>
        <time>2022-02-04T17:45:20Z</time>
      </trkpt>
      <trkpt lat="43.29567" lon="6.53881">
        <ele>345.8</ele>
        <time>2022-02-04T17:45:21Z</time>
      </trkpt>
      <trkpt lat="43.2957" lon="6.53882">
        <ele>346.2</ele>
        <time>2022-02-04T17:45:22Z</time>
      </trkpt>
      <trkpt lat="43.29573" lon="6.53883">
        <ele>346.6</ele>
        <time>2022-02-04T17:45:23Z</time>
      </trkpt>
      <trkpt lat="43.29574" lon="6.53884">
        <ele>346.8</ele>
        <time>2022-02-04T17:45:24Z</time>
      </trkpt>
      <trkpt lat="43.29575" lon="6.53884">
        <ele>347</ele>
        <time>2022-02-04T17:45:25Z</time>
      </trkpt>
      <trkpt lat="43.29576" lon="6.53884">
        <ele>347.2</ele>
        <time>2022-02-04T17:45:26Z</time>
      </trkpt>
      <trkpt lat="43.29576" lon="6.53883">
        <ele>347.4</ele>
        <time>2022-02-04T17:45:27Z</time>
      </trkpt>
      <trkpt lat="43.29576" lon="6.53881">
        <ele>347.4</ele>
        <time>2022-02-04T17:45:28Z</time>
      </trkpt>
      <trkpt lat="43.29576" lon="6.53879">
        <ele>347.4</ele>
        <time>2022-02-04T17:45:29Z</time>
      </trkpt>
      <trkpt lat="43.29576" lon="6.53877">
        <ele>347.6</ele>
        <time>2022-02-04T17:45:30Z</time>
      </trkpt>
      <trkpt lat="43.29576" lon="6.53874">
        <ele>347.6</ele>
        <time>2022-02-04T17:45:31Z</time>
      </trkpt>
      <trkpt lat="43.29578" lon="6.53869">
        <ele>347.8</ele>
        <time>2022-02-04T17:45:32Z</time>
      </trkpt>
      <trkpt lat="43.29578" lon="6.53866">
        <ele>348</ele>
        <time>2022-02-04T17:45:33Z</time>
      </trkpt>
      <trkpt lat="43.29578" lon="6.53862">
        <ele>348.2</ele>
        <time>2022-02-04T17:45:34Z</time>
      </trkpt>
      <trkpt lat="43.29579" lon="6.53859">
        <ele>348.6</ele>
        <time>2022-02-04T17:45:35Z</time>
      </trkpt>
      <trkpt lat="43.2958" lon="6.53856">
        <ele>348.8</ele>
        <time>2022-02-04T17:45:36Z</time>
      </trkpt>
      <trkpt lat="43.29583" lon="6.53855">
        <ele>349</ele>
        <time>2022-02-04T17:45:37Z</time>
      </trkpt>
      <trkpt lat="43.29584" lon="6.53856">
        <ele>349.6</ele>
        <time>2022-02-04T17:45:38Z</time>
      </trkpt>
      <trkpt lat="43.29584" lon="6.53859">
        <ele>349.8</ele>
        <time>2022-02-04T17:45:39Z</time>
      </trkpt>
      <trkpt lat="43.29584" lon="6.53861">
        <ele>350</ele>
        <time>2022-02-04T17:45:40Z</time>
      </trkpt>
      <trkpt lat="43.29584" lon="6.53864">
        <ele>350</ele>
        <time>2022-02-04T17:45:41Z</time>
      </trkpt>
      <trkpt lat="43.29583" lon="6.53866">
        <ele>350</ele>
        <time>2022-02-04T17:45:42Z</time>
      </trkpt>
      <trkpt lat="43.29584" lon="6.53866">
        <ele>350</ele>
        <time>2022-02-04T17:45:43Z</time>
      </trkpt>
      <trkpt lat="43.29584" lon="6.53865">
        <ele>350</ele>
        <time>2022-02-04T17:45:44Z</time>
      </trkpt>
      <trkpt lat="43.29584" lon="6.53864">
        <ele>350</ele>
        <time>2022-02-04T17:45:45Z</time>
      </trkpt>
      <trkpt lat="43.29585" lon="6.53862">
        <ele>350</ele>
        <time>2022-02-04T17:45:46Z</time>
      </trkpt>
      <trkpt lat="43.29587" lon="6.53861">
        <ele>350.2</ele>
        <time>2022-02-04T17:45:47Z</time>
      </trkpt>
      <trkpt lat="43.29589" lon="6.53861">
        <ele>350.2</ele>
        <time>2022-02-04T17:45:48Z</time>
      </trkpt>
      <trkpt lat="43.29591" lon="6.53861">
        <ele>350.2</ele>
        <time>2022-02-04T17:45:49Z</time>
      </trkpt>
      <trkpt lat="43.29593" lon="6.53861">
        <ele>350.4</ele>
        <time>2022-02-04T17:45:50Z</time>
      </trkpt>
      <trkpt lat="43.29594" lon="6.53861">
        <ele>350.6</ele>
        <time>2022-02-04T17:45:51Z</time>
      </trkpt>
      <trkpt lat="43.29594" lon="6.53861">
        <ele>350.6</ele>
        <time>2022-02-04T17:45:52Z</time>
      </trkpt>
      <trkpt lat="43.29594" lon="6.53861">
        <ele>350.6</ele>
        <time>2022-02-04T17:45:53Z</time>
      </trkpt>
      <trkpt lat="43.29594" lon="6.53861">
        <ele>350.6</ele>
        <time>2022-02-04T17:45:54Z</time>
      </trkpt>
      <trkpt lat="43.29594" lon="6.53861">
        <ele>350.6</ele>
        <time>2022-02-04T17:45:55Z</time>
      </trkpt>
      <trkpt lat="43.29594" lon="6.53861">
        <ele>350.6</ele>
        <time>2022-02-04T17:45:56Z</time>
      </trkpt>
      <trkpt lat="43.29594" lon="6.53861">
        <ele>350.6</ele>
        <time>2022-02-04T17:45:57Z</time>
      </trkpt>
      <trkpt lat="43.29594" lon="6.53861">
        <ele>350.4</ele>
        <time>2022-02-04T17:45:58Z</time>
      </trkpt>
      <trkpt lat="43.29594" lon="6.53861">
        <ele>350.4</ele>
        <time>2022-02-04T17:45:59Z</time>
      </trkpt>
      <trkpt lat="43.29594" lon="6.53861">
        <ele>350.6</ele>
        <time>2022-02-04T17:46:00Z</time>
      </trkpt>
      <trkpt lat="43.29594" lon="6.53861">
        <ele>350.6</ele>
        <time>2022-02-04T17:46:01Z</time>
      </trkpt>
      <trkpt lat="43.29594" lon="6.53861">
        <ele>350.6</ele>
        <time>2022-02-04T17:46:02Z</time>
      </trkpt>
      <trkpt lat="43.29594" lon="6.53861">
        <ele>350.6</ele>
        <time>2022-02-04T17:46:03Z</time>
      </trkpt>
      <trkpt lat="43.29594" lon="6.53861">
        <ele>350.4</ele>
        <time>2022-02-04T17:46:04Z</time>
      </trkpt>
      <trkpt lat="43.29594" lon="6.53861">
        <ele>350.4</ele>
        <time>2022-02-04T17:46:05Z</time>
      </trkpt>
      <trkpt lat="43.29594" lon="6.53861">
        <ele>350.4</ele>
        <time>2022-02-04T17:46:06Z</time>
      </trkpt>
      <trkpt lat="43.29594" lon="6.53861">
        <ele>350.4</ele>
        <time>2022-02-04T17:46:07Z</time>
      </trkpt>
      <trkpt lat="43.29594" lon="6.53861">
        <ele>350.2</ele>
        <time>2022-02-04T17:46:08Z</time>
      </trkpt>
      <trkpt lat="43.29594" lon="6.53861">
        <ele>350.2</ele>
        <time>2022-02-04T17:46:09Z</time>
      </trkpt>
      <trkpt lat="43.29594" lon="6.53861">
        <ele>350.2</ele>
        <time>2022-02-04T17:46:10Z</time>
      </trkpt>
      <trkpt lat="43.29594" lon="6.53861">
        <ele>350.2</ele>
        <time>2022-02-04T17:46:11Z</time>
      </trkpt>
      <trkpt lat="43.29594" lon="6.53861">
        <ele>350.2</ele>
        <time>2022-02-04T17:46:12Z</time>
      </trkpt>
      <trkpt lat="43.29594" lon="6.53861">
        <ele>350.2</ele>
        <time>2022-02-04T17:46:13Z</time>
      </trkpt>
      <trkpt lat="43.29594" lon="6.53861">
        <ele>350.2</ele>
        <time>2022-02-04T17:46:14Z</time>
      </trkpt>
      <trkpt lat="43.29594" lon="6.53861">
        <ele>350.2</ele>
        <time>2022-02-04T17:46:15Z</time>
      </trkpt>
      <trkpt lat="43.29594" lon="6.53861">
        <ele>350.2</ele>
        <time>2022-02-04T17:46:16Z</time>
      </trkpt>
      <trkpt lat="43.29594" lon="6.53861">
        <ele>350.4</ele>
        <time>2022-02-04T17:46:17Z</time>
      </trkpt>
      <trkpt lat="43.29594" lon="6.53861">
        <ele>350.4</ele>
        <time>2022-02-04T17:46:18Z</time>
      </trkpt>
      <trkpt lat="43.29594" lon="6.53861">
        <ele>350.6</ele>
        <time>2022-02-04T17:46:19Z</time>
      </trkpt>
      <trkpt lat="43.29594" lon="6.53861">
        <ele>350.6</ele>
        <time>2022-02-04T17:46:20Z</time>
      </trkpt>
      <trkpt lat="43.29594" lon="6.53861">
        <ele>350.6</ele>
        <time>2022-02-04T17:46:21Z</time>
      </trkpt>
      <trkpt lat="43.29594" lon="6.53861">
        <ele>350.6</ele>
        <time>2022-02-04T17:46:22Z</time>
      </trkpt>
      <trkpt lat="43.29594" lon="6.53861">
        <ele>350.8</ele>
        <time>2022-02-04T17:46:23Z</time>
      </trkpt>
      <trkpt lat="43.29594" lon="6.53861">
        <ele>350.6</ele>
        <time>2022-02-04T17:46:24Z</time>
      </trkpt>
      <trkpt lat="43.29594" lon="6.53861">
        <ele>350.6</ele>
        <time>2022-02-04T17:46:25Z</time>
      </trkpt>
      <trkpt lat="43.29594" lon="6.53861">
        <ele>350.6</ele>
        <time>2022-02-04T17:46:26Z</time>
      </trkpt>
      <trkpt lat="43.29594" lon="6.53861">
        <ele>350.4</ele>
        <time>2022-02-04T17:46:27Z</time>
      </trkpt>
      <trkpt lat="43.29594" lon="6.53861">
        <ele>350.4</ele>
        <time>2022-02-04T17:46:28Z</time>
      </trkpt>
      <trkpt lat="43.29594" lon="6.53861">
        <ele>350.4</ele>
        <time>2022-02-04T17:46:29Z</time>
      </trkpt>
      <trkpt lat="43.29594" lon="6.53861">
        <ele>350.4</ele>
        <time>2022-02-04T17:46:30Z</time>
      </trkpt>
      <trkpt lat="43.29594" lon="6.53861">
        <ele>350.4</ele>
        <time>2022-02-04T17:46:31Z</time>
      </trkpt>
      <trkpt lat="43.29594" lon="6.53861">
        <ele>350.4</ele>
        <time>2022-02-04T17:46:32Z</time>
      </trkpt>
      <trkpt lat="43.29594" lon="6.53861">
        <ele>350.4</ele>
        <time>2022-02-04T17:46:33Z</time>
      </trkpt>
      <trkpt lat="43.29594" lon="6.53861">
        <ele>350.2</ele>
        <time>2022-02-04T17:46:34Z</time>
      </trkpt>
      <trkpt lat="43.29594" lon="6.53861">
        <ele>350.2</ele>
        <time>2022-02-04T17:46:35Z</time>
      </trkpt>
      <trkpt lat="43.29594" lon="6.53861">
        <ele>350.2</ele>
        <time>2022-02-04T17:46:36Z</time>
      </trkpt>
      <trkpt lat="43.29594" lon="6.53861">
        <ele>350.2</ele>
        <time>2022-02-04T17:46:37Z</time>
      </trkpt>
      <trkpt lat="43.29594" lon="6.53861">
        <ele>350</ele>
        <time>2022-02-04T17:46:38Z</time>
      </trkpt>
      <trkpt lat="43.29594" lon="6.53861">
        <ele>350</ele>
        <time>2022-02-04T17:46:39Z</time>
      </trkpt>
      <trkpt lat="43.29594" lon="6.53861">
        <ele>350</ele>
        <time>2022-02-04T17:46:40Z</time>
      </trkpt>
      <trkpt lat="43.29594" lon="6.53861">
        <ele>350</ele>
        <time>2022-02-04T17:46:41Z</time>
      </trkpt>
      <trkpt lat="43.29594" lon="6.53861">
        <ele>350</ele>
        <time>2022-02-04T17:46:42Z</time>
      </trkpt>
      <trkpt lat="43.29594" lon="6.53861">
        <ele>350</ele>
        <time>2022-02-04T17:46:43Z</time>
      </trkpt>
      <trkpt lat="43.29594" lon="6.53861">
        <ele>350</ele>
        <time>2022-02-04T17:46:44Z</time>
      </trkpt>
      <trkpt lat="43.29594" lon="6.53861">
        <ele>350</ele>
        <time>2022-02-04T17:46:45Z</time>
      </trkpt>
      <trkpt lat="43.29594" lon="6.53861">
        <ele>350</ele>
        <time>2022-02-04T17:46:46Z</time>
      </trkpt>
      <trkpt lat="43.29594" lon="6.53861">
        <ele>350</ele>
        <time>2022-02-04T17:46:47Z</time>
      </trkpt>
      <trkpt lat="43.29594" lon="6.53861">
        <ele>350</ele>
        <time>2022-02-04T17:46:48Z</time>
      </trkpt>
      <trkpt lat="43.29594" lon="6.53861">
        <ele>350</ele>
        <time>2022-02-04T17:46:49Z</time>
      </trkpt>
      <trkpt lat="43.29594" lon="6.53861">
        <ele>350</ele>
        <time>2022-02-04T17:46:50Z</time>
      </trkpt>
      <trkpt lat="43.29594" lon="6.53861">
        <ele>350</ele>
        <time>2022-02-04T17:46:51Z</time>
      </trkpt>
      <trkpt lat="43.29594" lon="6.53861">
        <ele>350</ele>
        <time>2022-02-04T17:46:52Z</time>
      </trkpt>
      <trkpt lat="43.29594" lon="6.53861">
        <ele>349.8</ele>
        <time>2022-02-04T17:46:53Z</time>
      </trkpt>
      <trkpt lat="43.29594" lon="6.53861">
        <ele>349.8</ele>
        <time>2022-02-04T17:46:54Z</time>
      </trkpt>
      <trkpt lat="43.29594" lon="6.53861">
        <ele>349.8</ele>
        <time>2022-02-04T17:46:55Z</time>
      </trkpt>
      <trkpt lat="43.29594" lon="6.53861">
        <ele>349.8</ele>
        <time>2022-02-04T17:46:56Z</time>
      </trkpt>
      <trkpt lat="43.29594" lon="6.53861">
        <ele>349.8</ele>
        <time>2022-02-04T17:46:57Z</time>
      </trkpt>
      <trkpt lat="43.29594" lon="6.53861">
        <ele>349.8</ele>
        <time>2022-02-04T17:46:58Z</time>
      </trkpt>
      <trkpt lat="43.29594" lon="6.53861">
        <ele>349.8</ele>
        <time>2022-02-04T17:46:59Z</time>
      </trkpt>
      <trkpt lat="43.29594" lon="6.53861">
        <ele>349.8</ele>
        <time>2022-02-04T17:47:00Z</time>
      </trkpt>
      <trkpt lat="43.29595" lon="6.53861">
        <ele>349.8</ele>
        <time>2022-02-04T17:47:01Z</time>
      </trkpt>
      <trkpt lat="43.29595" lon="6.53861">
        <ele>349.8</ele>
        <time>2022-02-04T17:47:02Z</time>
      </trkpt>
      <trkpt lat="43.29595" lon="6.53861">
        <ele>349.8</ele>
        <time>2022-02-04T17:47:03Z</time>
      </trkpt>
      <trkpt lat="43.29595" lon="6.53861">
        <ele>349.8</ele>
        <time>2022-02-04T17:47:04Z</time>
      </trkpt>
      <trkpt lat="43.29595" lon="6.53861">
        <ele>349.8</ele>
        <time>2022-02-04T17:47:05Z</time>
      </trkpt>
      <trkpt lat="43.29595" lon="6.53861">
        <ele>349.8</ele>
        <time>2022-02-04T17:47:06Z</time>
      </trkpt>
      <trkpt lat="43.29595" lon="6.53861">
        <ele>349.8</ele>
        <time>2022-02-04T17:47:07Z</time>
      </trkpt>
      <trkpt lat="43.29595" lon="6.53861">
        <ele>349.8</ele>
        <time>2022-02-04T17:47:08Z</time>
      </trkpt>
      <trkpt lat="43.29595" lon="6.53861">
        <ele>349.8</ele>
        <time>2022-02-04T17:47:09Z</time>
      </trkpt>
      <trkpt lat="43.29595" lon="6.53861">
        <ele>349.8</ele>
        <time>2022-02-04T17:47:10Z</time>
      </trkpt>
      <trkpt lat="43.29595" lon="6.53861">
        <ele>349.8</ele>
        <time>2022-02-04T17:47:11Z</time>
      </trkpt>
      <trkpt lat="43.29595" lon="6.53861">
        <ele>349.8</ele>
        <time>2022-02-04T17:47:12Z</time>
      </trkpt>
      <trkpt lat="43.29595" lon="6.53861">
        <ele>349.8</ele>
        <time>2022-02-04T17:47:13Z</time>
      </trkpt>
      <trkpt lat="43.29595" lon="6.53861">
        <ele>349.8</ele>
        <time>2022-02-04T17:47:14Z</time>
      </trkpt>
      <trkpt lat="43.29595" lon="6.5386">
        <ele>349.8</ele>
        <time>2022-02-04T17:47:15Z</time>
      </trkpt>
      <trkpt lat="43.29595" lon="6.5386">
        <ele>349.8</ele>
        <time>2022-02-04T17:47:16Z</time>
      </trkpt>
      <trkpt lat="43.29595" lon="6.5386">
        <ele>349.8</ele>
        <time>2022-02-04T17:47:17Z</time>
      </trkpt>
      <trkpt lat="43.29595" lon="6.5386">
        <ele>349.8</ele>
        <time>2022-02-04T17:47:18Z</time>
      </trkpt>
      <trkpt lat="43.29595" lon="6.5386">
        <ele>349.8</ele>
        <time>2022-02-04T17:47:19Z</time>
      </trkpt>
      <trkpt lat="43.29595" lon="6.5386">
        <ele>349.8</ele>
        <time>2022-02-04T17:47:20Z</time>
      </trkpt>
      <trkpt lat="43.29595" lon="6.5386">
        <ele>349.6</ele>
        <time>2022-02-04T17:47:21Z</time>
      </trkpt>
      <trkpt lat="43.29595" lon="6.5386">
        <ele>349.6</ele>
        <time>2022-02-04T17:47:22Z</time>
      </trkpt>
      <trkpt lat="43.29595" lon="6.5386">
        <ele>349.6</ele>
        <time>2022-02-04T17:47:23Z</time>
      </trkpt>
      <trkpt lat="43.29595" lon="6.5386">
        <ele>349.6</ele>
        <time>2022-02-04T17:47:24Z</time>
      </trkpt>
      <trkpt lat="43.29595" lon="6.5386">
        <ele>349.6</ele>
        <time>2022-02-04T17:47:25Z</time>
      </trkpt>
      <trkpt lat="43.29595" lon="6.5386">
        <ele>349.6</ele>
        <time>2022-02-04T17:47:26Z</time>
      </trkpt>
      <trkpt lat="43.29595" lon="6.5386">
        <ele>349.4</ele>
        <time>2022-02-04T17:47:27Z</time>
      </trkpt>
      <trkpt lat="43.29595" lon="6.5386">
        <ele>349.4</ele>
        <time>2022-02-04T17:47:28Z</time>
      </trkpt>
      <trkpt lat="43.29595" lon="6.5386">
        <ele>349.4</ele>
        <time>2022-02-04T17:47:29Z</time>
      </trkpt>
      <trkpt lat="43.29595" lon="6.5386">
        <ele>349.4</ele>
        <time>2022-02-04T17:47:30Z</time>
      </trkpt>
      <trkpt lat="43.29595" lon="6.5386">
        <ele>349.4</ele>
        <time>2022-02-04T17:47:31Z</time>
      </trkpt>
      <trkpt lat="43.29595" lon="6.5386">
        <ele>349.4</ele>
        <time>2022-02-04T17:47:32Z</time>
      </trkpt>
      <trkpt lat="43.29595" lon="6.5386">
        <ele>349.4</ele>
        <time>2022-02-04T17:47:33Z</time>
      </trkpt>
      <trkpt lat="43.29595" lon="6.5386">
        <ele>349.4</ele>
        <time>2022-02-04T17:47:34Z</time>
      </trkpt>
      <trkpt lat="43.29595" lon="6.5386">
        <ele>349.4</ele>
        <time>2022-02-04T17:47:35Z</time>
      </trkpt>
      <trkpt lat="43.29595" lon="6.5386">
        <ele>349.4</ele>
        <time>2022-02-04T17:47:36Z</time>
      </trkpt>
      <trkpt lat="43.29595" lon="6.5386">
        <ele>349.4</ele>
        <time>2022-02-04T17:47:37Z</time>
      </trkpt>
      <trkpt lat="43.29595" lon="6.5386">
        <ele>349.4</ele>
        <time>2022-02-04T17:47:38Z</time>
      </trkpt>
      <trkpt lat="43.29595" lon="6.5386">
        <ele>349.4</ele>
        <time>2022-02-04T17:47:39Z</time>
      </trkpt>
      <trkpt lat="43.29595" lon="6.5386">
        <ele>349.2</ele>
        <time>2022-02-04T17:47:40Z</time>
      </trkpt>
      <trkpt lat="43.29595" lon="6.5386">
        <ele>349.2</ele>
        <time>2022-02-04T17:47:41Z</time>
      </trkpt>
      <trkpt lat="43.29595" lon="6.5386">
        <ele>349.2</ele>
        <time>2022-02-04T17:47:42Z</time>
      </trkpt>
      <trkpt lat="43.29595" lon="6.5386">
        <ele>349.2</ele>
        <time>2022-02-04T17:47:43Z</time>
      </trkpt>
      <trkpt lat="43.29595" lon="6.5386">
        <ele>349</ele>
        <time>2022-02-04T17:47:44Z</time>
      </trkpt>
      <trkpt lat="43.29595" lon="6.5386">
        <ele>349</ele>
        <time>2022-02-04T17:47:45Z</time>
      </trkpt>
      <trkpt lat="43.29595" lon="6.5386">
        <ele>349</ele>
        <time>2022-02-04T17:47:46Z</time>
      </trkpt>
      <trkpt lat="43.29595" lon="6.5386">
        <ele>349.2</ele>
        <time>2022-02-04T17:47:47Z</time>
      </trkpt>
      <trkpt lat="43.29595" lon="6.5386">
        <ele>349.2</ele>
        <time>2022-02-04T17:47:48Z</time>
      </trkpt>
      <trkpt lat="43.29595" lon="6.5386">
        <ele>349.2</ele>
        <time>2022-02-04T17:47:49Z</time>
      </trkpt>
      <trkpt lat="43.29595" lon="6.5386">
        <ele>349</ele>
        <time>2022-02-04T17:47:50Z</time>
      </trkpt>
      <trkpt lat="43.29595" lon="6.5386">
        <ele>349</ele>
        <time>2022-02-04T17:47:51Z</time>
      </trkpt>
      <trkpt lat="43.29595" lon="6.5386">
        <ele>349</ele>
        <time>2022-02-04T17:47:52Z</time>
      </trkpt>
      <trkpt lat="43.29595" lon="6.5386">
        <ele>349</ele>
        <time>2022-02-04T17:47:53Z</time>
      </trkpt>
      <trkpt lat="43.29595" lon="6.5386">
        <ele>349</ele>
        <time>2022-02-04T17:47:54Z</time>
      </trkpt>
      <trkpt lat="43.29595" lon="6.5386">
        <ele>348.8</ele>
        <time>2022-02-04T17:47:55Z</time>
      </trkpt>
      <trkpt lat="43.29595" lon="6.5386">
        <ele>348.8</ele>
        <time>2022-02-04T17:47:56Z</time>
      </trkpt>
      <trkpt lat="43.29595" lon="6.5386">
        <ele>349</ele>
        <time>2022-02-04T17:47:57Z</time>
      </trkpt>
      <trkpt lat="43.29595" lon="6.5386">
        <ele>349.2</ele>
        <time>2022-02-04T17:47:58Z</time>
      </trkpt>
      <trkpt lat="43.29595" lon="6.5386">
        <ele>349.2</ele>
        <time>2022-02-04T17:47:59Z</time>
      </trkpt>
      <trkpt lat="43.29595" lon="6.5386">
        <ele>349.2</ele>
        <time>2022-02-04T17:48:00Z</time>
      </trkpt>
      <trkpt lat="43.29595" lon="6.53859">
        <ele>349.2</ele>
        <time>2022-02-04T17:48:01Z</time>
      </trkpt>
      <trkpt lat="43.29596" lon="6.53857">
        <ele>349.2</ele>
        <time>2022-02-04T17:48:02Z</time>
      </trkpt>
      <trkpt lat="43.29597" lon="6.53853">
        <ele>349.2</ele>
        <time>2022-02-04T17:48:03Z</time>
      </trkpt>
      <trkpt lat="43.29598" lon="6.53849">
        <ele>349.2</ele>
        <time>2022-02-04T17:48:04Z</time>
      </trkpt>
      <trkpt lat="43.29598" lon="6.53845">
        <ele>349.2</ele>
        <time>2022-02-04T17:48:05Z</time>
      </trkpt>
      <trkpt lat="43.29599" lon="6.5384">
        <ele>349.4</ele>
        <time>2022-02-04T17:48:06Z</time>
      </trkpt>
      <trkpt lat="43.29599" lon="6.53835">
        <ele>349.4</ele>
        <time>2022-02-04T17:48:07Z</time>
      </trkpt>
      <trkpt lat="43.29599" lon="6.5383">
        <ele>349.4</ele>
        <time>2022-02-04T17:48:08Z</time>
      </trkpt>
      <trkpt lat="43.296" lon="6.53824">
        <ele>349.4</ele>
        <time>2022-02-04T17:48:09Z</time>
      </trkpt>
      <trkpt lat="43.29601" lon="6.53818">
        <ele>349.4</ele>
        <time>2022-02-04T17:48:10Z</time>
      </trkpt>
      <trkpt lat="43.29603" lon="6.53812">
        <ele>349.4</ele>
        <time>2022-02-04T17:48:11Z</time>
      </trkpt>
      <trkpt lat="43.29604" lon="6.53807">
        <ele>349.4</ele>
        <time>2022-02-04T17:48:12Z</time>
      </trkpt>
      <trkpt lat="43.29607" lon="6.53803">
        <ele>349</ele>
        <time>2022-02-04T17:48:13Z</time>
      </trkpt>
      <trkpt lat="43.2961" lon="6.53802">
        <ele>348.6</ele>
        <time>2022-02-04T17:48:14Z</time>
      </trkpt>
      <trkpt lat="43.29614" lon="6.53804">
        <ele>348</ele>
        <time>2022-02-04T17:48:15Z</time>
      </trkpt>
      <trkpt lat="43.29618" lon="6.53807">
        <ele>347.6</ele>
        <time>2022-02-04T17:48:16Z</time>
      </trkpt>
      <trkpt lat="43.29622" lon="6.53811">
        <ele>346.8</ele>
        <time>2022-02-04T17:48:17Z</time>
      </trkpt>
      <trkpt lat="43.29625" lon="6.53815">
        <ele>345.8</ele>
        <time>2022-02-04T17:48:18Z</time>
      </trkpt>
      <trkpt lat="43.29627" lon="6.53816">
        <ele>345.2</ele>
        <time>2022-02-04T17:48:19Z</time>
      </trkpt>
      <trkpt lat="43.2963" lon="6.53816">
        <ele>344.6</ele>
        <time>2022-02-04T17:48:20Z</time>
      </trkpt>
      <trkpt lat="43.29632" lon="6.53813">
        <ele>344.2</ele>
        <time>2022-02-04T17:48:21Z</time>
      </trkpt>
      <trkpt lat="43.29636" lon="6.53812">
        <ele>343.8</ele>
        <time>2022-02-04T17:48:22Z</time>
      </trkpt>
      <trkpt lat="43.29641" lon="6.53813">
        <ele>343.4</ele>
        <time>2022-02-04T17:48:23Z</time>
      </trkpt>
      <trkpt lat="43.29646" lon="6.53813">
        <ele>343</ele>
        <time>2022-02-04T17:48:24Z</time>
      </trkpt>
      <trkpt lat="43.2965" lon="6.53811">
        <ele>342.4</ele>
        <time>2022-02-04T17:48:25Z</time>
      </trkpt>
      <trkpt lat="43.29652" lon="6.53807">
        <ele>342</ele>
        <time>2022-02-04T17:48:26Z</time>
      </trkpt>
      <trkpt lat="43.29652" lon="6.538">
        <ele>341.2</ele>
        <time>2022-02-04T17:48:27Z</time>
      </trkpt>
      <trkpt lat="43.29652" lon="6.53793">
        <ele>340.8</ele>
        <time>2022-02-04T17:48:28Z</time>
      </trkpt>
      <trkpt lat="43.29651" lon="6.53786">
        <ele>340</ele>
        <time>2022-02-04T17:48:29Z</time>
      </trkpt>
      <trkpt lat="43.2965" lon="6.53778">
        <ele>339.2</ele>
        <time>2022-02-04T17:48:30Z</time>
      </trkpt>
      <trkpt lat="43.29649" lon="6.53771">
        <ele>337.8</ele>
        <time>2022-02-04T17:48:31Z</time>
      </trkpt>
      <trkpt lat="43.29647" lon="6.53763">
        <ele>337</ele>
        <time>2022-02-04T17:48:32Z</time>
      </trkpt>
      <trkpt lat="43.29648" lon="6.53754">
        <ele>336.4</ele>
        <time>2022-02-04T17:48:33Z</time>
      </trkpt>
      <trkpt lat="43.2965" lon="6.53745">
        <ele>334.4</ele>
        <time>2022-02-04T17:48:34Z</time>
      </trkpt>
      <trkpt lat="43.29652" lon="6.53739">
        <ele>333.2</ele>
        <time>2022-02-04T17:48:35Z</time>
      </trkpt>
      <trkpt lat="43.29656" lon="6.5373">
        <ele>332.4</ele>
        <time>2022-02-04T17:48:36Z</time>
      </trkpt>
      <trkpt lat="43.29658" lon="6.53725">
        <ele>331.6</ele>
        <time>2022-02-04T17:48:37Z</time>
      </trkpt>
      <trkpt lat="43.29658" lon="6.5372">
        <ele>330.8</ele>
        <time>2022-02-04T17:48:38Z</time>
      </trkpt>
      <trkpt lat="43.29657" lon="6.53715">
        <ele>330.2</ele>
        <time>2022-02-04T17:48:39Z</time>
      </trkpt>
      <trkpt lat="43.29656" lon="6.53708">
        <ele>329.8</ele>
        <time>2022-02-04T17:48:40Z</time>
      </trkpt>
      <trkpt lat="43.29657" lon="6.537">
        <ele>329.8</ele>
        <time>2022-02-04T17:48:41Z</time>
      </trkpt>
      <trkpt lat="43.29659" lon="6.53694">
        <ele>328.8</ele>
        <time>2022-02-04T17:48:42Z</time>
      </trkpt>
      <trkpt lat="43.29662" lon="6.53688">
        <ele>327.8</ele>
        <time>2022-02-04T17:48:43Z</time>
      </trkpt>
      <trkpt lat="43.29665" lon="6.53684">
        <ele>326.4</ele>
        <time>2022-02-04T17:48:44Z</time>
      </trkpt>
      <trkpt lat="43.29668" lon="6.53682">
        <ele>325.4</ele>
        <time>2022-02-04T17:48:45Z</time>
      </trkpt>
      <trkpt lat="43.29672" lon="6.53681">
        <ele>324</ele>
        <time>2022-02-04T17:48:46Z</time>
      </trkpt>
      <trkpt lat="43.29674" lon="6.53678">
        <ele>323.2</ele>
        <time>2022-02-04T17:48:47Z</time>
      </trkpt>
      <trkpt lat="43.29675" lon="6.53676">
        <ele>322.4</ele>
        <time>2022-02-04T17:48:48Z</time>
      </trkpt>
      <trkpt lat="43.29674" lon="6.5367">
        <ele>321.8</ele>
        <time>2022-02-04T17:48:49Z</time>
      </trkpt>
      <trkpt lat="43.29675" lon="6.53666">
        <ele>321.4</ele>
        <time>2022-02-04T17:48:50Z</time>
      </trkpt>
      <trkpt lat="43.29676" lon="6.53661">
        <ele>320.8</ele>
        <time>2022-02-04T17:48:51Z</time>
      </trkpt>
      <trkpt lat="43.29677" lon="6.53658">
        <ele>319.4</ele>
        <time>2022-02-04T17:48:52Z</time>
      </trkpt>
      <trkpt lat="43.29676" lon="6.53654">
        <ele>318.6</ele>
        <time>2022-02-04T17:48:53Z</time>
      </trkpt>
      <trkpt lat="43.29676" lon="6.53648">
        <ele>317.8</ele>
        <time>2022-02-04T17:48:54Z</time>
      </trkpt>
      <trkpt lat="43.29676" lon="6.53643">
        <ele>317</ele>
        <time>2022-02-04T17:48:55Z</time>
      </trkpt>
      <trkpt lat="43.29674" lon="6.53636">
        <ele>315.4</ele>
        <time>2022-02-04T17:48:56Z</time>
      </trkpt>
      <trkpt lat="43.29673" lon="6.53632">
        <ele>314.2</ele>
        <time>2022-02-04T17:48:57Z</time>
      </trkpt>
      <trkpt lat="43.29671" lon="6.53628">
        <ele>313</ele>
        <time>2022-02-04T17:48:58Z</time>
      </trkpt>
      <trkpt lat="43.29671" lon="6.53624">
        <ele>312.2</ele>
        <time>2022-02-04T17:48:59Z</time>
      </trkpt>
      <trkpt lat="43.29673" lon="6.53622">
        <ele>311.8</ele>
        <time>2022-02-04T17:49:00Z</time>
      </trkpt>
      <trkpt lat="43.29675" lon="6.53621">
        <ele>311</ele>
        <time>2022-02-04T17:49:01Z</time>
      </trkpt>
      <trkpt lat="43.29677" lon="6.53618">
        <ele>309.4</ele>
        <time>2022-02-04T17:49:02Z</time>
      </trkpt>
      <trkpt lat="43.29678" lon="6.53616">
        <ele>308.2</ele>
        <time>2022-02-04T17:49:03Z</time>
      </trkpt>
      <trkpt lat="43.2968" lon="6.53614">
        <ele>307.4</ele>
        <time>2022-02-04T17:49:04Z</time>
      </trkpt>
      <trkpt lat="43.29682" lon="6.53613">
        <ele>306.6</ele>
        <time>2022-02-04T17:49:05Z</time>
      </trkpt>
      <trkpt lat="43.29684" lon="6.5361">
        <ele>305.6</ele>
        <time>2022-02-04T17:49:06Z</time>
      </trkpt>
      <trkpt lat="43.29684" lon="6.53608">
        <ele>304.2</ele>
        <time>2022-02-04T17:49:07Z</time>
      </trkpt>
      <trkpt lat="43.29685" lon="6.53604">
        <ele>303.2</ele>
        <time>2022-02-04T17:49:08Z</time>
      </trkpt>
      <trkpt lat="43.29685" lon="6.536">
        <ele>301.8</ele>
        <time>2022-02-04T17:49:09Z</time>
      </trkpt>
      <trkpt lat="43.29684" lon="6.53597">
        <ele>300.6</ele>
        <time>2022-02-04T17:49:10Z</time>
      </trkpt>
      <trkpt lat="43.29683" lon="6.53594">
        <ele>299.8</ele>
        <time>2022-02-04T17:49:11Z</time>
      </trkpt>
      <trkpt lat="43.29683" lon="6.5359">
        <ele>299.4</ele>
        <time>2022-02-04T17:49:12Z</time>
      </trkpt>
      <trkpt lat="43.29683" lon="6.53586">
        <ele>299</ele>
        <time>2022-02-04T17:49:13Z</time>
      </trkpt>
      <trkpt lat="43.29683" lon="6.53582">
        <ele>298.6</ele>
        <time>2022-02-04T17:49:14Z</time>
      </trkpt>
      <trkpt lat="43.29684" lon="6.53578">
        <ele>297.4</ele>
        <time>2022-02-04T17:49:15Z</time>
      </trkpt>
      <trkpt lat="43.29685" lon="6.53573">
        <ele>296</ele>
        <time>2022-02-04T17:49:16Z</time>
      </trkpt>
      <trkpt lat="43.29684" lon="6.53569">
        <ele>294.8</ele>
        <time>2022-02-04T17:49:17Z</time>
      </trkpt>
      <trkpt lat="43.29684" lon="6.53565">
        <ele>292.8</ele>
        <time>2022-02-04T17:49:18Z</time>
      </trkpt>
      <trkpt lat="43.29684" lon="6.53561">
        <ele>291.6</ele>
        <time>2022-02-04T17:49:19Z</time>
      </trkpt>
      <trkpt lat="43.29684" lon="6.53559">
        <ele>290.4</ele>
        <time>2022-02-04T17:49:20Z</time>
      </trkpt>
      <trkpt lat="43.29685" lon="6.53557">
        <ele>288.8</ele>
        <time>2022-02-04T17:49:21Z</time>
      </trkpt>
      <trkpt lat="43.29686" lon="6.53555">
        <ele>288</ele>
        <time>2022-02-04T17:49:22Z</time>
      </trkpt>
      <trkpt lat="43.29688" lon="6.53552">
        <ele>287</ele>
        <time>2022-02-04T17:49:23Z</time>
      </trkpt>
      <trkpt lat="43.29691" lon="6.5355">
        <ele>285.8</ele>
        <time>2022-02-04T17:49:24Z</time>
      </trkpt>
      <trkpt lat="43.29695" lon="6.53551">
        <ele>284.6</ele>
        <time>2022-02-04T17:49:25Z</time>
      </trkpt>
      <trkpt lat="43.29698" lon="6.53551">
        <ele>283.6</ele>
        <time>2022-02-04T17:49:26Z</time>
      </trkpt>
      <trkpt lat="43.29701" lon="6.53551">
        <ele>283</ele>
        <time>2022-02-04T17:49:27Z</time>
      </trkpt>
      <trkpt lat="43.29704" lon="6.53549">
        <ele>281.8</ele>
        <time>2022-02-04T17:49:28Z</time>
      </trkpt>
      <trkpt lat="43.29705" lon="6.53546">
        <ele>280.8</ele>
        <time>2022-02-04T17:49:29Z</time>
      </trkpt>
      <trkpt lat="43.29706" lon="6.53543">
        <ele>280</ele>
        <time>2022-02-04T17:49:30Z</time>
      </trkpt>
      <trkpt lat="43.29707" lon="6.53539">
        <ele>278.6</ele>
        <time>2022-02-04T17:49:31Z</time>
      </trkpt>
      <trkpt lat="43.29708" lon="6.53538">
        <ele>277.8</ele>
        <time>2022-02-04T17:49:32Z</time>
      </trkpt>
      <trkpt lat="43.2971" lon="6.53537">
        <ele>277.2</ele>
        <time>2022-02-04T17:49:33Z</time>
      </trkpt>
      <trkpt lat="43.29711" lon="6.53535">
        <ele>276.6</ele>
        <time>2022-02-04T17:49:34Z</time>
      </trkpt>
      <trkpt lat="43.29712" lon="6.53533">
        <ele>275</ele>
        <time>2022-02-04T17:49:35Z</time>
      </trkpt>
      <trkpt lat="43.29714" lon="6.53531">
        <ele>274.2</ele>
        <time>2022-02-04T17:49:36Z</time>
      </trkpt>
      <trkpt lat="43.29716" lon="6.53532">
        <ele>272.8</ele>
        <time>2022-02-04T17:49:37Z</time>
      </trkpt>
      <trkpt lat="43.2972" lon="6.53534">
        <ele>271.6</ele>
        <time>2022-02-04T17:49:38Z</time>
      </trkpt>
      <trkpt lat="43.29723" lon="6.53535">
        <ele>270.6</ele>
        <time>2022-02-04T17:49:39Z</time>
      </trkpt>
      <trkpt lat="43.29725" lon="6.53535">
        <ele>270</ele>
        <time>2022-02-04T17:49:40Z</time>
      </trkpt>
      <trkpt lat="43.29726" lon="6.53533">
        <ele>268.6</ele>
        <time>2022-02-04T17:49:41Z</time>
      </trkpt>
      <trkpt lat="43.29726" lon="6.5353">
        <ele>267.6</ele>
        <time>2022-02-04T17:49:42Z</time>
      </trkpt>
      <trkpt lat="43.29725" lon="6.53525">
        <ele>266.8</ele>
        <time>2022-02-04T17:49:43Z</time>
      </trkpt>
      <trkpt lat="43.29725" lon="6.53519">
        <ele>265.4</ele>
        <time>2022-02-04T17:49:44Z</time>
      </trkpt>
      <trkpt lat="43.29726" lon="6.53516">
        <ele>264.2</ele>
        <time>2022-02-04T17:49:45Z</time>
      </trkpt>
      <trkpt lat="43.29727" lon="6.53512">
        <ele>263.4</ele>
        <time>2022-02-04T17:49:46Z</time>
      </trkpt>
      <trkpt lat="43.29727" lon="6.53509">
        <ele>262.8</ele>
        <time>2022-02-04T17:49:47Z</time>
      </trkpt>
      <trkpt lat="43.29729" lon="6.53507">
        <ele>262</ele>
        <time>2022-02-04T17:49:48Z</time>
      </trkpt>
      <trkpt lat="43.29731" lon="6.53506">
        <ele>261.4</ele>
        <time>2022-02-04T17:49:49Z</time>
      </trkpt>
      <trkpt lat="43.29733" lon="6.53506">
        <ele>260</ele>
        <time>2022-02-04T17:49:50Z</time>
      </trkpt>
      <trkpt lat="43.29736" lon="6.53507">
        <ele>258.8</ele>
        <time>2022-02-04T17:49:51Z</time>
      </trkpt>
      <trkpt lat="43.29739" lon="6.53506">
        <ele>258.2</ele>
        <time>2022-02-04T17:49:52Z</time>
      </trkpt>
      <trkpt lat="43.29741" lon="6.53504">
        <ele>257.6</ele>
        <time>2022-02-04T17:49:53Z</time>
      </trkpt>
      <trkpt lat="43.29741" lon="6.53501">
        <ele>257.2</ele>
        <time>2022-02-04T17:49:54Z</time>
      </trkpt>
      <trkpt lat="43.29742" lon="6.53496">
        <ele>256.2</ele>
        <time>2022-02-04T17:49:55Z</time>
      </trkpt>
      <trkpt lat="43.29742" lon="6.5349">
        <ele>255.2</ele>
        <time>2022-02-04T17:49:56Z</time>
      </trkpt>
      <trkpt lat="43.29743" lon="6.53486">
        <ele>254.6</ele>
        <time>2022-02-04T17:49:57Z</time>
      </trkpt>
      <trkpt lat="43.29745" lon="6.53483">
        <ele>253.4</ele>
        <time>2022-02-04T17:49:58Z</time>
      </trkpt>
      <trkpt lat="43.29748" lon="6.53481">
        <ele>252.2</ele>
        <time>2022-02-04T17:49:59Z</time>
      </trkpt>
      <trkpt lat="43.29749" lon="6.53478">
        <ele>250.4</ele>
        <time>2022-02-04T17:50:00Z</time>
      </trkpt>
      <trkpt lat="43.2975" lon="6.53473">
        <ele>249</ele>
        <time>2022-02-04T17:50:01Z</time>
      </trkpt>
      <trkpt lat="43.29749" lon="6.53468">
        <ele>247.6</ele>
        <time>2022-02-04T17:50:02Z</time>
      </trkpt>
      <trkpt lat="43.29745" lon="6.53462">
        <ele>246.2</ele>
        <time>2022-02-04T17:50:03Z</time>
      </trkpt>
      <trkpt lat="43.29743" lon="6.53458">
        <ele>245.2</ele>
        <time>2022-02-04T17:50:04Z</time>
      </trkpt>
      <trkpt lat="43.29741" lon="6.53454">
        <ele>244.6</ele>
        <time>2022-02-04T17:50:05Z</time>
      </trkpt>
      <trkpt lat="43.2974" lon="6.5345">
        <ele>244.2</ele>
        <time>2022-02-04T17:50:06Z</time>
      </trkpt>
      <trkpt lat="43.29742" lon="6.53448">
        <ele>243.4</ele>
        <time>2022-02-04T17:50:07Z</time>
      </trkpt>
      <trkpt lat="43.29744" lon="6.53446">
        <ele>242</ele>
        <time>2022-02-04T17:50:08Z</time>
      </trkpt>
      <trkpt lat="43.29748" lon="6.53444">
        <ele>241.2</ele>
        <time>2022-02-04T17:50:09Z</time>
      </trkpt>
      <trkpt lat="43.29752" lon="6.53443">
        <ele>240.6</ele>
        <time>2022-02-04T17:50:10Z</time>
      </trkpt>
      <trkpt lat="43.29757" lon="6.53442">
        <ele>240.2</ele>
        <time>2022-02-04T17:50:11Z</time>
      </trkpt>
      <trkpt lat="43.29761" lon="6.53443">
        <ele>239.8</ele>
        <time>2022-02-04T17:50:12Z</time>
      </trkpt>
      <trkpt lat="43.29765" lon="6.53444">
        <ele>239.6</ele>
        <time>2022-02-04T17:50:13Z</time>
      </trkpt>
      <trkpt lat="43.29769" lon="6.53445">
        <ele>239.2</ele>
        <time>2022-02-04T17:50:14Z</time>
      </trkpt>
      <trkpt lat="43.29772" lon="6.53448">
        <ele>238.4</ele>
        <time>2022-02-04T17:50:15Z</time>
      </trkpt>
      <trkpt lat="43.29775" lon="6.53451">
        <ele>237.6</ele>
        <time>2022-02-04T17:50:16Z</time>
      </trkpt>
      <trkpt lat="43.29777" lon="6.53452">
        <ele>236.8</ele>
        <time>2022-02-04T17:50:17Z</time>
      </trkpt>
      <trkpt lat="43.29779" lon="6.53451">
        <ele>235.6</ele>
        <time>2022-02-04T17:50:18Z</time>
      </trkpt>
      <trkpt lat="43.2978" lon="6.5345">
        <ele>234.8</ele>
        <time>2022-02-04T17:50:19Z</time>
      </trkpt>
      <trkpt lat="43.29781" lon="6.53445">
        <ele>234.4</ele>
        <time>2022-02-04T17:50:20Z</time>
      </trkpt>
      <trkpt lat="43.29779" lon="6.53439">
        <ele>233.6</ele>
        <time>2022-02-04T17:50:21Z</time>
      </trkpt>
      <trkpt lat="43.29777" lon="6.53433">
        <ele>233</ele>
        <time>2022-02-04T17:50:22Z</time>
      </trkpt>
      <trkpt lat="43.29775" lon="6.53429">
        <ele>232.6</ele>
        <time>2022-02-04T17:50:23Z</time>
      </trkpt>
      <trkpt lat="43.29774" lon="6.53426">
        <ele>232</ele>
        <time>2022-02-04T17:50:24Z</time>
      </trkpt>
      <trkpt lat="43.29773" lon="6.53422">
        <ele>231.4</ele>
        <time>2022-02-04T17:50:25Z</time>
      </trkpt>
      <trkpt lat="43.29772" lon="6.53416">
        <ele>231.2</ele>
        <time>2022-02-04T17:50:26Z</time>
      </trkpt>
      <trkpt lat="43.29771" lon="6.53411">
        <ele>231</ele>
        <time>2022-02-04T17:50:27Z</time>
      </trkpt>
      <trkpt lat="43.2977" lon="6.53406">
        <ele>230.8</ele>
        <time>2022-02-04T17:50:28Z</time>
      </trkpt>
      <trkpt lat="43.29771" lon="6.53405">
        <ele>230.6</ele>
        <time>2022-02-04T17:50:29Z</time>
      </trkpt>
      <trkpt lat="43.29772" lon="6.53403">
        <ele>230.2</ele>
        <time>2022-02-04T17:50:30Z</time>
      </trkpt>
      <trkpt lat="43.29773" lon="6.53401">
        <ele>229.6</ele>
        <time>2022-02-04T17:50:31Z</time>
      </trkpt>
      <trkpt lat="43.29773" lon="6.53399">
        <ele>229.4</ele>
        <time>2022-02-04T17:50:32Z</time>
      </trkpt>
      <trkpt lat="43.29773" lon="6.53396">
        <ele>228.8</ele>
        <time>2022-02-04T17:50:33Z</time>
      </trkpt>
      <trkpt lat="43.29773" lon="6.53394">
        <ele>228.4</ele>
        <time>2022-02-04T17:50:34Z</time>
      </trkpt>
      <trkpt lat="43.29772" lon="6.53391">
        <ele>227.4</ele>
        <time>2022-02-04T17:50:35Z</time>
      </trkpt>
      <trkpt lat="43.29772" lon="6.53389">
        <ele>226.8</ele>
        <time>2022-02-04T17:50:36Z</time>
      </trkpt>
      <trkpt lat="43.29771" lon="6.53387">
        <ele>226</ele>
        <time>2022-02-04T17:50:37Z</time>
      </trkpt>
      <trkpt lat="43.29771" lon="6.53387">
        <ele>225.2</ele>
        <time>2022-02-04T17:50:38Z</time>
      </trkpt>
      <trkpt lat="43.29771" lon="6.53387">
        <ele>224.4</ele>
        <time>2022-02-04T17:50:39Z</time>
      </trkpt>
      <trkpt lat="43.29771" lon="6.53386">
        <ele>223.8</ele>
        <time>2022-02-04T17:50:40Z</time>
      </trkpt>
      <trkpt lat="43.29771" lon="6.53386">
        <ele>223.6</ele>
        <time>2022-02-04T17:50:41Z</time>
      </trkpt>
      <trkpt lat="43.29771" lon="6.53386">
        <ele>223.4</ele>
        <time>2022-02-04T17:50:42Z</time>
      </trkpt>
      <trkpt lat="43.29771" lon="6.53385">
        <ele>223.2</ele>
        <time>2022-02-04T17:50:43Z</time>
      </trkpt>
      <trkpt lat="43.29771" lon="6.53385">
        <ele>223.2</ele>
        <time>2022-02-04T17:50:44Z</time>
      </trkpt>
      <trkpt lat="43.29771" lon="6.53385">
        <ele>223.4</ele>
        <time>2022-02-04T17:50:45Z</time>
      </trkpt>
      <trkpt lat="43.29771" lon="6.53385">
        <ele>223.4</ele>
        <time>2022-02-04T17:50:46Z</time>
      </trkpt>
      <trkpt lat="43.29772" lon="6.53385">
        <ele>223.6</ele>
        <time>2022-02-04T17:50:47Z</time>
      </trkpt>
      <trkpt lat="43.29772" lon="6.53385">
        <ele>223.6</ele>
        <time>2022-02-04T17:50:48Z</time>
      </trkpt>
      <trkpt lat="43.29772" lon="6.53385">
        <ele>223.6</ele>
        <time>2022-02-04T17:50:49Z</time>
      </trkpt>
      <trkpt lat="43.29772" lon="6.53385">
        <ele>223.6</ele>
        <time>2022-02-04T17:50:50Z</time>
      </trkpt>
      <trkpt lat="43.29772" lon="6.53385">
        <ele>223.6</ele>
        <time>2022-02-04T17:50:51Z</time>
      </trkpt>
      <trkpt lat="43.29772" lon="6.53385">
        <ele>223.6</ele>
        <time>2022-02-04T17:50:52Z</time>
      </trkpt>
      <trkpt lat="43.29772" lon="6.53385">
        <ele>223.4</ele>
        <time>2022-02-04T17:50:53Z</time>
      </trkpt>
      <trkpt lat="43.29772" lon="6.53385">
        <ele>223.4</ele>
        <time>2022-02-04T17:50:54Z</time>
      </trkpt>
      <trkpt lat="43.29772" lon="6.53385">
        <ele>223.2</ele>
        <time>2022-02-04T17:50:55Z</time>
      </trkpt>
      <trkpt lat="43.29772" lon="6.53385">
        <ele>223</ele>
        <time>2022-02-04T17:50:56Z</time>
      </trkpt>
      <trkpt lat="43.29772" lon="6.53385">
        <ele>222.8</ele>
        <time>2022-02-04T17:50:57Z</time>
      </trkpt>
      <trkpt lat="43.29772" lon="6.53385">
        <ele>222.4</ele>
        <time>2022-02-04T17:50:58Z</time>
      </trkpt>
      <trkpt lat="43.29772" lon="6.53385">
        <ele>222.2</ele>
        <time>2022-02-04T17:50:59Z</time>
      </trkpt>
      <trkpt lat="43.29772" lon="6.53385">
        <ele>222</ele>
        <time>2022-02-04T17:51:00Z</time>
      </trkpt>
      <trkpt lat="43.29772" lon="6.53385">
        <ele>222</ele>
        <time>2022-02-04T17:51:01Z</time>
      </trkpt>
      <trkpt lat="43.29772" lon="6.53385">
        <ele>222</ele>
        <time>2022-02-04T17:51:02Z</time>
      </trkpt>
      <trkpt lat="43.29772" lon="6.53385">
        <ele>222</ele>
        <time>2022-02-04T17:51:03Z</time>
      </trkpt>
      <trkpt lat="43.29772" lon="6.53385">
        <ele>222</ele>
        <time>2022-02-04T17:51:04Z</time>
      </trkpt>
      <trkpt lat="43.29772" lon="6.53384">
        <ele>221.8</ele>
        <time>2022-02-04T17:51:05Z</time>
      </trkpt>
      <trkpt lat="43.29771" lon="6.53383">
        <ele>221.8</ele>
        <time>2022-02-04T17:51:06Z</time>
      </trkpt>
      <trkpt lat="43.29771" lon="6.53381">
        <ele>221.6</ele>
        <time>2022-02-04T17:51:07Z</time>
      </trkpt>
      <trkpt lat="43.2977" lon="6.5338">
        <ele>221</ele>
        <time>2022-02-04T17:51:08Z</time>
      </trkpt>
      <trkpt lat="43.2977" lon="6.53379">
        <ele>220.6</ele>
        <time>2022-02-04T17:51:09Z</time>
      </trkpt>
      <trkpt lat="43.2977" lon="6.53379">
        <ele>220</ele>
        <time>2022-02-04T17:51:10Z</time>
      </trkpt>
      <trkpt lat="43.2977" lon="6.53379">
        <ele>219.6</ele>
        <time>2022-02-04T17:51:11Z</time>
      </trkpt>
      <trkpt lat="43.2977" lon="6.53379">
        <ele>219.4</ele>
        <time>2022-02-04T17:51:12Z</time>
      </trkpt>
      <trkpt lat="43.29771" lon="6.53377">
        <ele>219.2</ele>
        <time>2022-02-04T17:51:13Z</time>
      </trkpt>
      <trkpt lat="43.29773" lon="6.53377">
        <ele>218.8</ele>
        <time>2022-02-04T17:51:14Z</time>
      </trkpt>
      <trkpt lat="43.29775" lon="6.53376">
        <ele>218.4</ele>
        <time>2022-02-04T17:51:15Z</time>
      </trkpt>
      <trkpt lat="43.29778" lon="6.53376">
        <ele>218</ele>
        <time>2022-02-04T17:51:16Z</time>
      </trkpt>
      <trkpt lat="43.29779" lon="6.53376">
        <ele>217.6</ele>
        <time>2022-02-04T17:51:17Z</time>
      </trkpt>
      <trkpt lat="43.29781" lon="6.53376">
        <ele>217.4</ele>
        <time>2022-02-04T17:51:18Z</time>
      </trkpt>
      <trkpt lat="43.29782" lon="6.53376">
        <ele>217.4</ele>
        <time>2022-02-04T17:51:19Z</time>
      </trkpt>
      <trkpt lat="43.29785" lon="6.53376">
        <ele>217.2</ele>
        <time>2022-02-04T17:51:20Z</time>
      </trkpt>
      <trkpt lat="43.29787" lon="6.53376">
        <ele>216.8</ele>
        <time>2022-02-04T17:51:21Z</time>
      </trkpt>
      <trkpt lat="43.2979" lon="6.53375">
        <ele>216.2</ele>
        <time>2022-02-04T17:51:22Z</time>
      </trkpt>
      <trkpt lat="43.29792" lon="6.53373">
        <ele>215.2</ele>
        <time>2022-02-04T17:51:23Z</time>
      </trkpt>
      <trkpt lat="43.29794" lon="6.5337">
        <ele>214</ele>
        <time>2022-02-04T17:51:24Z</time>
      </trkpt>
      <trkpt lat="43.29794" lon="6.53366">
        <ele>212.8</ele>
        <time>2022-02-04T17:51:25Z</time>
      </trkpt>
      <trkpt lat="43.29793" lon="6.53362">
        <ele>212</ele>
        <time>2022-02-04T17:51:26Z</time>
      </trkpt>
      <trkpt lat="43.29791" lon="6.53359">
        <ele>211.2</ele>
        <time>2022-02-04T17:51:27Z</time>
      </trkpt>
      <trkpt lat="43.29789" lon="6.53358">
        <ele>210</ele>
        <time>2022-02-04T17:51:28Z</time>
      </trkpt>
      <trkpt lat="43.29785" lon="6.53356">
        <ele>209.2</ele>
        <time>2022-02-04T17:51:29Z</time>
      </trkpt>
      <trkpt lat="43.29782" lon="6.53353">
        <ele>208.6</ele>
        <time>2022-02-04T17:51:30Z</time>
      </trkpt>
      <trkpt lat="43.29779" lon="6.5335">
        <ele>208</ele>
        <time>2022-02-04T17:51:31Z</time>
      </trkpt>
      <trkpt lat="43.29777" lon="6.53349">
        <ele>207.6</ele>
        <time>2022-02-04T17:51:32Z</time>
      </trkpt>
      <trkpt lat="43.29775" lon="6.53346">
        <ele>206.8</ele>
        <time>2022-02-04T17:51:33Z</time>
      </trkpt>
      <trkpt lat="43.29773" lon="6.53343">
        <ele>206.2</ele>
        <time>2022-02-04T17:51:34Z</time>
      </trkpt>
      <trkpt lat="43.29771" lon="6.5334">
        <ele>205.2</ele>
        <time>2022-02-04T17:51:35Z</time>
      </trkpt>
      <trkpt lat="43.29768" lon="6.53337">
        <ele>204.6</ele>
        <time>2022-02-04T17:51:36Z</time>
      </trkpt>
      <trkpt lat="43.29766" lon="6.53335">
        <ele>203.6</ele>
        <time>2022-02-04T17:51:37Z</time>
      </trkpt>
      <trkpt lat="43.29762" lon="6.53333">
        <ele>202.8</ele>
        <time>2022-02-04T17:51:38Z</time>
      </trkpt>
      <trkpt lat="43.29758" lon="6.53331">
        <ele>201.8</ele>
        <time>2022-02-04T17:51:39Z</time>
      </trkpt>
      <trkpt lat="43.29755" lon="6.5333">
        <ele>201</ele>
        <time>2022-02-04T17:51:40Z</time>
      </trkpt>
      <trkpt lat="43.29753" lon="6.53328">
        <ele>200</ele>
        <time>2022-02-04T17:51:41Z</time>
      </trkpt>
      <trkpt lat="43.29751" lon="6.53326">
        <ele>199</ele>
        <time>2022-02-04T17:51:42Z</time>
      </trkpt>
      <trkpt lat="43.29749" lon="6.53323">
        <ele>197.6</ele>
        <time>2022-02-04T17:51:43Z</time>
      </trkpt>
      <trkpt lat="43.29746" lon="6.53321">
        <ele>196.6</ele>
        <time>2022-02-04T17:51:44Z</time>
      </trkpt>
      <trkpt lat="43.29743" lon="6.53319">
        <ele>195.6</ele>
        <time>2022-02-04T17:51:45Z</time>
      </trkpt>
      <trkpt lat="43.2974" lon="6.53318">
        <ele>195.2</ele>
        <time>2022-02-04T17:51:46Z</time>
      </trkpt>
      <trkpt lat="43.29737" lon="6.53318">
        <ele>193.6</ele>
        <time>2022-02-04T17:51:47Z</time>
      </trkpt>
      <trkpt lat="43.29734" lon="6.53316">
        <ele>192.6</ele>
        <time>2022-02-04T17:51:48Z</time>
      </trkpt>
      <trkpt lat="43.29731" lon="6.53316">
        <ele>191.8</ele>
        <time>2022-02-04T17:51:49Z</time>
      </trkpt>
      <trkpt lat="43.29728" lon="6.53317">
        <ele>191.2</ele>
        <time>2022-02-04T17:51:50Z</time>
      </trkpt>
      <trkpt lat="43.29725" lon="6.53317">
        <ele>191</ele>
        <time>2022-02-04T17:51:51Z</time>
      </trkpt>
      <trkpt lat="43.29723" lon="6.53317">
        <ele>190.8</ele>
        <time>2022-02-04T17:51:52Z</time>
      </trkpt>
      <trkpt lat="43.29721" lon="6.53317">
        <ele>190.4</ele>
        <time>2022-02-04T17:51:53Z</time>
      </trkpt>
      <trkpt lat="43.2972" lon="6.53316">
        <ele>190</ele>
        <time>2022-02-04T17:51:54Z</time>
      </trkpt>
      <trkpt lat="43.29718" lon="6.53316">
        <ele>189.8</ele>
        <time>2022-02-04T17:51:55Z</time>
      </trkpt>
      <trkpt lat="43.29717" lon="6.53316">
        <ele>189.2</ele>
        <time>2022-02-04T17:51:56Z</time>
      </trkpt>
      <trkpt lat="43.29715" lon="6.53318">
        <ele>188.8</ele>
        <time>2022-02-04T17:51:57Z</time>
      </trkpt>
      <trkpt lat="43.29713" lon="6.5332">
        <ele>188.6</ele>
        <time>2022-02-04T17:51:58Z</time>
      </trkpt>
      <trkpt lat="43.29711" lon="6.53323">
        <ele>188.4</ele>
        <time>2022-02-04T17:51:59Z</time>
      </trkpt>
      <trkpt lat="43.29708" lon="6.53325">
        <ele>188.4</ele>
        <time>2022-02-04T17:52:00Z</time>
      </trkpt>
      <trkpt lat="43.29706" lon="6.53326">
        <ele>188.4</ele>
        <time>2022-02-04T17:52:01Z</time>
      </trkpt>
      <trkpt lat="43.29704" lon="6.53328">
        <ele>188.4</ele>
        <time>2022-02-04T17:52:02Z</time>
      </trkpt>
      <trkpt lat="43.29703" lon="6.5333">
        <ele>188.4</ele>
        <time>2022-02-04T17:52:03Z</time>
      </trkpt>
      <trkpt lat="43.29701" lon="6.53332">
        <ele>188.4</ele>
        <time>2022-02-04T17:52:04Z</time>
      </trkpt>
      <trkpt lat="43.29698" lon="6.53335">
        <ele>188.4</ele>
        <time>2022-02-04T17:52:05Z</time>
      </trkpt>
      <trkpt lat="43.29694" lon="6.53336">
        <ele>188.4</ele>
        <time>2022-02-04T17:52:06Z</time>
      </trkpt>
      <trkpt lat="43.29691" lon="6.53338">
        <ele>188.4</ele>
        <time>2022-02-04T17:52:07Z</time>
      </trkpt>
      <trkpt lat="43.29689" lon="6.53341">
        <ele>188.2</ele>
        <time>2022-02-04T17:52:08Z</time>
      </trkpt>
      <trkpt lat="43.29686" lon="6.53343">
        <ele>188</ele>
        <time>2022-02-04T17:52:09Z</time>
      </trkpt>
      <trkpt lat="43.29682" lon="6.53343">
        <ele>187.8</ele>
        <time>2022-02-04T17:52:10Z</time>
      </trkpt>
      <trkpt lat="43.29678" lon="6.53343">
        <ele>187.6</ele>
        <time>2022-02-04T17:52:11Z</time>
      </trkpt>
      <trkpt lat="43.29675" lon="6.53343">
        <ele>187.6</ele>
        <time>2022-02-04T17:52:12Z</time>
      </trkpt>
      <trkpt lat="43.29671" lon="6.53341">
        <ele>187.2</ele>
        <time>2022-02-04T17:52:13Z</time>
      </trkpt>
      <trkpt lat="43.29667" lon="6.53339">
        <ele>186.6</ele>
        <time>2022-02-04T17:52:14Z</time>
      </trkpt>
      <trkpt lat="43.29663" lon="6.53336">
        <ele>185.6</ele>
        <time>2022-02-04T17:52:15Z</time>
      </trkpt>
      <trkpt lat="43.29661" lon="6.53336">
        <ele>185</ele>
        <time>2022-02-04T17:52:16Z</time>
      </trkpt>
      <trkpt lat="43.29656" lon="6.53335">
        <ele>183</ele>
        <time>2022-02-04T17:52:17Z</time>
      </trkpt>
      <trkpt lat="43.29652" lon="6.53332">
        <ele>181.8</ele>
        <time>2022-02-04T17:52:18Z</time>
      </trkpt>
      <trkpt lat="43.29649" lon="6.53331">
        <ele>180.4</ele>
        <time>2022-02-04T17:52:19Z</time>
      </trkpt>
      <trkpt lat="43.29646" lon="6.5333">
        <ele>179.6</ele>
        <time>2022-02-04T17:52:20Z</time>
      </trkpt>
      <trkpt lat="43.29642" lon="6.53329">
        <ele>178.4</ele>
        <time>2022-02-04T17:52:21Z</time>
      </trkpt>
      <trkpt lat="43.29639" lon="6.53326">
        <ele>177.8</ele>
        <time>2022-02-04T17:52:22Z</time>
      </trkpt>
      <trkpt lat="43.29636" lon="6.53323">
        <ele>176.6</ele>
        <time>2022-02-04T17:52:23Z</time>
      </trkpt>
      <trkpt lat="43.29633" lon="6.53322">
        <ele>174.8</ele>
        <time>2022-02-04T17:52:24Z</time>
      </trkpt>
      <trkpt lat="43.29629" lon="6.53324">
        <ele>173.2</ele>
        <time>2022-02-04T17:52:25Z</time>
      </trkpt>
      <trkpt lat="43.29626" lon="6.53327">
        <ele>172.4</ele>
        <time>2022-02-04T17:52:26Z</time>
      </trkpt>
      <trkpt lat="43.29622" lon="6.53331">
        <ele>171.8</ele>
        <time>2022-02-04T17:52:27Z</time>
      </trkpt>
      <trkpt lat="43.29617" lon="6.53333">
        <ele>171.4</ele>
        <time>2022-02-04T17:52:28Z</time>
      </trkpt>
      <trkpt lat="43.29614" lon="6.53332">
        <ele>170.6</ele>
        <time>2022-02-04T17:52:29Z</time>
      </trkpt>
      <trkpt lat="43.29612" lon="6.53328">
        <ele>170.2</ele>
        <time>2022-02-04T17:52:30Z</time>
      </trkpt>
      <trkpt lat="43.29609" lon="6.53325">
        <ele>169.2</ele>
        <time>2022-02-04T17:52:31Z</time>
      </trkpt>
      <trkpt lat="43.29606" lon="6.53323">
        <ele>168.6</ele>
        <time>2022-02-04T17:52:32Z</time>
      </trkpt>
      <trkpt lat="43.29603" lon="6.5332">
        <ele>167.8</ele>
        <time>2022-02-04T17:52:33Z</time>
      </trkpt>
      <trkpt lat="43.29599" lon="6.53321">
        <ele>167.2</ele>
        <time>2022-02-04T17:52:34Z</time>
      </trkpt>
      <trkpt lat="43.29594" lon="6.53322">
        <ele>166.6</ele>
        <time>2022-02-04T17:52:35Z</time>
      </trkpt>
      <trkpt lat="43.29589" lon="6.53321">
        <ele>165.6</ele>
        <time>2022-02-04T17:52:36Z</time>
      </trkpt>
      <trkpt lat="43.29583" lon="6.53319">
        <ele>164.8</ele>
        <time>2022-02-04T17:52:37Z</time>
      </trkpt>
      <trkpt lat="43.29577" lon="6.53316">
        <ele>164.2</ele>
        <time>2022-02-04T17:52:38Z</time>
      </trkpt>
      <trkpt lat="43.29572" lon="6.53314">
        <ele>163.8</ele>
        <time>2022-02-04T17:52:39Z</time>
      </trkpt>
      <trkpt lat="43.29571" lon="6.53311">
        <ele>163.4</ele>
        <time>2022-02-04T17:52:40Z</time>
      </trkpt>
      <trkpt lat="43.29572" lon="6.53309">
        <ele>163.2</ele>
        <time>2022-02-04T17:52:41Z</time>
      </trkpt>
      <trkpt lat="43.29573" lon="6.53308">
        <ele>162.6</ele>
        <time>2022-02-04T17:52:42Z</time>
      </trkpt>
      <trkpt lat="43.29574" lon="6.53306">
        <ele>162.2</ele>
        <time>2022-02-04T17:52:43Z</time>
      </trkpt>
      <trkpt lat="43.29575" lon="6.53304">
        <ele>161.8</ele>
        <time>2022-02-04T17:52:44Z</time>
      </trkpt>
      <trkpt lat="43.29575" lon="6.533">
        <ele>161.4</ele>
        <time>2022-02-04T17:52:45Z</time>
      </trkpt>
      <trkpt lat="43.29576" lon="6.53296">
        <ele>160.8</ele>
        <time>2022-02-04T17:52:46Z</time>
      </trkpt>
      <trkpt lat="43.29579" lon="6.53293">
        <ele>160.4</ele>
        <time>2022-02-04T17:52:47Z</time>
      </trkpt>
      <trkpt lat="43.29583" lon="6.5329">
        <ele>159.6</ele>
        <time>2022-02-04T17:52:48Z</time>
      </trkpt>
      <trkpt lat="43.29587" lon="6.53288">
        <ele>158.6</ele>
        <time>2022-02-04T17:52:49Z</time>
      </trkpt>
      <trkpt lat="43.2959" lon="6.53286">
        <ele>158</ele>
        <time>2022-02-04T17:52:50Z</time>
      </trkpt>
      <trkpt lat="43.29593" lon="6.53284">
        <ele>157.6</ele>
        <time>2022-02-04T17:52:51Z</time>
      </trkpt>
      <trkpt lat="43.29596" lon="6.53282">
        <ele>157.4</ele>
        <time>2022-02-04T17:52:52Z</time>
      </trkpt>
      <trkpt lat="43.29598" lon="6.5328">
        <ele>157.2</ele>
        <time>2022-02-04T17:52:53Z</time>
      </trkpt>
      <trkpt lat="43.296" lon="6.53277">
        <ele>157.2</ele>
        <time>2022-02-04T17:52:54Z</time>
      </trkpt>
      <trkpt lat="43.296" lon="6.53274">
        <ele>157</ele>
        <time>2022-02-04T17:52:55Z</time>
      </trkpt>
      <trkpt lat="43.29598" lon="6.53271">
        <ele>156.4</ele>
        <time>2022-02-04T17:52:56Z</time>
      </trkpt>
      <trkpt lat="43.29595" lon="6.53269">
        <ele>155.6</ele>
        <time>2022-02-04T17:52:57Z</time>
      </trkpt>
      <trkpt lat="43.29592" lon="6.53266">
        <ele>154.6</ele>
        <time>2022-02-04T17:52:58Z</time>
      </trkpt>
      <trkpt lat="43.2959" lon="6.53263">
        <ele>154.2</ele>
        <time>2022-02-04T17:52:59Z</time>
      </trkpt>
      <trkpt lat="43.29587" lon="6.53257">
        <ele>153.4</ele>
        <time>2022-02-04T17:53:00Z</time>
      </trkpt>
      <trkpt lat="43.29584" lon="6.53253">
        <ele>152.8</ele>
        <time>2022-02-04T17:53:01Z</time>
      </trkpt>
      <trkpt lat="43.2958" lon="6.53249">
        <ele>151.8</ele>
        <time>2022-02-04T17:53:02Z</time>
      </trkpt>
      <trkpt lat="43.29575" lon="6.53247">
        <ele>150.6</ele>
        <time>2022-02-04T17:53:03Z</time>
      </trkpt>
      <trkpt lat="43.2957" lon="6.53247">
        <ele>149.8</ele>
        <time>2022-02-04T17:53:04Z</time>
      </trkpt>
      <trkpt lat="43.29565" lon="6.53247">
        <ele>149</ele>
        <time>2022-02-04T17:53:05Z</time>
      </trkpt>
      <trkpt lat="43.2956" lon="6.53245">
        <ele>148.2</ele>
        <time>2022-02-04T17:53:06Z</time>
      </trkpt>
      <trkpt lat="43.29555" lon="6.53245">
        <ele>147.6</ele>
        <time>2022-02-04T17:53:07Z</time>
      </trkpt>
      <trkpt lat="43.2955" lon="6.53246">
        <ele>146.8</ele>
        <time>2022-02-04T17:53:08Z</time>
      </trkpt>
      <trkpt lat="43.29547" lon="6.53248">
        <ele>146</ele>
        <time>2022-02-04T17:53:09Z</time>
      </trkpt>
      <trkpt lat="43.29543" lon="6.53249">
        <ele>145.4</ele>
        <time>2022-02-04T17:53:10Z</time>
      </trkpt>
      <trkpt lat="43.29541" lon="6.53248">
        <ele>145.2</ele>
        <time>2022-02-04T17:53:11Z</time>
      </trkpt>
      <trkpt lat="43.29537" lon="6.53247">
        <ele>144.8</ele>
        <time>2022-02-04T17:53:12Z</time>
      </trkpt>
      <trkpt lat="43.29534" lon="6.53247">
        <ele>144.4</ele>
        <time>2022-02-04T17:53:13Z</time>
      </trkpt>
      <trkpt lat="43.2953" lon="6.53247">
        <ele>143.6</ele>
        <time>2022-02-04T17:53:14Z</time>
      </trkpt>
      <trkpt lat="43.29525" lon="6.53247">
        <ele>143.2</ele>
        <time>2022-02-04T17:53:15Z</time>
      </trkpt>
      <trkpt lat="43.29521" lon="6.53247">
        <ele>142.8</ele>
        <time>2022-02-04T17:53:16Z</time>
      </trkpt>
      <trkpt lat="43.29517" lon="6.53248">
        <ele>142.6</ele>
        <time>2022-02-04T17:53:17Z</time>
      </trkpt>
      <trkpt lat="43.29514" lon="6.5325">
        <ele>141.8</ele>
        <time>2022-02-04T17:53:18Z</time>
      </trkpt>
      <trkpt lat="43.2951" lon="6.53251">
        <ele>141.4</ele>
        <time>2022-02-04T17:53:19Z</time>
      </trkpt>
      <trkpt lat="43.29504" lon="6.53251">
        <ele>140.8</ele>
        <time>2022-02-04T17:53:20Z</time>
      </trkpt>
      <trkpt lat="43.29498" lon="6.53248">
        <ele>140</ele>
        <time>2022-02-04T17:53:21Z</time>
      </trkpt>
      <trkpt lat="43.29492" lon="6.53245">
        <ele>139.4</ele>
        <time>2022-02-04T17:53:22Z</time>
      </trkpt>
      <trkpt lat="43.29489" lon="6.53242">
        <ele>138.8</ele>
        <time>2022-02-04T17:53:23Z</time>
      </trkpt>
      <trkpt lat="43.29485" lon="6.53238">
        <ele>137.6</ele>
        <time>2022-02-04T17:53:24Z</time>
      </trkpt>
      <trkpt lat="43.2948" lon="6.53232">
        <ele>136.2</ele>
        <time>2022-02-04T17:53:25Z</time>
      </trkpt>
      <trkpt lat="43.29476" lon="6.53229">
        <ele>135.2</ele>
        <time>2022-02-04T17:53:26Z</time>
      </trkpt>
      <trkpt lat="43.29473" lon="6.53228">
        <ele>133.4</ele>
        <time>2022-02-04T17:53:27Z</time>
      </trkpt>
      <trkpt lat="43.29469" lon="6.53229">
        <ele>131.8</ele>
        <time>2022-02-04T17:53:28Z</time>
      </trkpt>
      <trkpt lat="43.29465" lon="6.53229">
        <ele>131.2</ele>
        <time>2022-02-04T17:53:29Z</time>
      </trkpt>
      <trkpt lat="43.29459" lon="6.5323">
        <ele>130.6</ele>
        <time>2022-02-04T17:53:30Z</time>
      </trkpt>
      <trkpt lat="43.29454" lon="6.5323">
        <ele>130.4</ele>
        <time>2022-02-04T17:53:31Z</time>
      </trkpt>
      <trkpt lat="43.29448" lon="6.53231">
        <ele>130.4</ele>
        <time>2022-02-04T17:53:32Z</time>
      </trkpt>
      <trkpt lat="43.29442" lon="6.53231">
        <ele>129.8</ele>
        <time>2022-02-04T17:53:33Z</time>
      </trkpt>
      <trkpt lat="43.29438" lon="6.53229">
        <ele>129.2</ele>
        <time>2022-02-04T17:53:34Z</time>
      </trkpt>
      <trkpt lat="43.2943" lon="6.53227">
        <ele>129</ele>
        <time>2022-02-04T17:53:35Z</time>
      </trkpt>
      <trkpt lat="43.29424" lon="6.53226">
        <ele>128.8</ele>
        <time>2022-02-04T17:53:36Z</time>
      </trkpt>
      <trkpt lat="43.29417" lon="6.53228">
        <ele>128.6</ele>
        <time>2022-02-04T17:53:37Z</time>
      </trkpt>
      <trkpt lat="43.29411" lon="6.5323">
        <ele>128.4</ele>
        <time>2022-02-04T17:53:38Z</time>
      </trkpt>
      <trkpt lat="43.29406" lon="6.53232">
        <ele>128.2</ele>
        <time>2022-02-04T17:53:39Z</time>
      </trkpt>
      <trkpt lat="43.29402" lon="6.53231">
        <ele>127.4</ele>
        <time>2022-02-04T17:53:40Z</time>
      </trkpt>
      <trkpt lat="43.29397" lon="6.53228">
        <ele>126.6</ele>
        <time>2022-02-04T17:53:41Z</time>
      </trkpt>
      <trkpt lat="43.29392" lon="6.53224">
        <ele>126.2</ele>
        <time>2022-02-04T17:53:42Z</time>
      </trkpt>
      <trkpt lat="43.29388" lon="6.5322">
        <ele>124.8</ele>
        <time>2022-02-04T17:53:43Z</time>
      </trkpt>
      <trkpt lat="43.29384" lon="6.53214">
        <ele>123.6</ele>
        <time>2022-02-04T17:53:44Z</time>
      </trkpt>
      <trkpt lat="43.29379" lon="6.53207">
        <ele>122</ele>
        <time>2022-02-04T17:53:45Z</time>
      </trkpt>
      <trkpt lat="43.29375" lon="6.53201">
        <ele>121</ele>
        <time>2022-02-04T17:53:46Z</time>
      </trkpt>
      <trkpt lat="43.29373" lon="6.53199">
        <ele>119</ele>
        <time>2022-02-04T17:53:47Z</time>
      </trkpt>
      <trkpt lat="43.29372" lon="6.53198">
        <ele>117.8</ele>
        <time>2022-02-04T17:53:48Z</time>
      </trkpt>
      <trkpt lat="43.29372" lon="6.53198">
        <ele>116.8</ele>
        <time>2022-02-04T17:53:49Z</time>
      </trkpt>
      <trkpt lat="43.29372" lon="6.53198">
        <ele>116.4</ele>
        <time>2022-02-04T17:53:50Z</time>
      </trkpt>
      <trkpt lat="43.29373" lon="6.53198">
        <ele>116</ele>
        <time>2022-02-04T17:53:51Z</time>
      </trkpt>
      <trkpt lat="43.29373" lon="6.53198">
        <ele>115.8</ele>
        <time>2022-02-04T17:53:52Z</time>
      </trkpt>
      <trkpt lat="43.29373" lon="6.53198">
        <ele>115.6</ele>
        <time>2022-02-04T17:53:53Z</time>
      </trkpt>
      <trkpt lat="43.29373" lon="6.53198">
        <ele>115.6</ele>
        <time>2022-02-04T17:53:54Z</time>
      </trkpt>
      <trkpt lat="43.29373" lon="6.53198">
        <ele>115.6</ele>
        <time>2022-02-04T17:53:55Z</time>
      </trkpt>
      <trkpt lat="43.29373" lon="6.53198">
        <ele>115.6</ele>
        <time>2022-02-04T17:53:56Z</time>
      </trkpt>
      <trkpt lat="43.29373" lon="6.53198">
        <ele>115.6</ele>
        <time>2022-02-04T17:53:57Z</time>
      </trkpt>
      <trkpt lat="43.29373" lon="6.53198">
        <ele>115.6</ele>
        <time>2022-02-04T17:53:58Z</time>
      </trkpt>
      <trkpt lat="43.29373" lon="6.53198">
        <ele>115.6</ele>
        <time>2022-02-04T17:53:59Z</time>
      </trkpt>
      <trkpt lat="43.29373" lon="6.53198">
        <ele>115.6</ele>
        <time>2022-02-04T17:54:00Z</time>
      </trkpt>
      <trkpt lat="43.29373" lon="6.53198">
        <ele>115.6</ele>
        <time>2022-02-04T17:54:01Z</time>
      </trkpt>
      <trkpt lat="43.29373" lon="6.53198">
        <ele>115.6</ele>
        <time>2022-02-04T17:54:02Z</time>
      </trkpt>
      <trkpt lat="43.29373" lon="6.53198">
        <ele>115.6</ele>
        <time>2022-02-04T17:54:03Z</time>
      </trkpt>
      <trkpt lat="43.29373" lon="6.53198">
        <ele>115.6</ele>
        <time>2022-02-04T17:54:04Z</time>
      </trkpt>
      <trkpt lat="43.29373" lon="6.53198">
        <ele>115.6</ele>
        <time>2022-02-04T17:54:05Z</time>
      </trkpt>
      <trkpt lat="43.29373" lon="6.53198">
        <ele>115.6</ele>
        <time>2022-02-04T17:54:06Z</time>
      </trkpt>
      <trkpt lat="43.29373" lon="6.53198">
        <ele>115.6</ele>
        <time>2022-02-04T17:54:07Z</time>
      </trkpt>
      <trkpt lat="43.29373" lon="6.53198">
        <ele>115.6</ele>
        <time>2022-02-04T17:54:08Z</time>
      </trkpt>
      <trkpt lat="43.29373" lon="6.53198">
        <ele>115.6</ele>
        <time>2022-02-04T17:54:09Z</time>
      </trkpt>
      <trkpt lat="43.29373" lon="6.53198">
        <ele>115.6</ele>
        <time>2022-02-04T17:54:10Z</time>
      </trkpt>
      <trkpt lat="43.29373" lon="6.53198">
        <ele>115.6</ele>
        <time>2022-02-04T17:54:11Z</time>
      </trkpt>
      <trkpt lat="43.29373" lon="6.53198">
        <ele>115.6</ele>
        <time>2022-02-04T17:54:12Z</time>
      </trkpt>
      <trkpt lat="43.29373" lon="6.53198">
        <ele>115.6</ele>
        <time>2022-02-04T17:54:13Z</time>
      </trkpt>
      <trkpt lat="43.29373" lon="6.53198">
        <ele>115.6</ele>
        <time>2022-02-04T17:54:14Z</time>
      </trkpt>
      <trkpt lat="43.29373" lon="6.53198">
        <ele>115.6</ele>
        <time>2022-02-04T17:54:15Z</time>
      </trkpt>
      <trkpt lat="43.29373" lon="6.53198">
        <ele>115.6</ele>
        <time>2022-02-04T17:54:16Z</time>
      </trkpt>
      <trkpt lat="43.29373" lon="6.53198">
        <ele>115.6</ele>
        <time>2022-02-04T17:54:17Z</time>
      </trkpt>
      <trkpt lat="43.29373" lon="6.53198">
        <ele>115.6</ele>
        <time>2022-02-04T17:54:18Z</time>
      </trkpt>
      <trkpt lat="43.29373" lon="6.53198">
        <ele>115.4</ele>
        <time>2022-02-04T17:54:19Z</time>
      </trkpt>
      <trkpt lat="43.29373" lon="6.53198">
        <ele>115.4</ele>
        <time>2022-02-04T17:54:20Z</time>
      </trkpt>
      <trkpt lat="43.29373" lon="6.53198">
        <ele>115.4</ele>
        <time>2022-02-04T17:54:21Z</time>
      </trkpt>
      <trkpt lat="43.29373" lon="6.53198">
        <ele>115.4</ele>
        <time>2022-02-04T17:54:22Z</time>
      </trkpt>
      <trkpt lat="43.29373" lon="6.53198">
        <ele>115.4</ele>
        <time>2022-02-04T17:54:23Z</time>
      </trkpt>
      <trkpt lat="43.29373" lon="6.53198">
        <ele>115.4</ele>
        <time>2022-02-04T17:54:24Z</time>
      </trkpt>
      <trkpt lat="43.29373" lon="6.53198">
        <ele>115.4</ele>
        <time>2022-02-04T17:54:25Z</time>
      </trkpt>
      <trkpt lat="43.29373" lon="6.53198">
        <ele>115.4</ele>
        <time>2022-02-04T17:54:26Z</time>
      </trkpt>
      <trkpt lat="43.29373" lon="6.53198">
        <ele>115.4</ele>
        <time>2022-02-04T17:54:27Z</time>
      </trkpt>
      <trkpt lat="43.29373" lon="6.53198">
        <ele>115.4</ele>
        <time>2022-02-04T17:54:28Z</time>
      </trkpt>
      <trkpt lat="43.29373" lon="6.53198">
        <ele>115.4</ele>
        <time>2022-02-04T17:54:29Z</time>
      </trkpt>
      <trkpt lat="43.29373" lon="6.53198">
        <ele>115.4</ele>
        <time>2022-02-04T17:54:30Z</time>
      </trkpt>
      <trkpt lat="43.29373" lon="6.53198">
        <ele>115.4</ele>
        <time>2022-02-04T17:54:31Z</time>
      </trkpt>
      <trkpt lat="43.29373" lon="6.53198">
        <ele>115.4</ele>
        <time>2022-02-04T17:54:32Z</time>
      </trkpt>
      <trkpt lat="43.29373" lon="6.53198">
        <ele>115.2</ele>
        <time>2022-02-04T17:54:33Z</time>
      </trkpt>
      <trkpt lat="43.29373" lon="6.53198">
        <ele>115.2</ele>
        <time>2022-02-04T17:54:34Z</time>
      </trkpt>
      <trkpt lat="43.29373" lon="6.53198">
        <ele>115.2</ele>
        <time>2022-02-04T17:54:35Z</time>
      </trkpt>
      <trkpt lat="43.29373" lon="6.53198">
        <ele>115.2</ele>
        <time>2022-02-04T17:54:36Z</time>
      </trkpt>
      <trkpt lat="43.29373" lon="6.53198">
        <ele>115</ele>
        <time>2022-02-04T17:54:37Z</time>
      </trkpt>
      <trkpt lat="43.29373" lon="6.53198">
        <ele>115</ele>
        <time>2022-02-04T17:54:38Z</time>
      </trkpt>
      <trkpt lat="43.29373" lon="6.53198">
        <ele>115</ele>
        <time>2022-02-04T17:54:39Z</time>
      </trkpt>
      <trkpt lat="43.29373" lon="6.53198">
        <ele>115</ele>
        <time>2022-02-04T17:54:40Z</time>
      </trkpt>
      <trkpt lat="43.29373" lon="6.53198">
        <ele>115</ele>
        <time>2022-02-04T17:54:41Z</time>
      </trkpt>
      <trkpt lat="43.29373" lon="6.53198">
        <ele>114.8</ele>
        <time>2022-02-04T17:54:42Z</time>
      </trkpt>
      <trkpt lat="43.29373" lon="6.53198">
        <ele>114.8</ele>
        <time>2022-02-04T17:54:43Z</time>
      </trkpt>
      <trkpt lat="43.29373" lon="6.53198">
        <ele>114.8</ele>
        <time>2022-02-04T17:54:44Z</time>
      </trkpt>
      <trkpt lat="43.29373" lon="6.53198">
        <ele>114.8</ele>
        <time>2022-02-04T17:54:45Z</time>
      </trkpt>
      <trkpt lat="43.29373" lon="6.53198">
        <ele>114.8</ele>
        <time>2022-02-04T17:54:46Z</time>
      </trkpt>
      <trkpt lat="43.29373" lon="6.53198">
        <ele>114.8</ele>
        <time>2022-02-04T17:54:47Z</time>
      </trkpt>
      <trkpt lat="43.29373" lon="6.53198">
        <ele>115</ele>
        <time>2022-02-04T17:54:48Z</time>
      </trkpt>
      <trkpt lat="43.29373" lon="6.53198">
        <ele>115</ele>
        <time>2022-02-04T17:54:49Z</time>
      </trkpt>
      <trkpt lat="43.29373" lon="6.53198">
        <ele>115</ele>
        <time>2022-02-04T17:54:50Z</time>
      </trkpt>
      <trkpt lat="43.29373" lon="6.53198">
        <ele>115</ele>
        <time>2022-02-04T17:54:51Z</time>
      </trkpt>
      <trkpt lat="43.29373" lon="6.53198">
        <ele>115</ele>
        <time>2022-02-04T17:54:52Z</time>
      </trkpt>
      <trkpt lat="43.29373" lon="6.53198">
        <ele>115</ele>
        <time>2022-02-04T17:54:53Z</time>
      </trkpt>
      <trkpt lat="43.29373" lon="6.53198">
        <ele>115</ele>
        <time>2022-02-04T17:54:54Z</time>
      </trkpt>
      <trkpt lat="43.29373" lon="6.53198">
        <ele>115</ele>
        <time>2022-02-04T17:54:55Z</time>
      </trkpt>
      <trkpt lat="43.29373" lon="6.53198">
        <ele>114.8</ele>
        <time>2022-02-04T17:54:56Z</time>
      </trkpt>
      <trkpt lat="43.29373" lon="6.53198">
        <ele>114.8</ele>
        <time>2022-02-04T17:54:57Z</time>
      </trkpt>
      <trkpt lat="43.29373" lon="6.53198">
        <ele>114.8</ele>
        <time>2022-02-04T17:54:58Z</time>
      </trkpt>
      <trkpt lat="43.29373" lon="6.53198">
        <ele>114.8</ele>
        <time>2022-02-04T17:54:59Z</time>
      </trkpt>
      <trkpt lat="43.29373" lon="6.53198">
        <ele>114.8</ele>
        <time>2022-02-04T17:55:00Z</time>
      </trkpt>
      <trkpt lat="43.29373" lon="6.53198">
        <ele>114.8</ele>
        <time>2022-02-04T17:55:01Z</time>
      </trkpt>
      <trkpt lat="43.29373" lon="6.53198">
        <ele>114.8</ele>
        <time>2022-02-04T17:55:02Z</time>
      </trkpt>
      <trkpt lat="43.29373" lon="6.53198">
        <ele>114.8</ele>
        <time>2022-02-04T17:55:03Z</time>
      </trkpt>
      <trkpt lat="43.29373" lon="6.53198">
        <ele>114.8</ele>
        <time>2022-02-04T17:55:04Z</time>
      </trkpt>
      <trkpt lat="43.29373" lon="6.53198">
        <ele>114.8</ele>
        <time>2022-02-04T17:55:05Z</time>
      </trkpt>
      <trkpt lat="43.29373" lon="6.53198">
        <ele>114.8</ele>
        <time>2022-02-04T17:55:06Z</time>
      </trkpt>
      <trkpt lat="43.29373" lon="6.53198">
        <ele>114.8</ele>
        <time>2022-02-04T17:55:07Z</time>
      </trkpt>
      <trkpt lat="43.29373" lon="6.53198">
        <ele>114.8</ele>
        <time>2022-02-04T17:55:08Z</time>
      </trkpt>
      <trkpt lat="43.29373" lon="6.53198">
        <ele>114.8</ele>
        <time>2022-02-04T17:55:09Z</time>
      </trkpt>
      <trkpt lat="43.29373" lon="6.53198">
        <ele>114.8</ele>
        <time>2022-02-04T17:55:10Z</time>
      </trkpt>
      <trkpt lat="43.29373" lon="6.53198">
        <ele>114.8</ele>
        <time>2022-02-04T17:55:11Z</time>
      </trkpt>
      <trkpt lat="43.29373" lon="6.53198">
        <ele>114.8</ele>
        <time>2022-02-04T17:55:12Z</time>
      </trkpt>
      <trkpt lat="43.29373" lon="6.53198">
        <ele>114.8</ele>
        <time>2022-02-04T17:55:13Z</time>
      </trkpt>
      <trkpt lat="43.29373" lon="6.53198">
        <ele>114.8</ele>
        <time>2022-02-04T17:55:14Z</time>
      </trkpt>
      <trkpt lat="43.29373" lon="6.53198">
        <ele>114.8</ele>
        <time>2022-02-04T17:55:15Z</time>
      </trkpt>
      <trkpt lat="43.29373" lon="6.53198">
        <ele>114.8</ele>
        <time>2022-02-04T17:55:16Z</time>
      </trkpt>
      <trkpt lat="43.29373" lon="6.53198">
        <ele>114.8</ele>
        <time>2022-02-04T17:55:17Z</time>
      </trkpt>
      <trkpt lat="43.29373" lon="6.53198">
        <ele>114.8</ele>
        <time>2022-02-04T17:55:18Z</time>
      </trkpt>
      <trkpt lat="43.29373" lon="6.53198">
        <ele>114.8</ele>
        <time>2022-02-04T17:55:19Z</time>
      </trkpt>
      <trkpt lat="43.29373" lon="6.53198">
        <ele>114.8</ele>
        <time>2022-02-04T17:55:20Z</time>
      </trkpt>
      <trkpt lat="43.29373" lon="6.53198">
        <ele>114.8</ele>
        <time>2022-02-04T17:55:21Z</time>
      </trkpt>
      <trkpt lat="43.29373" lon="6.53198">
        <ele>114.8</ele>
        <time>2022-02-04T17:55:22Z</time>
      </trkpt>
      <trkpt lat="43.29373" lon="6.53198">
        <ele>114.8</ele>
        <time>2022-02-04T17:55:23Z</time>
      </trkpt>
      <trkpt lat="43.29373" lon="6.53198">
        <ele>114.8</ele>
        <time>2022-02-04T17:55:24Z</time>
      </trkpt>
      <trkpt lat="43.29373" lon="6.53198">
        <ele>114.8</ele>
        <time>2022-02-04T17:55:25Z</time>
      </trkpt>
      <trkpt lat="43.29373" lon="6.53198">
        <ele>114.6</ele>
        <time>2022-02-04T17:55:26Z</time>
      </trkpt>
      <trkpt lat="43.29373" lon="6.53198">
        <ele>114.6</ele>
        <time>2022-02-04T17:55:27Z</time>
      </trkpt>
      <trkpt lat="43.29373" lon="6.53198">
        <ele>114.6</ele>
        <time>2022-02-04T17:55:28Z</time>
      </trkpt>
      <trkpt lat="43.29373" lon="6.53198">
        <ele>114.6</ele>
        <time>2022-02-04T17:55:29Z</time>
      </trkpt>
      <trkpt lat="43.29373" lon="6.53198">
        <ele>114.6</ele>
        <time>2022-02-04T17:55:30Z</time>
      </trkpt>
      <trkpt lat="43.29373" lon="6.53198">
        <ele>114.4</ele>
        <time>2022-02-04T17:55:31Z</time>
      </trkpt>
      <trkpt lat="43.29373" lon="6.53198">
        <ele>114.4</ele>
        <time>2022-02-04T17:55:32Z</time>
      </trkpt>
      <trkpt lat="43.29373" lon="6.53198">
        <ele>114.4</ele>
        <time>2022-02-04T17:55:33Z</time>
      </trkpt>
      <trkpt lat="43.29373" lon="6.53198">
        <ele>114.4</ele>
        <time>2022-02-04T17:55:34Z</time>
      </trkpt>
      <trkpt lat="43.29373" lon="6.53198">
        <ele>114.4</ele>
        <time>2022-02-04T17:55:35Z</time>
      </trkpt>
      <trkpt lat="43.29373" lon="6.53198">
        <ele>114.6</ele>
        <time>2022-02-04T17:55:36Z</time>
      </trkpt>
      <trkpt lat="43.29373" lon="6.53198">
        <ele>114.6</ele>
        <time>2022-02-04T17:55:37Z</time>
      </trkpt>
      <trkpt lat="43.29373" lon="6.53198">
        <ele>114.6</ele>
        <time>2022-02-04T17:55:38Z</time>
      </trkpt>
      <trkpt lat="43.29373" lon="6.53198">
        <ele>114.6</ele>
        <time>2022-02-04T17:55:39Z</time>
      </trkpt>
      <trkpt lat="43.29373" lon="6.53198">
        <ele>114.6</ele>
        <time>2022-02-04T17:55:40Z</time>
      </trkpt>
      <trkpt lat="43.29373" lon="6.53198">
        <ele>114.6</ele>
        <time>2022-02-04T17:55:41Z</time>
      </trkpt>
      <trkpt lat="43.29373" lon="6.53198">
        <ele>114.6</ele>
        <time>2022-02-04T17:55:42Z</time>
      </trkpt>
      <trkpt lat="43.29373" lon="6.53198">
        <ele>114.6</ele>
        <time>2022-02-04T17:55:43Z</time>
      </trkpt>
      <trkpt lat="43.29373" lon="6.53198">
        <ele>114.6</ele>
        <time>2022-02-04T17:55:44Z</time>
      </trkpt>
      <trkpt lat="43.29373" lon="6.53198">
        <ele>114.6</ele>
        <time>2022-02-04T17:55:45Z</time>
      </trkpt>
      <trkpt lat="43.29373" lon="6.53198">
        <ele>114.6</ele>
        <time>2022-02-04T17:55:46Z</time>
      </trkpt>
      <trkpt lat="43.29373" lon="6.53198">
        <ele>114.6</ele>
        <time>2022-02-04T17:55:47Z</time>
      </trkpt>
      <trkpt lat="43.29373" lon="6.53198">
        <ele>114.6</ele>
        <time>2022-02-04T17:55:48Z</time>
      </trkpt>
      <trkpt lat="43.29373" lon="6.53198">
        <ele>114.6</ele>
        <time>2022-02-04T17:55:49Z</time>
      </trkpt>
      <trkpt lat="43.29373" lon="6.53198">
        <ele>114.6</ele>
        <time>2022-02-04T17:55:50Z</time>
      </trkpt>
      <trkpt lat="43.29373" lon="6.53198">
        <ele>114.6</ele>
        <time>2022-02-04T17:55:51Z</time>
      </trkpt>
      <trkpt lat="43.29373" lon="6.53198">
        <ele>114.6</ele>
        <time>2022-02-04T17:55:52Z</time>
      </trkpt>
      <trkpt lat="43.29373" lon="6.53198">
        <ele>114.8</ele>
        <time>2022-02-04T17:55:53Z</time>
      </trkpt>
      <trkpt lat="43.29373" lon="6.53198">
        <ele>114.8</ele>
        <time>2022-02-04T17:55:54Z</time>
      </trkpt>
      <trkpt lat="43.29373" lon="6.53198">
        <ele>114.8</ele>
        <time>2022-02-04T17:55:55Z</time>
      </trkpt>
      <trkpt lat="43.29373" lon="6.53198">
        <ele>114.8</ele>
        <time>2022-02-04T17:55:56Z</time>
      </trkpt>
      <trkpt lat="43.29373" lon="6.53198">
        <ele>114.8</ele>
        <time>2022-02-04T17:55:57Z</time>
      </trkpt>
      <trkpt lat="43.29373" lon="6.53198">
        <ele>114.8</ele>
        <time>2022-02-04T17:55:58Z</time>
      </trkpt>
      <trkpt lat="43.29373" lon="6.53198">
        <ele>114.8</ele>
        <time>2022-02-04T17:55:59Z</time>
      </trkpt>
      <trkpt lat="43.29373" lon="6.53198">
        <ele>114.8</ele>
        <time>2022-02-04T17:56:00Z</time>
      </trkpt>
      <trkpt lat="43.29373" lon="6.53198">
        <ele>114.8</ele>
        <time>2022-02-04T17:56:01Z</time>
      </trkpt>
      <trkpt lat="43.29373" lon="6.53198">
        <ele>114.8</ele>
        <time>2022-02-04T17:56:02Z</time>
      </trkpt>
      <trkpt lat="43.29373" lon="6.53198">
        <ele>114.8</ele>
        <time>2022-02-04T17:56:03Z</time>
      </trkpt>
      <trkpt lat="43.29373" lon="6.53198">
        <ele>114.8</ele>
        <time>2022-02-04T17:56:04Z</time>
      </trkpt>
      <trkpt lat="43.29373" lon="6.53198">
        <ele>114.8</ele>
        <time>2022-02-04T17:56:05Z</time>
      </trkpt>
      <trkpt lat="43.29373" lon="6.53198">
        <ele>114.8</ele>
        <time>2022-02-04T17:56:06Z</time>
      </trkpt>
      <trkpt lat="43.29373" lon="6.53198">
        <ele>114.8</ele>
        <time>2022-02-04T17:56:07Z</time>
      </trkpt>
      <trkpt lat="43.29373" lon="6.53198">
        <ele>114.8</ele>
        <time>2022-02-04T17:56:08Z</time>
      </trkpt>
      <trkpt lat="43.29373" lon="6.53198">
        <ele>114.8</ele>
        <time>2022-02-04T17:56:09Z</time>
      </trkpt>
      <trkpt lat="43.29373" lon="6.53198">
        <ele>114.8</ele>
        <time>2022-02-04T17:56:10Z</time>
      </trkpt>
      <trkpt lat="43.29373" lon="6.53198">
        <ele>114.8</ele>
        <time>2022-02-04T17:56:11Z</time>
      </trkpt>
      <trkpt lat="43.29373" lon="6.53198">
        <ele>114.8</ele>
        <time>2022-02-04T17:56:12Z</time>
      </trkpt>
      <trkpt lat="43.29373" lon="6.53198">
        <ele>114.8</ele>
        <time>2022-02-04T17:56:13Z</time>
      </trkpt>
      <trkpt lat="43.29373" lon="6.53198">
        <ele>114.8</ele>
        <time>2022-02-04T17:56:14Z</time>
      </trkpt>
      <trkpt lat="43.29373" lon="6.53198">
        <ele>114.8</ele>
        <time>2022-02-04T17:56:15Z</time>
      </trkpt>
      <trkpt lat="43.29373" lon="6.53198">
        <ele>114.8</ele>
        <time>2022-02-04T17:56:16Z</time>
      </trkpt>
      <trkpt lat="43.29373" lon="6.53198">
        <ele>114.8</ele>
        <time>2022-02-04T17:56:17Z</time>
      </trkpt>
      <trkpt lat="43.29373" lon="6.53198">
        <ele>114.8</ele>
        <time>2022-02-04T17:56:18Z</time>
      </trkpt>
      <trkpt lat="43.29373" lon="6.53198">
        <ele>114.8</ele>
        <time>2022-02-04T17:56:19Z</time>
      </trkpt>
      <trkpt lat="43.29373" lon="6.53198">
        <ele>114.8</ele>
        <time>2022-02-04T17:56:20Z</time>
      </trkpt>
      <trkpt lat="43.29373" lon="6.53198">
        <ele>114.8</ele>
        <time>2022-02-04T17:56:21Z</time>
      </trkpt>
      <trkpt lat="43.29373" lon="6.53198">
        <ele>114.8</ele>
        <time>2022-02-04T17:56:22Z</time>
      </trkpt>
      <trkpt lat="43.29373" lon="6.53198">
        <ele>114.8</ele>
        <time>2022-02-04T17:56:23Z</time>
      </trkpt>
      <trkpt lat="43.29373" lon="6.53198">
        <ele>114.8</ele>
        <time>2022-02-04T17:56:24Z</time>
      </trkpt>
      <trkpt lat="43.29373" lon="6.53198">
        <ele>114.8</ele>
        <time>2022-02-04T17:56:25Z</time>
      </trkpt>
      <trkpt lat="43.29373" lon="6.53198">
        <ele>114.8</ele>
        <time>2022-02-04T17:56:26Z</time>
      </trkpt>
      <trkpt lat="43.29373" lon="6.53198">
        <ele>114.8</ele>
        <time>2022-02-04T17:56:27Z</time>
      </trkpt>
      <trkpt lat="43.29373" lon="6.53198">
        <ele>114.8</ele>
        <time>2022-02-04T17:56:28Z</time>
      </trkpt>
      <trkpt lat="43.29373" lon="6.53198">
        <ele>114.8</ele>
        <time>2022-02-04T17:56:29Z</time>
      </trkpt>
      <trkpt lat="43.29373" lon="6.53198">
        <ele>114.8</ele>
        <time>2022-02-04T17:56:30Z</time>
      </trkpt>
      <trkpt lat="43.29373" lon="6.53198">
        <ele>114.8</ele>
        <time>2022-02-04T17:56:31Z</time>
      </trkpt>
      <trkpt lat="43.29373" lon="6.53198">
        <ele>114.8</ele>
        <time>2022-02-04T17:56:32Z</time>
      </trkpt>
      <trkpt lat="43.29373" lon="6.53198">
        <ele>114.8</ele>
        <time>2022-02-04T17:56:33Z</time>
      </trkpt>
      <trkpt lat="43.29373" lon="6.53198">
        <ele>114.8</ele>
        <time>2022-02-04T17:56:34Z</time>
      </trkpt>
      <trkpt lat="43.29373" lon="6.53198">
        <ele>114.8</ele>
        <time>2022-02-04T17:56:35Z</time>
      </trkpt>
      <trkpt lat="43.29373" lon="6.53198">
        <ele>114.8</ele>
        <time>2022-02-04T17:56:36Z</time>
      </trkpt>
      <trkpt lat="43.29373" lon="6.53198">
        <ele>114.8</ele>
        <time>2022-02-04T17:56:37Z</time>
      </trkpt>
      <trkpt lat="43.29373" lon="6.53198">
        <ele>114.8</ele>
        <time>2022-02-04T17:56:38Z</time>
      </trkpt>
      <trkpt lat="43.29373" lon="6.53198">
        <ele>114.8</ele>
        <time>2022-02-04T17:56:39Z</time>
      </trkpt>
      <trkpt lat="43.29373" lon="6.53198">
        <ele>114.8</ele>
        <time>2022-02-04T17:56:40Z</time>
      </trkpt>
      <trkpt lat="43.29373" lon="6.53198">
        <ele>114.8</ele>
        <time>2022-02-04T17:56:41Z</time>
      </trkpt>
      <trkpt lat="43.29373" lon="6.53198">
        <ele>114.8</ele>
        <time>2022-02-04T17:56:42Z</time>
      </trkpt>
      <trkpt lat="43.29373" lon="6.53198">
        <ele>114.8</ele>
        <time>2022-02-04T17:56:43Z</time>
      </trkpt>
      <trkpt lat="43.29373" lon="6.53198">
        <ele>114.8</ele>
        <time>2022-02-04T17:56:44Z</time>
      </trkpt>
      <trkpt lat="43.29373" lon="6.53198">
        <ele>114.8</ele>
        <time>2022-02-04T17:56:45Z</time>
      </trkpt>
      <trkpt lat="43.29373" lon="6.53198">
        <ele>114.8</ele>
        <time>2022-02-04T17:56:46Z</time>
      </trkpt>
      <trkpt lat="43.29373" lon="6.53198">
        <ele>114.8</ele>
        <time>2022-02-04T17:56:47Z</time>
      </trkpt>
      <trkpt lat="43.29373" lon="6.53198">
        <ele>114.8</ele>
        <time>2022-02-04T17:56:48Z</time>
      </trkpt>
      <trkpt lat="43.29373" lon="6.53198">
        <ele>114.8</ele>
        <time>2022-02-04T17:56:49Z</time>
      </trkpt>
      <trkpt lat="43.29373" lon="6.53198">
        <ele>114.8</ele>
        <time>2022-02-04T17:56:50Z</time>
      </trkpt>
      <trkpt lat="43.29373" lon="6.53198">
        <ele>114.8</ele>
        <time>2022-02-04T17:56:51Z</time>
      </trkpt>
      <trkpt lat="43.29373" lon="6.53198">
        <ele>114.8</ele>
        <time>2022-02-04T17:56:52Z</time>
      </trkpt>
      <trkpt lat="43.29373" lon="6.53199">
        <ele>114.8</ele>
        <time>2022-02-04T17:56:53Z</time>
      </trkpt>
      <trkpt lat="43.29373" lon="6.53199">
        <ele>114.8</ele>
        <time>2022-02-04T17:56:54Z</time>
      </trkpt>
      <trkpt lat="43.29373" lon="6.53199">
        <ele>114.8</ele>
        <time>2022-02-04T17:56:55Z</time>
      </trkpt>
      <trkpt lat="43.29374" lon="6.53199">
        <ele>114.8</ele>
        <time>2022-02-04T17:56:56Z</time>
      </trkpt>
      <trkpt lat="43.29374" lon="6.53199">
        <ele>114.8</ele>
        <time>2022-02-04T17:56:57Z</time>
      </trkpt>
      <trkpt lat="43.29374" lon="6.53199">
        <ele>114.8</ele>
        <time>2022-02-04T17:56:58Z</time>
      </trkpt>
      <trkpt lat="43.29374" lon="6.53199">
        <ele>114.8</ele>
        <time>2022-02-04T17:56:59Z</time>
      </trkpt>
      <trkpt lat="43.29374" lon="6.53199">
        <ele>114.8</ele>
        <time>2022-02-04T17:57:00Z</time>
      </trkpt>
      <trkpt lat="43.29374" lon="6.53199">
        <ele>114.8</ele>
        <time>2022-02-04T17:57:01Z</time>
      </trkpt>
      <trkpt lat="43.29374" lon="6.53199">
        <ele>114.8</ele>
        <time>2022-02-04T17:57:02Z</time>
      </trkpt>
      <trkpt lat="43.29374" lon="6.53199">
        <ele>114.8</ele>
        <time>2022-02-04T17:57:03Z</time>
      </trkpt>
      <trkpt lat="43.29374" lon="6.53199">
        <ele>114.8</ele>
        <time>2022-02-04T17:57:04Z</time>
      </trkpt>
      <trkpt lat="43.29374" lon="6.53199">
        <ele>114.8</ele>
        <time>2022-02-04T17:57:05Z</time>
      </trkpt>
      <trkpt lat="43.29374" lon="6.53199">
        <ele>114.8</ele>
        <time>2022-02-04T17:57:06Z</time>
      </trkpt>
      <trkpt lat="43.29374" lon="6.53199">
        <ele>114.8</ele>
        <time>2022-02-04T17:57:07Z</time>
      </trkpt>
      <trkpt lat="43.29374" lon="6.53199">
        <ele>114.8</ele>
        <time>2022-02-04T17:57:08Z</time>
      </trkpt>
      <trkpt lat="43.29374" lon="6.53199">
        <ele>114.8</ele>
        <time>2022-02-04T17:57:09Z</time>
      </trkpt>
      <trkpt lat="43.29374" lon="6.53199">
        <ele>114.8</ele>
        <time>2022-02-04T17:57:10Z</time>
      </trkpt>
      <trkpt lat="43.29374" lon="6.53199">
        <ele>114.8</ele>
        <time>2022-02-04T17:57:11Z</time>
      </trkpt>
      <trkpt lat="43.29374" lon="6.53199">
        <ele>114.8</ele>
        <time>2022-02-04T17:57:12Z</time>
      </trkpt>
      <trkpt lat="43.29374" lon="6.53199">
        <ele>114.8</ele>
        <time>2022-02-04T17:57:13Z</time>
      </trkpt>
      <trkpt lat="43.29374" lon="6.53199">
        <ele>114.8</ele>
        <time>2022-02-04T17:57:14Z</time>
      </trkpt>
      <trkpt lat="43.29374" lon="6.53199">
        <ele>114.8</ele>
        <time>2022-02-04T17:57:15Z</time>
      </trkpt>
      <trkpt lat="43.29374" lon="6.53199">
        <ele>114.8</ele>
        <time>2022-02-04T17:57:16Z</time>
      </trkpt>
      <trkpt lat="43.29374" lon="6.53199">
        <ele>114.8</ele>
        <time>2022-02-04T17:57:17Z</time>
      </trkpt>
      <trkpt lat="43.29374" lon="6.53199">
        <ele>114.8</ele>
        <time>2022-02-04T17:57:18Z</time>
      </trkpt>
      <trkpt lat="43.29374" lon="6.53199">
        <ele>114.8</ele>
        <time>2022-02-04T17:57:19Z</time>
      </trkpt>
      <trkpt lat="43.29374" lon="6.53199">
        <ele>114.8</ele>
        <time>2022-02-04T17:57:20Z</time>
      </trkpt>
      <trkpt lat="43.29374" lon="6.53199">
        <ele>114.8</ele>
        <time>2022-02-04T17:57:21Z</time>
      </trkpt>
      <trkpt lat="43.29374" lon="6.53199">
        <ele>114.8</ele>
        <time>2022-02-04T17:57:22Z</time>
      </trkpt>
      <trkpt lat="43.29374" lon="6.53199">
        <ele>114.8</ele>
        <time>2022-02-04T17:57:23Z</time>
      </trkpt>
      <trkpt lat="43.29374" lon="6.53199">
        <ele>114.8</ele>
        <time>2022-02-04T17:57:24Z</time>
      </trkpt>
      <trkpt lat="43.29374" lon="6.53199">
        <ele>114.8</ele>
        <time>2022-02-04T17:57:25Z</time>
      </trkpt>
      <trkpt lat="43.29374" lon="6.53199">
        <ele>114.8</ele>
        <time>2022-02-04T17:57:26Z</time>
      </trkpt>
      <trkpt lat="43.29374" lon="6.53199">
        <ele>114.8</ele>
        <time>2022-02-04T17:57:27Z</time>
      </trkpt>
      <trkpt lat="43.29374" lon="6.53199">
        <ele>114.8</ele>
        <time>2022-02-04T17:57:28Z</time>
      </trkpt>
      <trkpt lat="43.29374" lon="6.53199">
        <ele>114.8</ele>
        <time>2022-02-04T17:57:29Z</time>
      </trkpt>
      <trkpt lat="43.29374" lon="6.53199">
        <ele>114.8</ele>
        <time>2022-02-04T17:57:30Z</time>
      </trkpt>
      <trkpt lat="43.29374" lon="6.53199">
        <ele>114.8</ele>
        <time>2022-02-04T17:57:31Z</time>
      </trkpt>
      <trkpt lat="43.29374" lon="6.53199">
        <ele>114.8</ele>
        <time>2022-02-04T17:57:32Z</time>
      </trkpt>
      <trkpt lat="43.29374" lon="6.53199">
        <ele>114.8</ele>
        <time>2022-02-04T17:57:33Z</time>
      </trkpt>
      <trkpt lat="43.29374" lon="6.53199">
        <ele>114.8</ele>
        <time>2022-02-04T17:57:34Z</time>
      </trkpt>
      <trkpt lat="43.29374" lon="6.53199">
        <ele>114.8</ele>
        <time>2022-02-04T17:57:35Z</time>
      </trkpt>
      <trkpt lat="43.29374" lon="6.53199">
        <ele>114.8</ele>
        <time>2022-02-04T17:57:36Z</time>
      </trkpt>
      <trkpt lat="43.29374" lon="6.53199">
        <ele>114.8</ele>
        <time>2022-02-04T17:57:37Z</time>
      </trkpt>
      <trkpt lat="43.29374" lon="6.53199">
        <ele>114.8</ele>
        <time>2022-02-04T17:57:38Z</time>
      </trkpt>
      <trkpt lat="43.29374" lon="6.53199">
        <ele>114.8</ele>
        <time>2022-02-04T17:57:39Z</time>
      </trkpt>
      <trkpt lat="43.29374" lon="6.53199">
        <ele>114.8</ele>
        <time>2022-02-04T17:57:40Z</time>
      </trkpt>
      <trkpt lat="43.29374" lon="6.53199">
        <ele>114.8</ele>
        <time>2022-02-04T17:57:41Z</time>
      </trkpt>
      <trkpt lat="43.29374" lon="6.53199">
        <ele>114.8</ele>
        <time>2022-02-04T17:57:42Z</time>
      </trkpt>
      <trkpt lat="43.29374" lon="6.53199">
        <ele>114.8</ele>
        <time>2022-02-04T17:57:43Z</time>
      </trkpt>
      <trkpt lat="43.29374" lon="6.53199">
        <ele>114.8</ele>
        <time>2022-02-04T17:57:44Z</time>
      </trkpt>
      <trkpt lat="43.29374" lon="6.53199">
        <ele>114.8</ele>
        <time>2022-02-04T17:57:45Z</time>
      </trkpt>
      <trkpt lat="43.29374" lon="6.53199">
        <ele>114.8</ele>
        <time>2022-02-04T17:57:46Z</time>
      </trkpt>
      <trkpt lat="43.29374" lon="6.53199">
        <ele>114.8</ele>
        <time>2022-02-04T17:57:47Z</time>
      </trkpt>
      <trkpt lat="43.29374" lon="6.53199">
        <ele>114.8</ele>
        <time>2022-02-04T17:57:48Z</time>
      </trkpt>
      <trkpt lat="43.29374" lon="6.53199">
        <ele>114.8</ele>
        <time>2022-02-04T17:57:49Z</time>
      </trkpt>
      <trkpt lat="43.29374" lon="6.53199">
        <ele>114.8</ele>
        <time>2022-02-04T17:57:50Z</time>
      </trkpt>
      <trkpt lat="43.29374" lon="6.53199">
        <ele>114.8</ele>
        <time>2022-02-04T17:57:51Z</time>
      </trkpt>
      <trkpt lat="43.29374" lon="6.53199">
        <ele>114.8</ele>
        <time>2022-02-04T17:57:52Z</time>
      </trkpt>
      <trkpt lat="43.29374" lon="6.53199">
        <ele>114.8</ele>
        <time>2022-02-04T17:57:53Z</time>
      </trkpt>
      <trkpt lat="43.29374" lon="6.53199">
        <ele>114.8</ele>
        <time>2022-02-04T17:57:54Z</time>
      </trkpt>
      <trkpt lat="43.29374" lon="6.53199">
        <ele>114.8</ele>
        <time>2022-02-04T17:57:55Z</time>
      </trkpt>
      <trkpt lat="43.29374" lon="6.53199">
        <ele>114.8</ele>
        <time>2022-02-04T17:57:56Z</time>
      </trkpt>
      <trkpt lat="43.29374" lon="6.53199">
        <ele>114.8</ele>
        <time>2022-02-04T17:57:57Z</time>
      </trkpt>
      <trkpt lat="43.29374" lon="6.53199">
        <ele>114.8</ele>
        <time>2022-02-04T17:57:58Z</time>
      </trkpt>
      <trkpt lat="43.29374" lon="6.53199">
        <ele>114.8</ele>
        <time>2022-02-04T17:57:59Z</time>
      </trkpt>
      <trkpt lat="43.29374" lon="6.53199">
        <ele>114.8</ele>
        <time>2022-02-04T17:58:00Z</time>
      </trkpt>
      <trkpt lat="43.29374" lon="6.53199">
        <ele>114.8</ele>
        <time>2022-02-04T17:58:01Z</time>
      </trkpt>
      <trkpt lat="43.29374" lon="6.53199">
        <ele>114.8</ele>
        <time>2022-02-04T17:58:02Z</time>
      </trkpt>
      <trkpt lat="43.29374" lon="6.53199">
        <ele>114.8</ele>
        <time>2022-02-04T17:58:03Z</time>
      </trkpt>
      <trkpt lat="43.29374" lon="6.53199">
        <ele>114.8</ele>
        <time>2022-02-04T17:58:04Z</time>
      </trkpt>
      <trkpt lat="43.29374" lon="6.53199">
        <ele>114.8</ele>
        <time>2022-02-04T17:58:05Z</time>
      </trkpt>
      <trkpt lat="43.29374" lon="6.53199">
        <ele>114.8</ele>
        <time>2022-02-04T17:58:06Z</time>
      </trkpt>
      <trkpt lat="43.29374" lon="6.53199">
        <ele>114.8</ele>
        <time>2022-02-04T17:58:07Z</time>
      </trkpt>
      <trkpt lat="43.29374" lon="6.53199">
        <ele>114.8</ele>
        <time>2022-02-04T17:58:08Z</time>
      </trkpt>
      <trkpt lat="43.29374" lon="6.53199">
        <ele>114.8</ele>
        <time>2022-02-04T17:58:09Z</time>
      </trkpt>
      <trkpt lat="43.29374" lon="6.53199">
        <ele>114.8</ele>
        <time>2022-02-04T17:58:10Z</time>
      </trkpt>
      <trkpt lat="43.29374" lon="6.53199">
        <ele>114.8</ele>
        <time>2022-02-04T17:58:11Z</time>
      </trkpt>
      <trkpt lat="43.29374" lon="6.53199">
        <ele>114.8</ele>
        <time>2022-02-04T17:58:12Z</time>
      </trkpt>
      <trkpt lat="43.29374" lon="6.53199">
        <ele>114.8</ele>
        <time>2022-02-04T17:58:13Z</time>
      </trkpt>
      <trkpt lat="43.29374" lon="6.53199">
        <ele>114.8</ele>
        <time>2022-02-04T17:58:14Z</time>
      </trkpt>
      <trkpt lat="43.29374" lon="6.53199">
        <ele>114.8</ele>
        <time>2022-02-04T17:58:15Z</time>
      </trkpt>
      <trkpt lat="43.29374" lon="6.53199">
        <ele>114.8</ele>
        <time>2022-02-04T17:58:16Z</time>
      </trkpt>
      <trkpt lat="43.29374" lon="6.53199">
        <ele>114.8</ele>
        <time>2022-02-04T17:58:17Z</time>
      </trkpt>
      <trkpt lat="43.29374" lon="6.53199">
        <ele>114.8</ele>
        <time>2022-02-04T17:58:18Z</time>
      </trkpt>
      <trkpt lat="43.29374" lon="6.53199">
        <ele>114.8</ele>
        <time>2022-02-04T17:58:19Z</time>
      </trkpt>
      <trkpt lat="43.29374" lon="6.53199">
        <ele>114.8</ele>
        <time>2022-02-04T17:58:20Z</time>
      </trkpt>
      <trkpt lat="43.29374" lon="6.53199">
        <ele>114.8</ele>
        <time>2022-02-04T17:58:21Z</time>
      </trkpt>
      <trkpt lat="43.29374" lon="6.53199">
        <ele>114.8</ele>
        <time>2022-02-04T17:58:22Z</time>
      </trkpt>
      <trkpt lat="43.29374" lon="6.53199">
        <ele>114.8</ele>
        <time>2022-02-04T17:58:23Z</time>
      </trkpt>
      <trkpt lat="43.29374" lon="6.53199">
        <ele>114.8</ele>
        <time>2022-02-04T17:58:24Z</time>
      </trkpt>
      <trkpt lat="43.29374" lon="6.53199">
        <ele>114.8</ele>
        <time>2022-02-04T17:58:25Z</time>
      </trkpt>
      <trkpt lat="43.29374" lon="6.53199">
        <ele>114.8</ele>
        <time>2022-02-04T17:58:26Z</time>
      </trkpt>
      <trkpt lat="43.29374" lon="6.53199">
        <ele>114.8</ele>
        <time>2022-02-04T17:58:27Z</time>
      </trkpt>
      <trkpt lat="43.29374" lon="6.53199">
        <ele>114.8</ele>
        <time>2022-02-04T17:58:28Z</time>
      </trkpt>
      <trkpt lat="43.29374" lon="6.53199">
        <ele>114.8</ele>
        <time>2022-02-04T17:58:29Z</time>
      </trkpt>
      <trkpt lat="43.29374" lon="6.53199">
        <ele>114.8</ele>
        <time>2022-02-04T17:58:30Z</time>
      </trkpt>
      <trkpt lat="43.29374" lon="6.53199">
        <ele>114.8</ele>
        <time>2022-02-04T17:58:31Z</time>
      </trkpt>
      <trkpt lat="43.29374" lon="6.53199">
        <ele>114.8</ele>
        <time>2022-02-04T17:58:32Z</time>
      </trkpt>
      <trkpt lat="43.29374" lon="6.53199">
        <ele>114.8</ele>
        <time>2022-02-04T17:58:33Z</time>
      </trkpt>
      <trkpt lat="43.29374" lon="6.53199">
        <ele>114.8</ele>
        <time>2022-02-04T17:58:34Z</time>
      </trkpt>
      <trkpt lat="43.29374" lon="6.53199">
        <ele>114.8</ele>
        <time>2022-02-04T17:58:35Z</time>
      </trkpt>
      <trkpt lat="43.29374" lon="6.53199">
        <ele>114.8</ele>
        <time>2022-02-04T17:58:36Z</time>
      </trkpt>
      <trkpt lat="43.29374" lon="6.53199">
        <ele>114.8</ele>
        <time>2022-02-04T17:58:37Z</time>
      </trkpt>
      <trkpt lat="43.29373" lon="6.53199">
        <ele>114.8</ele>
        <time>2022-02-04T17:58:38Z</time>
      </trkpt>
      <trkpt lat="43.29371" lon="6.53199">
        <ele>114.8</ele>
        <time>2022-02-04T17:58:39Z</time>
      </trkpt>
      <trkpt lat="43.29369" lon="6.532">
        <ele>114.8</ele>
        <time>2022-02-04T17:58:40Z</time>
      </trkpt>
      <trkpt lat="43.29365" lon="6.53201">
        <ele>114.8</ele>
        <time>2022-02-04T17:58:41Z</time>
      </trkpt>
      <trkpt lat="43.2936" lon="6.53202">
        <ele>114.8</ele>
        <time>2022-02-04T17:58:42Z</time>
      </trkpt>
      <trkpt lat="43.29355" lon="6.53201">
        <ele>114.6</ele>
        <time>2022-02-04T17:58:43Z</time>
      </trkpt>
      <trkpt lat="43.29348" lon="6.532">
        <ele>114.2</ele>
        <time>2022-02-04T17:58:44Z</time>
      </trkpt>
      <trkpt lat="43.29342" lon="6.53198">
        <ele>113.6</ele>
        <time>2022-02-04T17:58:45Z</time>
      </trkpt>
      <trkpt lat="43.29337" lon="6.53198">
        <ele>113.2</ele>
        <time>2022-02-04T17:58:46Z</time>
      </trkpt>
      <trkpt lat="43.29332" lon="6.53199">
        <ele>112.8</ele>
        <time>2022-02-04T17:58:47Z</time>
      </trkpt>
      <trkpt lat="43.29328" lon="6.53201">
        <ele>112.4</ele>
        <time>2022-02-04T17:58:48Z</time>
      </trkpt>
      <trkpt lat="43.29323" lon="6.53203">
        <ele>111.8</ele>
        <time>2022-02-04T17:58:49Z</time>
      </trkpt>
      <trkpt lat="43.29318" lon="6.53204">
        <ele>111.4</ele>
        <time>2022-02-04T17:58:50Z</time>
      </trkpt>
      <trkpt lat="43.29314" lon="6.53206">
        <ele>111</ele>
        <time>2022-02-04T17:58:51Z</time>
      </trkpt>
      <trkpt lat="43.2931" lon="6.53207">
        <ele>110.8</ele>
        <time>2022-02-04T17:58:52Z</time>
      </trkpt>
      <trkpt lat="43.29306" lon="6.53208">
        <ele>110.6</ele>
        <time>2022-02-04T17:58:53Z</time>
      </trkpt>
      <trkpt lat="43.29302" lon="6.53209">
        <ele>110.6</ele>
        <time>2022-02-04T17:58:54Z</time>
      </trkpt>
      <trkpt lat="43.29298" lon="6.5321">
        <ele>110.4</ele>
        <time>2022-02-04T17:58:55Z</time>
      </trkpt>
      <trkpt lat="43.29294" lon="6.53211">
        <ele>110.4</ele>
        <time>2022-02-04T17:58:56Z</time>
      </trkpt>
      <trkpt lat="43.2929" lon="6.53213">
        <ele>110.4</ele>
        <time>2022-02-04T17:58:57Z</time>
      </trkpt>
      <trkpt lat="43.29285" lon="6.53214">
        <ele>110.4</ele>
        <time>2022-02-04T17:58:58Z</time>
      </trkpt>
      <trkpt lat="43.29281" lon="6.53216">
        <ele>110.4</ele>
        <time>2022-02-04T17:58:59Z</time>
      </trkpt>
      <trkpt lat="43.29276" lon="6.53219">
        <ele>110.2</ele>
        <time>2022-02-04T17:59:00Z</time>
      </trkpt>
      <trkpt lat="43.29271" lon="6.5322">
        <ele>110.2</ele>
        <time>2022-02-04T17:59:01Z</time>
      </trkpt>
      <trkpt lat="43.29267" lon="6.53222">
        <ele>110</ele>
        <time>2022-02-04T17:59:02Z</time>
      </trkpt>
      <trkpt lat="43.29262" lon="6.53225">
        <ele>109.8</ele>
        <time>2022-02-04T17:59:03Z</time>
      </trkpt>
      <trkpt lat="43.29256" lon="6.53228">
        <ele>109.4</ele>
        <time>2022-02-04T17:59:04Z</time>
      </trkpt>
      <trkpt lat="43.29251" lon="6.53233">
        <ele>109.2</ele>
        <time>2022-02-04T17:59:05Z</time>
      </trkpt>
      <trkpt lat="43.29246" lon="6.53238">
        <ele>109</ele>
        <time>2022-02-04T17:59:06Z</time>
      </trkpt>
      <trkpt lat="43.29241" lon="6.53243">
        <ele>108.6</ele>
        <time>2022-02-04T17:59:07Z</time>
      </trkpt>
      <trkpt lat="43.29237" lon="6.53249">
        <ele>108.2</ele>
        <time>2022-02-04T17:59:08Z</time>
      </trkpt>
      <trkpt lat="43.29233" lon="6.53254">
        <ele>108.2</ele>
        <time>2022-02-04T17:59:09Z</time>
      </trkpt>
      <trkpt lat="43.29228" lon="6.53258">
        <ele>108</ele>
        <time>2022-02-04T17:59:10Z</time>
      </trkpt>
      <trkpt lat="43.29224" lon="6.53263">
        <ele>108</ele>
        <time>2022-02-04T17:59:11Z</time>
      </trkpt>
      <trkpt lat="43.2922" lon="6.53266">
        <ele>108</ele>
        <time>2022-02-04T17:59:12Z</time>
      </trkpt>
      <trkpt lat="43.29217" lon="6.53271">
        <ele>108</ele>
        <time>2022-02-04T17:59:13Z</time>
      </trkpt>
      <trkpt lat="43.29213" lon="6.53276">
        <ele>108</ele>
        <time>2022-02-04T17:59:14Z</time>
      </trkpt>
      <trkpt lat="43.2921" lon="6.5328">
        <ele>108.2</ele>
        <time>2022-02-04T17:59:15Z</time>
      </trkpt>
      <trkpt lat="43.29207" lon="6.53286">
        <ele>108.2</ele>
        <time>2022-02-04T17:59:16Z</time>
      </trkpt>
      <trkpt lat="43.29205" lon="6.53291">
        <ele>108.2</ele>
        <time>2022-02-04T17:59:17Z</time>
      </trkpt>
      <trkpt lat="43.29202" lon="6.53297">
        <ele>108.2</ele>
        <time>2022-02-04T17:59:18Z</time>
      </trkpt>
      <trkpt lat="43.292" lon="6.53304">
        <ele>108.2</ele>
        <time>2022-02-04T17:59:19Z</time>
      </trkpt>
      <trkpt lat="43.29198" lon="6.5331">
        <ele>108.2</ele>
        <time>2022-02-04T17:59:20Z</time>
      </trkpt>
      <trkpt lat="43.29194" lon="6.53316">
        <ele>108.2</ele>
        <time>2022-02-04T17:59:21Z</time>
      </trkpt>
      <trkpt lat="43.2919" lon="6.53322">
        <ele>108</ele>
        <time>2022-02-04T17:59:22Z</time>
      </trkpt>
      <trkpt lat="43.29186" lon="6.53328">
        <ele>107.6</ele>
        <time>2022-02-04T17:59:23Z</time>
      </trkpt>
      <trkpt lat="43.29181" lon="6.53333">
        <ele>107.4</ele>
        <time>2022-02-04T17:59:24Z</time>
      </trkpt>
      <trkpt lat="43.29177" lon="6.53338">
        <ele>107</ele>
        <time>2022-02-04T17:59:25Z</time>
      </trkpt>
      <trkpt lat="43.29172" lon="6.53341">
        <ele>106.8</ele>
        <time>2022-02-04T17:59:26Z</time>
      </trkpt>
      <trkpt lat="43.29167" lon="6.53344">
        <ele>106.6</ele>
        <time>2022-02-04T17:59:27Z</time>
      </trkpt>
      <trkpt lat="43.29163" lon="6.53346">
        <ele>106.6</ele>
        <time>2022-02-04T17:59:28Z</time>
      </trkpt>
      <trkpt lat="43.29159" lon="6.53348">
        <ele>106.6</ele>
        <time>2022-02-04T17:59:29Z</time>
      </trkpt>
      <trkpt lat="43.29155" lon="6.5335">
        <ele>106.6</ele>
        <time>2022-02-04T17:59:30Z</time>
      </trkpt>
      <trkpt lat="43.29151" lon="6.53353">
        <ele>106.8</ele>
        <time>2022-02-04T17:59:31Z</time>
      </trkpt>
      <trkpt lat="43.29147" lon="6.53355">
        <ele>107</ele>
        <time>2022-02-04T17:59:32Z</time>
      </trkpt>
      <trkpt lat="43.29144" lon="6.53358">
        <ele>107.2</ele>
        <time>2022-02-04T17:59:33Z</time>
      </trkpt>
      <trkpt lat="43.2914" lon="6.53361">
        <ele>107.2</ele>
        <time>2022-02-04T17:59:34Z</time>
      </trkpt>
      <trkpt lat="43.29137" lon="6.53364">
        <ele>107.6</ele>
        <time>2022-02-04T17:59:35Z</time>
      </trkpt>
      <trkpt lat="43.29133" lon="6.53367">
        <ele>107.6</ele>
        <time>2022-02-04T17:59:36Z</time>
      </trkpt>
      <trkpt lat="43.29131" lon="6.5337">
        <ele>107.8</ele>
        <time>2022-02-04T17:59:37Z</time>
      </trkpt>
      <trkpt lat="43.29128" lon="6.53373">
        <ele>107.8</ele>
        <time>2022-02-04T17:59:38Z</time>
      </trkpt>
      <trkpt lat="43.29125" lon="6.53376">
        <ele>107.8</ele>
        <time>2022-02-04T17:59:39Z</time>
      </trkpt>
      <trkpt lat="43.29122" lon="6.5338">
        <ele>107.8</ele>
        <time>2022-02-04T17:59:40Z</time>
      </trkpt>
      <trkpt lat="43.29119" lon="6.53383">
        <ele>107.8</ele>
        <time>2022-02-04T17:59:41Z</time>
      </trkpt>
      <trkpt lat="43.29116" lon="6.53386">
        <ele>107.8</ele>
        <time>2022-02-04T17:59:42Z</time>
      </trkpt>
      <trkpt lat="43.29113" lon="6.53389">
        <ele>107.8</ele>
        <time>2022-02-04T17:59:43Z</time>
      </trkpt>
      <trkpt lat="43.2911" lon="6.53393">
        <ele>107.8</ele>
        <time>2022-02-04T17:59:44Z</time>
      </trkpt>
      <trkpt lat="43.29107" lon="6.53396">
        <ele>107.8</ele>
        <time>2022-02-04T17:59:45Z</time>
      </trkpt>
      <trkpt lat="43.29104" lon="6.53399">
        <ele>107.8</ele>
        <time>2022-02-04T17:59:46Z</time>
      </trkpt>
      <trkpt lat="43.29101" lon="6.53403">
        <ele>107.6</ele>
        <time>2022-02-04T17:59:47Z</time>
      </trkpt>
      <trkpt lat="43.29099" lon="6.53406">
        <ele>107.4</ele>
        <time>2022-02-04T17:59:48Z</time>
      </trkpt>
      <trkpt lat="43.29096" lon="6.5341">
        <ele>107.4</ele>
        <time>2022-02-04T17:59:49Z</time>
      </trkpt>
      <trkpt lat="43.29093" lon="6.53413">
        <ele>107.4</ele>
        <time>2022-02-04T17:59:50Z</time>
      </trkpt>
      <trkpt lat="43.2909" lon="6.53417">
        <ele>107.4</ele>
        <time>2022-02-04T17:59:51Z</time>
      </trkpt>
      <trkpt lat="43.29087" lon="6.53419">
        <ele>107.2</ele>
        <time>2022-02-04T17:59:52Z</time>
      </trkpt>
      <trkpt lat="43.29084" lon="6.53421">
        <ele>107.2</ele>
        <time>2022-02-04T17:59:53Z</time>
      </trkpt>
      <trkpt lat="43.29079" lon="6.53423">
        <ele>107.2</ele>
        <time>2022-02-04T17:59:54Z</time>
      </trkpt>
      <trkpt lat="43.29075" lon="6.53425">
        <ele>107</ele>
        <time>2022-02-04T17:59:55Z</time>
      </trkpt>
      <trkpt lat="43.29072" lon="6.53426">
        <ele>107</ele>
        <time>2022-02-04T17:59:56Z</time>
      </trkpt>
      <trkpt lat="43.29068" lon="6.53428">
        <ele>107</ele>
        <time>2022-02-04T17:59:57Z</time>
      </trkpt>
      <trkpt lat="43.29065" lon="6.5343">
        <ele>106.8</ele>
        <time>2022-02-04T17:59:58Z</time>
      </trkpt>
      <trkpt lat="43.29062" lon="6.53432">
        <ele>106.6</ele>
        <time>2022-02-04T17:59:59Z</time>
      </trkpt>
      <trkpt lat="43.29059" lon="6.53435">
        <ele>106</ele>
        <time>2022-02-04T18:00:00Z</time>
      </trkpt>
      <trkpt lat="43.29058" lon="6.53436">
        <ele>105.8</ele>
        <time>2022-02-04T18:00:01Z</time>
      </trkpt>
      <trkpt lat="43.29057" lon="6.53437">
        <ele>105.6</ele>
        <time>2022-02-04T18:00:02Z</time>
      </trkpt>
      <trkpt lat="43.29056" lon="6.53439">
        <ele>105.4</ele>
        <time>2022-02-04T18:00:03Z</time>
      </trkpt>
      <trkpt lat="43.29056" lon="6.5344">
        <ele>105.2</ele>
        <time>2022-02-04T18:00:04Z</time>
      </trkpt>
      <trkpt lat="43.29057" lon="6.53442">
        <ele>105</ele>
        <time>2022-02-04T18:00:05Z</time>
      </trkpt>
      <trkpt lat="43.29058" lon="6.53442">
        <ele>104.6</ele>
        <time>2022-02-04T18:00:06Z</time>
      </trkpt>
      <trkpt lat="43.29058" lon="6.53442">
        <ele>104.6</ele>
        <time>2022-02-04T18:00:07Z</time>
      </trkpt>
      <trkpt lat="43.29058" lon="6.53439">
        <ele>104.6</ele>
        <time>2022-02-04T18:00:08Z</time>
      </trkpt>
      <trkpt lat="43.29059" lon="6.53436">
        <ele>104.4</ele>
        <time>2022-02-04T18:00:09Z</time>
      </trkpt>
      <trkpt lat="43.29061" lon="6.53434">
        <ele>104.4</ele>
        <time>2022-02-04T18:00:10Z</time>
      </trkpt>
      <trkpt lat="43.29063" lon="6.53433">
        <ele>104.6</ele>
        <time>2022-02-04T18:00:11Z</time>
      </trkpt>
      <trkpt lat="43.29065" lon="6.53434">
        <ele>104.6</ele>
        <time>2022-02-04T18:00:12Z</time>
      </trkpt>
      <trkpt lat="43.29066" lon="6.53436">
        <ele>104.8</ele>
        <time>2022-02-04T18:00:13Z</time>
      </trkpt>
      <trkpt lat="43.29066" lon="6.5344">
        <ele>105</ele>
        <time>2022-02-04T18:00:14Z</time>
      </trkpt>
      <trkpt lat="43.29065" lon="6.53443">
        <ele>105.4</ele>
        <time>2022-02-04T18:00:15Z</time>
      </trkpt>
      <trkpt lat="43.29063" lon="6.53445">
        <ele>105.8</ele>
        <time>2022-02-04T18:00:16Z</time>
      </trkpt>
      <trkpt lat="43.29062" lon="6.53447">
        <ele>106</ele>
        <time>2022-02-04T18:00:17Z</time>
      </trkpt>
      <trkpt lat="43.2906" lon="6.53449">
        <ele>106.4</ele>
        <time>2022-02-04T18:00:18Z</time>
      </trkpt>
      <trkpt lat="43.29057" lon="6.53452">
        <ele>106.8</ele>
        <time>2022-02-04T18:00:19Z</time>
      </trkpt>
      <trkpt lat="43.29055" lon="6.53455">
        <ele>107</ele>
        <time>2022-02-04T18:00:20Z</time>
      </trkpt>
      <trkpt lat="43.29053" lon="6.53458">
        <ele>107.2</ele>
        <time>2022-02-04T18:00:21Z</time>
      </trkpt>
      <trkpt lat="43.2905" lon="6.53461">
        <ele>107.2</ele>
        <time>2022-02-04T18:00:22Z</time>
      </trkpt>
      <trkpt lat="43.29048" lon="6.53465">
        <ele>107.4</ele>
        <time>2022-02-04T18:00:23Z</time>
      </trkpt>
      <trkpt lat="43.29046" lon="6.53468">
        <ele>107.4</ele>
        <time>2022-02-04T18:00:24Z</time>
      </trkpt>
      <trkpt lat="43.29044" lon="6.53472">
        <ele>107.6</ele>
        <time>2022-02-04T18:00:25Z</time>
      </trkpt>
      <trkpt lat="43.29042" lon="6.53476">
        <ele>107.6</ele>
        <time>2022-02-04T18:00:26Z</time>
      </trkpt>
      <trkpt lat="43.2904" lon="6.5348">
        <ele>107.6</ele>
        <time>2022-02-04T18:00:27Z</time>
      </trkpt>
      <trkpt lat="43.29039" lon="6.53484">
        <ele>107.6</ele>
        <time>2022-02-04T18:00:28Z</time>
      </trkpt>
      <trkpt lat="43.29037" lon="6.53488">
        <ele>107.6</ele>
        <time>2022-02-04T18:00:29Z</time>
      </trkpt>
      <trkpt lat="43.29036" lon="6.5349">
        <ele>107.8</ele>
        <time>2022-02-04T18:00:30Z</time>
      </trkpt>
      <trkpt lat="43.29034" lon="6.53495">
        <ele>107.8</ele>
        <time>2022-02-04T18:00:31Z</time>
      </trkpt>
      <trkpt lat="43.29032" lon="6.53499">
        <ele>108</ele>
        <time>2022-02-04T18:00:32Z</time>
      </trkpt>
      <trkpt lat="43.29031" lon="6.53503">
        <ele>108.2</ele>
        <time>2022-02-04T18:00:33Z</time>
      </trkpt>
      <trkpt lat="43.2903" lon="6.53508">
        <ele>108.4</ele>
        <time>2022-02-04T18:00:34Z</time>
      </trkpt>
      <trkpt lat="43.29029" lon="6.53513">
        <ele>108.4</ele>
        <time>2022-02-04T18:00:35Z</time>
      </trkpt>
      <trkpt lat="43.29028" lon="6.53517">
        <ele>108.6</ele>
        <time>2022-02-04T18:00:36Z</time>
      </trkpt>
      <trkpt lat="43.29027" lon="6.53522">
        <ele>108.6</ele>
        <time>2022-02-04T18:00:37Z</time>
      </trkpt>
      <trkpt lat="43.29026" lon="6.53527">
        <ele>108.8</ele>
        <time>2022-02-04T18:00:38Z</time>
      </trkpt>
      <trkpt lat="43.29026" lon="6.53532">
        <ele>109</ele>
        <time>2022-02-04T18:00:39Z</time>
      </trkpt>
      <trkpt lat="43.29026" lon="6.53538">
        <ele>109.6</ele>
        <time>2022-02-04T18:00:40Z</time>
      </trkpt>
      <trkpt lat="43.29026" lon="6.53544">
        <ele>110</ele>
        <time>2022-02-04T18:00:41Z</time>
      </trkpt>
      <trkpt lat="43.29027" lon="6.53549">
        <ele>110.2</ele>
        <time>2022-02-04T18:00:42Z</time>
      </trkpt>
      <trkpt lat="43.29026" lon="6.53554">
        <ele>110.4</ele>
        <time>2022-02-04T18:00:43Z</time>
      </trkpt>
      <trkpt lat="43.29026" lon="6.53559">
        <ele>110.6</ele>
        <time>2022-02-04T18:00:44Z</time>
      </trkpt>
      <trkpt lat="43.29026" lon="6.53564">
        <ele>111</ele>
        <time>2022-02-04T18:00:45Z</time>
      </trkpt>
      <trkpt lat="43.29026" lon="6.53569">
        <ele>111.2</ele>
        <time>2022-02-04T18:00:46Z</time>
      </trkpt>
      <trkpt lat="43.29027" lon="6.53574">
        <ele>111.8</ele>
        <time>2022-02-04T18:00:47Z</time>
      </trkpt>
      <trkpt lat="43.29027" lon="6.53579">
        <ele>112.2</ele>
        <time>2022-02-04T18:00:48Z</time>
      </trkpt>
      <trkpt lat="43.29028" lon="6.53583">
        <ele>112.6</ele>
        <time>2022-02-04T18:00:49Z</time>
      </trkpt>
      <trkpt lat="43.29028" lon="6.53588">
        <ele>113</ele>
        <time>2022-02-04T18:00:50Z</time>
      </trkpt>
      <trkpt lat="43.29029" lon="6.53592">
        <ele>113.4</ele>
        <time>2022-02-04T18:00:51Z</time>
      </trkpt>
      <trkpt lat="43.29029" lon="6.53597">
        <ele>113.8</ele>
        <time>2022-02-04T18:00:52Z</time>
      </trkpt>
      <trkpt lat="43.2903" lon="6.53602">
        <ele>114.2</ele>
        <time>2022-02-04T18:00:53Z</time>
      </trkpt>
      <trkpt lat="43.2903" lon="6.53607">
        <ele>114.8</ele>
        <time>2022-02-04T18:00:54Z</time>
      </trkpt>
      <trkpt lat="43.2903" lon="6.53613">
        <ele>115</ele>
        <time>2022-02-04T18:00:55Z</time>
      </trkpt>
      <trkpt lat="43.29029" lon="6.53618">
        <ele>115.4</ele>
        <time>2022-02-04T18:00:56Z</time>
      </trkpt>
      <trkpt lat="43.29028" lon="6.53624">
        <ele>115.8</ele>
        <time>2022-02-04T18:00:57Z</time>
      </trkpt>
      <trkpt lat="43.29027" lon="6.53629">
        <ele>116.4</ele>
        <time>2022-02-04T18:00:58Z</time>
      </trkpt>
      <trkpt lat="43.29026" lon="6.53635">
        <ele>116.6</ele>
        <time>2022-02-04T18:00:59Z</time>
      </trkpt>
      <trkpt lat="43.29026" lon="6.5364">
        <ele>116.8</ele>
        <time>2022-02-04T18:01:00Z</time>
      </trkpt>
      <trkpt lat="43.29026" lon="6.53646">
        <ele>116.8</ele>
        <time>2022-02-04T18:01:01Z</time>
      </trkpt>
      <trkpt lat="43.29026" lon="6.53651">
        <ele>117.2</ele>
        <time>2022-02-04T18:01:02Z</time>
      </trkpt>
      <trkpt lat="43.29027" lon="6.53656">
        <ele>117.6</ele>
        <time>2022-02-04T18:01:03Z</time>
      </trkpt>
      <trkpt lat="43.29028" lon="6.53661">
        <ele>118</ele>
        <time>2022-02-04T18:01:04Z</time>
      </trkpt>
      <trkpt lat="43.29028" lon="6.53666">
        <ele>118.4</ele>
        <time>2022-02-04T18:01:05Z</time>
      </trkpt>
      <trkpt lat="43.29029" lon="6.53671">
        <ele>119</ele>
        <time>2022-02-04T18:01:06Z</time>
      </trkpt>
      <trkpt lat="43.29031" lon="6.53675">
        <ele>119.4</ele>
        <time>2022-02-04T18:01:07Z</time>
      </trkpt>
      <trkpt lat="43.29032" lon="6.53679">
        <ele>119.8</ele>
        <time>2022-02-04T18:01:08Z</time>
      </trkpt>
      <trkpt lat="43.29034" lon="6.53682">
        <ele>120.4</ele>
        <time>2022-02-04T18:01:09Z</time>
      </trkpt>
      <trkpt lat="43.29035" lon="6.53686">
        <ele>121.2</ele>
        <time>2022-02-04T18:01:10Z</time>
      </trkpt>
      <trkpt lat="43.29036" lon="6.5369">
        <ele>121.6</ele>
        <time>2022-02-04T18:01:11Z</time>
      </trkpt>
      <trkpt lat="43.29037" lon="6.53693">
        <ele>121.8</ele>
        <time>2022-02-04T18:01:12Z</time>
      </trkpt>
      <trkpt lat="43.29037" lon="6.53697">
        <ele>122.2</ele>
        <time>2022-02-04T18:01:13Z</time>
      </trkpt>
      <trkpt lat="43.29038" lon="6.53701">
        <ele>123</ele>
        <time>2022-02-04T18:01:14Z</time>
      </trkpt>
      <trkpt lat="43.29038" lon="6.53705">
        <ele>123.4</ele>
        <time>2022-02-04T18:01:15Z</time>
      </trkpt>
      <trkpt lat="43.29038" lon="6.53709">
        <ele>124.2</ele>
        <time>2022-02-04T18:01:16Z</time>
      </trkpt>
      <trkpt lat="43.29038" lon="6.53712">
        <ele>124.8</ele>
        <time>2022-02-04T18:01:17Z</time>
      </trkpt>
      <trkpt lat="43.29039" lon="6.53716">
        <ele>125.2</ele>
        <time>2022-02-04T18:01:18Z</time>
      </trkpt>
      <trkpt lat="43.29039" lon="6.5372">
        <ele>125.4</ele>
        <time>2022-02-04T18:01:19Z</time>
      </trkpt>
      <trkpt lat="43.29038" lon="6.53724">
        <ele>126</ele>
        <time>2022-02-04T18:01:20Z</time>
      </trkpt>
      <trkpt lat="43.29037" lon="6.53728">
        <ele>126.6</ele>
        <time>2022-02-04T18:01:21Z</time>
      </trkpt>
      <trkpt lat="43.29037" lon="6.53732">
        <ele>127</ele>
        <time>2022-02-04T18:01:22Z</time>
      </trkpt>
      <trkpt lat="43.29036" lon="6.53736">
        <ele>127.4</ele>
        <time>2022-02-04T18:01:23Z</time>
      </trkpt>
      <trkpt lat="43.29034" lon="6.5374">
        <ele>127.6</ele>
        <time>2022-02-04T18:01:24Z</time>
      </trkpt>
      <trkpt lat="43.29033" lon="6.53744">
        <ele>127.8</ele>
        <time>2022-02-04T18:01:25Z</time>
      </trkpt>
      <trkpt lat="43.29031" lon="6.53747">
        <ele>128.2</ele>
        <time>2022-02-04T18:01:26Z</time>
      </trkpt>
      <trkpt lat="43.2903" lon="6.53751">
        <ele>128.2</ele>
        <time>2022-02-04T18:01:27Z</time>
      </trkpt>
      <trkpt lat="43.29028" lon="6.53755">
        <ele>128.6</ele>
        <time>2022-02-04T18:01:28Z</time>
      </trkpt>
      <trkpt lat="43.29027" lon="6.53759">
        <ele>128.8</ele>
        <time>2022-02-04T18:01:29Z</time>
      </trkpt>
      <trkpt lat="43.29025" lon="6.53763">
        <ele>128.8</ele>
        <time>2022-02-04T18:01:30Z</time>
      </trkpt>
      <trkpt lat="43.29024" lon="6.53767">
        <ele>129</ele>
        <time>2022-02-04T18:01:31Z</time>
      </trkpt>
      <trkpt lat="43.29022" lon="6.53771">
        <ele>129.4</ele>
        <time>2022-02-04T18:01:32Z</time>
      </trkpt>
      <trkpt lat="43.29021" lon="6.53775">
        <ele>129.6</ele>
        <time>2022-02-04T18:01:33Z</time>
      </trkpt>
      <trkpt lat="43.2902" lon="6.53778">
        <ele>130</ele>
        <time>2022-02-04T18:01:34Z</time>
      </trkpt>
      <trkpt lat="43.29018" lon="6.53782">
        <ele>130.2</ele>
        <time>2022-02-04T18:01:35Z</time>
      </trkpt>
      <trkpt lat="43.29017" lon="6.53786">
        <ele>130.4</ele>
        <time>2022-02-04T18:01:36Z</time>
      </trkpt>
      <trkpt lat="43.29016" lon="6.5379">
        <ele>130.8</ele>
        <time>2022-02-04T18:01:37Z</time>
      </trkpt>
      <trkpt lat="43.29015" lon="6.53794">
        <ele>131.4</ele>
        <time>2022-02-04T18:01:38Z</time>
      </trkpt>
      <trkpt lat="43.29014" lon="6.53798">
        <ele>131.6</ele>
        <time>2022-02-04T18:01:39Z</time>
      </trkpt>
      <trkpt lat="43.29013" lon="6.53802">
        <ele>132.2</ele>
        <time>2022-02-04T18:01:40Z</time>
      </trkpt>
      <trkpt lat="43.29012" lon="6.53805">
        <ele>132.6</ele>
        <time>2022-02-04T18:01:41Z</time>
      </trkpt>
      <trkpt lat="43.29011" lon="6.53809">
        <ele>133</ele>
        <time>2022-02-04T18:01:42Z</time>
      </trkpt>
      <trkpt lat="43.2901" lon="6.53813">
        <ele>133.2</ele>
        <time>2022-02-04T18:01:43Z</time>
      </trkpt>
      <trkpt lat="43.29009" lon="6.53817">
        <ele>133.4</ele>
        <time>2022-02-04T18:01:44Z</time>
      </trkpt>
      <trkpt lat="43.29008" lon="6.53821">
        <ele>134</ele>
        <time>2022-02-04T18:01:45Z</time>
      </trkpt>
      <trkpt lat="43.29008" lon="6.53825">
        <ele>134.6</ele>
        <time>2022-02-04T18:01:46Z</time>
      </trkpt>
      <trkpt lat="43.29007" lon="6.53829">
        <ele>135</ele>
        <time>2022-02-04T18:01:47Z</time>
      </trkpt>
      <trkpt lat="43.29007" lon="6.53833">
        <ele>135.4</ele>
        <time>2022-02-04T18:01:48Z</time>
      </trkpt>
      <trkpt lat="43.29007" lon="6.53837">
        <ele>135.6</ele>
        <time>2022-02-04T18:01:49Z</time>
      </trkpt>
      <trkpt lat="43.29007" lon="6.53841">
        <ele>136.2</ele>
        <time>2022-02-04T18:01:50Z</time>
      </trkpt>
      <trkpt lat="43.29006" lon="6.53845">
        <ele>136.6</ele>
        <time>2022-02-04T18:01:51Z</time>
      </trkpt>
      <trkpt lat="43.29006" lon="6.53849">
        <ele>137</ele>
        <time>2022-02-04T18:01:52Z</time>
      </trkpt>
      <trkpt lat="43.29007" lon="6.53853">
        <ele>137.4</ele>
        <time>2022-02-04T18:01:53Z</time>
      </trkpt>
      <trkpt lat="43.29007" lon="6.53857">
        <ele>137.6</ele>
        <time>2022-02-04T18:01:54Z</time>
      </trkpt>
      <trkpt lat="43.29007" lon="6.53861">
        <ele>137.8</ele>
        <time>2022-02-04T18:01:55Z</time>
      </trkpt>
      <trkpt lat="43.29008" lon="6.53866">
        <ele>138</ele>
        <time>2022-02-04T18:01:56Z</time>
      </trkpt>
      <trkpt lat="43.29009" lon="6.5387">
        <ele>138.4</ele>
        <time>2022-02-04T18:01:57Z</time>
      </trkpt>
      <trkpt lat="43.2901" lon="6.53874">
        <ele>138.8</ele>
        <time>2022-02-04T18:01:58Z</time>
      </trkpt>
      <trkpt lat="43.29011" lon="6.53878">
        <ele>139.2</ele>
        <time>2022-02-04T18:01:59Z</time>
      </trkpt>
      <trkpt lat="43.29012" lon="6.53883">
        <ele>139.6</ele>
        <time>2022-02-04T18:02:00Z</time>
      </trkpt>
      <trkpt lat="43.29014" lon="6.53887">
        <ele>140</ele>
        <time>2022-02-04T18:02:01Z</time>
      </trkpt>
      <trkpt lat="43.29016" lon="6.53891">
        <ele>140.4</ele>
        <time>2022-02-04T18:02:02Z</time>
      </trkpt>
      <trkpt lat="43.29017" lon="6.53895">
        <ele>140.6</ele>
        <time>2022-02-04T18:02:03Z</time>
      </trkpt>
      <trkpt lat="43.29019" lon="6.53899">
        <ele>140.8</ele>
        <time>2022-02-04T18:02:04Z</time>
      </trkpt>
      <trkpt lat="43.2902" lon="6.53903">
        <ele>141.4</ele>
        <time>2022-02-04T18:02:05Z</time>
      </trkpt>
      <trkpt lat="43.29022" lon="6.53907">
        <ele>142</ele>
        <time>2022-02-04T18:02:06Z</time>
      </trkpt>
      <trkpt lat="43.29024" lon="6.53912">
        <ele>142.4</ele>
        <time>2022-02-04T18:02:07Z</time>
      </trkpt>
      <trkpt lat="43.29025" lon="6.53916">
        <ele>142.6</ele>
        <time>2022-02-04T18:02:08Z</time>
      </trkpt>
      <trkpt lat="43.29027" lon="6.5392">
        <ele>142.8</ele>
        <time>2022-02-04T18:02:09Z</time>
      </trkpt>
      <trkpt lat="43.29029" lon="6.53924">
        <ele>143.2</ele>
        <time>2022-02-04T18:02:10Z</time>
      </trkpt>
      <trkpt lat="43.2903" lon="6.53929">
        <ele>143.4</ele>
        <time>2022-02-04T18:02:11Z</time>
      </trkpt>
      <trkpt lat="43.29031" lon="6.53932">
        <ele>143.6</ele>
        <time>2022-02-04T18:02:12Z</time>
      </trkpt>
      <trkpt lat="43.29033" lon="6.53937">
        <ele>143.8</ele>
        <time>2022-02-04T18:02:13Z</time>
      </trkpt>
      <trkpt lat="43.29035" lon="6.53941">
        <ele>144</ele>
        <time>2022-02-04T18:02:14Z</time>
      </trkpt>
      <trkpt lat="43.29037" lon="6.53945">
        <ele>144</ele>
        <time>2022-02-04T18:02:15Z</time>
      </trkpt>
      <trkpt lat="43.29039" lon="6.53949">
        <ele>144.2</ele>
        <time>2022-02-04T18:02:16Z</time>
      </trkpt>
      <trkpt lat="43.29041" lon="6.53954">
        <ele>144.2</ele>
        <time>2022-02-04T18:02:17Z</time>
      </trkpt>
      <trkpt lat="43.29042" lon="6.53959">
        <ele>144.2</ele>
        <time>2022-02-04T18:02:18Z</time>
      </trkpt>
      <trkpt lat="43.29043" lon="6.53963">
        <ele>144.4</ele>
        <time>2022-02-04T18:02:19Z</time>
      </trkpt>
      <trkpt lat="43.29042" lon="6.53968">
        <ele>144.4</ele>
        <time>2022-02-04T18:02:20Z</time>
      </trkpt>
      <trkpt lat="43.29041" lon="6.53972">
        <ele>144.6</ele>
        <time>2022-02-04T18:02:21Z</time>
      </trkpt>
      <trkpt lat="43.29039" lon="6.53976">
        <ele>145</ele>
        <time>2022-02-04T18:02:22Z</time>
      </trkpt>
      <trkpt lat="43.29037" lon="6.53979">
        <ele>145.4</ele>
        <time>2022-02-04T18:02:23Z</time>
      </trkpt>
      <trkpt lat="43.29035" lon="6.53981">
        <ele>146.4</ele>
        <time>2022-02-04T18:02:24Z</time>
      </trkpt>
      <trkpt lat="43.29033" lon="6.53983">
        <ele>146.8</ele>
        <time>2022-02-04T18:02:25Z</time>
      </trkpt>
      <trkpt lat="43.2903" lon="6.53985">
        <ele>147.4</ele>
        <time>2022-02-04T18:02:26Z</time>
      </trkpt>
      <trkpt lat="43.29029" lon="6.53988">
        <ele>148</ele>
        <time>2022-02-04T18:02:27Z</time>
      </trkpt>
      <trkpt lat="43.29027" lon="6.53991">
        <ele>148.4</ele>
        <time>2022-02-04T18:02:28Z</time>
      </trkpt>
      <trkpt lat="43.29026" lon="6.53995">
        <ele>148.8</ele>
        <time>2022-02-04T18:02:29Z</time>
      </trkpt>
      <trkpt lat="43.29025" lon="6.53999">
        <ele>149.2</ele>
        <time>2022-02-04T18:02:30Z</time>
      </trkpt>
      <trkpt lat="43.29025" lon="6.54003">
        <ele>149.4</ele>
        <time>2022-02-04T18:02:31Z</time>
      </trkpt>
      <trkpt lat="43.29026" lon="6.54007">
        <ele>149.4</ele>
        <time>2022-02-04T18:02:32Z</time>
      </trkpt>
      <trkpt lat="43.29026" lon="6.54011">
        <ele>149.8</ele>
        <time>2022-02-04T18:02:33Z</time>
      </trkpt>
      <trkpt lat="43.29028" lon="6.54013">
        <ele>150.2</ele>
        <time>2022-02-04T18:02:34Z</time>
      </trkpt>
      <trkpt lat="43.2903" lon="6.54015">
        <ele>150.4</ele>
        <time>2022-02-04T18:02:35Z</time>
      </trkpt>
      <trkpt lat="43.29033" lon="6.54017">
        <ele>150.6</ele>
        <time>2022-02-04T18:02:36Z</time>
      </trkpt>
      <trkpt lat="43.29035" lon="6.5402">
        <ele>150.8</ele>
        <time>2022-02-04T18:02:37Z</time>
      </trkpt>
      <trkpt lat="43.29037" lon="6.54022">
        <ele>151</ele>
        <time>2022-02-04T18:02:38Z</time>
      </trkpt>
      <trkpt lat="43.29039" lon="6.54025">
        <ele>151.6</ele>
        <time>2022-02-04T18:02:39Z</time>
      </trkpt>
      <trkpt lat="43.29041" lon="6.54027">
        <ele>152</ele>
        <time>2022-02-04T18:02:40Z</time>
      </trkpt>
      <trkpt lat="43.29043" lon="6.5403">
        <ele>152.4</ele>
        <time>2022-02-04T18:02:41Z</time>
      </trkpt>
      <trkpt lat="43.29045" lon="6.54033">
        <ele>152.8</ele>
        <time>2022-02-04T18:02:42Z</time>
      </trkpt>
      <trkpt lat="43.29046" lon="6.54036">
        <ele>153</ele>
        <time>2022-02-04T18:02:43Z</time>
      </trkpt>
      <trkpt lat="43.29048" lon="6.54039">
        <ele>153.4</ele>
        <time>2022-02-04T18:02:44Z</time>
      </trkpt>
      <trkpt lat="43.2905" lon="6.54042">
        <ele>153.8</ele>
        <time>2022-02-04T18:02:45Z</time>
      </trkpt>
      <trkpt lat="43.29052" lon="6.54045">
        <ele>154</ele>
        <time>2022-02-04T18:02:46Z</time>
      </trkpt>
      <trkpt lat="43.29054" lon="6.54048">
        <ele>154.6</ele>
        <time>2022-02-04T18:02:47Z</time>
      </trkpt>
      <trkpt lat="43.29056" lon="6.54051">
        <ele>154.8</ele>
        <time>2022-02-04T18:02:48Z</time>
      </trkpt>
      <trkpt lat="43.29057" lon="6.54054">
        <ele>155.2</ele>
        <time>2022-02-04T18:02:49Z</time>
      </trkpt>
      <trkpt lat="43.29059" lon="6.54056">
        <ele>155.6</ele>
        <time>2022-02-04T18:02:50Z</time>
      </trkpt>
      <trkpt lat="43.29062" lon="6.54057">
        <ele>155.8</ele>
        <time>2022-02-04T18:02:51Z</time>
      </trkpt>
      <trkpt lat="43.29065" lon="6.54058">
        <ele>156</ele>
        <time>2022-02-04T18:02:52Z</time>
      </trkpt>
      <trkpt lat="43.29067" lon="6.54059">
        <ele>156.2</ele>
        <time>2022-02-04T18:02:53Z</time>
      </trkpt>
      <trkpt lat="43.2907" lon="6.5406">
        <ele>156.8</ele>
        <time>2022-02-04T18:02:54Z</time>
      </trkpt>
      <trkpt lat="43.29072" lon="6.54061">
        <ele>157.4</ele>
        <time>2022-02-04T18:02:55Z</time>
      </trkpt>
      <trkpt lat="43.29075" lon="6.54062">
        <ele>157.8</ele>
        <time>2022-02-04T18:02:56Z</time>
      </trkpt>
      <trkpt lat="43.29077" lon="6.54063">
        <ele>158.4</ele>
        <time>2022-02-04T18:02:57Z</time>
      </trkpt>
      <trkpt lat="43.2908" lon="6.54064">
        <ele>158.8</ele>
        <time>2022-02-04T18:02:58Z</time>
      </trkpt>
      <trkpt lat="43.29082" lon="6.54065">
        <ele>159.4</ele>
        <time>2022-02-04T18:02:59Z</time>
      </trkpt>
      <trkpt lat="43.29085" lon="6.54067">
        <ele>159.6</ele>
        <time>2022-02-04T18:03:00Z</time>
      </trkpt>
      <trkpt lat="43.29087" lon="6.54069">
        <ele>160</ele>
        <time>2022-02-04T18:03:01Z</time>
      </trkpt>
      <trkpt lat="43.29089" lon="6.54071">
        <ele>160.6</ele>
        <time>2022-02-04T18:03:02Z</time>
      </trkpt>
      <trkpt lat="43.29091" lon="6.54074">
        <ele>161.2</ele>
        <time>2022-02-04T18:03:03Z</time>
      </trkpt>
      <trkpt lat="43.29092" lon="6.54077">
        <ele>161.6</ele>
        <time>2022-02-04T18:03:04Z</time>
      </trkpt>
      <trkpt lat="43.29093" lon="6.5408">
        <ele>162</ele>
        <time>2022-02-04T18:03:05Z</time>
      </trkpt>
      <trkpt lat="43.29094" lon="6.54084">
        <ele>162.8</ele>
        <time>2022-02-04T18:03:06Z</time>
      </trkpt>
      <trkpt lat="43.29096" lon="6.54087">
        <ele>163.2</ele>
        <time>2022-02-04T18:03:07Z</time>
      </trkpt>
      <trkpt lat="43.29097" lon="6.5409">
        <ele>163.8</ele>
        <time>2022-02-04T18:03:08Z</time>
      </trkpt>
      <trkpt lat="43.29098" lon="6.54094">
        <ele>164.4</ele>
        <time>2022-02-04T18:03:09Z</time>
      </trkpt>
      <trkpt lat="43.29099" lon="6.54097">
        <ele>164.8</ele>
        <time>2022-02-04T18:03:10Z</time>
      </trkpt>
      <trkpt lat="43.291" lon="6.541">
        <ele>165</ele>
        <time>2022-02-04T18:03:11Z</time>
      </trkpt>
      <trkpt lat="43.29101" lon="6.54103">
        <ele>165.4</ele>
        <time>2022-02-04T18:03:12Z</time>
      </trkpt>
      <trkpt lat="43.29103" lon="6.54107">
        <ele>165.6</ele>
        <time>2022-02-04T18:03:13Z</time>
      </trkpt>
      <trkpt lat="43.29104" lon="6.54111">
        <ele>166</ele>
        <time>2022-02-04T18:03:14Z</time>
      </trkpt>
      <trkpt lat="43.29106" lon="6.54114">
        <ele>166.2</ele>
        <time>2022-02-04T18:03:15Z</time>
      </trkpt>
      <trkpt lat="43.29108" lon="6.54118">
        <ele>166.6</ele>
        <time>2022-02-04T18:03:16Z</time>
      </trkpt>
      <trkpt lat="43.29109" lon="6.54122">
        <ele>167</ele>
        <time>2022-02-04T18:03:17Z</time>
      </trkpt>
      <trkpt lat="43.29111" lon="6.54125">
        <ele>167.2</ele>
        <time>2022-02-04T18:03:18Z</time>
      </trkpt>
      <trkpt lat="43.29112" lon="6.54129">
        <ele>167.4</ele>
        <time>2022-02-04T18:03:19Z</time>
      </trkpt>
      <trkpt lat="43.29114" lon="6.54133">
        <ele>167.4</ele>
        <time>2022-02-04T18:03:20Z</time>
      </trkpt>
      <trkpt lat="43.29115" lon="6.54136">
        <ele>167.6</ele>
        <time>2022-02-04T18:03:21Z</time>
      </trkpt>
      <trkpt lat="43.29117" lon="6.5414">
        <ele>167.6</ele>
        <time>2022-02-04T18:03:22Z</time>
      </trkpt>
      <trkpt lat="43.2912" lon="6.54144">
        <ele>167.6</ele>
        <time>2022-02-04T18:03:23Z</time>
      </trkpt>
      <trkpt lat="43.29122" lon="6.54147">
        <ele>167.6</ele>
        <time>2022-02-04T18:03:24Z</time>
      </trkpt>
      <trkpt lat="43.29124" lon="6.5415">
        <ele>167.6</ele>
        <time>2022-02-04T18:03:25Z</time>
      </trkpt>
      <trkpt lat="43.29127" lon="6.54153">
        <ele>167.6</ele>
        <time>2022-02-04T18:03:26Z</time>
      </trkpt>
      <trkpt lat="43.29131" lon="6.54155">
        <ele>167.6</ele>
        <time>2022-02-04T18:03:27Z</time>
      </trkpt>
      <trkpt lat="43.29134" lon="6.54158">
        <ele>167.6</ele>
        <time>2022-02-04T18:03:28Z</time>
      </trkpt>
      <trkpt lat="43.29137" lon="6.54161">
        <ele>167.8</ele>
        <time>2022-02-04T18:03:29Z</time>
      </trkpt>
      <trkpt lat="43.29139" lon="6.54163">
        <ele>168</ele>
        <time>2022-02-04T18:03:30Z</time>
      </trkpt>
      <trkpt lat="43.29141" lon="6.54168">
        <ele>168.2</ele>
        <time>2022-02-04T18:03:31Z</time>
      </trkpt>
      <trkpt lat="43.29143" lon="6.54172">
        <ele>168.2</ele>
        <time>2022-02-04T18:03:32Z</time>
      </trkpt>
      <trkpt lat="43.29144" lon="6.54176">
        <ele>168.4</ele>
        <time>2022-02-04T18:03:33Z</time>
      </trkpt>
      <trkpt lat="43.29144" lon="6.54179">
        <ele>168.6</ele>
        <time>2022-02-04T18:03:34Z</time>
      </trkpt>
      <trkpt lat="43.29145" lon="6.54183">
        <ele>169.2</ele>
        <time>2022-02-04T18:03:35Z</time>
      </trkpt>
      <trkpt lat="43.29145" lon="6.54187">
        <ele>169.6</ele>
        <time>2022-02-04T18:03:36Z</time>
      </trkpt>
      <trkpt lat="43.29145" lon="6.5419">
        <ele>170.4</ele>
        <time>2022-02-04T18:03:37Z</time>
      </trkpt>
      <trkpt lat="43.29146" lon="6.54194">
        <ele>170.8</ele>
        <time>2022-02-04T18:03:38Z</time>
      </trkpt>
      <trkpt lat="43.29145" lon="6.54197">
        <ele>171.2</ele>
        <time>2022-02-04T18:03:39Z</time>
      </trkpt>
      <trkpt lat="43.29145" lon="6.54201">
        <ele>172</ele>
        <time>2022-02-04T18:03:40Z</time>
      </trkpt>
      <trkpt lat="43.29145" lon="6.54205">
        <ele>172.8</ele>
        <time>2022-02-04T18:03:41Z</time>
      </trkpt>
      <trkpt lat="43.29145" lon="6.54208">
        <ele>173.4</ele>
        <time>2022-02-04T18:03:42Z</time>
      </trkpt>
      <trkpt lat="43.29145" lon="6.54211">
        <ele>174.2</ele>
        <time>2022-02-04T18:03:43Z</time>
      </trkpt>
      <trkpt lat="43.29145" lon="6.54215">
        <ele>174.6</ele>
        <time>2022-02-04T18:03:44Z</time>
      </trkpt>
      <trkpt lat="43.29146" lon="6.54218">
        <ele>175.2</ele>
        <time>2022-02-04T18:03:45Z</time>
      </trkpt>
      <trkpt lat="43.29147" lon="6.54221">
        <ele>175.4</ele>
        <time>2022-02-04T18:03:46Z</time>
      </trkpt>
      <trkpt lat="43.29147" lon="6.54225">
        <ele>176</ele>
        <time>2022-02-04T18:03:47Z</time>
      </trkpt>
      <trkpt lat="43.29148" lon="6.54228">
        <ele>176.4</ele>
        <time>2022-02-04T18:03:48Z</time>
      </trkpt>
      <trkpt lat="43.29149" lon="6.54231">
        <ele>176.8</ele>
        <time>2022-02-04T18:03:49Z</time>
      </trkpt>
      <trkpt lat="43.2915" lon="6.54235">
        <ele>177.4</ele>
        <time>2022-02-04T18:03:50Z</time>
      </trkpt>
      <trkpt lat="43.29151" lon="6.54238">
        <ele>178</ele>
        <time>2022-02-04T18:03:51Z</time>
      </trkpt>
      <trkpt lat="43.29152" lon="6.54241">
        <ele>178.4</ele>
        <time>2022-02-04T18:03:52Z</time>
      </trkpt>
      <trkpt lat="43.29154" lon="6.54243">
        <ele>179</ele>
        <time>2022-02-04T18:03:53Z</time>
      </trkpt>
      <trkpt lat="43.29155" lon="6.54246">
        <ele>179.6</ele>
        <time>2022-02-04T18:03:54Z</time>
      </trkpt>
      <trkpt lat="43.29156" lon="6.54249">
        <ele>180.2</ele>
        <time>2022-02-04T18:03:55Z</time>
      </trkpt>
      <trkpt lat="43.29158" lon="6.54252">
        <ele>180.6</ele>
        <time>2022-02-04T18:03:56Z</time>
      </trkpt>
      <trkpt lat="43.29159" lon="6.54255">
        <ele>180.8</ele>
        <time>2022-02-04T18:03:57Z</time>
      </trkpt>
      <trkpt lat="43.29161" lon="6.54258">
        <ele>181.4</ele>
        <time>2022-02-04T18:03:58Z</time>
      </trkpt>
      <trkpt lat="43.29162" lon="6.54261">
        <ele>182</ele>
        <time>2022-02-04T18:03:59Z</time>
      </trkpt>
      <trkpt lat="43.29162" lon="6.54265">
        <ele>182.4</ele>
        <time>2022-02-04T18:04:00Z</time>
      </trkpt>
      <trkpt lat="43.29162" lon="6.54269">
        <ele>182.8</ele>
        <time>2022-02-04T18:04:01Z</time>
      </trkpt>
      <trkpt lat="43.29163" lon="6.54272">
        <ele>183.2</ele>
        <time>2022-02-04T18:04:02Z</time>
      </trkpt>
      <trkpt lat="43.29163" lon="6.54276">
        <ele>183.8</ele>
        <time>2022-02-04T18:04:03Z</time>
      </trkpt>
      <trkpt lat="43.29162" lon="6.54281">
        <ele>184</ele>
        <time>2022-02-04T18:04:04Z</time>
      </trkpt>
      <trkpt lat="43.29161" lon="6.54285">
        <ele>184.4</ele>
        <time>2022-02-04T18:04:05Z</time>
      </trkpt>
      <trkpt lat="43.29159" lon="6.54288">
        <ele>184.8</ele>
        <time>2022-02-04T18:04:06Z</time>
      </trkpt>
      <trkpt lat="43.29157" lon="6.54292">
        <ele>185</ele>
        <time>2022-02-04T18:04:07Z</time>
      </trkpt>
      <trkpt lat="43.29155" lon="6.54296">
        <ele>185.6</ele>
        <time>2022-02-04T18:04:08Z</time>
      </trkpt>
      <trkpt lat="43.29152" lon="6.54299">
        <ele>186</ele>
        <time>2022-02-04T18:04:09Z</time>
      </trkpt>
      <trkpt lat="43.2915" lon="6.54302">
        <ele>186.2</ele>
        <time>2022-02-04T18:04:10Z</time>
      </trkpt>
      <trkpt lat="43.29148" lon="6.54305">
        <ele>187</ele>
        <time>2022-02-04T18:04:11Z</time>
      </trkpt>
      <trkpt lat="43.29146" lon="6.54308">
        <ele>187.4</ele>
        <time>2022-02-04T18:04:12Z</time>
      </trkpt>
      <trkpt lat="43.29143" lon="6.54311">
        <ele>187.8</ele>
        <time>2022-02-04T18:04:13Z</time>
      </trkpt>
      <trkpt lat="43.29141" lon="6.54315">
        <ele>188.4</ele>
        <time>2022-02-04T18:04:14Z</time>
      </trkpt>
      <trkpt lat="43.29139" lon="6.54318">
        <ele>188.8</ele>
        <time>2022-02-04T18:04:15Z</time>
      </trkpt>
      <trkpt lat="43.29136" lon="6.54322">
        <ele>189</ele>
        <time>2022-02-04T18:04:16Z</time>
      </trkpt>
      <trkpt lat="43.29134" lon="6.54325">
        <ele>189</ele>
        <time>2022-02-04T18:04:17Z</time>
      </trkpt>
      <trkpt lat="43.29132" lon="6.54329">
        <ele>189.2</ele>
        <time>2022-02-04T18:04:18Z</time>
      </trkpt>
      <trkpt lat="43.29129" lon="6.54333">
        <ele>189.2</ele>
        <time>2022-02-04T18:04:19Z</time>
      </trkpt>
      <trkpt lat="43.29127" lon="6.54337">
        <ele>189.2</ele>
        <time>2022-02-04T18:04:20Z</time>
      </trkpt>
      <trkpt lat="43.29125" lon="6.54341">
        <ele>189.4</ele>
        <time>2022-02-04T18:04:21Z</time>
      </trkpt>
      <trkpt lat="43.29123" lon="6.54345">
        <ele>189.6</ele>
        <time>2022-02-04T18:04:22Z</time>
      </trkpt>
      <trkpt lat="43.29121" lon="6.54349">
        <ele>189.8</ele>
        <time>2022-02-04T18:04:23Z</time>
      </trkpt>
      <trkpt lat="43.2912" lon="6.54353">
        <ele>189.8</ele>
        <time>2022-02-04T18:04:24Z</time>
      </trkpt>
      <trkpt lat="43.29119" lon="6.54357">
        <ele>190</ele>
        <time>2022-02-04T18:04:25Z</time>
      </trkpt>
      <trkpt lat="43.29119" lon="6.54359">
        <ele>190</ele>
        <time>2022-02-04T18:04:26Z</time>
      </trkpt>
      <trkpt lat="43.29119" lon="6.5436">
        <ele>190.2</ele>
        <time>2022-02-04T18:04:27Z</time>
      </trkpt>
      <trkpt lat="43.29119" lon="6.5436">
        <ele>190.2</ele>
        <time>2022-02-04T18:04:28Z</time>
      </trkpt>
      <trkpt lat="43.29119" lon="6.5436">
        <ele>190.4</ele>
        <time>2022-02-04T18:04:29Z</time>
      </trkpt>
      <trkpt lat="43.29119" lon="6.5436">
        <ele>190.6</ele>
        <time>2022-02-04T18:04:30Z</time>
      </trkpt>
      <trkpt lat="43.29119" lon="6.5436">
        <ele>190.6</ele>
        <time>2022-02-04T18:04:31Z</time>
      </trkpt>
      <trkpt lat="43.29119" lon="6.5436">
        <ele>190.6</ele>
        <time>2022-02-04T18:04:32Z</time>
      </trkpt>
      <trkpt lat="43.29119" lon="6.5436">
        <ele>190.6</ele>
        <time>2022-02-04T18:04:33Z</time>
      </trkpt>
      <trkpt lat="43.29119" lon="6.5436">
        <ele>190.6</ele>
        <time>2022-02-04T18:04:34Z</time>
      </trkpt>
      <trkpt lat="43.29119" lon="6.5436">
        <ele>190.6</ele>
        <time>2022-02-04T18:04:35Z</time>
      </trkpt>
      <trkpt lat="43.29119" lon="6.5436">
        <ele>190.6</ele>
        <time>2022-02-04T18:04:36Z</time>
      </trkpt>
      <trkpt lat="43.29118" lon="6.5436">
        <ele>190.6</ele>
        <time>2022-02-04T18:04:37Z</time>
      </trkpt>
      <trkpt lat="43.29118" lon="6.54359">
        <ele>190.4</ele>
        <time>2022-02-04T18:04:38Z</time>
      </trkpt>
      <trkpt lat="43.29118" lon="6.54359">
        <ele>190.2</ele>
        <time>2022-02-04T18:04:39Z</time>
      </trkpt>
      <trkpt lat="43.29118" lon="6.54359">
        <ele>190.2</ele>
        <time>2022-02-04T18:04:40Z</time>
      </trkpt>
      <trkpt lat="43.29118" lon="6.54359">
        <ele>190.2</ele>
        <time>2022-02-04T18:04:41Z</time>
      </trkpt>
      <trkpt lat="43.29118" lon="6.54359">
        <ele>190.2</ele>
        <time>2022-02-04T18:04:42Z</time>
      </trkpt>
      <trkpt lat="43.29118" lon="6.54359">
        <ele>190.2</ele>
        <time>2022-02-04T18:04:43Z</time>
      </trkpt>
      <trkpt lat="43.29118" lon="6.54359">
        <ele>190.2</ele>
        <time>2022-02-04T18:04:44Z</time>
      </trkpt>
      <trkpt lat="43.29118" lon="6.54359">
        <ele>190.4</ele>
        <time>2022-02-04T18:04:45Z</time>
      </trkpt>
      <trkpt lat="43.29119" lon="6.54359">
        <ele>190.4</ele>
        <time>2022-02-04T18:04:46Z</time>
      </trkpt>
      <trkpt lat="43.29119" lon="6.54359">
        <ele>190.4</ele>
        <time>2022-02-04T18:04:47Z</time>
      </trkpt>
      <trkpt lat="43.29119" lon="6.54359">
        <ele>190.6</ele>
        <time>2022-02-04T18:04:48Z</time>
      </trkpt>
      <trkpt lat="43.29119" lon="6.54359">
        <ele>190.6</ele>
        <time>2022-02-04T18:04:49Z</time>
      </trkpt>
      <trkpt lat="43.29119" lon="6.54359">
        <ele>190.6</ele>
        <time>2022-02-04T18:04:50Z</time>
      </trkpt>
      <trkpt lat="43.29119" lon="6.54359">
        <ele>190.8</ele>
        <time>2022-02-04T18:04:51Z</time>
      </trkpt>
      <trkpt lat="43.29119" lon="6.54359">
        <ele>190.8</ele>
        <time>2022-02-04T18:04:52Z</time>
      </trkpt>
      <trkpt lat="43.29119" lon="6.54359">
        <ele>190.8</ele>
        <time>2022-02-04T18:04:53Z</time>
      </trkpt>
      <trkpt lat="43.29119" lon="6.54359">
        <ele>190.8</ele>
        <time>2022-02-04T18:04:54Z</time>
      </trkpt>
      <trkpt lat="43.29119" lon="6.54359">
        <ele>190.8</ele>
        <time>2022-02-04T18:04:55Z</time>
      </trkpt>
      <trkpt lat="43.29119" lon="6.54359">
        <ele>190.8</ele>
        <time>2022-02-04T18:04:56Z</time>
      </trkpt>
      <trkpt lat="43.29119" lon="6.54359">
        <ele>190.8</ele>
        <time>2022-02-04T18:04:57Z</time>
      </trkpt>
      <trkpt lat="43.29119" lon="6.54359">
        <ele>190.8</ele>
        <time>2022-02-04T18:04:58Z</time>
      </trkpt>
      <trkpt lat="43.29119" lon="6.54359">
        <ele>190.6</ele>
        <time>2022-02-04T18:04:59Z</time>
      </trkpt>
      <trkpt lat="43.29119" lon="6.54359">
        <ele>190.6</ele>
        <time>2022-02-04T18:05:00Z</time>
      </trkpt>
      <trkpt lat="43.2912" lon="6.5436">
        <ele>190.6</ele>
        <time>2022-02-04T18:05:01Z</time>
      </trkpt>
      <trkpt lat="43.2912" lon="6.5436">
        <ele>190.6</ele>
        <time>2022-02-04T18:05:02Z</time>
      </trkpt>
      <trkpt lat="43.2912" lon="6.5436">
        <ele>190.6</ele>
        <time>2022-02-04T18:05:03Z</time>
      </trkpt>
      <trkpt lat="43.2912" lon="6.5436">
        <ele>190.6</ele>
        <time>2022-02-04T18:05:04Z</time>
      </trkpt>
      <trkpt lat="43.2912" lon="6.5436">
        <ele>190.6</ele>
        <time>2022-02-04T18:05:05Z</time>
      </trkpt>
      <trkpt lat="43.2912" lon="6.5436">
        <ele>190.8</ele>
        <time>2022-02-04T18:05:06Z</time>
      </trkpt>
      <trkpt lat="43.2912" lon="6.5436">
        <ele>190.8</ele>
        <time>2022-02-04T18:05:07Z</time>
      </trkpt>
      <trkpt lat="43.2912" lon="6.5436">
        <ele>190.8</ele>
        <time>2022-02-04T18:05:08Z</time>
      </trkpt>
      <trkpt lat="43.2912" lon="6.5436">
        <ele>190.8</ele>
        <time>2022-02-04T18:05:09Z</time>
      </trkpt>
      <trkpt lat="43.2912" lon="6.5436">
        <ele>190.6</ele>
        <time>2022-02-04T18:05:10Z</time>
      </trkpt>
      <trkpt lat="43.2912" lon="6.5436">
        <ele>190.6</ele>
        <time>2022-02-04T18:05:11Z</time>
      </trkpt>
      <trkpt lat="43.29121" lon="6.5436">
        <ele>190.6</ele>
        <time>2022-02-04T18:05:12Z</time>
      </trkpt>
      <trkpt lat="43.29121" lon="6.5436">
        <ele>190.4</ele>
        <time>2022-02-04T18:05:13Z</time>
      </trkpt>
      <trkpt lat="43.29121" lon="6.5436">
        <ele>190.4</ele>
        <time>2022-02-04T18:05:14Z</time>
      </trkpt>
      <trkpt lat="43.29121" lon="6.5436">
        <ele>190.4</ele>
        <time>2022-02-04T18:05:15Z</time>
      </trkpt>
      <trkpt lat="43.29121" lon="6.5436">
        <ele>190.4</ele>
        <time>2022-02-04T18:05:16Z</time>
      </trkpt>
      <trkpt lat="43.29121" lon="6.5436">
        <ele>190.4</ele>
        <time>2022-02-04T18:05:17Z</time>
      </trkpt>
      <trkpt lat="43.29121" lon="6.5436">
        <ele>190.4</ele>
        <time>2022-02-04T18:05:18Z</time>
      </trkpt>
      <trkpt lat="43.29123" lon="6.54363">
        <ele>190.4</ele>
        <time>2022-02-04T18:05:19Z</time>
      </trkpt>
      <trkpt lat="43.29124" lon="6.54366">
        <ele>190.4</ele>
        <time>2022-02-04T18:05:20Z</time>
      </trkpt>
      <trkpt lat="43.29125" lon="6.54369">
        <ele>190.6</ele>
        <time>2022-02-04T18:05:21Z</time>
      </trkpt>
      <trkpt lat="43.29126" lon="6.54373">
        <ele>191</ele>
        <time>2022-02-04T18:05:22Z</time>
      </trkpt>
      <trkpt lat="43.29128" lon="6.54376">
        <ele>191.4</ele>
        <time>2022-02-04T18:05:23Z</time>
      </trkpt>
      <trkpt lat="43.29129" lon="6.54379">
        <ele>191.8</ele>
        <time>2022-02-04T18:05:24Z</time>
      </trkpt>
      <trkpt lat="43.2913" lon="6.54382">
        <ele>192.4</ele>
        <time>2022-02-04T18:05:25Z</time>
      </trkpt>
      <trkpt lat="43.29131" lon="6.54385">
        <ele>192.8</ele>
        <time>2022-02-04T18:05:26Z</time>
      </trkpt>
      <trkpt lat="43.29133" lon="6.54388">
        <ele>193.4</ele>
        <time>2022-02-04T18:05:27Z</time>
      </trkpt>
      <trkpt lat="43.29135" lon="6.5439">
        <ele>194</ele>
        <time>2022-02-04T18:05:28Z</time>
      </trkpt>
      <trkpt lat="43.29137" lon="6.54393">
        <ele>194.8</ele>
        <time>2022-02-04T18:05:29Z</time>
      </trkpt>
      <trkpt lat="43.29139" lon="6.54395">
        <ele>195.2</ele>
        <time>2022-02-04T18:05:30Z</time>
      </trkpt>
      <trkpt lat="43.29141" lon="6.54397">
        <ele>196</ele>
        <time>2022-02-04T18:05:31Z</time>
      </trkpt>
      <trkpt lat="43.29143" lon="6.54399">
        <ele>196.8</ele>
        <time>2022-02-04T18:05:32Z</time>
      </trkpt>
      <trkpt lat="43.29144" lon="6.544">
        <ele>197.2</ele>
        <time>2022-02-04T18:05:33Z</time>
      </trkpt>
      <trkpt lat="43.29147" lon="6.54402">
        <ele>197.6</ele>
        <time>2022-02-04T18:05:34Z</time>
      </trkpt>
      <trkpt lat="43.2915" lon="6.54403">
        <ele>198</ele>
        <time>2022-02-04T18:05:35Z</time>
      </trkpt>
      <trkpt lat="43.29152" lon="6.54405">
        <ele>198.4</ele>
        <time>2022-02-04T18:05:36Z</time>
      </trkpt>
      <trkpt lat="43.29154" lon="6.54407">
        <ele>199</ele>
        <time>2022-02-04T18:05:37Z</time>
      </trkpt>
      <trkpt lat="43.29156" lon="6.54408">
        <ele>199.4</ele>
        <time>2022-02-04T18:05:38Z</time>
      </trkpt>
      <trkpt lat="43.29158" lon="6.54409">
        <ele>199.6</ele>
        <time>2022-02-04T18:05:39Z</time>
      </trkpt>
      <trkpt lat="43.29161" lon="6.5441">
        <ele>200.2</ele>
        <time>2022-02-04T18:05:40Z</time>
      </trkpt>
      <trkpt lat="43.29163" lon="6.54411">
        <ele>200.4</ele>
        <time>2022-02-04T18:05:41Z</time>
      </trkpt>
      <trkpt lat="43.29166" lon="6.54412">
        <ele>201.2</ele>
        <time>2022-02-04T18:05:42Z</time>
      </trkpt>
      <trkpt lat="43.29168" lon="6.54413">
        <ele>201.6</ele>
        <time>2022-02-04T18:05:43Z</time>
      </trkpt>
      <trkpt lat="43.2917" lon="6.54414">
        <ele>202</ele>
        <time>2022-02-04T18:05:44Z</time>
      </trkpt>
      <trkpt lat="43.29173" lon="6.54415">
        <ele>202.2</ele>
        <time>2022-02-04T18:05:45Z</time>
      </trkpt>
      <trkpt lat="43.29176" lon="6.54417">
        <ele>202.2</ele>
        <time>2022-02-04T18:05:46Z</time>
      </trkpt>
      <trkpt lat="43.29179" lon="6.54419">
        <ele>202.4</ele>
        <time>2022-02-04T18:05:47Z</time>
      </trkpt>
      <trkpt lat="43.29181" lon="6.54422">
        <ele>202.6</ele>
        <time>2022-02-04T18:05:48Z</time>
      </trkpt>
      <trkpt lat="43.29184" lon="6.54424">
        <ele>203</ele>
        <time>2022-02-04T18:05:49Z</time>
      </trkpt>
      <trkpt lat="43.29187" lon="6.54425">
        <ele>203.2</ele>
        <time>2022-02-04T18:05:50Z</time>
      </trkpt>
      <trkpt lat="43.29189" lon="6.54426">
        <ele>203.4</ele>
        <time>2022-02-04T18:05:51Z</time>
      </trkpt>
      <trkpt lat="43.29191" lon="6.54427">
        <ele>203.8</ele>
        <time>2022-02-04T18:05:52Z</time>
      </trkpt>
      <trkpt lat="43.29192" lon="6.54428">
        <ele>204</ele>
        <time>2022-02-04T18:05:53Z</time>
      </trkpt>
      <trkpt lat="43.29193" lon="6.54427">
        <ele>204</ele>
        <time>2022-02-04T18:05:54Z</time>
      </trkpt>
      <trkpt lat="43.29193" lon="6.54427">
        <ele>204.2</ele>
        <time>2022-02-04T18:05:55Z</time>
      </trkpt>
      <trkpt lat="43.29193" lon="6.54427">
        <ele>204.4</ele>
        <time>2022-02-04T18:05:56Z</time>
      </trkpt>
      <trkpt lat="43.29193" lon="6.54427">
        <ele>204.6</ele>
        <time>2022-02-04T18:05:57Z</time>
      </trkpt>
      <trkpt lat="43.29194" lon="6.54427">
        <ele>204.6</ele>
        <time>2022-02-04T18:05:58Z</time>
      </trkpt>
      <trkpt lat="43.29194" lon="6.54427">
        <ele>204.8</ele>
        <time>2022-02-04T18:05:59Z</time>
      </trkpt>
      <trkpt lat="43.29194" lon="6.54427">
        <ele>204.8</ele>
        <time>2022-02-04T18:06:00Z</time>
      </trkpt>
      <trkpt lat="43.29194" lon="6.54427">
        <ele>204.8</ele>
        <time>2022-02-04T18:06:01Z</time>
      </trkpt>
      <trkpt lat="43.29194" lon="6.54427">
        <ele>204.8</ele>
        <time>2022-02-04T18:06:02Z</time>
      </trkpt>
      <trkpt lat="43.29194" lon="6.54427">
        <ele>204.8</ele>
        <time>2022-02-04T18:06:03Z</time>
      </trkpt>
      <trkpt lat="43.29194" lon="6.54426">
        <ele>204.6</ele>
        <time>2022-02-04T18:06:04Z</time>
      </trkpt>
      <trkpt lat="43.29194" lon="6.54426">
        <ele>204.6</ele>
        <time>2022-02-04T18:06:05Z</time>
      </trkpt>
      <trkpt lat="43.29194" lon="6.54427">
        <ele>204.4</ele>
        <time>2022-02-04T18:06:06Z</time>
      </trkpt>
      <trkpt lat="43.29195" lon="6.54429">
        <ele>204.4</ele>
        <time>2022-02-04T18:06:07Z</time>
      </trkpt>
      <trkpt lat="43.29195" lon="6.54431">
        <ele>204.4</ele>
        <time>2022-02-04T18:06:08Z</time>
      </trkpt>
      <trkpt lat="43.29196" lon="6.54433">
        <ele>204.6</ele>
        <time>2022-02-04T18:06:09Z</time>
      </trkpt>
      <trkpt lat="43.29198" lon="6.54435">
        <ele>204.6</ele>
        <time>2022-02-04T18:06:10Z</time>
      </trkpt>
      <trkpt lat="43.29199" lon="6.54438">
        <ele>204.6</ele>
        <time>2022-02-04T18:06:11Z</time>
      </trkpt>
      <trkpt lat="43.29201" lon="6.5444">
        <ele>204.6</ele>
        <time>2022-02-04T18:06:12Z</time>
      </trkpt>
      <trkpt lat="43.29203" lon="6.54443">
        <ele>204.8</ele>
        <time>2022-02-04T18:06:13Z</time>
      </trkpt>
      <trkpt lat="43.29204" lon="6.54446">
        <ele>204.8</ele>
        <time>2022-02-04T18:06:14Z</time>
      </trkpt>
      <trkpt lat="43.29206" lon="6.54449">
        <ele>205.2</ele>
        <time>2022-02-04T18:06:15Z</time>
      </trkpt>
      <trkpt lat="43.29209" lon="6.54452">
        <ele>205.2</ele>
        <time>2022-02-04T18:06:16Z</time>
      </trkpt>
      <trkpt lat="43.29211" lon="6.54455">
        <ele>205.4</ele>
        <time>2022-02-04T18:06:17Z</time>
      </trkpt>
      <trkpt lat="43.29213" lon="6.54457">
        <ele>205.6</ele>
        <time>2022-02-04T18:06:18Z</time>
      </trkpt>
      <trkpt lat="43.29215" lon="6.5446">
        <ele>205.8</ele>
        <time>2022-02-04T18:06:19Z</time>
      </trkpt>
      <trkpt lat="43.29218" lon="6.54462">
        <ele>206</ele>
        <time>2022-02-04T18:06:20Z</time>
      </trkpt>
      <trkpt lat="43.29222" lon="6.54465">
        <ele>206.6</ele>
        <time>2022-02-04T18:06:21Z</time>
      </trkpt>
      <trkpt lat="43.29226" lon="6.54467">
        <ele>206.8</ele>
        <time>2022-02-04T18:06:22Z</time>
      </trkpt>
      <trkpt lat="43.2923" lon="6.5447">
        <ele>207</ele>
        <time>2022-02-04T18:06:23Z</time>
      </trkpt>
      <trkpt lat="43.29234" lon="6.54472">
        <ele>207.2</ele>
        <time>2022-02-04T18:06:24Z</time>
      </trkpt>
      <trkpt lat="43.29238" lon="6.54473">
        <ele>207.2</ele>
        <time>2022-02-04T18:06:25Z</time>
      </trkpt>
      <trkpt lat="43.29242" lon="6.54474">
        <ele>207.2</ele>
        <time>2022-02-04T18:06:26Z</time>
      </trkpt>
      <trkpt lat="43.29246" lon="6.54474">
        <ele>207.4</ele>
        <time>2022-02-04T18:06:27Z</time>
      </trkpt>
      <trkpt lat="43.2925" lon="6.54475">
        <ele>207.4</ele>
        <time>2022-02-04T18:06:28Z</time>
      </trkpt>
      <trkpt lat="43.29254" lon="6.54474">
        <ele>207.2</ele>
        <time>2022-02-04T18:06:29Z</time>
      </trkpt>
      <trkpt lat="43.29258" lon="6.54474">
        <ele>207</ele>
        <time>2022-02-04T18:06:30Z</time>
      </trkpt>
      <trkpt lat="43.29263" lon="6.54473">
        <ele>206.8</ele>
        <time>2022-02-04T18:06:31Z</time>
      </trkpt>
      <trkpt lat="43.29268" lon="6.54473">
        <ele>206.4</ele>
        <time>2022-02-04T18:06:32Z</time>
      </trkpt>
      <trkpt lat="43.29272" lon="6.54474">
        <ele>205.8</ele>
        <time>2022-02-04T18:06:33Z</time>
      </trkpt>
      <trkpt lat="43.29277" lon="6.54474">
        <ele>205.4</ele>
        <time>2022-02-04T18:06:34Z</time>
      </trkpt>
      <trkpt lat="43.29281" lon="6.54475">
        <ele>205.2</ele>
        <time>2022-02-04T18:06:35Z</time>
      </trkpt>
      <trkpt lat="43.29286" lon="6.54476">
        <ele>205</ele>
        <time>2022-02-04T18:06:36Z</time>
      </trkpt>
      <trkpt lat="43.29292" lon="6.54478">
        <ele>205</ele>
        <time>2022-02-04T18:06:37Z</time>
      </trkpt>
      <trkpt lat="43.29297" lon="6.54479">
        <ele>205</ele>
        <time>2022-02-04T18:06:38Z</time>
      </trkpt>
      <trkpt lat="43.29303" lon="6.5448">
        <ele>204.8</ele>
        <time>2022-02-04T18:06:39Z</time>
      </trkpt>
      <trkpt lat="43.29309" lon="6.54482">
        <ele>204.6</ele>
        <time>2022-02-04T18:06:40Z</time>
      </trkpt>
      <trkpt lat="43.29314" lon="6.54484">
        <ele>204.4</ele>
        <time>2022-02-04T18:06:41Z</time>
      </trkpt>
      <trkpt lat="43.29319" lon="6.54486">
        <ele>204.2</ele>
        <time>2022-02-04T18:06:42Z</time>
      </trkpt>
      <trkpt lat="43.29323" lon="6.54488">
        <ele>204.2</ele>
        <time>2022-02-04T18:06:43Z</time>
      </trkpt>
      <trkpt lat="43.29328" lon="6.5449">
        <ele>204</ele>
        <time>2022-02-04T18:06:44Z</time>
      </trkpt>
      <trkpt lat="43.29333" lon="6.54491">
        <ele>203.8</ele>
        <time>2022-02-04T18:06:45Z</time>
      </trkpt>
      <trkpt lat="43.29336" lon="6.54491">
        <ele>203.6</ele>
        <time>2022-02-04T18:06:46Z</time>
      </trkpt>
      <trkpt lat="43.2934" lon="6.54492">
        <ele>203.6</ele>
        <time>2022-02-04T18:06:47Z</time>
      </trkpt>
      <trkpt lat="43.29344" lon="6.54492">
        <ele>203.6</ele>
        <time>2022-02-04T18:06:48Z</time>
      </trkpt>
      <trkpt lat="43.29348" lon="6.54491">
        <ele>203.6</ele>
        <time>2022-02-04T18:06:49Z</time>
      </trkpt>
      <trkpt lat="43.29353" lon="6.54491">
        <ele>203.8</ele>
        <time>2022-02-04T18:06:50Z</time>
      </trkpt>
      <trkpt lat="43.29357" lon="6.54492">
        <ele>203.8</ele>
        <time>2022-02-04T18:06:51Z</time>
      </trkpt>
      <trkpt lat="43.29362" lon="6.54493">
        <ele>203.8</ele>
        <time>2022-02-04T18:06:52Z</time>
      </trkpt>
      <trkpt lat="43.29365" lon="6.54495">
        <ele>204</ele>
        <time>2022-02-04T18:06:53Z</time>
      </trkpt>
      <trkpt lat="43.29369" lon="6.54499">
        <ele>204</ele>
        <time>2022-02-04T18:06:54Z</time>
      </trkpt>
      <trkpt lat="43.29373" lon="6.54502">
        <ele>204.2</ele>
        <time>2022-02-04T18:06:55Z</time>
      </trkpt>
      <trkpt lat="43.29377" lon="6.54506">
        <ele>204.2</ele>
        <time>2022-02-04T18:06:56Z</time>
      </trkpt>
      <trkpt lat="43.29381" lon="6.54508">
        <ele>204</ele>
        <time>2022-02-04T18:06:57Z</time>
      </trkpt>
      <trkpt lat="43.29385" lon="6.54511">
        <ele>204</ele>
        <time>2022-02-04T18:06:58Z</time>
      </trkpt>
      <trkpt lat="43.29389" lon="6.54513">
        <ele>204</ele>
        <time>2022-02-04T18:06:59Z</time>
      </trkpt>
      <trkpt lat="43.29393" lon="6.54515">
        <ele>204</ele>
        <time>2022-02-04T18:07:00Z</time>
      </trkpt>
      <trkpt lat="43.29398" lon="6.54516">
        <ele>204</ele>
        <time>2022-02-04T18:07:01Z</time>
      </trkpt>
      <trkpt lat="43.29402" lon="6.54518">
        <ele>204.2</ele>
        <time>2022-02-04T18:07:02Z</time>
      </trkpt>
      <trkpt lat="43.29406" lon="6.54519">
        <ele>204.6</ele>
        <time>2022-02-04T18:07:03Z</time>
      </trkpt>
      <trkpt lat="43.29409" lon="6.5452">
        <ele>205</ele>
        <time>2022-02-04T18:07:04Z</time>
      </trkpt>
      <trkpt lat="43.29412" lon="6.54521">
        <ele>205.4</ele>
        <time>2022-02-04T18:07:05Z</time>
      </trkpt>
      <trkpt lat="43.29415" lon="6.54523">
        <ele>205.8</ele>
        <time>2022-02-04T18:07:06Z</time>
      </trkpt>
      <trkpt lat="43.29419" lon="6.54524">
        <ele>206.2</ele>
        <time>2022-02-04T18:07:07Z</time>
      </trkpt>
      <trkpt lat="43.29422" lon="6.54525">
        <ele>206.2</ele>
        <time>2022-02-04T18:07:08Z</time>
      </trkpt>
      <trkpt lat="43.29426" lon="6.54526">
        <ele>206.4</ele>
        <time>2022-02-04T18:07:09Z</time>
      </trkpt>
      <trkpt lat="43.29429" lon="6.54526">
        <ele>206.6</ele>
        <time>2022-02-04T18:07:10Z</time>
      </trkpt>
      <trkpt lat="43.29432" lon="6.54526">
        <ele>206.6</ele>
        <time>2022-02-04T18:07:11Z</time>
      </trkpt>
      <trkpt lat="43.29436" lon="6.54526">
        <ele>206.6</ele>
        <time>2022-02-04T18:07:12Z</time>
      </trkpt>
      <trkpt lat="43.29439" lon="6.54525">
        <ele>206.6</ele>
        <time>2022-02-04T18:07:13Z</time>
      </trkpt>
      <trkpt lat="43.29443" lon="6.54525">
        <ele>206.6</ele>
        <time>2022-02-04T18:07:14Z</time>
      </trkpt>
      <trkpt lat="43.29446" lon="6.54525">
        <ele>206.6</ele>
        <time>2022-02-04T18:07:15Z</time>
      </trkpt>
      <trkpt lat="43.2945" lon="6.54525">
        <ele>206.4</ele>
        <time>2022-02-04T18:07:16Z</time>
      </trkpt>
      <trkpt lat="43.29453" lon="6.54525">
        <ele>206.4</ele>
        <time>2022-02-04T18:07:17Z</time>
      </trkpt>
      <trkpt lat="43.29457" lon="6.54525">
        <ele>206</ele>
        <time>2022-02-04T18:07:18Z</time>
      </trkpt>
      <trkpt lat="43.29462" lon="6.54524">
        <ele>205.8</ele>
        <time>2022-02-04T18:07:19Z</time>
      </trkpt>
      <trkpt lat="43.29465" lon="6.54523">
        <ele>205.4</ele>
        <time>2022-02-04T18:07:20Z</time>
      </trkpt>
      <trkpt lat="43.29469" lon="6.54521">
        <ele>205</ele>
        <time>2022-02-04T18:07:21Z</time>
      </trkpt>
      <trkpt lat="43.29474" lon="6.54519">
        <ele>204.6</ele>
        <time>2022-02-04T18:07:22Z</time>
      </trkpt>
      <trkpt lat="43.29479" lon="6.54517">
        <ele>203.6</ele>
        <time>2022-02-04T18:07:23Z</time>
      </trkpt>
      <trkpt lat="43.29484" lon="6.54514">
        <ele>202.2</ele>
        <time>2022-02-04T18:07:24Z</time>
      </trkpt>
      <trkpt lat="43.2949" lon="6.5451">
        <ele>200.8</ele>
        <time>2022-02-04T18:07:25Z</time>
      </trkpt>
      <trkpt lat="43.29497" lon="6.54506">
        <ele>200.2</ele>
        <time>2022-02-04T18:07:26Z</time>
      </trkpt>
      <trkpt lat="43.29503" lon="6.54502">
        <ele>199.4</ele>
        <time>2022-02-04T18:07:27Z</time>
      </trkpt>
      <trkpt lat="43.2951" lon="6.54498">
        <ele>199</ele>
        <time>2022-02-04T18:07:28Z</time>
      </trkpt>
      <trkpt lat="43.29517" lon="6.54493">
        <ele>198.6</ele>
        <time>2022-02-04T18:07:29Z</time>
      </trkpt>
      <trkpt lat="43.29524" lon="6.54489">
        <ele>198.2</ele>
        <time>2022-02-04T18:07:30Z</time>
      </trkpt>
      <trkpt lat="43.29531" lon="6.54485">
        <ele>198.2</ele>
        <time>2022-02-04T18:07:31Z</time>
      </trkpt>
      <trkpt lat="43.29536" lon="6.54483">
        <ele>198.2</ele>
        <time>2022-02-04T18:07:32Z</time>
      </trkpt>
      <trkpt lat="43.29541" lon="6.54483">
        <ele>198.2</ele>
        <time>2022-02-04T18:07:33Z</time>
      </trkpt>
      <trkpt lat="43.29545" lon="6.54484">
        <ele>198.2</ele>
        <time>2022-02-04T18:07:34Z</time>
      </trkpt>
      <trkpt lat="43.29548" lon="6.54486">
        <ele>198.4</ele>
        <time>2022-02-04T18:07:35Z</time>
      </trkpt>
      <trkpt lat="43.29551" lon="6.54488">
        <ele>198.8</ele>
        <time>2022-02-04T18:07:36Z</time>
      </trkpt>
      <trkpt lat="43.29553" lon="6.5449">
        <ele>199.2</ele>
        <time>2022-02-04T18:07:37Z</time>
      </trkpt>
      <trkpt lat="43.29557" lon="6.54492">
        <ele>199.8</ele>
        <time>2022-02-04T18:07:38Z</time>
      </trkpt>
      <trkpt lat="43.29559" lon="6.54494">
        <ele>200.6</ele>
        <time>2022-02-04T18:07:39Z</time>
      </trkpt>
      <trkpt lat="43.29562" lon="6.54496">
        <ele>201.4</ele>
        <time>2022-02-04T18:07:40Z</time>
      </trkpt>
      <trkpt lat="43.29563" lon="6.54497">
        <ele>202.2</ele>
        <time>2022-02-04T18:07:41Z</time>
      </trkpt>
      <trkpt lat="43.29566" lon="6.54499">
        <ele>203.2</ele>
        <time>2022-02-04T18:07:42Z</time>
      </trkpt>
      <trkpt lat="43.29569" lon="6.54501">
        <ele>203.6</ele>
        <time>2022-02-04T18:07:43Z</time>
      </trkpt>
      <trkpt lat="43.29571" lon="6.54503">
        <ele>204.2</ele>
        <time>2022-02-04T18:07:44Z</time>
      </trkpt>
      <trkpt lat="43.29573" lon="6.54505">
        <ele>204.8</ele>
        <time>2022-02-04T18:07:45Z</time>
      </trkpt>
      <trkpt lat="43.29576" lon="6.54506">
        <ele>205.4</ele>
        <time>2022-02-04T18:07:46Z</time>
      </trkpt>
      <trkpt lat="43.29579" lon="6.54508">
        <ele>205.8</ele>
        <time>2022-02-04T18:07:47Z</time>
      </trkpt>
      <trkpt lat="43.29581" lon="6.5451">
        <ele>206.4</ele>
        <time>2022-02-04T18:07:48Z</time>
      </trkpt>
      <trkpt lat="43.29584" lon="6.54512">
        <ele>207</ele>
        <time>2022-02-04T18:07:49Z</time>
      </trkpt>
      <trkpt lat="43.29586" lon="6.54514">
        <ele>208</ele>
        <time>2022-02-04T18:07:50Z</time>
      </trkpt>
      <trkpt lat="43.29589" lon="6.54516">
        <ele>208.6</ele>
        <time>2022-02-04T18:07:51Z</time>
      </trkpt>
      <trkpt lat="43.29591" lon="6.54518">
        <ele>209.2</ele>
        <time>2022-02-04T18:07:52Z</time>
      </trkpt>
      <trkpt lat="43.29593" lon="6.5452">
        <ele>209.6</ele>
        <time>2022-02-04T18:07:53Z</time>
      </trkpt>
      <trkpt lat="43.29594" lon="6.54521">
        <ele>210.4</ele>
        <time>2022-02-04T18:07:54Z</time>
      </trkpt>
      <trkpt lat="43.29596" lon="6.54524">
        <ele>211</ele>
        <time>2022-02-04T18:07:55Z</time>
      </trkpt>
      <trkpt lat="43.29598" lon="6.54527">
        <ele>211.8</ele>
        <time>2022-02-04T18:07:56Z</time>
      </trkpt>
      <trkpt lat="43.296" lon="6.54529">
        <ele>212.2</ele>
        <time>2022-02-04T18:07:57Z</time>
      </trkpt>
      <trkpt lat="43.29601" lon="6.54533">
        <ele>212.8</ele>
        <time>2022-02-04T18:07:58Z</time>
      </trkpt>
      <trkpt lat="43.29602" lon="6.54536">
        <ele>213.4</ele>
        <time>2022-02-04T18:07:59Z</time>
      </trkpt>
      <trkpt lat="43.29603" lon="6.54538">
        <ele>213.6</ele>
        <time>2022-02-04T18:08:00Z</time>
      </trkpt>
      <trkpt lat="43.29604" lon="6.54541">
        <ele>213.8</ele>
        <time>2022-02-04T18:08:01Z</time>
      </trkpt>
      <trkpt lat="43.29605" lon="6.54545">
        <ele>214</ele>
        <time>2022-02-04T18:08:02Z</time>
      </trkpt>
      <trkpt lat="43.29606" lon="6.54548">
        <ele>214.4</ele>
        <time>2022-02-04T18:08:03Z</time>
      </trkpt>
      <trkpt lat="43.29607" lon="6.54551">
        <ele>214.6</ele>
        <time>2022-02-04T18:08:04Z</time>
      </trkpt>
      <trkpt lat="43.29608" lon="6.54554">
        <ele>214.8</ele>
        <time>2022-02-04T18:08:05Z</time>
      </trkpt>
      <trkpt lat="43.2961" lon="6.54556">
        <ele>215.2</ele>
        <time>2022-02-04T18:08:06Z</time>
      </trkpt>
      <trkpt lat="43.29612" lon="6.54558">
        <ele>215.8</ele>
        <time>2022-02-04T18:08:07Z</time>
      </trkpt>
      <trkpt lat="43.29613" lon="6.54558">
        <ele>216.4</ele>
        <time>2022-02-04T18:08:08Z</time>
      </trkpt>
      <trkpt lat="43.29615" lon="6.54559">
        <ele>216.8</ele>
        <time>2022-02-04T18:08:09Z</time>
      </trkpt>
      <trkpt lat="43.29618" lon="6.5456">
        <ele>217.2</ele>
        <time>2022-02-04T18:08:10Z</time>
      </trkpt>
      <trkpt lat="43.2962" lon="6.5456">
        <ele>217.4</ele>
        <time>2022-02-04T18:08:11Z</time>
      </trkpt>
      <trkpt lat="43.29622" lon="6.5456">
        <ele>217.6</ele>
        <time>2022-02-04T18:08:12Z</time>
      </trkpt>
      <trkpt lat="43.29625" lon="6.54559">
        <ele>218</ele>
        <time>2022-02-04T18:08:13Z</time>
      </trkpt>
      <trkpt lat="43.29627" lon="6.54559">
        <ele>218.6</ele>
        <time>2022-02-04T18:08:14Z</time>
      </trkpt>
      <trkpt lat="43.2963" lon="6.54559">
        <ele>219.4</ele>
        <time>2022-02-04T18:08:15Z</time>
      </trkpt>
      <trkpt lat="43.29633" lon="6.54559">
        <ele>220</ele>
        <time>2022-02-04T18:08:16Z</time>
      </trkpt>
      <trkpt lat="43.29635" lon="6.54559">
        <ele>220.4</ele>
        <time>2022-02-04T18:08:17Z</time>
      </trkpt>
      <trkpt lat="43.29638" lon="6.54559">
        <ele>220.8</ele>
        <time>2022-02-04T18:08:18Z</time>
      </trkpt>
      <trkpt lat="43.2964" lon="6.54558">
        <ele>221.4</ele>
        <time>2022-02-04T18:08:19Z</time>
      </trkpt>
      <trkpt lat="43.29641" lon="6.54556">
        <ele>221.6</ele>
        <time>2022-02-04T18:08:20Z</time>
      </trkpt>
      <trkpt lat="43.29643" lon="6.54555">
        <ele>221.8</ele>
        <time>2022-02-04T18:08:21Z</time>
      </trkpt>
      <trkpt lat="43.29644" lon="6.54553">
        <ele>222.8</ele>
        <time>2022-02-04T18:08:22Z</time>
      </trkpt>
      <trkpt lat="43.29646" lon="6.5455">
        <ele>223.4</ele>
        <time>2022-02-04T18:08:23Z</time>
      </trkpt>
      <trkpt lat="43.29647" lon="6.54548">
        <ele>224</ele>
        <time>2022-02-04T18:08:24Z</time>
      </trkpt>
      <trkpt lat="43.29648" lon="6.54546">
        <ele>224.8</ele>
        <time>2022-02-04T18:08:25Z</time>
      </trkpt>
      <trkpt lat="43.29649" lon="6.54544">
        <ele>225.6</ele>
        <time>2022-02-04T18:08:26Z</time>
      </trkpt>
      <trkpt lat="43.2965" lon="6.54542">
        <ele>226</ele>
        <time>2022-02-04T18:08:27Z</time>
      </trkpt>
      <trkpt lat="43.29651" lon="6.5454">
        <ele>226.8</ele>
        <time>2022-02-04T18:08:28Z</time>
      </trkpt>
      <trkpt lat="43.29652" lon="6.54537">
        <ele>227.6</ele>
        <time>2022-02-04T18:08:29Z</time>
      </trkpt>
      <trkpt lat="43.29653" lon="6.54536">
        <ele>228.2</ele>
        <time>2022-02-04T18:08:30Z</time>
      </trkpt>
      <trkpt lat="43.29655" lon="6.54533">
        <ele>228.8</ele>
        <time>2022-02-04T18:08:31Z</time>
      </trkpt>
      <trkpt lat="43.29656" lon="6.54531">
        <ele>229.2</ele>
        <time>2022-02-04T18:08:32Z</time>
      </trkpt>
      <trkpt lat="43.29658" lon="6.54529">
        <ele>229.8</ele>
        <time>2022-02-04T18:08:33Z</time>
      </trkpt>
      <trkpt lat="43.29659" lon="6.54526">
        <ele>230.2</ele>
        <time>2022-02-04T18:08:34Z</time>
      </trkpt>
      <trkpt lat="43.2966" lon="6.54524">
        <ele>230.8</ele>
        <time>2022-02-04T18:08:35Z</time>
      </trkpt>
      <trkpt lat="43.29661" lon="6.54521">
        <ele>231.2</ele>
        <time>2022-02-04T18:08:36Z</time>
      </trkpt>
      <trkpt lat="43.29663" lon="6.54519">
        <ele>231.4</ele>
        <time>2022-02-04T18:08:37Z</time>
      </trkpt>
      <trkpt lat="43.29664" lon="6.54517">
        <ele>232</ele>
        <time>2022-02-04T18:08:38Z</time>
      </trkpt>
      <trkpt lat="43.29665" lon="6.54515">
        <ele>232.2</ele>
        <time>2022-02-04T18:08:39Z</time>
      </trkpt>
      <trkpt lat="43.29666" lon="6.54513">
        <ele>232.4</ele>
        <time>2022-02-04T18:08:40Z</time>
      </trkpt>
      <trkpt lat="43.29668" lon="6.54511">
        <ele>232.6</ele>
        <time>2022-02-04T18:08:41Z</time>
      </trkpt>
      <trkpt lat="43.29669" lon="6.54509">
        <ele>233</ele>
        <time>2022-02-04T18:08:42Z</time>
      </trkpt>
      <trkpt lat="43.2967" lon="6.54508">
        <ele>233.4</ele>
        <time>2022-02-04T18:08:43Z</time>
      </trkpt>
      <trkpt lat="43.29672" lon="6.54506">
        <ele>233.6</ele>
        <time>2022-02-04T18:08:44Z</time>
      </trkpt>
      <trkpt lat="43.29673" lon="6.54504">
        <ele>233.8</ele>
        <time>2022-02-04T18:08:45Z</time>
      </trkpt>
      <trkpt lat="43.29674" lon="6.54502">
        <ele>234</ele>
        <time>2022-02-04T18:08:46Z</time>
      </trkpt>
      <trkpt lat="43.29676" lon="6.54499">
        <ele>234.2</ele>
        <time>2022-02-04T18:08:47Z</time>
      </trkpt>
      <trkpt lat="43.29676" lon="6.54498">
        <ele>234.6</ele>
        <time>2022-02-04T18:08:48Z</time>
      </trkpt>
      <trkpt lat="43.29677" lon="6.54495">
        <ele>235</ele>
        <time>2022-02-04T18:08:49Z</time>
      </trkpt>
      <trkpt lat="43.29678" lon="6.54492">
        <ele>235.4</ele>
        <time>2022-02-04T18:08:50Z</time>
      </trkpt>
      <trkpt lat="43.29679" lon="6.5449">
        <ele>235.8</ele>
        <time>2022-02-04T18:08:51Z</time>
      </trkpt>
      <trkpt lat="43.2968" lon="6.54487">
        <ele>236.4</ele>
        <time>2022-02-04T18:08:52Z</time>
      </trkpt>
      <trkpt lat="43.29681" lon="6.54485">
        <ele>236.8</ele>
        <time>2022-02-04T18:08:53Z</time>
      </trkpt>
      <trkpt lat="43.29682" lon="6.54482">
        <ele>237.2</ele>
        <time>2022-02-04T18:08:54Z</time>
      </trkpt>
      <trkpt lat="43.29683" lon="6.54479">
        <ele>237.6</ele>
        <time>2022-02-04T18:08:55Z</time>
      </trkpt>
      <trkpt lat="43.29684" lon="6.54477">
        <ele>238</ele>
        <time>2022-02-04T18:08:56Z</time>
      </trkpt>
      <trkpt lat="43.29686" lon="6.54474">
        <ele>238.4</ele>
        <time>2022-02-04T18:08:57Z</time>
      </trkpt>
      <trkpt lat="43.29688" lon="6.54472">
        <ele>238.8</ele>
        <time>2022-02-04T18:08:58Z</time>
      </trkpt>
      <trkpt lat="43.2969" lon="6.5447">
        <ele>239.4</ele>
        <time>2022-02-04T18:08:59Z</time>
      </trkpt>
      <trkpt lat="43.29691" lon="6.54468">
        <ele>240.2</ele>
        <time>2022-02-04T18:09:00Z</time>
      </trkpt>
      <trkpt lat="43.29693" lon="6.54466">
        <ele>240.4</ele>
        <time>2022-02-04T18:09:01Z</time>
      </trkpt>
      <trkpt lat="43.29694" lon="6.54464">
        <ele>240.8</ele>
        <time>2022-02-04T18:09:02Z</time>
      </trkpt>
      <trkpt lat="43.29696" lon="6.54462">
        <ele>241.2</ele>
        <time>2022-02-04T18:09:03Z</time>
      </trkpt>
      <trkpt lat="43.29697" lon="6.5446">
        <ele>241.6</ele>
        <time>2022-02-04T18:09:04Z</time>
      </trkpt>
      <trkpt lat="43.29698" lon="6.54458">
        <ele>241.8</ele>
        <time>2022-02-04T18:09:05Z</time>
      </trkpt>
      <trkpt lat="43.297" lon="6.54456">
        <ele>242.2</ele>
        <time>2022-02-04T18:09:06Z</time>
      </trkpt>
      <trkpt lat="43.29702" lon="6.54453">
        <ele>242.8</ele>
        <time>2022-02-04T18:09:07Z</time>
      </trkpt>
      <trkpt lat="43.29703" lon="6.54451">
        <ele>243.2</ele>
        <time>2022-02-04T18:09:08Z</time>
      </trkpt>
      <trkpt lat="43.29704" lon="6.54449">
        <ele>243.4</ele>
        <time>2022-02-04T18:09:09Z</time>
      </trkpt>
      <trkpt lat="43.29705" lon="6.54448">
        <ele>243.8</ele>
        <time>2022-02-04T18:09:10Z</time>
      </trkpt>
      <trkpt lat="43.29707" lon="6.54446">
        <ele>244.4</ele>
        <time>2022-02-04T18:09:11Z</time>
      </trkpt>
      <trkpt lat="43.29708" lon="6.54444">
        <ele>245</ele>
        <time>2022-02-04T18:09:12Z</time>
      </trkpt>
      <trkpt lat="43.2971" lon="6.54442">
        <ele>245.4</ele>
        <time>2022-02-04T18:09:13Z</time>
      </trkpt>
      <trkpt lat="43.29711" lon="6.54439">
        <ele>246</ele>
        <time>2022-02-04T18:09:14Z</time>
      </trkpt>
      <trkpt lat="43.29711" lon="6.54437">
        <ele>246.2</ele>
        <time>2022-02-04T18:09:15Z</time>
      </trkpt>
      <trkpt lat="43.29712" lon="6.54435">
        <ele>246.8</ele>
        <time>2022-02-04T18:09:16Z</time>
      </trkpt>
      <trkpt lat="43.29713" lon="6.54433">
        <ele>247</ele>
        <time>2022-02-04T18:09:17Z</time>
      </trkpt>
      <trkpt lat="43.29714" lon="6.54431">
        <ele>247.6</ele>
        <time>2022-02-04T18:09:18Z</time>
      </trkpt>
      <trkpt lat="43.29715" lon="6.54429">
        <ele>248</ele>
        <time>2022-02-04T18:09:19Z</time>
      </trkpt>
      <trkpt lat="43.29716" lon="6.54426">
        <ele>248.2</ele>
        <time>2022-02-04T18:09:20Z</time>
      </trkpt>
      <trkpt lat="43.29716" lon="6.54423">
        <ele>248.6</ele>
        <time>2022-02-04T18:09:21Z</time>
      </trkpt>
      <trkpt lat="43.29717" lon="6.5442">
        <ele>249</ele>
        <time>2022-02-04T18:09:22Z</time>
      </trkpt>
      <trkpt lat="43.29717" lon="6.54417">
        <ele>249.2</ele>
        <time>2022-02-04T18:09:23Z</time>
      </trkpt>
      <trkpt lat="43.29718" lon="6.54414">
        <ele>249.8</ele>
        <time>2022-02-04T18:09:24Z</time>
      </trkpt>
      <trkpt lat="43.29718" lon="6.54411">
        <ele>250.4</ele>
        <time>2022-02-04T18:09:25Z</time>
      </trkpt>
      <trkpt lat="43.29719" lon="6.54409">
        <ele>251</ele>
        <time>2022-02-04T18:09:26Z</time>
      </trkpt>
      <trkpt lat="43.29719" lon="6.54406">
        <ele>251.4</ele>
        <time>2022-02-04T18:09:27Z</time>
      </trkpt>
      <trkpt lat="43.2972" lon="6.54403">
        <ele>252</ele>
        <time>2022-02-04T18:09:28Z</time>
      </trkpt>
      <trkpt lat="43.2972" lon="6.544">
        <ele>252.4</ele>
        <time>2022-02-04T18:09:29Z</time>
      </trkpt>
      <trkpt lat="43.2972" lon="6.54397">
        <ele>252.6</ele>
        <time>2022-02-04T18:09:30Z</time>
      </trkpt>
      <trkpt lat="43.29721" lon="6.54395">
        <ele>253</ele>
        <time>2022-02-04T18:09:31Z</time>
      </trkpt>
      <trkpt lat="43.29721" lon="6.54391">
        <ele>253.2</ele>
        <time>2022-02-04T18:09:32Z</time>
      </trkpt>
      <trkpt lat="43.29721" lon="6.54388">
        <ele>253.8</ele>
        <time>2022-02-04T18:09:33Z</time>
      </trkpt>
      <trkpt lat="43.29722" lon="6.54386">
        <ele>254</ele>
        <time>2022-02-04T18:09:34Z</time>
      </trkpt>
      <trkpt lat="43.29722" lon="6.54383">
        <ele>254.6</ele>
        <time>2022-02-04T18:09:35Z</time>
      </trkpt>
      <trkpt lat="43.29723" lon="6.54381">
        <ele>255.2</ele>
        <time>2022-02-04T18:09:36Z</time>
      </trkpt>
      <trkpt lat="43.29723" lon="6.54378">
        <ele>255.8</ele>
        <time>2022-02-04T18:09:37Z</time>
      </trkpt>
      <trkpt lat="43.29724" lon="6.54375">
        <ele>256</ele>
        <time>2022-02-04T18:09:38Z</time>
      </trkpt>
      <trkpt lat="43.29724" lon="6.54373">
        <ele>256.6</ele>
        <time>2022-02-04T18:09:39Z</time>
      </trkpt>
      <trkpt lat="43.29725" lon="6.54371">
        <ele>256.8</ele>
        <time>2022-02-04T18:09:40Z</time>
      </trkpt>
      <trkpt lat="43.29725" lon="6.54368">
        <ele>257.6</ele>
        <time>2022-02-04T18:09:41Z</time>
      </trkpt>
      <trkpt lat="43.29725" lon="6.54365">
        <ele>257.8</ele>
        <time>2022-02-04T18:09:42Z</time>
      </trkpt>
      <trkpt lat="43.29725" lon="6.54362">
        <ele>258.2</ele>
        <time>2022-02-04T18:09:43Z</time>
      </trkpt>
      <trkpt lat="43.29725" lon="6.5436">
        <ele>258.6</ele>
        <time>2022-02-04T18:09:44Z</time>
      </trkpt>
      <trkpt lat="43.29724" lon="6.54358">
        <ele>259</ele>
        <time>2022-02-04T18:09:45Z</time>
      </trkpt>
      <trkpt lat="43.29722" lon="6.54357">
        <ele>259.8</ele>
        <time>2022-02-04T18:09:46Z</time>
      </trkpt>
      <trkpt lat="43.2972" lon="6.54357">
        <ele>260.2</ele>
        <time>2022-02-04T18:09:47Z</time>
      </trkpt>
      <trkpt lat="43.29718" lon="6.54358">
        <ele>260.6</ele>
        <time>2022-02-04T18:09:48Z</time>
      </trkpt>
      <trkpt lat="43.29716" lon="6.54359">
        <ele>261.2</ele>
        <time>2022-02-04T18:09:49Z</time>
      </trkpt>
      <trkpt lat="43.29714" lon="6.54359">
        <ele>261.6</ele>
        <time>2022-02-04T18:09:50Z</time>
      </trkpt>
      <trkpt lat="43.29712" lon="6.5436">
        <ele>262</ele>
        <time>2022-02-04T18:09:51Z</time>
      </trkpt>
      <trkpt lat="43.29709" lon="6.5436">
        <ele>262.2</ele>
        <time>2022-02-04T18:09:52Z</time>
      </trkpt>
      <trkpt lat="43.29707" lon="6.5436">
        <ele>262.4</ele>
        <time>2022-02-04T18:09:53Z</time>
      </trkpt>
      <trkpt lat="43.29705" lon="6.5436">
        <ele>263</ele>
        <time>2022-02-04T18:09:54Z</time>
      </trkpt>
      <trkpt lat="43.29702" lon="6.5436">
        <ele>263.4</ele>
        <time>2022-02-04T18:09:55Z</time>
      </trkpt>
      <trkpt lat="43.29699" lon="6.5436">
        <ele>263.8</ele>
        <time>2022-02-04T18:09:56Z</time>
      </trkpt>
      <trkpt lat="43.29696" lon="6.5436">
        <ele>264</ele>
        <time>2022-02-04T18:09:57Z</time>
      </trkpt>
      <trkpt lat="43.29693" lon="6.5436">
        <ele>264.6</ele>
        <time>2022-02-04T18:09:58Z</time>
      </trkpt>
      <trkpt lat="43.2969" lon="6.5436">
        <ele>265</ele>
        <time>2022-02-04T18:09:59Z</time>
      </trkpt>
      <trkpt lat="43.29687" lon="6.5436">
        <ele>265.4</ele>
        <time>2022-02-04T18:10:00Z</time>
      </trkpt>
      <trkpt lat="43.29684" lon="6.5436">
        <ele>265.8</ele>
        <time>2022-02-04T18:10:01Z</time>
      </trkpt>
      <trkpt lat="43.29681" lon="6.54359">
        <ele>266.4</ele>
        <time>2022-02-04T18:10:02Z</time>
      </trkpt>
      <trkpt lat="43.29679" lon="6.54357">
        <ele>266.8</ele>
        <time>2022-02-04T18:10:03Z</time>
      </trkpt>
      <trkpt lat="43.29676" lon="6.54355">
        <ele>267</ele>
        <time>2022-02-04T18:10:04Z</time>
      </trkpt>
      <trkpt lat="43.29674" lon="6.54352">
        <ele>267.2</ele>
        <time>2022-02-04T18:10:05Z</time>
      </trkpt>
      <trkpt lat="43.29672" lon="6.54349">
        <ele>267.4</ele>
        <time>2022-02-04T18:10:06Z</time>
      </trkpt>
      <trkpt lat="43.29671" lon="6.54346">
        <ele>267.6</ele>
        <time>2022-02-04T18:10:07Z</time>
      </trkpt>
      <trkpt lat="43.29671" lon="6.54342">
        <ele>267.8</ele>
        <time>2022-02-04T18:10:08Z</time>
      </trkpt>
      <trkpt lat="43.2967" lon="6.54339">
        <ele>267.8</ele>
        <time>2022-02-04T18:10:09Z</time>
      </trkpt>
      <trkpt lat="43.2967" lon="6.54335">
        <ele>268.2</ele>
        <time>2022-02-04T18:10:10Z</time>
      </trkpt>
      <trkpt lat="43.2967" lon="6.54331">
        <ele>268.6</ele>
        <time>2022-02-04T18:10:11Z</time>
      </trkpt>
      <trkpt lat="43.2967" lon="6.54328">
        <ele>269.2</ele>
        <time>2022-02-04T18:10:12Z</time>
      </trkpt>
      <trkpt lat="43.2967" lon="6.54324">
        <ele>269.8</ele>
        <time>2022-02-04T18:10:13Z</time>
      </trkpt>
      <trkpt lat="43.29671" lon="6.5432">
        <ele>270.4</ele>
        <time>2022-02-04T18:10:14Z</time>
      </trkpt>
      <trkpt lat="43.29671" lon="6.54316">
        <ele>271</ele>
        <time>2022-02-04T18:10:15Z</time>
      </trkpt>
      <trkpt lat="43.29672" lon="6.54313">
        <ele>271.4</ele>
        <time>2022-02-04T18:10:16Z</time>
      </trkpt>
      <trkpt lat="43.29673" lon="6.54309">
        <ele>272</ele>
        <time>2022-02-04T18:10:17Z</time>
      </trkpt>
      <trkpt lat="43.29673" lon="6.54304">
        <ele>272.4</ele>
        <time>2022-02-04T18:10:18Z</time>
      </trkpt>
      <trkpt lat="43.29673" lon="6.543">
        <ele>272.6</ele>
        <time>2022-02-04T18:10:19Z</time>
      </trkpt>
      <trkpt lat="43.29673" lon="6.54296">
        <ele>273</ele>
        <time>2022-02-04T18:10:20Z</time>
      </trkpt>
      <trkpt lat="43.29673" lon="6.54291">
        <ele>273.4</ele>
        <time>2022-02-04T18:10:21Z</time>
      </trkpt>
      <trkpt lat="43.29673" lon="6.54287">
        <ele>273.6</ele>
        <time>2022-02-04T18:10:22Z</time>
      </trkpt>
      <trkpt lat="43.29672" lon="6.54283">
        <ele>273.8</ele>
        <time>2022-02-04T18:10:23Z</time>
      </trkpt>
      <trkpt lat="43.29672" lon="6.54278">
        <ele>274</ele>
        <time>2022-02-04T18:10:24Z</time>
      </trkpt>
      <trkpt lat="43.29672" lon="6.54274">
        <ele>274.2</ele>
        <time>2022-02-04T18:10:25Z</time>
      </trkpt>
      <trkpt lat="43.29672" lon="6.54271">
        <ele>274.4</ele>
        <time>2022-02-04T18:10:26Z</time>
      </trkpt>
      <trkpt lat="43.29672" lon="6.54267">
        <ele>274.6</ele>
        <time>2022-02-04T18:10:27Z</time>
      </trkpt>
      <trkpt lat="43.29672" lon="6.54263">
        <ele>274.8</ele>
        <time>2022-02-04T18:10:28Z</time>
      </trkpt>
      <trkpt lat="43.29672" lon="6.54259">
        <ele>275.2</ele>
        <time>2022-02-04T18:10:29Z</time>
      </trkpt>
      <trkpt lat="43.29672" lon="6.54255">
        <ele>275.8</ele>
        <time>2022-02-04T18:10:30Z</time>
      </trkpt>
      <trkpt lat="43.29672" lon="6.54251">
        <ele>276.2</ele>
        <time>2022-02-04T18:10:31Z</time>
      </trkpt>
      <trkpt lat="43.29672" lon="6.54247">
        <ele>276.8</ele>
        <time>2022-02-04T18:10:32Z</time>
      </trkpt>
      <trkpt lat="43.29671" lon="6.54243">
        <ele>277.2</ele>
        <time>2022-02-04T18:10:33Z</time>
      </trkpt>
      <trkpt lat="43.29671" lon="6.54239">
        <ele>277.6</ele>
        <time>2022-02-04T18:10:34Z</time>
      </trkpt>
      <trkpt lat="43.29671" lon="6.54235">
        <ele>278.2</ele>
        <time>2022-02-04T18:10:35Z</time>
      </trkpt>
      <trkpt lat="43.29671" lon="6.54232">
        <ele>278.8</ele>
        <time>2022-02-04T18:10:36Z</time>
      </trkpt>
      <trkpt lat="43.29671" lon="6.54228">
        <ele>279.4</ele>
        <time>2022-02-04T18:10:37Z</time>
      </trkpt>
      <trkpt lat="43.29671" lon="6.54225">
        <ele>279.8</ele>
        <time>2022-02-04T18:10:38Z</time>
      </trkpt>
      <trkpt lat="43.29672" lon="6.54221">
        <ele>280.2</ele>
        <time>2022-02-04T18:10:39Z</time>
      </trkpt>
      <trkpt lat="43.29672" lon="6.54219">
        <ele>280.6</ele>
        <time>2022-02-04T18:10:40Z</time>
      </trkpt>
      <trkpt lat="43.29672" lon="6.54216">
        <ele>281.2</ele>
        <time>2022-02-04T18:10:41Z</time>
      </trkpt>
      <trkpt lat="43.29673" lon="6.54213">
        <ele>281.6</ele>
        <time>2022-02-04T18:10:42Z</time>
      </trkpt>
      <trkpt lat="43.29672" lon="6.5421">
        <ele>282.2</ele>
        <time>2022-02-04T18:10:43Z</time>
      </trkpt>
      <trkpt lat="43.29672" lon="6.54208">
        <ele>282.8</ele>
        <time>2022-02-04T18:10:44Z</time>
      </trkpt>
      <trkpt lat="43.29671" lon="6.54207">
        <ele>283.2</ele>
        <time>2022-02-04T18:10:45Z</time>
      </trkpt>
      <trkpt lat="43.29669" lon="6.54206">
        <ele>283.8</ele>
        <time>2022-02-04T18:10:46Z</time>
      </trkpt>
      <trkpt lat="43.29667" lon="6.54206">
        <ele>284.4</ele>
        <time>2022-02-04T18:10:47Z</time>
      </trkpt>
      <trkpt lat="43.29665" lon="6.54207">
        <ele>285</ele>
        <time>2022-02-04T18:10:48Z</time>
      </trkpt>
      <trkpt lat="43.29662" lon="6.54207">
        <ele>285.2</ele>
        <time>2022-02-04T18:10:49Z</time>
      </trkpt>
      <trkpt lat="43.2966" lon="6.54207">
        <ele>285.8</ele>
        <time>2022-02-04T18:10:50Z</time>
      </trkpt>
      <trkpt lat="43.29657" lon="6.54208">
        <ele>286.4</ele>
        <time>2022-02-04T18:10:51Z</time>
      </trkpt>
      <trkpt lat="43.29654" lon="6.54208">
        <ele>286.8</ele>
        <time>2022-02-04T18:10:52Z</time>
      </trkpt>
      <trkpt lat="43.29651" lon="6.54209">
        <ele>287</ele>
        <time>2022-02-04T18:10:53Z</time>
      </trkpt>
      <trkpt lat="43.29648" lon="6.54208">
        <ele>287.2</ele>
        <time>2022-02-04T18:10:54Z</time>
      </trkpt>
      <trkpt lat="43.29645" lon="6.54207">
        <ele>287.4</ele>
        <time>2022-02-04T18:10:55Z</time>
      </trkpt>
      <trkpt lat="43.29642" lon="6.54206">
        <ele>287.6</ele>
        <time>2022-02-04T18:10:56Z</time>
      </trkpt>
      <trkpt lat="43.29639" lon="6.54204">
        <ele>287.8</ele>
        <time>2022-02-04T18:10:57Z</time>
      </trkpt>
      <trkpt lat="43.29637" lon="6.54202">
        <ele>288.2</ele>
        <time>2022-02-04T18:10:58Z</time>
      </trkpt>
      <trkpt lat="43.29635" lon="6.542">
        <ele>288.8</ele>
        <time>2022-02-04T18:10:59Z</time>
      </trkpt>
      <trkpt lat="43.29633" lon="6.54197">
        <ele>289.2</ele>
        <time>2022-02-04T18:11:00Z</time>
      </trkpt>
      <trkpt lat="43.29632" lon="6.54195">
        <ele>289.4</ele>
        <time>2022-02-04T18:11:01Z</time>
      </trkpt>
      <trkpt lat="43.29631" lon="6.54192">
        <ele>290</ele>
        <time>2022-02-04T18:11:02Z</time>
      </trkpt>
      <trkpt lat="43.2963" lon="6.5419">
        <ele>290.6</ele>
        <time>2022-02-04T18:11:03Z</time>
      </trkpt>
      <trkpt lat="43.29628" lon="6.54189">
        <ele>291.6</ele>
        <time>2022-02-04T18:11:04Z</time>
      </trkpt>
      <trkpt lat="43.29625" lon="6.54187">
        <ele>292.2</ele>
        <time>2022-02-04T18:11:05Z</time>
      </trkpt>
      <trkpt lat="43.29623" lon="6.54185">
        <ele>292.6</ele>
        <time>2022-02-04T18:11:06Z</time>
      </trkpt>
      <trkpt lat="43.2962" lon="6.54184">
        <ele>293</ele>
        <time>2022-02-04T18:11:07Z</time>
      </trkpt>
      <trkpt lat="43.29617" lon="6.54183">
        <ele>293.2</ele>
        <time>2022-02-04T18:11:08Z</time>
      </trkpt>
      <trkpt lat="43.29614" lon="6.54182">
        <ele>293.4</ele>
        <time>2022-02-04T18:11:09Z</time>
      </trkpt>
      <trkpt lat="43.29612" lon="6.54182">
        <ele>293.6</ele>
        <time>2022-02-04T18:11:10Z</time>
      </trkpt>
      <trkpt lat="43.29609" lon="6.54181">
        <ele>293.8</ele>
        <time>2022-02-04T18:11:11Z</time>
      </trkpt>
      <trkpt lat="43.29607" lon="6.54181">
        <ele>294</ele>
        <time>2022-02-04T18:11:12Z</time>
      </trkpt>
      <trkpt lat="43.29604" lon="6.54181">
        <ele>294.4</ele>
        <time>2022-02-04T18:11:13Z</time>
      </trkpt>
      <trkpt lat="43.29601" lon="6.54181">
        <ele>294.8</ele>
        <time>2022-02-04T18:11:14Z</time>
      </trkpt>
      <trkpt lat="43.29598" lon="6.54181">
        <ele>295.2</ele>
        <time>2022-02-04T18:11:15Z</time>
      </trkpt>
      <trkpt lat="43.29596" lon="6.54182">
        <ele>295.4</ele>
        <time>2022-02-04T18:11:16Z</time>
      </trkpt>
      <trkpt lat="43.29593" lon="6.54182">
        <ele>295.6</ele>
        <time>2022-02-04T18:11:17Z</time>
      </trkpt>
      <trkpt lat="43.29591" lon="6.54182">
        <ele>296</ele>
        <time>2022-02-04T18:11:18Z</time>
      </trkpt>
      <trkpt lat="43.29588" lon="6.54182">
        <ele>296.4</ele>
        <time>2022-02-04T18:11:19Z</time>
      </trkpt>
      <trkpt lat="43.29585" lon="6.54183">
        <ele>296.8</ele>
        <time>2022-02-04T18:11:20Z</time>
      </trkpt>
      <trkpt lat="43.29582" lon="6.54183">
        <ele>297</ele>
        <time>2022-02-04T18:11:21Z</time>
      </trkpt>
      <trkpt lat="43.29579" lon="6.54183">
        <ele>297.4</ele>
        <time>2022-02-04T18:11:22Z</time>
      </trkpt>
      <trkpt lat="43.29576" lon="6.54184">
        <ele>298</ele>
        <time>2022-02-04T18:11:23Z</time>
      </trkpt>
      <trkpt lat="43.29573" lon="6.54184">
        <ele>298.6</ele>
        <time>2022-02-04T18:11:24Z</time>
      </trkpt>
      <trkpt lat="43.29571" lon="6.54184">
        <ele>299.2</ele>
        <time>2022-02-04T18:11:25Z</time>
      </trkpt>
      <trkpt lat="43.29568" lon="6.54183">
        <ele>299.8</ele>
        <time>2022-02-04T18:11:26Z</time>
      </trkpt>
      <trkpt lat="43.29565" lon="6.54183">
        <ele>300</ele>
        <time>2022-02-04T18:11:27Z</time>
      </trkpt>
      <trkpt lat="43.29563" lon="6.54182">
        <ele>300.6</ele>
        <time>2022-02-04T18:11:28Z</time>
      </trkpt>
      <trkpt lat="43.29561" lon="6.54181">
        <ele>301</ele>
        <time>2022-02-04T18:11:29Z</time>
      </trkpt>
      <trkpt lat="43.29559" lon="6.54181">
        <ele>301.4</ele>
        <time>2022-02-04T18:11:30Z</time>
      </trkpt>
      <trkpt lat="43.29557" lon="6.5418">
        <ele>302</ele>
        <time>2022-02-04T18:11:31Z</time>
      </trkpt>
      <trkpt lat="43.29554" lon="6.5418">
        <ele>302.6</ele>
        <time>2022-02-04T18:11:32Z</time>
      </trkpt>
      <trkpt lat="43.29552" lon="6.54179">
        <ele>303</ele>
        <time>2022-02-04T18:11:33Z</time>
      </trkpt>
      <trkpt lat="43.2955" lon="6.54178">
        <ele>303.8</ele>
        <time>2022-02-04T18:11:34Z</time>
      </trkpt>
      <trkpt lat="43.29548" lon="6.54177">
        <ele>304.2</ele>
        <time>2022-02-04T18:11:35Z</time>
      </trkpt>
      <trkpt lat="43.29545" lon="6.54178">
        <ele>304.6</ele>
        <time>2022-02-04T18:11:36Z</time>
      </trkpt>
      <trkpt lat="43.29543" lon="6.54178">
        <ele>305</ele>
        <time>2022-02-04T18:11:37Z</time>
      </trkpt>
      <trkpt lat="43.29541" lon="6.54179">
        <ele>305.2</ele>
        <time>2022-02-04T18:11:38Z</time>
      </trkpt>
      <trkpt lat="43.29538" lon="6.54179">
        <ele>305.6</ele>
        <time>2022-02-04T18:11:39Z</time>
      </trkpt>
      <trkpt lat="43.29536" lon="6.54179">
        <ele>305.8</ele>
        <time>2022-02-04T18:11:40Z</time>
      </trkpt>
      <trkpt lat="43.29533" lon="6.54179">
        <ele>306</ele>
        <time>2022-02-04T18:11:41Z</time>
      </trkpt>
      <trkpt lat="43.29531" lon="6.54179">
        <ele>306.2</ele>
        <time>2022-02-04T18:11:42Z</time>
      </trkpt>
      <trkpt lat="43.29528" lon="6.5418">
        <ele>306.8</ele>
        <time>2022-02-04T18:11:43Z</time>
      </trkpt>
      <trkpt lat="43.29525" lon="6.5418">
        <ele>307.2</ele>
        <time>2022-02-04T18:11:44Z</time>
      </trkpt>
      <trkpt lat="43.29522" lon="6.5418">
        <ele>307.6</ele>
        <time>2022-02-04T18:11:45Z</time>
      </trkpt>
      <trkpt lat="43.2952" lon="6.54181">
        <ele>308.2</ele>
        <time>2022-02-04T18:11:46Z</time>
      </trkpt>
      <trkpt lat="43.29517" lon="6.54181">
        <ele>308.8</ele>
        <time>2022-02-04T18:11:47Z</time>
      </trkpt>
      <trkpt lat="43.29515" lon="6.54181">
        <ele>309.2</ele>
        <time>2022-02-04T18:11:48Z</time>
      </trkpt>
      <trkpt lat="43.29513" lon="6.5418">
        <ele>309.6</ele>
        <time>2022-02-04T18:11:49Z</time>
      </trkpt>
      <trkpt lat="43.2951" lon="6.5418">
        <ele>310.2</ele>
        <time>2022-02-04T18:11:50Z</time>
      </trkpt>
      <trkpt lat="43.29508" lon="6.54179">
        <ele>310.4</ele>
        <time>2022-02-04T18:11:51Z</time>
      </trkpt>
      <trkpt lat="43.29506" lon="6.54177">
        <ele>310.6</ele>
        <time>2022-02-04T18:11:52Z</time>
      </trkpt>
      <trkpt lat="43.29504" lon="6.54176">
        <ele>311.4</ele>
        <time>2022-02-04T18:11:53Z</time>
      </trkpt>
      <trkpt lat="43.29503" lon="6.54174">
        <ele>311.8</ele>
        <time>2022-02-04T18:11:54Z</time>
      </trkpt>
      <trkpt lat="43.29502" lon="6.54171">
        <ele>312.2</ele>
        <time>2022-02-04T18:11:55Z</time>
      </trkpt>
      <trkpt lat="43.29501" lon="6.54168">
        <ele>312.6</ele>
        <time>2022-02-04T18:11:56Z</time>
      </trkpt>
      <trkpt lat="43.295" lon="6.54165">
        <ele>313</ele>
        <time>2022-02-04T18:11:57Z</time>
      </trkpt>
      <trkpt lat="43.295" lon="6.54161">
        <ele>313.2</ele>
        <time>2022-02-04T18:11:58Z</time>
      </trkpt>
      <trkpt lat="43.29501" lon="6.54158">
        <ele>313.4</ele>
        <time>2022-02-04T18:11:59Z</time>
      </trkpt>
      <trkpt lat="43.29502" lon="6.54155">
        <ele>313.6</ele>
        <time>2022-02-04T18:12:00Z</time>
      </trkpt>
      <trkpt lat="43.29502" lon="6.54152">
        <ele>314</ele>
        <time>2022-02-04T18:12:01Z</time>
      </trkpt>
      <trkpt lat="43.29503" lon="6.54149">
        <ele>314.4</ele>
        <time>2022-02-04T18:12:02Z</time>
      </trkpt>
      <trkpt lat="43.29504" lon="6.54146">
        <ele>314.8</ele>
        <time>2022-02-04T18:12:03Z</time>
      </trkpt>
      <trkpt lat="43.29505" lon="6.54144">
        <ele>315.4</ele>
        <time>2022-02-04T18:12:04Z</time>
      </trkpt>
      <trkpt lat="43.29507" lon="6.54142">
        <ele>316</ele>
        <time>2022-02-04T18:12:05Z</time>
      </trkpt>
      <trkpt lat="43.29508" lon="6.54139">
        <ele>316.6</ele>
        <time>2022-02-04T18:12:06Z</time>
      </trkpt>
      <trkpt lat="43.29509" lon="6.54137">
        <ele>317.2</ele>
        <time>2022-02-04T18:12:07Z</time>
      </trkpt>
      <trkpt lat="43.2951" lon="6.54134">
        <ele>318</ele>
        <time>2022-02-04T18:12:08Z</time>
      </trkpt>
      <trkpt lat="43.29511" lon="6.54131">
        <ele>318.6</ele>
        <time>2022-02-04T18:12:09Z</time>
      </trkpt>
      <trkpt lat="43.29512" lon="6.54129">
        <ele>319</ele>
        <time>2022-02-04T18:12:10Z</time>
      </trkpt>
      <trkpt lat="43.29513" lon="6.54126">
        <ele>319.2</ele>
        <time>2022-02-04T18:12:11Z</time>
      </trkpt>
      <trkpt lat="43.29513" lon="6.54123">
        <ele>319.8</ele>
        <time>2022-02-04T18:12:12Z</time>
      </trkpt>
      <trkpt lat="43.29514" lon="6.5412">
        <ele>320.4</ele>
        <time>2022-02-04T18:12:13Z</time>
      </trkpt>
      <trkpt lat="43.29514" lon="6.54117">
        <ele>320.6</ele>
        <time>2022-02-04T18:12:14Z</time>
      </trkpt>
      <trkpt lat="43.29514" lon="6.54114">
        <ele>320.8</ele>
        <time>2022-02-04T18:12:15Z</time>
      </trkpt>
      <trkpt lat="43.29515" lon="6.54111">
        <ele>321.4</ele>
        <time>2022-02-04T18:12:16Z</time>
      </trkpt>
      <trkpt lat="43.29516" lon="6.54108">
        <ele>321.8</ele>
        <time>2022-02-04T18:12:17Z</time>
      </trkpt>
      <trkpt lat="43.29516" lon="6.54106">
        <ele>322</ele>
        <time>2022-02-04T18:12:18Z</time>
      </trkpt>
      <trkpt lat="43.29516" lon="6.54103">
        <ele>322.6</ele>
        <time>2022-02-04T18:12:19Z</time>
      </trkpt>
      <trkpt lat="43.29517" lon="6.541">
        <ele>323</ele>
        <time>2022-02-04T18:12:20Z</time>
      </trkpt>
      <trkpt lat="43.29517" lon="6.54096">
        <ele>323.2</ele>
        <time>2022-02-04T18:12:21Z</time>
      </trkpt>
      <trkpt lat="43.29517" lon="6.54093">
        <ele>323.6</ele>
        <time>2022-02-04T18:12:22Z</time>
      </trkpt>
      <trkpt lat="43.29517" lon="6.54089">
        <ele>323.8</ele>
        <time>2022-02-04T18:12:23Z</time>
      </trkpt>
      <trkpt lat="43.29517" lon="6.54086">
        <ele>324.2</ele>
        <time>2022-02-04T18:12:24Z</time>
      </trkpt>
      <trkpt lat="43.29518" lon="6.54084">
        <ele>324.4</ele>
        <time>2022-02-04T18:12:25Z</time>
      </trkpt>
      <trkpt lat="43.29519" lon="6.54081">
        <ele>324.6</ele>
        <time>2022-02-04T18:12:26Z</time>
      </trkpt>
      <trkpt lat="43.29519" lon="6.54078">
        <ele>325</ele>
        <time>2022-02-04T18:12:27Z</time>
      </trkpt>
      <trkpt lat="43.2952" lon="6.54075">
        <ele>325.4</ele>
        <time>2022-02-04T18:12:28Z</time>
      </trkpt>
      <trkpt lat="43.2952" lon="6.54072">
        <ele>325.8</ele>
        <time>2022-02-04T18:12:29Z</time>
      </trkpt>
      <trkpt lat="43.2952" lon="6.54069">
        <ele>326.2</ele>
        <time>2022-02-04T18:12:30Z</time>
      </trkpt>
      <trkpt lat="43.2952" lon="6.54066">
        <ele>326.6</ele>
        <time>2022-02-04T18:12:31Z</time>
      </trkpt>
      <trkpt lat="43.2952" lon="6.54062">
        <ele>327</ele>
        <time>2022-02-04T18:12:32Z</time>
      </trkpt>
      <trkpt lat="43.29521" lon="6.54059">
        <ele>327.4</ele>
        <time>2022-02-04T18:12:33Z</time>
      </trkpt>
      <trkpt lat="43.29521" lon="6.54055">
        <ele>328</ele>
        <time>2022-02-04T18:12:34Z</time>
      </trkpt>
      <trkpt lat="43.29521" lon="6.54052">
        <ele>328.6</ele>
        <time>2022-02-04T18:12:35Z</time>
      </trkpt>
      <trkpt lat="43.29521" lon="6.54049">
        <ele>329</ele>
        <time>2022-02-04T18:12:36Z</time>
      </trkpt>
      <trkpt lat="43.29522" lon="6.54046">
        <ele>329.4</ele>
        <time>2022-02-04T18:12:37Z</time>
      </trkpt>
      <trkpt lat="43.29522" lon="6.54042">
        <ele>329.6</ele>
        <time>2022-02-04T18:12:38Z</time>
      </trkpt>
      <trkpt lat="43.29522" lon="6.54039">
        <ele>330</ele>
        <time>2022-02-04T18:12:39Z</time>
      </trkpt>
      <trkpt lat="43.29522" lon="6.54036">
        <ele>330.2</ele>
        <time>2022-02-04T18:12:40Z</time>
      </trkpt>
      <trkpt lat="43.29522" lon="6.54033">
        <ele>330.6</ele>
        <time>2022-02-04T18:12:41Z</time>
      </trkpt>
      <trkpt lat="43.29521" lon="6.54029">
        <ele>331.2</ele>
        <time>2022-02-04T18:12:42Z</time>
      </trkpt>
      <trkpt lat="43.29521" lon="6.54026">
        <ele>331.6</ele>
        <time>2022-02-04T18:12:43Z</time>
      </trkpt>
      <trkpt lat="43.29521" lon="6.54023">
        <ele>332</ele>
        <time>2022-02-04T18:12:44Z</time>
      </trkpt>
      <trkpt lat="43.2952" lon="6.5402">
        <ele>332.2</ele>
        <time>2022-02-04T18:12:45Z</time>
      </trkpt>
      <trkpt lat="43.2952" lon="6.54016">
        <ele>332.4</ele>
        <time>2022-02-04T18:12:46Z</time>
      </trkpt>
      <trkpt lat="43.29519" lon="6.54013">
        <ele>332.8</ele>
        <time>2022-02-04T18:12:47Z</time>
      </trkpt>
      <trkpt lat="43.29519" lon="6.54009">
        <ele>333</ele>
        <time>2022-02-04T18:12:48Z</time>
      </trkpt>
      <trkpt lat="43.29518" lon="6.54006">
        <ele>333.4</ele>
        <time>2022-02-04T18:12:49Z</time>
      </trkpt>
      <trkpt lat="43.29518" lon="6.54002">
        <ele>334</ele>
        <time>2022-02-04T18:12:50Z</time>
      </trkpt>
      <trkpt lat="43.29518" lon="6.53998">
        <ele>334.4</ele>
        <time>2022-02-04T18:12:51Z</time>
      </trkpt>
      <trkpt lat="43.29518" lon="6.53995">
        <ele>334.6</ele>
        <time>2022-02-04T18:12:52Z</time>
      </trkpt>
      <trkpt lat="43.29518" lon="6.53991">
        <ele>335</ele>
        <time>2022-02-04T18:12:53Z</time>
      </trkpt>
      <trkpt lat="43.29518" lon="6.53987">
        <ele>335.4</ele>
        <time>2022-02-04T18:12:54Z</time>
      </trkpt>
      <trkpt lat="43.29518" lon="6.53983">
        <ele>335.8</ele>
        <time>2022-02-04T18:12:55Z</time>
      </trkpt>
      <trkpt lat="43.29519" lon="6.53979">
        <ele>336</ele>
        <time>2022-02-04T18:12:56Z</time>
      </trkpt>
      <trkpt lat="43.2952" lon="6.53975">
        <ele>336.4</ele>
        <time>2022-02-04T18:12:57Z</time>
      </trkpt>
      <trkpt lat="43.29521" lon="6.53971">
        <ele>336.8</ele>
        <time>2022-02-04T18:12:58Z</time>
      </trkpt>
      <trkpt lat="43.29521" lon="6.53967">
        <ele>337</ele>
        <time>2022-02-04T18:12:59Z</time>
      </trkpt>
      <trkpt lat="43.29521" lon="6.53963">
        <ele>337</ele>
        <time>2022-02-04T18:13:00Z</time>
      </trkpt>
      <trkpt lat="43.29522" lon="6.53959">
        <ele>337.4</ele>
        <time>2022-02-04T18:13:01Z</time>
      </trkpt>
      <trkpt lat="43.29522" lon="6.53956">
        <ele>337.6</ele>
        <time>2022-02-04T18:13:02Z</time>
      </trkpt>
      <trkpt lat="43.29522" lon="6.53952">
        <ele>337.8</ele>
        <time>2022-02-04T18:13:03Z</time>
      </trkpt>
      <trkpt lat="43.29523" lon="6.53948">
        <ele>338.2</ele>
        <time>2022-02-04T18:13:04Z</time>
      </trkpt>
      <trkpt lat="43.29523" lon="6.53944">
        <ele>338.6</ele>
        <time>2022-02-04T18:13:05Z</time>
      </trkpt>
      <trkpt lat="43.29523" lon="6.5394">
        <ele>339</ele>
        <time>2022-02-04T18:13:06Z</time>
      </trkpt>
      <trkpt lat="43.29524" lon="6.53936">
        <ele>339.4</ele>
        <time>2022-02-04T18:13:07Z</time>
      </trkpt>
      <trkpt lat="43.29525" lon="6.53932">
        <ele>339.6</ele>
        <time>2022-02-04T18:13:08Z</time>
      </trkpt>
      <trkpt lat="43.29526" lon="6.53927">
        <ele>339.6</ele>
        <time>2022-02-04T18:13:09Z</time>
      </trkpt>
      <trkpt lat="43.29527" lon="6.53923">
        <ele>340.2</ele>
        <time>2022-02-04T18:13:10Z</time>
      </trkpt>
      <trkpt lat="43.29528" lon="6.53919">
        <ele>341</ele>
        <time>2022-02-04T18:13:11Z</time>
      </trkpt>
      <trkpt lat="43.29529" lon="6.53915">
        <ele>341.6</ele>
        <time>2022-02-04T18:13:12Z</time>
      </trkpt>
      <trkpt lat="43.29531" lon="6.53912">
        <ele>342.2</ele>
        <time>2022-02-04T18:13:13Z</time>
      </trkpt>
      <trkpt lat="43.29533" lon="6.53909">
        <ele>342.6</ele>
        <time>2022-02-04T18:13:14Z</time>
      </trkpt>
      <trkpt lat="43.29536" lon="6.53908">
        <ele>342.8</ele>
        <time>2022-02-04T18:13:15Z</time>
      </trkpt>
      <trkpt lat="43.29539" lon="6.53908">
        <ele>343.4</ele>
        <time>2022-02-04T18:13:16Z</time>
      </trkpt>
      <trkpt lat="43.29542" lon="6.53909">
        <ele>343.6</ele>
        <time>2022-02-04T18:13:17Z</time>
      </trkpt>
      <trkpt lat="43.29545" lon="6.53909">
        <ele>344.2</ele>
        <time>2022-02-04T18:13:18Z</time>
      </trkpt>
      <trkpt lat="43.29548" lon="6.53908">
        <ele>344.4</ele>
        <time>2022-02-04T18:13:19Z</time>
      </trkpt>
      <trkpt lat="43.29551" lon="6.53907">
        <ele>344.8</ele>
        <time>2022-02-04T18:13:20Z</time>
      </trkpt>
      <trkpt lat="43.29553" lon="6.53905">
        <ele>345.2</ele>
        <time>2022-02-04T18:13:21Z</time>
      </trkpt>
      <trkpt lat="43.29554" lon="6.53902">
        <ele>345.6</ele>
        <time>2022-02-04T18:13:22Z</time>
      </trkpt>
      <trkpt lat="43.29555" lon="6.53899">
        <ele>346.2</ele>
        <time>2022-02-04T18:13:23Z</time>
      </trkpt>
      <trkpt lat="43.29555" lon="6.53896">
        <ele>346.6</ele>
        <time>2022-02-04T18:13:24Z</time>
      </trkpt>
      <trkpt lat="43.29555" lon="6.53893">
        <ele>347.4</ele>
        <time>2022-02-04T18:13:25Z</time>
      </trkpt>
      <trkpt lat="43.29557" lon="6.53889">
        <ele>347.8</ele>
        <time>2022-02-04T18:13:26Z</time>
      </trkpt>
      <trkpt lat="43.29558" lon="6.53887">
        <ele>348</ele>
        <time>2022-02-04T18:13:27Z</time>
      </trkpt>
      <trkpt lat="43.2956" lon="6.53884">
        <ele>348.4</ele>
        <time>2022-02-04T18:13:28Z</time>
      </trkpt>
      <trkpt lat="43.29562" lon="6.53882">
        <ele>348.6</ele>
        <time>2022-02-04T18:13:29Z</time>
      </trkpt>
      <trkpt lat="43.29564" lon="6.53881">
        <ele>349</ele>
        <time>2022-02-04T18:13:30Z</time>
      </trkpt>
      <trkpt lat="43.29566" lon="6.53881">
        <ele>349.6</ele>
        <time>2022-02-04T18:13:31Z</time>
      </trkpt>
      <trkpt lat="43.29568" lon="6.53882">
        <ele>350.4</ele>
        <time>2022-02-04T18:13:32Z</time>
      </trkpt>
      <trkpt lat="43.29571" lon="6.53883">
        <ele>350.8</ele>
        <time>2022-02-04T18:13:33Z</time>
      </trkpt>
      <trkpt lat="43.29573" lon="6.53883">
        <ele>351.4</ele>
        <time>2022-02-04T18:13:34Z</time>
      </trkpt>
      <trkpt lat="43.29574" lon="6.53885">
        <ele>351.6</ele>
        <time>2022-02-04T18:13:35Z</time>
      </trkpt>
      <trkpt lat="43.29576" lon="6.53886">
        <ele>351.8</ele>
        <time>2022-02-04T18:13:36Z</time>
      </trkpt>
      <trkpt lat="43.29577" lon="6.53885">
        <ele>351.8</ele>
        <time>2022-02-04T18:13:37Z</time>
      </trkpt>
      <trkpt lat="43.29577" lon="6.53884">
        <ele>352</ele>
        <time>2022-02-04T18:13:38Z</time>
      </trkpt>
      <trkpt lat="43.29577" lon="6.53882">
        <ele>352.2</ele>
        <time>2022-02-04T18:13:39Z</time>
      </trkpt>
      <trkpt lat="43.29576" lon="6.53879">
        <ele>352.2</ele>
        <time>2022-02-04T18:13:40Z</time>
      </trkpt>
      <trkpt lat="43.29576" lon="6.53876">
        <ele>352.2</ele>
        <time>2022-02-04T18:13:41Z</time>
      </trkpt>
      <trkpt lat="43.29577" lon="6.53873">
        <ele>352.2</ele>
        <time>2022-02-04T18:13:42Z</time>
      </trkpt>
      <trkpt lat="43.29578" lon="6.5387">
        <ele>352.4</ele>
        <time>2022-02-04T18:13:43Z</time>
      </trkpt>
      <trkpt lat="43.29578" lon="6.53866">
        <ele>352.6</ele>
        <time>2022-02-04T18:13:44Z</time>
      </trkpt>
      <trkpt lat="43.29579" lon="6.53863">
        <ele>352.8</ele>
        <time>2022-02-04T18:13:45Z</time>
      </trkpt>
      <trkpt lat="43.2958" lon="6.5386">
        <ele>353.2</ele>
        <time>2022-02-04T18:13:46Z</time>
      </trkpt>
      <trkpt lat="43.29581" lon="6.53857">
        <ele>353.4</ele>
        <time>2022-02-04T18:13:47Z</time>
      </trkpt>
      <trkpt lat="43.29583" lon="6.53856">
        <ele>353.6</ele>
        <time>2022-02-04T18:13:48Z</time>
      </trkpt>
      <trkpt lat="43.29584" lon="6.53857">
        <ele>353.8</ele>
        <time>2022-02-04T18:13:49Z</time>
      </trkpt>
      <trkpt lat="43.29585" lon="6.5386">
        <ele>354.2</ele>
        <time>2022-02-04T18:13:50Z</time>
      </trkpt>
      <trkpt lat="43.29585" lon="6.53862">
        <ele>354.2</ele>
        <time>2022-02-04T18:13:51Z</time>
      </trkpt>
      <trkpt lat="43.29585" lon="6.53865">
        <ele>354.2</ele>
        <time>2022-02-04T18:13:52Z</time>
      </trkpt>
      <trkpt lat="43.29584" lon="6.53866">
        <ele>354.4</ele>
        <time>2022-02-04T18:13:53Z</time>
      </trkpt>
      <trkpt lat="43.29584" lon="6.53867">
        <ele>354.2</ele>
        <time>2022-02-04T18:13:54Z</time>
      </trkpt>
      <trkpt lat="43.29584" lon="6.53866">
        <ele>354</ele>
        <time>2022-02-04T18:13:55Z</time>
      </trkpt>
      <trkpt lat="43.29585" lon="6.53864">
        <ele>354</ele>
        <time>2022-02-04T18:13:56Z</time>
      </trkpt>
      <trkpt lat="43.29585" lon="6.53863">
        <ele>354</ele>
        <time>2022-02-04T18:13:57Z</time>
      </trkpt>
      <trkpt lat="43.29587" lon="6.53862">
        <ele>354</ele>
        <time>2022-02-04T18:13:58Z</time>
      </trkpt>
      <trkpt lat="43.29588" lon="6.53862">
        <ele>354.2</ele>
        <time>2022-02-04T18:13:59Z</time>
      </trkpt>
      <trkpt lat="43.2959" lon="6.53863">
        <ele>354.2</ele>
        <time>2022-02-04T18:14:00Z</time>
      </trkpt>
      <trkpt lat="43.29591" lon="6.53863">
        <ele>354.4</ele>
        <time>2022-02-04T18:14:01Z</time>
      </trkpt>
      <trkpt lat="43.29593" lon="6.53862">
        <ele>354.6</ele>
        <time>2022-02-04T18:14:02Z</time>
      </trkpt>
      <trkpt lat="43.29593" lon="6.53862">
        <ele>354.6</ele>
        <time>2022-02-04T18:14:03Z</time>
      </trkpt>
      <trkpt lat="43.29593" lon="6.53862">
        <ele>354.6</ele>
        <time>2022-02-04T18:14:04Z</time>
      </trkpt>
      <trkpt lat="43.29593" lon="6.53862">
        <ele>354.6</ele>
        <time>2022-02-04T18:14:05Z</time>
      </trkpt>
      <trkpt lat="43.29593" lon="6.53862">
        <ele>354.6</ele>
        <time>2022-02-04T18:14:06Z</time>
      </trkpt>
      <trkpt lat="43.29593" lon="6.53862">
        <ele>354.6</ele>
        <time>2022-02-04T18:14:07Z</time>
      </trkpt>
      <trkpt lat="43.29593" lon="6.53862">
        <ele>354.4</ele>
        <time>2022-02-04T18:14:08Z</time>
      </trkpt>
      <trkpt lat="43.29593" lon="6.53862">
        <ele>354.4</ele>
        <time>2022-02-04T18:14:09Z</time>
      </trkpt>
      <trkpt lat="43.29593" lon="6.53862">
        <ele>354.4</ele>
        <time>2022-02-04T18:14:10Z</time>
      </trkpt>
      <trkpt lat="43.29594" lon="6.53862">
        <ele>354.4</ele>
        <time>2022-02-04T18:14:11Z</time>
      </trkpt>
      <trkpt lat="43.29594" lon="6.53862">
        <ele>354.4</ele>
        <time>2022-02-04T18:14:12Z</time>
      </trkpt>
      <trkpt lat="43.29594" lon="6.53862">
        <ele>354.4</ele>
        <time>2022-02-04T18:14:13Z</time>
      </trkpt>
      <trkpt lat="43.29594" lon="6.53862">
        <ele>354.4</ele>
        <time>2022-02-04T18:14:14Z</time>
      </trkpt>
      <trkpt lat="43.29595" lon="6.53862">
        <ele>354.4</ele>
        <time>2022-02-04T18:14:15Z</time>
      </trkpt>
      <trkpt lat="43.29595" lon="6.53861">
        <ele>354.4</ele>
        <time>2022-02-04T18:14:16Z</time>
      </trkpt>
      <trkpt lat="43.29595" lon="6.53861">
        <ele>354.2</ele>
        <time>2022-02-04T18:14:17Z</time>
      </trkpt>
      <trkpt lat="43.29595" lon="6.53861">
        <ele>354.2</ele>
        <time>2022-02-04T18:14:18Z</time>
      </trkpt>
      <trkpt lat="43.29595" lon="6.53861">
        <ele>354.2</ele>
        <time>2022-02-04T18:14:19Z</time>
      </trkpt>
      <trkpt lat="43.29595" lon="6.53861">
        <ele>354.2</ele>
        <time>2022-02-04T18:14:20Z</time>
      </trkpt>
      <trkpt lat="43.29595" lon="6.53861">
        <ele>354.2</ele>
        <time>2022-02-04T18:14:21Z</time>
      </trkpt>
      <trkpt lat="43.29595" lon="6.53861">
        <ele>354.2</ele>
        <time>2022-02-04T18:14:22Z</time>
      </trkpt>
      <trkpt lat="43.29595" lon="6.53861">
        <ele>354</ele>
        <time>2022-02-04T18:14:23Z</time>
      </trkpt>
      <trkpt lat="43.29595" lon="6.53861">
        <ele>354</ele>
        <time>2022-02-04T18:14:24Z</time>
      </trkpt>
      <trkpt lat="43.29595" lon="6.53861">
        <ele>354</ele>
        <time>2022-02-04T18:14:25Z</time>
      </trkpt>
      <trkpt lat="43.29595" lon="6.53861">
        <ele>354</ele>
        <time>2022-02-04T18:14:26Z</time>
      </trkpt>
      <trkpt lat="43.29595" lon="6.53861">
        <ele>354</ele>
        <time>2022-02-04T18:14:27Z</time>
      </trkpt>
      <trkpt lat="43.29595" lon="6.53861">
        <ele>353.8</ele>
        <time>2022-02-04T18:14:28Z</time>
      </trkpt>
      <trkpt lat="43.29595" lon="6.53861">
        <ele>353.8</ele>
        <time>2022-02-04T18:14:29Z</time>
      </trkpt>
      <trkpt lat="43.29595" lon="6.53861">
        <ele>353.8</ele>
        <time>2022-02-04T18:14:30Z</time>
      </trkpt>
      <trkpt lat="43.29595" lon="6.53861">
        <ele>353.8</ele>
        <time>2022-02-04T18:14:31Z</time>
      </trkpt>
      <trkpt lat="43.29595" lon="6.53861">
        <ele>353.8</ele>
        <time>2022-02-04T18:14:32Z</time>
      </trkpt>
      <trkpt lat="43.29595" lon="6.53861">
        <ele>353.8</ele>
        <time>2022-02-04T18:14:33Z</time>
      </trkpt>
      <trkpt lat="43.29595" lon="6.53861">
        <ele>353.8</ele>
        <time>2022-02-04T18:14:34Z</time>
      </trkpt>
      <trkpt lat="43.29595" lon="6.53861">
        <ele>353.8</ele>
        <time>2022-02-04T18:14:35Z</time>
      </trkpt>
      <trkpt lat="43.29595" lon="6.53861">
        <ele>353.8</ele>
        <time>2022-02-04T18:14:36Z</time>
      </trkpt>
      <trkpt lat="43.29595" lon="6.53861">
        <ele>353.8</ele>
        <time>2022-02-04T18:14:37Z</time>
      </trkpt>
      <trkpt lat="43.29595" lon="6.53861">
        <ele>353.8</ele>
        <time>2022-02-04T18:14:38Z</time>
      </trkpt>
      <trkpt lat="43.29595" lon="6.53861">
        <ele>353.8</ele>
        <time>2022-02-04T18:14:39Z</time>
      </trkpt>
      <trkpt lat="43.29595" lon="6.53861">
        <ele>353.6</ele>
        <time>2022-02-04T18:14:40Z</time>
      </trkpt>
      <trkpt lat="43.29595" lon="6.53861">
        <ele>353.6</ele>
        <time>2022-02-04T18:14:41Z</time>
      </trkpt>
      <trkpt lat="43.29595" lon="6.53861">
        <ele>353.6</ele>
        <time>2022-02-04T18:14:42Z</time>
      </trkpt>
      <trkpt lat="43.29595" lon="6.53861">
        <ele>353.6</ele>
        <time>2022-02-04T18:14:43Z</time>
      </trkpt>
      <trkpt lat="43.29595" lon="6.53861">
        <ele>353.6</ele>
        <time>2022-02-04T18:14:44Z</time>
      </trkpt>
      <trkpt lat="43.29595" lon="6.53861">
        <ele>353.6</ele>
        <time>2022-02-04T18:14:45Z</time>
      </trkpt>
      <trkpt lat="43.29595" lon="6.53861">
        <ele>353.6</ele>
        <time>2022-02-04T18:14:46Z</time>
      </trkpt>
      <trkpt lat="43.29595" lon="6.53861">
        <ele>353.6</ele>
        <time>2022-02-04T18:14:47Z</time>
      </trkpt>
      <trkpt lat="43.29595" lon="6.53861">
        <ele>353.6</ele>
        <time>2022-02-04T18:14:48Z</time>
      </trkpt>
      <trkpt lat="43.29595" lon="6.53861">
        <ele>353.4</ele>
        <time>2022-02-04T18:14:49Z</time>
      </trkpt>
      <trkpt lat="43.29595" lon="6.53861">
        <ele>353.4</ele>
        <time>2022-02-04T18:14:50Z</time>
      </trkpt>
      <trkpt lat="43.29595" lon="6.53861">
        <ele>353.4</ele>
        <time>2022-02-04T18:14:51Z</time>
      </trkpt>
      <trkpt lat="43.29595" lon="6.53861">
        <ele>353.2</ele>
        <time>2022-02-04T18:14:52Z</time>
      </trkpt>
      <trkpt lat="43.29595" lon="6.53861">
        <ele>353.2</ele>
        <time>2022-02-04T18:14:53Z</time>
      </trkpt>
      <trkpt lat="43.29595" lon="6.53861">
        <ele>353.2</ele>
        <time>2022-02-04T18:14:54Z</time>
      </trkpt>
      <trkpt lat="43.29595" lon="6.53861">
        <ele>353.2</ele>
        <time>2022-02-04T18:14:55Z</time>
      </trkpt>
      <trkpt lat="43.29595" lon="6.53861">
        <ele>353.2</ele>
        <time>2022-02-04T18:14:56Z</time>
      </trkpt>
      <trkpt lat="43.29595" lon="6.53861">
        <ele>353.2</ele>
        <time>2022-02-04T18:14:57Z</time>
      </trkpt>
      <trkpt lat="43.29595" lon="6.53861">
        <ele>353.2</ele>
        <time>2022-02-04T18:14:58Z</time>
      </trkpt>
      <trkpt lat="43.29595" lon="6.53861">
        <ele>353.2</ele>
        <time>2022-02-04T18:14:59Z</time>
      </trkpt>
      <trkpt lat="43.29595" lon="6.53861">
        <ele>353.2</ele>
        <time>2022-02-04T18:15:00Z</time>
      </trkpt>
      <trkpt lat="43.29595" lon="6.53861">
        <ele>353.2</ele>
        <time>2022-02-04T18:15:01Z</time>
      </trkpt>
      <trkpt lat="43.29595" lon="6.53861">
        <ele>353.2</ele>
        <time>2022-02-04T18:15:02Z</time>
      </trkpt>
      <trkpt lat="43.29595" lon="6.53861">
        <ele>353.2</ele>
        <time>2022-02-04T18:15:03Z</time>
      </trkpt>
      <trkpt lat="43.29595" lon="6.53861">
        <ele>353.2</ele>
        <time>2022-02-04T18:15:04Z</time>
      </trkpt>
      <trkpt lat="43.29595" lon="6.53861">
        <ele>353.2</ele>
        <time>2022-02-04T18:15:05Z</time>
      </trkpt>
      <trkpt lat="43.29595" lon="6.53861">
        <ele>353.2</ele>
        <time>2022-02-04T18:15:06Z</time>
      </trkpt>
      <trkpt lat="43.29595" lon="6.53861">
        <ele>353.2</ele>
        <time>2022-02-04T18:15:07Z</time>
      </trkpt>
      <trkpt lat="43.29595" lon="6.53861">
        <ele>353.2</ele>
        <time>2022-02-04T18:15:08Z</time>
      </trkpt>
      <trkpt lat="43.29595" lon="6.53861">
        <ele>353.2</ele>
        <time>2022-02-04T18:15:09Z</time>
      </trkpt>
      <trkpt lat="43.29595" lon="6.53861">
        <ele>353.2</ele>
        <time>2022-02-04T18:15:10Z</time>
      </trkpt>
      <trkpt lat="43.29595" lon="6.53861">
        <ele>353.2</ele>
        <time>2022-02-04T18:15:11Z</time>
      </trkpt>
      <trkpt lat="43.29595" lon="6.53861">
        <ele>353.2</ele>
        <time>2022-02-04T18:15:12Z</time>
      </trkpt>
      <trkpt lat="43.29595" lon="6.53861">
        <ele>353.2</ele>
        <time>2022-02-04T18:15:13Z</time>
      </trkpt>
      <trkpt lat="43.29595" lon="6.53861">
        <ele>353.2</ele>
        <time>2022-02-04T18:15:14Z</time>
      </trkpt>
      <trkpt lat="43.29595" lon="6.53861">
        <ele>353.2</ele>
        <time>2022-02-04T18:15:15Z</time>
      </trkpt>
      <trkpt lat="43.29595" lon="6.53861">
        <ele>353.2</ele>
        <time>2022-02-04T18:15:16Z</time>
      </trkpt>
      <trkpt lat="43.29595" lon="6.53861">
        <ele>353.2</ele>
        <time>2022-02-04T18:15:17Z</time>
      </trkpt>
      <trkpt lat="43.29595" lon="6.53861">
        <ele>353.2</ele>
        <time>2022-02-04T18:15:18Z</time>
      </trkpt>
      <trkpt lat="43.29595" lon="6.53861">
        <ele>353.2</ele>
        <time>2022-02-04T18:15:19Z</time>
      </trkpt>
      <trkpt lat="43.29595" lon="6.53861">
        <ele>353.2</ele>
        <time>2022-02-04T18:15:20Z</time>
      </trkpt>
      <trkpt lat="43.29595" lon="6.53861">
        <ele>353.2</ele>
        <time>2022-02-04T18:15:21Z</time>
      </trkpt>
      <trkpt lat="43.29595" lon="6.53861">
        <ele>353.2</ele>
        <time>2022-02-04T18:15:22Z</time>
      </trkpt>
      <trkpt lat="43.29595" lon="6.53861">
        <ele>353.2</ele>
        <time>2022-02-04T18:15:23Z</time>
      </trkpt>
      <trkpt lat="43.29595" lon="6.53861">
        <ele>353.2</ele>
        <time>2022-02-04T18:15:24Z</time>
      </trkpt>
      <trkpt lat="43.29595" lon="6.53861">
        <ele>353.2</ele>
        <time>2022-02-04T18:15:25Z</time>
      </trkpt>
      <trkpt lat="43.29595" lon="6.53861">
        <ele>353.2</ele>
        <time>2022-02-04T18:15:26Z</time>
      </trkpt>
      <trkpt lat="43.29595" lon="6.53861">
        <ele>353.2</ele>
        <time>2022-02-04T18:15:27Z</time>
      </trkpt>
      <trkpt lat="43.29595" lon="6.53861">
        <ele>353</ele>
        <time>2022-02-04T18:15:28Z</time>
      </trkpt>
      <trkpt lat="43.29595" lon="6.53861">
        <ele>352.8</ele>
        <time>2022-02-04T18:15:29Z</time>
      </trkpt>
      <trkpt lat="43.29595" lon="6.53861">
        <ele>352.8</ele>
        <time>2022-02-04T18:15:30Z</time>
      </trkpt>
      <trkpt lat="43.29595" lon="6.53861">
        <ele>352.6</ele>
        <time>2022-02-04T18:15:31Z</time>
      </trkpt>
      <trkpt lat="43.29595" lon="6.53861">
        <ele>352.6</ele>
        <time>2022-02-04T18:15:32Z</time>
      </trkpt>
      <trkpt lat="43.29595" lon="6.53861">
        <ele>352.6</ele>
        <time>2022-02-04T18:15:33Z</time>
      </trkpt>
      <trkpt lat="43.29595" lon="6.53861">
        <ele>352.6</ele>
        <time>2022-02-04T18:15:34Z</time>
      </trkpt>
      <trkpt lat="43.29595" lon="6.53861">
        <ele>352.6</ele>
        <time>2022-02-04T18:15:35Z</time>
      </trkpt>
      <trkpt lat="43.29595" lon="6.53861">
        <ele>352.6</ele>
        <time>2022-02-04T18:15:36Z</time>
      </trkpt>
      <trkpt lat="43.29595" lon="6.53861">
        <ele>352.6</ele>
        <time>2022-02-04T18:15:37Z</time>
      </trkpt>
      <trkpt lat="43.29595" lon="6.53861">
        <ele>352.6</ele>
        <time>2022-02-04T18:15:38Z</time>
      </trkpt>
      <trkpt lat="43.29595" lon="6.53861">
        <ele>352.6</ele>
        <time>2022-02-04T18:15:39Z</time>
      </trkpt>
      <trkpt lat="43.29595" lon="6.53861">
        <ele>352.6</ele>
        <time>2022-02-04T18:15:40Z</time>
      </trkpt>
      <trkpt lat="43.29595" lon="6.53861">
        <ele>352.4</ele>
        <time>2022-02-04T18:15:41Z</time>
      </trkpt>
      <trkpt lat="43.29595" lon="6.53861">
        <ele>352.4</ele>
        <time>2022-02-04T18:15:42Z</time>
      </trkpt>
      <trkpt lat="43.29595" lon="6.53861">
        <ele>352.4</ele>
        <time>2022-02-04T18:15:43Z</time>
      </trkpt>
      <trkpt lat="43.29595" lon="6.53861">
        <ele>352.4</ele>
        <time>2022-02-04T18:15:44Z</time>
      </trkpt>
      <trkpt lat="43.29595" lon="6.53861">
        <ele>352.4</ele>
        <time>2022-02-04T18:15:45Z</time>
      </trkpt>
      <trkpt lat="43.29595" lon="6.53861">
        <ele>352.4</ele>
        <time>2022-02-04T18:15:46Z</time>
      </trkpt>
      <trkpt lat="43.29595" lon="6.53861">
        <ele>352.4</ele>
        <time>2022-02-04T18:15:47Z</time>
      </trkpt>
      <trkpt lat="43.29595" lon="6.53861">
        <ele>352.4</ele>
        <time>2022-02-04T18:15:48Z</time>
      </trkpt>
      <trkpt lat="43.29596" lon="6.53861">
        <ele>352.6</ele>
        <time>2022-02-04T18:15:49Z</time>
      </trkpt>
      <trkpt lat="43.29596" lon="6.53861">
        <ele>352.6</ele>
        <time>2022-02-04T18:15:50Z</time>
      </trkpt>
      <trkpt lat="43.29596" lon="6.53861">
        <ele>352.4</ele>
        <time>2022-02-04T18:15:51Z</time>
      </trkpt>
      <trkpt lat="43.29596" lon="6.53861">
        <ele>352.4</ele>
        <time>2022-02-04T18:15:52Z</time>
      </trkpt>
      <trkpt lat="43.29596" lon="6.53861">
        <ele>352.4</ele>
        <time>2022-02-04T18:15:53Z</time>
      </trkpt>
      <trkpt lat="43.29596" lon="6.53861">
        <ele>352.4</ele>
        <time>2022-02-04T18:15:54Z</time>
      </trkpt>
      <trkpt lat="43.29596" lon="6.53861">
        <ele>352.4</ele>
        <time>2022-02-04T18:15:55Z</time>
      </trkpt>
      <trkpt lat="43.29596" lon="6.53861">
        <ele>352.4</ele>
        <time>2022-02-04T18:15:56Z</time>
      </trkpt>
      <trkpt lat="43.29596" lon="6.53861">
        <ele>352.4</ele>
        <time>2022-02-04T18:15:57Z</time>
      </trkpt>
      <trkpt lat="43.29596" lon="6.53861">
        <ele>352.4</ele>
        <time>2022-02-04T18:15:58Z</time>
      </trkpt>
      <trkpt lat="43.29596" lon="6.53861">
        <ele>352.4</ele>
        <time>2022-02-04T18:15:59Z</time>
      </trkpt>
      <trkpt lat="43.29596" lon="6.53861">
        <ele>352.4</ele>
        <time>2022-02-04T18:16:00Z</time>
      </trkpt>
      <trkpt lat="43.29596" lon="6.53861">
        <ele>352.4</ele>
        <time>2022-02-04T18:16:01Z</time>
      </trkpt>
      <trkpt lat="43.29596" lon="6.53861">
        <ele>352.6</ele>
        <time>2022-02-04T18:16:02Z</time>
      </trkpt>
      <trkpt lat="43.29596" lon="6.53861">
        <ele>352.6</ele>
        <time>2022-02-04T18:16:03Z</time>
      </trkpt>
      <trkpt lat="43.29596" lon="6.5386">
        <ele>352.6</ele>
        <time>2022-02-04T18:16:04Z</time>
      </trkpt>
      <trkpt lat="43.29597" lon="6.5386">
        <ele>352.6</ele>
        <time>2022-02-04T18:16:05Z</time>
      </trkpt>
      <trkpt lat="43.29597" lon="6.5386">
        <ele>352.6</ele>
        <time>2022-02-04T18:16:06Z</time>
      </trkpt>
      <trkpt lat="43.29597" lon="6.5386">
        <ele>352.6</ele>
        <time>2022-02-04T18:16:07Z</time>
      </trkpt>
      <trkpt lat="43.29597" lon="6.5386">
        <ele>352.4</ele>
        <time>2022-02-04T18:16:08Z</time>
      </trkpt>
      <trkpt lat="43.29597" lon="6.5386">
        <ele>352.4</ele>
        <time>2022-02-04T18:16:09Z</time>
      </trkpt>
      <trkpt lat="43.29597" lon="6.5386">
        <ele>352.4</ele>
        <time>2022-02-04T18:16:10Z</time>
      </trkpt>
      <trkpt lat="43.29597" lon="6.5386">
        <ele>352.4</ele>
        <time>2022-02-04T18:16:11Z</time>
      </trkpt>
      <trkpt lat="43.29597" lon="6.5386">
        <ele>352.4</ele>
        <time>2022-02-04T18:16:12Z</time>
      </trkpt>
      <trkpt lat="43.29597" lon="6.5386">
        <ele>352.4</ele>
        <time>2022-02-04T18:16:13Z</time>
      </trkpt>
      <trkpt lat="43.29597" lon="6.5386">
        <ele>352.4</ele>
        <time>2022-02-04T18:16:14Z</time>
      </trkpt>
      <trkpt lat="43.29597" lon="6.5386">
        <ele>352.4</ele>
        <time>2022-02-04T18:16:15Z</time>
      </trkpt>
      <trkpt lat="43.29597" lon="6.5386">
        <ele>352.4</ele>
        <time>2022-02-04T18:16:16Z</time>
      </trkpt>
      <trkpt lat="43.29597" lon="6.5386">
        <ele>352.4</ele>
        <time>2022-02-04T18:16:17Z</time>
      </trkpt>
      <trkpt lat="43.29597" lon="6.5386">
        <ele>352.4</ele>
        <time>2022-02-04T18:16:18Z</time>
      </trkpt>
      <trkpt lat="43.29597" lon="6.5386">
        <ele>352.4</ele>
        <time>2022-02-04T18:16:19Z</time>
      </trkpt>
      <trkpt lat="43.29597" lon="6.5386">
        <ele>352.4</ele>
        <time>2022-02-04T18:16:20Z</time>
      </trkpt>
      <trkpt lat="43.29597" lon="6.5386">
        <ele>352.4</ele>
        <time>2022-02-04T18:16:21Z</time>
      </trkpt>
      <trkpt lat="43.29597" lon="6.5386">
        <ele>352.4</ele>
        <time>2022-02-04T18:16:22Z</time>
      </trkpt>
      <trkpt lat="43.29597" lon="6.5386">
        <ele>352.4</ele>
        <time>2022-02-04T18:16:23Z</time>
      </trkpt>
      <trkpt lat="43.29597" lon="6.5386">
        <ele>352.4</ele>
        <time>2022-02-04T18:16:24Z</time>
      </trkpt>
      <trkpt lat="43.29597" lon="6.5386">
        <ele>352.4</ele>
        <time>2022-02-04T18:16:25Z</time>
      </trkpt>
      <trkpt lat="43.29597" lon="6.5386">
        <ele>352.4</ele>
        <time>2022-02-04T18:16:26Z</time>
      </trkpt>
      <trkpt lat="43.29597" lon="6.5386">
        <ele>352.4</ele>
        <time>2022-02-04T18:16:27Z</time>
      </trkpt>
      <trkpt lat="43.29597" lon="6.5386">
        <ele>352.4</ele>
        <time>2022-02-04T18:16:28Z</time>
      </trkpt>
      <trkpt lat="43.29597" lon="6.5386">
        <ele>352.4</ele>
        <time>2022-02-04T18:16:29Z</time>
      </trkpt>
      <trkpt lat="43.29597" lon="6.5386">
        <ele>352.4</ele>
        <time>2022-02-04T18:16:30Z</time>
      </trkpt>
      <trkpt lat="43.29597" lon="6.5386">
        <ele>352.4</ele>
        <time>2022-02-04T18:16:31Z</time>
      </trkpt>
      <trkpt lat="43.29597" lon="6.5386">
        <ele>352.4</ele>
        <time>2022-02-04T18:16:32Z</time>
      </trkpt>
      <trkpt lat="43.29597" lon="6.5386">
        <ele>352.4</ele>
        <time>2022-02-04T18:16:33Z</time>
      </trkpt>
      <trkpt lat="43.29597" lon="6.5386">
        <ele>352.4</ele>
        <time>2022-02-04T18:16:34Z</time>
      </trkpt>
      <trkpt lat="43.29597" lon="6.5386">
        <ele>352.4</ele>
        <time>2022-02-04T18:16:35Z</time>
      </trkpt>
      <trkpt lat="43.29597" lon="6.5386">
        <ele>352.4</ele>
        <time>2022-02-04T18:16:36Z</time>
      </trkpt>
      <trkpt lat="43.29597" lon="6.5386">
        <ele>352.4</ele>
        <time>2022-02-04T18:16:37Z</time>
      </trkpt>
      <trkpt lat="43.29597" lon="6.5386">
        <ele>352.4</ele>
        <time>2022-02-04T18:16:38Z</time>
      </trkpt>
      <trkpt lat="43.29597" lon="6.5386">
        <ele>352.4</ele>
        <time>2022-02-04T18:16:39Z</time>
      </trkpt>
      <trkpt lat="43.29597" lon="6.5386">
        <ele>352.4</ele>
        <time>2022-02-04T18:16:40Z</time>
      </trkpt>
      <trkpt lat="43.29597" lon="6.5386">
        <ele>352.4</ele>
        <time>2022-02-04T18:16:41Z</time>
      </trkpt>
      <trkpt lat="43.29597" lon="6.5386">
        <ele>352.4</ele>
        <time>2022-02-04T18:16:42Z</time>
      </trkpt>
      <trkpt lat="43.29597" lon="6.5386">
        <ele>352.4</ele>
        <time>2022-02-04T18:16:43Z</time>
      </trkpt>
      <trkpt lat="43.29597" lon="6.5386">
        <ele>352.4</ele>
        <time>2022-02-04T18:16:44Z</time>
      </trkpt>
      <trkpt lat="43.29597" lon="6.5386">
        <ele>352.4</ele>
        <time>2022-02-04T18:16:45Z</time>
      </trkpt>
      <trkpt lat="43.29597" lon="6.5386">
        <ele>352.4</ele>
        <time>2022-02-04T18:16:46Z</time>
      </trkpt>
      <trkpt lat="43.29597" lon="6.5386">
        <ele>352.4</ele>
        <time>2022-02-04T18:16:47Z</time>
      </trkpt>
      <trkpt lat="43.29597" lon="6.5386">
        <ele>352.4</ele>
        <time>2022-02-04T18:16:48Z</time>
      </trkpt>
      <trkpt lat="43.29597" lon="6.5386">
        <ele>352.4</ele>
        <time>2022-02-04T18:16:49Z</time>
      </trkpt>
      <trkpt lat="43.29597" lon="6.5386">
        <ele>352.4</ele>
        <time>2022-02-04T18:16:50Z</time>
      </trkpt>
      <trkpt lat="43.29597" lon="6.5386">
        <ele>352.4</ele>
        <time>2022-02-04T18:16:51Z</time>
      </trkpt>
      <trkpt lat="43.29597" lon="6.5386">
        <ele>352.4</ele>
        <time>2022-02-04T18:16:52Z</time>
      </trkpt>
      <trkpt lat="43.29597" lon="6.5386">
        <ele>352.4</ele>
        <time>2022-02-04T18:16:53Z</time>
      </trkpt>
      <trkpt lat="43.29597" lon="6.5386">
        <ele>352.4</ele>
        <time>2022-02-04T18:16:54Z</time>
      </trkpt>
      <trkpt lat="43.29597" lon="6.5386">
        <ele>352.4</ele>
        <time>2022-02-04T18:16:55Z</time>
      </trkpt>
      <trkpt lat="43.29597" lon="6.5386">
        <ele>352.4</ele>
        <time>2022-02-04T18:16:56Z</time>
      </trkpt>
      <trkpt lat="43.29597" lon="6.5386">
        <ele>352.4</ele>
        <time>2022-02-04T18:16:57Z</time>
      </trkpt>
      <trkpt lat="43.29597" lon="6.5386">
        <ele>352.4</ele>
        <time>2022-02-04T18:16:58Z</time>
      </trkpt>
      <trkpt lat="43.29597" lon="6.5386">
        <ele>352.4</ele>
        <time>2022-02-04T18:16:59Z</time>
      </trkpt>
      <trkpt lat="43.29597" lon="6.5386">
        <ele>352.4</ele>
        <time>2022-02-04T18:17:00Z</time>
      </trkpt>
      <trkpt lat="43.29597" lon="6.5386">
        <ele>352.4</ele>
        <time>2022-02-04T18:17:01Z</time>
      </trkpt>
      <trkpt lat="43.29597" lon="6.5386">
        <ele>352.4</ele>
        <time>2022-02-04T18:17:02Z</time>
      </trkpt>
      <trkpt lat="43.29597" lon="6.5386">
        <ele>352.4</ele>
        <time>2022-02-04T18:17:03Z</time>
      </trkpt>
      <trkpt lat="43.29597" lon="6.5386">
        <ele>352.4</ele>
        <time>2022-02-04T18:17:04Z</time>
      </trkpt>
      <trkpt lat="43.29597" lon="6.5386">
        <ele>352.4</ele>
        <time>2022-02-04T18:17:05Z</time>
      </trkpt>
      <trkpt lat="43.29597" lon="6.5386">
        <ele>352.4</ele>
        <time>2022-02-04T18:17:06Z</time>
      </trkpt>
      <trkpt lat="43.29597" lon="6.5386">
        <ele>352.4</ele>
        <time>2022-02-04T18:17:07Z</time>
      </trkpt>
      <trkpt lat="43.29597" lon="6.5386">
        <ele>352.4</ele>
        <time>2022-02-04T18:17:08Z</time>
      </trkpt>
      <trkpt lat="43.29597" lon="6.5386">
        <ele>352.4</ele>
        <time>2022-02-04T18:17:09Z</time>
      </trkpt>
      <trkpt lat="43.29597" lon="6.5386">
        <ele>352.4</ele>
        <time>2022-02-04T18:17:10Z</time>
      </trkpt>
      <trkpt lat="43.29597" lon="6.5386">
        <ele>352.4</ele>
        <time>2022-02-04T18:17:11Z</time>
      </trkpt>
      <trkpt lat="43.29597" lon="6.5386">
        <ele>352.4</ele>
        <time>2022-02-04T18:17:12Z</time>
      </trkpt>
      <trkpt lat="43.29597" lon="6.5386">
        <ele>352.4</ele>
        <time>2022-02-04T18:17:13Z</time>
      </trkpt>
      <trkpt lat="43.29597" lon="6.5386">
        <ele>352.4</ele>
        <time>2022-02-04T18:17:14Z</time>
      </trkpt>
      <trkpt lat="43.29597" lon="6.5386">
        <ele>352.4</ele>
        <time>2022-02-04T18:17:15Z</time>
      </trkpt>
      <trkpt lat="43.29597" lon="6.5386">
        <ele>352.4</ele>
        <time>2022-02-04T18:17:16Z</time>
      </trkpt>
      <trkpt lat="43.29597" lon="6.5386">
        <ele>352.4</ele>
        <time>2022-02-04T18:17:17Z</time>
      </trkpt>
      <trkpt lat="43.29597" lon="6.5386">
        <ele>352.4</ele>
        <time>2022-02-04T18:17:18Z</time>
      </trkpt>
      <trkpt lat="43.29597" lon="6.5386">
        <ele>352.4</ele>
        <time>2022-02-04T18:17:19Z</time>
      </trkpt>
      <trkpt lat="43.29597" lon="6.5386">
        <ele>352.4</ele>
        <time>2022-02-04T18:17:20Z</time>
      </trkpt>
      <trkpt lat="43.29597" lon="6.5386">
        <ele>352.4</ele>
        <time>2022-02-04T18:17:21Z</time>
      </trkpt>
      <trkpt lat="43.29597" lon="6.5386">
        <ele>352.4</ele>
        <time>2022-02-04T18:17:22Z</time>
      </trkpt>
      <trkpt lat="43.29597" lon="6.5386">
        <ele>352.4</ele>
        <time>2022-02-04T18:17:23Z</time>
      </trkpt>
      <trkpt lat="43.29597" lon="6.5386">
        <ele>352.4</ele>
        <time>2022-02-04T18:17:24Z</time>
      </trkpt>
      <trkpt lat="43.29597" lon="6.5386">
        <ele>352.4</ele>
        <time>2022-02-04T18:17:25Z</time>
      </trkpt>
      <trkpt lat="43.29597" lon="6.5386">
        <ele>352.4</ele>
        <time>2022-02-04T18:17:26Z</time>
      </trkpt>
      <trkpt lat="43.29597" lon="6.5386">
        <ele>352.4</ele>
        <time>2022-02-04T18:17:27Z</time>
      </trkpt>
      <trkpt lat="43.29597" lon="6.5386">
        <ele>352.4</ele>
        <time>2022-02-04T18:17:28Z</time>
      </trkpt>
      <trkpt lat="43.29597" lon="6.5386">
        <ele>352.4</ele>
        <time>2022-02-04T18:17:29Z</time>
      </trkpt>
      <trkpt lat="43.29597" lon="6.5386">
        <ele>352.4</ele>
        <time>2022-02-04T18:17:30Z</time>
      </trkpt>
      <trkpt lat="43.29597" lon="6.5386">
        <ele>352.4</ele>
        <time>2022-02-04T18:17:31Z</time>
      </trkpt>
      <trkpt lat="43.29597" lon="6.5386">
        <ele>352.4</ele>
        <time>2022-02-04T18:17:32Z</time>
      </trkpt>
      <trkpt lat="43.29597" lon="6.5386">
        <ele>352.4</ele>
        <time>2022-02-04T18:17:33Z</time>
      </trkpt>
      <trkpt lat="43.29597" lon="6.5386">
        <ele>352.4</ele>
        <time>2022-02-04T18:17:34Z</time>
      </trkpt>
      <trkpt lat="43.29597" lon="6.5386">
        <ele>352.4</ele>
        <time>2022-02-04T18:17:35Z</time>
      </trkpt>
      <trkpt lat="43.29597" lon="6.5386">
        <ele>352.4</ele>
        <time>2022-02-04T18:17:36Z</time>
      </trkpt>
      <trkpt lat="43.29597" lon="6.5386">
        <ele>352.4</ele>
        <time>2022-02-04T18:17:37Z</time>
      </trkpt>
      <trkpt lat="43.29597" lon="6.5386">
        <ele>352.4</ele>
        <time>2022-02-04T18:17:38Z</time>
      </trkpt>
      <trkpt lat="43.29597" lon="6.5386">
        <ele>352.4</ele>
        <time>2022-02-04T18:17:39Z</time>
      </trkpt>
      <trkpt lat="43.29597" lon="6.5386">
        <ele>352.4</ele>
        <time>2022-02-04T18:17:40Z</time>
      </trkpt>
      <trkpt lat="43.29597" lon="6.5386">
        <ele>352.4</ele>
        <time>2022-02-04T18:17:41Z</time>
      </trkpt>
      <trkpt lat="43.29597" lon="6.5386">
        <ele>352.4</ele>
        <time>2022-02-04T18:17:42Z</time>
      </trkpt>
      <trkpt lat="43.29597" lon="6.5386">
        <ele>352.4</ele>
        <time>2022-02-04T18:17:43Z</time>
      </trkpt>
      <trkpt lat="43.29597" lon="6.5386">
        <ele>352.4</ele>
        <time>2022-02-04T18:17:44Z</time>
      </trkpt>
      <trkpt lat="43.29597" lon="6.5386">
        <ele>352.4</ele>
        <time>2022-02-04T18:17:45Z</time>
      </trkpt>
      <trkpt lat="43.29597" lon="6.5386">
        <ele>352.4</ele>
        <time>2022-02-04T18:17:46Z</time>
      </trkpt>
      <trkpt lat="43.29597" lon="6.5386">
        <ele>352.4</ele>
        <time>2022-02-04T18:17:47Z</time>
      </trkpt>
      <trkpt lat="43.29597" lon="6.5386">
        <ele>352.4</ele>
        <time>2022-02-04T18:17:48Z</time>
      </trkpt>
      <trkpt lat="43.29597" lon="6.5386">
        <ele>352.4</ele>
        <time>2022-02-04T18:17:49Z</time>
      </trkpt>
      <trkpt lat="43.29597" lon="6.5386">
        <ele>352.4</ele>
        <time>2022-02-04T18:17:50Z</time>
      </trkpt>
      <trkpt lat="43.29597" lon="6.5386">
        <ele>352.4</ele>
        <time>2022-02-04T18:17:51Z</time>
      </trkpt>
      <trkpt lat="43.29597" lon="6.5386">
        <ele>352.4</ele>
        <time>2022-02-04T18:17:52Z</time>
      </trkpt>
      <trkpt lat="43.29597" lon="6.5386">
        <ele>352.4</ele>
        <time>2022-02-04T18:17:53Z</time>
      </trkpt>
      <trkpt lat="43.29597" lon="6.5386">
        <ele>352.4</ele>
        <time>2022-02-04T18:17:54Z</time>
      </trkpt>
      <trkpt lat="43.29597" lon="6.5386">
        <ele>352.4</ele>
        <time>2022-02-04T18:17:55Z</time>
      </trkpt>
      <trkpt lat="43.29597" lon="6.5386">
        <ele>352.4</ele>
        <time>2022-02-04T18:17:56Z</time>
      </trkpt>
      <trkpt lat="43.29597" lon="6.5386">
        <ele>352.4</ele>
        <time>2022-02-04T18:17:57Z</time>
      </trkpt>
      <trkpt lat="43.29597" lon="6.5386">
        <ele>352.4</ele>
        <time>2022-02-04T18:17:58Z</time>
      </trkpt>
      <trkpt lat="43.29597" lon="6.5386">
        <ele>352.4</ele>
        <time>2022-02-04T18:17:59Z</time>
      </trkpt>
      <trkpt lat="43.29597" lon="6.5386">
        <ele>352.4</ele>
        <time>2022-02-04T18:18:00Z</time>
      </trkpt>
      <trkpt lat="43.29597" lon="6.5386">
        <ele>352.4</ele>
        <time>2022-02-04T18:18:01Z</time>
      </trkpt>
      <trkpt lat="43.29597" lon="6.5386">
        <ele>352.4</ele>
        <time>2022-02-04T18:18:02Z</time>
      </trkpt>
      <trkpt lat="43.29597" lon="6.5386">
        <ele>352.4</ele>
        <time>2022-02-04T18:18:03Z</time>
      </trkpt>
      <trkpt lat="43.29597" lon="6.5386">
        <ele>352.4</ele>
        <time>2022-02-04T18:18:04Z</time>
      </trkpt>
      <trkpt lat="43.29597" lon="6.5386">
        <ele>352.4</ele>
        <time>2022-02-04T18:18:05Z</time>
      </trkpt>
      <trkpt lat="43.29597" lon="6.5386">
        <ele>352.4</ele>
        <time>2022-02-04T18:18:06Z</time>
      </trkpt>
      <trkpt lat="43.29597" lon="6.5386">
        <ele>352.4</ele>
        <time>2022-02-04T18:18:07Z</time>
      </trkpt>
      <trkpt lat="43.29597" lon="6.5386">
        <ele>352.4</ele>
        <time>2022-02-04T18:18:08Z</time>
      </trkpt>
      <trkpt lat="43.29597" lon="6.5386">
        <ele>352.4</ele>
        <time>2022-02-04T18:18:09Z</time>
      </trkpt>
      <trkpt lat="43.29597" lon="6.5386">
        <ele>352.4</ele>
        <time>2022-02-04T18:18:10Z</time>
      </trkpt>
      <trkpt lat="43.29597" lon="6.5386">
        <ele>352.4</ele>
        <time>2022-02-04T18:18:11Z</time>
      </trkpt>
      <trkpt lat="43.29597" lon="6.5386">
        <ele>352.4</ele>
        <time>2022-02-04T18:18:12Z</time>
      </trkpt>
      <trkpt lat="43.29597" lon="6.5386">
        <ele>352.4</ele>
        <time>2022-02-04T18:18:13Z</time>
      </trkpt>
      <trkpt lat="43.29597" lon="6.5386">
        <ele>352.4</ele>
        <time>2022-02-04T18:18:14Z</time>
      </trkpt>
      <trkpt lat="43.29597" lon="6.5386">
        <ele>352.4</ele>
        <time>2022-02-04T18:18:15Z</time>
      </trkpt>
      <trkpt lat="43.29597" lon="6.5386">
        <ele>352.4</ele>
        <time>2022-02-04T18:18:16Z</time>
      </trkpt>
      <trkpt lat="43.29597" lon="6.5386">
        <ele>352.4</ele>
        <time>2022-02-04T18:18:17Z</time>
      </trkpt>
      <trkpt lat="43.29597" lon="6.5386">
        <ele>352.4</ele>
        <time>2022-02-04T18:18:18Z</time>
      </trkpt>
      <trkpt lat="43.29597" lon="6.5386">
        <ele>352.4</ele>
        <time>2022-02-04T18:18:19Z</time>
      </trkpt>
      <trkpt lat="43.29597" lon="6.5386">
        <ele>352.4</ele>
        <time>2022-02-04T18:18:20Z</time>
      </trkpt>
      <trkpt lat="43.29597" lon="6.5386">
        <ele>352.4</ele>
        <time>2022-02-04T18:18:21Z</time>
      </trkpt>
      <trkpt lat="43.29597" lon="6.5386">
        <ele>352.4</ele>
        <time>2022-02-04T18:18:22Z</time>
      </trkpt>
      <trkpt lat="43.29597" lon="6.5386">
        <ele>352.4</ele>
        <time>2022-02-04T18:18:23Z</time>
      </trkpt>
      <trkpt lat="43.29597" lon="6.5386">
        <ele>352.4</ele>
        <time>2022-02-04T18:18:24Z</time>
      </trkpt>
      <trkpt lat="43.29597" lon="6.5386">
        <ele>352.4</ele>
        <time>2022-02-04T18:18:25Z</time>
      </trkpt>
      <trkpt lat="43.29597" lon="6.5386">
        <ele>352.4</ele>
        <time>2022-02-04T18:18:26Z</time>
      </trkpt>
      <trkpt lat="43.29597" lon="6.5386">
        <ele>352.4</ele>
        <time>2022-02-04T18:18:27Z</time>
      </trkpt>
      <trkpt lat="43.29597" lon="6.5386">
        <ele>352.4</ele>
        <time>2022-02-04T18:18:28Z</time>
      </trkpt>
      <trkpt lat="43.29597" lon="6.5386">
        <ele>352.4</ele>
        <time>2022-02-04T18:18:29Z</time>
      </trkpt>
      <trkpt lat="43.29597" lon="6.5386">
        <ele>352.4</ele>
        <time>2022-02-04T18:18:30Z</time>
      </trkpt>
      <trkpt lat="43.29597" lon="6.5386">
        <ele>352.4</ele>
        <time>2022-02-04T18:18:31Z</time>
      </trkpt>
      <trkpt lat="43.29597" lon="6.5386">
        <ele>352.4</ele>
        <time>2022-02-04T18:18:32Z</time>
      </trkpt>
      <trkpt lat="43.29597" lon="6.5386">
        <ele>352.4</ele>
        <time>2022-02-04T18:18:33Z</time>
      </trkpt>
      <trkpt lat="43.29597" lon="6.5386">
        <ele>352.4</ele>
        <time>2022-02-04T18:18:34Z</time>
      </trkpt>
      <trkpt lat="43.29597" lon="6.5386">
        <ele>352.4</ele>
        <time>2022-02-04T18:18:35Z</time>
      </trkpt>
      <trkpt lat="43.29597" lon="6.5386">
        <ele>352.4</ele>
        <time>2022-02-04T18:18:36Z</time>
      </trkpt>
      <trkpt lat="43.29597" lon="6.5386">
        <ele>352.4</ele>
        <time>2022-02-04T18:18:37Z</time>
      </trkpt>
      <trkpt lat="43.29597" lon="6.5386">
        <ele>352.4</ele>
        <time>2022-02-04T18:18:38Z</time>
      </trkpt>
      <trkpt lat="43.29597" lon="6.5386">
        <ele>352.4</ele>
        <time>2022-02-04T18:18:39Z</time>
      </trkpt>
      <trkpt lat="43.29597" lon="6.5386">
        <ele>352.4</ele>
        <time>2022-02-04T18:18:40Z</time>
      </trkpt>
      <trkpt lat="43.29597" lon="6.5386">
        <ele>352.4</ele>
        <time>2022-02-04T18:18:41Z</time>
      </trkpt>
      <trkpt lat="43.29597" lon="6.5386">
        <ele>352.4</ele>
        <time>2022-02-04T18:18:42Z</time>
      </trkpt>
      <trkpt lat="43.29597" lon="6.5386">
        <ele>352.4</ele>
        <time>2022-02-04T18:18:43Z</time>
      </trkpt>
      <trkpt lat="43.29597" lon="6.5386">
        <ele>352.4</ele>
        <time>2022-02-04T18:18:44Z</time>
      </trkpt>
      <trkpt lat="43.29597" lon="6.5386">
        <ele>352.4</ele>
        <time>2022-02-04T18:18:45Z</time>
      </trkpt>
      <trkpt lat="43.29597" lon="6.5386">
        <ele>352.4</ele>
        <time>2022-02-04T18:18:46Z</time>
      </trkpt>
      <trkpt lat="43.29597" lon="6.5386">
        <ele>352.4</ele>
        <time>2022-02-04T18:18:47Z</time>
      </trkpt>
      <trkpt lat="43.29597" lon="6.5386">
        <ele>352.4</ele>
        <time>2022-02-04T18:18:48Z</time>
      </trkpt>
      <trkpt lat="43.29597" lon="6.5386">
        <ele>352.4</ele>
        <time>2022-02-04T18:18:49Z</time>
      </trkpt>
      <trkpt lat="43.29597" lon="6.5386">
        <ele>352.4</ele>
        <time>2022-02-04T18:18:50Z</time>
      </trkpt>
      <trkpt lat="43.29597" lon="6.5386">
        <ele>352.4</ele>
        <time>2022-02-04T18:18:51Z</time>
      </trkpt>
      <trkpt lat="43.29597" lon="6.5386">
        <ele>352.4</ele>
        <time>2022-02-04T18:18:52Z</time>
      </trkpt>
      <trkpt lat="43.29597" lon="6.5386">
        <ele>352.4</ele>
        <time>2022-02-04T18:18:53Z</time>
      </trkpt>
      <trkpt lat="43.29597" lon="6.53861">
        <ele>352.4</ele>
        <time>2022-02-04T18:18:54Z</time>
      </trkpt>
      <trkpt lat="43.29597" lon="6.53861">
        <ele>352.4</ele>
        <time>2022-02-04T18:18:55Z</time>
      </trkpt>
      <trkpt lat="43.29597" lon="6.53861">
        <ele>352.4</ele>
        <time>2022-02-04T18:18:56Z</time>
      </trkpt>
      <trkpt lat="43.29597" lon="6.53861">
        <ele>352.4</ele>
        <time>2022-02-04T18:18:57Z</time>
      </trkpt>
      <trkpt lat="43.29597" lon="6.53861">
        <ele>352.4</ele>
        <time>2022-02-04T18:18:58Z</time>
      </trkpt>
      <trkpt lat="43.29597" lon="6.53861">
        <ele>352.4</ele>
        <time>2022-02-04T18:18:59Z</time>
      </trkpt>
      <trkpt lat="43.29597" lon="6.53861">
        <ele>352.4</ele>
        <time>2022-02-04T18:19:00Z</time>
      </trkpt>
      <trkpt lat="43.29597" lon="6.53861">
        <ele>352.4</ele>
        <time>2022-02-04T18:19:01Z</time>
      </trkpt>
      <trkpt lat="43.29597" lon="6.53861">
        <ele>352.4</ele>
        <time>2022-02-04T18:19:02Z</time>
      </trkpt>
      <trkpt lat="43.29597" lon="6.53861">
        <ele>352.4</ele>
        <time>2022-02-04T18:19:03Z</time>
      </trkpt>
      <trkpt lat="43.29597" lon="6.53861">
        <ele>352.4</ele>
        <time>2022-02-04T18:19:04Z</time>
      </trkpt>
      <trkpt lat="43.29597" lon="6.53861">
        <ele>352.4</ele>
        <time>2022-02-04T18:19:05Z</time>
      </trkpt>
      <trkpt lat="43.29597" lon="6.53861">
        <ele>352.4</ele>
        <time>2022-02-04T18:19:06Z</time>
      </trkpt>
      <trkpt lat="43.29597" lon="6.53861">
        <ele>352.4</ele>
        <time>2022-02-04T18:19:07Z</time>
      </trkpt>
      <trkpt lat="43.29597" lon="6.53861">
        <ele>352.4</ele>
        <time>2022-02-04T18:19:08Z</time>
      </trkpt>
      <trkpt lat="43.29597" lon="6.53861">
        <ele>352.4</ele>
        <time>2022-02-04T18:19:09Z</time>
      </trkpt>
      <trkpt lat="43.29597" lon="6.53861">
        <ele>352.4</ele>
        <time>2022-02-04T18:19:10Z</time>
      </trkpt>
      <trkpt lat="43.29597" lon="6.53861">
        <ele>352.4</ele>
        <time>2022-02-04T18:19:11Z</time>
      </trkpt>
      <trkpt lat="43.29597" lon="6.53861">
        <ele>352.4</ele>
        <time>2022-02-04T18:19:12Z</time>
      </trkpt>
      <trkpt lat="43.29597" lon="6.53861">
        <ele>352.4</ele>
        <time>2022-02-04T18:19:13Z</time>
      </trkpt>
      <trkpt lat="43.29597" lon="6.53861">
        <ele>352.4</ele>
        <time>2022-02-04T18:19:14Z</time>
      </trkpt>
      <trkpt lat="43.29597" lon="6.53861">
        <ele>352.4</ele>
        <time>2022-02-04T18:19:15Z</time>
      </trkpt>
      <trkpt lat="43.29597" lon="6.53861">
        <ele>352.4</ele>
        <time>2022-02-04T18:19:16Z</time>
      </trkpt>
      <trkpt lat="43.29597" lon="6.53861">
        <ele>352.4</ele>
        <time>2022-02-04T18:19:17Z</time>
      </trkpt>
      <trkpt lat="43.29597" lon="6.53861">
        <ele>352.4</ele>
        <time>2022-02-04T18:19:18Z</time>
      </trkpt>
      <trkpt lat="43.29597" lon="6.53861">
        <ele>352.4</ele>
        <time>2022-02-04T18:19:19Z</time>
      </trkpt>
      <trkpt lat="43.29597" lon="6.53861">
        <ele>352.4</ele>
        <time>2022-02-04T18:19:20Z</time>
      </trkpt>
      <trkpt lat="43.29597" lon="6.53861">
        <ele>352.4</ele>
        <time>2022-02-04T18:19:21Z</time>
      </trkpt>
      <trkpt lat="43.29597" lon="6.53861">
        <ele>352.4</ele>
        <time>2022-02-04T18:19:22Z</time>
      </trkpt>
      <trkpt lat="43.29597" lon="6.53861">
        <ele>352.4</ele>
        <time>2022-02-04T18:19:23Z</time>
      </trkpt>
      <trkpt lat="43.29597" lon="6.53861">
        <ele>352.4</ele>
        <time>2022-02-04T18:19:24Z</time>
      </trkpt>
      <trkpt lat="43.29597" lon="6.53861">
        <ele>352.4</ele>
        <time>2022-02-04T18:19:25Z</time>
      </trkpt>
      <trkpt lat="43.29597" lon="6.53861">
        <ele>352.4</ele>
        <time>2022-02-04T18:19:26Z</time>
      </trkpt>
      <trkpt lat="43.29597" lon="6.53861">
        <ele>352.4</ele>
        <time>2022-02-04T18:19:27Z</time>
      </trkpt>
      <trkpt lat="43.29597" lon="6.53861">
        <ele>352.4</ele>
        <time>2022-02-04T18:19:28Z</time>
      </trkpt>
      <trkpt lat="43.29597" lon="6.53861">
        <ele>352.4</ele>
        <time>2022-02-04T18:19:29Z</time>
      </trkpt>
      <trkpt lat="43.29597" lon="6.53861">
        <ele>352.4</ele>
        <time>2022-02-04T18:19:30Z</time>
      </trkpt>
      <trkpt lat="43.29597" lon="6.53861">
        <ele>352.4</ele>
        <time>2022-02-04T18:19:31Z</time>
      </trkpt>
      <trkpt lat="43.29597" lon="6.53861">
        <ele>352.4</ele>
        <time>2022-02-04T18:19:32Z</time>
      </trkpt>
      <trkpt lat="43.29597" lon="6.53861">
        <ele>352.4</ele>
        <time>2022-02-04T18:19:33Z</time>
      </trkpt>
      <trkpt lat="43.29597" lon="6.53861">
        <ele>352.4</ele>
        <time>2022-02-04T18:19:34Z</time>
      </trkpt>
      <trkpt lat="43.29597" lon="6.53861">
        <ele>352.4</ele>
        <time>2022-02-04T18:19:35Z</time>
      </trkpt>
      <trkpt lat="43.29597" lon="6.53861">
        <ele>352.4</ele>
        <time>2022-02-04T18:19:36Z</time>
      </trkpt>
      <trkpt lat="43.29597" lon="6.53861">
        <ele>352.4</ele>
        <time>2022-02-04T18:19:37Z</time>
      </trkpt>
      <trkpt lat="43.29597" lon="6.53861">
        <ele>352.4</ele>
        <time>2022-02-04T18:19:38Z</time>
      </trkpt>
      <trkpt lat="43.29597" lon="6.53861">
        <ele>352.4</ele>
        <time>2022-02-04T18:19:39Z</time>
      </trkpt>
      <trkpt lat="43.29597" lon="6.53861">
        <ele>352.4</ele>
        <time>2022-02-04T18:19:40Z</time>
      </trkpt>
      <trkpt lat="43.29597" lon="6.53861">
        <ele>352.4</ele>
        <time>2022-02-04T18:19:41Z</time>
      </trkpt>
      <trkpt lat="43.29597" lon="6.53861">
        <ele>352.4</ele>
        <time>2022-02-04T18:19:42Z</time>
      </trkpt>
      <trkpt lat="43.29597" lon="6.53861">
        <ele>352.4</ele>
        <time>2022-02-04T18:19:43Z</time>
      </trkpt>
      <trkpt lat="43.29597" lon="6.53861">
        <ele>352.4</ele>
        <time>2022-02-04T18:19:44Z</time>
      </trkpt>
      <trkpt lat="43.29597" lon="6.53861">
        <ele>352.4</ele>
        <time>2022-02-04T18:19:45Z</time>
      </trkpt>
      <trkpt lat="43.29597" lon="6.53861">
        <ele>352.4</ele>
        <time>2022-02-04T18:19:46Z</time>
      </trkpt>
      <trkpt lat="43.29597" lon="6.53861">
        <ele>352.4</ele>
        <time>2022-02-04T18:19:47Z</time>
      </trkpt>
      <trkpt lat="43.29597" lon="6.53861">
        <ele>352.4</ele>
        <time>2022-02-04T18:19:48Z</time>
      </trkpt>
      <trkpt lat="43.29597" lon="6.53861">
        <ele>352.4</ele>
        <time>2022-02-04T18:19:49Z</time>
      </trkpt>
      <trkpt lat="43.29597" lon="6.53861">
        <ele>352.4</ele>
        <time>2022-02-04T18:19:50Z</time>
      </trkpt>
      <trkpt lat="43.29597" lon="6.53861">
        <ele>352.4</ele>
        <time>2022-02-04T18:19:51Z</time>
      </trkpt>
      <trkpt lat="43.29597" lon="6.53861">
        <ele>352.4</ele>
        <time>2022-02-04T18:19:52Z</time>
      </trkpt>
      <trkpt lat="43.29597" lon="6.5386">
        <ele>352.4</ele>
        <time>2022-02-04T18:19:53Z</time>
      </trkpt>
      <trkpt lat="43.29597" lon="6.5386">
        <ele>352.4</ele>
        <time>2022-02-04T18:19:54Z</time>
      </trkpt>
      <trkpt lat="43.29596" lon="6.5386">
        <ele>352.4</ele>
        <time>2022-02-04T18:19:55Z</time>
      </trkpt>
      <trkpt lat="43.29596" lon="6.5386">
        <ele>352.4</ele>
        <time>2022-02-04T18:19:56Z</time>
      </trkpt>
      <trkpt lat="43.29596" lon="6.5386">
        <ele>352.4</ele>
        <time>2022-02-04T18:19:57Z</time>
      </trkpt>
      <trkpt lat="43.29596" lon="6.5386">
        <ele>352.4</ele>
        <time>2022-02-04T18:19:58Z</time>
      </trkpt>
      <trkpt lat="43.29596" lon="6.5386">
        <ele>352.4</ele>
        <time>2022-02-04T18:19:59Z</time>
      </trkpt>
      <trkpt lat="43.29596" lon="6.5386">
        <ele>352.4</ele>
        <time>2022-02-04T18:20:00Z</time>
      </trkpt>
      <trkpt lat="43.29596" lon="6.5386">
        <ele>352.4</ele>
        <time>2022-02-04T18:20:01Z</time>
      </trkpt>
      <trkpt lat="43.29596" lon="6.5386">
        <ele>352.4</ele>
        <time>2022-02-04T18:20:02Z</time>
      </trkpt>
      <trkpt lat="43.29596" lon="6.5386">
        <ele>352.4</ele>
        <time>2022-02-04T18:20:03Z</time>
      </trkpt>
      <trkpt lat="43.29596" lon="6.5386">
        <ele>352.4</ele>
        <time>2022-02-04T18:20:04Z</time>
      </trkpt>
      <trkpt lat="43.29596" lon="6.5386">
        <ele>352.4</ele>
        <time>2022-02-04T18:20:05Z</time>
      </trkpt>
      <trkpt lat="43.29596" lon="6.5386">
        <ele>352.4</ele>
        <time>2022-02-04T18:20:06Z</time>
      </trkpt>
      <trkpt lat="43.29596" lon="6.5386">
        <ele>352.4</ele>
        <time>2022-02-04T18:20:07Z</time>
      </trkpt>
      <trkpt lat="43.29596" lon="6.5386">
        <ele>352.4</ele>
        <time>2022-02-04T18:20:08Z</time>
      </trkpt>
      <trkpt lat="43.29596" lon="6.5386">
        <ele>352.4</ele>
        <time>2022-02-04T18:20:09Z</time>
      </trkpt>
      <trkpt lat="43.29596" lon="6.5386">
        <ele>352.4</ele>
        <time>2022-02-04T18:20:10Z</time>
      </trkpt>
      <trkpt lat="43.29596" lon="6.5386">
        <ele>352.4</ele>
        <time>2022-02-04T18:20:11Z</time>
      </trkpt>
      <trkpt lat="43.29597" lon="6.53861">
        <ele>352.4</ele>
        <time>2022-02-04T18:20:12Z</time>
      </trkpt>
      <trkpt lat="43.29597" lon="6.53861">
        <ele>352.4</ele>
        <time>2022-02-04T18:20:13Z</time>
      </trkpt>
      <trkpt lat="43.29597" lon="6.53861">
        <ele>352.4</ele>
        <time>2022-02-04T18:20:14Z</time>
      </trkpt>
      <trkpt lat="43.29597" lon="6.53861">
        <ele>352.4</ele>
        <time>2022-02-04T18:20:15Z</time>
      </trkpt>
      <trkpt lat="43.29597" lon="6.53861">
        <ele>352.4</ele>
        <time>2022-02-04T18:20:16Z</time>
      </trkpt>
      <trkpt lat="43.29597" lon="6.53861">
        <ele>352.4</ele>
        <time>2022-02-04T18:20:17Z</time>
      </trkpt>
      <trkpt lat="43.29597" lon="6.53861">
        <ele>352.4</ele>
        <time>2022-02-04T18:20:18Z</time>
      </trkpt>
      <trkpt lat="43.29597" lon="6.53861">
        <ele>352.4</ele>
        <time>2022-02-04T18:20:19Z</time>
      </trkpt>
      <trkpt lat="43.29597" lon="6.53861">
        <ele>352.4</ele>
        <time>2022-02-04T18:20:20Z</time>
      </trkpt>
      <trkpt lat="43.29597" lon="6.53861">
        <ele>352.4</ele>
        <time>2022-02-04T18:20:21Z</time>
      </trkpt>
      <trkpt lat="43.29597" lon="6.53861">
        <ele>352.4</ele>
        <time>2022-02-04T18:20:22Z</time>
      </trkpt>
      <trkpt lat="43.29597" lon="6.53861">
        <ele>352.4</ele>
        <time>2022-02-04T18:20:23Z</time>
      </trkpt>
      <trkpt lat="43.29597" lon="6.53861">
        <ele>352.4</ele>
        <time>2022-02-04T18:20:24Z</time>
      </trkpt>
      <trkpt lat="43.29597" lon="6.53861">
        <ele>352.4</ele>
        <time>2022-02-04T18:20:25Z</time>
      </trkpt>
      <trkpt lat="43.29597" lon="6.5386">
        <ele>352.4</ele>
        <time>2022-02-04T18:20:26Z</time>
      </trkpt>
      <trkpt lat="43.29597" lon="6.53858">
        <ele>352.4</ele>
        <time>2022-02-04T18:20:27Z</time>
      </trkpt>
      <trkpt lat="43.29598" lon="6.53856">
        <ele>352.4</ele>
        <time>2022-02-04T18:20:28Z</time>
      </trkpt>
      <trkpt lat="43.29598" lon="6.53854">
        <ele>352.4</ele>
        <time>2022-02-04T18:20:29Z</time>
      </trkpt>
      <trkpt lat="43.29599" lon="6.53852">
        <ele>352.4</ele>
        <time>2022-02-04T18:20:30Z</time>
      </trkpt>
      <trkpt lat="43.29599" lon="6.53851">
        <ele>352.6</ele>
        <time>2022-02-04T18:20:31Z</time>
      </trkpt>
      <trkpt lat="43.29598" lon="6.53849">
        <ele>352.6</ele>
        <time>2022-02-04T18:20:32Z</time>
      </trkpt>
      <trkpt lat="43.29597" lon="6.53849">
        <ele>352.6</ele>
        <time>2022-02-04T18:20:33Z</time>
      </trkpt>
      <trkpt lat="43.29595" lon="6.53848">
        <ele>352.8</ele>
        <time>2022-02-04T18:20:34Z</time>
      </trkpt>
      <trkpt lat="43.29593" lon="6.53847">
        <ele>352.8</ele>
        <time>2022-02-04T18:20:35Z</time>
      </trkpt>
      <trkpt lat="43.29592" lon="6.53845">
        <ele>352.8</ele>
        <time>2022-02-04T18:20:36Z</time>
      </trkpt>
      <trkpt lat="43.29591" lon="6.53842">
        <ele>352.8</ele>
        <time>2022-02-04T18:20:37Z</time>
      </trkpt>
      <trkpt lat="43.2959" lon="6.53837">
        <ele>352.8</ele>
        <time>2022-02-04T18:20:38Z</time>
      </trkpt>
      <trkpt lat="43.29588" lon="6.53832">
        <ele>352.8</ele>
        <time>2022-02-04T18:20:39Z</time>
      </trkpt>
      <trkpt lat="43.29586" lon="6.53828">
        <ele>352.8</ele>
        <time>2022-02-04T18:20:40Z</time>
      </trkpt>
      <trkpt lat="43.29582" lon="6.53825">
        <ele>352.6</ele>
        <time>2022-02-04T18:20:41Z</time>
      </trkpt>
      <trkpt lat="43.29577" lon="6.53822">
        <ele>352.6</ele>
        <time>2022-02-04T18:20:42Z</time>
      </trkpt>
      <trkpt lat="43.29571" lon="6.53819">
        <ele>352.4</ele>
        <time>2022-02-04T18:20:43Z</time>
      </trkpt>
      <trkpt lat="43.29566" lon="6.53816">
        <ele>352.4</ele>
        <time>2022-02-04T18:20:44Z</time>
      </trkpt>
      <trkpt lat="43.29562" lon="6.53815">
        <ele>352.4</ele>
        <time>2022-02-04T18:20:45Z</time>
      </trkpt>
      <trkpt lat="43.29558" lon="6.53815">
        <ele>352.2</ele>
        <time>2022-02-04T18:20:46Z</time>
      </trkpt>
      <trkpt lat="43.29554" lon="6.53815">
        <ele>351.8</ele>
        <time>2022-02-04T18:20:47Z</time>
      </trkpt>
      <trkpt lat="43.2955" lon="6.53815">
        <ele>350.4</ele>
        <time>2022-02-04T18:20:48Z</time>
      </trkpt>
      <trkpt lat="43.29547" lon="6.53813">
        <ele>349.4</ele>
        <time>2022-02-04T18:20:49Z</time>
      </trkpt>
      <trkpt lat="43.29544" lon="6.53809">
        <ele>348.8</ele>
        <time>2022-02-04T18:20:50Z</time>
      </trkpt>
      <trkpt lat="43.29542" lon="6.53805">
        <ele>348.2</ele>
        <time>2022-02-04T18:20:51Z</time>
      </trkpt>
      <trkpt lat="43.2954" lon="6.53801">
        <ele>347.8</ele>
        <time>2022-02-04T18:20:52Z</time>
      </trkpt>
      <trkpt lat="43.29538" lon="6.53799">
        <ele>347.2</ele>
        <time>2022-02-04T18:20:53Z</time>
      </trkpt>
      <trkpt lat="43.29535" lon="6.53797">
        <ele>346.8</ele>
        <time>2022-02-04T18:20:54Z</time>
      </trkpt>
      <trkpt lat="43.29531" lon="6.53797">
        <ele>345.8</ele>
        <time>2022-02-04T18:20:55Z</time>
      </trkpt>
      <trkpt lat="43.29527" lon="6.53797">
        <ele>344.4</ele>
        <time>2022-02-04T18:20:56Z</time>
      </trkpt>
      <trkpt lat="43.29523" lon="6.53798">
        <ele>343.4</ele>
        <time>2022-02-04T18:20:57Z</time>
      </trkpt>
      <trkpt lat="43.29521" lon="6.53797">
        <ele>342.6</ele>
        <time>2022-02-04T18:20:58Z</time>
      </trkpt>
      <trkpt lat="43.2952" lon="6.53795">
        <ele>341.8</ele>
        <time>2022-02-04T18:20:59Z</time>
      </trkpt>
      <trkpt lat="43.29518" lon="6.53793">
        <ele>341.2</ele>
        <time>2022-02-04T18:21:00Z</time>
      </trkpt>
      <trkpt lat="43.29514" lon="6.53791">
        <ele>340.8</ele>
        <time>2022-02-04T18:21:01Z</time>
      </trkpt>
      <trkpt lat="43.29513" lon="6.53787">
        <ele>340.4</ele>
        <time>2022-02-04T18:21:02Z</time>
      </trkpt>
      <trkpt lat="43.29514" lon="6.53783">
        <ele>339.8</ele>
        <time>2022-02-04T18:21:03Z</time>
      </trkpt>
      <trkpt lat="43.29514" lon="6.5378">
        <ele>339.4</ele>
        <time>2022-02-04T18:21:04Z</time>
      </trkpt>
      <trkpt lat="43.29514" lon="6.53778">
        <ele>338.2</ele>
        <time>2022-02-04T18:21:05Z</time>
      </trkpt>
      <trkpt lat="43.29513" lon="6.53776">
        <ele>337</ele>
        <time>2022-02-04T18:21:06Z</time>
      </trkpt>
      <trkpt lat="43.29511" lon="6.53775">
        <ele>336</ele>
        <time>2022-02-04T18:21:07Z</time>
      </trkpt>
      <trkpt lat="43.29508" lon="6.53775">
        <ele>335.4</ele>
        <time>2022-02-04T18:21:08Z</time>
      </trkpt>
      <trkpt lat="43.29503" lon="6.53775">
        <ele>334.4</ele>
        <time>2022-02-04T18:21:09Z</time>
      </trkpt>
      <trkpt lat="43.29498" lon="6.53777">
        <ele>333.8</ele>
        <time>2022-02-04T18:21:10Z</time>
      </trkpt>
      <trkpt lat="43.29494" lon="6.5378">
        <ele>333</ele>
        <time>2022-02-04T18:21:11Z</time>
      </trkpt>
      <trkpt lat="43.29492" lon="6.53784">
        <ele>332.2</ele>
        <time>2022-02-04T18:21:12Z</time>
      </trkpt>
      <trkpt lat="43.29489" lon="6.53789">
        <ele>331.6</ele>
        <time>2022-02-04T18:21:13Z</time>
      </trkpt>
      <trkpt lat="43.29486" lon="6.53796">
        <ele>331.2</ele>
        <time>2022-02-04T18:21:14Z</time>
      </trkpt>
      <trkpt lat="43.29484" lon="6.53803">
        <ele>330.8</ele>
        <time>2022-02-04T18:21:15Z</time>
      </trkpt>
      <trkpt lat="43.29481" lon="6.5381">
        <ele>330.6</ele>
        <time>2022-02-04T18:21:16Z</time>
      </trkpt>
      <trkpt lat="43.29479" lon="6.53815">
        <ele>330.6</ele>
        <time>2022-02-04T18:21:17Z</time>
      </trkpt>
      <trkpt lat="43.29476" lon="6.53817">
        <ele>330.6</ele>
        <time>2022-02-04T18:21:18Z</time>
      </trkpt>
      <trkpt lat="43.29475" lon="6.53818">
        <ele>330.6</ele>
        <time>2022-02-04T18:21:19Z</time>
      </trkpt>
      <trkpt lat="43.29473" lon="6.53819">
        <ele>330.6</ele>
        <time>2022-02-04T18:21:20Z</time>
      </trkpt>
      <trkpt lat="43.2947" lon="6.5382">
        <ele>330.6</ele>
        <time>2022-02-04T18:21:21Z</time>
      </trkpt>
      <trkpt lat="43.29468" lon="6.53823">
        <ele>330</ele>
        <time>2022-02-04T18:21:22Z</time>
      </trkpt>
      <trkpt lat="43.29465" lon="6.53826">
        <ele>328.8</ele>
        <time>2022-02-04T18:21:23Z</time>
      </trkpt>
      <trkpt lat="43.29463" lon="6.53828">
        <ele>328</ele>
        <time>2022-02-04T18:21:24Z</time>
      </trkpt>
      <trkpt lat="43.2946" lon="6.53829">
        <ele>327.4</ele>
        <time>2022-02-04T18:21:25Z</time>
      </trkpt>
      <trkpt lat="43.29458" lon="6.53829">
        <ele>326</ele>
        <time>2022-02-04T18:21:26Z</time>
      </trkpt>
      <trkpt lat="43.29456" lon="6.53829">
        <ele>325.2</ele>
        <time>2022-02-04T18:21:27Z</time>
      </trkpt>
      <trkpt lat="43.29453" lon="6.53828">
        <ele>324</ele>
        <time>2022-02-04T18:21:28Z</time>
      </trkpt>
      <trkpt lat="43.29451" lon="6.53827">
        <ele>323.2</ele>
        <time>2022-02-04T18:21:29Z</time>
      </trkpt>
      <trkpt lat="43.2945" lon="6.53825">
        <ele>322.6</ele>
        <time>2022-02-04T18:21:30Z</time>
      </trkpt>
      <trkpt lat="43.29449" lon="6.53822">
        <ele>322.4</ele>
        <time>2022-02-04T18:21:31Z</time>
      </trkpt>
      <trkpt lat="43.29448" lon="6.53819">
        <ele>321.6</ele>
        <time>2022-02-04T18:21:32Z</time>
      </trkpt>
      <trkpt lat="43.29447" lon="6.53816">
        <ele>320.6</ele>
        <time>2022-02-04T18:21:33Z</time>
      </trkpt>
      <trkpt lat="43.29446" lon="6.53815">
        <ele>319</ele>
        <time>2022-02-04T18:21:34Z</time>
      </trkpt>
      <trkpt lat="43.29446" lon="6.53815">
        <ele>317.8</ele>
        <time>2022-02-04T18:21:35Z</time>
      </trkpt>
      <trkpt lat="43.29445" lon="6.53815">
        <ele>317</ele>
        <time>2022-02-04T18:21:36Z</time>
      </trkpt>
      <trkpt lat="43.29444" lon="6.53816">
        <ele>316.6</ele>
        <time>2022-02-04T18:21:37Z</time>
      </trkpt>
      <trkpt lat="43.29443" lon="6.53818">
        <ele>316.4</ele>
        <time>2022-02-04T18:21:38Z</time>
      </trkpt>
      <trkpt lat="43.29441" lon="6.53822">
        <ele>316.2</ele>
        <time>2022-02-04T18:21:39Z</time>
      </trkpt>
      <trkpt lat="43.29439" lon="6.53824">
        <ele>315.6</ele>
        <time>2022-02-04T18:21:40Z</time>
      </trkpt>
      <trkpt lat="43.29437" lon="6.53826">
        <ele>315</ele>
        <time>2022-02-04T18:21:41Z</time>
      </trkpt>
      <trkpt lat="43.29435" lon="6.53827">
        <ele>314.8</ele>
        <time>2022-02-04T18:21:42Z</time>
      </trkpt>
      <trkpt lat="43.29433" lon="6.53827">
        <ele>313.4</ele>
        <time>2022-02-04T18:21:43Z</time>
      </trkpt>
      <trkpt lat="43.2943" lon="6.53827">
        <ele>312.2</ele>
        <time>2022-02-04T18:21:44Z</time>
      </trkpt>
      <trkpt lat="43.29428" lon="6.53827">
        <ele>311.2</ele>
        <time>2022-02-04T18:21:45Z</time>
      </trkpt>
      <trkpt lat="43.29426" lon="6.53829">
        <ele>310.2</ele>
        <time>2022-02-04T18:21:46Z</time>
      </trkpt>
      <trkpt lat="43.29424" lon="6.53832">
        <ele>309.2</ele>
        <time>2022-02-04T18:21:47Z</time>
      </trkpt>
      <trkpt lat="43.29422" lon="6.53837">
        <ele>308.8</ele>
        <time>2022-02-04T18:21:48Z</time>
      </trkpt>
      <trkpt lat="43.29419" lon="6.53842">
        <ele>308.4</ele>
        <time>2022-02-04T18:21:49Z</time>
      </trkpt>
      <trkpt lat="43.29416" lon="6.53847">
        <ele>308</ele>
        <time>2022-02-04T18:21:50Z</time>
      </trkpt>
      <trkpt lat="43.29413" lon="6.53851">
        <ele>307.8</ele>
        <time>2022-02-04T18:21:51Z</time>
      </trkpt>
      <trkpt lat="43.2941" lon="6.53854">
        <ele>307.4</ele>
        <time>2022-02-04T18:21:52Z</time>
      </trkpt>
      <trkpt lat="43.29408" lon="6.53857">
        <ele>307.2</ele>
        <time>2022-02-04T18:21:53Z</time>
      </trkpt>
      <trkpt lat="43.29406" lon="6.53857">
        <ele>307</ele>
        <time>2022-02-04T18:21:54Z</time>
      </trkpt>
      <trkpt lat="43.29405" lon="6.53855">
        <ele>306.6</ele>
        <time>2022-02-04T18:21:55Z</time>
      </trkpt>
      <trkpt lat="43.29403" lon="6.53852">
        <ele>306.2</ele>
        <time>2022-02-04T18:21:56Z</time>
      </trkpt>
      <trkpt lat="43.29402" lon="6.5385">
        <ele>305.8</ele>
        <time>2022-02-04T18:21:57Z</time>
      </trkpt>
      <trkpt lat="43.294" lon="6.53849">
        <ele>305</ele>
        <time>2022-02-04T18:21:58Z</time>
      </trkpt>
      <trkpt lat="43.29398" lon="6.53849">
        <ele>304.2</ele>
        <time>2022-02-04T18:21:59Z</time>
      </trkpt>
      <trkpt lat="43.29396" lon="6.53849">
        <ele>303.4</ele>
        <time>2022-02-04T18:22:00Z</time>
      </trkpt>
      <trkpt lat="43.29393" lon="6.53851">
        <ele>302.4</ele>
        <time>2022-02-04T18:22:01Z</time>
      </trkpt>
      <trkpt lat="43.29392" lon="6.53853">
        <ele>301.6</ele>
        <time>2022-02-04T18:22:02Z</time>
      </trkpt>
      <trkpt lat="43.2939" lon="6.53856">
        <ele>301</ele>
        <time>2022-02-04T18:22:03Z</time>
      </trkpt>
      <trkpt lat="43.29389" lon="6.53861">
        <ele>300.8</ele>
        <time>2022-02-04T18:22:04Z</time>
      </trkpt>
      <trkpt lat="43.29389" lon="6.53867">
        <ele>300.6</ele>
        <time>2022-02-04T18:22:05Z</time>
      </trkpt>
      <trkpt lat="43.29389" lon="6.53873">
        <ele>300.4</ele>
        <time>2022-02-04T18:22:06Z</time>
      </trkpt>
      <trkpt lat="43.29389" lon="6.53877">
        <ele>300.4</ele>
        <time>2022-02-04T18:22:07Z</time>
      </trkpt>
      <trkpt lat="43.29388" lon="6.5388">
        <ele>299.4</ele>
        <time>2022-02-04T18:22:08Z</time>
      </trkpt>
      <trkpt lat="43.29385" lon="6.53882">
        <ele>298.8</ele>
        <time>2022-02-04T18:22:09Z</time>
      </trkpt>
      <trkpt lat="43.29383" lon="6.53885">
        <ele>298.4</ele>
        <time>2022-02-04T18:22:10Z</time>
      </trkpt>
      <trkpt lat="43.2938" lon="6.53889">
        <ele>298</ele>
        <time>2022-02-04T18:22:11Z</time>
      </trkpt>
      <trkpt lat="43.29378" lon="6.53893">
        <ele>296.8</ele>
        <time>2022-02-04T18:22:12Z</time>
      </trkpt>
      <trkpt lat="43.29376" lon="6.53897">
        <ele>296</ele>
        <time>2022-02-04T18:22:13Z</time>
      </trkpt>
      <trkpt lat="43.29375" lon="6.53902">
        <ele>294</ele>
        <time>2022-02-04T18:22:14Z</time>
      </trkpt>
      <trkpt lat="43.29376" lon="6.53907">
        <ele>293</ele>
        <time>2022-02-04T18:22:15Z</time>
      </trkpt>
      <trkpt lat="43.29376" lon="6.53911">
        <ele>292.2</ele>
        <time>2022-02-04T18:22:16Z</time>
      </trkpt>
      <trkpt lat="43.29376" lon="6.53914">
        <ele>291.8</ele>
        <time>2022-02-04T18:22:17Z</time>
      </trkpt>
      <trkpt lat="43.29377" lon="6.53916">
        <ele>291.2</ele>
        <time>2022-02-04T18:22:18Z</time>
      </trkpt>
      <trkpt lat="43.29376" lon="6.53919">
        <ele>290.4</ele>
        <time>2022-02-04T18:22:19Z</time>
      </trkpt>
      <trkpt lat="43.29375" lon="6.5392">
        <ele>289.8</ele>
        <time>2022-02-04T18:22:20Z</time>
      </trkpt>
      <trkpt lat="43.29373" lon="6.5392">
        <ele>289.2</ele>
        <time>2022-02-04T18:22:21Z</time>
      </trkpt>
      <trkpt lat="43.29371" lon="6.5392">
        <ele>288</ele>
        <time>2022-02-04T18:22:22Z</time>
      </trkpt>
      <trkpt lat="43.29368" lon="6.53923">
        <ele>286.8</ele>
        <time>2022-02-04T18:22:23Z</time>
      </trkpt>
      <trkpt lat="43.29367" lon="6.53926">
        <ele>285.6</ele>
        <time>2022-02-04T18:22:24Z</time>
      </trkpt>
      <trkpt lat="43.29366" lon="6.53928">
        <ele>284.8</ele>
        <time>2022-02-04T18:22:25Z</time>
      </trkpt>
      <trkpt lat="43.29365" lon="6.53931">
        <ele>283.8</ele>
        <time>2022-02-04T18:22:26Z</time>
      </trkpt>
      <trkpt lat="43.29363" lon="6.53934">
        <ele>283</ele>
        <time>2022-02-04T18:22:27Z</time>
      </trkpt>
      <trkpt lat="43.29361" lon="6.53937">
        <ele>282.4</ele>
        <time>2022-02-04T18:22:28Z</time>
      </trkpt>
      <trkpt lat="43.29358" lon="6.5394">
        <ele>281.2</ele>
        <time>2022-02-04T18:22:29Z</time>
      </trkpt>
      <trkpt lat="43.29356" lon="6.53942">
        <ele>280</ele>
        <time>2022-02-04T18:22:30Z</time>
      </trkpt>
      <trkpt lat="43.29356" lon="6.53945">
        <ele>278.2</ele>
        <time>2022-02-04T18:22:31Z</time>
      </trkpt>
      <trkpt lat="43.29356" lon="6.53948">
        <ele>277</ele>
        <time>2022-02-04T18:22:32Z</time>
      </trkpt>
      <trkpt lat="43.29355" lon="6.53953">
        <ele>275.8</ele>
        <time>2022-02-04T18:22:33Z</time>
      </trkpt>
      <trkpt lat="43.29354" lon="6.53956">
        <ele>275.2</ele>
        <time>2022-02-04T18:22:34Z</time>
      </trkpt>
      <trkpt lat="43.29352" lon="6.53961">
        <ele>274.8</ele>
        <time>2022-02-04T18:22:35Z</time>
      </trkpt>
      <trkpt lat="43.29351" lon="6.53964">
        <ele>273.2</ele>
        <time>2022-02-04T18:22:36Z</time>
      </trkpt>
      <trkpt lat="43.29349" lon="6.53966">
        <ele>272</ele>
        <time>2022-02-04T18:22:37Z</time>
      </trkpt>
      <trkpt lat="43.29347" lon="6.53967">
        <ele>271.2</ele>
        <time>2022-02-04T18:22:38Z</time>
      </trkpt>
      <trkpt lat="43.29345" lon="6.53968">
        <ele>270.2</ele>
        <time>2022-02-04T18:22:39Z</time>
      </trkpt>
      <trkpt lat="43.29342" lon="6.53968">
        <ele>269</ele>
        <time>2022-02-04T18:22:40Z</time>
      </trkpt>
      <trkpt lat="43.29339" lon="6.53967">
        <ele>268.2</ele>
        <time>2022-02-04T18:22:41Z</time>
      </trkpt>
      <trkpt lat="43.29336" lon="6.53966">
        <ele>267.2</ele>
        <time>2022-02-04T18:22:42Z</time>
      </trkpt>
      <trkpt lat="43.29334" lon="6.53963">
        <ele>265</ele>
        <time>2022-02-04T18:22:43Z</time>
      </trkpt>
      <trkpt lat="43.29333" lon="6.5396">
        <ele>263.6</ele>
        <time>2022-02-04T18:22:44Z</time>
      </trkpt>
      <trkpt lat="43.29332" lon="6.53957">
        <ele>262.6</ele>
        <time>2022-02-04T18:22:45Z</time>
      </trkpt>
      <trkpt lat="43.2933" lon="6.53955">
        <ele>261.6</ele>
        <time>2022-02-04T18:22:46Z</time>
      </trkpt>
      <trkpt lat="43.29328" lon="6.53954">
        <ele>261</ele>
        <time>2022-02-04T18:22:47Z</time>
      </trkpt>
      <trkpt lat="43.29326" lon="6.53956">
        <ele>260.8</ele>
        <time>2022-02-04T18:22:48Z</time>
      </trkpt>
      <trkpt lat="43.29325" lon="6.53958">
        <ele>259.4</ele>
        <time>2022-02-04T18:22:49Z</time>
      </trkpt>
      <trkpt lat="43.29324" lon="6.53961">
        <ele>258.6</ele>
        <time>2022-02-04T18:22:50Z</time>
      </trkpt>
      <trkpt lat="43.29323" lon="6.53964">
        <ele>257.8</ele>
        <time>2022-02-04T18:22:51Z</time>
      </trkpt>
      <trkpt lat="43.29322" lon="6.53969">
        <ele>257.4</ele>
        <time>2022-02-04T18:22:52Z</time>
      </trkpt>
      <trkpt lat="43.2932" lon="6.53972">
        <ele>256.6</ele>
        <time>2022-02-04T18:22:53Z</time>
      </trkpt>
      <trkpt lat="43.29318" lon="6.53975">
        <ele>255.6</ele>
        <time>2022-02-04T18:22:54Z</time>
      </trkpt>
      <trkpt lat="43.29316" lon="6.53978">
        <ele>254.6</ele>
        <time>2022-02-04T18:22:55Z</time>
      </trkpt>
      <trkpt lat="43.29313" lon="6.5398">
        <ele>253.8</ele>
        <time>2022-02-04T18:22:56Z</time>
      </trkpt>
      <trkpt lat="43.29311" lon="6.53983">
        <ele>252.6</ele>
        <time>2022-02-04T18:22:57Z</time>
      </trkpt>
      <trkpt lat="43.2931" lon="6.53987">
        <ele>250.6</ele>
        <time>2022-02-04T18:22:58Z</time>
      </trkpt>
      <trkpt lat="43.29307" lon="6.5399">
        <ele>249</ele>
        <time>2022-02-04T18:22:59Z</time>
      </trkpt>
      <trkpt lat="43.29306" lon="6.53994">
        <ele>248</ele>
        <time>2022-02-04T18:23:00Z</time>
      </trkpt>
      <trkpt lat="43.29305" lon="6.53997">
        <ele>246.6</ele>
        <time>2022-02-04T18:23:01Z</time>
      </trkpt>
      <trkpt lat="43.29305" lon="6.54001">
        <ele>245.6</ele>
        <time>2022-02-04T18:23:02Z</time>
      </trkpt>
      <trkpt lat="43.29305" lon="6.54005">
        <ele>245</ele>
        <time>2022-02-04T18:23:03Z</time>
      </trkpt>
      <trkpt lat="43.29303" lon="6.54009">
        <ele>244.6</ele>
        <time>2022-02-04T18:23:04Z</time>
      </trkpt>
      <trkpt lat="43.29301" lon="6.54012">
        <ele>243.4</ele>
        <time>2022-02-04T18:23:05Z</time>
      </trkpt>
      <trkpt lat="43.293" lon="6.54013">
        <ele>242.6</ele>
        <time>2022-02-04T18:23:06Z</time>
      </trkpt>
      <trkpt lat="43.29298" lon="6.54012">
        <ele>241.8</ele>
        <time>2022-02-04T18:23:07Z</time>
      </trkpt>
      <trkpt lat="43.29295" lon="6.54011">
        <ele>241</ele>
        <time>2022-02-04T18:23:08Z</time>
      </trkpt>
      <trkpt lat="43.29293" lon="6.5401">
        <ele>240</ele>
        <time>2022-02-04T18:23:09Z</time>
      </trkpt>
      <trkpt lat="43.2929" lon="6.54007">
        <ele>238.8</ele>
        <time>2022-02-04T18:23:10Z</time>
      </trkpt>
      <trkpt lat="43.29288" lon="6.54005">
        <ele>238</ele>
        <time>2022-02-04T18:23:11Z</time>
      </trkpt>
      <trkpt lat="43.29286" lon="6.54006">
        <ele>237.6</ele>
        <time>2022-02-04T18:23:12Z</time>
      </trkpt>
      <trkpt lat="43.29284" lon="6.54007">
        <ele>236.6</ele>
        <time>2022-02-04T18:23:13Z</time>
      </trkpt>
      <trkpt lat="43.29283" lon="6.54009">
        <ele>235.4</ele>
        <time>2022-02-04T18:23:14Z</time>
      </trkpt>
      <trkpt lat="43.29282" lon="6.54011">
        <ele>234.4</ele>
        <time>2022-02-04T18:23:15Z</time>
      </trkpt>
      <trkpt lat="43.29281" lon="6.54013">
        <ele>233.6</ele>
        <time>2022-02-04T18:23:16Z</time>
      </trkpt>
      <trkpt lat="43.29279" lon="6.54012">
        <ele>232.8</ele>
        <time>2022-02-04T18:23:17Z</time>
      </trkpt>
      <trkpt lat="43.29277" lon="6.54009">
        <ele>231.8</ele>
        <time>2022-02-04T18:23:18Z</time>
      </trkpt>
      <trkpt lat="43.29275" lon="6.54006">
        <ele>231.2</ele>
        <time>2022-02-04T18:23:19Z</time>
      </trkpt>
      <trkpt lat="43.29272" lon="6.54002">
        <ele>230.6</ele>
        <time>2022-02-04T18:23:20Z</time>
      </trkpt>
      <trkpt lat="43.29269" lon="6.53998">
        <ele>229.8</ele>
        <time>2022-02-04T18:23:21Z</time>
      </trkpt>
      <trkpt lat="43.29265" lon="6.53995">
        <ele>228.8</ele>
        <time>2022-02-04T18:23:22Z</time>
      </trkpt>
      <trkpt lat="43.29262" lon="6.53993">
        <ele>228.2</ele>
        <time>2022-02-04T18:23:23Z</time>
      </trkpt>
      <trkpt lat="43.2926" lon="6.53991">
        <ele>227</ele>
        <time>2022-02-04T18:23:24Z</time>
      </trkpt>
      <trkpt lat="43.29256" lon="6.53991">
        <ele>226.4</ele>
        <time>2022-02-04T18:23:25Z</time>
      </trkpt>
      <trkpt lat="43.29252" lon="6.53993">
        <ele>225.6</ele>
        <time>2022-02-04T18:23:26Z</time>
      </trkpt>
      <trkpt lat="43.29249" lon="6.53995">
        <ele>224.8</ele>
        <time>2022-02-04T18:23:27Z</time>
      </trkpt>
      <trkpt lat="43.29245" lon="6.53997">
        <ele>223.6</ele>
        <time>2022-02-04T18:23:28Z</time>
      </trkpt>
      <trkpt lat="43.29242" lon="6.54">
        <ele>222.4</ele>
        <time>2022-02-04T18:23:29Z</time>
      </trkpt>
      <trkpt lat="43.29241" lon="6.54002">
        <ele>221.2</ele>
        <time>2022-02-04T18:23:30Z</time>
      </trkpt>
      <trkpt lat="43.29241" lon="6.54004">
        <ele>219.6</ele>
        <time>2022-02-04T18:23:31Z</time>
      </trkpt>
      <trkpt lat="43.29239" lon="6.54008">
        <ele>218.8</ele>
        <time>2022-02-04T18:23:32Z</time>
      </trkpt>
      <trkpt lat="43.29238" lon="6.54017">
        <ele>217.8</ele>
        <time>2022-02-04T18:23:33Z</time>
      </trkpt>
      <trkpt lat="43.29237" lon="6.54028">
        <ele>216.6</ele>
        <time>2022-02-04T18:23:34Z</time>
      </trkpt>
      <trkpt lat="43.29233" lon="6.54038">
        <ele>215.6</ele>
        <time>2022-02-04T18:23:35Z</time>
      </trkpt>
      <trkpt lat="43.29229" lon="6.54045">
        <ele>215</ele>
        <time>2022-02-04T18:23:36Z</time>
      </trkpt>
      <trkpt lat="43.29227" lon="6.54054">
        <ele>213.6</ele>
        <time>2022-02-04T18:23:37Z</time>
      </trkpt>
      <trkpt lat="43.29225" lon="6.54062">
        <ele>212.4</ele>
        <time>2022-02-04T18:23:38Z</time>
      </trkpt>
      <trkpt lat="43.29223" lon="6.54071">
        <ele>211.4</ele>
        <time>2022-02-04T18:23:39Z</time>
      </trkpt>
      <trkpt lat="43.29221" lon="6.54077">
        <ele>211</ele>
        <time>2022-02-04T18:23:40Z</time>
      </trkpt>
      <trkpt lat="43.29217" lon="6.54083">
        <ele>210</ele>
        <time>2022-02-04T18:23:41Z</time>
      </trkpt>
      <trkpt lat="43.29212" lon="6.54086">
        <ele>209.2</ele>
        <time>2022-02-04T18:23:42Z</time>
      </trkpt>
      <trkpt lat="43.29208" lon="6.54089">
        <ele>208.4</ele>
        <time>2022-02-04T18:23:43Z</time>
      </trkpt>
      <trkpt lat="43.29204" lon="6.54089">
        <ele>207</ele>
        <time>2022-02-04T18:23:44Z</time>
      </trkpt>
      <trkpt lat="43.29202" lon="6.5409">
        <ele>206.2</ele>
        <time>2022-02-04T18:23:45Z</time>
      </trkpt>
      <trkpt lat="43.29201" lon="6.5409">
        <ele>205.6</ele>
        <time>2022-02-04T18:23:46Z</time>
      </trkpt>
      <trkpt lat="43.29201" lon="6.5409">
        <ele>205.2</ele>
        <time>2022-02-04T18:23:47Z</time>
      </trkpt>
      <trkpt lat="43.29201" lon="6.5409">
        <ele>204.4</ele>
        <time>2022-02-04T18:23:48Z</time>
      </trkpt>
      <trkpt lat="43.29201" lon="6.5409">
        <ele>204</ele>
        <time>2022-02-04T18:23:49Z</time>
      </trkpt>
      <trkpt lat="43.29201" lon="6.54089">
        <ele>203.6</ele>
        <time>2022-02-04T18:23:50Z</time>
      </trkpt>
      <trkpt lat="43.29201" lon="6.54089">
        <ele>203.6</ele>
        <time>2022-02-04T18:23:51Z</time>
      </trkpt>
      <trkpt lat="43.29201" lon="6.54088">
        <ele>203.4</ele>
        <time>2022-02-04T18:23:52Z</time>
      </trkpt>
      <trkpt lat="43.29201" lon="6.54088">
        <ele>203.4</ele>
        <time>2022-02-04T18:23:53Z</time>
      </trkpt>
      <trkpt lat="43.29201" lon="6.54088">
        <ele>203.4</ele>
        <time>2022-02-04T18:23:54Z</time>
      </trkpt>
      <trkpt lat="43.292" lon="6.54088">
        <ele>203.4</ele>
        <time>2022-02-04T18:23:55Z</time>
      </trkpt>
      <trkpt lat="43.29199" lon="6.54086">
        <ele>203.4</ele>
        <time>2022-02-04T18:23:56Z</time>
      </trkpt>
      <trkpt lat="43.29197" lon="6.54086">
        <ele>203.4</ele>
        <time>2022-02-04T18:23:57Z</time>
      </trkpt>
      <trkpt lat="43.29197" lon="6.54087">
        <ele>203</ele>
        <time>2022-02-04T18:23:58Z</time>
      </trkpt>
      <trkpt lat="43.29196" lon="6.54089">
        <ele>202.4</ele>
        <time>2022-02-04T18:23:59Z</time>
      </trkpt>
      <trkpt lat="43.29196" lon="6.54092">
        <ele>201.8</ele>
        <time>2022-02-04T18:24:00Z</time>
      </trkpt>
      <trkpt lat="43.29195" lon="6.54096">
        <ele>201.6</ele>
        <time>2022-02-04T18:24:01Z</time>
      </trkpt>
      <trkpt lat="43.29193" lon="6.54099">
        <ele>201.6</ele>
        <time>2022-02-04T18:24:02Z</time>
      </trkpt>
      <trkpt lat="43.29192" lon="6.54101">
        <ele>201</ele>
        <time>2022-02-04T18:24:03Z</time>
      </trkpt>
      <trkpt lat="43.2919" lon="6.54104">
        <ele>200.4</ele>
        <time>2022-02-04T18:24:04Z</time>
      </trkpt>
      <trkpt lat="43.29189" lon="6.54107">
        <ele>199.4</ele>
        <time>2022-02-04T18:24:05Z</time>
      </trkpt>
      <trkpt lat="43.29188" lon="6.5411">
        <ele>198.2</ele>
        <time>2022-02-04T18:24:06Z</time>
      </trkpt>
      <trkpt lat="43.29186" lon="6.54112">
        <ele>197.2</ele>
        <time>2022-02-04T18:24:07Z</time>
      </trkpt>
      <trkpt lat="43.29184" lon="6.54113">
        <ele>196.4</ele>
        <time>2022-02-04T18:24:08Z</time>
      </trkpt>
      <trkpt lat="43.29182" lon="6.54115">
        <ele>195.4</ele>
        <time>2022-02-04T18:24:09Z</time>
      </trkpt>
      <trkpt lat="43.29179" lon="6.54114">
        <ele>194.8</ele>
        <time>2022-02-04T18:24:10Z</time>
      </trkpt>
      <trkpt lat="43.29175" lon="6.54113">
        <ele>194.4</ele>
        <time>2022-02-04T18:24:11Z</time>
      </trkpt>
      <trkpt lat="43.29172" lon="6.54112">
        <ele>193</ele>
        <time>2022-02-04T18:24:12Z</time>
      </trkpt>
      <trkpt lat="43.2917" lon="6.54112">
        <ele>191.6</ele>
        <time>2022-02-04T18:24:13Z</time>
      </trkpt>
      <trkpt lat="43.29167" lon="6.54112">
        <ele>190.4</ele>
        <time>2022-02-04T18:24:14Z</time>
      </trkpt>
      <trkpt lat="43.29165" lon="6.54111">
        <ele>189.2</ele>
        <time>2022-02-04T18:24:15Z</time>
      </trkpt>
      <trkpt lat="43.29163" lon="6.54109">
        <ele>188.4</ele>
        <time>2022-02-04T18:24:16Z</time>
      </trkpt>
      <trkpt lat="43.2916" lon="6.54105">
        <ele>187.4</ele>
        <time>2022-02-04T18:24:17Z</time>
      </trkpt>
      <trkpt lat="43.29157" lon="6.54099">
        <ele>186.2</ele>
        <time>2022-02-04T18:24:18Z</time>
      </trkpt>
      <trkpt lat="43.29155" lon="6.54094">
        <ele>185.6</ele>
        <time>2022-02-04T18:24:19Z</time>
      </trkpt>
      <trkpt lat="43.29154" lon="6.54089">
        <ele>185</ele>
        <time>2022-02-04T18:24:20Z</time>
      </trkpt>
      <trkpt lat="43.29153" lon="6.54084">
        <ele>184.8</ele>
        <time>2022-02-04T18:24:21Z</time>
      </trkpt>
      <trkpt lat="43.29153" lon="6.54078">
        <ele>184.6</ele>
        <time>2022-02-04T18:24:22Z</time>
      </trkpt>
      <trkpt lat="43.29153" lon="6.54071">
        <ele>184.4</ele>
        <time>2022-02-04T18:24:23Z</time>
      </trkpt>
      <trkpt lat="43.29153" lon="6.54066">
        <ele>184.4</ele>
        <time>2022-02-04T18:24:24Z</time>
      </trkpt>
      <trkpt lat="43.29152" lon="6.54061">
        <ele>184.4</ele>
        <time>2022-02-04T18:24:25Z</time>
      </trkpt>
      <trkpt lat="43.2915" lon="6.54058">
        <ele>184.4</ele>
        <time>2022-02-04T18:24:26Z</time>
      </trkpt>
      <trkpt lat="43.29148" lon="6.54055">
        <ele>183.4</ele>
        <time>2022-02-04T18:24:27Z</time>
      </trkpt>
      <trkpt lat="43.29146" lon="6.54053">
        <ele>182.8</ele>
        <time>2022-02-04T18:24:28Z</time>
      </trkpt>
      <trkpt lat="43.29144" lon="6.54051">
        <ele>181.8</ele>
        <time>2022-02-04T18:24:29Z</time>
      </trkpt>
      <trkpt lat="43.29142" lon="6.54051">
        <ele>180.4</ele>
        <time>2022-02-04T18:24:30Z</time>
      </trkpt>
      <trkpt lat="43.2914" lon="6.54052">
        <ele>179.6</ele>
        <time>2022-02-04T18:24:31Z</time>
      </trkpt>
      <trkpt lat="43.29138" lon="6.54052">
        <ele>179</ele>
        <time>2022-02-04T18:24:32Z</time>
      </trkpt>
      <trkpt lat="43.29136" lon="6.54053">
        <ele>178.4</ele>
        <time>2022-02-04T18:24:33Z</time>
      </trkpt>
      <trkpt lat="43.29133" lon="6.54054">
        <ele>177.2</ele>
        <time>2022-02-04T18:24:34Z</time>
      </trkpt>
      <trkpt lat="43.2913" lon="6.54056">
        <ele>176</ele>
        <time>2022-02-04T18:24:35Z</time>
      </trkpt>
      <trkpt lat="43.29126" lon="6.54057">
        <ele>175.4</ele>
        <time>2022-02-04T18:24:36Z</time>
      </trkpt>
      <trkpt lat="43.29124" lon="6.54057">
        <ele>174.8</ele>
        <time>2022-02-04T18:24:37Z</time>
      </trkpt>
      <trkpt lat="43.29121" lon="6.54055">
        <ele>173.8</ele>
        <time>2022-02-04T18:24:38Z</time>
      </trkpt>
      <trkpt lat="43.2912" lon="6.54052">
        <ele>173.2</ele>
        <time>2022-02-04T18:24:39Z</time>
      </trkpt>
      <trkpt lat="43.2912" lon="6.5405">
        <ele>172.8</ele>
        <time>2022-02-04T18:24:40Z</time>
      </trkpt>
      <trkpt lat="43.29121" lon="6.54048">
        <ele>172.4</ele>
        <time>2022-02-04T18:24:41Z</time>
      </trkpt>
      <trkpt lat="43.29121" lon="6.54047">
        <ele>172</ele>
        <time>2022-02-04T18:24:42Z</time>
      </trkpt>
      <trkpt lat="43.29121" lon="6.54045">
        <ele>171.6</ele>
        <time>2022-02-04T18:24:43Z</time>
      </trkpt>
      <trkpt lat="43.29122" lon="6.54044">
        <ele>171.2</ele>
        <time>2022-02-04T18:24:44Z</time>
      </trkpt>
      <trkpt lat="43.29122" lon="6.54043">
        <ele>170.6</ele>
        <time>2022-02-04T18:24:45Z</time>
      </trkpt>
      <trkpt lat="43.29121" lon="6.54042">
        <ele>169.6</ele>
        <time>2022-02-04T18:24:46Z</time>
      </trkpt>
      <trkpt lat="43.29121" lon="6.54042">
        <ele>169</ele>
        <time>2022-02-04T18:24:47Z</time>
      </trkpt>
      <trkpt lat="43.29121" lon="6.54042">
        <ele>168.6</ele>
        <time>2022-02-04T18:24:48Z</time>
      </trkpt>
      <trkpt lat="43.29121" lon="6.54042">
        <ele>168.6</ele>
        <time>2022-02-04T18:24:49Z</time>
      </trkpt>
      <trkpt lat="43.29121" lon="6.54042">
        <ele>168.4</ele>
        <time>2022-02-04T18:24:50Z</time>
      </trkpt>
      <trkpt lat="43.29121" lon="6.54042">
        <ele>168.4</ele>
        <time>2022-02-04T18:24:51Z</time>
      </trkpt>
      <trkpt lat="43.29121" lon="6.54042">
        <ele>168.4</ele>
        <time>2022-02-04T18:24:52Z</time>
      </trkpt>
      <trkpt lat="43.29121" lon="6.54042">
        <ele>168.4</ele>
        <time>2022-02-04T18:24:53Z</time>
      </trkpt>
      <trkpt lat="43.29121" lon="6.54042">
        <ele>168.4</ele>
        <time>2022-02-04T18:24:54Z</time>
      </trkpt>
      <trkpt lat="43.29121" lon="6.54042">
        <ele>168.4</ele>
        <time>2022-02-04T18:24:55Z</time>
      </trkpt>
      <trkpt lat="43.29121" lon="6.54042">
        <ele>168.4</ele>
        <time>2022-02-04T18:24:56Z</time>
      </trkpt>
      <trkpt lat="43.29121" lon="6.54042">
        <ele>168.2</ele>
        <time>2022-02-04T18:24:57Z</time>
      </trkpt>
      <trkpt lat="43.29121" lon="6.54042">
        <ele>168.2</ele>
        <time>2022-02-04T18:24:58Z</time>
      </trkpt>
      <trkpt lat="43.29121" lon="6.54042">
        <ele>168</ele>
        <time>2022-02-04T18:24:59Z</time>
      </trkpt>
      <trkpt lat="43.29121" lon="6.54042">
        <ele>167.6</ele>
        <time>2022-02-04T18:25:00Z</time>
      </trkpt>
      <trkpt lat="43.29121" lon="6.54042">
        <ele>167.4</ele>
        <time>2022-02-04T18:25:01Z</time>
      </trkpt>
      <trkpt lat="43.29121" lon="6.54042">
        <ele>167.2</ele>
        <time>2022-02-04T18:25:02Z</time>
      </trkpt>
      <trkpt lat="43.29121" lon="6.54042">
        <ele>166.8</ele>
        <time>2022-02-04T18:25:03Z</time>
      </trkpt>
      <trkpt lat="43.29121" lon="6.54042">
        <ele>166.4</ele>
        <time>2022-02-04T18:25:04Z</time>
      </trkpt>
      <trkpt lat="43.29121" lon="6.54042">
        <ele>166</ele>
        <time>2022-02-04T18:25:05Z</time>
      </trkpt>
      <trkpt lat="43.29121" lon="6.54042">
        <ele>165.6</ele>
        <time>2022-02-04T18:25:06Z</time>
      </trkpt>
      <trkpt lat="43.29121" lon="6.54042">
        <ele>165.2</ele>
        <time>2022-02-04T18:25:07Z</time>
      </trkpt>
      <trkpt lat="43.29121" lon="6.54042">
        <ele>165</ele>
        <time>2022-02-04T18:25:08Z</time>
      </trkpt>
      <trkpt lat="43.29121" lon="6.54042">
        <ele>164.6</ele>
        <time>2022-02-04T18:25:09Z</time>
      </trkpt>
      <trkpt lat="43.29121" lon="6.54042">
        <ele>164.4</ele>
        <time>2022-02-04T18:25:10Z</time>
      </trkpt>
      <trkpt lat="43.29121" lon="6.54041">
        <ele>164.2</ele>
        <time>2022-02-04T18:25:11Z</time>
      </trkpt>
      <trkpt lat="43.29119" lon="6.5404">
        <ele>164.2</ele>
        <time>2022-02-04T18:25:12Z</time>
      </trkpt>
      <trkpt lat="43.29116" lon="6.54039">
        <ele>163.4</ele>
        <time>2022-02-04T18:25:13Z</time>
      </trkpt>
      <trkpt lat="43.29114" lon="6.54039">
        <ele>163</ele>
        <time>2022-02-04T18:25:14Z</time>
      </trkpt>
      <trkpt lat="43.29111" lon="6.54038">
        <ele>162.6</ele>
        <time>2022-02-04T18:25:15Z</time>
      </trkpt>
      <trkpt lat="43.29109" lon="6.54037">
        <ele>161.8</ele>
        <time>2022-02-04T18:25:16Z</time>
      </trkpt>
      <trkpt lat="43.29106" lon="6.54037">
        <ele>161.4</ele>
        <time>2022-02-04T18:25:17Z</time>
      </trkpt>
      <trkpt lat="43.29104" lon="6.54038">
        <ele>160.6</ele>
        <time>2022-02-04T18:25:18Z</time>
      </trkpt>
      <trkpt lat="43.29101" lon="6.54038">
        <ele>160.2</ele>
        <time>2022-02-04T18:25:19Z</time>
      </trkpt>
      <trkpt lat="43.29098" lon="6.54037">
        <ele>160</ele>
        <time>2022-02-04T18:25:20Z</time>
      </trkpt>
      <trkpt lat="43.29095" lon="6.54037">
        <ele>159.6</ele>
        <time>2022-02-04T18:25:21Z</time>
      </trkpt>
      <trkpt lat="43.29092" lon="6.54038">
        <ele>159</ele>
        <time>2022-02-04T18:25:22Z</time>
      </trkpt>
      <trkpt lat="43.29088" lon="6.54039">
        <ele>158.4</ele>
        <time>2022-02-04T18:25:23Z</time>
      </trkpt>
      <trkpt lat="43.29085" lon="6.54038">
        <ele>158</ele>
        <time>2022-02-04T18:25:24Z</time>
      </trkpt>
      <trkpt lat="43.29084" lon="6.54035">
        <ele>157.4</ele>
        <time>2022-02-04T18:25:25Z</time>
      </trkpt>
      <trkpt lat="43.29084" lon="6.54032">
        <ele>157</ele>
        <time>2022-02-04T18:25:26Z</time>
      </trkpt>
      <trkpt lat="43.29084" lon="6.5403">
        <ele>156.2</ele>
        <time>2022-02-04T18:25:27Z</time>
      </trkpt>
      <trkpt lat="43.29082" lon="6.5403">
        <ele>155.8</ele>
        <time>2022-02-04T18:25:28Z</time>
      </trkpt>
      <trkpt lat="43.29079" lon="6.54029">
        <ele>155.2</ele>
        <time>2022-02-04T18:25:29Z</time>
      </trkpt>
      <trkpt lat="43.29076" lon="6.54028">
        <ele>154.6</ele>
        <time>2022-02-04T18:25:30Z</time>
      </trkpt>
      <trkpt lat="43.29074" lon="6.54025">
        <ele>154</ele>
        <time>2022-02-04T18:25:31Z</time>
      </trkpt>
      <trkpt lat="43.29071" lon="6.5402">
        <ele>153.6</ele>
        <time>2022-02-04T18:25:32Z</time>
      </trkpt>
      <trkpt lat="43.29067" lon="6.54016">
        <ele>153.6</ele>
        <time>2022-02-04T18:25:33Z</time>
      </trkpt>
      <trkpt lat="43.29064" lon="6.54011">
        <ele>153.2</ele>
        <time>2022-02-04T18:25:34Z</time>
      </trkpt>
      <trkpt lat="43.29061" lon="6.54007">
        <ele>152.6</ele>
        <time>2022-02-04T18:25:35Z</time>
      </trkpt>
      <trkpt lat="43.2906" lon="6.54004">
        <ele>152.2</ele>
        <time>2022-02-04T18:25:36Z</time>
      </trkpt>
      <trkpt lat="43.29058" lon="6.54001">
        <ele>151.8</ele>
        <time>2022-02-04T18:25:37Z</time>
      </trkpt>
      <trkpt lat="43.29058" lon="6.53996">
        <ele>151.4</ele>
        <time>2022-02-04T18:25:38Z</time>
      </trkpt>
      <trkpt lat="43.29058" lon="6.53992">
        <ele>150.6</ele>
        <time>2022-02-04T18:25:39Z</time>
      </trkpt>
      <trkpt lat="43.29058" lon="6.53989">
        <ele>149.8</ele>
        <time>2022-02-04T18:25:40Z</time>
      </trkpt>
      <trkpt lat="43.29056" lon="6.53986">
        <ele>149.2</ele>
        <time>2022-02-04T18:25:41Z</time>
      </trkpt>
      <trkpt lat="43.29053" lon="6.53984">
        <ele>148.6</ele>
        <time>2022-02-04T18:25:42Z</time>
      </trkpt>
      <trkpt lat="43.29051" lon="6.53981">
        <ele>147.2</ele>
        <time>2022-02-04T18:25:43Z</time>
      </trkpt>
      <trkpt lat="43.29049" lon="6.53978">
        <ele>146.4</ele>
        <time>2022-02-04T18:25:44Z</time>
      </trkpt>
      <trkpt lat="43.29048" lon="6.53975">
        <ele>146</ele>
        <time>2022-02-04T18:25:45Z</time>
      </trkpt>
      <trkpt lat="43.29047" lon="6.53971">
        <ele>145.6</ele>
        <time>2022-02-04T18:25:46Z</time>
      </trkpt>
      <trkpt lat="43.29046" lon="6.53965">
        <ele>145.4</ele>
        <time>2022-02-04T18:25:47Z</time>
      </trkpt>
      <trkpt lat="43.29045" lon="6.53958">
        <ele>145.2</ele>
        <time>2022-02-04T18:25:48Z</time>
      </trkpt>
      <trkpt lat="43.29043" lon="6.53952">
        <ele>145</ele>
        <time>2022-02-04T18:25:49Z</time>
      </trkpt>
      <trkpt lat="43.2904" lon="6.53947">
        <ele>144.6</ele>
        <time>2022-02-04T18:25:50Z</time>
      </trkpt>
      <trkpt lat="43.29038" lon="6.53944">
        <ele>144.4</ele>
        <time>2022-02-04T18:25:51Z</time>
      </trkpt>
      <trkpt lat="43.29037" lon="6.53943">
        <ele>144.2</ele>
        <time>2022-02-04T18:25:52Z</time>
      </trkpt>
      <trkpt lat="43.29037" lon="6.53943">
        <ele>144</ele>
        <time>2022-02-04T18:25:53Z</time>
      </trkpt>
      <trkpt lat="43.29037" lon="6.53943">
        <ele>144</ele>
        <time>2022-02-04T18:25:54Z</time>
      </trkpt>
      <trkpt lat="43.29037" lon="6.53943">
        <ele>144</ele>
        <time>2022-02-04T18:25:55Z</time>
      </trkpt>
      <trkpt lat="43.29037" lon="6.53943">
        <ele>144</ele>
        <time>2022-02-04T18:25:56Z</time>
      </trkpt>
      <trkpt lat="43.29037" lon="6.53943">
        <ele>144.4</ele>
        <time>2022-02-04T18:25:57Z</time>
      </trkpt>
      <trkpt lat="43.29036" lon="6.53943">
        <ele>144.4</ele>
        <time>2022-02-04T18:25:58Z</time>
      </trkpt>
      <trkpt lat="43.29036" lon="6.53943">
        <ele>144.6</ele>
        <time>2022-02-04T18:25:59Z</time>
      </trkpt>
      <trkpt lat="43.29036" lon="6.53943">
        <ele>144.6</ele>
        <time>2022-02-04T18:26:00Z</time>
      </trkpt>
      <trkpt lat="43.29036" lon="6.53942">
        <ele>144.4</ele>
        <time>2022-02-04T18:26:01Z</time>
      </trkpt>
      <trkpt lat="43.29034" lon="6.53942">
        <ele>144.4</ele>
        <time>2022-02-04T18:26:02Z</time>
      </trkpt>
      <trkpt lat="43.29032" lon="6.53942">
        <ele>144.2</ele>
        <time>2022-02-04T18:26:03Z</time>
      </trkpt>
      <trkpt lat="43.2903" lon="6.53942">
        <ele>144</ele>
        <time>2022-02-04T18:26:04Z</time>
      </trkpt>
      <trkpt lat="43.29027" lon="6.53941">
        <ele>143.8</ele>
        <time>2022-02-04T18:26:05Z</time>
      </trkpt>
      <trkpt lat="43.29024" lon="6.53938">
        <ele>143.6</ele>
        <time>2022-02-04T18:26:06Z</time>
      </trkpt>
      <trkpt lat="43.29022" lon="6.53933">
        <ele>143.2</ele>
        <time>2022-02-04T18:26:07Z</time>
      </trkpt>
      <trkpt lat="43.29019" lon="6.53927">
        <ele>142.2</ele>
        <time>2022-02-04T18:26:08Z</time>
      </trkpt>
      <trkpt lat="43.29016" lon="6.53922">
        <ele>140.8</ele>
        <time>2022-02-04T18:26:09Z</time>
      </trkpt>
      <trkpt lat="43.29013" lon="6.53918">
        <ele>140</ele>
        <time>2022-02-04T18:26:10Z</time>
      </trkpt>
      <trkpt lat="43.2901" lon="6.53915">
        <ele>139.4</ele>
        <time>2022-02-04T18:26:11Z</time>
      </trkpt>
      <trkpt lat="43.29007" lon="6.53914">
        <ele>139</ele>
        <time>2022-02-04T18:26:12Z</time>
      </trkpt>
      <trkpt lat="43.29004" lon="6.53915">
        <ele>138.2</ele>
        <time>2022-02-04T18:26:13Z</time>
      </trkpt>
      <trkpt lat="43.29" lon="6.53917">
        <ele>136.8</ele>
        <time>2022-02-04T18:26:14Z</time>
      </trkpt>
      <trkpt lat="43.28995" lon="6.53918">
        <ele>136</ele>
        <time>2022-02-04T18:26:15Z</time>
      </trkpt>
      <trkpt lat="43.2899" lon="6.53917">
        <ele>134.6</ele>
        <time>2022-02-04T18:26:16Z</time>
      </trkpt>
      <trkpt lat="43.28986" lon="6.53915">
        <ele>133.6</ele>
        <time>2022-02-04T18:26:17Z</time>
      </trkpt>
      <trkpt lat="43.28981" lon="6.53912">
        <ele>133.2</ele>
        <time>2022-02-04T18:26:18Z</time>
      </trkpt>
      <trkpt lat="43.28977" lon="6.5391">
        <ele>132.4</ele>
        <time>2022-02-04T18:26:19Z</time>
      </trkpt>
      <trkpt lat="43.28973" lon="6.53909">
        <ele>132</ele>
        <time>2022-02-04T18:26:20Z</time>
      </trkpt>
      <trkpt lat="43.28968" lon="6.53909">
        <ele>131.8</ele>
        <time>2022-02-04T18:26:21Z</time>
      </trkpt>
      <trkpt lat="43.28965" lon="6.5391">
        <ele>131.6</ele>
        <time>2022-02-04T18:26:22Z</time>
      </trkpt>
      <trkpt lat="43.28963" lon="6.53912">
        <ele>131.4</ele>
        <time>2022-02-04T18:26:23Z</time>
      </trkpt>
      <trkpt lat="43.28961" lon="6.53914">
        <ele>131.4</ele>
        <time>2022-02-04T18:26:24Z</time>
      </trkpt>
      <trkpt lat="43.28958" lon="6.53916">
        <ele>130.8</ele>
        <time>2022-02-04T18:26:25Z</time>
      </trkpt>
      <trkpt lat="43.28956" lon="6.53918">
        <ele>130.2</ele>
        <time>2022-02-04T18:26:26Z</time>
      </trkpt>
      <trkpt lat="43.28952" lon="6.53921">
        <ele>129.8</ele>
        <time>2022-02-04T18:26:27Z</time>
      </trkpt>
      <trkpt lat="43.28951" lon="6.53919">
        <ele>129</ele>
        <time>2022-02-04T18:26:28Z</time>
      </trkpt>
      <trkpt lat="43.2895" lon="6.53916">
        <ele>128.6</ele>
        <time>2022-02-04T18:26:29Z</time>
      </trkpt>
      <trkpt lat="43.28949" lon="6.53915">
        <ele>128</ele>
        <time>2022-02-04T18:26:30Z</time>
      </trkpt>
      <trkpt lat="43.28947" lon="6.53914">
        <ele>127.8</ele>
        <time>2022-02-04T18:26:31Z</time>
      </trkpt>
      <trkpt lat="43.28945" lon="6.53915">
        <ele>127.2</ele>
        <time>2022-02-04T18:26:32Z</time>
      </trkpt>
      <trkpt lat="43.28942" lon="6.53915">
        <ele>126.8</ele>
        <time>2022-02-04T18:26:33Z</time>
      </trkpt>
      <trkpt lat="43.2894" lon="6.53915">
        <ele>126</ele>
        <time>2022-02-04T18:26:34Z</time>
      </trkpt>
      <trkpt lat="43.28937" lon="6.53916">
        <ele>125.6</ele>
        <time>2022-02-04T18:26:35Z</time>
      </trkpt>
      <trkpt lat="43.28934" lon="6.53918">
        <ele>125.2</ele>
        <time>2022-02-04T18:26:36Z</time>
      </trkpt>
      <trkpt lat="43.28931" lon="6.53919">
        <ele>125</ele>
        <time>2022-02-04T18:26:37Z</time>
      </trkpt>
      <trkpt lat="43.28929" lon="6.53918">
        <ele>124.8</ele>
        <time>2022-02-04T18:26:38Z</time>
      </trkpt>
      <trkpt lat="43.28927" lon="6.53915">
        <ele>124.6</ele>
        <time>2022-02-04T18:26:39Z</time>
      </trkpt>
      <trkpt lat="43.28926" lon="6.53912">
        <ele>123.4</ele>
        <time>2022-02-04T18:26:40Z</time>
      </trkpt>
      <trkpt lat="43.28925" lon="6.53908">
        <ele>122.6</ele>
        <time>2022-02-04T18:26:41Z</time>
      </trkpt>
      <trkpt lat="43.28924" lon="6.53906">
        <ele>121.8</ele>
        <time>2022-02-04T18:26:42Z</time>
      </trkpt>
      <trkpt lat="43.28921" lon="6.53905">
        <ele>120.6</ele>
        <time>2022-02-04T18:26:43Z</time>
      </trkpt>
      <trkpt lat="43.28919" lon="6.53903">
        <ele>119.8</ele>
        <time>2022-02-04T18:26:44Z</time>
      </trkpt>
      <trkpt lat="43.28919" lon="6.53901">
        <ele>119.2</ele>
        <time>2022-02-04T18:26:45Z</time>
      </trkpt>
      <trkpt lat="43.28919" lon="6.53898">
        <ele>118.2</ele>
        <time>2022-02-04T18:26:46Z</time>
      </trkpt>
      <trkpt lat="43.2892" lon="6.53895">
        <ele>117.6</ele>
        <time>2022-02-04T18:26:47Z</time>
      </trkpt>
      <trkpt lat="43.28923" lon="6.53889">
        <ele>117.2</ele>
        <time>2022-02-04T18:26:48Z</time>
      </trkpt>
      <trkpt lat="43.28924" lon="6.53884">
        <ele>116.8</ele>
        <time>2022-02-04T18:26:49Z</time>
      </trkpt>
      <trkpt lat="43.28926" lon="6.53879">
        <ele>116.6</ele>
        <time>2022-02-04T18:26:50Z</time>
      </trkpt>
      <trkpt lat="43.28926" lon="6.53875">
        <ele>116.4</ele>
        <time>2022-02-04T18:26:51Z</time>
      </trkpt>
      <trkpt lat="43.28925" lon="6.53872">
        <ele>116</ele>
        <time>2022-02-04T18:26:52Z</time>
      </trkpt>
      <trkpt lat="43.28923" lon="6.53868">
        <ele>115.8</ele>
        <time>2022-02-04T18:26:53Z</time>
      </trkpt>
      <trkpt lat="43.28923" lon="6.53864">
        <ele>115.6</ele>
        <time>2022-02-04T18:26:54Z</time>
      </trkpt>
      <trkpt lat="43.28925" lon="6.53861">
        <ele>115.2</ele>
        <time>2022-02-04T18:26:55Z</time>
      </trkpt>
      <trkpt lat="43.28927" lon="6.53858">
        <ele>114.8</ele>
        <time>2022-02-04T18:26:56Z</time>
      </trkpt>
      <trkpt lat="43.28928" lon="6.53855">
        <ele>114.8</ele>
        <time>2022-02-04T18:26:57Z</time>
      </trkpt>
      <trkpt lat="43.2893" lon="6.5385">
        <ele>114.4</ele>
        <time>2022-02-04T18:26:58Z</time>
      </trkpt>
      <trkpt lat="43.2893" lon="6.53846">
        <ele>114.2</ele>
        <time>2022-02-04T18:26:59Z</time>
      </trkpt>
      <trkpt lat="43.28928" lon="6.5384">
        <ele>113.4</ele>
        <time>2022-02-04T18:27:00Z</time>
      </trkpt>
      <trkpt lat="43.28927" lon="6.53835">
        <ele>112.6</ele>
        <time>2022-02-04T18:27:01Z</time>
      </trkpt>
      <trkpt lat="43.28927" lon="6.53827">
        <ele>111.4</ele>
        <time>2022-02-04T18:27:02Z</time>
      </trkpt>
      <trkpt lat="43.28926" lon="6.53822">
        <ele>110.4</ele>
        <time>2022-02-04T18:27:03Z</time>
      </trkpt>
      <trkpt lat="43.28925" lon="6.53815">
        <ele>109.8</ele>
        <time>2022-02-04T18:27:04Z</time>
      </trkpt>
      <trkpt lat="43.28925" lon="6.53807">
        <ele>109</ele>
        <time>2022-02-04T18:27:05Z</time>
      </trkpt>
      <trkpt lat="43.28926" lon="6.53799">
        <ele>108.4</ele>
        <time>2022-02-04T18:27:06Z</time>
      </trkpt>
      <trkpt lat="43.28926" lon="6.53792">
        <ele>108</ele>
        <time>2022-02-04T18:27:07Z</time>
      </trkpt>
      <trkpt lat="43.28925" lon="6.53782">
        <ele>107.8</ele>
        <time>2022-02-04T18:27:08Z</time>
      </trkpt>
      <trkpt lat="43.28925" lon="6.53775">
        <ele>107.4</ele>
        <time>2022-02-04T18:27:09Z</time>
      </trkpt>
      <trkpt lat="43.28925" lon="6.53767">
        <ele>107.4</ele>
        <time>2022-02-04T18:27:10Z</time>
      </trkpt>
      <trkpt lat="43.28925" lon="6.5376">
        <ele>107.6</ele>
        <time>2022-02-04T18:27:11Z</time>
      </trkpt>
      <trkpt lat="43.28925" lon="6.53753">
        <ele>107.8</ele>
        <time>2022-02-04T18:27:12Z</time>
      </trkpt>
      <trkpt lat="43.28924" lon="6.53746">
        <ele>108.4</ele>
        <time>2022-02-04T18:27:13Z</time>
      </trkpt>
      <trkpt lat="43.28924" lon="6.53739">
        <ele>108.8</ele>
        <time>2022-02-04T18:27:14Z</time>
      </trkpt>
      <trkpt lat="43.28924" lon="6.53731">
        <ele>109</ele>
        <time>2022-02-04T18:27:15Z</time>
      </trkpt>
      <trkpt lat="43.28925" lon="6.53724">
        <ele>109</ele>
        <time>2022-02-04T18:27:16Z</time>
      </trkpt>
      <trkpt lat="43.28927" lon="6.53716">
        <ele>108.8</ele>
        <time>2022-02-04T18:27:17Z</time>
      </trkpt>
      <trkpt lat="43.2893" lon="6.53708">
        <ele>108.8</ele>
        <time>2022-02-04T18:27:18Z</time>
      </trkpt>
      <trkpt lat="43.28933" lon="6.53701">
        <ele>108.8</ele>
        <time>2022-02-04T18:27:19Z</time>
      </trkpt>
      <trkpt lat="43.28937" lon="6.53694">
        <ele>108.6</ele>
        <time>2022-02-04T18:27:20Z</time>
      </trkpt>
      <trkpt lat="43.2894" lon="6.53689">
        <ele>108.6</ele>
        <time>2022-02-04T18:27:21Z</time>
      </trkpt>
      <trkpt lat="43.28945" lon="6.53678">
        <ele>108.6</ele>
        <time>2022-02-04T18:27:22Z</time>
      </trkpt>
      <trkpt lat="43.28946" lon="6.53669">
        <ele>108.6</ele>
        <time>2022-02-04T18:27:23Z</time>
      </trkpt>
      <trkpt lat="43.28944" lon="6.53661">
        <ele>108.6</ele>
        <time>2022-02-04T18:27:24Z</time>
      </trkpt>
      <trkpt lat="43.28941" lon="6.53654">
        <ele>108.4</ele>
        <time>2022-02-04T18:27:25Z</time>
      </trkpt>
      <trkpt lat="43.28938" lon="6.53648">
        <ele>108.2</ele>
        <time>2022-02-04T18:27:26Z</time>
      </trkpt>
      <trkpt lat="43.28935" lon="6.53641">
        <ele>108</ele>
        <time>2022-02-04T18:27:27Z</time>
      </trkpt>
      <trkpt lat="43.28932" lon="6.53635">
        <ele>107.4</ele>
        <time>2022-02-04T18:27:28Z</time>
      </trkpt>
      <trkpt lat="43.28931" lon="6.5363">
        <ele>107.2</ele>
        <time>2022-02-04T18:27:29Z</time>
      </trkpt>
      <trkpt lat="43.28929" lon="6.53628">
        <ele>107</ele>
        <time>2022-02-04T18:27:30Z</time>
      </trkpt>
      <trkpt lat="43.28926" lon="6.53625">
        <ele>107</ele>
        <time>2022-02-04T18:27:31Z</time>
      </trkpt>
      <trkpt lat="43.28923" lon="6.53621">
        <ele>106.6</ele>
        <time>2022-02-04T18:27:32Z</time>
      </trkpt>
      <trkpt lat="43.28918" lon="6.53614">
        <ele>106.2</ele>
        <time>2022-02-04T18:27:33Z</time>
      </trkpt>
      <trkpt lat="43.28915" lon="6.53608">
        <ele>105.6</ele>
        <time>2022-02-04T18:27:34Z</time>
      </trkpt>
      <trkpt lat="43.28914" lon="6.53603">
        <ele>105.2</ele>
        <time>2022-02-04T18:27:35Z</time>
      </trkpt>
      <trkpt lat="43.28914" lon="6.53597">
        <ele>104.6</ele>
        <time>2022-02-04T18:27:36Z</time>
      </trkpt>
      <trkpt lat="43.28914" lon="6.53591">
        <ele>104.2</ele>
        <time>2022-02-04T18:27:37Z</time>
      </trkpt>
      <trkpt lat="43.28915" lon="6.53587">
        <ele>104</ele>
        <time>2022-02-04T18:27:38Z</time>
      </trkpt>
      <trkpt lat="43.28918" lon="6.53585">
        <ele>103.6</ele>
        <time>2022-02-04T18:27:39Z</time>
      </trkpt>
      <trkpt lat="43.28922" lon="6.53586">
        <ele>102.8</ele>
        <time>2022-02-04T18:27:40Z</time>
      </trkpt>
      <trkpt lat="43.28925" lon="6.53587">
        <ele>101.8</ele>
        <time>2022-02-04T18:27:41Z</time>
      </trkpt>
      <trkpt lat="43.28928" lon="6.5359">
        <ele>101.2</ele>
        <time>2022-02-04T18:27:42Z</time>
      </trkpt>
      <trkpt lat="43.28932" lon="6.53592">
        <ele>101</ele>
        <time>2022-02-04T18:27:43Z</time>
      </trkpt>
      <trkpt lat="43.28935" lon="6.53593">
        <ele>100.4</ele>
        <time>2022-02-04T18:27:44Z</time>
      </trkpt>
      <trkpt lat="43.28937" lon="6.53593">
        <ele>100</ele>
        <time>2022-02-04T18:27:45Z</time>
      </trkpt>
      <trkpt lat="43.28937" lon="6.53591">
        <ele>99.8</ele>
        <time>2022-02-04T18:27:46Z</time>
      </trkpt>
      <trkpt lat="43.28935" lon="6.53586">
        <ele>99.6</ele>
        <time>2022-02-04T18:27:47Z</time>
      </trkpt>
      <trkpt lat="43.28933" lon="6.53581">
        <ele>99.4</ele>
        <time>2022-02-04T18:27:48Z</time>
      </trkpt>
      <trkpt lat="43.28928" lon="6.53572">
        <ele>98.8</ele>
        <time>2022-02-04T18:27:49Z</time>
      </trkpt>
      <trkpt lat="43.28925" lon="6.53566">
        <ele>98</ele>
        <time>2022-02-04T18:27:50Z</time>
      </trkpt>
      <trkpt lat="43.28921" lon="6.53561">
        <ele>97.2</ele>
        <time>2022-02-04T18:27:51Z</time>
      </trkpt>
      <trkpt lat="43.28918" lon="6.53556">
        <ele>96.4</ele>
        <time>2022-02-04T18:27:52Z</time>
      </trkpt>
      <trkpt lat="43.28913" lon="6.53553">
        <ele>95.8</ele>
        <time>2022-02-04T18:27:53Z</time>
      </trkpt>
      <trkpt lat="43.28908" lon="6.53551">
        <ele>95.4</ele>
        <time>2022-02-04T18:27:54Z</time>
      </trkpt>
      <trkpt lat="43.28903" lon="6.53548">
        <ele>95.2</ele>
        <time>2022-02-04T18:27:55Z</time>
      </trkpt>
      <trkpt lat="43.28899" lon="6.53545">
        <ele>95</ele>
        <time>2022-02-04T18:27:56Z</time>
      </trkpt>
      <trkpt lat="43.28894" lon="6.53543">
        <ele>95</ele>
        <time>2022-02-04T18:27:57Z</time>
      </trkpt>
      <trkpt lat="43.28891" lon="6.53542">
        <ele>95</ele>
        <time>2022-02-04T18:27:58Z</time>
      </trkpt>
      <trkpt lat="43.28887" lon="6.53542">
        <ele>95</ele>
        <time>2022-02-04T18:27:59Z</time>
      </trkpt>
      <trkpt lat="43.28883" lon="6.53541">
        <ele>95</ele>
        <time>2022-02-04T18:28:00Z</time>
      </trkpt>
      <trkpt lat="43.2888" lon="6.5354">
        <ele>95</ele>
        <time>2022-02-04T18:28:01Z</time>
      </trkpt>
      <trkpt lat="43.28874" lon="6.53541">
        <ele>95.4</ele>
        <time>2022-02-04T18:28:02Z</time>
      </trkpt>
      <trkpt lat="43.28869" lon="6.53542">
        <ele>95.2</ele>
        <time>2022-02-04T18:28:03Z</time>
      </trkpt>
      <trkpt lat="43.28866" lon="6.53541">
        <ele>95.2</ele>
        <time>2022-02-04T18:28:04Z</time>
      </trkpt>
      <trkpt lat="43.28863" lon="6.5354">
        <ele>95</ele>
        <time>2022-02-04T18:28:05Z</time>
      </trkpt>
      <trkpt lat="43.28861" lon="6.53539">
        <ele>94.6</ele>
        <time>2022-02-04T18:28:06Z</time>
      </trkpt>
      <trkpt lat="43.28856" lon="6.53539">
        <ele>94.4</ele>
        <time>2022-02-04T18:28:07Z</time>
      </trkpt>
      <trkpt lat="43.28853" lon="6.53541">
        <ele>94.2</ele>
        <time>2022-02-04T18:28:08Z</time>
      </trkpt>
      <trkpt lat="43.28847" lon="6.53541">
        <ele>93.8</ele>
        <time>2022-02-04T18:28:09Z</time>
      </trkpt>
      <trkpt lat="43.28843" lon="6.53539">
        <ele>93.4</ele>
        <time>2022-02-04T18:28:10Z</time>
      </trkpt>
      <trkpt lat="43.28841" lon="6.53537">
        <ele>93</ele>
        <time>2022-02-04T18:28:11Z</time>
      </trkpt>
      <trkpt lat="43.28838" lon="6.53534">
        <ele>92.6</ele>
        <time>2022-02-04T18:28:12Z</time>
      </trkpt>
      <trkpt lat="43.28834" lon="6.53531">
        <ele>92.2</ele>
        <time>2022-02-04T18:28:13Z</time>
      </trkpt>
      <trkpt lat="43.28829" lon="6.53531">
        <ele>91.4</ele>
        <time>2022-02-04T18:28:14Z</time>
      </trkpt>
      <trkpt lat="43.28824" lon="6.53531">
        <ele>90.4</ele>
        <time>2022-02-04T18:28:15Z</time>
      </trkpt>
      <trkpt lat="43.28818" lon="6.53531">
        <ele>89.2</ele>
        <time>2022-02-04T18:28:16Z</time>
      </trkpt>
      <trkpt lat="43.28813" lon="6.5353">
        <ele>88.6</ele>
        <time>2022-02-04T18:28:17Z</time>
      </trkpt>
      <trkpt lat="43.28809" lon="6.53527">
        <ele>88</ele>
        <time>2022-02-04T18:28:18Z</time>
      </trkpt>
      <trkpt lat="43.28805" lon="6.53524">
        <ele>86.8</ele>
        <time>2022-02-04T18:28:19Z</time>
      </trkpt>
      <trkpt lat="43.28802" lon="6.53524">
        <ele>85.8</ele>
        <time>2022-02-04T18:28:20Z</time>
      </trkpt>
      <trkpt lat="43.28799" lon="6.53526">
        <ele>85.2</ele>
        <time>2022-02-04T18:28:21Z</time>
      </trkpt>
      <trkpt lat="43.28796" lon="6.53529">
        <ele>85</ele>
        <time>2022-02-04T18:28:22Z</time>
      </trkpt>
      <trkpt lat="43.28792" lon="6.53532">
        <ele>84.6</ele>
        <time>2022-02-04T18:28:23Z</time>
      </trkpt>
      <trkpt lat="43.28787" lon="6.53535">
        <ele>84</ele>
        <time>2022-02-04T18:28:24Z</time>
      </trkpt>
      <trkpt lat="43.28782" lon="6.53538">
        <ele>83.6</ele>
        <time>2022-02-04T18:28:25Z</time>
      </trkpt>
      <trkpt lat="43.28778" lon="6.5354">
        <ele>83.2</ele>
        <time>2022-02-04T18:28:26Z</time>
      </trkpt>
      <trkpt lat="43.28772" lon="6.53544">
        <ele>82.6</ele>
        <time>2022-02-04T18:28:27Z</time>
      </trkpt>
      <trkpt lat="43.28766" lon="6.53548">
        <ele>82</ele>
        <time>2022-02-04T18:28:28Z</time>
      </trkpt>
      <trkpt lat="43.2876" lon="6.53555">
        <ele>81</ele>
        <time>2022-02-04T18:28:29Z</time>
      </trkpt>
      <trkpt lat="43.28756" lon="6.53562">
        <ele>80.4</ele>
        <time>2022-02-04T18:28:30Z</time>
      </trkpt>
      <trkpt lat="43.28754" lon="6.53567">
        <ele>79.2</ele>
        <time>2022-02-04T18:28:31Z</time>
      </trkpt>
      <trkpt lat="43.28751" lon="6.53572">
        <ele>78</ele>
        <time>2022-02-04T18:28:32Z</time>
      </trkpt>
      <trkpt lat="43.28749" lon="6.53575">
        <ele>77.4</ele>
        <time>2022-02-04T18:28:33Z</time>
      </trkpt>
      <trkpt lat="43.28746" lon="6.53573">
        <ele>77</ele>
        <time>2022-02-04T18:28:34Z</time>
      </trkpt>
      <trkpt lat="43.28743" lon="6.5357">
        <ele>76.2</ele>
        <time>2022-02-04T18:28:35Z</time>
      </trkpt>
      <trkpt lat="43.2874" lon="6.53567">
        <ele>76</ele>
        <time>2022-02-04T18:28:36Z</time>
      </trkpt>
      <trkpt lat="43.28736" lon="6.53566">
        <ele>75.4</ele>
        <time>2022-02-04T18:28:37Z</time>
      </trkpt>
      <trkpt lat="43.28733" lon="6.53564">
        <ele>74.8</ele>
        <time>2022-02-04T18:28:38Z</time>
      </trkpt>
      <trkpt lat="43.28729" lon="6.53562">
        <ele>74.2</ele>
        <time>2022-02-04T18:28:39Z</time>
      </trkpt>
      <trkpt lat="43.28725" lon="6.53559">
        <ele>72.4</ele>
        <time>2022-02-04T18:28:40Z</time>
      </trkpt>
      <trkpt lat="43.28724" lon="6.53558">
        <ele>71</ele>
        <time>2022-02-04T18:28:41Z</time>
      </trkpt>
      <trkpt lat="43.28723" lon="6.53557">
        <ele>70</ele>
        <time>2022-02-04T18:28:42Z</time>
      </trkpt>
      <trkpt lat="43.28723" lon="6.53557">
        <ele>69.2</ele>
        <time>2022-02-04T18:28:43Z</time>
      </trkpt>
      <trkpt lat="43.28723" lon="6.53558">
        <ele>68.6</ele>
        <time>2022-02-04T18:28:44Z</time>
      </trkpt>
      <trkpt lat="43.28722" lon="6.53557">
        <ele>68.2</ele>
        <time>2022-02-04T18:28:45Z</time>
      </trkpt>
      <trkpt lat="43.28722" lon="6.53557">
        <ele>67.8</ele>
        <time>2022-02-04T18:28:46Z</time>
      </trkpt>
      <trkpt lat="43.28722" lon="6.53557">
        <ele>67.6</ele>
        <time>2022-02-04T18:28:47Z</time>
      </trkpt>
      <trkpt lat="43.28722" lon="6.53557">
        <ele>67.6</ele>
        <time>2022-02-04T18:28:48Z</time>
      </trkpt>
      <trkpt lat="43.28722" lon="6.53557">
        <ele>67.6</ele>
        <time>2022-02-04T18:28:49Z</time>
      </trkpt>
      <trkpt lat="43.28722" lon="6.53557">
        <ele>67.6</ele>
        <time>2022-02-04T18:28:50Z</time>
      </trkpt>
      <trkpt lat="43.28722" lon="6.53557">
        <ele>67.6</ele>
        <time>2022-02-04T18:28:51Z</time>
      </trkpt>
      <trkpt lat="43.28722" lon="6.53557">
        <ele>67.6</ele>
        <time>2022-02-04T18:28:52Z</time>
      </trkpt>
      <trkpt lat="43.28722" lon="6.53557">
        <ele>67.6</ele>
        <time>2022-02-04T18:28:53Z</time>
      </trkpt>
      <trkpt lat="43.28722" lon="6.53557">
        <ele>67.6</ele>
        <time>2022-02-04T18:28:54Z</time>
      </trkpt>
      <trkpt lat="43.28722" lon="6.53557">
        <ele>67.6</ele>
        <time>2022-02-04T18:28:55Z</time>
      </trkpt>
      <trkpt lat="43.28722" lon="6.53557">
        <ele>67.6</ele>
        <time>2022-02-04T18:28:56Z</time>
      </trkpt>
      <trkpt lat="43.28722" lon="6.53557">
        <ele>67.6</ele>
        <time>2022-02-04T18:28:57Z</time>
      </trkpt>
      <trkpt lat="43.28722" lon="6.53557">
        <ele>67.6</ele>
        <time>2022-02-04T18:28:58Z</time>
      </trkpt>
      <trkpt lat="43.28722" lon="6.53557">
        <ele>67.4</ele>
        <time>2022-02-04T18:28:59Z</time>
      </trkpt>
      <trkpt lat="43.28722" lon="6.53557">
        <ele>67.4</ele>
        <time>2022-02-04T18:29:00Z</time>
      </trkpt>
      <trkpt lat="43.28722" lon="6.53557">
        <ele>67.2</ele>
        <time>2022-02-04T18:29:01Z</time>
      </trkpt>
      <trkpt lat="43.28722" lon="6.53557">
        <ele>67.2</ele>
        <time>2022-02-04T18:29:02Z</time>
      </trkpt>
      <trkpt lat="43.28722" lon="6.53557">
        <ele>67.2</ele>
        <time>2022-02-04T18:29:03Z</time>
      </trkpt>
      <trkpt lat="43.28722" lon="6.53557">
        <ele>67.2</ele>
        <time>2022-02-04T18:29:04Z</time>
      </trkpt>
      <trkpt lat="43.28722" lon="6.53557">
        <ele>67</ele>
        <time>2022-02-04T18:29:05Z</time>
      </trkpt>
      <trkpt lat="43.28722" lon="6.53557">
        <ele>67</ele>
        <time>2022-02-04T18:29:06Z</time>
      </trkpt>
      <trkpt lat="43.28722" lon="6.53557">
        <ele>67</ele>
        <time>2022-02-04T18:29:07Z</time>
      </trkpt>
      <trkpt lat="43.28722" lon="6.53557">
        <ele>66.8</ele>
        <time>2022-02-04T18:29:08Z</time>
      </trkpt>
      <trkpt lat="43.28722" lon="6.53557">
        <ele>66.8</ele>
        <time>2022-02-04T18:29:09Z</time>
      </trkpt>
      <trkpt lat="43.28722" lon="6.53557">
        <ele>66.8</ele>
        <time>2022-02-04T18:29:10Z</time>
      </trkpt>
      <trkpt lat="43.28722" lon="6.53557">
        <ele>66.8</ele>
        <time>2022-02-04T18:29:11Z</time>
      </trkpt>
      <trkpt lat="43.28722" lon="6.53557">
        <ele>66.8</ele>
        <time>2022-02-04T18:29:12Z</time>
      </trkpt>
      <trkpt lat="43.28722" lon="6.53557">
        <ele>66.6</ele>
        <time>2022-02-04T18:29:13Z</time>
      </trkpt>
      <trkpt lat="43.28722" lon="6.53557">
        <ele>66.6</ele>
        <time>2022-02-04T18:29:14Z</time>
      </trkpt>
      <trkpt lat="43.28722" lon="6.53557">
        <ele>66.6</ele>
        <time>2022-02-04T18:29:15Z</time>
      </trkpt>
      <trkpt lat="43.28722" lon="6.53557">
        <ele>66.4</ele>
        <time>2022-02-04T18:29:16Z</time>
      </trkpt>
      <trkpt lat="43.28722" lon="6.53557">
        <ele>66.4</ele>
        <time>2022-02-04T18:29:17Z</time>
      </trkpt>
      <trkpt lat="43.28722" lon="6.53557">
        <ele>66.4</ele>
        <time>2022-02-04T18:29:18Z</time>
      </trkpt>
      <trkpt lat="43.28722" lon="6.53557">
        <ele>66.4</ele>
        <time>2022-02-04T18:29:19Z</time>
      </trkpt>
      <trkpt lat="43.28722" lon="6.53557">
        <ele>66.4</ele>
        <time>2022-02-04T18:29:20Z</time>
      </trkpt>
      <trkpt lat="43.28722" lon="6.53557">
        <ele>66.4</ele>
        <time>2022-02-04T18:29:21Z</time>
      </trkpt>
      <trkpt lat="43.28722" lon="6.53557">
        <ele>66.4</ele>
        <time>2022-02-04T18:29:22Z</time>
      </trkpt>
      <trkpt lat="43.28722" lon="6.53557">
        <ele>66.4</ele>
        <time>2022-02-04T18:29:23Z</time>
      </trkpt>
      <trkpt lat="43.28722" lon="6.53557">
        <ele>66.4</ele>
        <time>2022-02-04T18:29:24Z</time>
      </trkpt>
      <trkpt lat="43.28722" lon="6.53557">
        <ele>66.4</ele>
        <time>2022-02-04T18:29:25Z</time>
      </trkpt>
      <trkpt lat="43.28722" lon="6.53557">
        <ele>66.4</ele>
        <time>2022-02-04T18:29:26Z</time>
      </trkpt>
      <trkpt lat="43.28722" lon="6.53557">
        <ele>66.2</ele>
        <time>2022-02-04T18:29:27Z</time>
      </trkpt>
      <trkpt lat="43.28722" lon="6.53557">
        <ele>66.2</ele>
        <time>2022-02-04T18:29:28Z</time>
      </trkpt>
      <trkpt lat="43.28722" lon="6.53557">
        <ele>66</ele>
        <time>2022-02-04T18:29:29Z</time>
      </trkpt>
      <trkpt lat="43.28722" lon="6.53557">
        <ele>66</ele>
        <time>2022-02-04T18:29:30Z</time>
      </trkpt>
      <trkpt lat="43.28722" lon="6.53557">
        <ele>66</ele>
        <time>2022-02-04T18:29:31Z</time>
      </trkpt>
      <trkpt lat="43.28722" lon="6.53557">
        <ele>66</ele>
        <time>2022-02-04T18:29:32Z</time>
      </trkpt>
      <trkpt lat="43.28722" lon="6.53557">
        <ele>66</ele>
        <time>2022-02-04T18:29:33Z</time>
      </trkpt>
      <trkpt lat="43.28722" lon="6.53557">
        <ele>66</ele>
        <time>2022-02-04T18:29:34Z</time>
      </trkpt>
      <trkpt lat="43.28722" lon="6.53557">
        <ele>66</ele>
        <time>2022-02-04T18:29:35Z</time>
      </trkpt>
      <trkpt lat="43.28722" lon="6.53557">
        <ele>66</ele>
        <time>2022-02-04T18:29:36Z</time>
      </trkpt>
      <trkpt lat="43.28722" lon="6.53557">
        <ele>66</ele>
        <time>2022-02-04T18:29:37Z</time>
      </trkpt>
      <trkpt lat="43.28722" lon="6.53557">
        <ele>65.8</ele>
        <time>2022-02-04T18:29:38Z</time>
      </trkpt>
      <trkpt lat="43.28722" lon="6.53557">
        <ele>65.8</ele>
        <time>2022-02-04T18:29:39Z</time>
      </trkpt>
      <trkpt lat="43.28722" lon="6.53557">
        <ele>65.8</ele>
        <time>2022-02-04T18:29:40Z</time>
      </trkpt>
      <trkpt lat="43.28722" lon="6.53557">
        <ele>65.8</ele>
        <time>2022-02-04T18:29:41Z</time>
      </trkpt>
      <trkpt lat="43.28722" lon="6.53557">
        <ele>65.6</ele>
        <time>2022-02-04T18:29:42Z</time>
      </trkpt>
      <trkpt lat="43.28722" lon="6.53557">
        <ele>65.6</ele>
        <time>2022-02-04T18:29:43Z</time>
      </trkpt>
      <trkpt lat="43.28722" lon="6.53557">
        <ele>65.6</ele>
        <time>2022-02-04T18:29:44Z</time>
      </trkpt>
      <trkpt lat="43.28722" lon="6.53557">
        <ele>65.6</ele>
        <time>2022-02-04T18:29:45Z</time>
      </trkpt>
      <trkpt lat="43.28722" lon="6.53557">
        <ele>65.8</ele>
        <time>2022-02-04T18:29:46Z</time>
      </trkpt>
      <trkpt lat="43.28722" lon="6.53557">
        <ele>65.8</ele>
        <time>2022-02-04T18:29:47Z</time>
      </trkpt>
      <trkpt lat="43.28722" lon="6.53557">
        <ele>65.6</ele>
        <time>2022-02-04T18:29:48Z</time>
      </trkpt>
      <trkpt lat="43.28722" lon="6.53557">
        <ele>65.6</ele>
        <time>2022-02-04T18:29:49Z</time>
      </trkpt>
      <trkpt lat="43.28722" lon="6.53557">
        <ele>65.6</ele>
        <time>2022-02-04T18:29:50Z</time>
      </trkpt>
      <trkpt lat="43.28722" lon="6.53557">
        <ele>65.6</ele>
        <time>2022-02-04T18:29:51Z</time>
      </trkpt>
      <trkpt lat="43.28722" lon="6.53557">
        <ele>65.6</ele>
        <time>2022-02-04T18:29:52Z</time>
      </trkpt>
      <trkpt lat="43.28722" lon="6.53557">
        <ele>65.6</ele>
        <time>2022-02-04T18:29:53Z</time>
      </trkpt>
      <trkpt lat="43.28722" lon="6.53557">
        <ele>65.6</ele>
        <time>2022-02-04T18:29:54Z</time>
      </trkpt>
      <trkpt lat="43.28722" lon="6.53557">
        <ele>65.6</ele>
        <time>2022-02-04T18:29:55Z</time>
      </trkpt>
      <trkpt lat="43.28722" lon="6.53557">
        <ele>65.4</ele>
        <time>2022-02-04T18:29:56Z</time>
      </trkpt>
      <trkpt lat="43.28722" lon="6.53557">
        <ele>65.4</ele>
        <time>2022-02-04T18:29:57Z</time>
      </trkpt>
      <trkpt lat="43.28722" lon="6.53557">
        <ele>65.4</ele>
        <time>2022-02-04T18:29:58Z</time>
      </trkpt>
      <trkpt lat="43.28722" lon="6.53557">
        <ele>65.4</ele>
        <time>2022-02-04T18:29:59Z</time>
      </trkpt>
      <trkpt lat="43.28722" lon="6.53557">
        <ele>65.4</ele>
        <time>2022-02-04T18:30:00Z</time>
      </trkpt>
      <trkpt lat="43.28722" lon="6.53557">
        <ele>65.2</ele>
        <time>2022-02-04T18:30:01Z</time>
      </trkpt>
      <trkpt lat="43.28722" lon="6.53557">
        <ele>65.2</ele>
        <time>2022-02-04T18:30:02Z</time>
      </trkpt>
      <trkpt lat="43.28722" lon="6.53557">
        <ele>65.2</ele>
        <time>2022-02-04T18:30:03Z</time>
      </trkpt>
      <trkpt lat="43.28722" lon="6.53557">
        <ele>65.2</ele>
        <time>2022-02-04T18:30:04Z</time>
      </trkpt>
      <trkpt lat="43.28722" lon="6.53557">
        <ele>65.2</ele>
        <time>2022-02-04T18:30:05Z</time>
      </trkpt>
      <trkpt lat="43.28722" lon="6.53557">
        <ele>65.2</ele>
        <time>2022-02-04T18:30:06Z</time>
      </trkpt>
      <trkpt lat="43.28723" lon="6.53555">
        <ele>65.2</ele>
        <time>2022-02-04T18:30:07Z</time>
      </trkpt>
      <trkpt lat="43.28725" lon="6.53554">
        <ele>65</ele>
        <time>2022-02-04T18:30:08Z</time>
      </trkpt>
      <trkpt lat="43.28726" lon="6.53552">
        <ele>65.2</ele>
        <time>2022-02-04T18:30:09Z</time>
      </trkpt>
      <trkpt lat="43.28728" lon="6.53551">
        <ele>65.2</ele>
        <time>2022-02-04T18:30:10Z</time>
      </trkpt>
      <trkpt lat="43.28729" lon="6.5355">
        <ele>65.2</ele>
        <time>2022-02-04T18:30:11Z</time>
      </trkpt>
      <trkpt lat="43.28731" lon="6.53548">
        <ele>65.2</ele>
        <time>2022-02-04T18:30:12Z</time>
      </trkpt>
      <trkpt lat="43.28734" lon="6.53547">
        <ele>65.2</ele>
        <time>2022-02-04T18:30:13Z</time>
      </trkpt>
      <trkpt lat="43.28736" lon="6.53545">
        <ele>65.4</ele>
        <time>2022-02-04T18:30:14Z</time>
      </trkpt>
      <trkpt lat="43.28739" lon="6.53543">
        <ele>65.6</ele>
        <time>2022-02-04T18:30:15Z</time>
      </trkpt>
      <trkpt lat="43.28741" lon="6.5354">
        <ele>66</ele>
        <time>2022-02-04T18:30:16Z</time>
      </trkpt>
      <trkpt lat="43.28744" lon="6.53537">
        <ele>66.6</ele>
        <time>2022-02-04T18:30:17Z</time>
      </trkpt>
      <trkpt lat="43.28746" lon="6.53534">
        <ele>66.8</ele>
        <time>2022-02-04T18:30:18Z</time>
      </trkpt>
      <trkpt lat="43.28749" lon="6.53532">
        <ele>67.4</ele>
        <time>2022-02-04T18:30:19Z</time>
      </trkpt>
      <trkpt lat="43.28752" lon="6.53529">
        <ele>68.6</ele>
        <time>2022-02-04T18:30:20Z</time>
      </trkpt>
      <trkpt lat="43.28755" lon="6.53526">
        <ele>69.2</ele>
        <time>2022-02-04T18:30:21Z</time>
      </trkpt>
      <trkpt lat="43.28757" lon="6.53524">
        <ele>69.6</ele>
        <time>2022-02-04T18:30:22Z</time>
      </trkpt>
      <trkpt lat="43.2876" lon="6.53521">
        <ele>70</ele>
        <time>2022-02-04T18:30:23Z</time>
      </trkpt>
      <trkpt lat="43.28763" lon="6.53519">
        <ele>70.4</ele>
        <time>2022-02-04T18:30:24Z</time>
      </trkpt>
      <trkpt lat="43.28766" lon="6.53518">
        <ele>71</ele>
        <time>2022-02-04T18:30:25Z</time>
      </trkpt>
      <trkpt lat="43.28769" lon="6.53517">
        <ele>71.6</ele>
        <time>2022-02-04T18:30:26Z</time>
      </trkpt>
      <trkpt lat="43.28772" lon="6.53516">
        <ele>72</ele>
        <time>2022-02-04T18:30:27Z</time>
      </trkpt>
      <trkpt lat="43.28775" lon="6.53515">
        <ele>72.6</ele>
        <time>2022-02-04T18:30:28Z</time>
      </trkpt>
      <trkpt lat="43.28778" lon="6.53513">
        <ele>73</ele>
        <time>2022-02-04T18:30:29Z</time>
      </trkpt>
      <trkpt lat="43.28781" lon="6.53512">
        <ele>73.4</ele>
        <time>2022-02-04T18:30:30Z</time>
      </trkpt>
      <trkpt lat="43.28784" lon="6.53512">
        <ele>73.8</ele>
        <time>2022-02-04T18:30:31Z</time>
      </trkpt>
      <trkpt lat="43.28787" lon="6.53511">
        <ele>74.4</ele>
        <time>2022-02-04T18:30:32Z</time>
      </trkpt>
      <trkpt lat="43.2879" lon="6.53511">
        <ele>74.8</ele>
        <time>2022-02-04T18:30:33Z</time>
      </trkpt>
      <trkpt lat="43.28793" lon="6.5351">
        <ele>75.4</ele>
        <time>2022-02-04T18:30:34Z</time>
      </trkpt>
      <trkpt lat="43.28795" lon="6.5351">
        <ele>76</ele>
        <time>2022-02-04T18:30:35Z</time>
      </trkpt>
      <trkpt lat="43.28798" lon="6.5351">
        <ele>76.4</ele>
        <time>2022-02-04T18:30:36Z</time>
      </trkpt>
      <trkpt lat="43.28801" lon="6.53509">
        <ele>76.6</ele>
        <time>2022-02-04T18:30:37Z</time>
      </trkpt>
      <trkpt lat="43.28804" lon="6.53508">
        <ele>77</ele>
        <time>2022-02-04T18:30:38Z</time>
      </trkpt>
      <trkpt lat="43.28807" lon="6.53507">
        <ele>77.6</ele>
        <time>2022-02-04T18:30:39Z</time>
      </trkpt>
      <trkpt lat="43.28811" lon="6.53506">
        <ele>78.2</ele>
        <time>2022-02-04T18:30:40Z</time>
      </trkpt>
      <trkpt lat="43.28814" lon="6.53506">
        <ele>78.6</ele>
        <time>2022-02-04T18:30:41Z</time>
      </trkpt>
      <trkpt lat="43.28817" lon="6.53506">
        <ele>79</ele>
        <time>2022-02-04T18:30:42Z</time>
      </trkpt>
      <trkpt lat="43.2882" lon="6.53506">
        <ele>79.4</ele>
        <time>2022-02-04T18:30:43Z</time>
      </trkpt>
      <trkpt lat="43.28823" lon="6.53506">
        <ele>79.6</ele>
        <time>2022-02-04T18:30:44Z</time>
      </trkpt>
      <trkpt lat="43.28826" lon="6.53505">
        <ele>80.4</ele>
        <time>2022-02-04T18:30:45Z</time>
      </trkpt>
      <trkpt lat="43.28829" lon="6.53505">
        <ele>81</ele>
        <time>2022-02-04T18:30:46Z</time>
      </trkpt>
      <trkpt lat="43.28831" lon="6.53504">
        <ele>81.4</ele>
        <time>2022-02-04T18:30:47Z</time>
      </trkpt>
      <trkpt lat="43.28835" lon="6.53504">
        <ele>81.6</ele>
        <time>2022-02-04T18:30:48Z</time>
      </trkpt>
      <trkpt lat="43.28838" lon="6.53504">
        <ele>82</ele>
        <time>2022-02-04T18:30:49Z</time>
      </trkpt>
      <trkpt lat="43.28842" lon="6.53504">
        <ele>82.2</ele>
        <time>2022-02-04T18:30:50Z</time>
      </trkpt>
      <trkpt lat="43.28845" lon="6.53504">
        <ele>82.4</ele>
        <time>2022-02-04T18:30:51Z</time>
      </trkpt>
      <trkpt lat="43.28848" lon="6.53504">
        <ele>82.4</ele>
        <time>2022-02-04T18:30:52Z</time>
      </trkpt>
      <trkpt lat="43.28852" lon="6.53504">
        <ele>82.8</ele>
        <time>2022-02-04T18:30:53Z</time>
      </trkpt>
      <trkpt lat="43.28855" lon="6.53503">
        <ele>83</ele>
        <time>2022-02-04T18:30:54Z</time>
      </trkpt>
      <trkpt lat="43.28859" lon="6.53503">
        <ele>83.2</ele>
        <time>2022-02-04T18:30:55Z</time>
      </trkpt>
      <trkpt lat="43.28862" lon="6.53503">
        <ele>83.4</ele>
        <time>2022-02-04T18:30:56Z</time>
      </trkpt>
      <trkpt lat="43.28865" lon="6.53503">
        <ele>83.4</ele>
        <time>2022-02-04T18:30:57Z</time>
      </trkpt>
      <trkpt lat="43.28869" lon="6.53504">
        <ele>83.6</ele>
        <time>2022-02-04T18:30:58Z</time>
      </trkpt>
      <trkpt lat="43.28872" lon="6.53504">
        <ele>83.8</ele>
        <time>2022-02-04T18:30:59Z</time>
      </trkpt>
      <trkpt lat="43.28875" lon="6.53504">
        <ele>84</ele>
        <time>2022-02-04T18:31:00Z</time>
      </trkpt>
      <trkpt lat="43.28878" lon="6.53504">
        <ele>84.2</ele>
        <time>2022-02-04T18:31:01Z</time>
      </trkpt>
      <trkpt lat="43.28882" lon="6.53505">
        <ele>84.6</ele>
        <time>2022-02-04T18:31:02Z</time>
      </trkpt>
      <trkpt lat="43.28886" lon="6.53505">
        <ele>84.8</ele>
        <time>2022-02-04T18:31:03Z</time>
      </trkpt>
      <trkpt lat="43.28889" lon="6.53506">
        <ele>85</ele>
        <time>2022-02-04T18:31:04Z</time>
      </trkpt>
      <trkpt lat="43.28893" lon="6.53507">
        <ele>85.2</ele>
        <time>2022-02-04T18:31:05Z</time>
      </trkpt>
      <trkpt lat="43.28896" lon="6.53508">
        <ele>85.4</ele>
        <time>2022-02-04T18:31:06Z</time>
      </trkpt>
      <trkpt lat="43.289" lon="6.53509">
        <ele>85.6</ele>
        <time>2022-02-04T18:31:07Z</time>
      </trkpt>
      <trkpt lat="43.28904" lon="6.5351">
        <ele>85.8</ele>
        <time>2022-02-04T18:31:08Z</time>
      </trkpt>
      <trkpt lat="43.28907" lon="6.53512">
        <ele>86</ele>
        <time>2022-02-04T18:31:09Z</time>
      </trkpt>
      <trkpt lat="43.2891" lon="6.53513">
        <ele>86.2</ele>
        <time>2022-02-04T18:31:10Z</time>
      </trkpt>
      <trkpt lat="43.28914" lon="6.53515">
        <ele>86.6</ele>
        <time>2022-02-04T18:31:11Z</time>
      </trkpt>
      <trkpt lat="43.28916" lon="6.53517">
        <ele>87</ele>
        <time>2022-02-04T18:31:12Z</time>
      </trkpt>
      <trkpt lat="43.2892" lon="6.53519">
        <ele>87.2</ele>
        <time>2022-02-04T18:31:13Z</time>
      </trkpt>
      <trkpt lat="43.28923" lon="6.5352">
        <ele>87.4</ele>
        <time>2022-02-04T18:31:14Z</time>
      </trkpt>
      <trkpt lat="43.28927" lon="6.53522">
        <ele>87.6</ele>
        <time>2022-02-04T18:31:15Z</time>
      </trkpt>
      <trkpt lat="43.2893" lon="6.53523">
        <ele>87.8</ele>
        <time>2022-02-04T18:31:16Z</time>
      </trkpt>
      <trkpt lat="43.28933" lon="6.53524">
        <ele>88</ele>
        <time>2022-02-04T18:31:17Z</time>
      </trkpt>
      <trkpt lat="43.28937" lon="6.53525">
        <ele>88</ele>
        <time>2022-02-04T18:31:18Z</time>
      </trkpt>
      <trkpt lat="43.28941" lon="6.53527">
        <ele>88.4</ele>
        <time>2022-02-04T18:31:19Z</time>
      </trkpt>
      <trkpt lat="43.28944" lon="6.53527">
        <ele>88.6</ele>
        <time>2022-02-04T18:31:20Z</time>
      </trkpt>
      <trkpt lat="43.28948" lon="6.53528">
        <ele>89</ele>
        <time>2022-02-04T18:31:21Z</time>
      </trkpt>
      <trkpt lat="43.28952" lon="6.53527">
        <ele>89.2</ele>
        <time>2022-02-04T18:31:22Z</time>
      </trkpt>
      <trkpt lat="43.28955" lon="6.53525">
        <ele>89.4</ele>
        <time>2022-02-04T18:31:23Z</time>
      </trkpt>
      <trkpt lat="43.28958" lon="6.53522">
        <ele>89.8</ele>
        <time>2022-02-04T18:31:24Z</time>
      </trkpt>
      <trkpt lat="43.28961" lon="6.53518">
        <ele>90</ele>
        <time>2022-02-04T18:31:25Z</time>
      </trkpt>
      <trkpt lat="43.28962" lon="6.53514">
        <ele>90.4</ele>
        <time>2022-02-04T18:31:26Z</time>
      </trkpt>
      <trkpt lat="43.28963" lon="6.5351">
        <ele>90.8</ele>
        <time>2022-02-04T18:31:27Z</time>
      </trkpt>
      <trkpt lat="43.28965" lon="6.53504">
        <ele>91</ele>
        <time>2022-02-04T18:31:28Z</time>
      </trkpt>
      <trkpt lat="43.28966" lon="6.535">
        <ele>91.4</ele>
        <time>2022-02-04T18:31:29Z</time>
      </trkpt>
      <trkpt lat="43.28968" lon="6.53495">
        <ele>91.6</ele>
        <time>2022-02-04T18:31:30Z</time>
      </trkpt>
      <trkpt lat="43.28969" lon="6.53491">
        <ele>91.8</ele>
        <time>2022-02-04T18:31:31Z</time>
      </trkpt>
      <trkpt lat="43.28971" lon="6.53487">
        <ele>92.2</ele>
        <time>2022-02-04T18:31:32Z</time>
      </trkpt>
      <trkpt lat="43.28974" lon="6.53483">
        <ele>92.6</ele>
        <time>2022-02-04T18:31:33Z</time>
      </trkpt>
      <trkpt lat="43.28976" lon="6.5348">
        <ele>93</ele>
        <time>2022-02-04T18:31:34Z</time>
      </trkpt>
      <trkpt lat="43.28979" lon="6.53477">
        <ele>93.4</ele>
        <time>2022-02-04T18:31:35Z</time>
      </trkpt>
      <trkpt lat="43.28982" lon="6.53475">
        <ele>93.6</ele>
        <time>2022-02-04T18:31:36Z</time>
      </trkpt>
      <trkpt lat="43.28985" lon="6.53473">
        <ele>94</ele>
        <time>2022-02-04T18:31:37Z</time>
      </trkpt>
      <trkpt lat="43.28988" lon="6.53472">
        <ele>94.4</ele>
        <time>2022-02-04T18:31:38Z</time>
      </trkpt>
      <trkpt lat="43.28992" lon="6.53471">
        <ele>95</ele>
        <time>2022-02-04T18:31:39Z</time>
      </trkpt>
      <trkpt lat="43.28995" lon="6.53471">
        <ele>95.4</ele>
        <time>2022-02-04T18:31:40Z</time>
      </trkpt>
      <trkpt lat="43.28999" lon="6.53472">
        <ele>95.8</ele>
        <time>2022-02-04T18:31:41Z</time>
      </trkpt>
      <trkpt lat="43.29002" lon="6.53472">
        <ele>96.2</ele>
        <time>2022-02-04T18:31:42Z</time>
      </trkpt>
      <trkpt lat="43.29006" lon="6.53472">
        <ele>96.8</ele>
        <time>2022-02-04T18:31:43Z</time>
      </trkpt>
      <trkpt lat="43.29009" lon="6.53473">
        <ele>97.4</ele>
        <time>2022-02-04T18:31:44Z</time>
      </trkpt>
      <trkpt lat="43.29012" lon="6.53472">
        <ele>97.8</ele>
        <time>2022-02-04T18:31:45Z</time>
      </trkpt>
      <trkpt lat="43.29014" lon="6.53472">
        <ele>98.2</ele>
        <time>2022-02-04T18:31:46Z</time>
      </trkpt>
      <trkpt lat="43.29017" lon="6.53472">
        <ele>98.8</ele>
        <time>2022-02-04T18:31:47Z</time>
      </trkpt>
      <trkpt lat="43.2902" lon="6.53472">
        <ele>99.4</ele>
        <time>2022-02-04T18:31:48Z</time>
      </trkpt>
      <trkpt lat="43.29023" lon="6.5347">
        <ele>99.8</ele>
        <time>2022-02-04T18:31:49Z</time>
      </trkpt>
      <trkpt lat="43.29026" lon="6.53467">
        <ele>100.4</ele>
        <time>2022-02-04T18:31:50Z</time>
      </trkpt>
      <trkpt lat="43.29028" lon="6.53465">
        <ele>101.2</ele>
        <time>2022-02-04T18:31:51Z</time>
      </trkpt>
      <trkpt lat="43.29031" lon="6.53463">
        <ele>101.6</ele>
        <time>2022-02-04T18:31:52Z</time>
      </trkpt>
      <trkpt lat="43.29033" lon="6.53461">
        <ele>101.8</ele>
        <time>2022-02-04T18:31:53Z</time>
      </trkpt>
      <trkpt lat="43.29036" lon="6.53459">
        <ele>102.4</ele>
        <time>2022-02-04T18:31:54Z</time>
      </trkpt>
      <trkpt lat="43.29038" lon="6.53457">
        <ele>103</ele>
        <time>2022-02-04T18:31:55Z</time>
      </trkpt>
      <trkpt lat="43.29041" lon="6.53454">
        <ele>103.2</ele>
        <time>2022-02-04T18:31:56Z</time>
      </trkpt>
      <trkpt lat="43.29043" lon="6.53452">
        <ele>103.4</ele>
        <time>2022-02-04T18:31:57Z</time>
      </trkpt>
      <trkpt lat="43.29045" lon="6.5345">
        <ele>103.8</ele>
        <time>2022-02-04T18:31:58Z</time>
      </trkpt>
      <trkpt lat="43.29048" lon="6.53447">
        <ele>104</ele>
        <time>2022-02-04T18:31:59Z</time>
      </trkpt>
      <trkpt lat="43.29051" lon="6.53445">
        <ele>104.4</ele>
        <time>2022-02-04T18:32:00Z</time>
      </trkpt>
      <trkpt lat="43.29053" lon="6.53443">
        <ele>104.6</ele>
        <time>2022-02-04T18:32:01Z</time>
      </trkpt>
      <trkpt lat="43.29055" lon="6.5344">
        <ele>105</ele>
        <time>2022-02-04T18:32:02Z</time>
      </trkpt>
      <trkpt lat="43.29058" lon="6.53438">
        <ele>105.2</ele>
        <time>2022-02-04T18:32:03Z</time>
      </trkpt>
      <trkpt lat="43.29061" lon="6.53436">
        <ele>105.4</ele>
        <time>2022-02-04T18:32:04Z</time>
      </trkpt>
      <trkpt lat="43.29064" lon="6.53435">
        <ele>105.4</ele>
        <time>2022-02-04T18:32:05Z</time>
      </trkpt>
      <trkpt lat="43.29067" lon="6.53434">
        <ele>105.6</ele>
        <time>2022-02-04T18:32:06Z</time>
      </trkpt>
      <trkpt lat="43.29069" lon="6.53436">
        <ele>105.6</ele>
        <time>2022-02-04T18:32:07Z</time>
      </trkpt>
      <trkpt lat="43.2907" lon="6.53439">
        <ele>105.6</ele>
        <time>2022-02-04T18:32:08Z</time>
      </trkpt>
      <trkpt lat="43.2907" lon="6.53442">
        <ele>106.4</ele>
        <time>2022-02-04T18:32:09Z</time>
      </trkpt>
      <trkpt lat="43.29068" lon="6.53446">
        <ele>107</ele>
        <time>2022-02-04T18:32:10Z</time>
      </trkpt>
      <trkpt lat="43.29066" lon="6.53449">
        <ele>107.4</ele>
        <time>2022-02-04T18:32:11Z</time>
      </trkpt>
      <trkpt lat="43.29063" lon="6.53452">
        <ele>108</ele>
        <time>2022-02-04T18:32:12Z</time>
      </trkpt>
      <trkpt lat="43.2906" lon="6.53455">
        <ele>108.4</ele>
        <time>2022-02-04T18:32:13Z</time>
      </trkpt>
      <trkpt lat="43.29058" lon="6.53458">
        <ele>108.6</ele>
        <time>2022-02-04T18:32:14Z</time>
      </trkpt>
      <trkpt lat="43.29056" lon="6.53461">
        <ele>108.8</ele>
        <time>2022-02-04T18:32:15Z</time>
      </trkpt>
      <trkpt lat="43.29054" lon="6.53463">
        <ele>108.8</ele>
        <time>2022-02-04T18:32:16Z</time>
      </trkpt>
      <trkpt lat="43.29052" lon="6.53466">
        <ele>108.8</ele>
        <time>2022-02-04T18:32:17Z</time>
      </trkpt>
      <trkpt lat="43.2905" lon="6.53469">
        <ele>109</ele>
        <time>2022-02-04T18:32:18Z</time>
      </trkpt>
      <trkpt lat="43.29048" lon="6.53472">
        <ele>109</ele>
        <time>2022-02-04T18:32:19Z</time>
      </trkpt>
      <trkpt lat="43.29046" lon="6.53476">
        <ele>109.2</ele>
        <time>2022-02-04T18:32:20Z</time>
      </trkpt>
      <trkpt lat="43.29044" lon="6.53479">
        <ele>109.2</ele>
        <time>2022-02-04T18:32:21Z</time>
      </trkpt>
      <trkpt lat="43.29043" lon="6.53483">
        <ele>109.4</ele>
        <time>2022-02-04T18:32:22Z</time>
      </trkpt>
      <trkpt lat="43.29041" lon="6.53487">
        <ele>109.4</ele>
        <time>2022-02-04T18:32:23Z</time>
      </trkpt>
      <trkpt lat="43.29039" lon="6.53491">
        <ele>109.6</ele>
        <time>2022-02-04T18:32:24Z</time>
      </trkpt>
      <trkpt lat="43.29038" lon="6.53494">
        <ele>109.6</ele>
        <time>2022-02-04T18:32:25Z</time>
      </trkpt>
      <trkpt lat="43.29036" lon="6.53498">
        <ele>109.6</ele>
        <time>2022-02-04T18:32:26Z</time>
      </trkpt>
      <trkpt lat="43.29034" lon="6.53503">
        <ele>109.8</ele>
        <time>2022-02-04T18:32:27Z</time>
      </trkpt>
      <trkpt lat="43.29033" lon="6.53507">
        <ele>109.8</ele>
        <time>2022-02-04T18:32:28Z</time>
      </trkpt>
      <trkpt lat="43.29032" lon="6.53512">
        <ele>109.8</ele>
        <time>2022-02-04T18:32:29Z</time>
      </trkpt>
      <trkpt lat="43.29031" lon="6.53517">
        <ele>110</ele>
        <time>2022-02-04T18:32:30Z</time>
      </trkpt>
      <trkpt lat="43.2903" lon="6.53521">
        <ele>110</ele>
        <time>2022-02-04T18:32:31Z</time>
      </trkpt>
      <trkpt lat="43.29029" lon="6.53526">
        <ele>110.2</ele>
        <time>2022-02-04T18:32:32Z</time>
      </trkpt>
      <trkpt lat="43.29029" lon="6.53531">
        <ele>110.2</ele>
        <time>2022-02-04T18:32:33Z</time>
      </trkpt>
      <trkpt lat="43.29028" lon="6.53537">
        <ele>110.4</ele>
        <time>2022-02-04T18:32:34Z</time>
      </trkpt>
      <trkpt lat="43.29028" lon="6.53541">
        <ele>110.6</ele>
        <time>2022-02-04T18:32:35Z</time>
      </trkpt>
      <trkpt lat="43.29028" lon="6.53547">
        <ele>110.6</ele>
        <time>2022-02-04T18:32:36Z</time>
      </trkpt>
      <trkpt lat="43.29028" lon="6.53552">
        <ele>110.8</ele>
        <time>2022-02-04T18:32:37Z</time>
      </trkpt>
      <trkpt lat="43.29028" lon="6.53557">
        <ele>111.2</ele>
        <time>2022-02-04T18:32:38Z</time>
      </trkpt>
      <trkpt lat="43.29028" lon="6.53562">
        <ele>111.4</ele>
        <time>2022-02-04T18:32:39Z</time>
      </trkpt>
      <trkpt lat="43.29028" lon="6.53566">
        <ele>111.6</ele>
        <time>2022-02-04T18:32:40Z</time>
      </trkpt>
      <trkpt lat="43.29028" lon="6.53571">
        <ele>112</ele>
        <time>2022-02-04T18:32:41Z</time>
      </trkpt>
      <trkpt lat="43.29028" lon="6.53576">
        <ele>112.6</ele>
        <time>2022-02-04T18:32:42Z</time>
      </trkpt>
      <trkpt lat="43.29028" lon="6.5358">
        <ele>113</ele>
        <time>2022-02-04T18:32:43Z</time>
      </trkpt>
      <trkpt lat="43.29028" lon="6.53584">
        <ele>113.4</ele>
        <time>2022-02-04T18:32:44Z</time>
      </trkpt>
      <trkpt lat="43.29029" lon="6.53588">
        <ele>114</ele>
        <time>2022-02-04T18:32:45Z</time>
      </trkpt>
      <trkpt lat="43.29029" lon="6.53592">
        <ele>114.6</ele>
        <time>2022-02-04T18:32:46Z</time>
      </trkpt>
      <trkpt lat="43.2903" lon="6.53596">
        <ele>115</ele>
        <time>2022-02-04T18:32:47Z</time>
      </trkpt>
      <trkpt lat="43.2903" lon="6.53601">
        <ele>115.4</ele>
        <time>2022-02-04T18:32:48Z</time>
      </trkpt>
      <trkpt lat="43.2903" lon="6.53605">
        <ele>115.8</ele>
        <time>2022-02-04T18:32:49Z</time>
      </trkpt>
      <trkpt lat="43.2903" lon="6.53609">
        <ele>116.2</ele>
        <time>2022-02-04T18:32:50Z</time>
      </trkpt>
      <trkpt lat="43.2903" lon="6.53613">
        <ele>116.4</ele>
        <time>2022-02-04T18:32:51Z</time>
      </trkpt>
      <trkpt lat="43.29029" lon="6.53618">
        <ele>116.8</ele>
        <time>2022-02-04T18:32:52Z</time>
      </trkpt>
      <trkpt lat="43.29029" lon="6.53622">
        <ele>117.2</ele>
        <time>2022-02-04T18:32:53Z</time>
      </trkpt>
      <trkpt lat="43.29028" lon="6.53626">
        <ele>117.4</ele>
        <time>2022-02-04T18:32:54Z</time>
      </trkpt>
      <trkpt lat="43.29028" lon="6.53631">
        <ele>117.6</ele>
        <time>2022-02-04T18:32:55Z</time>
      </trkpt>
      <trkpt lat="43.29027" lon="6.53635">
        <ele>117.8</ele>
        <time>2022-02-04T18:32:56Z</time>
      </trkpt>
      <trkpt lat="43.29027" lon="6.53639">
        <ele>117.8</ele>
        <time>2022-02-04T18:32:57Z</time>
      </trkpt>
      <trkpt lat="43.29027" lon="6.53643">
        <ele>118</ele>
        <time>2022-02-04T18:32:58Z</time>
      </trkpt>
      <trkpt lat="43.29026" lon="6.53648">
        <ele>118.2</ele>
        <time>2022-02-04T18:32:59Z</time>
      </trkpt>
      <trkpt lat="43.29026" lon="6.53653">
        <ele>118.2</ele>
        <time>2022-02-04T18:33:00Z</time>
      </trkpt>
      <trkpt lat="43.29027" lon="6.53657">
        <ele>118.6</ele>
        <time>2022-02-04T18:33:01Z</time>
      </trkpt>
      <trkpt lat="43.29027" lon="6.53661">
        <ele>119</ele>
        <time>2022-02-04T18:33:02Z</time>
      </trkpt>
      <trkpt lat="43.29028" lon="6.53665">
        <ele>119.4</ele>
        <time>2022-02-04T18:33:03Z</time>
      </trkpt>
      <trkpt lat="43.29029" lon="6.53669">
        <ele>119.8</ele>
        <time>2022-02-04T18:33:04Z</time>
      </trkpt>
      <trkpt lat="43.2903" lon="6.53673">
        <ele>120</ele>
        <time>2022-02-04T18:33:05Z</time>
      </trkpt>
      <trkpt lat="43.29031" lon="6.53677">
        <ele>120.2</ele>
        <time>2022-02-04T18:33:06Z</time>
      </trkpt>
      <trkpt lat="43.29032" lon="6.5368">
        <ele>120.8</ele>
        <time>2022-02-04T18:33:07Z</time>
      </trkpt>
      <trkpt lat="43.29034" lon="6.53684">
        <ele>121.2</ele>
        <time>2022-02-04T18:33:08Z</time>
      </trkpt>
      <trkpt lat="43.29035" lon="6.53687">
        <ele>122</ele>
        <time>2022-02-04T18:33:09Z</time>
      </trkpt>
      <trkpt lat="43.29037" lon="6.53691">
        <ele>122.4</ele>
        <time>2022-02-04T18:33:10Z</time>
      </trkpt>
      <trkpt lat="43.29038" lon="6.53696">
        <ele>122.8</ele>
        <time>2022-02-04T18:33:11Z</time>
      </trkpt>
      <trkpt lat="43.29039" lon="6.53699">
        <ele>123.4</ele>
        <time>2022-02-04T18:33:12Z</time>
      </trkpt>
      <trkpt lat="43.29039" lon="6.53703">
        <ele>123.6</ele>
        <time>2022-02-04T18:33:13Z</time>
      </trkpt>
      <trkpt lat="43.2904" lon="6.53707">
        <ele>124.4</ele>
        <time>2022-02-04T18:33:14Z</time>
      </trkpt>
      <trkpt lat="43.2904" lon="6.53711">
        <ele>125</ele>
        <time>2022-02-04T18:33:15Z</time>
      </trkpt>
      <trkpt lat="43.2904" lon="6.53715">
        <ele>125.4</ele>
        <time>2022-02-04T18:33:16Z</time>
      </trkpt>
      <trkpt lat="43.29039" lon="6.53719">
        <ele>125.8</ele>
        <time>2022-02-04T18:33:17Z</time>
      </trkpt>
      <trkpt lat="43.29039" lon="6.53722">
        <ele>126.6</ele>
        <time>2022-02-04T18:33:18Z</time>
      </trkpt>
      <trkpt lat="43.29038" lon="6.53726">
        <ele>127</ele>
        <time>2022-02-04T18:33:19Z</time>
      </trkpt>
      <trkpt lat="43.29037" lon="6.5373">
        <ele>127.4</ele>
        <time>2022-02-04T18:33:20Z</time>
      </trkpt>
      <trkpt lat="43.29036" lon="6.53733">
        <ele>127.8</ele>
        <time>2022-02-04T18:33:21Z</time>
      </trkpt>
      <trkpt lat="43.29035" lon="6.53737">
        <ele>128.2</ele>
        <time>2022-02-04T18:33:22Z</time>
      </trkpt>
      <trkpt lat="43.29034" lon="6.53741">
        <ele>128.4</ele>
        <time>2022-02-04T18:33:23Z</time>
      </trkpt>
      <trkpt lat="43.29033" lon="6.53745">
        <ele>128.6</ele>
        <time>2022-02-04T18:33:24Z</time>
      </trkpt>
      <trkpt lat="43.29033" lon="6.53748">
        <ele>128.6</ele>
        <time>2022-02-04T18:33:25Z</time>
      </trkpt>
      <trkpt lat="43.29032" lon="6.53752">
        <ele>128.8</ele>
        <time>2022-02-04T18:33:26Z</time>
      </trkpt>
      <trkpt lat="43.2903" lon="6.53756">
        <ele>129</ele>
        <time>2022-02-04T18:33:27Z</time>
      </trkpt>
      <trkpt lat="43.29029" lon="6.53759">
        <ele>129.4</ele>
        <time>2022-02-04T18:33:28Z</time>
      </trkpt>
      <trkpt lat="43.29027" lon="6.53763">
        <ele>129.6</ele>
        <time>2022-02-04T18:33:29Z</time>
      </trkpt>
      <trkpt lat="43.29026" lon="6.53766">
        <ele>129.6</ele>
        <time>2022-02-04T18:33:30Z</time>
      </trkpt>
      <trkpt lat="43.29024" lon="6.53771">
        <ele>129.8</ele>
        <time>2022-02-04T18:33:31Z</time>
      </trkpt>
      <trkpt lat="43.29023" lon="6.53775">
        <ele>130</ele>
        <time>2022-02-04T18:33:32Z</time>
      </trkpt>
      <trkpt lat="43.29022" lon="6.53779">
        <ele>130.4</ele>
        <time>2022-02-04T18:33:33Z</time>
      </trkpt>
      <trkpt lat="43.29021" lon="6.53782">
        <ele>130.8</ele>
        <time>2022-02-04T18:33:34Z</time>
      </trkpt>
      <trkpt lat="43.2902" lon="6.53785">
        <ele>131.2</ele>
        <time>2022-02-04T18:33:35Z</time>
      </trkpt>
      <trkpt lat="43.29018" lon="6.53789">
        <ele>131.6</ele>
        <time>2022-02-04T18:33:36Z</time>
      </trkpt>
      <trkpt lat="43.29017" lon="6.53793">
        <ele>131.8</ele>
        <time>2022-02-04T18:33:37Z</time>
      </trkpt>
      <trkpt lat="43.29015" lon="6.53797">
        <ele>132.2</ele>
        <time>2022-02-04T18:33:38Z</time>
      </trkpt>
      <trkpt lat="43.29014" lon="6.538">
        <ele>132.6</ele>
        <time>2022-02-04T18:33:39Z</time>
      </trkpt>
      <trkpt lat="43.29013" lon="6.53804">
        <ele>133</ele>
        <time>2022-02-04T18:33:40Z</time>
      </trkpt>
      <trkpt lat="43.29012" lon="6.53808">
        <ele>133.4</ele>
        <time>2022-02-04T18:33:41Z</time>
      </trkpt>
      <trkpt lat="43.29011" lon="6.53812">
        <ele>133.6</ele>
        <time>2022-02-04T18:33:42Z</time>
      </trkpt>
      <trkpt lat="43.2901" lon="6.53816">
        <ele>134</ele>
        <time>2022-02-04T18:33:43Z</time>
      </trkpt>
      <trkpt lat="43.29009" lon="6.5382">
        <ele>134.2</ele>
        <time>2022-02-04T18:33:44Z</time>
      </trkpt>
      <trkpt lat="43.29009" lon="6.53823">
        <ele>134.4</ele>
        <time>2022-02-04T18:33:45Z</time>
      </trkpt>
      <trkpt lat="43.29009" lon="6.53828">
        <ele>135.2</ele>
        <time>2022-02-04T18:33:46Z</time>
      </trkpt>
      <trkpt lat="43.29008" lon="6.53832">
        <ele>135.8</ele>
        <time>2022-02-04T18:33:47Z</time>
      </trkpt>
      <trkpt lat="43.29008" lon="6.53835">
        <ele>136.4</ele>
        <time>2022-02-04T18:33:48Z</time>
      </trkpt>
      <trkpt lat="43.29007" lon="6.5384">
        <ele>136.8</ele>
        <time>2022-02-04T18:33:49Z</time>
      </trkpt>
      <trkpt lat="43.29007" lon="6.53843">
        <ele>137</ele>
        <time>2022-02-04T18:33:50Z</time>
      </trkpt>
      <trkpt lat="43.29008" lon="6.53848">
        <ele>137.6</ele>
        <time>2022-02-04T18:33:51Z</time>
      </trkpt>
      <trkpt lat="43.29008" lon="6.53852">
        <ele>138</ele>
        <time>2022-02-04T18:33:52Z</time>
      </trkpt>
      <trkpt lat="43.29008" lon="6.53856">
        <ele>138.4</ele>
        <time>2022-02-04T18:33:53Z</time>
      </trkpt>
      <trkpt lat="43.29009" lon="6.5386">
        <ele>138.8</ele>
        <time>2022-02-04T18:33:54Z</time>
      </trkpt>
      <trkpt lat="43.29009" lon="6.53864">
        <ele>139</ele>
        <time>2022-02-04T18:33:55Z</time>
      </trkpt>
      <trkpt lat="43.2901" lon="6.53868">
        <ele>139.4</ele>
        <time>2022-02-04T18:33:56Z</time>
      </trkpt>
      <trkpt lat="43.29011" lon="6.53872">
        <ele>139.8</ele>
        <time>2022-02-04T18:33:57Z</time>
      </trkpt>
      <trkpt lat="43.29013" lon="6.53875">
        <ele>140.2</ele>
        <time>2022-02-04T18:33:58Z</time>
      </trkpt>
      <trkpt lat="43.29014" lon="6.53879">
        <ele>140.6</ele>
        <time>2022-02-04T18:33:59Z</time>
      </trkpt>
      <trkpt lat="43.29015" lon="6.53883">
        <ele>140.8</ele>
        <time>2022-02-04T18:34:00Z</time>
      </trkpt>
      <trkpt lat="43.29017" lon="6.53887">
        <ele>141.2</ele>
        <time>2022-02-04T18:34:01Z</time>
      </trkpt>
      <trkpt lat="43.29019" lon="6.53891">
        <ele>141.4</ele>
        <time>2022-02-04T18:34:02Z</time>
      </trkpt>
      <trkpt lat="43.2902" lon="6.53895">
        <ele>141.8</ele>
        <time>2022-02-04T18:34:03Z</time>
      </trkpt>
      <trkpt lat="43.29022" lon="6.53898">
        <ele>142.2</ele>
        <time>2022-02-04T18:34:04Z</time>
      </trkpt>
      <trkpt lat="43.29023" lon="6.53902">
        <ele>142.6</ele>
        <time>2022-02-04T18:34:05Z</time>
      </trkpt>
      <trkpt lat="43.29025" lon="6.53906">
        <ele>142.8</ele>
        <time>2022-02-04T18:34:06Z</time>
      </trkpt>
      <trkpt lat="43.29026" lon="6.5391">
        <ele>143</ele>
        <time>2022-02-04T18:34:07Z</time>
      </trkpt>
      <trkpt lat="43.29028" lon="6.53913">
        <ele>143.4</ele>
        <time>2022-02-04T18:34:08Z</time>
      </trkpt>
      <trkpt lat="43.29029" lon="6.53916">
        <ele>143.8</ele>
        <time>2022-02-04T18:34:09Z</time>
      </trkpt>
      <trkpt lat="43.29031" lon="6.53921">
        <ele>144</ele>
        <time>2022-02-04T18:34:10Z</time>
      </trkpt>
      <trkpt lat="43.29032" lon="6.53925">
        <ele>144.4</ele>
        <time>2022-02-04T18:34:11Z</time>
      </trkpt>
      <trkpt lat="43.29034" lon="6.5393">
        <ele>144.6</ele>
        <time>2022-02-04T18:34:12Z</time>
      </trkpt>
      <trkpt lat="43.29035" lon="6.53934">
        <ele>144.6</ele>
        <time>2022-02-04T18:34:13Z</time>
      </trkpt>
      <trkpt lat="43.29036" lon="6.53938">
        <ele>144.8</ele>
        <time>2022-02-04T18:34:14Z</time>
      </trkpt>
      <trkpt lat="43.29038" lon="6.53942">
        <ele>144.8</ele>
        <time>2022-02-04T18:34:15Z</time>
      </trkpt>
      <trkpt lat="43.2904" lon="6.53946">
        <ele>145</ele>
        <time>2022-02-04T18:34:16Z</time>
      </trkpt>
      <trkpt lat="43.29042" lon="6.5395">
        <ele>145.2</ele>
        <time>2022-02-04T18:34:17Z</time>
      </trkpt>
      <trkpt lat="43.29043" lon="6.53954">
        <ele>145.4</ele>
        <time>2022-02-04T18:34:18Z</time>
      </trkpt>
      <trkpt lat="43.29044" lon="6.53958">
        <ele>145.6</ele>
        <time>2022-02-04T18:34:19Z</time>
      </trkpt>
      <trkpt lat="43.29045" lon="6.53962">
        <ele>145.8</ele>
        <time>2022-02-04T18:34:20Z</time>
      </trkpt>
      <trkpt lat="43.29044" lon="6.53966">
        <ele>146.2</ele>
        <time>2022-02-04T18:34:21Z</time>
      </trkpt>
      <trkpt lat="43.29043" lon="6.5397">
        <ele>146.6</ele>
        <time>2022-02-04T18:34:22Z</time>
      </trkpt>
      <trkpt lat="43.29041" lon="6.53974">
        <ele>146.8</ele>
        <time>2022-02-04T18:34:23Z</time>
      </trkpt>
      <trkpt lat="43.29039" lon="6.53976">
        <ele>146.8</ele>
        <time>2022-02-04T18:34:24Z</time>
      </trkpt>
      <trkpt lat="43.29037" lon="6.53979">
        <ele>147.4</ele>
        <time>2022-02-04T18:34:25Z</time>
      </trkpt>
      <trkpt lat="43.29034" lon="6.53981">
        <ele>147.6</ele>
        <time>2022-02-04T18:34:26Z</time>
      </trkpt>
      <trkpt lat="43.29031" lon="6.53984">
        <ele>148.2</ele>
        <time>2022-02-04T18:34:27Z</time>
      </trkpt>
      <trkpt lat="43.29028" lon="6.53986">
        <ele>148.4</ele>
        <time>2022-02-04T18:34:28Z</time>
      </trkpt>
      <trkpt lat="43.29027" lon="6.53989">
        <ele>148.8</ele>
        <time>2022-02-04T18:34:29Z</time>
      </trkpt>
      <trkpt lat="43.29025" lon="6.53991">
        <ele>149.2</ele>
        <time>2022-02-04T18:34:30Z</time>
      </trkpt>
      <trkpt lat="43.29024" lon="6.53996">
        <ele>149.8</ele>
        <time>2022-02-04T18:34:31Z</time>
      </trkpt>
      <trkpt lat="43.29023" lon="6.54">
        <ele>150.2</ele>
        <time>2022-02-04T18:34:32Z</time>
      </trkpt>
      <trkpt lat="43.29023" lon="6.54003">
        <ele>150.4</ele>
        <time>2022-02-04T18:34:33Z</time>
      </trkpt>
      <trkpt lat="43.29023" lon="6.54006">
        <ele>150.8</ele>
        <time>2022-02-04T18:34:34Z</time>
      </trkpt>
      <trkpt lat="43.29025" lon="6.5401">
        <ele>151.2</ele>
        <time>2022-02-04T18:34:35Z</time>
      </trkpt>
      <trkpt lat="43.29027" lon="6.54013">
        <ele>151.4</ele>
        <time>2022-02-04T18:34:36Z</time>
      </trkpt>
      <trkpt lat="43.29029" lon="6.54016">
        <ele>151.6</ele>
        <time>2022-02-04T18:34:37Z</time>
      </trkpt>
      <trkpt lat="43.29032" lon="6.54019">
        <ele>151.8</ele>
        <time>2022-02-04T18:34:38Z</time>
      </trkpt>
      <trkpt lat="43.29034" lon="6.54021">
        <ele>152</ele>
        <time>2022-02-04T18:34:39Z</time>
      </trkpt>
      <trkpt lat="43.29037" lon="6.54024">
        <ele>152.4</ele>
        <time>2022-02-04T18:34:40Z</time>
      </trkpt>
      <trkpt lat="43.29039" lon="6.54027">
        <ele>152.8</ele>
        <time>2022-02-04T18:34:41Z</time>
      </trkpt>
      <trkpt lat="43.29041" lon="6.5403">
        <ele>153.2</ele>
        <time>2022-02-04T18:34:42Z</time>
      </trkpt>
      <trkpt lat="43.29043" lon="6.54034">
        <ele>153.6</ele>
        <time>2022-02-04T18:34:43Z</time>
      </trkpt>
      <trkpt lat="43.29045" lon="6.54037">
        <ele>154</ele>
        <time>2022-02-04T18:34:44Z</time>
      </trkpt>
      <trkpt lat="43.29047" lon="6.5404">
        <ele>154.2</ele>
        <time>2022-02-04T18:34:45Z</time>
      </trkpt>
      <trkpt lat="43.29049" lon="6.54044">
        <ele>154.6</ele>
        <time>2022-02-04T18:34:46Z</time>
      </trkpt>
      <trkpt lat="43.29051" lon="6.54047">
        <ele>155</ele>
        <time>2022-02-04T18:34:47Z</time>
      </trkpt>
      <trkpt lat="43.29053" lon="6.54049">
        <ele>155.4</ele>
        <time>2022-02-04T18:34:48Z</time>
      </trkpt>
      <trkpt lat="43.29055" lon="6.54051">
        <ele>156</ele>
        <time>2022-02-04T18:34:49Z</time>
      </trkpt>
      <trkpt lat="43.29058" lon="6.54054">
        <ele>156.2</ele>
        <time>2022-02-04T18:34:50Z</time>
      </trkpt>
      <trkpt lat="43.29061" lon="6.54056">
        <ele>156.4</ele>
        <time>2022-02-04T18:34:51Z</time>
      </trkpt>
      <trkpt lat="43.29065" lon="6.54058">
        <ele>156.6</ele>
        <time>2022-02-04T18:34:52Z</time>
      </trkpt>
      <trkpt lat="43.29067" lon="6.54059">
        <ele>157</ele>
        <time>2022-02-04T18:34:53Z</time>
      </trkpt>
      <trkpt lat="43.2907" lon="6.5406">
        <ele>157.4</ele>
        <time>2022-02-04T18:34:54Z</time>
      </trkpt>
      <trkpt lat="43.29074" lon="6.54062">
        <ele>158</ele>
        <time>2022-02-04T18:34:55Z</time>
      </trkpt>
      <trkpt lat="43.29077" lon="6.54063">
        <ele>158.8</ele>
        <time>2022-02-04T18:34:56Z</time>
      </trkpt>
      <trkpt lat="43.29079" lon="6.54064">
        <ele>159.4</ele>
        <time>2022-02-04T18:34:57Z</time>
      </trkpt>
      <trkpt lat="43.29082" lon="6.54066">
        <ele>159.8</ele>
        <time>2022-02-04T18:34:58Z</time>
      </trkpt>
      <trkpt lat="43.29085" lon="6.54067">
        <ele>160.2</ele>
        <time>2022-02-04T18:34:59Z</time>
      </trkpt>
      <trkpt lat="43.29087" lon="6.5407">
        <ele>160.6</ele>
        <time>2022-02-04T18:35:00Z</time>
      </trkpt>
      <trkpt lat="43.29091" lon="6.54073">
        <ele>161.2</ele>
        <time>2022-02-04T18:35:01Z</time>
      </trkpt>
      <trkpt lat="43.29093" lon="6.54076">
        <ele>162</ele>
        <time>2022-02-04T18:35:02Z</time>
      </trkpt>
      <trkpt lat="43.29095" lon="6.54078">
        <ele>162.4</ele>
        <time>2022-02-04T18:35:03Z</time>
      </trkpt>
      <trkpt lat="43.29096" lon="6.54082">
        <ele>163</ele>
        <time>2022-02-04T18:35:04Z</time>
      </trkpt>
      <trkpt lat="43.29097" lon="6.54086">
        <ele>164</ele>
        <time>2022-02-04T18:35:05Z</time>
      </trkpt>
      <trkpt lat="43.29098" lon="6.54089">
        <ele>164.6</ele>
        <time>2022-02-04T18:35:06Z</time>
      </trkpt>
      <trkpt lat="43.29099" lon="6.54091">
        <ele>165.2</ele>
        <time>2022-02-04T18:35:07Z</time>
      </trkpt>
      <trkpt lat="43.291" lon="6.54095">
        <ele>165.4</ele>
        <time>2022-02-04T18:35:08Z</time>
      </trkpt>
      <trkpt lat="43.29101" lon="6.54098">
        <ele>165.8</ele>
        <time>2022-02-04T18:35:09Z</time>
      </trkpt>
      <trkpt lat="43.29103" lon="6.54102">
        <ele>166.2</ele>
        <time>2022-02-04T18:35:10Z</time>
      </trkpt>
      <trkpt lat="43.29105" lon="6.54106">
        <ele>166.4</ele>
        <time>2022-02-04T18:35:11Z</time>
      </trkpt>
      <trkpt lat="43.29106" lon="6.54109">
        <ele>166.4</ele>
        <time>2022-02-04T18:35:12Z</time>
      </trkpt>
      <trkpt lat="43.29107" lon="6.54112">
        <ele>166.8</ele>
        <time>2022-02-04T18:35:13Z</time>
      </trkpt>
      <trkpt lat="43.29109" lon="6.54116">
        <ele>167.2</ele>
        <time>2022-02-04T18:35:14Z</time>
      </trkpt>
      <trkpt lat="43.29111" lon="6.5412">
        <ele>167.4</ele>
        <time>2022-02-04T18:35:15Z</time>
      </trkpt>
      <trkpt lat="43.29112" lon="6.54124">
        <ele>167.6</ele>
        <time>2022-02-04T18:35:16Z</time>
      </trkpt>
      <trkpt lat="43.29113" lon="6.54127">
        <ele>168</ele>
        <time>2022-02-04T18:35:17Z</time>
      </trkpt>
      <trkpt lat="43.29115" lon="6.54131">
        <ele>168.2</ele>
        <time>2022-02-04T18:35:18Z</time>
      </trkpt>
      <trkpt lat="43.29117" lon="6.54135">
        <ele>168.4</ele>
        <time>2022-02-04T18:35:19Z</time>
      </trkpt>
      <trkpt lat="43.29119" lon="6.54139">
        <ele>168.4</ele>
        <time>2022-02-04T18:35:20Z</time>
      </trkpt>
      <trkpt lat="43.29121" lon="6.54143">
        <ele>168.6</ele>
        <time>2022-02-04T18:35:21Z</time>
      </trkpt>
      <trkpt lat="43.29124" lon="6.54146">
        <ele>168.6</ele>
        <time>2022-02-04T18:35:22Z</time>
      </trkpt>
      <trkpt lat="43.29126" lon="6.54149">
        <ele>168.6</ele>
        <time>2022-02-04T18:35:23Z</time>
      </trkpt>
      <trkpt lat="43.29129" lon="6.54152">
        <ele>168.6</ele>
        <time>2022-02-04T18:35:24Z</time>
      </trkpt>
      <trkpt lat="43.29132" lon="6.54155">
        <ele>168.8</ele>
        <time>2022-02-04T18:35:25Z</time>
      </trkpt>
      <trkpt lat="43.29135" lon="6.54157">
        <ele>168.8</ele>
        <time>2022-02-04T18:35:26Z</time>
      </trkpt>
      <trkpt lat="43.29138" lon="6.5416">
        <ele>168.8</ele>
        <time>2022-02-04T18:35:27Z</time>
      </trkpt>
      <trkpt lat="43.2914" lon="6.54164">
        <ele>169</ele>
        <time>2022-02-04T18:35:28Z</time>
      </trkpt>
      <trkpt lat="43.29142" lon="6.54168">
        <ele>169.2</ele>
        <time>2022-02-04T18:35:29Z</time>
      </trkpt>
      <trkpt lat="43.29144" lon="6.54173">
        <ele>169.6</ele>
        <time>2022-02-04T18:35:30Z</time>
      </trkpt>
      <trkpt lat="43.29145" lon="6.54178">
        <ele>169.6</ele>
        <time>2022-02-04T18:35:31Z</time>
      </trkpt>
      <trkpt lat="43.29145" lon="6.54181">
        <ele>169.8</ele>
        <time>2022-02-04T18:35:32Z</time>
      </trkpt>
      <trkpt lat="43.29145" lon="6.54185">
        <ele>170.4</ele>
        <time>2022-02-04T18:35:33Z</time>
      </trkpt>
      <trkpt lat="43.29145" lon="6.54189">
        <ele>171.2</ele>
        <time>2022-02-04T18:35:34Z</time>
      </trkpt>
      <trkpt lat="43.29145" lon="6.54193">
        <ele>172</ele>
        <time>2022-02-04T18:35:35Z</time>
      </trkpt>
      <trkpt lat="43.29146" lon="6.54197">
        <ele>172.6</ele>
        <time>2022-02-04T18:35:36Z</time>
      </trkpt>
      <trkpt lat="43.29146" lon="6.542">
        <ele>172.8</ele>
        <time>2022-02-04T18:35:37Z</time>
      </trkpt>
      <trkpt lat="43.29146" lon="6.54205">
        <ele>173.6</ele>
        <time>2022-02-04T18:35:38Z</time>
      </trkpt>
      <trkpt lat="43.29146" lon="6.54208">
        <ele>174.4</ele>
        <time>2022-02-04T18:35:39Z</time>
      </trkpt>
      <trkpt lat="43.29146" lon="6.54213">
        <ele>175.2</ele>
        <time>2022-02-04T18:35:40Z</time>
      </trkpt>
      <trkpt lat="43.29146" lon="6.54216">
        <ele>175.8</ele>
        <time>2022-02-04T18:35:41Z</time>
      </trkpt>
      <trkpt lat="43.29146" lon="6.5422">
        <ele>176.2</ele>
        <time>2022-02-04T18:35:42Z</time>
      </trkpt>
      <trkpt lat="43.29147" lon="6.54223">
        <ele>176.4</ele>
        <time>2022-02-04T18:35:43Z</time>
      </trkpt>
      <trkpt lat="43.29148" lon="6.54226">
        <ele>177.2</ele>
        <time>2022-02-04T18:35:44Z</time>
      </trkpt>
      <trkpt lat="43.29149" lon="6.5423">
        <ele>177.8</ele>
        <time>2022-02-04T18:35:45Z</time>
      </trkpt>
      <trkpt lat="43.2915" lon="6.54233">
        <ele>178.4</ele>
        <time>2022-02-04T18:35:46Z</time>
      </trkpt>
      <trkpt lat="43.29152" lon="6.54237">
        <ele>178.8</ele>
        <time>2022-02-04T18:35:47Z</time>
      </trkpt>
      <trkpt lat="43.29153" lon="6.54239">
        <ele>179.4</ele>
        <time>2022-02-04T18:35:48Z</time>
      </trkpt>
      <trkpt lat="43.29155" lon="6.54243">
        <ele>179.8</ele>
        <time>2022-02-04T18:35:49Z</time>
      </trkpt>
      <trkpt lat="43.29156" lon="6.54246">
        <ele>180.4</ele>
        <time>2022-02-04T18:35:50Z</time>
      </trkpt>
      <trkpt lat="43.29158" lon="6.5425">
        <ele>181</ele>
        <time>2022-02-04T18:35:51Z</time>
      </trkpt>
      <trkpt lat="43.2916" lon="6.54253">
        <ele>181.2</ele>
        <time>2022-02-04T18:35:52Z</time>
      </trkpt>
      <trkpt lat="43.29161" lon="6.54255">
        <ele>182</ele>
        <time>2022-02-04T18:35:53Z</time>
      </trkpt>
      <trkpt lat="43.29162" lon="6.54259">
        <ele>182.6</ele>
        <time>2022-02-04T18:35:54Z</time>
      </trkpt>
      <trkpt lat="43.29163" lon="6.54264">
        <ele>183.2</ele>
        <time>2022-02-04T18:35:55Z</time>
      </trkpt>
      <trkpt lat="43.29163" lon="6.54267">
        <ele>183.8</ele>
        <time>2022-02-04T18:35:56Z</time>
      </trkpt>
      <trkpt lat="43.29164" lon="6.54271">
        <ele>184</ele>
        <time>2022-02-04T18:35:57Z</time>
      </trkpt>
      <trkpt lat="43.29164" lon="6.54275">
        <ele>184.6</ele>
        <time>2022-02-04T18:35:58Z</time>
      </trkpt>
      <trkpt lat="43.29164" lon="6.5428">
        <ele>185</ele>
        <time>2022-02-04T18:35:59Z</time>
      </trkpt>
      <trkpt lat="43.29162" lon="6.54283">
        <ele>185.4</ele>
        <time>2022-02-04T18:36:00Z</time>
      </trkpt>
      <trkpt lat="43.29161" lon="6.54287">
        <ele>185.6</ele>
        <time>2022-02-04T18:36:01Z</time>
      </trkpt>
      <trkpt lat="43.29159" lon="6.54289">
        <ele>186</ele>
        <time>2022-02-04T18:36:02Z</time>
      </trkpt>
      <trkpt lat="43.29158" lon="6.54293">
        <ele>186.4</ele>
        <time>2022-02-04T18:36:03Z</time>
      </trkpt>
      <trkpt lat="43.29156" lon="6.54296">
        <ele>186.6</ele>
        <time>2022-02-04T18:36:04Z</time>
      </trkpt>
      <trkpt lat="43.29154" lon="6.54299">
        <ele>187.2</ele>
        <time>2022-02-04T18:36:05Z</time>
      </trkpt>
      <trkpt lat="43.29152" lon="6.54301">
        <ele>187.4</ele>
        <time>2022-02-04T18:36:06Z</time>
      </trkpt>
      <trkpt lat="43.2915" lon="6.54303">
        <ele>188</ele>
        <time>2022-02-04T18:36:07Z</time>
      </trkpt>
      <trkpt lat="43.29148" lon="6.54306">
        <ele>188.4</ele>
        <time>2022-02-04T18:36:08Z</time>
      </trkpt>
      <trkpt lat="43.29146" lon="6.54308">
        <ele>188.6</ele>
        <time>2022-02-04T18:36:09Z</time>
      </trkpt>
      <trkpt lat="43.29143" lon="6.54311">
        <ele>188.8</ele>
        <time>2022-02-04T18:36:10Z</time>
      </trkpt>
      <trkpt lat="43.29141" lon="6.54313">
        <ele>189.2</ele>
        <time>2022-02-04T18:36:11Z</time>
      </trkpt>
      <trkpt lat="43.2914" lon="6.54316">
        <ele>189.4</ele>
        <time>2022-02-04T18:36:12Z</time>
      </trkpt>
      <trkpt lat="43.29137" lon="6.54319">
        <ele>189.6</ele>
        <time>2022-02-04T18:36:13Z</time>
      </trkpt>
      <trkpt lat="43.29135" lon="6.54322">
        <ele>189.6</ele>
        <time>2022-02-04T18:36:14Z</time>
      </trkpt>
      <trkpt lat="43.29132" lon="6.54326">
        <ele>189.8</ele>
        <time>2022-02-04T18:36:15Z</time>
      </trkpt>
      <trkpt lat="43.2913" lon="6.54329">
        <ele>190</ele>
        <time>2022-02-04T18:36:16Z</time>
      </trkpt>
      <trkpt lat="43.29128" lon="6.54332">
        <ele>190.2</ele>
        <time>2022-02-04T18:36:17Z</time>
      </trkpt>
      <trkpt lat="43.29126" lon="6.54336">
        <ele>190.4</ele>
        <time>2022-02-04T18:36:18Z</time>
      </trkpt>
      <trkpt lat="43.29124" lon="6.5434">
        <ele>190.4</ele>
        <time>2022-02-04T18:36:19Z</time>
      </trkpt>
      <trkpt lat="43.29122" lon="6.54345">
        <ele>190.4</ele>
        <time>2022-02-04T18:36:20Z</time>
      </trkpt>
      <trkpt lat="43.29121" lon="6.54349">
        <ele>190.6</ele>
        <time>2022-02-04T18:36:21Z</time>
      </trkpt>
      <trkpt lat="43.2912" lon="6.54351">
        <ele>190.6</ele>
        <time>2022-02-04T18:36:22Z</time>
      </trkpt>
      <trkpt lat="43.29119" lon="6.54354">
        <ele>190.6</ele>
        <time>2022-02-04T18:36:23Z</time>
      </trkpt>
      <trkpt lat="43.29119" lon="6.54356">
        <ele>190.8</ele>
        <time>2022-02-04T18:36:24Z</time>
      </trkpt>
      <trkpt lat="43.29119" lon="6.54358">
        <ele>190.8</ele>
        <time>2022-02-04T18:36:25Z</time>
      </trkpt>
      <trkpt lat="43.2912" lon="6.54358">
        <ele>190.8</ele>
        <time>2022-02-04T18:36:26Z</time>
      </trkpt>
      <trkpt lat="43.2912" lon="6.54358">
        <ele>190.8</ele>
        <time>2022-02-04T18:36:27Z</time>
      </trkpt>
      <trkpt lat="43.2912" lon="6.54358">
        <ele>190.8</ele>
        <time>2022-02-04T18:36:28Z</time>
      </trkpt>
      <trkpt lat="43.2912" lon="6.54358">
        <ele>190.8</ele>
        <time>2022-02-04T18:36:29Z</time>
      </trkpt>
      <trkpt lat="43.2912" lon="6.54358">
        <ele>190.8</ele>
        <time>2022-02-04T18:36:30Z</time>
      </trkpt>
      <trkpt lat="43.2912" lon="6.54358">
        <ele>190.8</ele>
        <time>2022-02-04T18:36:31Z</time>
      </trkpt>
      <trkpt lat="43.2912" lon="6.54358">
        <ele>190.8</ele>
        <time>2022-02-04T18:36:32Z</time>
      </trkpt>
      <trkpt lat="43.2912" lon="6.54358">
        <ele>190.8</ele>
        <time>2022-02-04T18:36:33Z</time>
      </trkpt>
      <trkpt lat="43.2912" lon="6.54358">
        <ele>190.8</ele>
        <time>2022-02-04T18:36:34Z</time>
      </trkpt>
      <trkpt lat="43.2912" lon="6.54359">
        <ele>190.8</ele>
        <time>2022-02-04T18:36:35Z</time>
      </trkpt>
      <trkpt lat="43.2912" lon="6.54359">
        <ele>190.8</ele>
        <time>2022-02-04T18:36:36Z</time>
      </trkpt>
      <trkpt lat="43.2912" lon="6.54359">
        <ele>190.8</ele>
        <time>2022-02-04T18:36:37Z</time>
      </trkpt>
      <trkpt lat="43.2912" lon="6.54359">
        <ele>190.8</ele>
        <time>2022-02-04T18:36:38Z</time>
      </trkpt>
      <trkpt lat="43.2912" lon="6.54359">
        <ele>190.8</ele>
        <time>2022-02-04T18:36:39Z</time>
      </trkpt>
      <trkpt lat="43.2912" lon="6.54359">
        <ele>190.8</ele>
        <time>2022-02-04T18:36:40Z</time>
      </trkpt>
      <trkpt lat="43.2912" lon="6.54359">
        <ele>190.8</ele>
        <time>2022-02-04T18:36:41Z</time>
      </trkpt>
      <trkpt lat="43.2912" lon="6.54359">
        <ele>190.6</ele>
        <time>2022-02-04T18:36:42Z</time>
      </trkpt>
      <trkpt lat="43.2912" lon="6.54359">
        <ele>190.6</ele>
        <time>2022-02-04T18:36:43Z</time>
      </trkpt>
      <trkpt lat="43.2912" lon="6.54359">
        <ele>190.6</ele>
        <time>2022-02-04T18:36:44Z</time>
      </trkpt>
      <trkpt lat="43.2912" lon="6.54359">
        <ele>190.6</ele>
        <time>2022-02-04T18:36:45Z</time>
      </trkpt>
      <trkpt lat="43.2912" lon="6.54359">
        <ele>190.6</ele>
        <time>2022-02-04T18:36:46Z</time>
      </trkpt>
      <trkpt lat="43.2912" lon="6.54359">
        <ele>190.6</ele>
        <time>2022-02-04T18:36:47Z</time>
      </trkpt>
      <trkpt lat="43.2912" lon="6.54359">
        <ele>190.6</ele>
        <time>2022-02-04T18:36:48Z</time>
      </trkpt>
      <trkpt lat="43.2912" lon="6.54359">
        <ele>190.8</ele>
        <time>2022-02-04T18:36:49Z</time>
      </trkpt>
      <trkpt lat="43.2912" lon="6.54359">
        <ele>190.8</ele>
        <time>2022-02-04T18:36:50Z</time>
      </trkpt>
      <trkpt lat="43.29121" lon="6.5436">
        <ele>191</ele>
        <time>2022-02-04T18:36:51Z</time>
      </trkpt>
      <trkpt lat="43.29121" lon="6.54361">
        <ele>191</ele>
        <time>2022-02-04T18:36:52Z</time>
      </trkpt>
      <trkpt lat="43.29121" lon="6.54361">
        <ele>191</ele>
        <time>2022-02-04T18:36:53Z</time>
      </trkpt>
      <trkpt lat="43.29121" lon="6.54361">
        <ele>191</ele>
        <time>2022-02-04T18:36:54Z</time>
      </trkpt>
      <trkpt lat="43.29121" lon="6.54361">
        <ele>191.2</ele>
        <time>2022-02-04T18:36:55Z</time>
      </trkpt>
      <trkpt lat="43.29121" lon="6.54361">
        <ele>191.2</ele>
        <time>2022-02-04T18:36:56Z</time>
      </trkpt>
      <trkpt lat="43.29121" lon="6.54361">
        <ele>191.2</ele>
        <time>2022-02-04T18:36:57Z</time>
      </trkpt>
      <trkpt lat="43.29121" lon="6.54361">
        <ele>191.2</ele>
        <time>2022-02-04T18:36:58Z</time>
      </trkpt>
      <trkpt lat="43.29121" lon="6.54361">
        <ele>191</ele>
        <time>2022-02-04T18:36:59Z</time>
      </trkpt>
      <trkpt lat="43.29121" lon="6.54361">
        <ele>191</ele>
        <time>2022-02-04T18:37:00Z</time>
      </trkpt>
      <trkpt lat="43.29121" lon="6.54361">
        <ele>191</ele>
        <time>2022-02-04T18:37:01Z</time>
      </trkpt>
      <trkpt lat="43.29121" lon="6.54361">
        <ele>191</ele>
        <time>2022-02-04T18:37:02Z</time>
      </trkpt>
      <trkpt lat="43.29121" lon="6.54361">
        <ele>191</ele>
        <time>2022-02-04T18:37:03Z</time>
      </trkpt>
      <trkpt lat="43.29121" lon="6.54361">
        <ele>191</ele>
        <time>2022-02-04T18:37:04Z</time>
      </trkpt>
      <trkpt lat="43.29122" lon="6.54361">
        <ele>191</ele>
        <time>2022-02-04T18:37:05Z</time>
      </trkpt>
      <trkpt lat="43.29122" lon="6.54362">
        <ele>191</ele>
        <time>2022-02-04T18:37:06Z</time>
      </trkpt>
      <trkpt lat="43.29122" lon="6.54363">
        <ele>191</ele>
        <time>2022-02-04T18:37:07Z</time>
      </trkpt>
      <trkpt lat="43.29122" lon="6.54363">
        <ele>190.8</ele>
        <time>2022-02-04T18:37:08Z</time>
      </trkpt>
      <trkpt lat="43.29123" lon="6.54364">
        <ele>191</ele>
        <time>2022-02-04T18:37:09Z</time>
      </trkpt>
      <trkpt lat="43.29123" lon="6.54367">
        <ele>191</ele>
        <time>2022-02-04T18:37:10Z</time>
      </trkpt>
      <trkpt lat="43.29125" lon="6.54369">
        <ele>191</ele>
        <time>2022-02-04T18:37:11Z</time>
      </trkpt>
      <trkpt lat="43.29126" lon="6.54372">
        <ele>191.2</ele>
        <time>2022-02-04T18:37:12Z</time>
      </trkpt>
      <trkpt lat="43.29127" lon="6.54374">
        <ele>191.4</ele>
        <time>2022-02-04T18:37:13Z</time>
      </trkpt>
      <trkpt lat="43.29128" lon="6.54378">
        <ele>191.8</ele>
        <time>2022-02-04T18:37:14Z</time>
      </trkpt>
      <trkpt lat="43.29129" lon="6.54382">
        <ele>192.2</ele>
        <time>2022-02-04T18:37:15Z</time>
      </trkpt>
      <trkpt lat="43.29131" lon="6.54385">
        <ele>193</ele>
        <time>2022-02-04T18:37:16Z</time>
      </trkpt>
      <trkpt lat="43.29132" lon="6.54388">
        <ele>193.8</ele>
        <time>2022-02-04T18:37:17Z</time>
      </trkpt>
      <trkpt lat="43.29133" lon="6.5439">
        <ele>194.4</ele>
        <time>2022-02-04T18:37:18Z</time>
      </trkpt>
      <trkpt lat="43.29135" lon="6.54392">
        <ele>195</ele>
        <time>2022-02-04T18:37:19Z</time>
      </trkpt>
      <trkpt lat="43.29138" lon="6.54395">
        <ele>195.4</ele>
        <time>2022-02-04T18:37:20Z</time>
      </trkpt>
      <trkpt lat="43.29139" lon="6.54397">
        <ele>196</ele>
        <time>2022-02-04T18:37:21Z</time>
      </trkpt>
      <trkpt lat="43.29142" lon="6.54399">
        <ele>196.6</ele>
        <time>2022-02-04T18:37:22Z</time>
      </trkpt>
      <trkpt lat="43.29143" lon="6.544">
        <ele>197.4</ele>
        <time>2022-02-04T18:37:23Z</time>
      </trkpt>
      <trkpt lat="43.29146" lon="6.54402">
        <ele>198</ele>
        <time>2022-02-04T18:37:24Z</time>
      </trkpt>
      <trkpt lat="43.29148" lon="6.54403">
        <ele>198.6</ele>
        <time>2022-02-04T18:37:25Z</time>
      </trkpt>
      <trkpt lat="43.2915" lon="6.54405">
        <ele>199</ele>
        <time>2022-02-04T18:37:26Z</time>
      </trkpt>
      <trkpt lat="43.29152" lon="6.54406">
        <ele>199.2</ele>
        <time>2022-02-04T18:37:27Z</time>
      </trkpt>
      <trkpt lat="43.29154" lon="6.54407">
        <ele>199.8</ele>
        <time>2022-02-04T18:37:28Z</time>
      </trkpt>
      <trkpt lat="43.29156" lon="6.54409">
        <ele>200.4</ele>
        <time>2022-02-04T18:37:29Z</time>
      </trkpt>
      <trkpt lat="43.29159" lon="6.5441">
        <ele>200.6</ele>
        <time>2022-02-04T18:37:30Z</time>
      </trkpt>
      <trkpt lat="43.29161" lon="6.54411">
        <ele>201.4</ele>
        <time>2022-02-04T18:37:31Z</time>
      </trkpt>
      <trkpt lat="43.29163" lon="6.54412">
        <ele>201.8</ele>
        <time>2022-02-04T18:37:32Z</time>
      </trkpt>
      <trkpt lat="43.29165" lon="6.54413">
        <ele>202.4</ele>
        <time>2022-02-04T18:37:33Z</time>
      </trkpt>
      <trkpt lat="43.29168" lon="6.54414">
        <ele>202.8</ele>
        <time>2022-02-04T18:37:34Z</time>
      </trkpt>
      <trkpt lat="43.2917" lon="6.54414">
        <ele>203</ele>
        <time>2022-02-04T18:37:35Z</time>
      </trkpt>
      <trkpt lat="43.29173" lon="6.54415">
        <ele>203.2</ele>
        <time>2022-02-04T18:37:36Z</time>
      </trkpt>
      <trkpt lat="43.29175" lon="6.54417">
        <ele>203.4</ele>
        <time>2022-02-04T18:37:37Z</time>
      </trkpt>
      <trkpt lat="43.29178" lon="6.54418">
        <ele>203.6</ele>
        <time>2022-02-04T18:37:38Z</time>
      </trkpt>
      <trkpt lat="43.2918" lon="6.5442">
        <ele>203.8</ele>
        <time>2022-02-04T18:37:39Z</time>
      </trkpt>
      <trkpt lat="43.29182" lon="6.54422">
        <ele>204</ele>
        <time>2022-02-04T18:37:40Z</time>
      </trkpt>
      <trkpt lat="43.29184" lon="6.54423">
        <ele>204</ele>
        <time>2022-02-04T18:37:41Z</time>
      </trkpt>
      <trkpt lat="43.29186" lon="6.54424">
        <ele>204.2</ele>
        <time>2022-02-04T18:37:42Z</time>
      </trkpt>
      <trkpt lat="43.29189" lon="6.54425">
        <ele>204.4</ele>
        <time>2022-02-04T18:37:43Z</time>
      </trkpt>
      <trkpt lat="43.29191" lon="6.54427">
        <ele>204.6</ele>
        <time>2022-02-04T18:37:44Z</time>
      </trkpt>
      <trkpt lat="43.29193" lon="6.54428">
        <ele>204.6</ele>
        <time>2022-02-04T18:37:45Z</time>
      </trkpt>
      <trkpt lat="43.29196" lon="6.5443">
        <ele>204.8</ele>
        <time>2022-02-04T18:37:46Z</time>
      </trkpt>
      <trkpt lat="43.29197" lon="6.54431">
        <ele>205</ele>
        <time>2022-02-04T18:37:47Z</time>
      </trkpt>
      <trkpt lat="43.29199" lon="6.54434">
        <ele>205.2</ele>
        <time>2022-02-04T18:37:48Z</time>
      </trkpt>
      <trkpt lat="43.29201" lon="6.54436">
        <ele>205.4</ele>
        <time>2022-02-04T18:37:49Z</time>
      </trkpt>
      <trkpt lat="43.29202" lon="6.54439">
        <ele>205.4</ele>
        <time>2022-02-04T18:37:50Z</time>
      </trkpt>
      <trkpt lat="43.29204" lon="6.54442">
        <ele>205.6</ele>
        <time>2022-02-04T18:37:51Z</time>
      </trkpt>
      <trkpt lat="43.29206" lon="6.54445">
        <ele>205.8</ele>
        <time>2022-02-04T18:37:52Z</time>
      </trkpt>
      <trkpt lat="43.29208" lon="6.54447">
        <ele>206</ele>
        <time>2022-02-04T18:37:53Z</time>
      </trkpt>
      <trkpt lat="43.29209" lon="6.5445">
        <ele>206.2</ele>
        <time>2022-02-04T18:37:54Z</time>
      </trkpt>
      <trkpt lat="43.29212" lon="6.54452">
        <ele>206.4</ele>
        <time>2022-02-04T18:37:55Z</time>
      </trkpt>
      <trkpt lat="43.29213" lon="6.54454">
        <ele>206.6</ele>
        <time>2022-02-04T18:37:56Z</time>
      </trkpt>
      <trkpt lat="43.29215" lon="6.54457">
        <ele>207.2</ele>
        <time>2022-02-04T18:37:57Z</time>
      </trkpt>
      <trkpt lat="43.29218" lon="6.54459">
        <ele>207.6</ele>
        <time>2022-02-04T18:37:58Z</time>
      </trkpt>
      <trkpt lat="43.2922" lon="6.54462">
        <ele>207.8</ele>
        <time>2022-02-04T18:37:59Z</time>
      </trkpt>
      <trkpt lat="43.29223" lon="6.54464">
        <ele>208.2</ele>
        <time>2022-02-04T18:38:00Z</time>
      </trkpt>
      <trkpt lat="43.29225" lon="6.54466">
        <ele>208.2</ele>
        <time>2022-02-04T18:38:01Z</time>
      </trkpt>
      <trkpt lat="43.29228" lon="6.54467">
        <ele>208.2</ele>
        <time>2022-02-04T18:38:02Z</time>
      </trkpt>
      <trkpt lat="43.29231" lon="6.54469">
        <ele>208.4</ele>
        <time>2022-02-04T18:38:03Z</time>
      </trkpt>
      <trkpt lat="43.29234" lon="6.5447">
        <ele>208.4</ele>
        <time>2022-02-04T18:38:04Z</time>
      </trkpt>
      <trkpt lat="43.29237" lon="6.54472">
        <ele>208.4</ele>
        <time>2022-02-04T18:38:05Z</time>
      </trkpt>
      <trkpt lat="43.2924" lon="6.54473">
        <ele>208.4</ele>
        <time>2022-02-04T18:38:06Z</time>
      </trkpt>
      <trkpt lat="43.29243" lon="6.54474">
        <ele>208.4</ele>
        <time>2022-02-04T18:38:07Z</time>
      </trkpt>
      <trkpt lat="43.29246" lon="6.54475">
        <ele>208.2</ele>
        <time>2022-02-04T18:38:08Z</time>
      </trkpt>
      <trkpt lat="43.2925" lon="6.54475">
        <ele>208.2</ele>
        <time>2022-02-04T18:38:09Z</time>
      </trkpt>
      <trkpt lat="43.29254" lon="6.54474">
        <ele>208</ele>
        <time>2022-02-04T18:38:10Z</time>
      </trkpt>
      <trkpt lat="43.29258" lon="6.54473">
        <ele>207.6</ele>
        <time>2022-02-04T18:38:11Z</time>
      </trkpt>
      <trkpt lat="43.29263" lon="6.54473">
        <ele>207.4</ele>
        <time>2022-02-04T18:38:12Z</time>
      </trkpt>
      <trkpt lat="43.29268" lon="6.54472">
        <ele>207.4</ele>
        <time>2022-02-04T18:38:13Z</time>
      </trkpt>
      <trkpt lat="43.29272" lon="6.54472">
        <ele>207.2</ele>
        <time>2022-02-04T18:38:14Z</time>
      </trkpt>
      <trkpt lat="43.29276" lon="6.54473">
        <ele>207.2</ele>
        <time>2022-02-04T18:38:15Z</time>
      </trkpt>
      <trkpt lat="43.29281" lon="6.54474">
        <ele>207.2</ele>
        <time>2022-02-04T18:38:16Z</time>
      </trkpt>
      <trkpt lat="43.29287" lon="6.54476">
        <ele>207</ele>
        <time>2022-02-04T18:38:17Z</time>
      </trkpt>
      <trkpt lat="43.29292" lon="6.54477">
        <ele>207</ele>
        <time>2022-02-04T18:38:18Z</time>
      </trkpt>
      <trkpt lat="43.29299" lon="6.54479">
        <ele>206.8</ele>
        <time>2022-02-04T18:38:19Z</time>
      </trkpt>
      <trkpt lat="43.29305" lon="6.5448">
        <ele>206.8</ele>
        <time>2022-02-04T18:38:20Z</time>
      </trkpt>
      <trkpt lat="43.29311" lon="6.54482">
        <ele>206.8</ele>
        <time>2022-02-04T18:38:21Z</time>
      </trkpt>
      <trkpt lat="43.29315" lon="6.54484">
        <ele>206.4</ele>
        <time>2022-02-04T18:38:22Z</time>
      </trkpt>
      <trkpt lat="43.2932" lon="6.54486">
        <ele>205.6</ele>
        <time>2022-02-04T18:38:23Z</time>
      </trkpt>
      <trkpt lat="43.29326" lon="6.54488">
        <ele>205.2</ele>
        <time>2022-02-04T18:38:24Z</time>
      </trkpt>
      <trkpt lat="43.2933" lon="6.54489">
        <ele>205</ele>
        <time>2022-02-04T18:38:25Z</time>
      </trkpt>
      <trkpt lat="43.29333" lon="6.54489">
        <ele>205</ele>
        <time>2022-02-04T18:38:26Z</time>
      </trkpt>
      <trkpt lat="43.29339" lon="6.5449">
        <ele>204.8</ele>
        <time>2022-02-04T18:38:27Z</time>
      </trkpt>
      <trkpt lat="43.29344" lon="6.54489">
        <ele>204.6</ele>
        <time>2022-02-04T18:38:28Z</time>
      </trkpt>
      <trkpt lat="43.29349" lon="6.54489">
        <ele>204.4</ele>
        <time>2022-02-04T18:38:29Z</time>
      </trkpt>
      <trkpt lat="43.29354" lon="6.54491">
        <ele>204.4</ele>
        <time>2022-02-04T18:38:30Z</time>
      </trkpt>
      <trkpt lat="43.29359" lon="6.54493">
        <ele>204.4</ele>
        <time>2022-02-04T18:38:31Z</time>
      </trkpt>
      <trkpt lat="43.29364" lon="6.54496">
        <ele>204.4</ele>
        <time>2022-02-04T18:38:32Z</time>
      </trkpt>
      <trkpt lat="43.29368" lon="6.54499">
        <ele>204.4</ele>
        <time>2022-02-04T18:38:33Z</time>
      </trkpt>
      <trkpt lat="43.29373" lon="6.54503">
        <ele>204.6</ele>
        <time>2022-02-04T18:38:34Z</time>
      </trkpt>
      <trkpt lat="43.29378" lon="6.54507">
        <ele>204.8</ele>
        <time>2022-02-04T18:38:35Z</time>
      </trkpt>
      <trkpt lat="43.29383" lon="6.5451">
        <ele>205</ele>
        <time>2022-02-04T18:38:36Z</time>
      </trkpt>
      <trkpt lat="43.29387" lon="6.54512">
        <ele>205</ele>
        <time>2022-02-04T18:38:37Z</time>
      </trkpt>
      <trkpt lat="43.29392" lon="6.54515">
        <ele>205</ele>
        <time>2022-02-04T18:38:38Z</time>
      </trkpt>
      <trkpt lat="43.29397" lon="6.54516">
        <ele>205</ele>
        <time>2022-02-04T18:38:39Z</time>
      </trkpt>
      <trkpt lat="43.29401" lon="6.54518">
        <ele>205.2</ele>
        <time>2022-02-04T18:38:40Z</time>
      </trkpt>
      <trkpt lat="43.29406" lon="6.5452">
        <ele>205.4</ele>
        <time>2022-02-04T18:38:41Z</time>
      </trkpt>
      <trkpt lat="43.2941" lon="6.54522">
        <ele>206</ele>
        <time>2022-02-04T18:38:42Z</time>
      </trkpt>
      <trkpt lat="43.29414" lon="6.54524">
        <ele>206.4</ele>
        <time>2022-02-04T18:38:43Z</time>
      </trkpt>
      <trkpt lat="43.29419" lon="6.54526">
        <ele>206.6</ele>
        <time>2022-02-04T18:38:44Z</time>
      </trkpt>
      <trkpt lat="43.29424" lon="6.54527">
        <ele>206.8</ele>
        <time>2022-02-04T18:38:45Z</time>
      </trkpt>
      <trkpt lat="43.29428" lon="6.54528">
        <ele>206.8</ele>
        <time>2022-02-04T18:38:46Z</time>
      </trkpt>
      <trkpt lat="43.29432" lon="6.54528">
        <ele>207</ele>
        <time>2022-02-04T18:38:47Z</time>
      </trkpt>
      <trkpt lat="43.29436" lon="6.54528">
        <ele>207.2</ele>
        <time>2022-02-04T18:38:48Z</time>
      </trkpt>
      <trkpt lat="43.2944" lon="6.54528">
        <ele>207.2</ele>
        <time>2022-02-04T18:38:49Z</time>
      </trkpt>
      <trkpt lat="43.29443" lon="6.54528">
        <ele>207.2</ele>
        <time>2022-02-04T18:38:50Z</time>
      </trkpt>
      <trkpt lat="43.29448" lon="6.54528">
        <ele>206.8</ele>
        <time>2022-02-04T18:38:51Z</time>
      </trkpt>
      <trkpt lat="43.29453" lon="6.54528">
        <ele>206.6</ele>
        <time>2022-02-04T18:38:52Z</time>
      </trkpt>
      <trkpt lat="43.29458" lon="6.54527">
        <ele>206.4</ele>
        <time>2022-02-04T18:38:53Z</time>
      </trkpt>
      <trkpt lat="43.29464" lon="6.54526">
        <ele>206.2</ele>
        <time>2022-02-04T18:38:54Z</time>
      </trkpt>
      <trkpt lat="43.2947" lon="6.54524">
        <ele>206</ele>
        <time>2022-02-04T18:38:55Z</time>
      </trkpt>
      <trkpt lat="43.29476" lon="6.54521">
        <ele>205.8</ele>
        <time>2022-02-04T18:38:56Z</time>
      </trkpt>
      <trkpt lat="43.29482" lon="6.54518">
        <ele>205.6</ele>
        <time>2022-02-04T18:38:57Z</time>
      </trkpt>
      <trkpt lat="43.29489" lon="6.54515">
        <ele>205.2</ele>
        <time>2022-02-04T18:38:58Z</time>
      </trkpt>
      <trkpt lat="43.29497" lon="6.5451">
        <ele>204.4</ele>
        <time>2022-02-04T18:38:59Z</time>
      </trkpt>
      <trkpt lat="43.29504" lon="6.54506">
        <ele>203</ele>
        <time>2022-02-04T18:39:00Z</time>
      </trkpt>
      <trkpt lat="43.29512" lon="6.54502">
        <ele>202.8</ele>
        <time>2022-02-04T18:39:01Z</time>
      </trkpt>
      <trkpt lat="43.2952" lon="6.54497">
        <ele>201.4</ele>
        <time>2022-02-04T18:39:02Z</time>
      </trkpt>
      <trkpt lat="43.29528" lon="6.54491">
        <ele>200.6</ele>
        <time>2022-02-04T18:39:03Z</time>
      </trkpt>
      <trkpt lat="43.29535" lon="6.54488">
        <ele>200</ele>
        <time>2022-02-04T18:39:04Z</time>
      </trkpt>
      <trkpt lat="43.29541" lon="6.54486">
        <ele>200</ele>
        <time>2022-02-04T18:39:05Z</time>
      </trkpt>
      <trkpt lat="43.29545" lon="6.54487">
        <ele>199.8</ele>
        <time>2022-02-04T18:39:06Z</time>
      </trkpt>
      <trkpt lat="43.29549" lon="6.54488">
        <ele>200</ele>
        <time>2022-02-04T18:39:07Z</time>
      </trkpt>
      <trkpt lat="43.29552" lon="6.5449">
        <ele>200.4</ele>
        <time>2022-02-04T18:39:08Z</time>
      </trkpt>
      <trkpt lat="43.29555" lon="6.54492">
        <ele>200.8</ele>
        <time>2022-02-04T18:39:09Z</time>
      </trkpt>
      <trkpt lat="43.29557" lon="6.54494">
        <ele>201</ele>
        <time>2022-02-04T18:39:10Z</time>
      </trkpt>
      <trkpt lat="43.2956" lon="6.54496">
        <ele>201.8</ele>
        <time>2022-02-04T18:39:11Z</time>
      </trkpt>
      <trkpt lat="43.29562" lon="6.54499">
        <ele>202.2</ele>
        <time>2022-02-04T18:39:12Z</time>
      </trkpt>
      <trkpt lat="43.29565" lon="6.54501">
        <ele>202.8</ele>
        <time>2022-02-04T18:39:13Z</time>
      </trkpt>
      <trkpt lat="43.29568" lon="6.54503">
        <ele>204</ele>
        <time>2022-02-04T18:39:14Z</time>
      </trkpt>
      <trkpt lat="43.29571" lon="6.54504">
        <ele>204.6</ele>
        <time>2022-02-04T18:39:15Z</time>
      </trkpt>
      <trkpt lat="43.29574" lon="6.54505">
        <ele>205.4</ele>
        <time>2022-02-04T18:39:16Z</time>
      </trkpt>
      <trkpt lat="43.29577" lon="6.54507">
        <ele>206</ele>
        <time>2022-02-04T18:39:17Z</time>
      </trkpt>
      <trkpt lat="43.2958" lon="6.54509">
        <ele>206.6</ele>
        <time>2022-02-04T18:39:18Z</time>
      </trkpt>
      <trkpt lat="43.29583" lon="6.54512">
        <ele>207.2</ele>
        <time>2022-02-04T18:39:19Z</time>
      </trkpt>
      <trkpt lat="43.29585" lon="6.54516">
        <ele>208</ele>
        <time>2022-02-04T18:39:20Z</time>
      </trkpt>
      <trkpt lat="43.29588" lon="6.54518">
        <ele>208.4</ele>
        <time>2022-02-04T18:39:21Z</time>
      </trkpt>
      <trkpt lat="43.29591" lon="6.5452">
        <ele>209.4</ele>
        <time>2022-02-04T18:39:22Z</time>
      </trkpt>
      <trkpt lat="43.29593" lon="6.54522">
        <ele>210.2</ele>
        <time>2022-02-04T18:39:23Z</time>
      </trkpt>
      <trkpt lat="43.29595" lon="6.54524">
        <ele>210.8</ele>
        <time>2022-02-04T18:39:24Z</time>
      </trkpt>
      <trkpt lat="43.29598" lon="6.54526">
        <ele>211.4</ele>
        <time>2022-02-04T18:39:25Z</time>
      </trkpt>
      <trkpt lat="43.296" lon="6.54528">
        <ele>211.6</ele>
        <time>2022-02-04T18:39:26Z</time>
      </trkpt>
      <trkpt lat="43.29602" lon="6.54532">
        <ele>212.6</ele>
        <time>2022-02-04T18:39:27Z</time>
      </trkpt>
      <trkpt lat="43.29604" lon="6.54536">
        <ele>213.4</ele>
        <time>2022-02-04T18:39:28Z</time>
      </trkpt>
      <trkpt lat="43.29605" lon="6.5454">
        <ele>214</ele>
        <time>2022-02-04T18:39:29Z</time>
      </trkpt>
      <trkpt lat="43.29605" lon="6.54544">
        <ele>214.4</ele>
        <time>2022-02-04T18:39:30Z</time>
      </trkpt>
      <trkpt lat="43.29606" lon="6.54546">
        <ele>214.8</ele>
        <time>2022-02-04T18:39:31Z</time>
      </trkpt>
      <trkpt lat="43.29608" lon="6.5455">
        <ele>215.2</ele>
        <time>2022-02-04T18:39:32Z</time>
      </trkpt>
      <trkpt lat="43.2961" lon="6.54553">
        <ele>215.6</ele>
        <time>2022-02-04T18:39:33Z</time>
      </trkpt>
      <trkpt lat="43.29612" lon="6.54555">
        <ele>216.2</ele>
        <time>2022-02-04T18:39:34Z</time>
      </trkpt>
      <trkpt lat="43.29613" lon="6.54557">
        <ele>216.8</ele>
        <time>2022-02-04T18:39:35Z</time>
      </trkpt>
      <trkpt lat="43.29615" lon="6.54558">
        <ele>217.2</ele>
        <time>2022-02-04T18:39:36Z</time>
      </trkpt>
      <trkpt lat="43.29618" lon="6.54559">
        <ele>218</ele>
        <time>2022-02-04T18:39:37Z</time>
      </trkpt>
      <trkpt lat="43.2962" lon="6.54559">
        <ele>218.6</ele>
        <time>2022-02-04T18:39:38Z</time>
      </trkpt>
      <trkpt lat="43.29623" lon="6.5456">
        <ele>219.2</ele>
        <time>2022-02-04T18:39:39Z</time>
      </trkpt>
      <trkpt lat="43.29625" lon="6.5456">
        <ele>219.6</ele>
        <time>2022-02-04T18:39:40Z</time>
      </trkpt>
      <trkpt lat="43.29627" lon="6.5456">
        <ele>220</ele>
        <time>2022-02-04T18:39:41Z</time>
      </trkpt>
      <trkpt lat="43.2963" lon="6.54559">
        <ele>220.2</ele>
        <time>2022-02-04T18:39:42Z</time>
      </trkpt>
      <trkpt lat="43.29633" lon="6.54559">
        <ele>220.6</ele>
        <time>2022-02-04T18:39:43Z</time>
      </trkpt>
      <trkpt lat="43.29635" lon="6.54559">
        <ele>220.8</ele>
        <time>2022-02-04T18:39:44Z</time>
      </trkpt>
      <trkpt lat="43.29638" lon="6.54558">
        <ele>221.2</ele>
        <time>2022-02-04T18:39:45Z</time>
      </trkpt>
      <trkpt lat="43.2964" lon="6.54557">
        <ele>221.8</ele>
        <time>2022-02-04T18:39:46Z</time>
      </trkpt>
      <trkpt lat="43.29643" lon="6.54556">
        <ele>222.4</ele>
        <time>2022-02-04T18:39:47Z</time>
      </trkpt>
      <trkpt lat="43.29645" lon="6.54554">
        <ele>223</ele>
        <time>2022-02-04T18:39:48Z</time>
      </trkpt>
      <trkpt lat="43.29646" lon="6.54553">
        <ele>223.4</ele>
        <time>2022-02-04T18:39:49Z</time>
      </trkpt>
      <trkpt lat="43.29647" lon="6.5455">
        <ele>224.4</ele>
        <time>2022-02-04T18:39:50Z</time>
      </trkpt>
      <trkpt lat="43.29649" lon="6.54548">
        <ele>225</ele>
        <time>2022-02-04T18:39:51Z</time>
      </trkpt>
      <trkpt lat="43.2965" lon="6.54545">
        <ele>225.8</ele>
        <time>2022-02-04T18:39:52Z</time>
      </trkpt>
      <trkpt lat="43.29651" lon="6.54542">
        <ele>226.6</ele>
        <time>2022-02-04T18:39:53Z</time>
      </trkpt>
      <trkpt lat="43.29653" lon="6.5454">
        <ele>227.2</ele>
        <time>2022-02-04T18:39:54Z</time>
      </trkpt>
      <trkpt lat="43.29654" lon="6.54537">
        <ele>227.8</ele>
        <time>2022-02-04T18:39:55Z</time>
      </trkpt>
      <trkpt lat="43.29655" lon="6.54535">
        <ele>228.6</ele>
        <time>2022-02-04T18:39:56Z</time>
      </trkpt>
      <trkpt lat="43.29656" lon="6.54533">
        <ele>229.2</ele>
        <time>2022-02-04T18:39:57Z</time>
      </trkpt>
      <trkpt lat="43.29658" lon="6.5453">
        <ele>230</ele>
        <time>2022-02-04T18:39:58Z</time>
      </trkpt>
      <trkpt lat="43.29659" lon="6.54528">
        <ele>230.4</ele>
        <time>2022-02-04T18:39:59Z</time>
      </trkpt>
      <trkpt lat="43.29661" lon="6.54525">
        <ele>230.8</ele>
        <time>2022-02-04T18:40:00Z</time>
      </trkpt>
      <trkpt lat="43.29662" lon="6.54523">
        <ele>231.4</ele>
        <time>2022-02-04T18:40:01Z</time>
      </trkpt>
      <trkpt lat="43.29663" lon="6.5452">
        <ele>231.8</ele>
        <time>2022-02-04T18:40:02Z</time>
      </trkpt>
      <trkpt lat="43.29664" lon="6.54518">
        <ele>232.4</ele>
        <time>2022-02-04T18:40:03Z</time>
      </trkpt>
      <trkpt lat="43.29666" lon="6.54516">
        <ele>232.8</ele>
        <time>2022-02-04T18:40:04Z</time>
      </trkpt>
      <trkpt lat="43.29667" lon="6.54514">
        <ele>233</ele>
        <time>2022-02-04T18:40:05Z</time>
      </trkpt>
      <trkpt lat="43.29668" lon="6.54513">
        <ele>233.4</ele>
        <time>2022-02-04T18:40:06Z</time>
      </trkpt>
      <trkpt lat="43.2967" lon="6.54511">
        <ele>234</ele>
        <time>2022-02-04T18:40:07Z</time>
      </trkpt>
      <trkpt lat="43.29671" lon="6.54508">
        <ele>234.2</ele>
        <time>2022-02-04T18:40:08Z</time>
      </trkpt>
      <trkpt lat="43.29672" lon="6.54506">
        <ele>234.8</ele>
        <time>2022-02-04T18:40:09Z</time>
      </trkpt>
      <trkpt lat="43.29674" lon="6.54504">
        <ele>235</ele>
        <time>2022-02-04T18:40:10Z</time>
      </trkpt>
      <trkpt lat="43.29675" lon="6.54502">
        <ele>235.2</ele>
        <time>2022-02-04T18:40:11Z</time>
      </trkpt>
      <trkpt lat="43.29676" lon="6.54499">
        <ele>235.6</ele>
        <time>2022-02-04T18:40:12Z</time>
      </trkpt>
      <trkpt lat="43.29677" lon="6.54497">
        <ele>236</ele>
        <time>2022-02-04T18:40:13Z</time>
      </trkpt>
      <trkpt lat="43.29678" lon="6.54495">
        <ele>236.4</ele>
        <time>2022-02-04T18:40:14Z</time>
      </trkpt>
      <trkpt lat="43.29679" lon="6.54492">
        <ele>236.6</ele>
        <time>2022-02-04T18:40:15Z</time>
      </trkpt>
      <trkpt lat="43.2968" lon="6.5449">
        <ele>236.8</ele>
        <time>2022-02-04T18:40:16Z</time>
      </trkpt>
      <trkpt lat="43.29681" lon="6.54488">
        <ele>237.2</ele>
        <time>2022-02-04T18:40:17Z</time>
      </trkpt>
      <trkpt lat="43.29681" lon="6.54486">
        <ele>237.6</ele>
        <time>2022-02-04T18:40:18Z</time>
      </trkpt>
      <trkpt lat="43.29682" lon="6.54484">
        <ele>238</ele>
        <time>2022-02-04T18:40:19Z</time>
      </trkpt>
      <trkpt lat="43.29683" lon="6.54482">
        <ele>238.6</ele>
        <time>2022-02-04T18:40:20Z</time>
      </trkpt>
      <trkpt lat="43.29684" lon="6.54479">
        <ele>238.8</ele>
        <time>2022-02-04T18:40:21Z</time>
      </trkpt>
      <trkpt lat="43.29685" lon="6.54477">
        <ele>239.4</ele>
        <time>2022-02-04T18:40:22Z</time>
      </trkpt>
      <trkpt lat="43.29686" lon="6.54475">
        <ele>239.6</ele>
        <time>2022-02-04T18:40:23Z</time>
      </trkpt>
      <trkpt lat="43.29688" lon="6.54472">
        <ele>240</ele>
        <time>2022-02-04T18:40:24Z</time>
      </trkpt>
      <trkpt lat="43.29689" lon="6.5447">
        <ele>240.6</ele>
        <time>2022-02-04T18:40:25Z</time>
      </trkpt>
      <trkpt lat="43.2969" lon="6.54468">
        <ele>241.2</ele>
        <time>2022-02-04T18:40:26Z</time>
      </trkpt>
      <trkpt lat="43.29692" lon="6.54465">
        <ele>241.6</ele>
        <time>2022-02-04T18:40:27Z</time>
      </trkpt>
      <trkpt lat="43.29694" lon="6.54463">
        <ele>242</ele>
        <time>2022-02-04T18:40:28Z</time>
      </trkpt>
      <trkpt lat="43.29696" lon="6.5446">
        <ele>242.6</ele>
        <time>2022-02-04T18:40:29Z</time>
      </trkpt>
      <trkpt lat="43.29697" lon="6.54458">
        <ele>243</ele>
        <time>2022-02-04T18:40:30Z</time>
      </trkpt>
      <trkpt lat="43.29699" lon="6.54456">
        <ele>243.4</ele>
        <time>2022-02-04T18:40:31Z</time>
      </trkpt>
      <trkpt lat="43.29701" lon="6.54454">
        <ele>243.8</ele>
        <time>2022-02-04T18:40:32Z</time>
      </trkpt>
      <trkpt lat="43.29703" lon="6.54451">
        <ele>244.2</ele>
        <time>2022-02-04T18:40:33Z</time>
      </trkpt>
      <trkpt lat="43.29704" lon="6.54449">
        <ele>244.6</ele>
        <time>2022-02-04T18:40:34Z</time>
      </trkpt>
      <trkpt lat="43.29706" lon="6.54446">
        <ele>245.2</ele>
        <time>2022-02-04T18:40:35Z</time>
      </trkpt>
      <trkpt lat="43.29707" lon="6.54444">
        <ele>245.4</ele>
        <time>2022-02-04T18:40:36Z</time>
      </trkpt>
      <trkpt lat="43.29709" lon="6.54442">
        <ele>246.2</ele>
        <time>2022-02-04T18:40:37Z</time>
      </trkpt>
      <trkpt lat="43.29711" lon="6.54439">
        <ele>246.6</ele>
        <time>2022-02-04T18:40:38Z</time>
      </trkpt>
      <trkpt lat="43.29712" lon="6.54437">
        <ele>247.2</ele>
        <time>2022-02-04T18:40:39Z</time>
      </trkpt>
      <trkpt lat="43.29712" lon="6.54435">
        <ele>247.6</ele>
        <time>2022-02-04T18:40:40Z</time>
      </trkpt>
      <trkpt lat="43.29713" lon="6.54432">
        <ele>248</ele>
        <time>2022-02-04T18:40:41Z</time>
      </trkpt>
      <trkpt lat="43.29714" lon="6.54428">
        <ele>248.2</ele>
        <time>2022-02-04T18:40:42Z</time>
      </trkpt>
      <trkpt lat="43.29715" lon="6.54426">
        <ele>248.8</ele>
        <time>2022-02-04T18:40:43Z</time>
      </trkpt>
      <trkpt lat="43.29715" lon="6.54423">
        <ele>249.4</ele>
        <time>2022-02-04T18:40:44Z</time>
      </trkpt>
      <trkpt lat="43.29716" lon="6.54421">
        <ele>250</ele>
        <time>2022-02-04T18:40:45Z</time>
      </trkpt>
      <trkpt lat="43.29717" lon="6.54419">
        <ele>250.4</ele>
        <time>2022-02-04T18:40:46Z</time>
      </trkpt>
      <trkpt lat="43.29717" lon="6.54416">
        <ele>249.2</ele>
        <time>2022-02-04T18:40:47Z</time>
      </trkpt>
      <trkpt lat="43.29718" lon="6.54413">
        <ele>249.2</ele>
        <time>2022-02-04T18:40:48Z</time>
      </trkpt>
      <trkpt lat="43.29719" lon="6.54411">
        <ele>249.2</ele>
        <time>2022-02-04T18:40:49Z</time>
      </trkpt>
      <trkpt lat="43.29719" lon="6.54409">
        <ele>249.2</ele>
        <time>2022-02-04T18:40:50Z</time>
      </trkpt>
      <trkpt lat="43.2972" lon="6.54406">
        <ele>249.6</ele>
        <time>2022-02-04T18:40:51Z</time>
      </trkpt>
      <trkpt lat="43.2972" lon="6.54403">
        <ele>250</ele>
        <time>2022-02-04T18:40:52Z</time>
      </trkpt>
      <trkpt lat="43.2972" lon="6.544">
        <ele>250.2</ele>
        <time>2022-02-04T18:40:53Z</time>
      </trkpt>
      <trkpt lat="43.2972" lon="6.54397">
        <ele>250.6</ele>
        <time>2022-02-04T18:40:54Z</time>
      </trkpt>
      <trkpt lat="43.29721" lon="6.54395">
        <ele>251</ele>
        <time>2022-02-04T18:40:55Z</time>
      </trkpt>
      <trkpt lat="43.29721" lon="6.54391">
        <ele>251.6</ele>
        <time>2022-02-04T18:40:56Z</time>
      </trkpt>
      <trkpt lat="43.29722" lon="6.54389">
        <ele>252</ele>
        <time>2022-02-04T18:40:57Z</time>
      </trkpt>
      <trkpt lat="43.29722" lon="6.54386">
        <ele>252.4</ele>
        <time>2022-02-04T18:40:58Z</time>
      </trkpt>
      <trkpt lat="43.29722" lon="6.54384">
        <ele>253</ele>
        <time>2022-02-04T18:40:59Z</time>
      </trkpt>
      <trkpt lat="43.29723" lon="6.5438">
        <ele>253.6</ele>
        <time>2022-02-04T18:41:00Z</time>
      </trkpt>
      <trkpt lat="43.29723" lon="6.54378">
        <ele>253.8</ele>
        <time>2022-02-04T18:41:01Z</time>
      </trkpt>
      <trkpt lat="43.29723" lon="6.54375">
        <ele>253.8</ele>
        <time>2022-02-04T18:41:02Z</time>
      </trkpt>
      <trkpt lat="43.29724" lon="6.54373">
        <ele>254.4</ele>
        <time>2022-02-04T18:41:03Z</time>
      </trkpt>
      <trkpt lat="43.29724" lon="6.5437">
        <ele>255</ele>
        <time>2022-02-04T18:41:04Z</time>
      </trkpt>
      <trkpt lat="43.29724" lon="6.54367">
        <ele>255.6</ele>
        <time>2022-02-04T18:41:05Z</time>
      </trkpt>
      <trkpt lat="43.29724" lon="6.54365">
        <ele>256</ele>
        <time>2022-02-04T18:41:06Z</time>
      </trkpt>
      <trkpt lat="43.29724" lon="6.54361">
        <ele>256.2</ele>
        <time>2022-02-04T18:41:07Z</time>
      </trkpt>
      <trkpt lat="43.29723" lon="6.54359">
        <ele>256.6</ele>
        <time>2022-02-04T18:41:08Z</time>
      </trkpt>
      <trkpt lat="43.29722" lon="6.54357">
        <ele>257.2</ele>
        <time>2022-02-04T18:41:09Z</time>
      </trkpt>
      <trkpt lat="43.2972" lon="6.54356">
        <ele>257.8</ele>
        <time>2022-02-04T18:41:10Z</time>
      </trkpt>
      <trkpt lat="43.29718" lon="6.54356">
        <ele>258.2</ele>
        <time>2022-02-04T18:41:11Z</time>
      </trkpt>
      <trkpt lat="43.29716" lon="6.54357">
        <ele>258.4</ele>
        <time>2022-02-04T18:41:12Z</time>
      </trkpt>
      <trkpt lat="43.29714" lon="6.54359">
        <ele>258.8</ele>
        <time>2022-02-04T18:41:13Z</time>
      </trkpt>
      <trkpt lat="43.29713" lon="6.5436">
        <ele>259.2</ele>
        <time>2022-02-04T18:41:14Z</time>
      </trkpt>
      <trkpt lat="43.29711" lon="6.54361">
        <ele>259.4</ele>
        <time>2022-02-04T18:41:15Z</time>
      </trkpt>
      <trkpt lat="43.29709" lon="6.54361">
        <ele>259.8</ele>
        <time>2022-02-04T18:41:16Z</time>
      </trkpt>
      <trkpt lat="43.29707" lon="6.54361">
        <ele>260</ele>
        <time>2022-02-04T18:41:17Z</time>
      </trkpt>
      <trkpt lat="43.29705" lon="6.5436">
        <ele>260.2</ele>
        <time>2022-02-04T18:41:18Z</time>
      </trkpt>
      <trkpt lat="43.29703" lon="6.5436">
        <ele>260.6</ele>
        <time>2022-02-04T18:41:19Z</time>
      </trkpt>
      <trkpt lat="43.29701" lon="6.5436">
        <ele>260.8</ele>
        <time>2022-02-04T18:41:20Z</time>
      </trkpt>
      <trkpt lat="43.29698" lon="6.5436">
        <ele>261.4</ele>
        <time>2022-02-04T18:41:21Z</time>
      </trkpt>
      <trkpt lat="43.29696" lon="6.5436">
        <ele>261.8</ele>
        <time>2022-02-04T18:41:22Z</time>
      </trkpt>
      <trkpt lat="43.29693" lon="6.5436">
        <ele>262</ele>
        <time>2022-02-04T18:41:23Z</time>
      </trkpt>
      <trkpt lat="43.29691" lon="6.54361">
        <ele>262.4</ele>
        <time>2022-02-04T18:41:24Z</time>
      </trkpt>
      <trkpt lat="43.29688" lon="6.5436">
        <ele>263.2</ele>
        <time>2022-02-04T18:41:25Z</time>
      </trkpt>
      <trkpt lat="43.29685" lon="6.5436">
        <ele>263.6</ele>
        <time>2022-02-04T18:41:26Z</time>
      </trkpt>
      <trkpt lat="43.29682" lon="6.54359">
        <ele>264</ele>
        <time>2022-02-04T18:41:27Z</time>
      </trkpt>
      <trkpt lat="43.29679" lon="6.54357">
        <ele>264</ele>
        <time>2022-02-04T18:41:28Z</time>
      </trkpt>
      <trkpt lat="43.29677" lon="6.54356">
        <ele>264.4</ele>
        <time>2022-02-04T18:41:29Z</time>
      </trkpt>
      <trkpt lat="43.29675" lon="6.54354">
        <ele>264.8</ele>
        <time>2022-02-04T18:41:30Z</time>
      </trkpt>
      <trkpt lat="43.29673" lon="6.5435">
        <ele>264.8</ele>
        <time>2022-02-04T18:41:31Z</time>
      </trkpt>
      <trkpt lat="43.29671" lon="6.54347">
        <ele>265</ele>
        <time>2022-02-04T18:41:32Z</time>
      </trkpt>
      <trkpt lat="43.2967" lon="6.54343">
        <ele>265</ele>
        <time>2022-02-04T18:41:33Z</time>
      </trkpt>
      <trkpt lat="43.2967" lon="6.5434">
        <ele>265.2</ele>
        <time>2022-02-04T18:41:34Z</time>
      </trkpt>
      <trkpt lat="43.2967" lon="6.54337">
        <ele>265.4</ele>
        <time>2022-02-04T18:41:35Z</time>
      </trkpt>
      <trkpt lat="43.2967" lon="6.54333">
        <ele>265.6</ele>
        <time>2022-02-04T18:41:36Z</time>
      </trkpt>
      <trkpt lat="43.2967" lon="6.54329">
        <ele>266</ele>
        <time>2022-02-04T18:41:37Z</time>
      </trkpt>
      <trkpt lat="43.2967" lon="6.54325">
        <ele>266.6</ele>
        <time>2022-02-04T18:41:38Z</time>
      </trkpt>
      <trkpt lat="43.29671" lon="6.54322">
        <ele>267.2</ele>
        <time>2022-02-04T18:41:39Z</time>
      </trkpt>
      <trkpt lat="43.29671" lon="6.54318">
        <ele>268</ele>
        <time>2022-02-04T18:41:40Z</time>
      </trkpt>
      <trkpt lat="43.29672" lon="6.54314">
        <ele>268.4</ele>
        <time>2022-02-04T18:41:41Z</time>
      </trkpt>
      <trkpt lat="43.29673" lon="6.5431">
        <ele>268.6</ele>
        <time>2022-02-04T18:41:42Z</time>
      </trkpt>
      <trkpt lat="43.29673" lon="6.54306">
        <ele>269.2</ele>
        <time>2022-02-04T18:41:43Z</time>
      </trkpt>
      <trkpt lat="43.29673" lon="6.54302">
        <ele>269.4</ele>
        <time>2022-02-04T18:41:44Z</time>
      </trkpt>
      <trkpt lat="43.29674" lon="6.54299">
        <ele>269.6</ele>
        <time>2022-02-04T18:41:45Z</time>
      </trkpt>
      <trkpt lat="43.29674" lon="6.54294">
        <ele>270</ele>
        <time>2022-02-04T18:41:46Z</time>
      </trkpt>
      <trkpt lat="43.29673" lon="6.5429">
        <ele>270.2</ele>
        <time>2022-02-04T18:41:47Z</time>
      </trkpt>
      <trkpt lat="43.29673" lon="6.54288">
        <ele>270.4</ele>
        <time>2022-02-04T18:41:48Z</time>
      </trkpt>
      <trkpt lat="43.29673" lon="6.54284">
        <ele>270.6</ele>
        <time>2022-02-04T18:41:49Z</time>
      </trkpt>
      <trkpt lat="43.29672" lon="6.5428">
        <ele>270.8</ele>
        <time>2022-02-04T18:41:50Z</time>
      </trkpt>
      <trkpt lat="43.29672" lon="6.54277">
        <ele>271</ele>
        <time>2022-02-04T18:41:51Z</time>
      </trkpt>
      <trkpt lat="43.29672" lon="6.54272">
        <ele>271.4</ele>
        <time>2022-02-04T18:41:52Z</time>
      </trkpt>
      <trkpt lat="43.29672" lon="6.54269">
        <ele>271.6</ele>
        <time>2022-02-04T18:41:53Z</time>
      </trkpt>
      <trkpt lat="43.29672" lon="6.54265">
        <ele>272</ele>
        <time>2022-02-04T18:41:54Z</time>
      </trkpt>
      <trkpt lat="43.29672" lon="6.54263">
        <ele>272.2</ele>
        <time>2022-02-04T18:41:55Z</time>
      </trkpt>
      <trkpt lat="43.29672" lon="6.54258">
        <ele>272.8</ele>
        <time>2022-02-04T18:41:56Z</time>
      </trkpt>
      <trkpt lat="43.29672" lon="6.54256">
        <ele>273</ele>
        <time>2022-02-04T18:41:57Z</time>
      </trkpt>
      <trkpt lat="43.29672" lon="6.54253">
        <ele>273.4</ele>
        <time>2022-02-04T18:41:58Z</time>
      </trkpt>
      <trkpt lat="43.29672" lon="6.54249">
        <ele>273.6</ele>
        <time>2022-02-04T18:41:59Z</time>
      </trkpt>
      <trkpt lat="43.29671" lon="6.54245">
        <ele>274</ele>
        <time>2022-02-04T18:42:00Z</time>
      </trkpt>
      <trkpt lat="43.29671" lon="6.54241">
        <ele>274.4</ele>
        <time>2022-02-04T18:42:01Z</time>
      </trkpt>
      <trkpt lat="43.29671" lon="6.54237">
        <ele>275</ele>
        <time>2022-02-04T18:42:02Z</time>
      </trkpt>
      <trkpt lat="43.29671" lon="6.54233">
        <ele>275.6</ele>
        <time>2022-02-04T18:42:03Z</time>
      </trkpt>
      <trkpt lat="43.29671" lon="6.54229">
        <ele>276</ele>
        <time>2022-02-04T18:42:04Z</time>
      </trkpt>
      <trkpt lat="43.29672" lon="6.54224">
        <ele>276.6</ele>
        <time>2022-02-04T18:42:05Z</time>
      </trkpt>
      <trkpt lat="43.29673" lon="6.54221">
        <ele>277.2</ele>
        <time>2022-02-04T18:42:06Z</time>
      </trkpt>
      <trkpt lat="43.29674" lon="6.54217">
        <ele>277.6</ele>
        <time>2022-02-04T18:42:07Z</time>
      </trkpt>
      <trkpt lat="43.29674" lon="6.54214">
        <ele>278.2</ele>
        <time>2022-02-04T18:42:08Z</time>
      </trkpt>
      <trkpt lat="43.29674" lon="6.54211">
        <ele>278.8</ele>
        <time>2022-02-04T18:42:09Z</time>
      </trkpt>
      <trkpt lat="43.29673" lon="6.54207">
        <ele>279.4</ele>
        <time>2022-02-04T18:42:10Z</time>
      </trkpt>
      <trkpt lat="43.29671" lon="6.54206">
        <ele>280.2</ele>
        <time>2022-02-04T18:42:11Z</time>
      </trkpt>
      <trkpt lat="43.29668" lon="6.54205">
        <ele>280.6</ele>
        <time>2022-02-04T18:42:12Z</time>
      </trkpt>
      <trkpt lat="43.29666" lon="6.54205">
        <ele>281.4</ele>
        <time>2022-02-04T18:42:13Z</time>
      </trkpt>
      <trkpt lat="43.29664" lon="6.54206">
        <ele>281.8</ele>
        <time>2022-02-04T18:42:14Z</time>
      </trkpt>
      <trkpt lat="43.29661" lon="6.54207">
        <ele>282.6</ele>
        <time>2022-02-04T18:42:15Z</time>
      </trkpt>
      <trkpt lat="43.29658" lon="6.54207">
        <ele>283</ele>
        <time>2022-02-04T18:42:16Z</time>
      </trkpt>
      <trkpt lat="43.29655" lon="6.54208">
        <ele>283.4</ele>
        <time>2022-02-04T18:42:17Z</time>
      </trkpt>
      <trkpt lat="43.29653" lon="6.54208">
        <ele>283.8</ele>
        <time>2022-02-04T18:42:18Z</time>
      </trkpt>
      <trkpt lat="43.29651" lon="6.54208">
        <ele>284.2</ele>
        <time>2022-02-04T18:42:19Z</time>
      </trkpt>
      <trkpt lat="43.29648" lon="6.54207">
        <ele>284.4</ele>
        <time>2022-02-04T18:42:20Z</time>
      </trkpt>
      <trkpt lat="43.29645" lon="6.54206">
        <ele>284.6</ele>
        <time>2022-02-04T18:42:21Z</time>
      </trkpt>
      <trkpt lat="43.29642" lon="6.54205">
        <ele>284.8</ele>
        <time>2022-02-04T18:42:22Z</time>
      </trkpt>
      <trkpt lat="43.2964" lon="6.54204">
        <ele>285</ele>
        <time>2022-02-04T18:42:23Z</time>
      </trkpt>
      <trkpt lat="43.29638" lon="6.54203">
        <ele>285.2</ele>
        <time>2022-02-04T18:42:24Z</time>
      </trkpt>
      <trkpt lat="43.29635" lon="6.54201">
        <ele>285.6</ele>
        <time>2022-02-04T18:42:25Z</time>
      </trkpt>
      <trkpt lat="43.29633" lon="6.54198">
        <ele>285.8</ele>
        <time>2022-02-04T18:42:26Z</time>
      </trkpt>
      <trkpt lat="43.29631" lon="6.54196">
        <ele>286.4</ele>
        <time>2022-02-04T18:42:27Z</time>
      </trkpt>
      <trkpt lat="43.2963" lon="6.54193">
        <ele>287.2</ele>
        <time>2022-02-04T18:42:28Z</time>
      </trkpt>
      <trkpt lat="43.29628" lon="6.54191">
        <ele>287.6</ele>
        <time>2022-02-04T18:42:29Z</time>
      </trkpt>
      <trkpt lat="43.29626" lon="6.54189">
        <ele>288</ele>
        <time>2022-02-04T18:42:30Z</time>
      </trkpt>
      <trkpt lat="43.29623" lon="6.54187">
        <ele>288.8</ele>
        <time>2022-02-04T18:42:31Z</time>
      </trkpt>
      <trkpt lat="43.2962" lon="6.54185">
        <ele>289.4</ele>
        <time>2022-02-04T18:42:32Z</time>
      </trkpt>
      <trkpt lat="43.29618" lon="6.54184">
        <ele>289.8</ele>
        <time>2022-02-04T18:42:33Z</time>
      </trkpt>
      <trkpt lat="43.29615" lon="6.54184">
        <ele>290</ele>
        <time>2022-02-04T18:42:34Z</time>
      </trkpt>
      <trkpt lat="43.29612" lon="6.54183">
        <ele>290.2</ele>
        <time>2022-02-04T18:42:35Z</time>
      </trkpt>
      <trkpt lat="43.29609" lon="6.54183">
        <ele>290.8</ele>
        <time>2022-02-04T18:42:36Z</time>
      </trkpt>
      <trkpt lat="43.29606" lon="6.54183">
        <ele>291</ele>
        <time>2022-02-04T18:42:37Z</time>
      </trkpt>
      <trkpt lat="43.29604" lon="6.54183">
        <ele>291.2</ele>
        <time>2022-02-04T18:42:38Z</time>
      </trkpt>
      <trkpt lat="43.29601" lon="6.54182">
        <ele>291.8</ele>
        <time>2022-02-04T18:42:39Z</time>
      </trkpt>
      <trkpt lat="43.29597" lon="6.54183">
        <ele>292</ele>
        <time>2022-02-04T18:42:40Z</time>
      </trkpt>
      <trkpt lat="43.29594" lon="6.54183">
        <ele>292.2</ele>
        <time>2022-02-04T18:42:41Z</time>
      </trkpt>
      <trkpt lat="43.29591" lon="6.54183">
        <ele>292.6</ele>
        <time>2022-02-04T18:42:42Z</time>
      </trkpt>
      <trkpt lat="43.29589" lon="6.54183">
        <ele>292.8</ele>
        <time>2022-02-04T18:42:43Z</time>
      </trkpt>
      <trkpt lat="43.29585" lon="6.54183">
        <ele>293.2</ele>
        <time>2022-02-04T18:42:44Z</time>
      </trkpt>
      <trkpt lat="43.29582" lon="6.54183">
        <ele>293.6</ele>
        <time>2022-02-04T18:42:45Z</time>
      </trkpt>
      <trkpt lat="43.29579" lon="6.54183">
        <ele>294</ele>
        <time>2022-02-04T18:42:46Z</time>
      </trkpt>
      <trkpt lat="43.29577" lon="6.54183">
        <ele>294.4</ele>
        <time>2022-02-04T18:42:47Z</time>
      </trkpt>
      <trkpt lat="43.29574" lon="6.54183">
        <ele>294.8</ele>
        <time>2022-02-04T18:42:48Z</time>
      </trkpt>
      <trkpt lat="43.29571" lon="6.54183">
        <ele>295.4</ele>
        <time>2022-02-04T18:42:49Z</time>
      </trkpt>
      <trkpt lat="43.29567" lon="6.54183">
        <ele>295.8</ele>
        <time>2022-02-04T18:42:50Z</time>
      </trkpt>
      <trkpt lat="43.29564" lon="6.54183">
        <ele>296.8</ele>
        <time>2022-02-04T18:42:51Z</time>
      </trkpt>
      <trkpt lat="43.29561" lon="6.54183">
        <ele>297.4</ele>
        <time>2022-02-04T18:42:52Z</time>
      </trkpt>
      <trkpt lat="43.29558" lon="6.54182">
        <ele>297.8</ele>
        <time>2022-02-04T18:42:53Z</time>
      </trkpt>
      <trkpt lat="43.29555" lon="6.54182">
        <ele>298.6</ele>
        <time>2022-02-04T18:42:54Z</time>
      </trkpt>
      <trkpt lat="43.29552" lon="6.54181">
        <ele>299.2</ele>
        <time>2022-02-04T18:42:55Z</time>
      </trkpt>
      <trkpt lat="43.2955" lon="6.5418">
        <ele>299.8</ele>
        <time>2022-02-04T18:42:56Z</time>
      </trkpt>
      <trkpt lat="43.29547" lon="6.5418">
        <ele>300.2</ele>
        <time>2022-02-04T18:42:57Z</time>
      </trkpt>
      <trkpt lat="43.29544" lon="6.5418">
        <ele>300.6</ele>
        <time>2022-02-04T18:42:58Z</time>
      </trkpt>
      <trkpt lat="43.2954" lon="6.54181">
        <ele>301.2</ele>
        <time>2022-02-04T18:42:59Z</time>
      </trkpt>
      <trkpt lat="43.29537" lon="6.54181">
        <ele>301.6</ele>
        <time>2022-02-04T18:43:00Z</time>
      </trkpt>
      <trkpt lat="43.29535" lon="6.54182">
        <ele>302</ele>
        <time>2022-02-04T18:43:01Z</time>
      </trkpt>
      <trkpt lat="43.29532" lon="6.54182">
        <ele>302.8</ele>
        <time>2022-02-04T18:43:02Z</time>
      </trkpt>
      <trkpt lat="43.29529" lon="6.54182">
        <ele>303.2</ele>
        <time>2022-02-04T18:43:03Z</time>
      </trkpt>
      <trkpt lat="43.29526" lon="6.54183">
        <ele>303.4</ele>
        <time>2022-02-04T18:43:04Z</time>
      </trkpt>
      <trkpt lat="43.29524" lon="6.54183">
        <ele>304</ele>
        <time>2022-02-04T18:43:05Z</time>
      </trkpt>
      <trkpt lat="43.29521" lon="6.54183">
        <ele>304.6</ele>
        <time>2022-02-04T18:43:06Z</time>
      </trkpt>
      <trkpt lat="43.29519" lon="6.54183">
        <ele>305.2</ele>
        <time>2022-02-04T18:43:07Z</time>
      </trkpt>
      <trkpt lat="43.29516" lon="6.54182">
        <ele>305.6</ele>
        <time>2022-02-04T18:43:08Z</time>
      </trkpt>
      <trkpt lat="43.29513" lon="6.54182">
        <ele>306.2</ele>
        <time>2022-02-04T18:43:09Z</time>
      </trkpt>
      <trkpt lat="43.2951" lon="6.54181">
        <ele>306.8</ele>
        <time>2022-02-04T18:43:10Z</time>
      </trkpt>
      <trkpt lat="43.29507" lon="6.5418">
        <ele>307.6</ele>
        <time>2022-02-04T18:43:11Z</time>
      </trkpt>
      <trkpt lat="43.29505" lon="6.54178">
        <ele>308.2</ele>
        <time>2022-02-04T18:43:12Z</time>
      </trkpt>
      <trkpt lat="43.29503" lon="6.54175">
        <ele>308.6</ele>
        <time>2022-02-04T18:43:13Z</time>
      </trkpt>
      <trkpt lat="43.295" lon="6.54172">
        <ele>309</ele>
        <time>2022-02-04T18:43:14Z</time>
      </trkpt>
      <trkpt lat="43.29499" lon="6.54169">
        <ele>309.4</ele>
        <time>2022-02-04T18:43:15Z</time>
      </trkpt>
      <trkpt lat="43.29498" lon="6.54165">
        <ele>309.8</ele>
        <time>2022-02-04T18:43:16Z</time>
      </trkpt>
      <trkpt lat="43.29498" lon="6.54161">
        <ele>310.2</ele>
        <time>2022-02-04T18:43:17Z</time>
      </trkpt>
      <trkpt lat="43.29499" lon="6.54158">
        <ele>310.6</ele>
        <time>2022-02-04T18:43:18Z</time>
      </trkpt>
      <trkpt lat="43.295" lon="6.54155">
        <ele>310.8</ele>
        <time>2022-02-04T18:43:19Z</time>
      </trkpt>
      <trkpt lat="43.29501" lon="6.54152">
        <ele>311.2</ele>
        <time>2022-02-04T18:43:20Z</time>
      </trkpt>
      <trkpt lat="43.29502" lon="6.54149">
        <ele>311.8</ele>
        <time>2022-02-04T18:43:21Z</time>
      </trkpt>
      <trkpt lat="43.29503" lon="6.54146">
        <ele>312</ele>
        <time>2022-02-04T18:43:22Z</time>
      </trkpt>
      <trkpt lat="43.29504" lon="6.54143">
        <ele>312.8</ele>
        <time>2022-02-04T18:43:23Z</time>
      </trkpt>
      <trkpt lat="43.29506" lon="6.5414">
        <ele>313.6</ele>
        <time>2022-02-04T18:43:24Z</time>
      </trkpt>
      <trkpt lat="43.29508" lon="6.54138">
        <ele>314.4</ele>
        <time>2022-02-04T18:43:25Z</time>
      </trkpt>
      <trkpt lat="43.29509" lon="6.54135">
        <ele>315</ele>
        <time>2022-02-04T18:43:26Z</time>
      </trkpt>
      <trkpt lat="43.29511" lon="6.54133">
        <ele>315.6</ele>
        <time>2022-02-04T18:43:27Z</time>
      </trkpt>
      <trkpt lat="43.29512" lon="6.5413">
        <ele>316.2</ele>
        <time>2022-02-04T18:43:28Z</time>
      </trkpt>
      <trkpt lat="43.29512" lon="6.54127">
        <ele>316.8</ele>
        <time>2022-02-04T18:43:29Z</time>
      </trkpt>
      <trkpt lat="43.29513" lon="6.54124">
        <ele>317.2</ele>
        <time>2022-02-04T18:43:30Z</time>
      </trkpt>
      <trkpt lat="43.29513" lon="6.54121">
        <ele>317.6</ele>
        <time>2022-02-04T18:43:31Z</time>
      </trkpt>
      <trkpt lat="43.29514" lon="6.54118">
        <ele>318</ele>
        <time>2022-02-04T18:43:32Z</time>
      </trkpt>
      <trkpt lat="43.29514" lon="6.54115">
        <ele>318.6</ele>
        <time>2022-02-04T18:43:33Z</time>
      </trkpt>
      <trkpt lat="43.29515" lon="6.54111">
        <ele>319</ele>
        <time>2022-02-04T18:43:34Z</time>
      </trkpt>
      <trkpt lat="43.29517" lon="6.54108">
        <ele>319.4</ele>
        <time>2022-02-04T18:43:35Z</time>
      </trkpt>
      <trkpt lat="43.29518" lon="6.54106">
        <ele>320</ele>
        <time>2022-02-04T18:43:36Z</time>
      </trkpt>
      <trkpt lat="43.2952" lon="6.54104">
        <ele>320.4</ele>
        <time>2022-02-04T18:43:37Z</time>
      </trkpt>
      <trkpt lat="43.29522" lon="6.54102">
        <ele>320.8</ele>
        <time>2022-02-04T18:43:38Z</time>
      </trkpt>
      <trkpt lat="43.29523" lon="6.541">
        <ele>321</ele>
        <time>2022-02-04T18:43:39Z</time>
      </trkpt>
      <trkpt lat="43.29525" lon="6.54097">
        <ele>321.2</ele>
        <time>2022-02-04T18:43:40Z</time>
      </trkpt>
      <trkpt lat="43.29527" lon="6.54096">
        <ele>321.2</ele>
        <time>2022-02-04T18:43:41Z</time>
      </trkpt>
      <trkpt lat="43.29529" lon="6.54094">
        <ele>321.2</ele>
        <time>2022-02-04T18:43:42Z</time>
      </trkpt>
      <trkpt lat="43.2953" lon="6.54093">
        <ele>321.2</ele>
        <time>2022-02-04T18:43:43Z</time>
      </trkpt>
      <trkpt lat="43.29532" lon="6.54091">
        <ele>321.6</ele>
        <time>2022-02-04T18:43:44Z</time>
      </trkpt>
      <trkpt lat="43.29533" lon="6.5409">
        <ele>321.8</ele>
        <time>2022-02-04T18:43:45Z</time>
      </trkpt>
      <trkpt lat="43.29535" lon="6.54088">
        <ele>322.2</ele>
        <time>2022-02-04T18:43:46Z</time>
      </trkpt>
      <trkpt lat="43.29537" lon="6.54087">
        <ele>322.4</ele>
        <time>2022-02-04T18:43:47Z</time>
      </trkpt>
      <trkpt lat="43.29539" lon="6.54087">
        <ele>322.6</ele>
        <time>2022-02-04T18:43:48Z</time>
      </trkpt>
      <trkpt lat="43.2954" lon="6.54087">
        <ele>322.8</ele>
        <time>2022-02-04T18:43:49Z</time>
      </trkpt>
      <trkpt lat="43.2954" lon="6.54087">
        <ele>322.8</ele>
        <time>2022-02-04T18:43:50Z</time>
      </trkpt>
      <trkpt lat="43.2954" lon="6.54087">
        <ele>323</ele>
        <time>2022-02-04T18:43:51Z</time>
      </trkpt>
      <trkpt lat="43.2954" lon="6.54087">
        <ele>323</ele>
        <time>2022-02-04T18:43:52Z</time>
      </trkpt>
      <trkpt lat="43.2954" lon="6.54087">
        <ele>323</ele>
        <time>2022-02-04T18:43:53Z</time>
      </trkpt>
      <trkpt lat="43.2954" lon="6.54087">
        <ele>323.2</ele>
        <time>2022-02-04T18:43:54Z</time>
      </trkpt>
      <trkpt lat="43.2954" lon="6.54087">
        <ele>323.2</ele>
        <time>2022-02-04T18:43:55Z</time>
      </trkpt>
      <trkpt lat="43.2954" lon="6.54087">
        <ele>323.2</ele>
        <time>2022-02-04T18:43:56Z</time>
      </trkpt>
      <trkpt lat="43.2954" lon="6.54087">
        <ele>323.2</ele>
        <time>2022-02-04T18:43:57Z</time>
      </trkpt>
      <trkpt lat="43.2954" lon="6.54087">
        <ele>323.2</ele>
        <time>2022-02-04T18:43:58Z</time>
      </trkpt>
      <trkpt lat="43.2954" lon="6.54087">
        <ele>323.2</ele>
        <time>2022-02-04T18:43:59Z</time>
      </trkpt>
      <trkpt lat="43.2954" lon="6.54087">
        <ele>323</ele>
        <time>2022-02-04T18:44:00Z</time>
      </trkpt>
      <trkpt lat="43.2954" lon="6.54087">
        <ele>323</ele>
        <time>2022-02-04T18:44:01Z</time>
      </trkpt>
      <trkpt lat="43.2954" lon="6.54087">
        <ele>323</ele>
        <time>2022-02-04T18:44:02Z</time>
      </trkpt>
      <trkpt lat="43.2954" lon="6.54087">
        <ele>323</ele>
        <time>2022-02-04T18:44:03Z</time>
      </trkpt>
      <trkpt lat="43.2954" lon="6.54087">
        <ele>323</ele>
        <time>2022-02-04T18:44:04Z</time>
      </trkpt>
      <trkpt lat="43.2954" lon="6.54087">
        <ele>322.8</ele>
        <time>2022-02-04T18:44:05Z</time>
      </trkpt>
      <trkpt lat="43.2954" lon="6.54087">
        <ele>322.8</ele>
        <time>2022-02-04T18:44:06Z</time>
      </trkpt>
      <trkpt lat="43.2954" lon="6.54087">
        <ele>322.8</ele>
        <time>2022-02-04T18:44:07Z</time>
      </trkpt>
      <trkpt lat="43.2954" lon="6.54087">
        <ele>322.8</ele>
        <time>2022-02-04T18:44:08Z</time>
      </trkpt>
      <trkpt lat="43.2954" lon="6.54087">
        <ele>322.8</ele>
        <time>2022-02-04T18:44:09Z</time>
      </trkpt>
      <trkpt lat="43.2954" lon="6.54087">
        <ele>322.8</ele>
        <time>2022-02-04T18:44:10Z</time>
      </trkpt>
      <trkpt lat="43.2954" lon="6.54087">
        <ele>322.8</ele>
        <time>2022-02-04T18:44:11Z</time>
      </trkpt>
      <trkpt lat="43.2954" lon="6.54087">
        <ele>322.8</ele>
        <time>2022-02-04T18:44:12Z</time>
      </trkpt>
      <trkpt lat="43.2954" lon="6.54087">
        <ele>322.8</ele>
        <time>2022-02-04T18:44:13Z</time>
      </trkpt>
      <trkpt lat="43.2954" lon="6.54087">
        <ele>322.6</ele>
        <time>2022-02-04T18:44:14Z</time>
      </trkpt>
      <trkpt lat="43.2954" lon="6.54087">
        <ele>322.6</ele>
        <time>2022-02-04T18:44:15Z</time>
      </trkpt>
      <trkpt lat="43.2954" lon="6.54087">
        <ele>322.6</ele>
        <time>2022-02-04T18:44:16Z</time>
      </trkpt>
      <trkpt lat="43.2954" lon="6.54087">
        <ele>322.6</ele>
        <time>2022-02-04T18:44:17Z</time>
      </trkpt>
      <trkpt lat="43.2954" lon="6.54087">
        <ele>322.6</ele>
        <time>2022-02-04T18:44:18Z</time>
      </trkpt>
      <trkpt lat="43.2954" lon="6.54087">
        <ele>322.6</ele>
        <time>2022-02-04T18:44:19Z</time>
      </trkpt>
      <trkpt lat="43.2954" lon="6.54087">
        <ele>322.6</ele>
        <time>2022-02-04T18:44:20Z</time>
      </trkpt>
      <trkpt lat="43.2954" lon="6.54087">
        <ele>322.6</ele>
        <time>2022-02-04T18:44:21Z</time>
      </trkpt>
      <trkpt lat="43.2954" lon="6.54087">
        <ele>322.6</ele>
        <time>2022-02-04T18:44:22Z</time>
      </trkpt>
      <trkpt lat="43.2954" lon="6.54087">
        <ele>322.6</ele>
        <time>2022-02-04T18:44:23Z</time>
      </trkpt>
      <trkpt lat="43.2954" lon="6.54087">
        <ele>322.6</ele>
        <time>2022-02-04T18:44:24Z</time>
      </trkpt>
      <trkpt lat="43.2954" lon="6.54087">
        <ele>322.6</ele>
        <time>2022-02-04T18:44:25Z</time>
      </trkpt>
      <trkpt lat="43.2954" lon="6.54087">
        <ele>322.4</ele>
        <time>2022-02-04T18:44:26Z</time>
      </trkpt>
      <trkpt lat="43.2954" lon="6.54087">
        <ele>322.4</ele>
        <time>2022-02-04T18:44:27Z</time>
      </trkpt>
      <trkpt lat="43.2954" lon="6.54087">
        <ele>322.4</ele>
        <time>2022-02-04T18:44:28Z</time>
      </trkpt>
      <trkpt lat="43.2954" lon="6.54087">
        <ele>322.4</ele>
        <time>2022-02-04T18:44:29Z</time>
      </trkpt>
      <trkpt lat="43.2954" lon="6.54087">
        <ele>322.4</ele>
        <time>2022-02-04T18:44:30Z</time>
      </trkpt>
      <trkpt lat="43.2954" lon="6.54087">
        <ele>322.2</ele>
        <time>2022-02-04T18:44:31Z</time>
      </trkpt>
      <trkpt lat="43.2954" lon="6.54087">
        <ele>322.2</ele>
        <time>2022-02-04T18:44:32Z</time>
      </trkpt>
      <trkpt lat="43.2954" lon="6.54087">
        <ele>322.2</ele>
        <time>2022-02-04T18:44:33Z</time>
      </trkpt>
      <trkpt lat="43.29541" lon="6.54087">
        <ele>322.2</ele>
        <time>2022-02-04T18:44:34Z</time>
      </trkpt>
      <trkpt lat="43.29542" lon="6.54086">
        <ele>322.2</ele>
        <time>2022-02-04T18:44:35Z</time>
      </trkpt>
      <trkpt lat="43.29544" lon="6.54084">
        <ele>322.2</ele>
        <time>2022-02-04T18:44:36Z</time>
      </trkpt>
      <trkpt lat="43.29546" lon="6.54083">
        <ele>322.2</ele>
        <time>2022-02-04T18:44:37Z</time>
      </trkpt>
      <trkpt lat="43.29549" lon="6.54083">
        <ele>322.2</ele>
        <time>2022-02-04T18:44:38Z</time>
      </trkpt>
      <trkpt lat="43.29551" lon="6.54082">
        <ele>322.4</ele>
        <time>2022-02-04T18:44:39Z</time>
      </trkpt>
      <trkpt lat="43.29554" lon="6.5408">
        <ele>322.4</ele>
        <time>2022-02-04T18:44:40Z</time>
      </trkpt>
      <trkpt lat="43.29558" lon="6.54079">
        <ele>322.6</ele>
        <time>2022-02-04T18:44:41Z</time>
      </trkpt>
      <trkpt lat="43.29561" lon="6.54077">
        <ele>322.6</ele>
        <time>2022-02-04T18:44:42Z</time>
      </trkpt>
      <trkpt lat="43.29564" lon="6.54076">
        <ele>323.2</ele>
        <time>2022-02-04T18:44:43Z</time>
      </trkpt>
      <trkpt lat="43.29566" lon="6.54075">
        <ele>323.4</ele>
        <time>2022-02-04T18:44:44Z</time>
      </trkpt>
      <trkpt lat="43.29569" lon="6.54074">
        <ele>323.8</ele>
        <time>2022-02-04T18:44:45Z</time>
      </trkpt>
      <trkpt lat="43.29572" lon="6.54072">
        <ele>324</ele>
        <time>2022-02-04T18:44:46Z</time>
      </trkpt>
      <trkpt lat="43.29575" lon="6.5407">
        <ele>324.2</ele>
        <time>2022-02-04T18:44:47Z</time>
      </trkpt>
      <trkpt lat="43.29577" lon="6.5407">
        <ele>324.4</ele>
        <time>2022-02-04T18:44:48Z</time>
      </trkpt>
      <trkpt lat="43.29581" lon="6.54069">
        <ele>324.6</ele>
        <time>2022-02-04T18:44:49Z</time>
      </trkpt>
      <trkpt lat="43.29585" lon="6.54068">
        <ele>324.6</ele>
        <time>2022-02-04T18:44:50Z</time>
      </trkpt>
      <trkpt lat="43.2959" lon="6.54066">
        <ele>324.6</ele>
        <time>2022-02-04T18:44:51Z</time>
      </trkpt>
      <trkpt lat="43.29596" lon="6.54065">
        <ele>324.4</ele>
        <time>2022-02-04T18:44:52Z</time>
      </trkpt>
      <trkpt lat="43.29603" lon="6.54063">
        <ele>324</ele>
        <time>2022-02-04T18:44:53Z</time>
      </trkpt>
      <trkpt lat="43.29608" lon="6.54061">
        <ele>323.6</ele>
        <time>2022-02-04T18:44:54Z</time>
      </trkpt>
      <trkpt lat="43.29616" lon="6.54057">
        <ele>322.6</ele>
        <time>2022-02-04T18:44:55Z</time>
      </trkpt>
      <trkpt lat="43.29622" lon="6.54053">
        <ele>322.2</ele>
        <time>2022-02-04T18:44:56Z</time>
      </trkpt>
      <trkpt lat="43.29627" lon="6.54051">
        <ele>321.8</ele>
        <time>2022-02-04T18:44:57Z</time>
      </trkpt>
      <trkpt lat="43.29632" lon="6.54051">
        <ele>321.6</ele>
        <time>2022-02-04T18:44:58Z</time>
      </trkpt>
      <trkpt lat="43.29635" lon="6.54049">
        <ele>321.6</ele>
        <time>2022-02-04T18:44:59Z</time>
      </trkpt>
      <trkpt lat="43.29637" lon="6.54048">
        <ele>321.8</ele>
        <time>2022-02-04T18:45:00Z</time>
      </trkpt>
      <trkpt lat="43.29639" lon="6.54046">
        <ele>322.2</ele>
        <time>2022-02-04T18:45:01Z</time>
      </trkpt>
      <trkpt lat="43.29641" lon="6.54043">
        <ele>322.6</ele>
        <time>2022-02-04T18:45:02Z</time>
      </trkpt>
      <trkpt lat="43.29643" lon="6.5404">
        <ele>323</ele>
        <time>2022-02-04T18:45:03Z</time>
      </trkpt>
      <trkpt lat="43.29645" lon="6.54036">
        <ele>323.2</ele>
        <time>2022-02-04T18:45:04Z</time>
      </trkpt>
      <trkpt lat="43.29648" lon="6.54032">
        <ele>323.6</ele>
        <time>2022-02-04T18:45:05Z</time>
      </trkpt>
      <trkpt lat="43.2965" lon="6.54028">
        <ele>323.8</ele>
        <time>2022-02-04T18:45:06Z</time>
      </trkpt>
      <trkpt lat="43.29652" lon="6.54024">
        <ele>324.6</ele>
        <time>2022-02-04T18:45:07Z</time>
      </trkpt>
      <trkpt lat="43.29654" lon="6.54021">
        <ele>325</ele>
        <time>2022-02-04T18:45:08Z</time>
      </trkpt>
      <trkpt lat="43.29656" lon="6.54017">
        <ele>325.2</ele>
        <time>2022-02-04T18:45:09Z</time>
      </trkpt>
      <trkpt lat="43.29659" lon="6.54013">
        <ele>325.8</ele>
        <time>2022-02-04T18:45:10Z</time>
      </trkpt>
      <trkpt lat="43.29661" lon="6.54008">
        <ele>326.6</ele>
        <time>2022-02-04T18:45:11Z</time>
      </trkpt>
      <trkpt lat="43.29664" lon="6.54005">
        <ele>327.4</ele>
        <time>2022-02-04T18:45:12Z</time>
      </trkpt>
      <trkpt lat="43.29666" lon="6.54002">
        <ele>327.6</ele>
        <time>2022-02-04T18:45:13Z</time>
      </trkpt>
      <trkpt lat="43.29669" lon="6.53999">
        <ele>328.4</ele>
        <time>2022-02-04T18:45:14Z</time>
      </trkpt>
      <trkpt lat="43.29671" lon="6.53997">
        <ele>328.6</ele>
        <time>2022-02-04T18:45:15Z</time>
      </trkpt>
      <trkpt lat="43.29674" lon="6.53994">
        <ele>329</ele>
        <time>2022-02-04T18:45:16Z</time>
      </trkpt>
      <trkpt lat="43.29676" lon="6.53991">
        <ele>329.4</ele>
        <time>2022-02-04T18:45:17Z</time>
      </trkpt>
      <trkpt lat="43.29679" lon="6.53989">
        <ele>330</ele>
        <time>2022-02-04T18:45:18Z</time>
      </trkpt>
      <trkpt lat="43.29682" lon="6.53986">
        <ele>330.4</ele>
        <time>2022-02-04T18:45:19Z</time>
      </trkpt>
      <trkpt lat="43.29684" lon="6.53983">
        <ele>330.8</ele>
        <time>2022-02-04T18:45:20Z</time>
      </trkpt>
      <trkpt lat="43.29687" lon="6.53979">
        <ele>331.4</ele>
        <time>2022-02-04T18:45:21Z</time>
      </trkpt>
      <trkpt lat="43.29689" lon="6.53976">
        <ele>331.6</ele>
        <time>2022-02-04T18:45:22Z</time>
      </trkpt>
      <trkpt lat="43.29691" lon="6.53972">
        <ele>332</ele>
        <time>2022-02-04T18:45:23Z</time>
      </trkpt>
      <trkpt lat="43.29693" lon="6.5397">
        <ele>332.8</ele>
        <time>2022-02-04T18:45:24Z</time>
      </trkpt>
      <trkpt lat="43.29696" lon="6.53967">
        <ele>333.4</ele>
        <time>2022-02-04T18:45:25Z</time>
      </trkpt>
      <trkpt lat="43.29699" lon="6.53965">
        <ele>334.2</ele>
        <time>2022-02-04T18:45:26Z</time>
      </trkpt>
      <trkpt lat="43.29701" lon="6.53964">
        <ele>334.8</ele>
        <time>2022-02-04T18:45:27Z</time>
      </trkpt>
      <trkpt lat="43.29703" lon="6.53963">
        <ele>335.8</ele>
        <time>2022-02-04T18:45:28Z</time>
      </trkpt>
      <trkpt lat="43.29705" lon="6.53963">
        <ele>336.2</ele>
        <time>2022-02-04T18:45:29Z</time>
      </trkpt>
      <trkpt lat="43.29708" lon="6.53963">
        <ele>336.6</ele>
        <time>2022-02-04T18:45:30Z</time>
      </trkpt>
      <trkpt lat="43.29711" lon="6.53964">
        <ele>336.8</ele>
        <time>2022-02-04T18:45:31Z</time>
      </trkpt>
      <trkpt lat="43.29714" lon="6.53966">
        <ele>337</ele>
        <time>2022-02-04T18:45:32Z</time>
      </trkpt>
      <trkpt lat="43.29719" lon="6.53968">
        <ele>337</ele>
        <time>2022-02-04T18:45:33Z</time>
      </trkpt>
      <trkpt lat="43.29723" lon="6.53971">
        <ele>336.4</ele>
        <time>2022-02-04T18:45:34Z</time>
      </trkpt>
      <trkpt lat="43.29729" lon="6.53976">
        <ele>336</ele>
        <time>2022-02-04T18:45:35Z</time>
      </trkpt>
      <trkpt lat="43.29735" lon="6.53981">
        <ele>335.6</ele>
        <time>2022-02-04T18:45:36Z</time>
      </trkpt>
      <trkpt lat="43.2974" lon="6.53986">
        <ele>334.6</ele>
        <time>2022-02-04T18:45:37Z</time>
      </trkpt>
      <trkpt lat="43.29746" lon="6.53989">
        <ele>333.6</ele>
        <time>2022-02-04T18:45:38Z</time>
      </trkpt>
      <trkpt lat="43.29751" lon="6.5399">
        <ele>332.8</ele>
        <time>2022-02-04T18:45:39Z</time>
      </trkpt>
      <trkpt lat="43.29758" lon="6.5399">
        <ele>332.2</ele>
        <time>2022-02-04T18:45:40Z</time>
      </trkpt>
      <trkpt lat="43.29765" lon="6.5399">
        <ele>331.8</ele>
        <time>2022-02-04T18:45:41Z</time>
      </trkpt>
      <trkpt lat="43.29771" lon="6.53992">
        <ele>331.4</ele>
        <time>2022-02-04T18:45:42Z</time>
      </trkpt>
      <trkpt lat="43.29778" lon="6.53995">
        <ele>331.2</ele>
        <time>2022-02-04T18:45:43Z</time>
      </trkpt>
      <trkpt lat="43.29784" lon="6.54">
        <ele>331</ele>
        <time>2022-02-04T18:45:44Z</time>
      </trkpt>
      <trkpt lat="43.29789" lon="6.54006">
        <ele>330.8</ele>
        <time>2022-02-04T18:45:45Z</time>
      </trkpt>
      <trkpt lat="43.29794" lon="6.54011">
        <ele>330.4</ele>
        <time>2022-02-04T18:45:46Z</time>
      </trkpt>
      <trkpt lat="43.29799" lon="6.54016">
        <ele>328</ele>
        <time>2022-02-04T18:45:47Z</time>
      </trkpt>
      <trkpt lat="43.29803" lon="6.54019">
        <ele>325.8</ele>
        <time>2022-02-04T18:45:48Z</time>
      </trkpt>
      <trkpt lat="43.29808" lon="6.54022">
        <ele>323.8</ele>
        <time>2022-02-04T18:45:49Z</time>
      </trkpt>
      <trkpt lat="43.29813" lon="6.54024">
        <ele>322.2</ele>
        <time>2022-02-04T18:45:50Z</time>
      </trkpt>
      <trkpt lat="43.29818" lon="6.54026">
        <ele>320.4</ele>
        <time>2022-02-04T18:45:51Z</time>
      </trkpt>
      <trkpt lat="43.29823" lon="6.54028">
        <ele>319.6</ele>
        <time>2022-02-04T18:45:52Z</time>
      </trkpt>
      <trkpt lat="43.29827" lon="6.5403">
        <ele>318.4</ele>
        <time>2022-02-04T18:45:53Z</time>
      </trkpt>
      <trkpt lat="43.29832" lon="6.54032">
        <ele>317.8</ele>
        <time>2022-02-04T18:45:54Z</time>
      </trkpt>
      <trkpt lat="43.29837" lon="6.54032">
        <ele>317.2</ele>
        <time>2022-02-04T18:45:55Z</time>
      </trkpt>
      <trkpt lat="43.29842" lon="6.54031">
        <ele>316.8</ele>
        <time>2022-02-04T18:45:56Z</time>
      </trkpt>
      <trkpt lat="43.29847" lon="6.54029">
        <ele>316.2</ele>
        <time>2022-02-04T18:45:57Z</time>
      </trkpt>
      <trkpt lat="43.29852" lon="6.54027">
        <ele>316</ele>
        <time>2022-02-04T18:45:58Z</time>
      </trkpt>
      <trkpt lat="43.29857" lon="6.54024">
        <ele>315.8</ele>
        <time>2022-02-04T18:45:59Z</time>
      </trkpt>
      <trkpt lat="43.29863" lon="6.54022">
        <ele>315.6</ele>
        <time>2022-02-04T18:46:00Z</time>
      </trkpt>
      <trkpt lat="43.29867" lon="6.5402">
        <ele>315.4</ele>
        <time>2022-02-04T18:46:01Z</time>
      </trkpt>
      <trkpt lat="43.29871" lon="6.54018">
        <ele>315.4</ele>
        <time>2022-02-04T18:46:02Z</time>
      </trkpt>
      <trkpt lat="43.29874" lon="6.54016">
        <ele>315.4</ele>
        <time>2022-02-04T18:46:03Z</time>
      </trkpt>
      <trkpt lat="43.29878" lon="6.54014">
        <ele>315.4</ele>
        <time>2022-02-04T18:46:04Z</time>
      </trkpt>
      <trkpt lat="43.29882" lon="6.54013">
        <ele>315.4</ele>
        <time>2022-02-04T18:46:05Z</time>
      </trkpt>
      <trkpt lat="43.29885" lon="6.54012">
        <ele>315.6</ele>
        <time>2022-02-04T18:46:06Z</time>
      </trkpt>
      <trkpt lat="43.29889" lon="6.5401">
        <ele>316</ele>
        <time>2022-02-04T18:46:07Z</time>
      </trkpt>
      <trkpt lat="43.29893" lon="6.5401">
        <ele>316.4</ele>
        <time>2022-02-04T18:46:08Z</time>
      </trkpt>
      <trkpt lat="43.29896" lon="6.54009">
        <ele>316.6</ele>
        <time>2022-02-04T18:46:09Z</time>
      </trkpt>
      <trkpt lat="43.299" lon="6.5401">
        <ele>317.2</ele>
        <time>2022-02-04T18:46:10Z</time>
      </trkpt>
      <trkpt lat="43.29903" lon="6.54012">
        <ele>317.6</ele>
        <time>2022-02-04T18:46:11Z</time>
      </trkpt>
      <trkpt lat="43.29906" lon="6.54014">
        <ele>318.2</ele>
        <time>2022-02-04T18:46:12Z</time>
      </trkpt>
      <trkpt lat="43.29908" lon="6.54017">
        <ele>319</ele>
        <time>2022-02-04T18:46:13Z</time>
      </trkpt>
      <trkpt lat="43.2991" lon="6.5402">
        <ele>319.8</ele>
        <time>2022-02-04T18:46:14Z</time>
      </trkpt>
      <trkpt lat="43.29912" lon="6.54024">
        <ele>320.4</ele>
        <time>2022-02-04T18:46:15Z</time>
      </trkpt>
      <trkpt lat="43.29914" lon="6.54028">
        <ele>320.6</ele>
        <time>2022-02-04T18:46:16Z</time>
      </trkpt>
      <trkpt lat="43.29915" lon="6.54031">
        <ele>321.2</ele>
        <time>2022-02-04T18:46:17Z</time>
      </trkpt>
      <trkpt lat="43.29916" lon="6.54034">
        <ele>321.8</ele>
        <time>2022-02-04T18:46:18Z</time>
      </trkpt>
      <trkpt lat="43.29918" lon="6.54037">
        <ele>322.6</ele>
        <time>2022-02-04T18:46:19Z</time>
      </trkpt>
      <trkpt lat="43.2992" lon="6.5404">
        <ele>323</ele>
        <time>2022-02-04T18:46:20Z</time>
      </trkpt>
      <trkpt lat="43.29922" lon="6.54043">
        <ele>323.6</ele>
        <time>2022-02-04T18:46:21Z</time>
      </trkpt>
      <trkpt lat="43.29923" lon="6.54046">
        <ele>324.4</ele>
        <time>2022-02-04T18:46:22Z</time>
      </trkpt>
      <trkpt lat="43.29924" lon="6.54048">
        <ele>324.8</ele>
        <time>2022-02-04T18:46:23Z</time>
      </trkpt>
      <trkpt lat="43.29925" lon="6.54051">
        <ele>325.4</ele>
        <time>2022-02-04T18:46:24Z</time>
      </trkpt>
      <trkpt lat="43.29927" lon="6.54053">
        <ele>325.8</ele>
        <time>2022-02-04T18:46:25Z</time>
      </trkpt>
      <trkpt lat="43.29929" lon="6.54055">
        <ele>326</ele>
        <time>2022-02-04T18:46:26Z</time>
      </trkpt>
      <trkpt lat="43.29931" lon="6.54058">
        <ele>326</ele>
        <time>2022-02-04T18:46:27Z</time>
      </trkpt>
      <trkpt lat="43.29934" lon="6.54059">
        <ele>326.2</ele>
        <time>2022-02-04T18:46:28Z</time>
      </trkpt>
      <trkpt lat="43.29937" lon="6.54061">
        <ele>326.6</ele>
        <time>2022-02-04T18:46:29Z</time>
      </trkpt>
      <trkpt lat="43.2994" lon="6.54062">
        <ele>327</ele>
        <time>2022-02-04T18:46:30Z</time>
      </trkpt>
      <trkpt lat="43.29944" lon="6.54063">
        <ele>327.2</ele>
        <time>2022-02-04T18:46:31Z</time>
      </trkpt>
      <trkpt lat="43.29946" lon="6.54063">
        <ele>327.4</ele>
        <time>2022-02-04T18:46:32Z</time>
      </trkpt>
      <trkpt lat="43.29949" lon="6.54063">
        <ele>327.6</ele>
        <time>2022-02-04T18:46:33Z</time>
      </trkpt>
      <trkpt lat="43.29952" lon="6.54063">
        <ele>327.8</ele>
        <time>2022-02-04T18:46:34Z</time>
      </trkpt>
      <trkpt lat="43.29955" lon="6.54063">
        <ele>328.2</ele>
        <time>2022-02-04T18:46:35Z</time>
      </trkpt>
      <trkpt lat="43.29957" lon="6.54062">
        <ele>328.6</ele>
        <time>2022-02-04T18:46:36Z</time>
      </trkpt>
      <trkpt lat="43.2996" lon="6.5406">
        <ele>329.2</ele>
        <time>2022-02-04T18:46:37Z</time>
      </trkpt>
      <trkpt lat="43.29962" lon="6.54059">
        <ele>330</ele>
        <time>2022-02-04T18:46:38Z</time>
      </trkpt>
      <trkpt lat="43.29965" lon="6.54058">
        <ele>330.4</ele>
        <time>2022-02-04T18:46:39Z</time>
      </trkpt>
      <trkpt lat="43.29968" lon="6.54056">
        <ele>330.8</ele>
        <time>2022-02-04T18:46:40Z</time>
      </trkpt>
      <trkpt lat="43.29972" lon="6.54054">
        <ele>331.2</ele>
        <time>2022-02-04T18:46:41Z</time>
      </trkpt>
      <trkpt lat="43.29975" lon="6.54052">
        <ele>331.4</ele>
        <time>2022-02-04T18:46:42Z</time>
      </trkpt>
      <trkpt lat="43.29977" lon="6.54051">
        <ele>332</ele>
        <time>2022-02-04T18:46:43Z</time>
      </trkpt>
      <trkpt lat="43.2998" lon="6.5405">
        <ele>332.4</ele>
        <time>2022-02-04T18:46:44Z</time>
      </trkpt>
      <trkpt lat="43.29984" lon="6.54051">
        <ele>332.8</ele>
        <time>2022-02-04T18:46:45Z</time>
      </trkpt>
      <trkpt lat="43.29986" lon="6.5405">
        <ele>333.4</ele>
        <time>2022-02-04T18:46:46Z</time>
      </trkpt>
      <trkpt lat="43.29989" lon="6.5405">
        <ele>334</ele>
        <time>2022-02-04T18:46:47Z</time>
      </trkpt>
      <trkpt lat="43.29992" lon="6.5405">
        <ele>334.4</ele>
        <time>2022-02-04T18:46:48Z</time>
      </trkpt>
      <trkpt lat="43.29995" lon="6.5405">
        <ele>335</ele>
        <time>2022-02-04T18:46:49Z</time>
      </trkpt>
      <trkpt lat="43.29998" lon="6.54051">
        <ele>335.8</ele>
        <time>2022-02-04T18:46:50Z</time>
      </trkpt>
      <trkpt lat="43.30001" lon="6.54051">
        <ele>336.4</ele>
        <time>2022-02-04T18:46:51Z</time>
      </trkpt>
      <trkpt lat="43.30004" lon="6.54051">
        <ele>337</ele>
        <time>2022-02-04T18:46:52Z</time>
      </trkpt>
      <trkpt lat="43.30007" lon="6.54051">
        <ele>337.6</ele>
        <time>2022-02-04T18:46:53Z</time>
      </trkpt>
      <trkpt lat="43.30009" lon="6.54052">
        <ele>338.6</ele>
        <time>2022-02-04T18:46:54Z</time>
      </trkpt>
      <trkpt lat="43.30012" lon="6.54052">
        <ele>339</ele>
        <time>2022-02-04T18:46:55Z</time>
      </trkpt>
      <trkpt lat="43.30015" lon="6.54052">
        <ele>339.8</ele>
        <time>2022-02-04T18:46:56Z</time>
      </trkpt>
      <trkpt lat="43.30017" lon="6.54052">
        <ele>340.4</ele>
        <time>2022-02-04T18:46:57Z</time>
      </trkpt>
      <trkpt lat="43.3002" lon="6.54053">
        <ele>340.8</ele>
        <time>2022-02-04T18:46:58Z</time>
      </trkpt>
      <trkpt lat="43.30022" lon="6.54053">
        <ele>341.2</ele>
        <time>2022-02-04T18:46:59Z</time>
      </trkpt>
      <trkpt lat="43.30025" lon="6.54053">
        <ele>342</ele>
        <time>2022-02-04T18:47:00Z</time>
      </trkpt>
      <trkpt lat="43.30028" lon="6.54053">
        <ele>342.8</ele>
        <time>2022-02-04T18:47:01Z</time>
      </trkpt>
      <trkpt lat="43.30031" lon="6.54053">
        <ele>343.4</ele>
        <time>2022-02-04T18:47:02Z</time>
      </trkpt>
      <trkpt lat="43.30032" lon="6.54053">
        <ele>344.2</ele>
        <time>2022-02-04T18:47:03Z</time>
      </trkpt>
      <trkpt lat="43.30035" lon="6.54053">
        <ele>344.6</ele>
        <time>2022-02-04T18:47:04Z</time>
      </trkpt>
      <trkpt lat="43.30037" lon="6.54054">
        <ele>345</ele>
        <time>2022-02-04T18:47:05Z</time>
      </trkpt>
      <trkpt lat="43.30039" lon="6.54054">
        <ele>345.2</ele>
        <time>2022-02-04T18:47:06Z</time>
      </trkpt>
      <trkpt lat="43.30042" lon="6.54053">
        <ele>345.6</ele>
        <time>2022-02-04T18:47:07Z</time>
      </trkpt>
      <trkpt lat="43.30044" lon="6.54052">
        <ele>346</ele>
        <time>2022-02-04T18:47:08Z</time>
      </trkpt>
      <trkpt lat="43.30047" lon="6.5405">
        <ele>346</ele>
        <time>2022-02-04T18:47:09Z</time>
      </trkpt>
      <trkpt lat="43.30049" lon="6.54049">
        <ele>346.6</ele>
        <time>2022-02-04T18:47:10Z</time>
      </trkpt>
      <trkpt lat="43.30052" lon="6.54048">
        <ele>347</ele>
        <time>2022-02-04T18:47:11Z</time>
      </trkpt>
      <trkpt lat="43.30054" lon="6.54047">
        <ele>347.2</ele>
        <time>2022-02-04T18:47:12Z</time>
      </trkpt>
      <trkpt lat="43.30056" lon="6.54046">
        <ele>347.8</ele>
        <time>2022-02-04T18:47:13Z</time>
      </trkpt>
      <trkpt lat="43.30059" lon="6.54045">
        <ele>348.2</ele>
        <time>2022-02-04T18:47:14Z</time>
      </trkpt>
      <trkpt lat="43.30061" lon="6.54043">
        <ele>348.8</ele>
        <time>2022-02-04T18:47:15Z</time>
      </trkpt>
      <trkpt lat="43.30063" lon="6.54043">
        <ele>349.2</ele>
        <time>2022-02-04T18:47:16Z</time>
      </trkpt>
      <trkpt lat="43.30066" lon="6.54042">
        <ele>349.8</ele>
        <time>2022-02-04T18:47:17Z</time>
      </trkpt>
      <trkpt lat="43.30068" lon="6.54041">
        <ele>350.2</ele>
        <time>2022-02-04T18:47:18Z</time>
      </trkpt>
      <trkpt lat="43.3007" lon="6.5404">
        <ele>350.6</ele>
        <time>2022-02-04T18:47:19Z</time>
      </trkpt>
      <trkpt lat="43.30073" lon="6.54039">
        <ele>350.8</ele>
        <time>2022-02-04T18:47:20Z</time>
      </trkpt>
      <trkpt lat="43.30076" lon="6.54037">
        <ele>351</ele>
        <time>2022-02-04T18:47:21Z</time>
      </trkpt>
      <trkpt lat="43.30077" lon="6.54035">
        <ele>351.4</ele>
        <time>2022-02-04T18:47:22Z</time>
      </trkpt>
      <trkpt lat="43.3008" lon="6.54033">
        <ele>351.8</ele>
        <time>2022-02-04T18:47:23Z</time>
      </trkpt>
      <trkpt lat="43.30082" lon="6.54031">
        <ele>352.2</ele>
        <time>2022-02-04T18:47:24Z</time>
      </trkpt>
      <trkpt lat="43.30084" lon="6.54028">
        <ele>352.4</ele>
        <time>2022-02-04T18:47:25Z</time>
      </trkpt>
      <trkpt lat="43.30086" lon="6.54025">
        <ele>352.6</ele>
        <time>2022-02-04T18:47:26Z</time>
      </trkpt>
      <trkpt lat="43.30087" lon="6.54022">
        <ele>353</ele>
        <time>2022-02-04T18:47:27Z</time>
      </trkpt>
      <trkpt lat="43.30088" lon="6.5402">
        <ele>353.4</ele>
        <time>2022-02-04T18:47:28Z</time>
      </trkpt>
      <trkpt lat="43.30088" lon="6.54018">
        <ele>353.6</ele>
        <time>2022-02-04T18:47:29Z</time>
      </trkpt>
      <trkpt lat="43.30089" lon="6.54014">
        <ele>353.8</ele>
        <time>2022-02-04T18:47:30Z</time>
      </trkpt>
      <trkpt lat="43.3009" lon="6.5401">
        <ele>354</ele>
        <time>2022-02-04T18:47:31Z</time>
      </trkpt>
      <trkpt lat="43.30091" lon="6.54006">
        <ele>354.2</ele>
        <time>2022-02-04T18:47:32Z</time>
      </trkpt>
      <trkpt lat="43.30092" lon="6.54002">
        <ele>354.4</ele>
        <time>2022-02-04T18:47:33Z</time>
      </trkpt>
      <trkpt lat="43.30093" lon="6.53999">
        <ele>353.8</ele>
        <time>2022-02-04T18:47:34Z</time>
      </trkpt>
      <trkpt lat="43.30094" lon="6.53995">
        <ele>353.8</ele>
        <time>2022-02-04T18:47:35Z</time>
      </trkpt>
      <trkpt lat="43.30095" lon="6.53992">
        <ele>353.8</ele>
        <time>2022-02-04T18:47:36Z</time>
      </trkpt>
      <trkpt lat="43.30097" lon="6.53989">
        <ele>354</ele>
        <time>2022-02-04T18:47:37Z</time>
      </trkpt>
      <trkpt lat="43.30098" lon="6.53987">
        <ele>354.4</ele>
        <time>2022-02-04T18:47:38Z</time>
      </trkpt>
      <trkpt lat="43.30099" lon="6.53985">
        <ele>354.8</ele>
        <time>2022-02-04T18:47:39Z</time>
      </trkpt>
      <trkpt lat="43.30102" lon="6.53982">
        <ele>355</ele>
        <time>2022-02-04T18:47:40Z</time>
      </trkpt>
      <trkpt lat="43.30104" lon="6.53979">
        <ele>355.2</ele>
        <time>2022-02-04T18:47:41Z</time>
      </trkpt>
      <trkpt lat="43.30107" lon="6.53976">
        <ele>355.2</ele>
        <time>2022-02-04T18:47:42Z</time>
      </trkpt>
      <trkpt lat="43.30109" lon="6.53972">
        <ele>355.2</ele>
        <time>2022-02-04T18:47:43Z</time>
      </trkpt>
      <trkpt lat="43.30112" lon="6.53968">
        <ele>355</ele>
        <time>2022-02-04T18:47:44Z</time>
      </trkpt>
      <trkpt lat="43.30115" lon="6.53964">
        <ele>354.6</ele>
        <time>2022-02-04T18:47:45Z</time>
      </trkpt>
      <trkpt lat="43.30117" lon="6.53959">
        <ele>353.8</ele>
        <time>2022-02-04T18:47:46Z</time>
      </trkpt>
      <trkpt lat="43.30119" lon="6.53956">
        <ele>353.4</ele>
        <time>2022-02-04T18:47:47Z</time>
      </trkpt>
      <trkpt lat="43.30121" lon="6.53952">
        <ele>353</ele>
        <time>2022-02-04T18:47:48Z</time>
      </trkpt>
      <trkpt lat="43.30122" lon="6.53949">
        <ele>352.8</ele>
        <time>2022-02-04T18:47:49Z</time>
      </trkpt>
      <trkpt lat="43.30123" lon="6.53946">
        <ele>352.6</ele>
        <time>2022-02-04T18:47:50Z</time>
      </trkpt>
      <trkpt lat="43.30124" lon="6.53943">
        <ele>352.4</ele>
        <time>2022-02-04T18:47:51Z</time>
      </trkpt>
      <trkpt lat="43.30126" lon="6.53939">
        <ele>352.4</ele>
        <time>2022-02-04T18:47:52Z</time>
      </trkpt>
      <trkpt lat="43.30127" lon="6.53936">
        <ele>352.2</ele>
        <time>2022-02-04T18:47:53Z</time>
      </trkpt>
      <trkpt lat="43.30128" lon="6.53935">
        <ele>352.2</ele>
        <time>2022-02-04T18:47:54Z</time>
      </trkpt>
      <trkpt lat="43.3013" lon="6.53934">
        <ele>352.2</ele>
        <time>2022-02-04T18:47:55Z</time>
      </trkpt>
      <trkpt lat="43.30131" lon="6.53933">
        <ele>352.2</ele>
        <time>2022-02-04T18:47:56Z</time>
      </trkpt>
      <trkpt lat="43.30132" lon="6.53931">
        <ele>352</ele>
        <time>2022-02-04T18:47:57Z</time>
      </trkpt>
      <trkpt lat="43.30132" lon="6.53931">
        <ele>352</ele>
        <time>2022-02-04T18:47:58Z</time>
      </trkpt>
      <trkpt lat="43.30132" lon="6.53931">
        <ele>352</ele>
        <time>2022-02-04T18:47:59Z</time>
      </trkpt>
      <trkpt lat="43.30131" lon="6.53931">
        <ele>351.8</ele>
        <time>2022-02-04T18:48:00Z</time>
      </trkpt>
      <trkpt lat="43.3013" lon="6.53933">
        <ele>351.8</ele>
        <time>2022-02-04T18:48:01Z</time>
      </trkpt>
      <trkpt lat="43.30128" lon="6.53935">
        <ele>351.8</ele>
        <time>2022-02-04T18:48:02Z</time>
      </trkpt>
      <trkpt lat="43.30127" lon="6.53937">
        <ele>352</ele>
        <time>2022-02-04T18:48:03Z</time>
      </trkpt>
      <trkpt lat="43.30126" lon="6.5394">
        <ele>352</ele>
        <time>2022-02-04T18:48:04Z</time>
      </trkpt>
      <trkpt lat="43.30125" lon="6.53943">
        <ele>352.2</ele>
        <time>2022-02-04T18:48:05Z</time>
      </trkpt>
      <trkpt lat="43.30123" lon="6.53947">
        <ele>352.2</ele>
        <time>2022-02-04T18:48:06Z</time>
      </trkpt>
      <trkpt lat="43.30122" lon="6.5395">
        <ele>352.2</ele>
        <time>2022-02-04T18:48:07Z</time>
      </trkpt>
      <trkpt lat="43.3012" lon="6.53953">
        <ele>352.4</ele>
        <time>2022-02-04T18:48:08Z</time>
      </trkpt>
      <trkpt lat="43.30118" lon="6.53957">
        <ele>352.4</ele>
        <time>2022-02-04T18:48:09Z</time>
      </trkpt>
      <trkpt lat="43.30116" lon="6.53962">
        <ele>352.6</ele>
        <time>2022-02-04T18:48:10Z</time>
      </trkpt>
      <trkpt lat="43.30114" lon="6.53965">
        <ele>352.6</ele>
        <time>2022-02-04T18:48:11Z</time>
      </trkpt>
      <trkpt lat="43.30111" lon="6.53969">
        <ele>352.8</ele>
        <time>2022-02-04T18:48:12Z</time>
      </trkpt>
      <trkpt lat="43.30109" lon="6.53972">
        <ele>353</ele>
        <time>2022-02-04T18:48:13Z</time>
      </trkpt>
      <trkpt lat="43.30106" lon="6.53976">
        <ele>353.2</ele>
        <time>2022-02-04T18:48:14Z</time>
      </trkpt>
      <trkpt lat="43.30103" lon="6.5398">
        <ele>353.6</ele>
        <time>2022-02-04T18:48:15Z</time>
      </trkpt>
      <trkpt lat="43.30101" lon="6.53982">
        <ele>354</ele>
        <time>2022-02-04T18:48:16Z</time>
      </trkpt>
      <trkpt lat="43.30098" lon="6.53986">
        <ele>354.4</ele>
        <time>2022-02-04T18:48:17Z</time>
      </trkpt>
      <trkpt lat="43.30097" lon="6.53988">
        <ele>354.8</ele>
        <time>2022-02-04T18:48:18Z</time>
      </trkpt>
      <trkpt lat="43.30096" lon="6.5399">
        <ele>355</ele>
        <time>2022-02-04T18:48:19Z</time>
      </trkpt>
      <trkpt lat="43.30094" lon="6.53993">
        <ele>355</ele>
        <time>2022-02-04T18:48:20Z</time>
      </trkpt>
      <trkpt lat="43.30094" lon="6.53995">
        <ele>355.2</ele>
        <time>2022-02-04T18:48:21Z</time>
      </trkpt>
      <trkpt lat="43.30093" lon="6.53997">
        <ele>355</ele>
        <time>2022-02-04T18:48:22Z</time>
      </trkpt>
      <trkpt lat="43.30093" lon="6.53997">
        <ele>355</ele>
        <time>2022-02-04T18:48:23Z</time>
      </trkpt>
      <trkpt lat="43.30093" lon="6.53997">
        <ele>354.8</ele>
        <time>2022-02-04T18:48:24Z</time>
      </trkpt>
      <trkpt lat="43.30093" lon="6.53997">
        <ele>354.6</ele>
        <time>2022-02-04T18:48:25Z</time>
      </trkpt>
      <trkpt lat="43.30093" lon="6.53997">
        <ele>354.6</ele>
        <time>2022-02-04T18:48:26Z</time>
      </trkpt>
      <trkpt lat="43.30093" lon="6.53997">
        <ele>354.6</ele>
        <time>2022-02-04T18:48:27Z</time>
      </trkpt>
      <trkpt lat="43.30093" lon="6.53997">
        <ele>354.4</ele>
        <time>2022-02-04T18:48:28Z</time>
      </trkpt>
      <trkpt lat="43.30093" lon="6.53997">
        <ele>354.4</ele>
        <time>2022-02-04T18:48:29Z</time>
      </trkpt>
      <trkpt lat="43.30093" lon="6.53997">
        <ele>354.2</ele>
        <time>2022-02-04T18:48:30Z</time>
      </trkpt>
      <trkpt lat="43.30093" lon="6.53997">
        <ele>354.2</ele>
        <time>2022-02-04T18:48:31Z</time>
      </trkpt>
      <trkpt lat="43.30093" lon="6.53997">
        <ele>354.2</ele>
        <time>2022-02-04T18:48:32Z</time>
      </trkpt>
      <trkpt lat="43.30093" lon="6.53997">
        <ele>354</ele>
        <time>2022-02-04T18:48:33Z</time>
      </trkpt>
      <trkpt lat="43.30093" lon="6.53997">
        <ele>354</ele>
        <time>2022-02-04T18:48:34Z</time>
      </trkpt>
      <trkpt lat="43.30093" lon="6.53997">
        <ele>354</ele>
        <time>2022-02-04T18:48:35Z</time>
      </trkpt>
      <trkpt lat="43.30093" lon="6.53997">
        <ele>354</ele>
        <time>2022-02-04T18:48:36Z</time>
      </trkpt>
      <trkpt lat="43.30093" lon="6.53997">
        <ele>354</ele>
        <time>2022-02-04T18:48:37Z</time>
      </trkpt>
      <trkpt lat="43.30093" lon="6.53997">
        <ele>354</ele>
        <time>2022-02-04T18:48:38Z</time>
      </trkpt>
      <trkpt lat="43.30093" lon="6.53997">
        <ele>354</ele>
        <time>2022-02-04T18:48:39Z</time>
      </trkpt>
      <trkpt lat="43.30093" lon="6.53997">
        <ele>354</ele>
        <time>2022-02-04T18:48:40Z</time>
      </trkpt>
      <trkpt lat="43.30093" lon="6.53997">
        <ele>354</ele>
        <time>2022-02-04T18:48:41Z</time>
      </trkpt>
      <trkpt lat="43.30093" lon="6.53997">
        <ele>354</ele>
        <time>2022-02-04T18:48:42Z</time>
      </trkpt>
      <trkpt lat="43.30093" lon="6.53997">
        <ele>354</ele>
        <time>2022-02-04T18:48:43Z</time>
      </trkpt>
      <trkpt lat="43.30093" lon="6.53997">
        <ele>354</ele>
        <time>2022-02-04T18:48:44Z</time>
      </trkpt>
      <trkpt lat="43.30093" lon="6.53997">
        <ele>353.8</ele>
        <time>2022-02-04T18:48:45Z</time>
      </trkpt>
      <trkpt lat="43.30093" lon="6.53997">
        <ele>353.8</ele>
        <time>2022-02-04T18:48:46Z</time>
      </trkpt>
      <trkpt lat="43.30093" lon="6.53997">
        <ele>353.8</ele>
        <time>2022-02-04T18:48:47Z</time>
      </trkpt>
      <trkpt lat="43.30093" lon="6.53997">
        <ele>353.8</ele>
        <time>2022-02-04T18:48:48Z</time>
      </trkpt>
      <trkpt lat="43.30093" lon="6.53997">
        <ele>353.8</ele>
        <time>2022-02-04T18:48:49Z</time>
      </trkpt>
      <trkpt lat="43.30093" lon="6.53997">
        <ele>353.8</ele>
        <time>2022-02-04T18:48:50Z</time>
      </trkpt>
      <trkpt lat="43.30093" lon="6.53997">
        <ele>353.6</ele>
        <time>2022-02-04T18:48:51Z</time>
      </trkpt>
      <trkpt lat="43.30093" lon="6.53997">
        <ele>353.6</ele>
        <time>2022-02-04T18:48:52Z</time>
      </trkpt>
      <trkpt lat="43.30093" lon="6.53997">
        <ele>353.6</ele>
        <time>2022-02-04T18:48:53Z</time>
      </trkpt>
      <trkpt lat="43.30093" lon="6.53997">
        <ele>353.6</ele>
        <time>2022-02-04T18:48:54Z</time>
      </trkpt>
      <trkpt lat="43.30093" lon="6.53997">
        <ele>353.8</ele>
        <time>2022-02-04T18:48:55Z</time>
      </trkpt>
      <trkpt lat="43.30093" lon="6.53997">
        <ele>353.8</ele>
        <time>2022-02-04T18:48:56Z</time>
      </trkpt>
      <trkpt lat="43.30093" lon="6.53997">
        <ele>353.8</ele>
        <time>2022-02-04T18:48:57Z</time>
      </trkpt>
      <trkpt lat="43.30093" lon="6.53997">
        <ele>353.8</ele>
        <time>2022-02-04T18:48:58Z</time>
      </trkpt>
      <trkpt lat="43.30093" lon="6.53997">
        <ele>353.8</ele>
        <time>2022-02-04T18:48:59Z</time>
      </trkpt>
      <trkpt lat="43.30093" lon="6.53997">
        <ele>353.8</ele>
        <time>2022-02-04T18:49:00Z</time>
      </trkpt>
      <trkpt lat="43.30093" lon="6.53997">
        <ele>353.8</ele>
        <time>2022-02-04T18:49:01Z</time>
      </trkpt>
      <trkpt lat="43.30093" lon="6.53997">
        <ele>353.8</ele>
        <time>2022-02-04T18:49:02Z</time>
      </trkpt>
      <trkpt lat="43.30093" lon="6.53997">
        <ele>353.8</ele>
        <time>2022-02-04T18:49:03Z</time>
      </trkpt>
      <trkpt lat="43.30093" lon="6.53997">
        <ele>353.8</ele>
        <time>2022-02-04T18:49:04Z</time>
      </trkpt>
      <trkpt lat="43.30093" lon="6.53997">
        <ele>353.8</ele>
        <time>2022-02-04T18:49:05Z</time>
      </trkpt>
      <trkpt lat="43.30093" lon="6.53997">
        <ele>353.8</ele>
        <time>2022-02-04T18:49:06Z</time>
      </trkpt>
      <trkpt lat="43.30093" lon="6.53997">
        <ele>353.8</ele>
        <time>2022-02-04T18:49:07Z</time>
      </trkpt>
      <trkpt lat="43.30093" lon="6.53997">
        <ele>353.8</ele>
        <time>2022-02-04T18:49:08Z</time>
      </trkpt>
      <trkpt lat="43.30093" lon="6.53997">
        <ele>353.6</ele>
        <time>2022-02-04T18:49:09Z</time>
      </trkpt>
      <trkpt lat="43.30093" lon="6.53997">
        <ele>353.6</ele>
        <time>2022-02-04T18:49:10Z</time>
      </trkpt>
      <trkpt lat="43.30093" lon="6.53997">
        <ele>353.6</ele>
        <time>2022-02-04T18:49:11Z</time>
      </trkpt>
      <trkpt lat="43.30093" lon="6.53997">
        <ele>353.6</ele>
        <time>2022-02-04T18:49:12Z</time>
      </trkpt>
      <trkpt lat="43.30093" lon="6.53997">
        <ele>353.6</ele>
        <time>2022-02-04T18:49:13Z</time>
      </trkpt>
      <trkpt lat="43.30093" lon="6.53997">
        <ele>353.6</ele>
        <time>2022-02-04T18:49:14Z</time>
      </trkpt>
      <trkpt lat="43.30093" lon="6.53997">
        <ele>353.6</ele>
        <time>2022-02-04T18:49:15Z</time>
      </trkpt>
      <trkpt lat="43.30093" lon="6.53997">
        <ele>353.6</ele>
        <time>2022-02-04T18:49:16Z</time>
      </trkpt>
      <trkpt lat="43.30093" lon="6.53997">
        <ele>353.8</ele>
        <time>2022-02-04T18:49:17Z</time>
      </trkpt>
      <trkpt lat="43.30093" lon="6.53997">
        <ele>353.6</ele>
        <time>2022-02-04T18:49:18Z</time>
      </trkpt>
      <trkpt lat="43.30093" lon="6.53997">
        <ele>353.6</ele>
        <time>2022-02-04T18:49:19Z</time>
      </trkpt>
      <trkpt lat="43.30093" lon="6.53997">
        <ele>353.6</ele>
        <time>2022-02-04T18:49:20Z</time>
      </trkpt>
      <trkpt lat="43.30093" lon="6.53997">
        <ele>353.6</ele>
        <time>2022-02-04T18:49:21Z</time>
      </trkpt>
      <trkpt lat="43.30093" lon="6.53997">
        <ele>353.6</ele>
        <time>2022-02-04T18:49:22Z</time>
      </trkpt>
      <trkpt lat="43.30093" lon="6.53997">
        <ele>353.6</ele>
        <time>2022-02-04T18:49:23Z</time>
      </trkpt>
      <trkpt lat="43.30093" lon="6.53997">
        <ele>353.4</ele>
        <time>2022-02-04T18:49:24Z</time>
      </trkpt>
      <trkpt lat="43.30093" lon="6.53997">
        <ele>353.4</ele>
        <time>2022-02-04T18:49:25Z</time>
      </trkpt>
      <trkpt lat="43.30093" lon="6.53997">
        <ele>353.4</ele>
        <time>2022-02-04T18:49:26Z</time>
      </trkpt>
      <trkpt lat="43.30093" lon="6.53997">
        <ele>353.4</ele>
        <time>2022-02-04T18:49:27Z</time>
      </trkpt>
      <trkpt lat="43.30093" lon="6.53997">
        <ele>353.4</ele>
        <time>2022-02-04T18:49:28Z</time>
      </trkpt>
      <trkpt lat="43.30093" lon="6.53997">
        <ele>353.4</ele>
        <time>2022-02-04T18:49:29Z</time>
      </trkpt>
      <trkpt lat="43.30093" lon="6.53997">
        <ele>353.4</ele>
        <time>2022-02-04T18:49:30Z</time>
      </trkpt>
      <trkpt lat="43.30093" lon="6.53997">
        <ele>353.4</ele>
        <time>2022-02-04T18:49:31Z</time>
      </trkpt>
      <trkpt lat="43.30093" lon="6.53997">
        <ele>353.4</ele>
        <time>2022-02-04T18:49:32Z</time>
      </trkpt>
      <trkpt lat="43.30093" lon="6.53997">
        <ele>353.4</ele>
        <time>2022-02-04T18:49:33Z</time>
      </trkpt>
      <trkpt lat="43.30093" lon="6.53997">
        <ele>353.4</ele>
        <time>2022-02-04T18:49:34Z</time>
      </trkpt>
      <trkpt lat="43.30093" lon="6.53997">
        <ele>353.4</ele>
        <time>2022-02-04T18:49:35Z</time>
      </trkpt>
      <trkpt lat="43.30093" lon="6.53997">
        <ele>353.2</ele>
        <time>2022-02-04T18:49:36Z</time>
      </trkpt>
      <trkpt lat="43.30093" lon="6.53997">
        <ele>353.2</ele>
        <time>2022-02-04T18:49:37Z</time>
      </trkpt>
      <trkpt lat="43.30093" lon="6.53997">
        <ele>353.2</ele>
        <time>2022-02-04T18:49:38Z</time>
      </trkpt>
      <trkpt lat="43.30093" lon="6.53997">
        <ele>353.2</ele>
        <time>2022-02-04T18:49:39Z</time>
      </trkpt>
      <trkpt lat="43.30093" lon="6.53997">
        <ele>353.2</ele>
        <time>2022-02-04T18:49:40Z</time>
      </trkpt>
      <trkpt lat="43.30093" lon="6.53997">
        <ele>353.2</ele>
        <time>2022-02-04T18:49:41Z</time>
      </trkpt>
      <trkpt lat="43.30093" lon="6.53997">
        <ele>353.2</ele>
        <time>2022-02-04T18:49:42Z</time>
      </trkpt>
      <trkpt lat="43.30093" lon="6.53997">
        <ele>353.2</ele>
        <time>2022-02-04T18:49:43Z</time>
      </trkpt>
      <trkpt lat="43.30093" lon="6.53997">
        <ele>353.2</ele>
        <time>2022-02-04T18:49:44Z</time>
      </trkpt>
      <trkpt lat="43.30093" lon="6.53997">
        <ele>353.2</ele>
        <time>2022-02-04T18:49:45Z</time>
      </trkpt>
      <trkpt lat="43.30093" lon="6.53997">
        <ele>353.2</ele>
        <time>2022-02-04T18:49:46Z</time>
      </trkpt>
      <trkpt lat="43.30093" lon="6.53997">
        <ele>353.2</ele>
        <time>2022-02-04T18:49:47Z</time>
      </trkpt>
      <trkpt lat="43.30093" lon="6.53997">
        <ele>353.2</ele>
        <time>2022-02-04T18:49:48Z</time>
      </trkpt>
      <trkpt lat="43.30093" lon="6.53997">
        <ele>353.2</ele>
        <time>2022-02-04T18:49:49Z</time>
      </trkpt>
      <trkpt lat="43.30093" lon="6.53997">
        <ele>353.2</ele>
        <time>2022-02-04T18:49:50Z</time>
      </trkpt>
      <trkpt lat="43.30093" lon="6.53997">
        <ele>353.2</ele>
        <time>2022-02-04T18:49:51Z</time>
      </trkpt>
      <trkpt lat="43.30093" lon="6.53997">
        <ele>353.2</ele>
        <time>2022-02-04T18:49:52Z</time>
      </trkpt>
      <trkpt lat="43.30093" lon="6.53997">
        <ele>353</ele>
        <time>2022-02-04T18:49:53Z</time>
      </trkpt>
      <trkpt lat="43.30093" lon="6.53997">
        <ele>353</ele>
        <time>2022-02-04T18:49:54Z</time>
      </trkpt>
      <trkpt lat="43.30093" lon="6.53997">
        <ele>353</ele>
        <time>2022-02-04T18:49:55Z</time>
      </trkpt>
      <trkpt lat="43.30093" lon="6.53997">
        <ele>353</ele>
        <time>2022-02-04T18:49:56Z</time>
      </trkpt>
      <trkpt lat="43.30093" lon="6.53997">
        <ele>353</ele>
        <time>2022-02-04T18:49:57Z</time>
      </trkpt>
      <trkpt lat="43.30093" lon="6.53997">
        <ele>353</ele>
        <time>2022-02-04T18:49:58Z</time>
      </trkpt>
      <trkpt lat="43.30093" lon="6.53997">
        <ele>353</ele>
        <time>2022-02-04T18:49:59Z</time>
      </trkpt>
      <trkpt lat="43.30093" lon="6.53997">
        <ele>353.2</ele>
        <time>2022-02-04T18:50:00Z</time>
      </trkpt>
      <trkpt lat="43.30093" lon="6.53997">
        <ele>353.2</ele>
        <time>2022-02-04T18:50:01Z</time>
      </trkpt>
      <trkpt lat="43.30093" lon="6.53997">
        <ele>353.6</ele>
        <time>2022-02-04T18:50:02Z</time>
      </trkpt>
      <trkpt lat="43.30093" lon="6.53997">
        <ele>353.6</ele>
        <time>2022-02-04T18:50:03Z</time>
      </trkpt>
      <trkpt lat="43.30093" lon="6.53997">
        <ele>353.6</ele>
        <time>2022-02-04T18:50:04Z</time>
      </trkpt>
      <trkpt lat="43.30093" lon="6.53997">
        <ele>353.6</ele>
        <time>2022-02-04T18:50:05Z</time>
      </trkpt>
      <trkpt lat="43.30093" lon="6.53997">
        <ele>353.6</ele>
        <time>2022-02-04T18:50:06Z</time>
      </trkpt>
      <trkpt lat="43.30093" lon="6.53997">
        <ele>353.6</ele>
        <time>2022-02-04T18:50:07Z</time>
      </trkpt>
      <trkpt lat="43.30093" lon="6.53997">
        <ele>353.6</ele>
        <time>2022-02-04T18:50:08Z</time>
      </trkpt>
      <trkpt lat="43.30093" lon="6.53997">
        <ele>353.6</ele>
        <time>2022-02-04T18:50:09Z</time>
      </trkpt>
      <trkpt lat="43.30093" lon="6.53997">
        <ele>353.6</ele>
        <time>2022-02-04T18:50:10Z</time>
      </trkpt>
      <trkpt lat="43.30093" lon="6.53997">
        <ele>353.6</ele>
        <time>2022-02-04T18:50:11Z</time>
      </trkpt>
      <trkpt lat="43.30093" lon="6.53997">
        <ele>353.6</ele>
        <time>2022-02-04T18:50:12Z</time>
      </trkpt>
      <trkpt lat="43.30093" lon="6.53997">
        <ele>353.6</ele>
        <time>2022-02-04T18:50:13Z</time>
      </trkpt>
      <trkpt lat="43.30093" lon="6.53997">
        <ele>353.6</ele>
        <time>2022-02-04T18:50:14Z</time>
      </trkpt>
      <trkpt lat="43.30093" lon="6.53997">
        <ele>353.6</ele>
        <time>2022-02-04T18:50:15Z</time>
      </trkpt>
      <trkpt lat="43.30093" lon="6.53997">
        <ele>353.6</ele>
        <time>2022-02-04T18:50:16Z</time>
      </trkpt>
      <trkpt lat="43.30093" lon="6.53997">
        <ele>353.6</ele>
        <time>2022-02-04T18:50:17Z</time>
      </trkpt>
      <trkpt lat="43.30093" lon="6.53997">
        <ele>353.6</ele>
        <time>2022-02-04T18:50:18Z</time>
      </trkpt>
      <trkpt lat="43.30093" lon="6.53997">
        <ele>353.6</ele>
        <time>2022-02-04T18:50:19Z</time>
      </trkpt>
      <trkpt lat="43.30093" lon="6.53997">
        <ele>353.6</ele>
        <time>2022-02-04T18:50:20Z</time>
      </trkpt>
      <trkpt lat="43.30093" lon="6.53997">
        <ele>353.6</ele>
        <time>2022-02-04T18:50:21Z</time>
      </trkpt>
      <trkpt lat="43.30093" lon="6.53997">
        <ele>353.6</ele>
        <time>2022-02-04T18:50:22Z</time>
      </trkpt>
      <trkpt lat="43.30093" lon="6.53997">
        <ele>353.6</ele>
        <time>2022-02-04T18:50:23Z</time>
      </trkpt>
      <trkpt lat="43.30093" lon="6.53997">
        <ele>353.6</ele>
        <time>2022-02-04T18:50:24Z</time>
      </trkpt>
      <trkpt lat="43.30093" lon="6.53997">
        <ele>353.6</ele>
        <time>2022-02-04T18:50:25Z</time>
      </trkpt>
      <trkpt lat="43.30093" lon="6.53997">
        <ele>353.6</ele>
        <time>2022-02-04T18:50:26Z</time>
      </trkpt>
      <trkpt lat="43.30093" lon="6.53997">
        <ele>353.6</ele>
        <time>2022-02-04T18:50:27Z</time>
      </trkpt>
      <trkpt lat="43.30093" lon="6.53997">
        <ele>353.6</ele>
        <time>2022-02-04T18:50:28Z</time>
      </trkpt>
      <trkpt lat="43.30093" lon="6.53997">
        <ele>353.6</ele>
        <time>2022-02-04T18:50:29Z</time>
      </trkpt>
      <trkpt lat="43.30093" lon="6.53997">
        <ele>353.6</ele>
        <time>2022-02-04T18:50:30Z</time>
      </trkpt>
      <trkpt lat="43.30093" lon="6.53997">
        <ele>353.6</ele>
        <time>2022-02-04T18:50:31Z</time>
      </trkpt>
      <trkpt lat="43.30093" lon="6.53997">
        <ele>353.6</ele>
        <time>2022-02-04T18:50:32Z</time>
      </trkpt>
      <trkpt lat="43.30093" lon="6.53997">
        <ele>353.6</ele>
        <time>2022-02-04T18:50:33Z</time>
      </trkpt>
      <trkpt lat="43.30093" lon="6.53997">
        <ele>353.6</ele>
        <time>2022-02-04T18:50:34Z</time>
      </trkpt>
      <trkpt lat="43.30093" lon="6.53997">
        <ele>353.6</ele>
        <time>2022-02-04T18:50:35Z</time>
      </trkpt>
      <trkpt lat="43.30093" lon="6.53997">
        <ele>353.6</ele>
        <time>2022-02-04T18:50:36Z</time>
      </trkpt>
      <trkpt lat="43.30093" lon="6.53997">
        <ele>353.6</ele>
        <time>2022-02-04T18:50:37Z</time>
      </trkpt>
      <trkpt lat="43.30093" lon="6.53997">
        <ele>353.6</ele>
        <time>2022-02-04T18:50:38Z</time>
      </trkpt>
      <trkpt lat="43.30093" lon="6.53997">
        <ele>353.6</ele>
        <time>2022-02-04T18:50:39Z</time>
      </trkpt>
      <trkpt lat="43.30093" lon="6.53997">
        <ele>353.6</ele>
        <time>2022-02-04T18:50:40Z</time>
      </trkpt>
      <trkpt lat="43.30093" lon="6.53997">
        <ele>353.6</ele>
        <time>2022-02-04T18:50:41Z</time>
      </trkpt>
      <trkpt lat="43.30093" lon="6.53997">
        <ele>353.6</ele>
        <time>2022-02-04T18:50:42Z</time>
      </trkpt>
      <trkpt lat="43.30093" lon="6.53997">
        <ele>353.6</ele>
        <time>2022-02-04T18:50:43Z</time>
      </trkpt>
      <trkpt lat="43.30093" lon="6.53997">
        <ele>353.6</ele>
        <time>2022-02-04T18:50:44Z</time>
      </trkpt>
      <trkpt lat="43.30093" lon="6.53997">
        <ele>353.6</ele>
        <time>2022-02-04T18:50:45Z</time>
      </trkpt>
      <trkpt lat="43.30093" lon="6.53997">
        <ele>353.6</ele>
        <time>2022-02-04T18:50:46Z</time>
      </trkpt>
      <trkpt lat="43.30093" lon="6.53997">
        <ele>353.6</ele>
        <time>2022-02-04T18:50:47Z</time>
      </trkpt>
      <trkpt lat="43.30093" lon="6.53997">
        <ele>353.6</ele>
        <time>2022-02-04T18:50:48Z</time>
      </trkpt>
      <trkpt lat="43.30093" lon="6.53997">
        <ele>353.6</ele>
        <time>2022-02-04T18:50:49Z</time>
      </trkpt>
      <trkpt lat="43.30093" lon="6.53997">
        <ele>353.6</ele>
        <time>2022-02-04T18:50:50Z</time>
      </trkpt>
      <trkpt lat="43.30093" lon="6.53997">
        <ele>353.6</ele>
        <time>2022-02-04T18:50:51Z</time>
      </trkpt>
      <trkpt lat="43.30093" lon="6.53997">
        <ele>353.6</ele>
        <time>2022-02-04T18:50:52Z</time>
      </trkpt>
      <trkpt lat="43.30093" lon="6.53997">
        <ele>353.6</ele>
        <time>2022-02-04T18:50:53Z</time>
      </trkpt>
      <trkpt lat="43.30093" lon="6.53997">
        <ele>353.6</ele>
        <time>2022-02-04T18:50:54Z</time>
      </trkpt>
      <trkpt lat="43.30093" lon="6.53997">
        <ele>353.6</ele>
        <time>2022-02-04T18:50:55Z</time>
      </trkpt>
      <trkpt lat="43.30093" lon="6.53997">
        <ele>353.6</ele>
        <time>2022-02-04T18:50:56Z</time>
      </trkpt>
      <trkpt lat="43.30093" lon="6.53997">
        <ele>353.6</ele>
        <time>2022-02-04T18:50:57Z</time>
      </trkpt>
      <trkpt lat="43.30093" lon="6.53997">
        <ele>353.6</ele>
        <time>2022-02-04T18:50:58Z</time>
      </trkpt>
      <trkpt lat="43.30093" lon="6.53997">
        <ele>353.6</ele>
        <time>2022-02-04T18:50:59Z</time>
      </trkpt>
      <trkpt lat="43.30093" lon="6.53997">
        <ele>353.6</ele>
        <time>2022-02-04T18:51:00Z</time>
      </trkpt>
      <trkpt lat="43.30093" lon="6.53997">
        <ele>353.6</ele>
        <time>2022-02-04T18:51:01Z</time>
      </trkpt>
      <trkpt lat="43.30093" lon="6.53997">
        <ele>353.6</ele>
        <time>2022-02-04T18:51:02Z</time>
      </trkpt>
      <trkpt lat="43.30093" lon="6.53997">
        <ele>353.6</ele>
        <time>2022-02-04T18:51:03Z</time>
      </trkpt>
      <trkpt lat="43.30093" lon="6.53997">
        <ele>353.6</ele>
        <time>2022-02-04T18:51:04Z</time>
      </trkpt>
      <trkpt lat="43.30093" lon="6.53997">
        <ele>353.6</ele>
        <time>2022-02-04T18:51:05Z</time>
      </trkpt>
      <trkpt lat="43.30093" lon="6.53997">
        <ele>353.6</ele>
        <time>2022-02-04T18:51:06Z</time>
      </trkpt>
      <trkpt lat="43.30093" lon="6.53997">
        <ele>353.6</ele>
        <time>2022-02-04T18:51:07Z</time>
      </trkpt>
      <trkpt lat="43.30093" lon="6.53997">
        <ele>353.6</ele>
        <time>2022-02-04T18:51:08Z</time>
      </trkpt>
      <trkpt lat="43.30093" lon="6.53997">
        <ele>353.6</ele>
        <time>2022-02-04T18:51:09Z</time>
      </trkpt>
      <trkpt lat="43.30093" lon="6.53997">
        <ele>353.6</ele>
        <time>2022-02-04T18:51:10Z</time>
      </trkpt>
      <trkpt lat="43.30093" lon="6.53997">
        <ele>353.6</ele>
        <time>2022-02-04T18:51:11Z</time>
      </trkpt>
      <trkpt lat="43.30093" lon="6.53997">
        <ele>353.6</ele>
        <time>2022-02-04T18:51:12Z</time>
      </trkpt>
      <trkpt lat="43.30093" lon="6.53997">
        <ele>353.6</ele>
        <time>2022-02-04T18:51:13Z</time>
      </trkpt>
      <trkpt lat="43.30093" lon="6.53997">
        <ele>353.6</ele>
        <time>2022-02-04T18:51:14Z</time>
      </trkpt>
      <trkpt lat="43.30093" lon="6.53997">
        <ele>353.6</ele>
        <time>2022-02-04T18:51:15Z</time>
      </trkpt>
      <trkpt lat="43.30093" lon="6.53997">
        <ele>353.6</ele>
        <time>2022-02-04T18:51:16Z</time>
      </trkpt>
      <trkpt lat="43.30093" lon="6.53997">
        <ele>353.6</ele>
        <time>2022-02-04T18:51:17Z</time>
      </trkpt>
      <trkpt lat="43.30093" lon="6.53997">
        <ele>353.6</ele>
        <time>2022-02-04T18:51:18Z</time>
      </trkpt>
      <trkpt lat="43.30093" lon="6.53997">
        <ele>353.6</ele>
        <time>2022-02-04T18:51:19Z</time>
      </trkpt>
      <trkpt lat="43.30093" lon="6.53997">
        <ele>353.6</ele>
        <time>2022-02-04T18:51:20Z</time>
      </trkpt>
      <trkpt lat="43.30093" lon="6.53997">
        <ele>353.6</ele>
        <time>2022-02-04T18:51:21Z</time>
      </trkpt>
      <trkpt lat="43.30093" lon="6.53997">
        <ele>353.6</ele>
        <time>2022-02-04T18:51:22Z</time>
      </trkpt>
      <trkpt lat="43.30093" lon="6.53997">
        <ele>353.6</ele>
        <time>2022-02-04T18:51:23Z</time>
      </trkpt>
      <trkpt lat="43.30093" lon="6.53997">
        <ele>353.6</ele>
        <time>2022-02-04T18:51:24Z</time>
      </trkpt>
      <trkpt lat="43.30093" lon="6.53997">
        <ele>353.6</ele>
        <time>2022-02-04T18:51:25Z</time>
      </trkpt>
      <trkpt lat="43.30093" lon="6.53997">
        <ele>353.6</ele>
        <time>2022-02-04T18:51:26Z</time>
      </trkpt>
      <trkpt lat="43.30093" lon="6.53997">
        <ele>353.6</ele>
        <time>2022-02-04T18:51:27Z</time>
      </trkpt>
      <trkpt lat="43.30093" lon="6.53997">
        <ele>353.6</ele>
        <time>2022-02-04T18:51:28Z</time>
      </trkpt>
      <trkpt lat="43.30093" lon="6.53997">
        <ele>353.6</ele>
        <time>2022-02-04T18:51:29Z</time>
      </trkpt>
      <trkpt lat="43.30093" lon="6.53997">
        <ele>353.6</ele>
        <time>2022-02-04T18:51:30Z</time>
      </trkpt>
      <trkpt lat="43.30093" lon="6.53997">
        <ele>353.6</ele>
        <time>2022-02-04T18:51:31Z</time>
      </trkpt>
      <trkpt lat="43.30093" lon="6.53997">
        <ele>353.6</ele>
        <time>2022-02-04T18:51:32Z</time>
      </trkpt>
      <trkpt lat="43.30093" lon="6.53997">
        <ele>353.6</ele>
        <time>2022-02-04T18:51:33Z</time>
      </trkpt>
      <trkpt lat="43.30093" lon="6.53997">
        <ele>353.6</ele>
        <time>2022-02-04T18:51:34Z</time>
      </trkpt>
      <trkpt lat="43.30093" lon="6.53997">
        <ele>353.6</ele>
        <time>2022-02-04T18:51:35Z</time>
      </trkpt>
      <trkpt lat="43.30093" lon="6.53997">
        <ele>353.6</ele>
        <time>2022-02-04T18:51:36Z</time>
      </trkpt>
      <trkpt lat="43.30093" lon="6.53997">
        <ele>353.6</ele>
        <time>2022-02-04T18:51:37Z</time>
      </trkpt>
      <trkpt lat="43.30093" lon="6.53997">
        <ele>353.6</ele>
        <time>2022-02-04T18:51:38Z</time>
      </trkpt>
      <trkpt lat="43.30093" lon="6.53997">
        <ele>353.6</ele>
        <time>2022-02-04T18:51:39Z</time>
      </trkpt>
      <trkpt lat="43.30093" lon="6.53997">
        <ele>353.6</ele>
        <time>2022-02-04T18:51:40Z</time>
      </trkpt>
      <trkpt lat="43.30093" lon="6.53997">
        <ele>353.6</ele>
        <time>2022-02-04T18:51:41Z</time>
      </trkpt>
      <trkpt lat="43.30093" lon="6.53997">
        <ele>353.6</ele>
        <time>2022-02-04T18:51:42Z</time>
      </trkpt>
      <trkpt lat="43.30093" lon="6.53997">
        <ele>353.6</ele>
        <time>2022-02-04T18:51:43Z</time>
      </trkpt>
      <trkpt lat="43.30093" lon="6.53997">
        <ele>353.6</ele>
        <time>2022-02-04T18:51:44Z</time>
      </trkpt>
      <trkpt lat="43.30093" lon="6.53997">
        <ele>353.6</ele>
        <time>2022-02-04T18:51:45Z</time>
      </trkpt>
      <trkpt lat="43.30093" lon="6.53997">
        <ele>353.6</ele>
        <time>2022-02-04T18:51:46Z</time>
      </trkpt>
      <trkpt lat="43.30093" lon="6.53997">
        <ele>353.6</ele>
        <time>2022-02-04T18:51:47Z</time>
      </trkpt>
      <trkpt lat="43.30093" lon="6.53997">
        <ele>353.6</ele>
        <time>2022-02-04T18:51:48Z</time>
      </trkpt>
      <trkpt lat="43.30093" lon="6.53997">
        <ele>353.6</ele>
        <time>2022-02-04T18:51:49Z</time>
      </trkpt>
      <trkpt lat="43.30093" lon="6.53997">
        <ele>353.6</ele>
        <time>2022-02-04T18:51:50Z</time>
      </trkpt>
      <trkpt lat="43.30093" lon="6.53997">
        <ele>353.6</ele>
        <time>2022-02-04T18:51:51Z</time>
      </trkpt>
      <trkpt lat="43.30093" lon="6.53997">
        <ele>353.6</ele>
        <time>2022-02-04T18:51:52Z</time>
      </trkpt>
      <trkpt lat="43.30093" lon="6.53997">
        <ele>353.6</ele>
        <time>2022-02-04T18:51:53Z</time>
      </trkpt>
      <trkpt lat="43.30093" lon="6.53997">
        <ele>353.6</ele>
        <time>2022-02-04T18:51:54Z</time>
      </trkpt>
      <trkpt lat="43.30093" lon="6.53997">
        <ele>353.6</ele>
        <time>2022-02-04T18:51:55Z</time>
      </trkpt>
      <trkpt lat="43.30093" lon="6.53997">
        <ele>353.6</ele>
        <time>2022-02-04T18:51:56Z</time>
      </trkpt>
      <trkpt lat="43.30093" lon="6.53997">
        <ele>353.6</ele>
        <time>2022-02-04T18:51:57Z</time>
      </trkpt>
      <trkpt lat="43.30093" lon="6.53997">
        <ele>353.6</ele>
        <time>2022-02-04T18:51:58Z</time>
      </trkpt>
      <trkpt lat="43.30093" lon="6.53997">
        <ele>353.6</ele>
        <time>2022-02-04T18:51:59Z</time>
      </trkpt>
      <trkpt lat="43.30093" lon="6.53997">
        <ele>353.6</ele>
        <time>2022-02-04T18:52:00Z</time>
      </trkpt>
      <trkpt lat="43.30093" lon="6.53997">
        <ele>353.6</ele>
        <time>2022-02-04T18:52:01Z</time>
      </trkpt>
      <trkpt lat="43.30093" lon="6.53997">
        <ele>353.6</ele>
        <time>2022-02-04T18:52:02Z</time>
      </trkpt>
      <trkpt lat="43.30093" lon="6.53997">
        <ele>353.6</ele>
        <time>2022-02-04T18:52:03Z</time>
      </trkpt>
      <trkpt lat="43.30093" lon="6.53997">
        <ele>353.6</ele>
        <time>2022-02-04T18:52:04Z</time>
      </trkpt>
      <trkpt lat="43.30093" lon="6.53997">
        <ele>353.6</ele>
        <time>2022-02-04T18:52:05Z</time>
      </trkpt>
      <trkpt lat="43.30093" lon="6.53997">
        <ele>353.6</ele>
        <time>2022-02-04T18:52:06Z</time>
      </trkpt>
      <trkpt lat="43.30093" lon="6.53997">
        <ele>353.6</ele>
        <time>2022-02-04T18:52:07Z</time>
      </trkpt>
      <trkpt lat="43.30093" lon="6.53997">
        <ele>353.6</ele>
        <time>2022-02-04T18:52:08Z</time>
      </trkpt>
      <trkpt lat="43.30093" lon="6.53997">
        <ele>353.6</ele>
        <time>2022-02-04T18:52:09Z</time>
      </trkpt>
      <trkpt lat="43.30093" lon="6.53997">
        <ele>353.6</ele>
        <time>2022-02-04T18:52:10Z</time>
      </trkpt>
      <trkpt lat="43.30093" lon="6.53997">
        <ele>353.6</ele>
        <time>2022-02-04T18:52:11Z</time>
      </trkpt>
      <trkpt lat="43.30093" lon="6.53997">
        <ele>353.6</ele>
        <time>2022-02-04T18:52:12Z</time>
      </trkpt>
      <trkpt lat="43.30093" lon="6.53997">
        <ele>353.6</ele>
        <time>2022-02-04T18:52:13Z</time>
      </trkpt>
      <trkpt lat="43.30093" lon="6.53997">
        <ele>353.6</ele>
        <time>2022-02-04T18:52:14Z</time>
      </trkpt>
      <trkpt lat="43.30093" lon="6.53997">
        <ele>353.6</ele>
        <time>2022-02-04T18:52:15Z</time>
      </trkpt>
      <trkpt lat="43.30093" lon="6.53997">
        <ele>353.6</ele>
        <time>2022-02-04T18:52:16Z</time>
      </trkpt>
      <trkpt lat="43.30093" lon="6.53997">
        <ele>353.6</ele>
        <time>2022-02-04T18:52:17Z</time>
      </trkpt>
      <trkpt lat="43.30093" lon="6.53997">
        <ele>353.6</ele>
        <time>2022-02-04T18:52:18Z</time>
      </trkpt>
      <trkpt lat="43.30093" lon="6.53997">
        <ele>353.6</ele>
        <time>2022-02-04T18:52:19Z</time>
      </trkpt>
      <trkpt lat="43.30093" lon="6.53997">
        <ele>353.6</ele>
        <time>2022-02-04T18:52:20Z</time>
      </trkpt>
      <trkpt lat="43.30093" lon="6.53997">
        <ele>353.6</ele>
        <time>2022-02-04T18:52:21Z</time>
      </trkpt>
      <trkpt lat="43.30093" lon="6.53997">
        <ele>353.6</ele>
        <time>2022-02-04T18:52:22Z</time>
      </trkpt>
      <trkpt lat="43.30093" lon="6.53997">
        <ele>353.6</ele>
        <time>2022-02-04T18:52:23Z</time>
      </trkpt>
      <trkpt lat="43.30093" lon="6.53997">
        <ele>353.6</ele>
        <time>2022-02-04T18:52:24Z</time>
      </trkpt>
      <trkpt lat="43.30093" lon="6.53997">
        <ele>353.6</ele>
        <time>2022-02-04T18:52:25Z</time>
      </trkpt>
      <trkpt lat="43.30093" lon="6.53997">
        <ele>353.6</ele>
        <time>2022-02-04T18:52:26Z</time>
      </trkpt>
      <trkpt lat="43.30093" lon="6.53997">
        <ele>353.6</ele>
        <time>2022-02-04T18:52:27Z</time>
      </trkpt>
      <trkpt lat="43.30093" lon="6.53997">
        <ele>353.6</ele>
        <time>2022-02-04T18:52:28Z</time>
      </trkpt>
      <trkpt lat="43.30093" lon="6.53997">
        <ele>353.6</ele>
        <time>2022-02-04T18:52:29Z</time>
      </trkpt>
      <trkpt lat="43.30093" lon="6.53997">
        <ele>353.6</ele>
        <time>2022-02-04T18:52:30Z</time>
      </trkpt>
      <trkpt lat="43.30093" lon="6.53997">
        <ele>353.6</ele>
        <time>2022-02-04T18:52:31Z</time>
      </trkpt>
      <trkpt lat="43.30093" lon="6.53997">
        <ele>353.6</ele>
        <time>2022-02-04T18:52:32Z</time>
      </trkpt>
      <trkpt lat="43.30093" lon="6.53997">
        <ele>353.6</ele>
        <time>2022-02-04T18:52:33Z</time>
      </trkpt>
      <trkpt lat="43.30093" lon="6.53997">
        <ele>353.6</ele>
        <time>2022-02-04T18:52:34Z</time>
      </trkpt>
      <trkpt lat="43.30093" lon="6.53997">
        <ele>353.6</ele>
        <time>2022-02-04T18:52:35Z</time>
      </trkpt>
      <trkpt lat="43.30093" lon="6.53997">
        <ele>353.6</ele>
        <time>2022-02-04T18:52:36Z</time>
      </trkpt>
      <trkpt lat="43.30093" lon="6.53997">
        <ele>353.6</ele>
        <time>2022-02-04T18:52:37Z</time>
      </trkpt>
      <trkpt lat="43.30093" lon="6.53997">
        <ele>353.6</ele>
        <time>2022-02-04T18:52:38Z</time>
      </trkpt>
      <trkpt lat="43.30093" lon="6.53997">
        <ele>353.6</ele>
        <time>2022-02-04T18:52:39Z</time>
      </trkpt>
      <trkpt lat="43.30093" lon="6.53997">
        <ele>353.6</ele>
        <time>2022-02-04T18:52:40Z</time>
      </trkpt>
      <trkpt lat="43.30093" lon="6.53997">
        <ele>353.6</ele>
        <time>2022-02-04T18:52:41Z</time>
      </trkpt>
      <trkpt lat="43.30093" lon="6.53997">
        <ele>353.6</ele>
        <time>2022-02-04T18:52:42Z</time>
      </trkpt>
      <trkpt lat="43.30093" lon="6.53997">
        <ele>353.6</ele>
        <time>2022-02-04T18:52:43Z</time>
      </trkpt>
      <trkpt lat="43.30093" lon="6.53997">
        <ele>353.6</ele>
        <time>2022-02-04T18:52:44Z</time>
      </trkpt>
      <trkpt lat="43.30093" lon="6.53997">
        <ele>353.6</ele>
        <time>2022-02-04T18:52:45Z</time>
      </trkpt>
      <trkpt lat="43.30093" lon="6.53997">
        <ele>353.6</ele>
        <time>2022-02-04T18:52:46Z</time>
      </trkpt>
      <trkpt lat="43.30093" lon="6.53997">
        <ele>353.6</ele>
        <time>2022-02-04T18:52:47Z</time>
      </trkpt>
      <trkpt lat="43.30093" lon="6.53997">
        <ele>353.6</ele>
        <time>2022-02-04T18:52:48Z</time>
      </trkpt>
      <trkpt lat="43.30093" lon="6.53997">
        <ele>353.6</ele>
        <time>2022-02-04T18:52:49Z</time>
      </trkpt>
      <trkpt lat="43.30093" lon="6.53997">
        <ele>353.6</ele>
        <time>2022-02-04T18:52:50Z</time>
      </trkpt>
      <trkpt lat="43.30093" lon="6.53997">
        <ele>353.6</ele>
        <time>2022-02-04T18:52:51Z</time>
      </trkpt>
      <trkpt lat="43.30093" lon="6.53997">
        <ele>353.6</ele>
        <time>2022-02-04T18:52:52Z</time>
      </trkpt>
      <trkpt lat="43.30093" lon="6.53997">
        <ele>353.6</ele>
        <time>2022-02-04T18:52:53Z</time>
      </trkpt>
      <trkpt lat="43.30093" lon="6.53997">
        <ele>353.6</ele>
        <time>2022-02-04T18:52:54Z</time>
      </trkpt>
      <trkpt lat="43.30093" lon="6.53997">
        <ele>353.6</ele>
        <time>2022-02-04T18:52:55Z</time>
      </trkpt>
      <trkpt lat="43.30093" lon="6.53997">
        <ele>353.6</ele>
        <time>2022-02-04T18:52:56Z</time>
      </trkpt>
      <trkpt lat="43.30093" lon="6.53997">
        <ele>353.6</ele>
        <time>2022-02-04T18:52:57Z</time>
      </trkpt>
      <trkpt lat="43.30093" lon="6.53997">
        <ele>353.6</ele>
        <time>2022-02-04T18:52:58Z</time>
      </trkpt>
      <trkpt lat="43.30093" lon="6.53997">
        <ele>353.6</ele>
        <time>2022-02-04T18:52:59Z</time>
      </trkpt>
      <trkpt lat="43.30093" lon="6.53997">
        <ele>353.6</ele>
        <time>2022-02-04T18:53:00Z</time>
      </trkpt>
      <trkpt lat="43.30093" lon="6.53997">
        <ele>353.6</ele>
        <time>2022-02-04T18:53:01Z</time>
      </trkpt>
      <trkpt lat="43.30093" lon="6.53997">
        <ele>353.6</ele>
        <time>2022-02-04T18:53:02Z</time>
      </trkpt>
      <trkpt lat="43.30093" lon="6.53997">
        <ele>353.6</ele>
        <time>2022-02-04T18:53:03Z</time>
      </trkpt>
      <trkpt lat="43.30093" lon="6.53997">
        <ele>353.6</ele>
        <time>2022-02-04T18:53:04Z</time>
      </trkpt>
      <trkpt lat="43.30093" lon="6.53997">
        <ele>353.6</ele>
        <time>2022-02-04T18:53:05Z</time>
      </trkpt>
      <trkpt lat="43.30094" lon="6.53997">
        <ele>353.6</ele>
        <time>2022-02-04T18:53:06Z</time>
      </trkpt>
      <trkpt lat="43.30094" lon="6.53997">
        <ele>353.6</ele>
        <time>2022-02-04T18:53:07Z</time>
      </trkpt>
      <trkpt lat="43.30094" lon="6.53997">
        <ele>353.6</ele>
        <time>2022-02-04T18:53:08Z</time>
      </trkpt>
      <trkpt lat="43.30094" lon="6.53997">
        <ele>353.6</ele>
        <time>2022-02-04T18:53:09Z</time>
      </trkpt>
      <trkpt lat="43.30094" lon="6.53997">
        <ele>353.6</ele>
        <time>2022-02-04T18:53:10Z</time>
      </trkpt>
      <trkpt lat="43.30094" lon="6.53997">
        <ele>353.6</ele>
        <time>2022-02-04T18:53:11Z</time>
      </trkpt>
      <trkpt lat="43.30094" lon="6.53997">
        <ele>353.6</ele>
        <time>2022-02-04T18:53:12Z</time>
      </trkpt>
      <trkpt lat="43.30094" lon="6.53997">
        <ele>353.6</ele>
        <time>2022-02-04T18:53:13Z</time>
      </trkpt>
      <trkpt lat="43.30094" lon="6.53997">
        <ele>353.6</ele>
        <time>2022-02-04T18:53:14Z</time>
      </trkpt>
      <trkpt lat="43.30094" lon="6.53997">
        <ele>353.6</ele>
        <time>2022-02-04T18:53:15Z</time>
      </trkpt>
      <trkpt lat="43.30094" lon="6.53997">
        <ele>353.6</ele>
        <time>2022-02-04T18:53:16Z</time>
      </trkpt>
      <trkpt lat="43.30094" lon="6.53997">
        <ele>353.6</ele>
        <time>2022-02-04T18:53:17Z</time>
      </trkpt>
      <trkpt lat="43.30094" lon="6.53997">
        <ele>353.6</ele>
        <time>2022-02-04T18:53:18Z</time>
      </trkpt>
      <trkpt lat="43.30094" lon="6.53997">
        <ele>353.6</ele>
        <time>2022-02-04T18:53:19Z</time>
      </trkpt>
      <trkpt lat="43.30094" lon="6.53997">
        <ele>353.6</ele>
        <time>2022-02-04T18:53:20Z</time>
      </trkpt>
      <trkpt lat="43.30094" lon="6.53997">
        <ele>353.6</ele>
        <time>2022-02-04T18:53:21Z</time>
      </trkpt>
      <trkpt lat="43.30094" lon="6.53997">
        <ele>353.6</ele>
        <time>2022-02-04T18:53:22Z</time>
      </trkpt>
      <trkpt lat="43.30094" lon="6.53997">
        <ele>353.6</ele>
        <time>2022-02-04T18:53:23Z</time>
      </trkpt>
      <trkpt lat="43.30094" lon="6.53997">
        <ele>353.6</ele>
        <time>2022-02-04T18:53:24Z</time>
      </trkpt>
      <trkpt lat="43.30094" lon="6.53997">
        <ele>353.6</ele>
        <time>2022-02-04T18:53:25Z</time>
      </trkpt>
      <trkpt lat="43.30094" lon="6.53997">
        <ele>353.6</ele>
        <time>2022-02-04T18:53:26Z</time>
      </trkpt>
      <trkpt lat="43.30094" lon="6.53997">
        <ele>353.6</ele>
        <time>2022-02-04T18:53:27Z</time>
      </trkpt>
      <trkpt lat="43.30094" lon="6.53997">
        <ele>353.6</ele>
        <time>2022-02-04T18:53:28Z</time>
      </trkpt>
      <trkpt lat="43.30094" lon="6.53997">
        <ele>353.6</ele>
        <time>2022-02-04T18:53:29Z</time>
      </trkpt>
      <trkpt lat="43.30094" lon="6.53997">
        <ele>353.6</ele>
        <time>2022-02-04T18:53:30Z</time>
      </trkpt>
      <trkpt lat="43.30094" lon="6.53997">
        <ele>353.6</ele>
        <time>2022-02-04T18:53:31Z</time>
      </trkpt>
      <trkpt lat="43.30094" lon="6.53997">
        <ele>353.6</ele>
        <time>2022-02-04T18:53:32Z</time>
      </trkpt>
      <trkpt lat="43.30094" lon="6.53997">
        <ele>353.6</ele>
        <time>2022-02-04T18:53:33Z</time>
      </trkpt>
      <trkpt lat="43.30094" lon="6.53997">
        <ele>353.6</ele>
        <time>2022-02-04T18:53:34Z</time>
      </trkpt>
      <trkpt lat="43.30094" lon="6.53997">
        <ele>353.6</ele>
        <time>2022-02-04T18:53:35Z</time>
      </trkpt>
      <trkpt lat="43.30094" lon="6.53997">
        <ele>353.6</ele>
        <time>2022-02-04T18:53:36Z</time>
      </trkpt>
      <trkpt lat="43.30094" lon="6.53997">
        <ele>353.6</ele>
        <time>2022-02-04T18:53:37Z</time>
      </trkpt>
      <trkpt lat="43.30094" lon="6.53997">
        <ele>353.6</ele>
        <time>2022-02-04T18:53:38Z</time>
      </trkpt>
      <trkpt lat="43.30094" lon="6.53997">
        <ele>353.6</ele>
        <time>2022-02-04T18:53:39Z</time>
      </trkpt>
      <trkpt lat="43.30094" lon="6.53997">
        <ele>353.6</ele>
        <time>2022-02-04T18:53:40Z</time>
      </trkpt>
      <trkpt lat="43.30094" lon="6.53997">
        <ele>353.6</ele>
        <time>2022-02-04T18:53:41Z</time>
      </trkpt>
      <trkpt lat="43.30094" lon="6.53997">
        <ele>353.6</ele>
        <time>2022-02-04T18:53:42Z</time>
      </trkpt>
      <trkpt lat="43.30094" lon="6.53997">
        <ele>353.6</ele>
        <time>2022-02-04T18:53:43Z</time>
      </trkpt>
      <trkpt lat="43.30094" lon="6.53997">
        <ele>353.6</ele>
        <time>2022-02-04T18:53:44Z</time>
      </trkpt>
      <trkpt lat="43.30094" lon="6.53997">
        <ele>353.6</ele>
        <time>2022-02-04T18:53:45Z</time>
      </trkpt>
      <trkpt lat="43.30094" lon="6.53997">
        <ele>353.6</ele>
        <time>2022-02-04T18:53:46Z</time>
      </trkpt>
      <trkpt lat="43.30094" lon="6.53997">
        <ele>353.6</ele>
        <time>2022-02-04T18:53:47Z</time>
      </trkpt>
      <trkpt lat="43.30094" lon="6.53997">
        <ele>353.6</ele>
        <time>2022-02-04T18:53:48Z</time>
      </trkpt>
      <trkpt lat="43.30094" lon="6.53997">
        <ele>353.6</ele>
        <time>2022-02-04T18:53:49Z</time>
      </trkpt>
      <trkpt lat="43.30094" lon="6.53997">
        <ele>353.6</ele>
        <time>2022-02-04T18:53:50Z</time>
      </trkpt>
      <trkpt lat="43.30094" lon="6.53997">
        <ele>353.6</ele>
        <time>2022-02-04T18:53:51Z</time>
      </trkpt>
      <trkpt lat="43.30094" lon="6.53997">
        <ele>353.6</ele>
        <time>2022-02-04T18:53:52Z</time>
      </trkpt>
      <trkpt lat="43.30094" lon="6.53997">
        <ele>353.6</ele>
        <time>2022-02-04T18:53:53Z</time>
      </trkpt>
      <trkpt lat="43.30094" lon="6.53997">
        <ele>353.6</ele>
        <time>2022-02-04T18:53:54Z</time>
      </trkpt>
      <trkpt lat="43.30094" lon="6.53997">
        <ele>353.6</ele>
        <time>2022-02-04T18:53:55Z</time>
      </trkpt>
      <trkpt lat="43.30094" lon="6.53997">
        <ele>353.6</ele>
        <time>2022-02-04T18:53:56Z</time>
      </trkpt>
      <trkpt lat="43.30094" lon="6.53997">
        <ele>353.6</ele>
        <time>2022-02-04T18:53:57Z</time>
      </trkpt>
      <trkpt lat="43.30094" lon="6.53997">
        <ele>353.6</ele>
        <time>2022-02-04T18:53:58Z</time>
      </trkpt>
      <trkpt lat="43.30094" lon="6.53997">
        <ele>353.6</ele>
        <time>2022-02-04T18:53:59Z</time>
      </trkpt>
      <trkpt lat="43.30094" lon="6.53997">
        <ele>353.6</ele>
        <time>2022-02-04T18:54:00Z</time>
      </trkpt>
      <trkpt lat="43.30094" lon="6.53997">
        <ele>353.6</ele>
        <time>2022-02-04T18:54:01Z</time>
      </trkpt>
      <trkpt lat="43.30094" lon="6.53997">
        <ele>353.6</ele>
        <time>2022-02-04T18:54:02Z</time>
      </trkpt>
      <trkpt lat="43.30094" lon="6.53997">
        <ele>353.6</ele>
        <time>2022-02-04T18:54:03Z</time>
      </trkpt>
      <trkpt lat="43.30094" lon="6.53997">
        <ele>353.6</ele>
        <time>2022-02-04T18:54:04Z</time>
      </trkpt>
      <trkpt lat="43.30094" lon="6.53997">
        <ele>353.6</ele>
        <time>2022-02-04T18:54:05Z</time>
      </trkpt>
      <trkpt lat="43.30094" lon="6.53997">
        <ele>353.6</ele>
        <time>2022-02-04T18:54:06Z</time>
      </trkpt>
      <trkpt lat="43.30094" lon="6.53997">
        <ele>353.6</ele>
        <time>2022-02-04T18:54:07Z</time>
      </trkpt>
      <trkpt lat="43.30094" lon="6.53997">
        <ele>353.6</ele>
        <time>2022-02-04T18:54:08Z</time>
      </trkpt>
      <trkpt lat="43.30094" lon="6.53997">
        <ele>353.6</ele>
        <time>2022-02-04T18:54:09Z</time>
      </trkpt>
      <trkpt lat="43.30094" lon="6.53997">
        <ele>353.6</ele>
        <time>2022-02-04T18:54:10Z</time>
      </trkpt>
      <trkpt lat="43.30094" lon="6.53997">
        <ele>353.6</ele>
        <time>2022-02-04T18:54:11Z</time>
      </trkpt>
      <trkpt lat="43.30094" lon="6.53997">
        <ele>353.6</ele>
        <time>2022-02-04T18:54:12Z</time>
      </trkpt>
      <trkpt lat="43.30094" lon="6.53997">
        <ele>353.6</ele>
        <time>2022-02-04T18:54:13Z</time>
      </trkpt>
      <trkpt lat="43.30094" lon="6.53997">
        <ele>353.6</ele>
        <time>2022-02-04T18:54:14Z</time>
      </trkpt>
      <trkpt lat="43.30094" lon="6.53997">
        <ele>353.6</ele>
        <time>2022-02-04T18:54:15Z</time>
      </trkpt>
      <trkpt lat="43.30094" lon="6.53997">
        <ele>353.6</ele>
        <time>2022-02-04T18:54:16Z</time>
      </trkpt>
      <trkpt lat="43.30094" lon="6.53997">
        <ele>353.6</ele>
        <time>2022-02-04T18:54:17Z</time>
      </trkpt>
      <trkpt lat="43.30094" lon="6.53997">
        <ele>353.6</ele>
        <time>2022-02-04T18:54:18Z</time>
      </trkpt>
      <trkpt lat="43.30094" lon="6.53997">
        <ele>353.6</ele>
        <time>2022-02-04T18:54:19Z</time>
      </trkpt>
      <trkpt lat="43.30094" lon="6.53997">
        <ele>353.6</ele>
        <time>2022-02-04T18:54:20Z</time>
      </trkpt>
      <trkpt lat="43.30094" lon="6.53997">
        <ele>353.6</ele>
        <time>2022-02-04T18:54:21Z</time>
      </trkpt>
      <trkpt lat="43.30094" lon="6.53997">
        <ele>353.6</ele>
        <time>2022-02-04T18:54:22Z</time>
      </trkpt>
      <trkpt lat="43.30094" lon="6.53997">
        <ele>353.6</ele>
        <time>2022-02-04T18:54:23Z</time>
      </trkpt>
      <trkpt lat="43.30094" lon="6.53997">
        <ele>353.6</ele>
        <time>2022-02-04T18:54:24Z</time>
      </trkpt>
      <trkpt lat="43.30094" lon="6.53997">
        <ele>353.6</ele>
        <time>2022-02-04T18:54:25Z</time>
      </trkpt>
      <trkpt lat="43.30094" lon="6.53997">
        <ele>353.6</ele>
        <time>2022-02-04T18:54:26Z</time>
      </trkpt>
      <trkpt lat="43.30094" lon="6.53997">
        <ele>353.6</ele>
        <time>2022-02-04T18:54:27Z</time>
      </trkpt>
      <trkpt lat="43.30094" lon="6.53997">
        <ele>353.6</ele>
        <time>2022-02-04T18:54:28Z</time>
      </trkpt>
      <trkpt lat="43.30094" lon="6.53997">
        <ele>353.6</ele>
        <time>2022-02-04T18:54:29Z</time>
      </trkpt>
      <trkpt lat="43.30094" lon="6.53997">
        <ele>353.6</ele>
        <time>2022-02-04T18:54:30Z</time>
      </trkpt>
      <trkpt lat="43.30094" lon="6.53997">
        <ele>353.6</ele>
        <time>2022-02-04T18:54:31Z</time>
      </trkpt>
      <trkpt lat="43.30094" lon="6.53997">
        <ele>353.6</ele>
        <time>2022-02-04T18:54:32Z</time>
      </trkpt>
      <trkpt lat="43.30094" lon="6.53997">
        <ele>353.6</ele>
        <time>2022-02-04T18:54:33Z</time>
      </trkpt>
      <trkpt lat="43.30094" lon="6.53997">
        <ele>353.6</ele>
        <time>2022-02-04T18:54:34Z</time>
      </trkpt>
      <trkpt lat="43.30094" lon="6.53997">
        <ele>353.6</ele>
        <time>2022-02-04T18:54:35Z</time>
      </trkpt>
      <trkpt lat="43.30094" lon="6.53997">
        <ele>353.6</ele>
        <time>2022-02-04T18:54:36Z</time>
      </trkpt>
      <trkpt lat="43.30094" lon="6.53997">
        <ele>353.6</ele>
        <time>2022-02-04T18:54:37Z</time>
      </trkpt>
      <trkpt lat="43.30094" lon="6.53997">
        <ele>353.6</ele>
        <time>2022-02-04T18:54:38Z</time>
      </trkpt>
      <trkpt lat="43.30094" lon="6.53997">
        <ele>353.6</ele>
        <time>2022-02-04T18:54:39Z</time>
      </trkpt>
      <trkpt lat="43.30094" lon="6.53997">
        <ele>353.6</ele>
        <time>2022-02-04T18:54:40Z</time>
      </trkpt>
      <trkpt lat="43.30094" lon="6.53997">
        <ele>353.6</ele>
        <time>2022-02-04T18:54:41Z</time>
      </trkpt>
      <trkpt lat="43.30094" lon="6.53997">
        <ele>353.6</ele>
        <time>2022-02-04T18:54:42Z</time>
      </trkpt>
      <trkpt lat="43.30094" lon="6.53997">
        <ele>353.6</ele>
        <time>2022-02-04T18:54:43Z</time>
      </trkpt>
      <trkpt lat="43.30094" lon="6.53997">
        <ele>353.6</ele>
        <time>2022-02-04T18:54:44Z</time>
      </trkpt>
      <trkpt lat="43.30094" lon="6.53997">
        <ele>353.6</ele>
        <time>2022-02-04T18:54:45Z</time>
      </trkpt>
      <trkpt lat="43.30094" lon="6.53997">
        <ele>353.6</ele>
        <time>2022-02-04T18:54:46Z</time>
      </trkpt>
      <trkpt lat="43.30094" lon="6.53997">
        <ele>353.6</ele>
        <time>2022-02-04T18:54:47Z</time>
      </trkpt>
      <trkpt lat="43.30094" lon="6.53997">
        <ele>353.6</ele>
        <time>2022-02-04T18:54:48Z</time>
      </trkpt>
      <trkpt lat="43.30094" lon="6.53997">
        <ele>353.6</ele>
        <time>2022-02-04T18:54:49Z</time>
      </trkpt>
      <trkpt lat="43.30094" lon="6.53997">
        <ele>353.6</ele>
        <time>2022-02-04T18:54:50Z</time>
      </trkpt>
      <trkpt lat="43.30094" lon="6.53997">
        <ele>353.6</ele>
        <time>2022-02-04T18:54:51Z</time>
      </trkpt>
      <trkpt lat="43.30094" lon="6.53997">
        <ele>353.6</ele>
        <time>2022-02-04T18:54:52Z</time>
      </trkpt>
      <trkpt lat="43.30094" lon="6.53997">
        <ele>353.6</ele>
        <time>2022-02-04T18:54:53Z</time>
      </trkpt>
      <trkpt lat="43.30094" lon="6.53997">
        <ele>353.6</ele>
        <time>2022-02-04T18:54:54Z</time>
      </trkpt>
      <trkpt lat="43.30094" lon="6.53997">
        <ele>353.6</ele>
        <time>2022-02-04T18:54:55Z</time>
      </trkpt>
      <trkpt lat="43.30094" lon="6.53997">
        <ele>353.6</ele>
        <time>2022-02-04T18:54:56Z</time>
      </trkpt>
      <trkpt lat="43.30094" lon="6.53997">
        <ele>353.6</ele>
        <time>2022-02-04T18:54:57Z</time>
      </trkpt>
      <trkpt lat="43.30094" lon="6.53997">
        <ele>353.6</ele>
        <time>2022-02-04T18:54:58Z</time>
      </trkpt>
      <trkpt lat="43.30094" lon="6.53997">
        <ele>353.6</ele>
        <time>2022-02-04T18:54:59Z</time>
      </trkpt>
      <trkpt lat="43.30094" lon="6.53997">
        <ele>353.6</ele>
        <time>2022-02-04T18:55:00Z</time>
      </trkpt>
      <trkpt lat="43.30094" lon="6.53997">
        <ele>353.6</ele>
        <time>2022-02-04T18:55:01Z</time>
      </trkpt>
      <trkpt lat="43.30094" lon="6.53997">
        <ele>353.6</ele>
        <time>2022-02-04T18:55:02Z</time>
      </trkpt>
      <trkpt lat="43.30094" lon="6.53997">
        <ele>353.6</ele>
        <time>2022-02-04T18:55:03Z</time>
      </trkpt>
      <trkpt lat="43.30094" lon="6.53997">
        <ele>353.6</ele>
        <time>2022-02-04T18:55:04Z</time>
      </trkpt>
      <trkpt lat="43.30094" lon="6.53997">
        <ele>353.6</ele>
        <time>2022-02-04T18:55:05Z</time>
      </trkpt>
      <trkpt lat="43.30094" lon="6.53997">
        <ele>353.6</ele>
        <time>2022-02-04T18:55:06Z</time>
      </trkpt>
      <trkpt lat="43.30094" lon="6.53997">
        <ele>353.6</ele>
        <time>2022-02-04T18:55:07Z</time>
      </trkpt>
      <trkpt lat="43.30094" lon="6.53997">
        <ele>353.6</ele>
        <time>2022-02-04T18:55:08Z</time>
      </trkpt>
      <trkpt lat="43.30094" lon="6.53997">
        <ele>353.6</ele>
        <time>2022-02-04T18:55:09Z</time>
      </trkpt>
      <trkpt lat="43.30094" lon="6.53997">
        <ele>353.6</ele>
        <time>2022-02-04T18:55:10Z</time>
      </trkpt>
      <trkpt lat="43.30094" lon="6.53997">
        <ele>353.6</ele>
        <time>2022-02-04T18:55:11Z</time>
      </trkpt>
      <trkpt lat="43.30094" lon="6.53997">
        <ele>353.6</ele>
        <time>2022-02-04T18:55:12Z</time>
      </trkpt>
      <trkpt lat="43.30094" lon="6.53997">
        <ele>353.6</ele>
        <time>2022-02-04T18:55:13Z</time>
      </trkpt>
      <trkpt lat="43.30094" lon="6.53997">
        <ele>353.6</ele>
        <time>2022-02-04T18:55:14Z</time>
      </trkpt>
      <trkpt lat="43.30094" lon="6.53997">
        <ele>353.6</ele>
        <time>2022-02-04T18:55:15Z</time>
      </trkpt>
      <trkpt lat="43.30094" lon="6.53997">
        <ele>353.6</ele>
        <time>2022-02-04T18:55:16Z</time>
      </trkpt>
      <trkpt lat="43.30094" lon="6.53997">
        <ele>353.6</ele>
        <time>2022-02-04T18:55:17Z</time>
      </trkpt>
      <trkpt lat="43.30094" lon="6.53997">
        <ele>353.6</ele>
        <time>2022-02-04T18:55:18Z</time>
      </trkpt>
      <trkpt lat="43.30094" lon="6.53997">
        <ele>353.6</ele>
        <time>2022-02-04T18:55:19Z</time>
      </trkpt>
      <trkpt lat="43.30094" lon="6.53997">
        <ele>353.6</ele>
        <time>2022-02-04T18:55:20Z</time>
      </trkpt>
      <trkpt lat="43.30094" lon="6.53997">
        <ele>353.6</ele>
        <time>2022-02-04T18:55:21Z</time>
      </trkpt>
      <trkpt lat="43.30094" lon="6.53997">
        <ele>353.6</ele>
        <time>2022-02-04T18:55:22Z</time>
      </trkpt>
      <trkpt lat="43.30094" lon="6.53997">
        <ele>353.6</ele>
        <time>2022-02-04T18:55:23Z</time>
      </trkpt>
      <trkpt lat="43.30094" lon="6.53997">
        <ele>353.6</ele>
        <time>2022-02-04T18:55:24Z</time>
      </trkpt>
      <trkpt lat="43.30094" lon="6.53997">
        <ele>353.6</ele>
        <time>2022-02-04T18:55:25Z</time>
      </trkpt>
      <trkpt lat="43.30094" lon="6.53997">
        <ele>353.6</ele>
        <time>2022-02-04T18:55:26Z</time>
      </trkpt>
      <trkpt lat="43.30094" lon="6.53997">
        <ele>353.6</ele>
        <time>2022-02-04T18:55:27Z</time>
      </trkpt>
      <trkpt lat="43.30094" lon="6.53997">
        <ele>353.6</ele>
        <time>2022-02-04T18:55:28Z</time>
      </trkpt>
      <trkpt lat="43.30094" lon="6.53997">
        <ele>353.6</ele>
        <time>2022-02-04T18:55:29Z</time>
      </trkpt>
      <trkpt lat="43.30094" lon="6.53997">
        <ele>353.6</ele>
        <time>2022-02-04T18:55:30Z</time>
      </trkpt>
      <trkpt lat="43.30094" lon="6.53997">
        <ele>353.6</ele>
        <time>2022-02-04T18:55:31Z</time>
      </trkpt>
      <trkpt lat="43.30094" lon="6.53997">
        <ele>353.6</ele>
        <time>2022-02-04T18:55:32Z</time>
      </trkpt>
      <trkpt lat="43.30094" lon="6.53997">
        <ele>353.6</ele>
        <time>2022-02-04T18:55:33Z</time>
      </trkpt>
      <trkpt lat="43.30094" lon="6.53997">
        <ele>353.6</ele>
        <time>2022-02-04T18:55:34Z</time>
      </trkpt>
      <trkpt lat="43.30094" lon="6.53997">
        <ele>353.6</ele>
        <time>2022-02-04T18:55:35Z</time>
      </trkpt>
      <trkpt lat="43.30094" lon="6.53997">
        <ele>353.6</ele>
        <time>2022-02-04T18:55:36Z</time>
      </trkpt>
      <trkpt lat="43.30094" lon="6.53997">
        <ele>353.6</ele>
        <time>2022-02-04T18:55:37Z</time>
      </trkpt>
      <trkpt lat="43.30094" lon="6.53997">
        <ele>353.6</ele>
        <time>2022-02-04T18:55:38Z</time>
      </trkpt>
      <trkpt lat="43.30094" lon="6.53997">
        <ele>353.6</ele>
        <time>2022-02-04T18:55:39Z</time>
      </trkpt>
      <trkpt lat="43.30094" lon="6.53997">
        <ele>353.6</ele>
        <time>2022-02-04T18:55:40Z</time>
      </trkpt>
      <trkpt lat="43.30094" lon="6.53997">
        <ele>353.6</ele>
        <time>2022-02-04T18:55:41Z</time>
      </trkpt>
      <trkpt lat="43.30094" lon="6.53997">
        <ele>353.6</ele>
        <time>2022-02-04T18:55:42Z</time>
      </trkpt>
      <trkpt lat="43.30094" lon="6.53997">
        <ele>353.6</ele>
        <time>2022-02-04T18:55:43Z</time>
      </trkpt>
      <trkpt lat="43.30094" lon="6.53997">
        <ele>353.6</ele>
        <time>2022-02-04T18:55:44Z</time>
      </trkpt>
      <trkpt lat="43.30094" lon="6.53997">
        <ele>353.6</ele>
        <time>2022-02-04T18:55:45Z</time>
      </trkpt>
      <trkpt lat="43.30094" lon="6.53997">
        <ele>353.6</ele>
        <time>2022-02-04T18:55:46Z</time>
      </trkpt>
      <trkpt lat="43.30094" lon="6.53997">
        <ele>353.6</ele>
        <time>2022-02-04T18:55:47Z</time>
      </trkpt>
      <trkpt lat="43.30094" lon="6.53997">
        <ele>353.6</ele>
        <time>2022-02-04T18:55:48Z</time>
      </trkpt>
      <trkpt lat="43.30094" lon="6.53997">
        <ele>353.6</ele>
        <time>2022-02-04T18:55:49Z</time>
      </trkpt>
      <trkpt lat="43.30094" lon="6.53997">
        <ele>353.6</ele>
        <time>2022-02-04T18:55:50Z</time>
      </trkpt>
      <trkpt lat="43.30094" lon="6.53997">
        <ele>353.6</ele>
        <time>2022-02-04T18:55:51Z</time>
      </trkpt>
      <trkpt lat="43.30094" lon="6.53997">
        <ele>353.6</ele>
        <time>2022-02-04T18:55:52Z</time>
      </trkpt>
      <trkpt lat="43.30094" lon="6.53997">
        <ele>353.6</ele>
        <time>2022-02-04T18:55:53Z</time>
      </trkpt>
      <trkpt lat="43.30094" lon="6.53997">
        <ele>353.6</ele>
        <time>2022-02-04T18:55:54Z</time>
      </trkpt>
      <trkpt lat="43.30094" lon="6.53997">
        <ele>353.6</ele>
        <time>2022-02-04T18:55:55Z</time>
      </trkpt>
      <trkpt lat="43.30094" lon="6.53997">
        <ele>353.6</ele>
        <time>2022-02-04T18:55:56Z</time>
      </trkpt>
      <trkpt lat="43.30094" lon="6.53997">
        <ele>353.6</ele>
        <time>2022-02-04T18:55:57Z</time>
      </trkpt>
      <trkpt lat="43.30094" lon="6.53997">
        <ele>353.6</ele>
        <time>2022-02-04T18:55:58Z</time>
      </trkpt>
      <trkpt lat="43.30094" lon="6.53997">
        <ele>353.6</ele>
        <time>2022-02-04T18:55:59Z</time>
      </trkpt>
      <trkpt lat="43.30094" lon="6.53997">
        <ele>353.6</ele>
        <time>2022-02-04T18:56:00Z</time>
      </trkpt>
      <trkpt lat="43.30094" lon="6.53997">
        <ele>353.6</ele>
        <time>2022-02-04T18:56:01Z</time>
      </trkpt>
      <trkpt lat="43.30094" lon="6.53997">
        <ele>353.6</ele>
        <time>2022-02-04T18:56:02Z</time>
      </trkpt>
      <trkpt lat="43.30094" lon="6.53997">
        <ele>353.6</ele>
        <time>2022-02-04T18:56:03Z</time>
      </trkpt>
      <trkpt lat="43.30094" lon="6.53997">
        <ele>353.6</ele>
        <time>2022-02-04T18:56:04Z</time>
      </trkpt>
      <trkpt lat="43.30094" lon="6.53997">
        <ele>353.6</ele>
        <time>2022-02-04T18:56:05Z</time>
      </trkpt>
      <trkpt lat="43.30094" lon="6.53997">
        <ele>353.6</ele>
        <time>2022-02-04T18:56:06Z</time>
      </trkpt>
      <trkpt lat="43.30094" lon="6.53997">
        <ele>353.6</ele>
        <time>2022-02-04T18:56:07Z</time>
      </trkpt>
      <trkpt lat="43.30094" lon="6.53997">
        <ele>353.6</ele>
        <time>2022-02-04T18:56:08Z</time>
      </trkpt>
      <trkpt lat="43.30094" lon="6.53997">
        <ele>353.6</ele>
        <time>2022-02-04T18:56:09Z</time>
      </trkpt>
      <trkpt lat="43.30094" lon="6.53997">
        <ele>353.6</ele>
        <time>2022-02-04T18:56:10Z</time>
      </trkpt>
      <trkpt lat="43.30094" lon="6.53997">
        <ele>353.6</ele>
        <time>2022-02-04T18:56:11Z</time>
      </trkpt>
      <trkpt lat="43.30094" lon="6.53997">
        <ele>353.6</ele>
        <time>2022-02-04T18:56:12Z</time>
      </trkpt>
      <trkpt lat="43.30094" lon="6.53997">
        <ele>353.6</ele>
        <time>2022-02-04T18:56:13Z</time>
      </trkpt>
      <trkpt lat="43.30094" lon="6.53997">
        <ele>353.6</ele>
        <time>2022-02-04T18:56:14Z</time>
      </trkpt>
      <trkpt lat="43.30094" lon="6.53997">
        <ele>353.6</ele>
        <time>2022-02-04T18:56:15Z</time>
      </trkpt>
      <trkpt lat="43.30094" lon="6.53997">
        <ele>353.6</ele>
        <time>2022-02-04T18:56:16Z</time>
      </trkpt>
      <trkpt lat="43.30094" lon="6.53997">
        <ele>353.6</ele>
        <time>2022-02-04T18:56:17Z</time>
      </trkpt>
      <trkpt lat="43.30094" lon="6.53997">
        <ele>353.6</ele>
        <time>2022-02-04T18:56:18Z</time>
      </trkpt>
      <trkpt lat="43.30094" lon="6.53997">
        <ele>353.6</ele>
        <time>2022-02-04T18:56:19Z</time>
      </trkpt>
      <trkpt lat="43.30094" lon="6.53997">
        <ele>353.6</ele>
        <time>2022-02-04T18:56:20Z</time>
      </trkpt>
      <trkpt lat="43.30094" lon="6.53997">
        <ele>353.6</ele>
        <time>2022-02-04T18:56:21Z</time>
      </trkpt>
      <trkpt lat="43.30094" lon="6.53997">
        <ele>353.6</ele>
        <time>2022-02-04T18:56:22Z</time>
      </trkpt>
      <trkpt lat="43.30094" lon="6.53997">
        <ele>353.6</ele>
        <time>2022-02-04T18:56:23Z</time>
      </trkpt>
      <trkpt lat="43.30094" lon="6.53998">
        <ele>353.6</ele>
        <time>2022-02-04T18:56:24Z</time>
      </trkpt>
      <trkpt lat="43.30094" lon="6.54001">
        <ele>353.6</ele>
        <time>2022-02-04T18:56:25Z</time>
      </trkpt>
      <trkpt lat="43.30094" lon="6.54006">
        <ele>353.6</ele>
        <time>2022-02-04T18:56:26Z</time>
      </trkpt>
      <trkpt lat="43.30094" lon="6.54011">
        <ele>353.8</ele>
        <time>2022-02-04T18:56:27Z</time>
      </trkpt>
      <trkpt lat="43.30095" lon="6.54014">
        <ele>353.8</ele>
        <time>2022-02-04T18:56:28Z</time>
      </trkpt>
      <trkpt lat="43.30096" lon="6.54017">
        <ele>353.8</ele>
        <time>2022-02-04T18:56:29Z</time>
      </trkpt>
      <trkpt lat="43.30098" lon="6.54021">
        <ele>353.8</ele>
        <time>2022-02-04T18:56:30Z</time>
      </trkpt>
      <trkpt lat="43.30098" lon="6.54025">
        <ele>353.8</ele>
        <time>2022-02-04T18:56:31Z</time>
      </trkpt>
      <trkpt lat="43.30097" lon="6.5403">
        <ele>353.2</ele>
        <time>2022-02-04T18:56:32Z</time>
      </trkpt>
      <trkpt lat="43.30097" lon="6.54034">
        <ele>351.8</ele>
        <time>2022-02-04T18:56:33Z</time>
      </trkpt>
      <trkpt lat="43.30098" lon="6.54038">
        <ele>350.8</ele>
        <time>2022-02-04T18:56:34Z</time>
      </trkpt>
      <trkpt lat="43.301" lon="6.54041">
        <ele>349.8</ele>
        <time>2022-02-04T18:56:35Z</time>
      </trkpt>
      <trkpt lat="43.30101" lon="6.54046">
        <ele>349.4</ele>
        <time>2022-02-04T18:56:36Z</time>
      </trkpt>
      <trkpt lat="43.30102" lon="6.54051">
        <ele>348.8</ele>
        <time>2022-02-04T18:56:37Z</time>
      </trkpt>
      <trkpt lat="43.30102" lon="6.54055">
        <ele>347.6</ele>
        <time>2022-02-04T18:56:38Z</time>
      </trkpt>
      <trkpt lat="43.30102" lon="6.54058">
        <ele>346.2</ele>
        <time>2022-02-04T18:56:39Z</time>
      </trkpt>
      <trkpt lat="43.30102" lon="6.54062">
        <ele>345.6</ele>
        <time>2022-02-04T18:56:40Z</time>
      </trkpt>
      <trkpt lat="43.30103" lon="6.54066">
        <ele>345</ele>
        <time>2022-02-04T18:56:41Z</time>
      </trkpt>
      <trkpt lat="43.30103" lon="6.54071">
        <ele>343.4</ele>
        <time>2022-02-04T18:56:42Z</time>
      </trkpt>
      <trkpt lat="43.30103" lon="6.54076">
        <ele>342.6</ele>
        <time>2022-02-04T18:56:43Z</time>
      </trkpt>
      <trkpt lat="43.30103" lon="6.54081">
        <ele>342.2</ele>
        <time>2022-02-04T18:56:44Z</time>
      </trkpt>
      <trkpt lat="43.30102" lon="6.54085">
        <ele>339.8</ele>
        <time>2022-02-04T18:56:45Z</time>
      </trkpt>
      <trkpt lat="43.30102" lon="6.54089">
        <ele>338</ele>
        <time>2022-02-04T18:56:46Z</time>
      </trkpt>
      <trkpt lat="43.30102" lon="6.54092">
        <ele>336.6</ele>
        <time>2022-02-04T18:56:47Z</time>
      </trkpt>
      <trkpt lat="43.30103" lon="6.54095">
        <ele>336</ele>
        <time>2022-02-04T18:56:48Z</time>
      </trkpt>
      <trkpt lat="43.30103" lon="6.54098">
        <ele>335.6</ele>
        <time>2022-02-04T18:56:49Z</time>
      </trkpt>
      <trkpt lat="43.301" lon="6.541">
        <ele>334.6</ele>
        <time>2022-02-04T18:56:50Z</time>
      </trkpt>
      <trkpt lat="43.30097" lon="6.54101">
        <ele>333.8</ele>
        <time>2022-02-04T18:56:51Z</time>
      </trkpt>
      <trkpt lat="43.30094" lon="6.54102">
        <ele>333.2</ele>
        <time>2022-02-04T18:56:52Z</time>
      </trkpt>
      <trkpt lat="43.3009" lon="6.54104">
        <ele>332.8</ele>
        <time>2022-02-04T18:56:53Z</time>
      </trkpt>
      <trkpt lat="43.30086" lon="6.54106">
        <ele>332.4</ele>
        <time>2022-02-04T18:56:54Z</time>
      </trkpt>
      <trkpt lat="43.30084" lon="6.54109">
        <ele>332.2</ele>
        <time>2022-02-04T18:56:55Z</time>
      </trkpt>
      <trkpt lat="43.30083" lon="6.54111">
        <ele>332</ele>
        <time>2022-02-04T18:56:56Z</time>
      </trkpt>
      <trkpt lat="43.30083" lon="6.54113">
        <ele>332</ele>
        <time>2022-02-04T18:56:57Z</time>
      </trkpt>
      <trkpt lat="43.30084" lon="6.54115">
        <ele>331.8</ele>
        <time>2022-02-04T18:56:58Z</time>
      </trkpt>
      <trkpt lat="43.30086" lon="6.54115">
        <ele>331.2</ele>
        <time>2022-02-04T18:56:59Z</time>
      </trkpt>
      <trkpt lat="43.30088" lon="6.54117">
        <ele>330.4</ele>
        <time>2022-02-04T18:57:00Z</time>
      </trkpt>
      <trkpt lat="43.30089" lon="6.54119">
        <ele>329.4</ele>
        <time>2022-02-04T18:57:01Z</time>
      </trkpt>
      <trkpt lat="43.30089" lon="6.54123">
        <ele>328.6</ele>
        <time>2022-02-04T18:57:02Z</time>
      </trkpt>
      <trkpt lat="43.30088" lon="6.54127">
        <ele>327.8</ele>
        <time>2022-02-04T18:57:03Z</time>
      </trkpt>
      <trkpt lat="43.30087" lon="6.54129">
        <ele>326.6</ele>
        <time>2022-02-04T18:57:04Z</time>
      </trkpt>
      <trkpt lat="43.30084" lon="6.54131">
        <ele>325.6</ele>
        <time>2022-02-04T18:57:05Z</time>
      </trkpt>
      <trkpt lat="43.3008" lon="6.54133">
        <ele>324.6</ele>
        <time>2022-02-04T18:57:06Z</time>
      </trkpt>
      <trkpt lat="43.30076" lon="6.54137">
        <ele>324</ele>
        <time>2022-02-04T18:57:07Z</time>
      </trkpt>
      <trkpt lat="43.30073" lon="6.54141">
        <ele>323</ele>
        <time>2022-02-04T18:57:08Z</time>
      </trkpt>
      <trkpt lat="43.30071" lon="6.54143">
        <ele>322.2</ele>
        <time>2022-02-04T18:57:09Z</time>
      </trkpt>
      <trkpt lat="43.30071" lon="6.54143">
        <ele>321.8</ele>
        <time>2022-02-04T18:57:10Z</time>
      </trkpt>
      <trkpt lat="43.30071" lon="6.54143">
        <ele>321.4</ele>
        <time>2022-02-04T18:57:11Z</time>
      </trkpt>
      <trkpt lat="43.30071" lon="6.54143">
        <ele>321.2</ele>
        <time>2022-02-04T18:57:12Z</time>
      </trkpt>
      <trkpt lat="43.3007" lon="6.54144">
        <ele>321</ele>
        <time>2022-02-04T18:57:13Z</time>
      </trkpt>
      <trkpt lat="43.30069" lon="6.54146">
        <ele>320.8</ele>
        <time>2022-02-04T18:57:14Z</time>
      </trkpt>
      <trkpt lat="43.30068" lon="6.54149">
        <ele>320.2</ele>
        <time>2022-02-04T18:57:15Z</time>
      </trkpt>
      <trkpt lat="43.30066" lon="6.54152">
        <ele>319.6</ele>
        <time>2022-02-04T18:57:16Z</time>
      </trkpt>
      <trkpt lat="43.30062" lon="6.54155">
        <ele>318.6</ele>
        <time>2022-02-04T18:57:17Z</time>
      </trkpt>
      <trkpt lat="43.30059" lon="6.54158">
        <ele>317.6</ele>
        <time>2022-02-04T18:57:18Z</time>
      </trkpt>
      <trkpt lat="43.30054" lon="6.5416">
        <ele>317</ele>
        <time>2022-02-04T18:57:19Z</time>
      </trkpt>
      <trkpt lat="43.30049" lon="6.54162">
        <ele>316.6</ele>
        <time>2022-02-04T18:57:20Z</time>
      </trkpt>
      <trkpt lat="43.30044" lon="6.54163">
        <ele>315.2</ele>
        <time>2022-02-04T18:57:21Z</time>
      </trkpt>
      <trkpt lat="43.30039" lon="6.54164">
        <ele>314</ele>
        <time>2022-02-04T18:57:22Z</time>
      </trkpt>
      <trkpt lat="43.30033" lon="6.54165">
        <ele>313.2</ele>
        <time>2022-02-04T18:57:23Z</time>
      </trkpt>
      <trkpt lat="43.30025" lon="6.54167">
        <ele>313</ele>
        <time>2022-02-04T18:57:24Z</time>
      </trkpt>
      <trkpt lat="43.30019" lon="6.54169">
        <ele>312.8</ele>
        <time>2022-02-04T18:57:25Z</time>
      </trkpt>
      <trkpt lat="43.30014" lon="6.54172">
        <ele>312.6</ele>
        <time>2022-02-04T18:57:26Z</time>
      </trkpt>
      <trkpt lat="43.3001" lon="6.54174">
        <ele>312.6</ele>
        <time>2022-02-04T18:57:27Z</time>
      </trkpt>
      <trkpt lat="43.30006" lon="6.54175">
        <ele>311.2</ele>
        <time>2022-02-04T18:57:28Z</time>
      </trkpt>
      <trkpt lat="43.30003" lon="6.54175">
        <ele>310</ele>
        <time>2022-02-04T18:57:29Z</time>
      </trkpt>
      <trkpt lat="43.3" lon="6.54177">
        <ele>309.2</ele>
        <time>2022-02-04T18:57:30Z</time>
      </trkpt>
      <trkpt lat="43.29997" lon="6.54178">
        <ele>308.8</ele>
        <time>2022-02-04T18:57:31Z</time>
      </trkpt>
      <trkpt lat="43.29993" lon="6.5418">
        <ele>308.6</ele>
        <time>2022-02-04T18:57:32Z</time>
      </trkpt>
      <trkpt lat="43.2999" lon="6.54183">
        <ele>307.4</ele>
        <time>2022-02-04T18:57:33Z</time>
      </trkpt>
      <trkpt lat="43.29988" lon="6.54186">
        <ele>306.4</ele>
        <time>2022-02-04T18:57:34Z</time>
      </trkpt>
      <trkpt lat="43.29986" lon="6.5419">
        <ele>305.2</ele>
        <time>2022-02-04T18:57:35Z</time>
      </trkpt>
      <trkpt lat="43.29983" lon="6.54192">
        <ele>304.4</ele>
        <time>2022-02-04T18:57:36Z</time>
      </trkpt>
      <trkpt lat="43.29979" lon="6.54193">
        <ele>303.8</ele>
        <time>2022-02-04T18:57:37Z</time>
      </trkpt>
      <trkpt lat="43.29974" lon="6.54196">
        <ele>302.6</ele>
        <time>2022-02-04T18:57:38Z</time>
      </trkpt>
      <trkpt lat="43.2997" lon="6.54198">
        <ele>301.8</ele>
        <time>2022-02-04T18:57:39Z</time>
      </trkpt>
      <trkpt lat="43.29968" lon="6.54199">
        <ele>301</ele>
        <time>2022-02-04T18:57:40Z</time>
      </trkpt>
      <trkpt lat="43.29964" lon="6.54202">
        <ele>300</ele>
        <time>2022-02-04T18:57:41Z</time>
      </trkpt>
      <trkpt lat="43.29964" lon="6.54202">
        <ele>299.2</ele>
        <time>2022-02-04T18:57:42Z</time>
      </trkpt>
      <trkpt lat="43.29964" lon="6.54202">
        <ele>298.6</ele>
        <time>2022-02-04T18:57:43Z</time>
      </trkpt>
      <trkpt lat="43.29963" lon="6.54203">
        <ele>298.4</ele>
        <time>2022-02-04T18:57:44Z</time>
      </trkpt>
      <trkpt lat="43.29962" lon="6.54204">
        <ele>298.2</ele>
        <time>2022-02-04T18:57:45Z</time>
      </trkpt>
      <trkpt lat="43.29961" lon="6.54206">
        <ele>298</ele>
        <time>2022-02-04T18:57:46Z</time>
      </trkpt>
      <trkpt lat="43.2996" lon="6.54209">
        <ele>297.6</ele>
        <time>2022-02-04T18:57:47Z</time>
      </trkpt>
      <trkpt lat="43.2996" lon="6.54212">
        <ele>297.4</ele>
        <time>2022-02-04T18:57:48Z</time>
      </trkpt>
      <trkpt lat="43.29961" lon="6.54214">
        <ele>295.8</ele>
        <time>2022-02-04T18:57:49Z</time>
      </trkpt>
      <trkpt lat="43.29964" lon="6.54216">
        <ele>294.4</ele>
        <time>2022-02-04T18:57:50Z</time>
      </trkpt>
      <trkpt lat="43.29965" lon="6.54219">
        <ele>293.2</ele>
        <time>2022-02-04T18:57:51Z</time>
      </trkpt>
      <trkpt lat="43.29965" lon="6.54223">
        <ele>292.4</ele>
        <time>2022-02-04T18:57:52Z</time>
      </trkpt>
      <trkpt lat="43.29964" lon="6.54226">
        <ele>291.4</ele>
        <time>2022-02-04T18:57:53Z</time>
      </trkpt>
      <trkpt lat="43.29962" lon="6.54228">
        <ele>290.2</ele>
        <time>2022-02-04T18:57:54Z</time>
      </trkpt>
      <trkpt lat="43.2996" lon="6.54231">
        <ele>288.8</ele>
        <time>2022-02-04T18:57:55Z</time>
      </trkpt>
      <trkpt lat="43.29961" lon="6.54233">
        <ele>287.8</ele>
        <time>2022-02-04T18:57:56Z</time>
      </trkpt>
      <trkpt lat="43.29961" lon="6.54237">
        <ele>287</ele>
        <time>2022-02-04T18:57:57Z</time>
      </trkpt>
      <trkpt lat="43.29961" lon="6.54239">
        <ele>286.4</ele>
        <time>2022-02-04T18:57:58Z</time>
      </trkpt>
      <trkpt lat="43.29961" lon="6.54241">
        <ele>284.8</ele>
        <time>2022-02-04T18:57:59Z</time>
      </trkpt>
      <trkpt lat="43.29961" lon="6.54242">
        <ele>283.8</ele>
        <time>2022-02-04T18:58:00Z</time>
      </trkpt>
      <trkpt lat="43.29961" lon="6.54244">
        <ele>283.2</ele>
        <time>2022-02-04T18:58:01Z</time>
      </trkpt>
      <trkpt lat="43.29962" lon="6.54247">
        <ele>282.4</ele>
        <time>2022-02-04T18:58:02Z</time>
      </trkpt>
      <trkpt lat="43.29962" lon="6.54251">
        <ele>282</ele>
        <time>2022-02-04T18:58:03Z</time>
      </trkpt>
      <trkpt lat="43.29961" lon="6.54255">
        <ele>280.6</ele>
        <time>2022-02-04T18:58:04Z</time>
      </trkpt>
      <trkpt lat="43.2996" lon="6.54258">
        <ele>279.2</ele>
        <time>2022-02-04T18:58:05Z</time>
      </trkpt>
      <trkpt lat="43.29959" lon="6.54261">
        <ele>278.2</ele>
        <time>2022-02-04T18:58:06Z</time>
      </trkpt>
      <trkpt lat="43.29956" lon="6.54264">
        <ele>277</ele>
        <time>2022-02-04T18:58:07Z</time>
      </trkpt>
      <trkpt lat="43.29954" lon="6.54266">
        <ele>276.2</ele>
        <time>2022-02-04T18:58:08Z</time>
      </trkpt>
      <trkpt lat="43.29951" lon="6.54267">
        <ele>275</ele>
        <time>2022-02-04T18:58:09Z</time>
      </trkpt>
      <trkpt lat="43.29947" lon="6.54267">
        <ele>274</ele>
        <time>2022-02-04T18:58:10Z</time>
      </trkpt>
      <trkpt lat="43.29943" lon="6.54265">
        <ele>272.6</ele>
        <time>2022-02-04T18:58:11Z</time>
      </trkpt>
      <trkpt lat="43.29938" lon="6.54263">
        <ele>271.4</ele>
        <time>2022-02-04T18:58:12Z</time>
      </trkpt>
      <trkpt lat="43.29935" lon="6.54263">
        <ele>270.8</ele>
        <time>2022-02-04T18:58:13Z</time>
      </trkpt>
      <trkpt lat="43.29931" lon="6.54263">
        <ele>270.2</ele>
        <time>2022-02-04T18:58:14Z</time>
      </trkpt>
      <trkpt lat="43.29927" lon="6.54263">
        <ele>269.6</ele>
        <time>2022-02-04T18:58:15Z</time>
      </trkpt>
      <trkpt lat="43.29923" lon="6.54261">
        <ele>269.2</ele>
        <time>2022-02-04T18:58:16Z</time>
      </trkpt>
      <trkpt lat="43.29919" lon="6.5426">
        <ele>268.8</ele>
        <time>2022-02-04T18:58:17Z</time>
      </trkpt>
      <trkpt lat="43.29915" lon="6.54258">
        <ele>268.6</ele>
        <time>2022-02-04T18:58:18Z</time>
      </trkpt>
      <trkpt lat="43.29911" lon="6.54257">
        <ele>268.6</ele>
        <time>2022-02-04T18:58:19Z</time>
      </trkpt>
      <trkpt lat="43.29908" lon="6.54256">
        <ele>268.6</ele>
        <time>2022-02-04T18:58:20Z</time>
      </trkpt>
      <trkpt lat="43.29906" lon="6.54256">
        <ele>268.4</ele>
        <time>2022-02-04T18:58:21Z</time>
      </trkpt>
      <trkpt lat="43.29904" lon="6.54256">
        <ele>268.4</ele>
        <time>2022-02-04T18:58:22Z</time>
      </trkpt>
      <trkpt lat="43.29902" lon="6.54257">
        <ele>268.2</ele>
        <time>2022-02-04T18:58:23Z</time>
      </trkpt>
      <trkpt lat="43.29901" lon="6.54259">
        <ele>268.2</ele>
        <time>2022-02-04T18:58:24Z</time>
      </trkpt>
      <trkpt lat="43.29901" lon="6.54262">
        <ele>267</ele>
        <time>2022-02-04T18:58:25Z</time>
      </trkpt>
      <trkpt lat="43.29903" lon="6.54265">
        <ele>266.2</ele>
        <time>2022-02-04T18:58:26Z</time>
      </trkpt>
      <trkpt lat="43.29904" lon="6.54269">
        <ele>265.6</ele>
        <time>2022-02-04T18:58:27Z</time>
      </trkpt>
      <trkpt lat="43.29904" lon="6.54271">
        <ele>264.8</ele>
        <time>2022-02-04T18:58:28Z</time>
      </trkpt>
      <trkpt lat="43.29903" lon="6.54273">
        <ele>264.4</ele>
        <time>2022-02-04T18:58:29Z</time>
      </trkpt>
      <trkpt lat="43.29902" lon="6.54275">
        <ele>263.6</ele>
        <time>2022-02-04T18:58:30Z</time>
      </trkpt>
      <trkpt lat="43.29899" lon="6.54275">
        <ele>263</ele>
        <time>2022-02-04T18:58:31Z</time>
      </trkpt>
      <trkpt lat="43.29896" lon="6.54274">
        <ele>261.6</ele>
        <time>2022-02-04T18:58:32Z</time>
      </trkpt>
      <trkpt lat="43.29894" lon="6.54274">
        <ele>260.8</ele>
        <time>2022-02-04T18:58:33Z</time>
      </trkpt>
      <trkpt lat="43.29891" lon="6.54275">
        <ele>259.8</ele>
        <time>2022-02-04T18:58:34Z</time>
      </trkpt>
      <trkpt lat="43.29889" lon="6.54275">
        <ele>259</ele>
        <time>2022-02-04T18:58:35Z</time>
      </trkpt>
      <trkpt lat="43.29887" lon="6.54276">
        <ele>258.4</ele>
        <time>2022-02-04T18:58:36Z</time>
      </trkpt>
      <trkpt lat="43.29885" lon="6.54277">
        <ele>257.8</ele>
        <time>2022-02-04T18:58:37Z</time>
      </trkpt>
      <trkpt lat="43.29885" lon="6.54278">
        <ele>257</ele>
        <time>2022-02-04T18:58:38Z</time>
      </trkpt>
      <trkpt lat="43.29885" lon="6.54278">
        <ele>256.8</ele>
        <time>2022-02-04T18:58:39Z</time>
      </trkpt>
      <trkpt lat="43.29885" lon="6.5428">
        <ele>256.6</ele>
        <time>2022-02-04T18:58:40Z</time>
      </trkpt>
      <trkpt lat="43.29887" lon="6.54283">
        <ele>256.2</ele>
        <time>2022-02-04T18:58:41Z</time>
      </trkpt>
      <trkpt lat="43.29889" lon="6.54285">
        <ele>256</ele>
        <time>2022-02-04T18:58:42Z</time>
      </trkpt>
      <trkpt lat="43.29892" lon="6.54287">
        <ele>256</ele>
        <time>2022-02-04T18:58:43Z</time>
      </trkpt>
      <trkpt lat="43.29896" lon="6.54291">
        <ele>255.8</ele>
        <time>2022-02-04T18:58:44Z</time>
      </trkpt>
      <trkpt lat="43.29902" lon="6.54293">
        <ele>255.8</ele>
        <time>2022-02-04T18:58:45Z</time>
      </trkpt>
      <trkpt lat="43.29907" lon="6.54298">
        <ele>255.6</ele>
        <time>2022-02-04T18:58:46Z</time>
      </trkpt>
      <trkpt lat="43.29913" lon="6.54302">
        <ele>255.2</ele>
        <time>2022-02-04T18:58:47Z</time>
      </trkpt>
      <trkpt lat="43.29916" lon="6.54307">
        <ele>254.8</ele>
        <time>2022-02-04T18:58:48Z</time>
      </trkpt>
      <trkpt lat="43.29916" lon="6.5431">
        <ele>254.6</ele>
        <time>2022-02-04T18:58:49Z</time>
      </trkpt>
      <trkpt lat="43.29913" lon="6.54315">
        <ele>254.6</ele>
        <time>2022-02-04T18:58:50Z</time>
      </trkpt>
      <trkpt lat="43.29909" lon="6.54319">
        <ele>254.4</ele>
        <time>2022-02-04T18:58:51Z</time>
      </trkpt>
      <trkpt lat="43.29905" lon="6.54325">
        <ele>254.2</ele>
        <time>2022-02-04T18:58:52Z</time>
      </trkpt>
      <trkpt lat="43.29902" lon="6.54333">
        <ele>253.8</ele>
        <time>2022-02-04T18:58:53Z</time>
      </trkpt>
      <trkpt lat="43.29899" lon="6.54339">
        <ele>253.6</ele>
        <time>2022-02-04T18:58:54Z</time>
      </trkpt>
      <trkpt lat="43.29895" lon="6.54344">
        <ele>253.4</ele>
        <time>2022-02-04T18:58:55Z</time>
      </trkpt>
      <trkpt lat="43.29891" lon="6.54349">
        <ele>253.4</ele>
        <time>2022-02-04T18:58:56Z</time>
      </trkpt>
      <trkpt lat="43.29889" lon="6.54353">
        <ele>253.4</ele>
        <time>2022-02-04T18:58:57Z</time>
      </trkpt>
      <trkpt lat="43.29887" lon="6.54355">
        <ele>253.4</ele>
        <time>2022-02-04T18:58:58Z</time>
      </trkpt>
      <trkpt lat="43.29886" lon="6.54358">
        <ele>254.4</ele>
        <time>2022-02-04T18:58:59Z</time>
      </trkpt>
      <trkpt lat="43.29884" lon="6.54361">
        <ele>254.8</ele>
        <time>2022-02-04T18:59:00Z</time>
      </trkpt>
      <trkpt lat="43.29884" lon="6.54365">
        <ele>255.6</ele>
        <time>2022-02-04T18:59:01Z</time>
      </trkpt>
      <trkpt lat="43.29883" lon="6.5437">
        <ele>256</ele>
        <time>2022-02-04T18:59:02Z</time>
      </trkpt>
      <trkpt lat="43.29882" lon="6.54375">
        <ele>256.4</ele>
        <time>2022-02-04T18:59:03Z</time>
      </trkpt>
      <trkpt lat="43.29881" lon="6.54379">
        <ele>256.6</ele>
        <time>2022-02-04T18:59:04Z</time>
      </trkpt>
      <trkpt lat="43.2988" lon="6.54386">
        <ele>256.8</ele>
        <time>2022-02-04T18:59:05Z</time>
      </trkpt>
      <trkpt lat="43.2988" lon="6.5439">
        <ele>257</ele>
        <time>2022-02-04T18:59:06Z</time>
      </trkpt>
      <trkpt lat="43.29879" lon="6.54394">
        <ele>257</ele>
        <time>2022-02-04T18:59:07Z</time>
      </trkpt>
      <trkpt lat="43.29877" lon="6.54398">
        <ele>257</ele>
        <time>2022-02-04T18:59:08Z</time>
      </trkpt>
      <trkpt lat="43.29876" lon="6.54404">
        <ele>257.2</ele>
        <time>2022-02-04T18:59:09Z</time>
      </trkpt>
      <trkpt lat="43.29876" lon="6.5441">
        <ele>257.2</ele>
        <time>2022-02-04T18:59:10Z</time>
      </trkpt>
      <trkpt lat="43.29876" lon="6.54416">
        <ele>257</ele>
        <time>2022-02-04T18:59:11Z</time>
      </trkpt>
      <trkpt lat="43.29876" lon="6.5442">
        <ele>257</ele>
        <time>2022-02-04T18:59:12Z</time>
      </trkpt>
      <trkpt lat="43.29877" lon="6.54426">
        <ele>257</ele>
        <time>2022-02-04T18:59:13Z</time>
      </trkpt>
      <trkpt lat="43.29877" lon="6.54431">
        <ele>257.2</ele>
        <time>2022-02-04T18:59:14Z</time>
      </trkpt>
      <trkpt lat="43.29877" lon="6.54436">
        <ele>257.2</ele>
        <time>2022-02-04T18:59:15Z</time>
      </trkpt>
      <trkpt lat="43.29878" lon="6.54441">
        <ele>257.4</ele>
        <time>2022-02-04T18:59:16Z</time>
      </trkpt>
      <trkpt lat="43.29878" lon="6.54444">
        <ele>257.6</ele>
        <time>2022-02-04T18:59:17Z</time>
      </trkpt>
      <trkpt lat="43.29878" lon="6.54448">
        <ele>257.8</ele>
        <time>2022-02-04T18:59:18Z</time>
      </trkpt>
      <trkpt lat="43.29878" lon="6.54453">
        <ele>257.8</ele>
        <time>2022-02-04T18:59:19Z</time>
      </trkpt>
      <trkpt lat="43.29878" lon="6.54459">
        <ele>258</ele>
        <time>2022-02-04T18:59:20Z</time>
      </trkpt>
      <trkpt lat="43.29878" lon="6.54464">
        <ele>257.8</ele>
        <time>2022-02-04T18:59:21Z</time>
      </trkpt>
      <trkpt lat="43.29879" lon="6.54469">
        <ele>257.8</ele>
        <time>2022-02-04T18:59:22Z</time>
      </trkpt>
      <trkpt lat="43.29878" lon="6.54475">
        <ele>257.4</ele>
        <time>2022-02-04T18:59:23Z</time>
      </trkpt>
      <trkpt lat="43.29879" lon="6.54482">
        <ele>257.2</ele>
        <time>2022-02-04T18:59:24Z</time>
      </trkpt>
      <trkpt lat="43.29879" lon="6.5449">
        <ele>257</ele>
        <time>2022-02-04T18:59:25Z</time>
      </trkpt>
      <trkpt lat="43.2988" lon="6.54497">
        <ele>257</ele>
        <time>2022-02-04T18:59:26Z</time>
      </trkpt>
      <trkpt lat="43.29881" lon="6.54504">
        <ele>257.2</ele>
        <time>2022-02-04T18:59:27Z</time>
      </trkpt>
      <trkpt lat="43.29881" lon="6.54511">
        <ele>257.2</ele>
        <time>2022-02-04T18:59:28Z</time>
      </trkpt>
      <trkpt lat="43.29883" lon="6.54516">
        <ele>257.2</ele>
        <time>2022-02-04T18:59:29Z</time>
      </trkpt>
      <trkpt lat="43.29883" lon="6.54522">
        <ele>257.4</ele>
        <time>2022-02-04T18:59:30Z</time>
      </trkpt>
      <trkpt lat="43.29884" lon="6.54528">
        <ele>257.6</ele>
        <time>2022-02-04T18:59:31Z</time>
      </trkpt>
      <trkpt lat="43.29884" lon="6.54534">
        <ele>257.8</ele>
        <time>2022-02-04T18:59:32Z</time>
      </trkpt>
      <trkpt lat="43.29884" lon="6.54538">
        <ele>257.8</ele>
        <time>2022-02-04T18:59:33Z</time>
      </trkpt>
      <trkpt lat="43.29883" lon="6.54543">
        <ele>257.4</ele>
        <time>2022-02-04T18:59:34Z</time>
      </trkpt>
      <trkpt lat="43.29884" lon="6.54548">
        <ele>257.2</ele>
        <time>2022-02-04T18:59:35Z</time>
      </trkpt>
      <trkpt lat="43.29886" lon="6.54553">
        <ele>257.2</ele>
        <time>2022-02-04T18:59:36Z</time>
      </trkpt>
      <trkpt lat="43.29888" lon="6.54559">
        <ele>257</ele>
        <time>2022-02-04T18:59:37Z</time>
      </trkpt>
      <trkpt lat="43.29889" lon="6.54566">
        <ele>256.8</ele>
        <time>2022-02-04T18:59:38Z</time>
      </trkpt>
      <trkpt lat="43.29889" lon="6.54572">
        <ele>256.4</ele>
        <time>2022-02-04T18:59:39Z</time>
      </trkpt>
      <trkpt lat="43.2989" lon="6.54577">
        <ele>255.6</ele>
        <time>2022-02-04T18:59:40Z</time>
      </trkpt>
      <trkpt lat="43.2989" lon="6.54581">
        <ele>255</ele>
        <time>2022-02-04T18:59:41Z</time>
      </trkpt>
      <trkpt lat="43.29892" lon="6.54585">
        <ele>254.8</ele>
        <time>2022-02-04T18:59:42Z</time>
      </trkpt>
      <trkpt lat="43.29895" lon="6.54588">
        <ele>254.8</ele>
        <time>2022-02-04T18:59:43Z</time>
      </trkpt>
      <trkpt lat="43.29897" lon="6.54591">
        <ele>254.6</ele>
        <time>2022-02-04T18:59:44Z</time>
      </trkpt>
      <trkpt lat="43.29899" lon="6.54594">
        <ele>254.6</ele>
        <time>2022-02-04T18:59:45Z</time>
      </trkpt>
      <trkpt lat="43.29901" lon="6.54597">
        <ele>254.6</ele>
        <time>2022-02-04T18:59:46Z</time>
      </trkpt>
      <trkpt lat="43.29904" lon="6.54599">
        <ele>254.6</ele>
        <time>2022-02-04T18:59:47Z</time>
      </trkpt>
      <trkpt lat="43.29906" lon="6.54601">
        <ele>254.6</ele>
        <time>2022-02-04T18:59:48Z</time>
      </trkpt>
      <trkpt lat="43.29907" lon="6.54603">
        <ele>254.4</ele>
        <time>2022-02-04T18:59:49Z</time>
      </trkpt>
      <trkpt lat="43.29907" lon="6.54606">
        <ele>254.4</ele>
        <time>2022-02-04T18:59:50Z</time>
      </trkpt>
      <trkpt lat="43.29907" lon="6.54609">
        <ele>254.2</ele>
        <time>2022-02-04T18:59:51Z</time>
      </trkpt>
      <trkpt lat="43.29907" lon="6.54612">
        <ele>253.4</ele>
        <time>2022-02-04T18:59:52Z</time>
      </trkpt>
      <trkpt lat="43.29908" lon="6.54614">
        <ele>252.4</ele>
        <time>2022-02-04T18:59:53Z</time>
      </trkpt>
      <trkpt lat="43.29908" lon="6.54618">
        <ele>251.8</ele>
        <time>2022-02-04T18:59:54Z</time>
      </trkpt>
      <trkpt lat="43.29907" lon="6.54621">
        <ele>251</ele>
        <time>2022-02-04T18:59:55Z</time>
      </trkpt>
      <trkpt lat="43.29907" lon="6.54624">
        <ele>249.8</ele>
        <time>2022-02-04T18:59:56Z</time>
      </trkpt>
      <trkpt lat="43.29907" lon="6.54627">
        <ele>248.8</ele>
        <time>2022-02-04T18:59:57Z</time>
      </trkpt>
      <trkpt lat="43.29909" lon="6.54629">
        <ele>248.2</ele>
        <time>2022-02-04T18:59:58Z</time>
      </trkpt>
      <trkpt lat="43.2991" lon="6.5463">
        <ele>247.4</ele>
        <time>2022-02-04T18:59:59Z</time>
      </trkpt>
      <trkpt lat="43.29913" lon="6.54633">
        <ele>246.8</ele>
        <time>2022-02-04T19:00:00Z</time>
      </trkpt>
      <trkpt lat="43.29916" lon="6.54636">
        <ele>245.8</ele>
        <time>2022-02-04T19:00:01Z</time>
      </trkpt>
      <trkpt lat="43.2992" lon="6.54639">
        <ele>244.8</ele>
        <time>2022-02-04T19:00:02Z</time>
      </trkpt>
      <trkpt lat="43.29924" lon="6.54641">
        <ele>243.8</ele>
        <time>2022-02-04T19:00:03Z</time>
      </trkpt>
      <trkpt lat="43.29927" lon="6.54643">
        <ele>242.6</ele>
        <time>2022-02-04T19:00:04Z</time>
      </trkpt>
      <trkpt lat="43.29928" lon="6.54645">
        <ele>241.6</ele>
        <time>2022-02-04T19:00:05Z</time>
      </trkpt>
      <trkpt lat="43.29926" lon="6.54647">
        <ele>241</ele>
        <time>2022-02-04T19:00:06Z</time>
      </trkpt>
      <trkpt lat="43.29924" lon="6.54647">
        <ele>239.2</ele>
        <time>2022-02-04T19:00:07Z</time>
      </trkpt>
      <trkpt lat="43.29922" lon="6.54648">
        <ele>238.2</ele>
        <time>2022-02-04T19:00:08Z</time>
      </trkpt>
      <trkpt lat="43.29921" lon="6.54649">
        <ele>237.4</ele>
        <time>2022-02-04T19:00:09Z</time>
      </trkpt>
      <trkpt lat="43.29921" lon="6.54649">
        <ele>237</ele>
        <time>2022-02-04T19:00:10Z</time>
      </trkpt>
      <trkpt lat="43.29921" lon="6.5465">
        <ele>236.6</ele>
        <time>2022-02-04T19:00:11Z</time>
      </trkpt>
      <trkpt lat="43.2992" lon="6.54651">
        <ele>236.4</ele>
        <time>2022-02-04T19:00:12Z</time>
      </trkpt>
      <trkpt lat="43.29919" lon="6.54652">
        <ele>236</ele>
        <time>2022-02-04T19:00:13Z</time>
      </trkpt>
      <trkpt lat="43.29918" lon="6.54652">
        <ele>235.8</ele>
        <time>2022-02-04T19:00:14Z</time>
      </trkpt>
      <trkpt lat="43.29918" lon="6.54652">
        <ele>235.4</ele>
        <time>2022-02-04T19:00:15Z</time>
      </trkpt>
      <trkpt lat="43.29918" lon="6.54652">
        <ele>235.2</ele>
        <time>2022-02-04T19:00:16Z</time>
      </trkpt>
      <trkpt lat="43.29917" lon="6.54653">
        <ele>235</ele>
        <time>2022-02-04T19:00:17Z</time>
      </trkpt>
      <trkpt lat="43.29916" lon="6.54654">
        <ele>234.8</ele>
        <time>2022-02-04T19:00:18Z</time>
      </trkpt>
      <trkpt lat="43.29914" lon="6.54657">
        <ele>234.2</ele>
        <time>2022-02-04T19:00:19Z</time>
      </trkpt>
      <trkpt lat="43.29913" lon="6.54659">
        <ele>233</ele>
        <time>2022-02-04T19:00:20Z</time>
      </trkpt>
      <trkpt lat="43.29913" lon="6.54661">
        <ele>232.2</ele>
        <time>2022-02-04T19:00:21Z</time>
      </trkpt>
      <trkpt lat="43.29913" lon="6.54663">
        <ele>231.2</ele>
        <time>2022-02-04T19:00:22Z</time>
      </trkpt>
      <trkpt lat="43.29913" lon="6.54665">
        <ele>230.6</ele>
        <time>2022-02-04T19:00:23Z</time>
      </trkpt>
      <trkpt lat="43.29912" lon="6.54667">
        <ele>230</ele>
        <time>2022-02-04T19:00:24Z</time>
      </trkpt>
      <trkpt lat="43.2991" lon="6.54669">
        <ele>229.6</ele>
        <time>2022-02-04T19:00:25Z</time>
      </trkpt>
      <trkpt lat="43.29908" lon="6.5467">
        <ele>229</ele>
        <time>2022-02-04T19:00:26Z</time>
      </trkpt>
      <trkpt lat="43.29904" lon="6.54672">
        <ele>228.4</ele>
        <time>2022-02-04T19:00:27Z</time>
      </trkpt>
      <trkpt lat="43.29901" lon="6.54673">
        <ele>227.4</ele>
        <time>2022-02-04T19:00:28Z</time>
      </trkpt>
      <trkpt lat="43.29899" lon="6.54674">
        <ele>226.4</ele>
        <time>2022-02-04T19:00:29Z</time>
      </trkpt>
      <trkpt lat="43.29896" lon="6.54675">
        <ele>225.4</ele>
        <time>2022-02-04T19:00:30Z</time>
      </trkpt>
      <trkpt lat="43.29893" lon="6.54676">
        <ele>225</ele>
        <time>2022-02-04T19:00:31Z</time>
      </trkpt>
      <trkpt lat="43.29891" lon="6.54675">
        <ele>224</ele>
        <time>2022-02-04T19:00:32Z</time>
      </trkpt>
      <trkpt lat="43.2989" lon="6.54678">
        <ele>223.6</ele>
        <time>2022-02-04T19:00:33Z</time>
      </trkpt>
      <trkpt lat="43.29887" lon="6.54683">
        <ele>222.6</ele>
        <time>2022-02-04T19:00:34Z</time>
      </trkpt>
      <trkpt lat="43.29885" lon="6.54688">
        <ele>221.2</ele>
        <time>2022-02-04T19:00:35Z</time>
      </trkpt>
      <trkpt lat="43.29882" lon="6.5469">
        <ele>220</ele>
        <time>2022-02-04T19:00:36Z</time>
      </trkpt>
      <trkpt lat="43.29879" lon="6.54691">
        <ele>218.8</ele>
        <time>2022-02-04T19:00:37Z</time>
      </trkpt>
      <trkpt lat="43.29876" lon="6.54693">
        <ele>217.6</ele>
        <time>2022-02-04T19:00:38Z</time>
      </trkpt>
      <trkpt lat="43.29872" lon="6.54693">
        <ele>215.8</ele>
        <time>2022-02-04T19:00:39Z</time>
      </trkpt>
      <trkpt lat="43.29868" lon="6.54692">
        <ele>214.8</ele>
        <time>2022-02-04T19:00:40Z</time>
      </trkpt>
      <trkpt lat="43.29863" lon="6.5469">
        <ele>214.2</ele>
        <time>2022-02-04T19:00:41Z</time>
      </trkpt>
      <trkpt lat="43.29858" lon="6.54688">
        <ele>213.4</ele>
        <time>2022-02-04T19:00:42Z</time>
      </trkpt>
      <trkpt lat="43.29854" lon="6.54686">
        <ele>212.6</ele>
        <time>2022-02-04T19:00:43Z</time>
      </trkpt>
      <trkpt lat="43.2985" lon="6.54687">
        <ele>212</ele>
        <time>2022-02-04T19:00:44Z</time>
      </trkpt>
      <trkpt lat="43.29846" lon="6.54688">
        <ele>211.4</ele>
        <time>2022-02-04T19:00:45Z</time>
      </trkpt>
      <trkpt lat="43.2984" lon="6.54691">
        <ele>209.8</ele>
        <time>2022-02-04T19:00:46Z</time>
      </trkpt>
      <trkpt lat="43.29833" lon="6.54694">
        <ele>208.4</ele>
        <time>2022-02-04T19:00:47Z</time>
      </trkpt>
      <trkpt lat="43.29829" lon="6.54695">
        <ele>206.8</ele>
        <time>2022-02-04T19:00:48Z</time>
      </trkpt>
      <trkpt lat="43.29826" lon="6.54696">
        <ele>205</ele>
        <time>2022-02-04T19:00:49Z</time>
      </trkpt>
      <trkpt lat="43.29824" lon="6.54696">
        <ele>203.6</ele>
        <time>2022-02-04T19:00:50Z</time>
      </trkpt>
      <trkpt lat="43.29824" lon="6.54696">
        <ele>202.8</ele>
        <time>2022-02-04T19:00:51Z</time>
      </trkpt>
      <trkpt lat="43.29824" lon="6.54696">
        <ele>202.4</ele>
        <time>2022-02-04T19:00:52Z</time>
      </trkpt>
      <trkpt lat="43.29824" lon="6.54695">
        <ele>202.2</ele>
        <time>2022-02-04T19:00:53Z</time>
      </trkpt>
      <trkpt lat="43.29824" lon="6.54694">
        <ele>202.2</ele>
        <time>2022-02-04T19:00:54Z</time>
      </trkpt>
      <trkpt lat="43.29823" lon="6.54693">
        <ele>202</ele>
        <time>2022-02-04T19:00:55Z</time>
      </trkpt>
      <trkpt lat="43.29822" lon="6.54691">
        <ele>202</ele>
        <time>2022-02-04T19:00:56Z</time>
      </trkpt>
      <trkpt lat="43.2982" lon="6.54691">
        <ele>202</ele>
        <time>2022-02-04T19:00:57Z</time>
      </trkpt>
      <trkpt lat="43.29818" lon="6.54693">
        <ele>202</ele>
        <time>2022-02-04T19:00:58Z</time>
      </trkpt>
      <trkpt lat="43.29814" lon="6.54695">
        <ele>201.8</ele>
        <time>2022-02-04T19:00:59Z</time>
      </trkpt>
      <trkpt lat="43.29809" lon="6.54698">
        <ele>201.6</ele>
        <time>2022-02-04T19:01:00Z</time>
      </trkpt>
      <trkpt lat="43.29802" lon="6.54701">
        <ele>199.8</ele>
        <time>2022-02-04T19:01:01Z</time>
      </trkpt>
      <trkpt lat="43.29797" lon="6.54704">
        <ele>198.6</ele>
        <time>2022-02-04T19:01:02Z</time>
      </trkpt>
      <trkpt lat="43.29794" lon="6.54706">
        <ele>197.8</ele>
        <time>2022-02-04T19:01:03Z</time>
      </trkpt>
      <trkpt lat="43.2979" lon="6.54708">
        <ele>197.4</ele>
        <time>2022-02-04T19:01:04Z</time>
      </trkpt>
      <trkpt lat="43.29786" lon="6.54712">
        <ele>196.8</ele>
        <time>2022-02-04T19:01:05Z</time>
      </trkpt>
      <trkpt lat="43.29782" lon="6.54716">
        <ele>196.2</ele>
        <time>2022-02-04T19:01:06Z</time>
      </trkpt>
      <trkpt lat="43.2978" lon="6.54719">
        <ele>196</ele>
        <time>2022-02-04T19:01:07Z</time>
      </trkpt>
      <trkpt lat="43.29777" lon="6.5472">
        <ele>195.8</ele>
        <time>2022-02-04T19:01:08Z</time>
      </trkpt>
      <trkpt lat="43.29775" lon="6.54719">
        <ele>195.2</ele>
        <time>2022-02-04T19:01:09Z</time>
      </trkpt>
      <trkpt lat="43.2977" lon="6.54718">
        <ele>194.6</ele>
        <time>2022-02-04T19:01:10Z</time>
      </trkpt>
      <trkpt lat="43.29763" lon="6.54717">
        <ele>193.4</ele>
        <time>2022-02-04T19:01:11Z</time>
      </trkpt>
      <trkpt lat="43.29757" lon="6.54717">
        <ele>192.6</ele>
        <time>2022-02-04T19:01:12Z</time>
      </trkpt>
      <trkpt lat="43.29751" lon="6.54718">
        <ele>192</ele>
        <time>2022-02-04T19:01:13Z</time>
      </trkpt>
      <trkpt lat="43.29745" lon="6.54717">
        <ele>191.8</ele>
        <time>2022-02-04T19:01:14Z</time>
      </trkpt>
      <trkpt lat="43.29739" lon="6.54716">
        <ele>191.6</ele>
        <time>2022-02-04T19:01:15Z</time>
      </trkpt>
      <trkpt lat="43.29735" lon="6.54715">
        <ele>192.6</ele>
        <time>2022-02-04T19:01:16Z</time>
      </trkpt>
      <trkpt lat="43.29731" lon="6.54713">
        <ele>193.2</ele>
        <time>2022-02-04T19:01:17Z</time>
      </trkpt>
      <trkpt lat="43.29729" lon="6.54711">
        <ele>193.8</ele>
        <time>2022-02-04T19:01:18Z</time>
      </trkpt>
      <trkpt lat="43.29728" lon="6.5471">
        <ele>194.4</ele>
        <time>2022-02-04T19:01:19Z</time>
      </trkpt>
      <trkpt lat="43.29727" lon="6.54709">
        <ele>194.8</ele>
        <time>2022-02-04T19:01:20Z</time>
      </trkpt>
      <trkpt lat="43.29727" lon="6.54709">
        <ele>195.2</ele>
        <time>2022-02-04T19:01:21Z</time>
      </trkpt>
      <trkpt lat="43.29727" lon="6.54709">
        <ele>195.6</ele>
        <time>2022-02-04T19:01:22Z</time>
      </trkpt>
      <trkpt lat="43.29727" lon="6.54709">
        <ele>195.8</ele>
        <time>2022-02-04T19:01:23Z</time>
      </trkpt>
      <trkpt lat="43.29727" lon="6.54709">
        <ele>195.8</ele>
        <time>2022-02-04T19:01:24Z</time>
      </trkpt>
      <trkpt lat="43.29727" lon="6.54709">
        <ele>195.8</ele>
        <time>2022-02-04T19:01:25Z</time>
      </trkpt>
      <trkpt lat="43.29727" lon="6.54709">
        <ele>195.8</ele>
        <time>2022-02-04T19:01:26Z</time>
      </trkpt>
      <trkpt lat="43.29727" lon="6.54709">
        <ele>195.8</ele>
        <time>2022-02-04T19:01:27Z</time>
      </trkpt>
      <trkpt lat="43.29727" lon="6.54709">
        <ele>195.6</ele>
        <time>2022-02-04T19:01:28Z</time>
      </trkpt>
      <trkpt lat="43.29727" lon="6.54709">
        <ele>195.6</ele>
        <time>2022-02-04T19:01:29Z</time>
      </trkpt>
      <trkpt lat="43.29727" lon="6.54709">
        <ele>195.6</ele>
        <time>2022-02-04T19:01:30Z</time>
      </trkpt>
      <trkpt lat="43.29727" lon="6.54709">
        <ele>195.6</ele>
        <time>2022-02-04T19:01:31Z</time>
      </trkpt>
      <trkpt lat="43.29727" lon="6.54709">
        <ele>195.4</ele>
        <time>2022-02-04T19:01:32Z</time>
      </trkpt>
      <trkpt lat="43.29726" lon="6.5471">
        <ele>195.4</ele>
        <time>2022-02-04T19:01:33Z</time>
      </trkpt>
      <trkpt lat="43.29724" lon="6.54711">
        <ele>195.4</ele>
        <time>2022-02-04T19:01:34Z</time>
      </trkpt>
      <trkpt lat="43.29722" lon="6.54713">
        <ele>195.4</ele>
        <time>2022-02-04T19:01:35Z</time>
      </trkpt>
      <trkpt lat="43.29719" lon="6.54715">
        <ele>195.4</ele>
        <time>2022-02-04T19:01:36Z</time>
      </trkpt>
      <trkpt lat="43.29717" lon="6.54717">
        <ele>195.4</ele>
        <time>2022-02-04T19:01:37Z</time>
      </trkpt>
      <trkpt lat="43.29716" lon="6.5472">
        <ele>195.2</ele>
        <time>2022-02-04T19:01:38Z</time>
      </trkpt>
      <trkpt lat="43.29714" lon="6.54723">
        <ele>195.2</ele>
        <time>2022-02-04T19:01:39Z</time>
      </trkpt>
      <trkpt lat="43.29713" lon="6.54727">
        <ele>195.2</ele>
        <time>2022-02-04T19:01:40Z</time>
      </trkpt>
      <trkpt lat="43.29712" lon="6.5473">
        <ele>195.2</ele>
        <time>2022-02-04T19:01:41Z</time>
      </trkpt>
      <trkpt lat="43.29709" lon="6.54732">
        <ele>195.2</ele>
        <time>2022-02-04T19:01:42Z</time>
      </trkpt>
      <trkpt lat="43.29707" lon="6.54732">
        <ele>195.2</ele>
        <time>2022-02-04T19:01:43Z</time>
      </trkpt>
      <trkpt lat="43.29704" lon="6.54731">
        <ele>195.2</ele>
        <time>2022-02-04T19:01:44Z</time>
      </trkpt>
      <trkpt lat="43.29702" lon="6.54729">
        <ele>195.2</ele>
        <time>2022-02-04T19:01:45Z</time>
      </trkpt>
      <trkpt lat="43.29698" lon="6.54729">
        <ele>194.6</ele>
        <time>2022-02-04T19:01:46Z</time>
      </trkpt>
      <trkpt lat="43.29696" lon="6.5473">
        <ele>194</ele>
        <time>2022-02-04T19:01:47Z</time>
      </trkpt>
      <trkpt lat="43.29692" lon="6.54731">
        <ele>193.4</ele>
        <time>2022-02-04T19:01:48Z</time>
      </trkpt>
      <trkpt lat="43.29688" lon="6.54733">
        <ele>193</ele>
        <time>2022-02-04T19:01:49Z</time>
      </trkpt>
      <trkpt lat="43.29684" lon="6.54733">
        <ele>192.2</ele>
        <time>2022-02-04T19:01:50Z</time>
      </trkpt>
      <trkpt lat="43.29679" lon="6.54731">
        <ele>191.8</ele>
        <time>2022-02-04T19:01:51Z</time>
      </trkpt>
      <trkpt lat="43.29675" lon="6.54729">
        <ele>191.4</ele>
        <time>2022-02-04T19:01:52Z</time>
      </trkpt>
      <trkpt lat="43.29673" lon="6.54725">
        <ele>191</ele>
        <time>2022-02-04T19:01:53Z</time>
      </trkpt>
      <trkpt lat="43.29671" lon="6.54721">
        <ele>190.4</ele>
        <time>2022-02-04T19:01:54Z</time>
      </trkpt>
      <trkpt lat="43.29668" lon="6.54718">
        <ele>189.8</ele>
        <time>2022-02-04T19:01:55Z</time>
      </trkpt>
      <trkpt lat="43.29665" lon="6.54717">
        <ele>188.8</ele>
        <time>2022-02-04T19:01:56Z</time>
      </trkpt>
      <trkpt lat="43.29661" lon="6.54716">
        <ele>187.2</ele>
        <time>2022-02-04T19:01:57Z</time>
      </trkpt>
      <trkpt lat="43.29657" lon="6.54716">
        <ele>186</ele>
        <time>2022-02-04T19:01:58Z</time>
      </trkpt>
      <trkpt lat="43.29653" lon="6.54715">
        <ele>184.8</ele>
        <time>2022-02-04T19:01:59Z</time>
      </trkpt>
      <trkpt lat="43.29648" lon="6.54716">
        <ele>184.2</ele>
        <time>2022-02-04T19:02:00Z</time>
      </trkpt>
      <trkpt lat="43.29643" lon="6.54717">
        <ele>182.2</ele>
        <time>2022-02-04T19:02:01Z</time>
      </trkpt>
      <trkpt lat="43.29637" lon="6.54718">
        <ele>180.6</ele>
        <time>2022-02-04T19:02:02Z</time>
      </trkpt>
      <trkpt lat="43.29632" lon="6.54718">
        <ele>179.4</ele>
        <time>2022-02-04T19:02:03Z</time>
      </trkpt>
      <trkpt lat="43.29629" lon="6.54718">
        <ele>178.4</ele>
        <time>2022-02-04T19:02:04Z</time>
      </trkpt>
      <trkpt lat="43.29625" lon="6.54718">
        <ele>177.8</ele>
        <time>2022-02-04T19:02:05Z</time>
      </trkpt>
      <trkpt lat="43.2962" lon="6.54719">
        <ele>177</ele>
        <time>2022-02-04T19:02:06Z</time>
      </trkpt>
      <trkpt lat="43.29616" lon="6.54721">
        <ele>175.6</ele>
        <time>2022-02-04T19:02:07Z</time>
      </trkpt>
      <trkpt lat="43.29614" lon="6.54722">
        <ele>174.6</ele>
        <time>2022-02-04T19:02:08Z</time>
      </trkpt>
      <trkpt lat="43.29612" lon="6.54723">
        <ele>174.2</ele>
        <time>2022-02-04T19:02:09Z</time>
      </trkpt>
      <trkpt lat="43.2961" lon="6.54725">
        <ele>173.6</ele>
        <time>2022-02-04T19:02:10Z</time>
      </trkpt>
      <trkpt lat="43.29608" lon="6.54728">
        <ele>173.2</ele>
        <time>2022-02-04T19:02:11Z</time>
      </trkpt>
      <trkpt lat="43.29606" lon="6.54731">
        <ele>172.8</ele>
        <time>2022-02-04T19:02:12Z</time>
      </trkpt>
      <trkpt lat="43.29603" lon="6.54736">
        <ele>172.2</ele>
        <time>2022-02-04T19:02:13Z</time>
      </trkpt>
      <trkpt lat="43.29599" lon="6.54744">
        <ele>171.8</ele>
        <time>2022-02-04T19:02:14Z</time>
      </trkpt>
      <trkpt lat="43.29597" lon="6.54749">
        <ele>170.8</ele>
        <time>2022-02-04T19:02:15Z</time>
      </trkpt>
      <trkpt lat="43.29593" lon="6.54756">
        <ele>170.2</ele>
        <time>2022-02-04T19:02:16Z</time>
      </trkpt>
      <trkpt lat="43.29588" lon="6.54762">
        <ele>169.6</ele>
        <time>2022-02-04T19:02:17Z</time>
      </trkpt>
      <trkpt lat="43.29586" lon="6.54766">
        <ele>169.2</ele>
        <time>2022-02-04T19:02:18Z</time>
      </trkpt>
      <trkpt lat="43.29584" lon="6.5477">
        <ele>169</ele>
        <time>2022-02-04T19:02:19Z</time>
      </trkpt>
      <trkpt lat="43.29582" lon="6.54774">
        <ele>168.8</ele>
        <time>2022-02-04T19:02:20Z</time>
      </trkpt>
      <trkpt lat="43.29579" lon="6.54779">
        <ele>168.8</ele>
        <time>2022-02-04T19:02:21Z</time>
      </trkpt>
      <trkpt lat="43.29576" lon="6.54783">
        <ele>168.6</ele>
        <time>2022-02-04T19:02:22Z</time>
      </trkpt>
      <trkpt lat="43.29572" lon="6.54788">
        <ele>167.8</ele>
        <time>2022-02-04T19:02:23Z</time>
      </trkpt>
      <trkpt lat="43.2957" lon="6.5479">
        <ele>167</ele>
        <time>2022-02-04T19:02:24Z</time>
      </trkpt>
      <trkpt lat="43.29568" lon="6.5479">
        <ele>166.4</ele>
        <time>2022-02-04T19:02:25Z</time>
      </trkpt>
      <trkpt lat="43.29566" lon="6.54788">
        <ele>165.8</ele>
        <time>2022-02-04T19:02:26Z</time>
      </trkpt>
      <trkpt lat="43.29565" lon="6.54786">
        <ele>165.4</ele>
        <time>2022-02-04T19:02:27Z</time>
      </trkpt>
      <trkpt lat="43.29565" lon="6.54782">
        <ele>165</ele>
        <time>2022-02-04T19:02:28Z</time>
      </trkpt>
      <trkpt lat="43.29566" lon="6.5478">
        <ele>164.4</ele>
        <time>2022-02-04T19:02:29Z</time>
      </trkpt>
      <trkpt lat="43.29567" lon="6.54777">
        <ele>163.2</ele>
        <time>2022-02-04T19:02:30Z</time>
      </trkpt>
      <trkpt lat="43.29566" lon="6.54775">
        <ele>162.2</ele>
        <time>2022-02-04T19:02:31Z</time>
      </trkpt>
      <trkpt lat="43.29566" lon="6.54774">
        <ele>161.6</ele>
        <time>2022-02-04T19:02:32Z</time>
      </trkpt>
      <trkpt lat="43.29564" lon="6.54773">
        <ele>161.2</ele>
        <time>2022-02-04T19:02:33Z</time>
      </trkpt>
      <trkpt lat="43.29563" lon="6.54772">
        <ele>160</ele>
        <time>2022-02-04T19:02:34Z</time>
      </trkpt>
      <trkpt lat="43.29562" lon="6.54771">
        <ele>159</ele>
        <time>2022-02-04T19:02:35Z</time>
      </trkpt>
      <trkpt lat="43.29562" lon="6.5477">
        <ele>158.6</ele>
        <time>2022-02-04T19:02:36Z</time>
      </trkpt>
      <trkpt lat="43.29562" lon="6.54769">
        <ele>157.8</ele>
        <time>2022-02-04T19:02:37Z</time>
      </trkpt>
      <trkpt lat="43.29562" lon="6.54767">
        <ele>157</ele>
        <time>2022-02-04T19:02:38Z</time>
      </trkpt>
      <trkpt lat="43.29561" lon="6.54765">
        <ele>156.4</ele>
        <time>2022-02-04T19:02:39Z</time>
      </trkpt>
      <trkpt lat="43.2956" lon="6.54761">
        <ele>155.8</ele>
        <time>2022-02-04T19:02:40Z</time>
      </trkpt>
      <trkpt lat="43.2956" lon="6.54756">
        <ele>155</ele>
        <time>2022-02-04T19:02:41Z</time>
      </trkpt>
      <trkpt lat="43.29558" lon="6.54752">
        <ele>153.4</ele>
        <time>2022-02-04T19:02:42Z</time>
      </trkpt>
      <trkpt lat="43.29557" lon="6.54749">
        <ele>152.4</ele>
        <time>2022-02-04T19:02:43Z</time>
      </trkpt>
      <trkpt lat="43.29555" lon="6.54747">
        <ele>151.8</ele>
        <time>2022-02-04T19:02:44Z</time>
      </trkpt>
      <trkpt lat="43.29553" lon="6.54745">
        <ele>151.2</ele>
        <time>2022-02-04T19:02:45Z</time>
      </trkpt>
      <trkpt lat="43.29551" lon="6.54743">
        <ele>150.8</ele>
        <time>2022-02-04T19:02:46Z</time>
      </trkpt>
      <trkpt lat="43.29551" lon="6.54742">
        <ele>150.4</ele>
        <time>2022-02-04T19:02:47Z</time>
      </trkpt>
      <trkpt lat="43.29551" lon="6.54742">
        <ele>150.4</ele>
        <time>2022-02-04T19:02:48Z</time>
      </trkpt>
      <trkpt lat="43.2955" lon="6.54742">
        <ele>150.2</ele>
        <time>2022-02-04T19:02:49Z</time>
      </trkpt>
      <trkpt lat="43.2955" lon="6.54742">
        <ele>150.2</ele>
        <time>2022-02-04T19:02:50Z</time>
      </trkpt>
      <trkpt lat="43.2955" lon="6.54742">
        <ele>150</ele>
        <time>2022-02-04T19:02:51Z</time>
      </trkpt>
      <trkpt lat="43.29549" lon="6.54741">
        <ele>150</ele>
        <time>2022-02-04T19:02:52Z</time>
      </trkpt>
      <trkpt lat="43.29549" lon="6.54743">
        <ele>150</ele>
        <time>2022-02-04T19:02:53Z</time>
      </trkpt>
      <trkpt lat="43.29547" lon="6.54745">
        <ele>149.6</ele>
        <time>2022-02-04T19:02:54Z</time>
      </trkpt>
      <trkpt lat="43.29545" lon="6.5475">
        <ele>148.8</ele>
        <time>2022-02-04T19:02:55Z</time>
      </trkpt>
      <trkpt lat="43.29542" lon="6.54754">
        <ele>147.6</ele>
        <time>2022-02-04T19:02:56Z</time>
      </trkpt>
      <trkpt lat="43.29539" lon="6.54758">
        <ele>146.6</ele>
        <time>2022-02-04T19:02:57Z</time>
      </trkpt>
      <trkpt lat="43.29537" lon="6.5476">
        <ele>145.8</ele>
        <time>2022-02-04T19:02:58Z</time>
      </trkpt>
      <trkpt lat="43.29534" lon="6.54763">
        <ele>145.2</ele>
        <time>2022-02-04T19:02:59Z</time>
      </trkpt>
      <trkpt lat="43.29531" lon="6.54766">
        <ele>144.8</ele>
        <time>2022-02-04T19:03:00Z</time>
      </trkpt>
      <trkpt lat="43.29528" lon="6.54769">
        <ele>145</ele>
        <time>2022-02-04T19:03:01Z</time>
      </trkpt>
      <trkpt lat="43.29525" lon="6.54771">
        <ele>145.2</ele>
        <time>2022-02-04T19:03:02Z</time>
      </trkpt>
      <trkpt lat="43.29522" lon="6.54773">
        <ele>145.2</ele>
        <time>2022-02-04T19:03:03Z</time>
      </trkpt>
      <trkpt lat="43.29518" lon="6.54774">
        <ele>145.2</ele>
        <time>2022-02-04T19:03:04Z</time>
      </trkpt>
      <trkpt lat="43.29516" lon="6.54775">
        <ele>145.2</ele>
        <time>2022-02-04T19:03:05Z</time>
      </trkpt>
      <trkpt lat="43.29515" lon="6.54775">
        <ele>145.2</ele>
        <time>2022-02-04T19:03:06Z</time>
      </trkpt>
      <trkpt lat="43.29515" lon="6.54775">
        <ele>145.2</ele>
        <time>2022-02-04T19:03:07Z</time>
      </trkpt>
      <trkpt lat="43.29515" lon="6.54775">
        <ele>145.2</ele>
        <time>2022-02-04T19:03:08Z</time>
      </trkpt>
      <trkpt lat="43.29515" lon="6.54775">
        <ele>145.2</ele>
        <time>2022-02-04T19:03:09Z</time>
      </trkpt>
      <trkpt lat="43.29515" lon="6.54775">
        <ele>145.2</ele>
        <time>2022-02-04T19:03:10Z</time>
      </trkpt>
      <trkpt lat="43.29514" lon="6.54775">
        <ele>145.2</ele>
        <time>2022-02-04T19:03:11Z</time>
      </trkpt>
      <trkpt lat="43.29514" lon="6.54775">
        <ele>145.2</ele>
        <time>2022-02-04T19:03:12Z</time>
      </trkpt>
      <trkpt lat="43.29514" lon="6.54775">
        <ele>145</ele>
        <time>2022-02-04T19:03:13Z</time>
      </trkpt>
      <trkpt lat="43.29514" lon="6.54775">
        <ele>145</ele>
        <time>2022-02-04T19:03:14Z</time>
      </trkpt>
      <trkpt lat="43.29513" lon="6.54775">
        <ele>144.8</ele>
        <time>2022-02-04T19:03:15Z</time>
      </trkpt>
      <trkpt lat="43.29512" lon="6.54775">
        <ele>144.6</ele>
        <time>2022-02-04T19:03:16Z</time>
      </trkpt>
      <trkpt lat="43.29512" lon="6.54775">
        <ele>144.2</ele>
        <time>2022-02-04T19:03:17Z</time>
      </trkpt>
      <trkpt lat="43.29512" lon="6.54775">
        <ele>143.8</ele>
        <time>2022-02-04T19:03:18Z</time>
      </trkpt>
      <trkpt lat="43.29512" lon="6.54774">
        <ele>143.4</ele>
        <time>2022-02-04T19:03:19Z</time>
      </trkpt>
      <trkpt lat="43.29511" lon="6.54774">
        <ele>143.2</ele>
        <time>2022-02-04T19:03:20Z</time>
      </trkpt>
      <trkpt lat="43.29509" lon="6.54773">
        <ele>143</ele>
        <time>2022-02-04T19:03:21Z</time>
      </trkpt>
      <trkpt lat="43.29507" lon="6.54774">
        <ele>143</ele>
        <time>2022-02-04T19:03:22Z</time>
      </trkpt>
      <trkpt lat="43.29504" lon="6.54775">
        <ele>142.8</ele>
        <time>2022-02-04T19:03:23Z</time>
      </trkpt>
      <trkpt lat="43.29501" lon="6.54778">
        <ele>142</ele>
        <time>2022-02-04T19:03:24Z</time>
      </trkpt>
      <trkpt lat="43.29499" lon="6.54782">
        <ele>141.4</ele>
        <time>2022-02-04T19:03:25Z</time>
      </trkpt>
      <trkpt lat="43.29496" lon="6.54785">
        <ele>141</ele>
        <time>2022-02-04T19:03:26Z</time>
      </trkpt>
      <trkpt lat="43.29494" lon="6.54789">
        <ele>140.2</ele>
        <time>2022-02-04T19:03:27Z</time>
      </trkpt>
      <trkpt lat="43.29491" lon="6.54795">
        <ele>139.6</ele>
        <time>2022-02-04T19:03:28Z</time>
      </trkpt>
      <trkpt lat="43.29488" lon="6.54799">
        <ele>139.2</ele>
        <time>2022-02-04T19:03:29Z</time>
      </trkpt>
      <trkpt lat="43.29488" lon="6.548">
        <ele>138.6</ele>
        <time>2022-02-04T19:03:30Z</time>
      </trkpt>
      <trkpt lat="43.29487" lon="6.54799">
        <ele>138</ele>
        <time>2022-02-04T19:03:31Z</time>
      </trkpt>
      <trkpt lat="43.29487" lon="6.54799">
        <ele>137.4</ele>
        <time>2022-02-04T19:03:32Z</time>
      </trkpt>
      <trkpt lat="43.29487" lon="6.54799">
        <ele>137</ele>
        <time>2022-02-04T19:03:33Z</time>
      </trkpt>
      <trkpt lat="43.29486" lon="6.54799">
        <ele>136.6</ele>
        <time>2022-02-04T19:03:34Z</time>
      </trkpt>
      <trkpt lat="43.29485" lon="6.548">
        <ele>136.4</ele>
        <time>2022-02-04T19:03:35Z</time>
      </trkpt>
      <trkpt lat="43.29483" lon="6.548">
        <ele>136.2</ele>
        <time>2022-02-04T19:03:36Z</time>
      </trkpt>
      <trkpt lat="43.2948" lon="6.54801">
        <ele>136</ele>
        <time>2022-02-04T19:03:37Z</time>
      </trkpt>
      <trkpt lat="43.29477" lon="6.54801">
        <ele>136</ele>
        <time>2022-02-04T19:03:38Z</time>
      </trkpt>
      <trkpt lat="43.29473" lon="6.54803">
        <ele>135.4</ele>
        <time>2022-02-04T19:03:39Z</time>
      </trkpt>
      <trkpt lat="43.29469" lon="6.54805">
        <ele>134.6</ele>
        <time>2022-02-04T19:03:40Z</time>
      </trkpt>
      <trkpt lat="43.29466" lon="6.54809">
        <ele>133.8</ele>
        <time>2022-02-04T19:03:41Z</time>
      </trkpt>
      <trkpt lat="43.29463" lon="6.54812">
        <ele>132.4</ele>
        <time>2022-02-04T19:03:42Z</time>
      </trkpt>
      <trkpt lat="43.29459" lon="6.54816">
        <ele>131.6</ele>
        <time>2022-02-04T19:03:43Z</time>
      </trkpt>
      <trkpt lat="43.29456" lon="6.54822">
        <ele>130.8</ele>
        <time>2022-02-04T19:03:44Z</time>
      </trkpt>
      <trkpt lat="43.29454" lon="6.54828">
        <ele>130</ele>
        <time>2022-02-04T19:03:45Z</time>
      </trkpt>
      <trkpt lat="43.29452" lon="6.54834">
        <ele>129.6</ele>
        <time>2022-02-04T19:03:46Z</time>
      </trkpt>
      <trkpt lat="43.2945" lon="6.54839">
        <ele>129.2</ele>
        <time>2022-02-04T19:03:47Z</time>
      </trkpt>
      <trkpt lat="43.29448" lon="6.54844">
        <ele>129</ele>
        <time>2022-02-04T19:03:48Z</time>
      </trkpt>
      <trkpt lat="43.29447" lon="6.54849">
        <ele>129</ele>
        <time>2022-02-04T19:03:49Z</time>
      </trkpt>
      <trkpt lat="43.29446" lon="6.54856">
        <ele>129</ele>
        <time>2022-02-04T19:03:50Z</time>
      </trkpt>
      <trkpt lat="43.29445" lon="6.54863">
        <ele>129</ele>
        <time>2022-02-04T19:03:51Z</time>
      </trkpt>
      <trkpt lat="43.29445" lon="6.54869">
        <ele>129.2</ele>
        <time>2022-02-04T19:03:52Z</time>
      </trkpt>
      <trkpt lat="43.29445" lon="6.54874">
        <ele>129.2</ele>
        <time>2022-02-04T19:03:53Z</time>
      </trkpt>
      <trkpt lat="43.29444" lon="6.5488">
        <ele>129.2</ele>
        <time>2022-02-04T19:03:54Z</time>
      </trkpt>
      <trkpt lat="43.29442" lon="6.54885">
        <ele>129</ele>
        <time>2022-02-04T19:03:55Z</time>
      </trkpt>
      <trkpt lat="43.29442" lon="6.5489">
        <ele>128.8</ele>
        <time>2022-02-04T19:03:56Z</time>
      </trkpt>
      <trkpt lat="43.29442" lon="6.54896">
        <ele>128.4</ele>
        <time>2022-02-04T19:03:57Z</time>
      </trkpt>
      <trkpt lat="43.29443" lon="6.54902">
        <ele>128</ele>
        <time>2022-02-04T19:03:58Z</time>
      </trkpt>
      <trkpt lat="43.29444" lon="6.54908">
        <ele>127.8</ele>
        <time>2022-02-04T19:03:59Z</time>
      </trkpt>
      <trkpt lat="43.29445" lon="6.54914">
        <ele>127.4</ele>
        <time>2022-02-04T19:04:00Z</time>
      </trkpt>
      <trkpt lat="43.29445" lon="6.54919">
        <ele>127</ele>
        <time>2022-02-04T19:04:01Z</time>
      </trkpt>
      <trkpt lat="43.29446" lon="6.54925">
        <ele>126.6</ele>
        <time>2022-02-04T19:04:02Z</time>
      </trkpt>
      <trkpt lat="43.29445" lon="6.54932">
        <ele>126.4</ele>
        <time>2022-02-04T19:04:03Z</time>
      </trkpt>
      <trkpt lat="43.29444" lon="6.54937">
        <ele>126</ele>
        <time>2022-02-04T19:04:04Z</time>
      </trkpt>
      <trkpt lat="43.29442" lon="6.5494">
        <ele>125.8</ele>
        <time>2022-02-04T19:04:05Z</time>
      </trkpt>
      <trkpt lat="43.29441" lon="6.54943">
        <ele>125.6</ele>
        <time>2022-02-04T19:04:06Z</time>
      </trkpt>
      <trkpt lat="43.29439" lon="6.54948">
        <ele>125.4</ele>
        <time>2022-02-04T19:04:07Z</time>
      </trkpt>
      <trkpt lat="43.29438" lon="6.54953">
        <ele>125.4</ele>
        <time>2022-02-04T19:04:08Z</time>
      </trkpt>
      <trkpt lat="43.29438" lon="6.54959">
        <ele>125.4</ele>
        <time>2022-02-04T19:04:09Z</time>
      </trkpt>
      <trkpt lat="43.29438" lon="6.54965">
        <ele>125.4</ele>
        <time>2022-02-04T19:04:10Z</time>
      </trkpt>
      <trkpt lat="43.29437" lon="6.5497">
        <ele>125.4</ele>
        <time>2022-02-04T19:04:11Z</time>
      </trkpt>
      <trkpt lat="43.29435" lon="6.54973">
        <ele>125.6</ele>
        <time>2022-02-04T19:04:12Z</time>
      </trkpt>
      <trkpt lat="43.29433" lon="6.54972">
        <ele>125.6</ele>
        <time>2022-02-04T19:04:13Z</time>
      </trkpt>
      <trkpt lat="43.29431" lon="6.54971">
        <ele>125.6</ele>
        <time>2022-02-04T19:04:14Z</time>
      </trkpt>
      <trkpt lat="43.29427" lon="6.54969">
        <ele>125.6</ele>
        <time>2022-02-04T19:04:15Z</time>
      </trkpt>
      <trkpt lat="43.29423" lon="6.5497">
        <ele>124.6</ele>
        <time>2022-02-04T19:04:16Z</time>
      </trkpt>
      <trkpt lat="43.2942" lon="6.54972">
        <ele>123.6</ele>
        <time>2022-02-04T19:04:17Z</time>
      </trkpt>
      <trkpt lat="43.29417" lon="6.54974">
        <ele>122.4</ele>
        <time>2022-02-04T19:04:18Z</time>
      </trkpt>
      <trkpt lat="43.29415" lon="6.54978">
        <ele>121.4</ele>
        <time>2022-02-04T19:04:19Z</time>
      </trkpt>
      <trkpt lat="43.29413" lon="6.54983">
        <ele>120.4</ele>
        <time>2022-02-04T19:04:20Z</time>
      </trkpt>
      <trkpt lat="43.29411" lon="6.54988">
        <ele>120</ele>
        <time>2022-02-04T19:04:21Z</time>
      </trkpt>
      <trkpt lat="43.2941" lon="6.54991">
        <ele>119.4</ele>
        <time>2022-02-04T19:04:22Z</time>
      </trkpt>
      <trkpt lat="43.29408" lon="6.54995">
        <ele>119.2</ele>
        <time>2022-02-04T19:04:23Z</time>
      </trkpt>
      <trkpt lat="43.29407" lon="6.55">
        <ele>119</ele>
        <time>2022-02-04T19:04:24Z</time>
      </trkpt>
      <trkpt lat="43.29406" lon="6.55002">
        <ele>119</ele>
        <time>2022-02-04T19:04:25Z</time>
      </trkpt>
      <trkpt lat="43.29405" lon="6.55004">
        <ele>118.8</ele>
        <time>2022-02-04T19:04:26Z</time>
      </trkpt>
      <trkpt lat="43.29403" lon="6.55004">
        <ele>118.8</ele>
        <time>2022-02-04T19:04:27Z</time>
      </trkpt>
      <trkpt lat="43.294" lon="6.55002">
        <ele>118.6</ele>
        <time>2022-02-04T19:04:28Z</time>
      </trkpt>
      <trkpt lat="43.29397" lon="6.55001">
        <ele>118.2</ele>
        <time>2022-02-04T19:04:29Z</time>
      </trkpt>
      <trkpt lat="43.29394" lon="6.54998">
        <ele>117.6</ele>
        <time>2022-02-04T19:04:30Z</time>
      </trkpt>
      <trkpt lat="43.2939" lon="6.54995">
        <ele>117</ele>
        <time>2022-02-04T19:04:31Z</time>
      </trkpt>
      <trkpt lat="43.29386" lon="6.54994">
        <ele>115.8</ele>
        <time>2022-02-04T19:04:32Z</time>
      </trkpt>
      <trkpt lat="43.29381" lon="6.54995">
        <ele>115.2</ele>
        <time>2022-02-04T19:04:33Z</time>
      </trkpt>
      <trkpt lat="43.29377" lon="6.54995">
        <ele>114.8</ele>
        <time>2022-02-04T19:04:34Z</time>
      </trkpt>
      <trkpt lat="43.29373" lon="6.54994">
        <ele>114.4</ele>
        <time>2022-02-04T19:04:35Z</time>
      </trkpt>
      <trkpt lat="43.29369" lon="6.54994">
        <ele>113.8</ele>
        <time>2022-02-04T19:04:36Z</time>
      </trkpt>
      <trkpt lat="43.29367" lon="6.54993">
        <ele>113</ele>
        <time>2022-02-04T19:04:37Z</time>
      </trkpt>
      <trkpt lat="43.29365" lon="6.54991">
        <ele>112</ele>
        <time>2022-02-04T19:04:38Z</time>
      </trkpt>
      <trkpt lat="43.29364" lon="6.54989">
        <ele>111</ele>
        <time>2022-02-04T19:04:39Z</time>
      </trkpt>
      <trkpt lat="43.29364" lon="6.54988">
        <ele>109.6</ele>
        <time>2022-02-04T19:04:40Z</time>
      </trkpt>
      <trkpt lat="43.29364" lon="6.54988">
        <ele>108.8</ele>
        <time>2022-02-04T19:04:41Z</time>
      </trkpt>
      <trkpt lat="43.29364" lon="6.54988">
        <ele>108.2</ele>
        <time>2022-02-04T19:04:42Z</time>
      </trkpt>
      <trkpt lat="43.29364" lon="6.5499">
        <ele>108</ele>
        <time>2022-02-04T19:04:43Z</time>
      </trkpt>
      <trkpt lat="43.29362" lon="6.54992">
        <ele>107.8</ele>
        <time>2022-02-04T19:04:44Z</time>
      </trkpt>
      <trkpt lat="43.2936" lon="6.54994">
        <ele>107.6</ele>
        <time>2022-02-04T19:04:45Z</time>
      </trkpt>
      <trkpt lat="43.29357" lon="6.54995">
        <ele>107.2</ele>
        <time>2022-02-04T19:04:46Z</time>
      </trkpt>
      <trkpt lat="43.29355" lon="6.54995">
        <ele>107.2</ele>
        <time>2022-02-04T19:04:47Z</time>
      </trkpt>
      <trkpt lat="43.29353" lon="6.54994">
        <ele>107</ele>
        <time>2022-02-04T19:04:48Z</time>
      </trkpt>
      <trkpt lat="43.29351" lon="6.54994">
        <ele>106.8</ele>
        <time>2022-02-04T19:04:49Z</time>
      </trkpt>
      <trkpt lat="43.29348" lon="6.54992">
        <ele>106.6</ele>
        <time>2022-02-04T19:04:50Z</time>
      </trkpt>
      <trkpt lat="43.29344" lon="6.54991">
        <ele>106.8</ele>
        <time>2022-02-04T19:04:51Z</time>
      </trkpt>
      <trkpt lat="43.29341" lon="6.5499">
        <ele>106.8</ele>
        <time>2022-02-04T19:04:52Z</time>
      </trkpt>
      <trkpt lat="43.29339" lon="6.54989">
        <ele>107.2</ele>
        <time>2022-02-04T19:04:53Z</time>
      </trkpt>
      <trkpt lat="43.29337" lon="6.54987">
        <ele>107.4</ele>
        <time>2022-02-04T19:04:54Z</time>
      </trkpt>
      <trkpt lat="43.29336" lon="6.54985">
        <ele>107.6</ele>
        <time>2022-02-04T19:04:55Z</time>
      </trkpt>
      <trkpt lat="43.29335" lon="6.54983">
        <ele>108.2</ele>
        <time>2022-02-04T19:04:56Z</time>
      </trkpt>
      <trkpt lat="43.29333" lon="6.54979">
        <ele>108.4</ele>
        <time>2022-02-04T19:04:57Z</time>
      </trkpt>
      <trkpt lat="43.29331" lon="6.54976">
        <ele>108.8</ele>
        <time>2022-02-04T19:04:58Z</time>
      </trkpt>
      <trkpt lat="43.29328" lon="6.54974">
        <ele>108.8</ele>
        <time>2022-02-04T19:04:59Z</time>
      </trkpt>
      <trkpt lat="43.29325" lon="6.54972">
        <ele>108.8</ele>
        <time>2022-02-04T19:05:00Z</time>
      </trkpt>
      <trkpt lat="43.29322" lon="6.54969">
        <ele>108.8</ele>
        <time>2022-02-04T19:05:01Z</time>
      </trkpt>
      <trkpt lat="43.29319" lon="6.54966">
        <ele>108.8</ele>
        <time>2022-02-04T19:05:02Z</time>
      </trkpt>
      <trkpt lat="43.29314" lon="6.54964">
        <ele>108.6</ele>
        <time>2022-02-04T19:05:03Z</time>
      </trkpt>
      <trkpt lat="43.2931" lon="6.54961">
        <ele>108.6</ele>
        <time>2022-02-04T19:05:04Z</time>
      </trkpt>
      <trkpt lat="43.29307" lon="6.5496">
        <ele>108.6</ele>
        <time>2022-02-04T19:05:05Z</time>
      </trkpt>
      <trkpt lat="43.29304" lon="6.54961">
        <ele>108.4</ele>
        <time>2022-02-04T19:05:06Z</time>
      </trkpt>
      <trkpt lat="43.29301" lon="6.54963">
        <ele>108.2</ele>
        <time>2022-02-04T19:05:07Z</time>
      </trkpt>
      <trkpt lat="43.29298" lon="6.54964">
        <ele>107.8</ele>
        <time>2022-02-04T19:05:08Z</time>
      </trkpt>
      <trkpt lat="43.29294" lon="6.54965">
        <ele>107.2</ele>
        <time>2022-02-04T19:05:09Z</time>
      </trkpt>
      <trkpt lat="43.29289" lon="6.54967">
        <ele>107</ele>
        <time>2022-02-04T19:05:10Z</time>
      </trkpt>
      <trkpt lat="43.29284" lon="6.54968">
        <ele>106.6</ele>
        <time>2022-02-04T19:05:11Z</time>
      </trkpt>
      <trkpt lat="43.29279" lon="6.54968">
        <ele>106.4</ele>
        <time>2022-02-04T19:05:12Z</time>
      </trkpt>
      <trkpt lat="43.29276" lon="6.54969">
        <ele>106.4</ele>
        <time>2022-02-04T19:05:13Z</time>
      </trkpt>
      <trkpt lat="43.29272" lon="6.54971">
        <ele>106</ele>
        <time>2022-02-04T19:05:14Z</time>
      </trkpt>
      <trkpt lat="43.29269" lon="6.54973">
        <ele>105.6</ele>
        <time>2022-02-04T19:05:15Z</time>
      </trkpt>
      <trkpt lat="43.29265" lon="6.54976">
        <ele>104.2</ele>
        <time>2022-02-04T19:05:16Z</time>
      </trkpt>
      <trkpt lat="43.2926" lon="6.54977">
        <ele>103.4</ele>
        <time>2022-02-04T19:05:17Z</time>
      </trkpt>
      <trkpt lat="43.29254" lon="6.54978">
        <ele>102.8</ele>
        <time>2022-02-04T19:05:18Z</time>
      </trkpt>
      <trkpt lat="43.29246" lon="6.54978">
        <ele>102.4</ele>
        <time>2022-02-04T19:05:19Z</time>
      </trkpt>
      <trkpt lat="43.29242" lon="6.54976">
        <ele>102.2</ele>
        <time>2022-02-04T19:05:20Z</time>
      </trkpt>
      <trkpt lat="43.29237" lon="6.54975">
        <ele>102.2</ele>
        <time>2022-02-04T19:05:21Z</time>
      </trkpt>
      <trkpt lat="43.29232" lon="6.54975">
        <ele>102</ele>
        <time>2022-02-04T19:05:22Z</time>
      </trkpt>
      <trkpt lat="43.29227" lon="6.54976">
        <ele>102</ele>
        <time>2022-02-04T19:05:23Z</time>
      </trkpt>
      <trkpt lat="43.29222" lon="6.54975">
        <ele>102.2</ele>
        <time>2022-02-04T19:05:24Z</time>
      </trkpt>
      <trkpt lat="43.29218" lon="6.54974">
        <ele>102.4</ele>
        <time>2022-02-04T19:05:25Z</time>
      </trkpt>
      <trkpt lat="43.29214" lon="6.54975">
        <ele>102.6</ele>
        <time>2022-02-04T19:05:26Z</time>
      </trkpt>
      <trkpt lat="43.29209" lon="6.54978">
        <ele>102.8</ele>
        <time>2022-02-04T19:05:27Z</time>
      </trkpt>
      <trkpt lat="43.29205" lon="6.54983">
        <ele>102.8</ele>
        <time>2022-02-04T19:05:28Z</time>
      </trkpt>
      <trkpt lat="43.29202" lon="6.54987">
        <ele>102.8</ele>
        <time>2022-02-04T19:05:29Z</time>
      </trkpt>
      <trkpt lat="43.29198" lon="6.5499">
        <ele>102.6</ele>
        <time>2022-02-04T19:05:30Z</time>
      </trkpt>
      <trkpt lat="43.29193" lon="6.54992">
        <ele>102</ele>
        <time>2022-02-04T19:05:31Z</time>
      </trkpt>
      <trkpt lat="43.29187" lon="6.54995">
        <ele>101.4</ele>
        <time>2022-02-04T19:05:32Z</time>
      </trkpt>
      <trkpt lat="43.29182" lon="6.54997">
        <ele>101</ele>
        <time>2022-02-04T19:05:33Z</time>
      </trkpt>
      <trkpt lat="43.29178" lon="6.54999">
        <ele>101</ele>
        <time>2022-02-04T19:05:34Z</time>
      </trkpt>
      <trkpt lat="43.29176" lon="6.54999">
        <ele>100.8</ele>
        <time>2022-02-04T19:05:35Z</time>
      </trkpt>
      <trkpt lat="43.29176" lon="6.54999">
        <ele>100.8</ele>
        <time>2022-02-04T19:05:36Z</time>
      </trkpt>
      <trkpt lat="43.29176" lon="6.54999">
        <ele>101</ele>
        <time>2022-02-04T19:05:37Z</time>
      </trkpt>
      <trkpt lat="43.29175" lon="6.54999">
        <ele>101</ele>
        <time>2022-02-04T19:05:38Z</time>
      </trkpt>
      <trkpt lat="43.29175" lon="6.54997">
        <ele>101</ele>
        <time>2022-02-04T19:05:39Z</time>
      </trkpt>
      <trkpt lat="43.29174" lon="6.54996">
        <ele>101</ele>
        <time>2022-02-04T19:05:40Z</time>
      </trkpt>
      <trkpt lat="43.29173" lon="6.54994">
        <ele>101.2</ele>
        <time>2022-02-04T19:05:41Z</time>
      </trkpt>
      <trkpt lat="43.29171" lon="6.54993">
        <ele>101.2</ele>
        <time>2022-02-04T19:05:42Z</time>
      </trkpt>
      <trkpt lat="43.29169" lon="6.54993">
        <ele>101.4</ele>
        <time>2022-02-04T19:05:43Z</time>
      </trkpt>
      <trkpt lat="43.29167" lon="6.54996">
        <ele>101.4</ele>
        <time>2022-02-04T19:05:44Z</time>
      </trkpt>
      <trkpt lat="43.29166" lon="6.55">
        <ele>101.4</ele>
        <time>2022-02-04T19:05:45Z</time>
      </trkpt>
      <trkpt lat="43.29164" lon="6.55005">
        <ele>101.4</ele>
        <time>2022-02-04T19:05:46Z</time>
      </trkpt>
      <trkpt lat="43.29162" lon="6.5501">
        <ele>101</ele>
        <time>2022-02-04T19:05:47Z</time>
      </trkpt>
      <trkpt lat="43.29159" lon="6.55012">
        <ele>100.6</ele>
        <time>2022-02-04T19:05:48Z</time>
      </trkpt>
      <trkpt lat="43.29156" lon="6.55013">
        <ele>99.8</ele>
        <time>2022-02-04T19:05:49Z</time>
      </trkpt>
      <trkpt lat="43.29154" lon="6.55013">
        <ele>98.8</ele>
        <time>2022-02-04T19:05:50Z</time>
      </trkpt>
      <trkpt lat="43.29153" lon="6.55015">
        <ele>98.2</ele>
        <time>2022-02-04T19:05:51Z</time>
      </trkpt>
      <trkpt lat="43.29152" lon="6.55019">
        <ele>97.6</ele>
        <time>2022-02-04T19:05:52Z</time>
      </trkpt>
      <trkpt lat="43.29151" lon="6.55023">
        <ele>96.4</ele>
        <time>2022-02-04T19:05:53Z</time>
      </trkpt>
      <trkpt lat="43.29149" lon="6.55025">
        <ele>95.8</ele>
        <time>2022-02-04T19:05:54Z</time>
      </trkpt>
      <trkpt lat="43.29149" lon="6.55025">
        <ele>95.2</ele>
        <time>2022-02-04T19:05:55Z</time>
      </trkpt>
      <trkpt lat="43.29149" lon="6.55025">
        <ele>95</ele>
        <time>2022-02-04T19:05:56Z</time>
      </trkpt>
      <trkpt lat="43.29149" lon="6.55026">
        <ele>94.8</ele>
        <time>2022-02-04T19:05:57Z</time>
      </trkpt>
      <trkpt lat="43.29149" lon="6.55026">
        <ele>94.6</ele>
        <time>2022-02-04T19:05:58Z</time>
      </trkpt>
      <trkpt lat="43.29149" lon="6.55026">
        <ele>94.6</ele>
        <time>2022-02-04T19:05:59Z</time>
      </trkpt>
      <trkpt lat="43.29149" lon="6.55026">
        <ele>94.4</ele>
        <time>2022-02-04T19:06:00Z</time>
      </trkpt>
      <trkpt lat="43.29149" lon="6.55026">
        <ele>94.4</ele>
        <time>2022-02-04T19:06:01Z</time>
      </trkpt>
      <trkpt lat="43.29149" lon="6.55026">
        <ele>94.4</ele>
        <time>2022-02-04T19:06:02Z</time>
      </trkpt>
      <trkpt lat="43.29149" lon="6.55026">
        <ele>94.2</ele>
        <time>2022-02-04T19:06:03Z</time>
      </trkpt>
      <trkpt lat="43.29149" lon="6.55026">
        <ele>94.2</ele>
        <time>2022-02-04T19:06:04Z</time>
      </trkpt>
      <trkpt lat="43.29149" lon="6.55026">
        <ele>94.2</ele>
        <time>2022-02-04T19:06:05Z</time>
      </trkpt>
      <trkpt lat="43.29149" lon="6.55026">
        <ele>94.4</ele>
        <time>2022-02-04T19:06:06Z</time>
      </trkpt>
      <trkpt lat="43.29149" lon="6.55025">
        <ele>94.4</ele>
        <time>2022-02-04T19:06:07Z</time>
      </trkpt>
      <trkpt lat="43.29149" lon="6.55025">
        <ele>94.4</ele>
        <time>2022-02-04T19:06:08Z</time>
      </trkpt>
      <trkpt lat="43.29149" lon="6.55024">
        <ele>94.4</ele>
        <time>2022-02-04T19:06:09Z</time>
      </trkpt>
      <trkpt lat="43.29149" lon="6.55024">
        <ele>94.4</ele>
        <time>2022-02-04T19:06:10Z</time>
      </trkpt>
      <trkpt lat="43.29149" lon="6.55024">
        <ele>94.2</ele>
        <time>2022-02-04T19:06:11Z</time>
      </trkpt>
      <trkpt lat="43.29149" lon="6.55024">
        <ele>94.2</ele>
        <time>2022-02-04T19:06:12Z</time>
      </trkpt>
      <trkpt lat="43.29149" lon="6.55024">
        <ele>94.2</ele>
        <time>2022-02-04T19:06:13Z</time>
      </trkpt>
      <trkpt lat="43.29149" lon="6.55024">
        <ele>94.2</ele>
        <time>2022-02-04T19:06:14Z</time>
      </trkpt>
      <trkpt lat="43.29149" lon="6.55024">
        <ele>94.2</ele>
        <time>2022-02-04T19:06:15Z</time>
      </trkpt>
      <trkpt lat="43.29149" lon="6.55024">
        <ele>94.2</ele>
        <time>2022-02-04T19:06:16Z</time>
      </trkpt>
      <trkpt lat="43.29149" lon="6.55024">
        <ele>94.2</ele>
        <time>2022-02-04T19:06:17Z</time>
      </trkpt>
      <trkpt lat="43.29149" lon="6.55024">
        <ele>94.2</ele>
        <time>2022-02-04T19:06:18Z</time>
      </trkpt>
      <trkpt lat="43.29149" lon="6.55024">
        <ele>94</ele>
        <time>2022-02-04T19:06:19Z</time>
      </trkpt>
      <trkpt lat="43.29149" lon="6.55024">
        <ele>94</ele>
        <time>2022-02-04T19:06:20Z</time>
      </trkpt>
      <trkpt lat="43.29149" lon="6.55024">
        <ele>94</ele>
        <time>2022-02-04T19:06:21Z</time>
      </trkpt>
      <trkpt lat="43.29149" lon="6.55024">
        <ele>94</ele>
        <time>2022-02-04T19:06:22Z</time>
      </trkpt>
      <trkpt lat="43.29149" lon="6.55024">
        <ele>94</ele>
        <time>2022-02-04T19:06:23Z</time>
      </trkpt>
      <trkpt lat="43.29149" lon="6.55024">
        <ele>94</ele>
        <time>2022-02-04T19:06:24Z</time>
      </trkpt>
      <trkpt lat="43.29149" lon="6.55024">
        <ele>94</ele>
        <time>2022-02-04T19:06:25Z</time>
      </trkpt>
      <trkpt lat="43.29149" lon="6.55024">
        <ele>93.8</ele>
        <time>2022-02-04T19:06:26Z</time>
      </trkpt>
      <trkpt lat="43.29149" lon="6.55024">
        <ele>93.8</ele>
        <time>2022-02-04T19:06:27Z</time>
      </trkpt>
      <trkpt lat="43.29149" lon="6.55024">
        <ele>93.8</ele>
        <time>2022-02-04T19:06:28Z</time>
      </trkpt>
      <trkpt lat="43.29149" lon="6.55024">
        <ele>93.8</ele>
        <time>2022-02-04T19:06:29Z</time>
      </trkpt>
      <trkpt lat="43.29149" lon="6.55024">
        <ele>93.8</ele>
        <time>2022-02-04T19:06:30Z</time>
      </trkpt>
      <trkpt lat="43.29149" lon="6.55024">
        <ele>93.8</ele>
        <time>2022-02-04T19:06:31Z</time>
      </trkpt>
      <trkpt lat="43.29149" lon="6.55024">
        <ele>93.8</ele>
        <time>2022-02-04T19:06:32Z</time>
      </trkpt>
      <trkpt lat="43.29149" lon="6.55024">
        <ele>93.8</ele>
        <time>2022-02-04T19:06:33Z</time>
      </trkpt>
      <trkpt lat="43.29149" lon="6.55024">
        <ele>93.8</ele>
        <time>2022-02-04T19:06:34Z</time>
      </trkpt>
      <trkpt lat="43.29149" lon="6.55024">
        <ele>93.6</ele>
        <time>2022-02-04T19:06:35Z</time>
      </trkpt>
      <trkpt lat="43.29149" lon="6.55024">
        <ele>93.6</ele>
        <time>2022-02-04T19:06:36Z</time>
      </trkpt>
      <trkpt lat="43.29149" lon="6.55024">
        <ele>93.6</ele>
        <time>2022-02-04T19:06:37Z</time>
      </trkpt>
      <trkpt lat="43.29149" lon="6.55024">
        <ele>93.6</ele>
        <time>2022-02-04T19:06:38Z</time>
      </trkpt>
      <trkpt lat="43.29149" lon="6.55024">
        <ele>93.6</ele>
        <time>2022-02-04T19:06:39Z</time>
      </trkpt>
      <trkpt lat="43.29149" lon="6.55024">
        <ele>93.6</ele>
        <time>2022-02-04T19:06:40Z</time>
      </trkpt>
      <trkpt lat="43.29149" lon="6.55024">
        <ele>93.6</ele>
        <time>2022-02-04T19:06:41Z</time>
      </trkpt>
      <trkpt lat="43.29149" lon="6.55024">
        <ele>93.6</ele>
        <time>2022-02-04T19:06:42Z</time>
      </trkpt>
      <trkpt lat="43.29149" lon="6.55024">
        <ele>93.6</ele>
        <time>2022-02-04T19:06:43Z</time>
      </trkpt>
      <trkpt lat="43.29149" lon="6.55024">
        <ele>93.6</ele>
        <time>2022-02-04T19:06:44Z</time>
      </trkpt>
      <trkpt lat="43.29149" lon="6.55024">
        <ele>93.4</ele>
        <time>2022-02-04T19:06:45Z</time>
      </trkpt>
      <trkpt lat="43.29149" lon="6.55024">
        <ele>93.4</ele>
        <time>2022-02-04T19:06:46Z</time>
      </trkpt>
      <trkpt lat="43.29151" lon="6.55026">
        <ele>93.2</ele>
        <time>2022-02-04T19:06:47Z</time>
      </trkpt>
      <trkpt lat="43.29153" lon="6.55027">
        <ele>93.2</ele>
        <time>2022-02-04T19:06:48Z</time>
      </trkpt>
      <trkpt lat="43.29155" lon="6.55029">
        <ele>93.2</ele>
        <time>2022-02-04T19:06:49Z</time>
      </trkpt>
      <trkpt lat="43.29158" lon="6.55031">
        <ele>93.2</ele>
        <time>2022-02-04T19:06:50Z</time>
      </trkpt>
      <trkpt lat="43.29161" lon="6.55032">
        <ele>93.2</ele>
        <time>2022-02-04T19:06:51Z</time>
      </trkpt>
      <trkpt lat="43.29164" lon="6.55035">
        <ele>93.2</ele>
        <time>2022-02-04T19:06:52Z</time>
      </trkpt>
      <trkpt lat="43.29167" lon="6.55039">
        <ele>93.4</ele>
        <time>2022-02-04T19:06:53Z</time>
      </trkpt>
      <trkpt lat="43.29169" lon="6.55042">
        <ele>93.6</ele>
        <time>2022-02-04T19:06:54Z</time>
      </trkpt>
      <trkpt lat="43.29172" lon="6.55046">
        <ele>93.8</ele>
        <time>2022-02-04T19:06:55Z</time>
      </trkpt>
      <trkpt lat="43.29174" lon="6.55051">
        <ele>94</ele>
        <time>2022-02-04T19:06:56Z</time>
      </trkpt>
      <trkpt lat="43.29176" lon="6.55056">
        <ele>94</ele>
        <time>2022-02-04T19:06:57Z</time>
      </trkpt>
      <trkpt lat="43.29177" lon="6.55061">
        <ele>94.4</ele>
        <time>2022-02-04T19:06:58Z</time>
      </trkpt>
      <trkpt lat="43.29177" lon="6.55066">
        <ele>95</ele>
        <time>2022-02-04T19:06:59Z</time>
      </trkpt>
      <trkpt lat="43.29176" lon="6.55071">
        <ele>95.2</ele>
        <time>2022-02-04T19:07:00Z</time>
      </trkpt>
      <trkpt lat="43.29176" lon="6.55076">
        <ele>95.4</ele>
        <time>2022-02-04T19:07:01Z</time>
      </trkpt>
      <trkpt lat="43.29175" lon="6.55081">
        <ele>95.6</ele>
        <time>2022-02-04T19:07:02Z</time>
      </trkpt>
      <trkpt lat="43.29174" lon="6.55086">
        <ele>95.8</ele>
        <time>2022-02-04T19:07:03Z</time>
      </trkpt>
      <trkpt lat="43.29173" lon="6.5509">
        <ele>96</ele>
        <time>2022-02-04T19:07:04Z</time>
      </trkpt>
      <trkpt lat="43.29173" lon="6.55093">
        <ele>96</ele>
        <time>2022-02-04T19:07:05Z</time>
      </trkpt>
      <trkpt lat="43.29171" lon="6.55097">
        <ele>96.2</ele>
        <time>2022-02-04T19:07:06Z</time>
      </trkpt>
      <trkpt lat="43.2917" lon="6.55101">
        <ele>96.2</ele>
        <time>2022-02-04T19:07:07Z</time>
      </trkpt>
      <trkpt lat="43.29168" lon="6.55105">
        <ele>96.4</ele>
        <time>2022-02-04T19:07:08Z</time>
      </trkpt>
      <trkpt lat="43.29167" lon="6.55109">
        <ele>96.4</ele>
        <time>2022-02-04T19:07:09Z</time>
      </trkpt>
      <trkpt lat="43.29165" lon="6.55112">
        <ele>96.4</ele>
        <time>2022-02-04T19:07:10Z</time>
      </trkpt>
      <trkpt lat="43.29164" lon="6.55117">
        <ele>96.6</ele>
        <time>2022-02-04T19:07:11Z</time>
      </trkpt>
      <trkpt lat="43.29163" lon="6.55121">
        <ele>96.6</ele>
        <time>2022-02-04T19:07:12Z</time>
      </trkpt>
      <trkpt lat="43.29162" lon="6.55125">
        <ele>96.8</ele>
        <time>2022-02-04T19:07:13Z</time>
      </trkpt>
      <trkpt lat="43.2916" lon="6.55128">
        <ele>96.8</ele>
        <time>2022-02-04T19:07:14Z</time>
      </trkpt>
      <trkpt lat="43.2916" lon="6.55131">
        <ele>97</ele>
        <time>2022-02-04T19:07:15Z</time>
      </trkpt>
      <trkpt lat="43.29158" lon="6.55135">
        <ele>97</ele>
        <time>2022-02-04T19:07:16Z</time>
      </trkpt>
      <trkpt lat="43.29157" lon="6.55139">
        <ele>97.2</ele>
        <time>2022-02-04T19:07:17Z</time>
      </trkpt>
      <trkpt lat="43.29155" lon="6.55144">
        <ele>97.4</ele>
        <time>2022-02-04T19:07:18Z</time>
      </trkpt>
      <trkpt lat="43.29153" lon="6.55147">
        <ele>97.4</ele>
        <time>2022-02-04T19:07:19Z</time>
      </trkpt>
      <trkpt lat="43.2915" lon="6.55152">
        <ele>97.6</ele>
        <time>2022-02-04T19:07:20Z</time>
      </trkpt>
      <trkpt lat="43.29149" lon="6.55156">
        <ele>97.6</ele>
        <time>2022-02-04T19:07:21Z</time>
      </trkpt>
      <trkpt lat="43.29147" lon="6.55158">
        <ele>97.8</ele>
        <time>2022-02-04T19:07:22Z</time>
      </trkpt>
      <trkpt lat="43.29146" lon="6.55161">
        <ele>98</ele>
        <time>2022-02-04T19:07:23Z</time>
      </trkpt>
      <trkpt lat="43.29145" lon="6.55164">
        <ele>98</ele>
        <time>2022-02-04T19:07:24Z</time>
      </trkpt>
      <trkpt lat="43.29144" lon="6.55167">
        <ele>98.2</ele>
        <time>2022-02-04T19:07:25Z</time>
      </trkpt>
      <trkpt lat="43.29143" lon="6.55171">
        <ele>98.4</ele>
        <time>2022-02-04T19:07:26Z</time>
      </trkpt>
      <trkpt lat="43.29142" lon="6.55174">
        <ele>98.6</ele>
        <time>2022-02-04T19:07:27Z</time>
      </trkpt>
      <trkpt lat="43.29141" lon="6.55177">
        <ele>98.8</ele>
        <time>2022-02-04T19:07:28Z</time>
      </trkpt>
      <trkpt lat="43.29139" lon="6.55181">
        <ele>99</ele>
        <time>2022-02-04T19:07:29Z</time>
      </trkpt>
      <trkpt lat="43.29138" lon="6.55185">
        <ele>99</ele>
        <time>2022-02-04T19:07:30Z</time>
      </trkpt>
      <trkpt lat="43.29137" lon="6.55189">
        <ele>99.4</ele>
        <time>2022-02-04T19:07:31Z</time>
      </trkpt>
      <trkpt lat="43.29135" lon="6.55193">
        <ele>99.6</ele>
        <time>2022-02-04T19:07:32Z</time>
      </trkpt>
      <trkpt lat="43.29134" lon="6.55197">
        <ele>99.6</ele>
        <time>2022-02-04T19:07:33Z</time>
      </trkpt>
      <trkpt lat="43.29133" lon="6.55201">
        <ele>99.6</ele>
        <time>2022-02-04T19:07:34Z</time>
      </trkpt>
      <trkpt lat="43.29132" lon="6.55205">
        <ele>99.8</ele>
        <time>2022-02-04T19:07:35Z</time>
      </trkpt>
      <trkpt lat="43.29131" lon="6.55209">
        <ele>100</ele>
        <time>2022-02-04T19:07:36Z</time>
      </trkpt>
      <trkpt lat="43.29131" lon="6.55214">
        <ele>100</ele>
        <time>2022-02-04T19:07:37Z</time>
      </trkpt>
      <trkpt lat="43.2913" lon="6.55218">
        <ele>100.2</ele>
        <time>2022-02-04T19:07:38Z</time>
      </trkpt>
      <trkpt lat="43.29129" lon="6.55223">
        <ele>100.4</ele>
        <time>2022-02-04T19:07:39Z</time>
      </trkpt>
      <trkpt lat="43.29128" lon="6.55227">
        <ele>100.6</ele>
        <time>2022-02-04T19:07:40Z</time>
      </trkpt>
      <trkpt lat="43.29128" lon="6.5523">
        <ele>100.6</ele>
        <time>2022-02-04T19:07:41Z</time>
      </trkpt>
      <trkpt lat="43.29127" lon="6.55235">
        <ele>100.8</ele>
        <time>2022-02-04T19:07:42Z</time>
      </trkpt>
      <trkpt lat="43.29127" lon="6.55238">
        <ele>101</ele>
        <time>2022-02-04T19:07:43Z</time>
      </trkpt>
      <trkpt lat="43.29127" lon="6.55242">
        <ele>101.2</ele>
        <time>2022-02-04T19:07:44Z</time>
      </trkpt>
      <trkpt lat="43.29126" lon="6.55246">
        <ele>101.4</ele>
        <time>2022-02-04T19:07:45Z</time>
      </trkpt>
      <trkpt lat="43.29127" lon="6.5525">
        <ele>101.6</ele>
        <time>2022-02-04T19:07:46Z</time>
      </trkpt>
      <trkpt lat="43.29127" lon="6.55253">
        <ele>101.8</ele>
        <time>2022-02-04T19:07:47Z</time>
      </trkpt>
      <trkpt lat="43.29128" lon="6.55257">
        <ele>102</ele>
        <time>2022-02-04T19:07:48Z</time>
      </trkpt>
      <trkpt lat="43.29129" lon="6.55262">
        <ele>102.2</ele>
        <time>2022-02-04T19:07:49Z</time>
      </trkpt>
      <trkpt lat="43.2913" lon="6.55266">
        <ele>102.4</ele>
        <time>2022-02-04T19:07:50Z</time>
      </trkpt>
      <trkpt lat="43.29131" lon="6.5527">
        <ele>102.6</ele>
        <time>2022-02-04T19:07:51Z</time>
      </trkpt>
      <trkpt lat="43.29132" lon="6.55274">
        <ele>102.8</ele>
        <time>2022-02-04T19:07:52Z</time>
      </trkpt>
      <trkpt lat="43.29133" lon="6.55278">
        <ele>102.8</ele>
        <time>2022-02-04T19:07:53Z</time>
      </trkpt>
      <trkpt lat="43.29134" lon="6.55282">
        <ele>103</ele>
        <time>2022-02-04T19:07:54Z</time>
      </trkpt>
      <trkpt lat="43.29135" lon="6.55286">
        <ele>103.2</ele>
        <time>2022-02-04T19:07:55Z</time>
      </trkpt>
      <trkpt lat="43.29136" lon="6.5529">
        <ele>103.4</ele>
        <time>2022-02-04T19:07:56Z</time>
      </trkpt>
      <trkpt lat="43.29137" lon="6.55294">
        <ele>103.6</ele>
        <time>2022-02-04T19:07:57Z</time>
      </trkpt>
      <trkpt lat="43.29138" lon="6.55298">
        <ele>103.8</ele>
        <time>2022-02-04T19:07:58Z</time>
      </trkpt>
      <trkpt lat="43.29139" lon="6.55303">
        <ele>104</ele>
        <time>2022-02-04T19:07:59Z</time>
      </trkpt>
      <trkpt lat="43.2914" lon="6.55306">
        <ele>104.4</ele>
        <time>2022-02-04T19:08:00Z</time>
      </trkpt>
      <trkpt lat="43.29141" lon="6.5531">
        <ele>104.6</ele>
        <time>2022-02-04T19:08:01Z</time>
      </trkpt>
      <trkpt lat="43.29143" lon="6.55314">
        <ele>105</ele>
        <time>2022-02-04T19:08:02Z</time>
      </trkpt>
      <trkpt lat="43.29145" lon="6.55317">
        <ele>105.2</ele>
        <time>2022-02-04T19:08:03Z</time>
      </trkpt>
      <trkpt lat="43.29146" lon="6.55321">
        <ele>105.2</ele>
        <time>2022-02-04T19:08:04Z</time>
      </trkpt>
      <trkpt lat="43.29148" lon="6.55325">
        <ele>105.4</ele>
        <time>2022-02-04T19:08:05Z</time>
      </trkpt>
      <trkpt lat="43.29149" lon="6.55329">
        <ele>105.6</ele>
        <time>2022-02-04T19:08:06Z</time>
      </trkpt>
      <trkpt lat="43.2915" lon="6.55333">
        <ele>105.6</ele>
        <time>2022-02-04T19:08:07Z</time>
      </trkpt>
      <trkpt lat="43.29151" lon="6.55337">
        <ele>105.8</ele>
        <time>2022-02-04T19:08:08Z</time>
      </trkpt>
      <trkpt lat="43.29152" lon="6.55341">
        <ele>105.8</ele>
        <time>2022-02-04T19:08:09Z</time>
      </trkpt>
      <trkpt lat="43.29152" lon="6.55345">
        <ele>105.8</ele>
        <time>2022-02-04T19:08:10Z</time>
      </trkpt>
      <trkpt lat="43.29152" lon="6.55349">
        <ele>106</ele>
        <time>2022-02-04T19:08:11Z</time>
      </trkpt>
      <trkpt lat="43.29151" lon="6.55353">
        <ele>106.4</ele>
        <time>2022-02-04T19:08:12Z</time>
      </trkpt>
      <trkpt lat="43.2915" lon="6.55357">
        <ele>106.6</ele>
        <time>2022-02-04T19:08:13Z</time>
      </trkpt>
      <trkpt lat="43.29148" lon="6.5536">
        <ele>106.8</ele>
        <time>2022-02-04T19:08:14Z</time>
      </trkpt>
      <trkpt lat="43.29146" lon="6.55364">
        <ele>107</ele>
        <time>2022-02-04T19:08:15Z</time>
      </trkpt>
      <trkpt lat="43.29144" lon="6.55366">
        <ele>107.4</ele>
        <time>2022-02-04T19:08:16Z</time>
      </trkpt>
      <trkpt lat="43.29142" lon="6.55369">
        <ele>107.6</ele>
        <time>2022-02-04T19:08:17Z</time>
      </trkpt>
      <trkpt lat="43.2914" lon="6.55372">
        <ele>107.8</ele>
        <time>2022-02-04T19:08:18Z</time>
      </trkpt>
      <trkpt lat="43.29138" lon="6.55375">
        <ele>107.8</ele>
        <time>2022-02-04T19:08:19Z</time>
      </trkpt>
      <trkpt lat="43.29136" lon="6.55377">
        <ele>108.2</ele>
        <time>2022-02-04T19:08:20Z</time>
      </trkpt>
      <trkpt lat="43.29133" lon="6.5538">
        <ele>108.4</ele>
        <time>2022-02-04T19:08:21Z</time>
      </trkpt>
      <trkpt lat="43.29132" lon="6.55382">
        <ele>108.8</ele>
        <time>2022-02-04T19:08:22Z</time>
      </trkpt>
      <trkpt lat="43.2913" lon="6.55384">
        <ele>109</ele>
        <time>2022-02-04T19:08:23Z</time>
      </trkpt>
      <trkpt lat="43.29128" lon="6.55387">
        <ele>109</ele>
        <time>2022-02-04T19:08:24Z</time>
      </trkpt>
      <trkpt lat="43.29126" lon="6.5539">
        <ele>109.2</ele>
        <time>2022-02-04T19:08:25Z</time>
      </trkpt>
      <trkpt lat="43.29124" lon="6.55393">
        <ele>109.2</ele>
        <time>2022-02-04T19:08:26Z</time>
      </trkpt>
      <trkpt lat="43.29123" lon="6.55396">
        <ele>109.4</ele>
        <time>2022-02-04T19:08:27Z</time>
      </trkpt>
      <trkpt lat="43.29122" lon="6.554">
        <ele>109.6</ele>
        <time>2022-02-04T19:08:28Z</time>
      </trkpt>
      <trkpt lat="43.29121" lon="6.55403">
        <ele>109.8</ele>
        <time>2022-02-04T19:08:29Z</time>
      </trkpt>
      <trkpt lat="43.2912" lon="6.55407">
        <ele>110</ele>
        <time>2022-02-04T19:08:30Z</time>
      </trkpt>
      <trkpt lat="43.29119" lon="6.55411">
        <ele>110.2</ele>
        <time>2022-02-04T19:08:31Z</time>
      </trkpt>
      <trkpt lat="43.29119" lon="6.55414">
        <ele>110.6</ele>
        <time>2022-02-04T19:08:32Z</time>
      </trkpt>
      <trkpt lat="43.29119" lon="6.55418">
        <ele>110.6</ele>
        <time>2022-02-04T19:08:33Z</time>
      </trkpt>
      <trkpt lat="43.29119" lon="6.55422">
        <ele>111</ele>
        <time>2022-02-04T19:08:34Z</time>
      </trkpt>
      <trkpt lat="43.2912" lon="6.55426">
        <ele>111.2</ele>
        <time>2022-02-04T19:08:35Z</time>
      </trkpt>
      <trkpt lat="43.2912" lon="6.5543">
        <ele>111.4</ele>
        <time>2022-02-04T19:08:36Z</time>
      </trkpt>
      <trkpt lat="43.2912" lon="6.55434">
        <ele>111.6</ele>
        <time>2022-02-04T19:08:37Z</time>
      </trkpt>
      <trkpt lat="43.29121" lon="6.55438">
        <ele>111.8</ele>
        <time>2022-02-04T19:08:38Z</time>
      </trkpt>
      <trkpt lat="43.29122" lon="6.55441">
        <ele>111.8</ele>
        <time>2022-02-04T19:08:39Z</time>
      </trkpt>
      <trkpt lat="43.29122" lon="6.55445">
        <ele>112.2</ele>
        <time>2022-02-04T19:08:40Z</time>
      </trkpt>
      <trkpt lat="43.29123" lon="6.55449">
        <ele>112.4</ele>
        <time>2022-02-04T19:08:41Z</time>
      </trkpt>
      <trkpt lat="43.29124" lon="6.55453">
        <ele>112.6</ele>
        <time>2022-02-04T19:08:42Z</time>
      </trkpt>
      <trkpt lat="43.29125" lon="6.55456">
        <ele>112.6</ele>
        <time>2022-02-04T19:08:43Z</time>
      </trkpt>
      <trkpt lat="43.29126" lon="6.5546">
        <ele>112.8</ele>
        <time>2022-02-04T19:08:44Z</time>
      </trkpt>
      <trkpt lat="43.29128" lon="6.55463">
        <ele>112.8</ele>
        <time>2022-02-04T19:08:45Z</time>
      </trkpt>
      <trkpt lat="43.2913" lon="6.55466">
        <ele>113</ele>
        <time>2022-02-04T19:08:46Z</time>
      </trkpt>
      <trkpt lat="43.29131" lon="6.55469">
        <ele>113.2</ele>
        <time>2022-02-04T19:08:47Z</time>
      </trkpt>
      <trkpt lat="43.29133" lon="6.55472">
        <ele>113.6</ele>
        <time>2022-02-04T19:08:48Z</time>
      </trkpt>
      <trkpt lat="43.29135" lon="6.55476">
        <ele>113.6</ele>
        <time>2022-02-04T19:08:49Z</time>
      </trkpt>
      <trkpt lat="43.29136" lon="6.55479">
        <ele>113.8</ele>
        <time>2022-02-04T19:08:50Z</time>
      </trkpt>
      <trkpt lat="43.29138" lon="6.55483">
        <ele>114</ele>
        <time>2022-02-04T19:08:51Z</time>
      </trkpt>
      <trkpt lat="43.2914" lon="6.55485">
        <ele>114.2</ele>
        <time>2022-02-04T19:08:52Z</time>
      </trkpt>
      <trkpt lat="43.29142" lon="6.55488">
        <ele>114.4</ele>
        <time>2022-02-04T19:08:53Z</time>
      </trkpt>
      <trkpt lat="43.29144" lon="6.5549">
        <ele>114.6</ele>
        <time>2022-02-04T19:08:54Z</time>
      </trkpt>
      <trkpt lat="43.29145" lon="6.55493">
        <ele>114.8</ele>
        <time>2022-02-04T19:08:55Z</time>
      </trkpt>
      <trkpt lat="43.29147" lon="6.55496">
        <ele>115</ele>
        <time>2022-02-04T19:08:56Z</time>
      </trkpt>
      <trkpt lat="43.29149" lon="6.55499">
        <ele>115.2</ele>
        <time>2022-02-04T19:08:57Z</time>
      </trkpt>
      <trkpt lat="43.2915" lon="6.55502">
        <ele>115.4</ele>
        <time>2022-02-04T19:08:58Z</time>
      </trkpt>
      <trkpt lat="43.29152" lon="6.55505">
        <ele>115.6</ele>
        <time>2022-02-04T19:08:59Z</time>
      </trkpt>
      <trkpt lat="43.29154" lon="6.55508">
        <ele>115.8</ele>
        <time>2022-02-04T19:09:00Z</time>
      </trkpt>
      <trkpt lat="43.29156" lon="6.55511">
        <ele>116</ele>
        <time>2022-02-04T19:09:01Z</time>
      </trkpt>
      <trkpt lat="43.29158" lon="6.55514">
        <ele>116</ele>
        <time>2022-02-04T19:09:02Z</time>
      </trkpt>
      <trkpt lat="43.2916" lon="6.55517">
        <ele>116.2</ele>
        <time>2022-02-04T19:09:03Z</time>
      </trkpt>
      <trkpt lat="43.29162" lon="6.5552">
        <ele>116.4</ele>
        <time>2022-02-04T19:09:04Z</time>
      </trkpt>
      <trkpt lat="43.29164" lon="6.55523">
        <ele>116.6</ele>
        <time>2022-02-04T19:09:05Z</time>
      </trkpt>
      <trkpt lat="43.29166" lon="6.55527">
        <ele>116.8</ele>
        <time>2022-02-04T19:09:06Z</time>
      </trkpt>
      <trkpt lat="43.29167" lon="6.5553">
        <ele>117</ele>
        <time>2022-02-04T19:09:07Z</time>
      </trkpt>
      <trkpt lat="43.29169" lon="6.55532">
        <ele>117.2</ele>
        <time>2022-02-04T19:09:08Z</time>
      </trkpt>
      <trkpt lat="43.29171" lon="6.55536">
        <ele>117.4</ele>
        <time>2022-02-04T19:09:09Z</time>
      </trkpt>
      <trkpt lat="43.29172" lon="6.55539">
        <ele>117.6</ele>
        <time>2022-02-04T19:09:10Z</time>
      </trkpt>
      <trkpt lat="43.29175" lon="6.55543">
        <ele>117.8</ele>
        <time>2022-02-04T19:09:11Z</time>
      </trkpt>
      <trkpt lat="43.29176" lon="6.55545">
        <ele>118</ele>
        <time>2022-02-04T19:09:12Z</time>
      </trkpt>
      <trkpt lat="43.29178" lon="6.55548">
        <ele>118</ele>
        <time>2022-02-04T19:09:13Z</time>
      </trkpt>
      <trkpt lat="43.2918" lon="6.55551">
        <ele>118.2</ele>
        <time>2022-02-04T19:09:14Z</time>
      </trkpt>
      <trkpt lat="43.29182" lon="6.55554">
        <ele>118.4</ele>
        <time>2022-02-04T19:09:15Z</time>
      </trkpt>
      <trkpt lat="43.29185" lon="6.55558">
        <ele>118.6</ele>
        <time>2022-02-04T19:09:16Z</time>
      </trkpt>
      <trkpt lat="43.29186" lon="6.5556">
        <ele>118.8</ele>
        <time>2022-02-04T19:09:17Z</time>
      </trkpt>
      <trkpt lat="43.29188" lon="6.55563">
        <ele>119</ele>
        <time>2022-02-04T19:09:18Z</time>
      </trkpt>
      <trkpt lat="43.2919" lon="6.55566">
        <ele>119.2</ele>
        <time>2022-02-04T19:09:19Z</time>
      </trkpt>
      <trkpt lat="43.29193" lon="6.5557">
        <ele>119.4</ele>
        <time>2022-02-04T19:09:20Z</time>
      </trkpt>
      <trkpt lat="43.29195" lon="6.55574">
        <ele>119.6</ele>
        <time>2022-02-04T19:09:21Z</time>
      </trkpt>
      <trkpt lat="43.29197" lon="6.55576">
        <ele>119.8</ele>
        <time>2022-02-04T19:09:22Z</time>
      </trkpt>
      <trkpt lat="43.29198" lon="6.55579">
        <ele>119.8</ele>
        <time>2022-02-04T19:09:23Z</time>
      </trkpt>
      <trkpt lat="43.29201" lon="6.55582">
        <ele>120</ele>
        <time>2022-02-04T19:09:24Z</time>
      </trkpt>
      <trkpt lat="43.29203" lon="6.55584">
        <ele>120.4</ele>
        <time>2022-02-04T19:09:25Z</time>
      </trkpt>
      <trkpt lat="43.29205" lon="6.55587">
        <ele>120.6</ele>
        <time>2022-02-04T19:09:26Z</time>
      </trkpt>
      <trkpt lat="43.29207" lon="6.5559">
        <ele>120.6</ele>
        <time>2022-02-04T19:09:27Z</time>
      </trkpt>
      <trkpt lat="43.29209" lon="6.55593">
        <ele>120.8</ele>
        <time>2022-02-04T19:09:28Z</time>
      </trkpt>
      <trkpt lat="43.29211" lon="6.55596">
        <ele>121</ele>
        <time>2022-02-04T19:09:29Z</time>
      </trkpt>
      <trkpt lat="43.29212" lon="6.55599">
        <ele>121.2</ele>
        <time>2022-02-04T19:09:30Z</time>
      </trkpt>
      <trkpt lat="43.29214" lon="6.55602">
        <ele>121.6</ele>
        <time>2022-02-04T19:09:31Z</time>
      </trkpt>
      <trkpt lat="43.29216" lon="6.55605">
        <ele>121.8</ele>
        <time>2022-02-04T19:09:32Z</time>
      </trkpt>
      <trkpt lat="43.29218" lon="6.55607">
        <ele>122</ele>
        <time>2022-02-04T19:09:33Z</time>
      </trkpt>
      <trkpt lat="43.2922" lon="6.5561">
        <ele>122.2</ele>
        <time>2022-02-04T19:09:34Z</time>
      </trkpt>
      <trkpt lat="43.29222" lon="6.55613">
        <ele>122.2</ele>
        <time>2022-02-04T19:09:35Z</time>
      </trkpt>
      <trkpt lat="43.29224" lon="6.55617">
        <ele>122.4</ele>
        <time>2022-02-04T19:09:36Z</time>
      </trkpt>
      <trkpt lat="43.29226" lon="6.5562">
        <ele>122.8</ele>
        <time>2022-02-04T19:09:37Z</time>
      </trkpt>
      <trkpt lat="43.29228" lon="6.55623">
        <ele>123</ele>
        <time>2022-02-04T19:09:38Z</time>
      </trkpt>
      <trkpt lat="43.2923" lon="6.55626">
        <ele>123</ele>
        <time>2022-02-04T19:09:39Z</time>
      </trkpt>
      <trkpt lat="43.29232" lon="6.55629">
        <ele>123.2</ele>
        <time>2022-02-04T19:09:40Z</time>
      </trkpt>
      <trkpt lat="43.29235" lon="6.55632">
        <ele>123.2</ele>
        <time>2022-02-04T19:09:41Z</time>
      </trkpt>
      <trkpt lat="43.29237" lon="6.55635">
        <ele>123.4</ele>
        <time>2022-02-04T19:09:42Z</time>
      </trkpt>
      <trkpt lat="43.29239" lon="6.55638">
        <ele>123.6</ele>
        <time>2022-02-04T19:09:43Z</time>
      </trkpt>
      <trkpt lat="43.29241" lon="6.55641">
        <ele>123.6</ele>
        <time>2022-02-04T19:09:44Z</time>
      </trkpt>
      <trkpt lat="43.29243" lon="6.55644">
        <ele>123.8</ele>
        <time>2022-02-04T19:09:45Z</time>
      </trkpt>
      <trkpt lat="43.29245" lon="6.55646">
        <ele>124</ele>
        <time>2022-02-04T19:09:46Z</time>
      </trkpt>
      <trkpt lat="43.29248" lon="6.55649">
        <ele>124.2</ele>
        <time>2022-02-04T19:09:47Z</time>
      </trkpt>
      <trkpt lat="43.2925" lon="6.55651">
        <ele>124.4</ele>
        <time>2022-02-04T19:09:48Z</time>
      </trkpt>
      <trkpt lat="43.29252" lon="6.55653">
        <ele>124.6</ele>
        <time>2022-02-04T19:09:49Z</time>
      </trkpt>
      <trkpt lat="43.29255" lon="6.55656">
        <ele>124.6</ele>
        <time>2022-02-04T19:09:50Z</time>
      </trkpt>
      <trkpt lat="43.29257" lon="6.55659">
        <ele>124.8</ele>
        <time>2022-02-04T19:09:51Z</time>
      </trkpt>
      <trkpt lat="43.29259" lon="6.55661">
        <ele>124.8</ele>
        <time>2022-02-04T19:09:52Z</time>
      </trkpt>
      <trkpt lat="43.29261" lon="6.55663">
        <ele>124.8</ele>
        <time>2022-02-04T19:09:53Z</time>
      </trkpt>
      <trkpt lat="43.29263" lon="6.55666">
        <ele>124.8</ele>
        <time>2022-02-04T19:09:54Z</time>
      </trkpt>
      <trkpt lat="43.29265" lon="6.55668">
        <ele>124.8</ele>
        <time>2022-02-04T19:09:55Z</time>
      </trkpt>
      <trkpt lat="43.29268" lon="6.55671">
        <ele>124.6</ele>
        <time>2022-02-04T19:09:56Z</time>
      </trkpt>
      <trkpt lat="43.29271" lon="6.55672">
        <ele>124.6</ele>
        <time>2022-02-04T19:09:57Z</time>
      </trkpt>
      <trkpt lat="43.29274" lon="6.55674">
        <ele>124.4</ele>
        <time>2022-02-04T19:09:58Z</time>
      </trkpt>
      <trkpt lat="43.29277" lon="6.55676">
        <ele>124.2</ele>
        <time>2022-02-04T19:09:59Z</time>
      </trkpt>
      <trkpt lat="43.2928" lon="6.55679">
        <ele>124.2</ele>
        <time>2022-02-04T19:10:00Z</time>
      </trkpt>
      <trkpt lat="43.29283" lon="6.55682">
        <ele>124</ele>
        <time>2022-02-04T19:10:01Z</time>
      </trkpt>
      <trkpt lat="43.29285" lon="6.55683">
        <ele>124</ele>
        <time>2022-02-04T19:10:02Z</time>
      </trkpt>
      <trkpt lat="43.29288" lon="6.55685">
        <ele>124</ele>
        <time>2022-02-04T19:10:03Z</time>
      </trkpt>
      <trkpt lat="43.2929" lon="6.55686">
        <ele>123.8</ele>
        <time>2022-02-04T19:10:04Z</time>
      </trkpt>
      <trkpt lat="43.29291" lon="6.55685">
        <ele>123.8</ele>
        <time>2022-02-04T19:10:05Z</time>
      </trkpt>
      <trkpt lat="43.29291" lon="6.55685">
        <ele>123.8</ele>
        <time>2022-02-04T19:10:06Z</time>
      </trkpt>
      <trkpt lat="43.29291" lon="6.55685">
        <ele>123.6</ele>
        <time>2022-02-04T19:10:07Z</time>
      </trkpt>
      <trkpt lat="43.29291" lon="6.55685">
        <ele>123.6</ele>
        <time>2022-02-04T19:10:08Z</time>
      </trkpt>
      <trkpt lat="43.29292" lon="6.55684">
        <ele>123.6</ele>
        <time>2022-02-04T19:10:09Z</time>
      </trkpt>
      <trkpt lat="43.29292" lon="6.55684">
        <ele>123.4</ele>
        <time>2022-02-04T19:10:10Z</time>
      </trkpt>
      <trkpt lat="43.29292" lon="6.55684">
        <ele>123.4</ele>
        <time>2022-02-04T19:10:11Z</time>
      </trkpt>
      <trkpt lat="43.29292" lon="6.55684">
        <ele>123.4</ele>
        <time>2022-02-04T19:10:12Z</time>
      </trkpt>
      <trkpt lat="43.29292" lon="6.55684">
        <ele>123.4</ele>
        <time>2022-02-04T19:10:13Z</time>
      </trkpt>
      <trkpt lat="43.29292" lon="6.55684">
        <ele>123.6</ele>
        <time>2022-02-04T19:10:14Z</time>
      </trkpt>
      <trkpt lat="43.29292" lon="6.55684">
        <ele>123.8</ele>
        <time>2022-02-04T19:10:15Z</time>
      </trkpt>
      <trkpt lat="43.29292" lon="6.55684">
        <ele>123.8</ele>
        <time>2022-02-04T19:10:16Z</time>
      </trkpt>
      <trkpt lat="43.29292" lon="6.55684">
        <ele>123.8</ele>
        <time>2022-02-04T19:10:17Z</time>
      </trkpt>
      <trkpt lat="43.29292" lon="6.55684">
        <ele>123.8</ele>
        <time>2022-02-04T19:10:18Z</time>
      </trkpt>
      <trkpt lat="43.29292" lon="6.55684">
        <ele>123.8</ele>
        <time>2022-02-04T19:10:19Z</time>
      </trkpt>
      <trkpt lat="43.29292" lon="6.55684">
        <ele>123.8</ele>
        <time>2022-02-04T19:10:20Z</time>
      </trkpt>
      <trkpt lat="43.29292" lon="6.55684">
        <ele>123.8</ele>
        <time>2022-02-04T19:10:21Z</time>
      </trkpt>
      <trkpt lat="43.29292" lon="6.55684">
        <ele>123.8</ele>
        <time>2022-02-04T19:10:22Z</time>
      </trkpt>
      <trkpt lat="43.29292" lon="6.55684">
        <ele>123.8</ele>
        <time>2022-02-04T19:10:23Z</time>
      </trkpt>
      <trkpt lat="43.29292" lon="6.55684">
        <ele>123.8</ele>
        <time>2022-02-04T19:10:24Z</time>
      </trkpt>
      <trkpt lat="43.29292" lon="6.55684">
        <ele>123.8</ele>
        <time>2022-02-04T19:10:25Z</time>
      </trkpt>
      <trkpt lat="43.29292" lon="6.55684">
        <ele>123.8</ele>
        <time>2022-02-04T19:10:26Z</time>
      </trkpt>
      <trkpt lat="43.29292" lon="6.55684">
        <ele>123.8</ele>
        <time>2022-02-04T19:10:27Z</time>
      </trkpt>
      <trkpt lat="43.29292" lon="6.55684">
        <ele>123.8</ele>
        <time>2022-02-04T19:10:28Z</time>
      </trkpt>
      <trkpt lat="43.29292" lon="6.55684">
        <ele>123.8</ele>
        <time>2022-02-04T19:10:29Z</time>
      </trkpt>
      <trkpt lat="43.29292" lon="6.55684">
        <ele>123.8</ele>
        <time>2022-02-04T19:10:30Z</time>
      </trkpt>
      <trkpt lat="43.29292" lon="6.55684">
        <ele>123.8</ele>
        <time>2022-02-04T19:10:31Z</time>
      </trkpt>
      <trkpt lat="43.29292" lon="6.55684">
        <ele>123.8</ele>
        <time>2022-02-04T19:10:32Z</time>
      </trkpt>
      <trkpt lat="43.29292" lon="6.55684">
        <ele>123.8</ele>
        <time>2022-02-04T19:10:33Z</time>
      </trkpt>
      <trkpt lat="43.29292" lon="6.55684">
        <ele>123.8</ele>
        <time>2022-02-04T19:10:34Z</time>
      </trkpt>
      <trkpt lat="43.29292" lon="6.55684">
        <ele>123.8</ele>
        <time>2022-02-04T19:10:35Z</time>
      </trkpt>
      <trkpt lat="43.29292" lon="6.55684">
        <ele>123.6</ele>
        <time>2022-02-04T19:10:36Z</time>
      </trkpt>
      <trkpt lat="43.29292" lon="6.55683">
        <ele>123.6</ele>
        <time>2022-02-04T19:10:37Z</time>
      </trkpt>
      <trkpt lat="43.29292" lon="6.55683">
        <ele>123.6</ele>
        <time>2022-02-04T19:10:38Z</time>
      </trkpt>
      <trkpt lat="43.29292" lon="6.55683">
        <ele>123.6</ele>
        <time>2022-02-04T19:10:39Z</time>
      </trkpt>
      <trkpt lat="43.29292" lon="6.55683">
        <ele>123.6</ele>
        <time>2022-02-04T19:10:40Z</time>
      </trkpt>
      <trkpt lat="43.29292" lon="6.55683">
        <ele>123.6</ele>
        <time>2022-02-04T19:10:41Z</time>
      </trkpt>
      <trkpt lat="43.29292" lon="6.55683">
        <ele>123.6</ele>
        <time>2022-02-04T19:10:42Z</time>
      </trkpt>
      <trkpt lat="43.29292" lon="6.55683">
        <ele>123.6</ele>
        <time>2022-02-04T19:10:43Z</time>
      </trkpt>
      <trkpt lat="43.29292" lon="6.55683">
        <ele>123.6</ele>
        <time>2022-02-04T19:10:44Z</time>
      </trkpt>
      <trkpt lat="43.29292" lon="6.55683">
        <ele>123.6</ele>
        <time>2022-02-04T19:10:45Z</time>
      </trkpt>
      <trkpt lat="43.29292" lon="6.55683">
        <ele>123.6</ele>
        <time>2022-02-04T19:10:46Z</time>
      </trkpt>
      <trkpt lat="43.29292" lon="6.55683">
        <ele>123.6</ele>
        <time>2022-02-04T19:10:47Z</time>
      </trkpt>
      <trkpt lat="43.29292" lon="6.55683">
        <ele>123.6</ele>
        <time>2022-02-04T19:10:48Z</time>
      </trkpt>
      <trkpt lat="43.29292" lon="6.55683">
        <ele>123.6</ele>
        <time>2022-02-04T19:10:49Z</time>
      </trkpt>
      <trkpt lat="43.29292" lon="6.55683">
        <ele>123.6</ele>
        <time>2022-02-04T19:10:50Z</time>
      </trkpt>
      <trkpt lat="43.29292" lon="6.55683">
        <ele>123.6</ele>
        <time>2022-02-04T19:10:51Z</time>
      </trkpt>
      <trkpt lat="43.29292" lon="6.55683">
        <ele>123.6</ele>
        <time>2022-02-04T19:10:52Z</time>
      </trkpt>
    </trkseg>
  </trk>
</gpx>